<?xml version="1.0" encoding="UTF-8"?>
<gpx xmlns="http://www.topografix.com/GPX/1/1" xmlns:gpsies="https://www.gpsies.com/GPX/1/0" creator="AllTrails https://www.alltrails.com/ - Gerosa_Trail_24_lungo_course" version="1.1" xmlns:xsi="http://www.w3.org/2001/XMLSchema-instance" xsi:schemaLocation="http://www.topografix.com/GPX/1/1 http://www.topografix.com/GPX/1/1/gpx.xsd https://www.gpsies.com/GPX/1/0 https://www.gpsies.com/gpsies.xsd">
  <metadata>
    <name>Gerosa_Trail_24_lungo_course</name>
    <link href="https://www.gpsies.com/">
      <text>Gerosa_Trail_24_lungo_course on AllTrails</text>
    </link>
    <time>2024-05-14T08:52:58Z</time>
  </metadata>
  <trk>
    <name>Gerosa_Trail_24_lungo_course on AllTrails</name>
    <trkseg>
      <trkpt lat="42.89934595" lon="13.32762292">
        <ele>978.00000</ele>
        <time>2024-05-10T17:40:10Z</time>
      </trkpt>
      <trkpt lat="42.89933698" lon="13.32759593">
        <ele>978.00000</ele>
        <time>2024-05-10T17:40:10Z</time>
      </trkpt>
      <trkpt lat="42.89933195" lon="13.32757892">
        <ele>978.00000</ele>
        <time>2024-05-10T17:40:10Z</time>
      </trkpt>
      <trkpt lat="42.89932793" lon="13.32756098">
        <ele>978.00000</ele>
        <time>2024-05-10T17:40:10Z</time>
      </trkpt>
      <trkpt lat="42.89932399" lon="13.32754396">
        <ele>979.00000</ele>
        <time>2024-05-10T17:40:11Z</time>
      </trkpt>
      <trkpt lat="42.89931694" lon="13.32752192">
        <ele>979.00000</ele>
        <time>2024-05-10T17:40:11Z</time>
      </trkpt>
      <trkpt lat="42.89930697" lon="13.32749292">
        <ele>979.00000</ele>
        <time>2024-05-10T17:40:12Z</time>
      </trkpt>
      <trkpt lat="42.89929691" lon="13.32745998">
        <ele>980.00000</ele>
        <time>2024-05-10T17:40:12Z</time>
      </trkpt>
      <trkpt lat="42.89928199" lon="13.32742494">
        <ele>980.00000</ele>
        <time>2024-05-10T17:40:13Z</time>
      </trkpt>
      <trkpt lat="42.89926095" lon="13.32739493">
        <ele>980.00000</ele>
        <time>2024-05-10T17:40:13Z</time>
      </trkpt>
      <trkpt lat="42.89923396" lon="13.32736794">
        <ele>980.00000</ele>
        <time>2024-05-10T17:40:14Z</time>
      </trkpt>
      <trkpt lat="42.89920496" lon="13.32734892">
        <ele>980.00000</ele>
        <time>2024-05-10T17:40:15Z</time>
      </trkpt>
      <trkpt lat="42.89917797" lon="13.32732092">
        <ele>980.00000</ele>
        <time>2024-05-10T17:40:15Z</time>
      </trkpt>
      <trkpt lat="42.89915098" lon="13.32729192">
        <ele>980.00000</ele>
        <time>2024-05-10T17:40:16Z</time>
      </trkpt>
      <trkpt lat="42.89912299" lon="13.32725697">
        <ele>980.00000</ele>
        <time>2024-05-10T17:40:17Z</time>
      </trkpt>
      <trkpt lat="42.89909097" lon="13.32721296">
        <ele>981.00000</ele>
        <time>2024-05-10T17:40:18Z</time>
      </trkpt>
      <trkpt lat="42.89905794" lon="13.32717097">
        <ele>981.00000</ele>
        <time>2024-05-10T17:40:19Z</time>
      </trkpt>
      <trkpt lat="42.89902391" lon="13.32713099">
        <ele>981.00000</ele>
        <time>2024-05-10T17:40:19Z</time>
      </trkpt>
      <trkpt lat="42.89898997" lon="13.32708899">
        <ele>981.00000</ele>
        <time>2024-05-10T17:40:20Z</time>
      </trkpt>
      <trkpt lat="42.89895895" lon="13.32704893">
        <ele>982.00000</ele>
        <time>2024-05-10T17:40:21Z</time>
      </trkpt>
      <trkpt lat="42.89892794" lon="13.32701196">
        <ele>982.00000</ele>
        <time>2024-05-10T17:40:22Z</time>
      </trkpt>
      <trkpt lat="42.89889693" lon="13.32696494">
        <ele>982.00000</ele>
        <time>2024-05-10T17:40:23Z</time>
      </trkpt>
      <trkpt lat="42.89886692" lon="13.32691599">
        <ele>982.00000</ele>
        <time>2024-05-10T17:40:24Z</time>
      </trkpt>
      <trkpt lat="42.89883792" lon="13.32686997">
        <ele>982.00000</ele>
        <time>2024-05-10T17:40:25Z</time>
      </trkpt>
      <trkpt lat="42.89881194" lon="13.32682698">
        <ele>982.00000</ele>
        <time>2024-05-10T17:40:26Z</time>
      </trkpt>
      <trkpt lat="42.89878696" lon="13.32677995">
        <ele>982.00000</ele>
        <time>2024-05-10T17:40:26Z</time>
      </trkpt>
      <trkpt lat="42.89876097" lon="13.32673394">
        <ele>982.00000</ele>
        <time>2024-05-10T17:40:27Z</time>
      </trkpt>
      <trkpt lat="42.89873398" lon="13.32668993">
        <ele>982.00000</ele>
        <time>2024-05-10T17:40:28Z</time>
      </trkpt>
      <trkpt lat="42.89870792" lon="13.32663796">
        <ele>982.00000</ele>
        <time>2024-05-10T17:40:29Z</time>
      </trkpt>
      <trkpt lat="42.89867497" lon="13.32659698">
        <ele>982.00000</ele>
        <time>2024-05-10T17:40:30Z</time>
      </trkpt>
      <trkpt lat="42.89865092" lon="13.32655498">
        <ele>982.00000</ele>
        <time>2024-05-10T17:40:31Z</time>
      </trkpt>
      <trkpt lat="42.89862192" lon="13.32651592">
        <ele>981.00000</ele>
        <time>2024-05-10T17:40:32Z</time>
      </trkpt>
      <trkpt lat="42.89858898" lon="13.32648298">
        <ele>981.00000</ele>
        <time>2024-05-10T17:40:32Z</time>
      </trkpt>
      <trkpt lat="42.89855193" lon="13.32644795">
        <ele>981.00000</ele>
        <time>2024-05-10T17:40:33Z</time>
      </trkpt>
      <trkpt lat="42.89851295" lon="13.32640394">
        <ele>981.00000</ele>
        <time>2024-05-10T17:40:34Z</time>
      </trkpt>
      <trkpt lat="42.89847398" lon="13.32635792">
        <ele>981.00000</ele>
        <time>2024-05-10T17:40:35Z</time>
      </trkpt>
      <trkpt lat="42.89843592" lon="13.32630596">
        <ele>981.00000</ele>
        <time>2024-05-10T17:40:36Z</time>
      </trkpt>
      <trkpt lat="42.89839494" lon="13.32625592">
        <ele>981.00000</ele>
        <time>2024-05-10T17:40:38Z</time>
      </trkpt>
      <trkpt lat="42.89835093" lon="13.32620797">
        <ele>980.00000</ele>
        <time>2024-05-10T17:40:39Z</time>
      </trkpt>
      <trkpt lat="42.89830994" lon="13.32616296">
        <ele>980.00000</ele>
        <time>2024-05-10T17:40:40Z</time>
      </trkpt>
      <trkpt lat="42.89827097" lon="13.32611393">
        <ele>980.00000</ele>
        <time>2024-05-10T17:40:41Z</time>
      </trkpt>
      <trkpt lat="42.89823099" lon="13.32606699">
        <ele>979.00000</ele>
        <time>2024-05-10T17:40:42Z</time>
      </trkpt>
      <trkpt lat="42.89819394" lon="13.32602198">
        <ele>979.00000</ele>
        <time>2024-05-10T17:40:43Z</time>
      </trkpt>
      <trkpt lat="42.89815396" lon="13.32597194">
        <ele>979.00000</ele>
        <time>2024-05-10T17:40:44Z</time>
      </trkpt>
      <trkpt lat="42.89811196" lon="13.32592592">
        <ele>978.00000</ele>
        <time>2024-05-10T17:40:45Z</time>
      </trkpt>
      <trkpt lat="42.89806896" lon="13.32587395">
        <ele>977.00000</ele>
        <time>2024-05-10T17:40:46Z</time>
      </trkpt>
      <trkpt lat="42.89802395" lon="13.32582391">
        <ele>976.00000</ele>
        <time>2024-05-10T17:40:47Z</time>
      </trkpt>
      <trkpt lat="42.89798095" lon="13.32577798">
        <ele>975.00000</ele>
        <time>2024-05-10T17:40:48Z</time>
      </trkpt>
      <trkpt lat="42.89793594" lon="13.32572593">
        <ele>975.00000</ele>
        <time>2024-05-10T17:40:50Z</time>
      </trkpt>
      <trkpt lat="42.89789194" lon="13.32566793">
        <ele>974.00000</ele>
        <time>2024-05-10T17:40:51Z</time>
      </trkpt>
      <trkpt lat="42.89784994" lon="13.32560892">
        <ele>973.00000</ele>
        <time>2024-05-10T17:40:52Z</time>
      </trkpt>
      <trkpt lat="42.89780795" lon="13.32555293">
        <ele>973.00000</ele>
        <time>2024-05-10T17:40:53Z</time>
      </trkpt>
      <trkpt lat="42.89776495" lon="13.32550196">
        <ele>972.00000</ele>
        <time>2024-05-10T17:40:54Z</time>
      </trkpt>
      <trkpt lat="42.89771893" lon="13.32545192">
        <ele>971.00000</ele>
        <time>2024-05-10T17:40:55Z</time>
      </trkpt>
      <trkpt lat="42.89766998" lon="13.32539996">
        <ele>969.00000</ele>
        <time>2024-05-10T17:40:57Z</time>
      </trkpt>
      <trkpt lat="42.89762095" lon="13.32534698">
        <ele>968.00000</ele>
        <time>2024-05-10T17:40:58Z</time>
      </trkpt>
      <trkpt lat="42.89757795" lon="13.32528999">
        <ele>967.00000</ele>
        <time>2024-05-10T17:40:59Z</time>
      </trkpt>
      <trkpt lat="42.89754493" lon="13.32521396">
        <ele>967.00000</ele>
        <time>2024-05-10T17:41:00Z</time>
      </trkpt>
      <trkpt lat="42.89752397" lon="13.32512696">
        <ele>967.00000</ele>
        <time>2024-05-10T17:41:02Z</time>
      </trkpt>
      <trkpt lat="42.89751794" lon="13.32503492">
        <ele>969.00000</ele>
        <time>2024-05-10T17:41:03Z</time>
      </trkpt>
      <trkpt lat="42.89752297" lon="13.32493996">
        <ele>970.00000</ele>
        <time>2024-05-10T17:41:05Z</time>
      </trkpt>
      <trkpt lat="42.89753395" lon="13.32484792">
        <ele>971.00000</ele>
        <time>2024-05-10T17:41:06Z</time>
      </trkpt>
      <trkpt lat="42.89754493" lon="13.32474994">
        <ele>972.00000</ele>
        <time>2024-05-10T17:41:07Z</time>
      </trkpt>
      <trkpt lat="42.89754996" lon="13.32465196">
        <ele>971.00000</ele>
        <time>2024-05-10T17:41:09Z</time>
      </trkpt>
      <trkpt lat="42.89756094" lon="13.32455196">
        <ele>971.00000</ele>
        <time>2024-05-10T17:41:10Z</time>
      </trkpt>
      <trkpt lat="42.89757192" lon="13.32444995">
        <ele>970.00000</ele>
        <time>2024-05-10T17:41:12Z</time>
      </trkpt>
      <trkpt lat="42.89758499" lon="13.32435096">
        <ele>969.00000</ele>
        <time>2024-05-10T17:41:13Z</time>
      </trkpt>
      <trkpt lat="42.89759798" lon="13.32425197">
        <ele>968.00000</ele>
        <time>2024-05-10T17:41:15Z</time>
      </trkpt>
      <trkpt lat="42.89761592" lon="13.32415097">
        <ele>967.00000</ele>
        <time>2024-05-10T17:41:16Z</time>
      </trkpt>
      <trkpt lat="42.89764098" lon="13.32404796">
        <ele>966.00000</ele>
        <time>2024-05-10T17:41:18Z</time>
      </trkpt>
      <trkpt lat="42.89766898" lon="13.32394695">
        <ele>965.00000</ele>
        <time>2024-05-10T17:41:20Z</time>
      </trkpt>
      <trkpt lat="42.89770293" lon="13.32383992">
        <ele>963.00000</ele>
        <time>2024-05-10T17:41:21Z</time>
      </trkpt>
      <trkpt lat="42.89774492" lon="13.32373598">
        <ele>962.00000</ele>
        <time>2024-05-10T17:41:23Z</time>
      </trkpt>
      <trkpt lat="42.89779194" lon="13.32363196">
        <ele>961.00000</ele>
        <time>2024-05-10T17:41:25Z</time>
      </trkpt>
      <trkpt lat="42.89784994" lon="13.32353398">
        <ele>960.00000</ele>
        <time>2024-05-10T17:41:27Z</time>
      </trkpt>
      <trkpt lat="42.89791993" lon="13.32344697">
        <ele>959.00000</ele>
        <time>2024-05-10T17:41:29Z</time>
      </trkpt>
      <trkpt lat="42.89799797" lon="13.32337195">
        <ele>959.00000</ele>
        <time>2024-05-10T17:41:30Z</time>
      </trkpt>
      <trkpt lat="42.89807894" lon="13.32330197">
        <ele>959.00000</ele>
        <time>2024-05-10T17:41:32Z</time>
      </trkpt>
      <trkpt lat="42.89816091" lon="13.32323298">
        <ele>959.00000</ele>
        <time>2024-05-10T17:41:34Z</time>
      </trkpt>
      <trkpt lat="42.89824297" lon="13.32317498">
        <ele>960.00000</ele>
        <time>2024-05-10T17:41:36Z</time>
      </trkpt>
      <trkpt lat="42.89832394" lon="13.32312192">
        <ele>960.00000</ele>
        <time>2024-05-10T17:41:38Z</time>
      </trkpt>
      <trkpt lat="42.89840298" lon="13.32306493">
        <ele>960.00000</ele>
        <time>2024-05-10T17:41:40Z</time>
      </trkpt>
      <trkpt lat="42.89847892" lon="13.32300793">
        <ele>960.00000</ele>
        <time>2024-05-10T17:41:41Z</time>
      </trkpt>
      <trkpt lat="42.89854992" lon="13.32295395">
        <ele>960.00000</ele>
        <time>2024-05-10T17:41:43Z</time>
      </trkpt>
      <trkpt lat="42.89861597" lon="13.32289494">
        <ele>959.00000</ele>
        <time>2024-05-10T17:41:45Z</time>
      </trkpt>
      <trkpt lat="42.89867196" lon="13.32282193">
        <ele>958.00000</ele>
        <time>2024-05-10T17:41:46Z</time>
      </trkpt>
      <trkpt lat="42.89871999" lon="13.32273694">
        <ele>957.00000</ele>
        <time>2024-05-10T17:41:48Z</time>
      </trkpt>
      <trkpt lat="42.89875695" lon="13.32264197">
        <ele>957.00000</ele>
        <time>2024-05-10T17:41:49Z</time>
      </trkpt>
      <trkpt lat="42.89879299" lon="13.32254198">
        <ele>956.00000</ele>
        <time>2024-05-10T17:41:51Z</time>
      </trkpt>
      <trkpt lat="42.89882292" lon="13.32244098">
        <ele>956.00000</ele>
        <time>2024-05-10T17:41:53Z</time>
      </trkpt>
      <trkpt lat="42.89884999" lon="13.32234391">
        <ele>956.00000</ele>
        <time>2024-05-10T17:41:54Z</time>
      </trkpt>
      <trkpt lat="42.89887296" lon="13.32224291">
        <ele>956.00000</ele>
        <time>2024-05-10T17:41:56Z</time>
      </trkpt>
      <trkpt lat="42.89889693" lon="13.32213998">
        <ele>955.00000</ele>
        <time>2024-05-10T17:41:57Z</time>
      </trkpt>
      <trkpt lat="42.89892199" lon="13.32203093">
        <ele>954.00000</ele>
        <time>2024-05-10T17:41:59Z</time>
      </trkpt>
      <trkpt lat="42.89894797" lon="13.32192298">
        <ele>953.00000</ele>
        <time>2024-05-10T17:42:01Z</time>
      </trkpt>
      <trkpt lat="42.89897597" lon="13.32181292">
        <ele>952.00000</ele>
        <time>2024-05-10T17:42:02Z</time>
      </trkpt>
      <trkpt lat="42.89900095" lon="13.32170094">
        <ele>951.00000</ele>
        <time>2024-05-10T17:42:04Z</time>
      </trkpt>
      <trkpt lat="42.89901193" lon="13.32158099">
        <ele>950.00000</ele>
        <time>2024-05-10T17:42:06Z</time>
      </trkpt>
      <trkpt lat="42.89900396" lon="13.32145895">
        <ele>949.00000</ele>
        <time>2024-05-10T17:42:08Z</time>
      </trkpt>
      <trkpt lat="42.89897798" lon="13.32134194">
        <ele>948.00000</ele>
        <time>2024-05-10T17:42:09Z</time>
      </trkpt>
      <trkpt lat="42.89893498" lon="13.32123398">
        <ele>948.00000</ele>
        <time>2024-05-10T17:42:11Z</time>
      </trkpt>
      <trkpt lat="42.89888394" lon="13.32113793">
        <ele>947.00000</ele>
        <time>2024-05-10T17:42:13Z</time>
      </trkpt>
      <trkpt lat="42.89882794" lon="13.32105193">
        <ele>946.00000</ele>
        <time>2024-05-10T17:42:15Z</time>
      </trkpt>
      <trkpt lat="42.89876298" lon="13.32097398">
        <ele>945.00000</ele>
        <time>2024-05-10T17:42:16Z</time>
      </trkpt>
      <trkpt lat="42.89869098" lon="13.32090793">
        <ele>945.00000</ele>
        <time>2024-05-10T17:42:18Z</time>
      </trkpt>
      <trkpt lat="42.89862493" lon="13.32084892">
        <ele>945.00000</ele>
        <time>2024-05-10T17:42:20Z</time>
      </trkpt>
      <trkpt lat="42.89856995" lon="13.32079896">
        <ele>943.00000</ele>
        <time>2024-05-10T17:42:21Z</time>
      </trkpt>
      <trkpt lat="42.89852092" lon="13.32076292">
        <ele>942.00000</ele>
        <time>2024-05-10T17:42:22Z</time>
      </trkpt>
      <trkpt lat="42.89847792" lon="13.32073995">
        <ele>941.00000</ele>
        <time>2024-05-10T17:42:23Z</time>
      </trkpt>
      <trkpt lat="42.89844095" lon="13.32072495">
        <ele>941.00000</ele>
        <time>2024-05-10T17:42:24Z</time>
      </trkpt>
      <trkpt lat="42.89840499" lon="13.32071699">
        <ele>940.00000</ele>
        <time>2024-05-10T17:42:25Z</time>
      </trkpt>
      <trkpt lat="42.89837297" lon="13.32071598">
        <ele>940.00000</ele>
        <time>2024-05-10T17:42:25Z</time>
      </trkpt>
      <trkpt lat="42.89834297" lon="13.32071699">
        <ele>940.00000</ele>
        <time>2024-05-10T17:42:26Z</time>
      </trkpt>
      <trkpt lat="42.89831296" lon="13.32071799">
        <ele>939.00000</ele>
        <time>2024-05-10T17:42:26Z</time>
      </trkpt>
      <trkpt lat="42.89828195" lon="13.32072193">
        <ele>939.00000</ele>
        <time>2024-05-10T17:42:27Z</time>
      </trkpt>
      <trkpt lat="42.89825093" lon="13.32073199">
        <ele>938.00000</ele>
        <time>2024-05-10T17:42:28Z</time>
      </trkpt>
      <trkpt lat="42.89821498" lon="13.32074599">
        <ele>937.00000</ele>
        <time>2024-05-10T17:42:28Z</time>
      </trkpt>
      <trkpt lat="42.89817893" lon="13.32076795">
        <ele>937.00000</ele>
        <time>2024-05-10T17:42:29Z</time>
      </trkpt>
      <trkpt lat="42.89814096" lon="13.32079695">
        <ele>936.00000</ele>
        <time>2024-05-10T17:42:30Z</time>
      </trkpt>
      <trkpt lat="42.89809897" lon="13.32082897">
        <ele>936.00000</ele>
        <time>2024-05-10T17:42:31Z</time>
      </trkpt>
      <trkpt lat="42.89805899" lon="13.32087691">
        <ele>935.00000</ele>
        <time>2024-05-10T17:42:32Z</time>
      </trkpt>
      <trkpt lat="42.89803099" lon="13.32093592">
        <ele>934.00000</ele>
        <time>2024-05-10T17:42:33Z</time>
      </trkpt>
      <trkpt lat="42.89800493" lon="13.32100097">
        <ele>934.00000</ele>
        <time>2024-05-10T17:42:34Z</time>
      </trkpt>
      <trkpt lat="42.89798296" lon="13.32107095">
        <ele>934.00000</ele>
        <time>2024-05-10T17:42:35Z</time>
      </trkpt>
      <trkpt lat="42.89796394" lon="13.32114296">
        <ele>933.00000</ele>
        <time>2024-05-10T17:42:36Z</time>
      </trkpt>
      <trkpt lat="42.89794298" lon="13.32121294">
        <ele>933.00000</ele>
        <time>2024-05-10T17:42:38Z</time>
      </trkpt>
      <trkpt lat="42.89792697" lon="13.32128796">
        <ele>933.00000</ele>
        <time>2024-05-10T17:42:39Z</time>
      </trkpt>
      <trkpt lat="42.89791096" lon="13.32136793">
        <ele>933.00000</ele>
        <time>2024-05-10T17:42:40Z</time>
      </trkpt>
      <trkpt lat="42.89789093" lon="13.32145493">
        <ele>933.00000</ele>
        <time>2024-05-10T17:42:41Z</time>
      </trkpt>
      <trkpt lat="42.89787299" lon="13.32154897">
        <ele>933.00000</ele>
        <time>2024-05-10T17:42:43Z</time>
      </trkpt>
      <trkpt lat="42.89786092" lon="13.32164394">
        <ele>934.00000</ele>
        <time>2024-05-10T17:42:44Z</time>
      </trkpt>
      <trkpt lat="42.89784793" lon="13.32174293">
        <ele>934.00000</ele>
        <time>2024-05-10T17:42:46Z</time>
      </trkpt>
      <trkpt lat="42.89783293" lon="13.32184695">
        <ele>934.00000</ele>
        <time>2024-05-10T17:42:47Z</time>
      </trkpt>
      <trkpt lat="42.89781097" lon="13.32195499">
        <ele>934.00000</ele>
        <time>2024-05-10T17:42:49Z</time>
      </trkpt>
      <trkpt lat="42.89778792" lon="13.32206496">
        <ele>933.00000</ele>
        <time>2024-05-10T17:42:50Z</time>
      </trkpt>
      <trkpt lat="42.89775699" lon="13.32217594">
        <ele>933.00000</ele>
        <time>2024-05-10T17:42:52Z</time>
      </trkpt>
      <trkpt lat="42.89771399" lon="13.32227493">
        <ele>932.00000</ele>
        <time>2024-05-10T17:42:54Z</time>
      </trkpt>
      <trkpt lat="42.89766395" lon="13.32236294">
        <ele>931.00000</ele>
        <time>2024-05-10T17:42:56Z</time>
      </trkpt>
      <trkpt lat="42.89760896" lon="13.32243997">
        <ele>930.00000</ele>
        <time>2024-05-10T17:42:57Z</time>
      </trkpt>
      <trkpt lat="42.89755398" lon="13.32251792">
        <ele>930.00000</ele>
        <time>2024-05-10T17:42:59Z</time>
      </trkpt>
      <trkpt lat="42.89749899" lon="13.32259495">
        <ele>930.00000</ele>
        <time>2024-05-10T17:43:00Z</time>
      </trkpt>
      <trkpt lat="42.89744493" lon="13.32267492">
        <ele>930.00000</ele>
        <time>2024-05-10T17:43:02Z</time>
      </trkpt>
      <trkpt lat="42.89739196" lon="13.32275496">
        <ele>931.00000</ele>
        <time>2024-05-10T17:43:03Z</time>
      </trkpt>
      <trkpt lat="42.89733496" lon="13.32283593">
        <ele>932.00000</ele>
        <time>2024-05-10T17:43:05Z</time>
      </trkpt>
      <trkpt lat="42.89727394" lon="13.32290693">
        <ele>933.00000</ele>
        <time>2024-05-10T17:43:07Z</time>
      </trkpt>
      <trkpt lat="42.89720898" lon="13.32296493">
        <ele>933.00000</ele>
        <time>2024-05-10T17:43:08Z</time>
      </trkpt>
      <trkpt lat="42.89713899" lon="13.32300893">
        <ele>933.00000</ele>
        <time>2024-05-10T17:43:10Z</time>
      </trkpt>
      <trkpt lat="42.89706598" lon="13.32302595">
        <ele>932.00000</ele>
        <time>2024-05-10T17:43:11Z</time>
      </trkpt>
      <trkpt lat="42.89699197" lon="13.32302092">
        <ele>930.00000</ele>
        <time>2024-05-10T17:43:13Z</time>
      </trkpt>
      <trkpt lat="42.89691796" lon="13.32300399">
        <ele>929.00000</ele>
        <time>2024-05-10T17:43:14Z</time>
      </trkpt>
      <trkpt lat="42.89684294" lon="13.32298295">
        <ele>928.00000</ele>
        <time>2024-05-10T17:43:16Z</time>
      </trkpt>
      <trkpt lat="42.89676692" lon="13.32295496">
        <ele>928.00000</ele>
        <time>2024-05-10T17:43:17Z</time>
      </trkpt>
      <trkpt lat="42.89668897" lon="13.32291397">
        <ele>927.00000</ele>
        <time>2024-05-10T17:43:19Z</time>
      </trkpt>
      <trkpt lat="42.89661093" lon="13.32286192">
        <ele>926.00000</ele>
        <time>2024-05-10T17:43:21Z</time>
      </trkpt>
      <trkpt lat="42.89654396" lon="13.32278899">
        <ele>925.00000</ele>
        <time>2024-05-10T17:43:22Z</time>
      </trkpt>
      <trkpt lat="42.89648596" lon="13.32269797">
        <ele>923.00000</ele>
        <time>2024-05-10T17:43:24Z</time>
      </trkpt>
      <trkpt lat="42.89643994" lon="13.32259998">
        <ele>921.00000</ele>
        <time>2024-05-10T17:43:26Z</time>
      </trkpt>
      <trkpt lat="42.89640096" lon="13.32249999">
        <ele>920.00000</ele>
        <time>2024-05-10T17:43:28Z</time>
      </trkpt>
      <trkpt lat="42.89637297" lon="13.32239094">
        <ele>919.00000</ele>
        <time>2024-05-10T17:43:29Z</time>
      </trkpt>
      <trkpt lat="42.89635797" lon="13.32227493">
        <ele>918.00000</ele>
        <time>2024-05-10T17:43:31Z</time>
      </trkpt>
      <trkpt lat="42.89635495" lon="13.32215599">
        <ele>917.00000</ele>
        <time>2024-05-10T17:43:33Z</time>
      </trkpt>
      <trkpt lat="42.89635696" lon="13.32203898">
        <ele>916.00000</ele>
        <time>2024-05-10T17:43:35Z</time>
      </trkpt>
      <trkpt lat="42.89635394" lon="13.32191493">
        <ele>914.00000</ele>
        <time>2024-05-10T17:43:36Z</time>
      </trkpt>
      <trkpt lat="42.89634598" lon="13.32179297">
        <ele>913.00000</ele>
        <time>2024-05-10T17:43:38Z</time>
      </trkpt>
      <trkpt lat="42.89632192" lon="13.32167898">
        <ele>913.00000</ele>
        <time>2024-05-10T17:43:40Z</time>
      </trkpt>
      <trkpt lat="42.89627792" lon="13.32158099">
        <ele>912.00000</ele>
        <time>2024-05-10T17:43:42Z</time>
      </trkpt>
      <trkpt lat="42.89622193" lon="13.32149692">
        <ele>912.00000</ele>
        <time>2024-05-10T17:43:43Z</time>
      </trkpt>
      <trkpt lat="42.89615294" lon="13.32142794">
        <ele>912.00000</ele>
        <time>2024-05-10T17:43:45Z</time>
      </trkpt>
      <trkpt lat="42.89607994" lon="13.32137698">
        <ele>913.00000</ele>
        <time>2024-05-10T17:43:47Z</time>
      </trkpt>
      <trkpt lat="42.89600794" lon="13.32132895">
        <ele>913.00000</ele>
        <time>2024-05-10T17:43:48Z</time>
      </trkpt>
      <trkpt lat="42.89593694" lon="13.32128394">
        <ele>913.00000</ele>
        <time>2024-05-10T17:43:50Z</time>
      </trkpt>
      <trkpt lat="42.89587198" lon="13.32123993">
        <ele>913.00000</ele>
        <time>2024-05-10T17:43:51Z</time>
      </trkpt>
      <trkpt lat="42.89581297" lon="13.32120498">
        <ele>912.00000</ele>
        <time>2024-05-10T17:43:53Z</time>
      </trkpt>
      <trkpt lat="42.89577199" lon="13.32118495">
        <ele>911.00000</ele>
        <time>2024-05-10T17:43:53Z</time>
      </trkpt>
      <trkpt lat="42.89574299" lon="13.32117992">
        <ele>911.00000</ele>
        <time>2024-05-10T17:43:54Z</time>
      </trkpt>
      <trkpt lat="42.89571993" lon="13.32117296">
        <ele>910.00000</ele>
        <time>2024-05-10T17:43:54Z</time>
      </trkpt>
      <trkpt lat="42.89570292" lon="13.32116592">
        <ele>910.00000</ele>
        <time>2024-05-10T17:43:55Z</time>
      </trkpt>
      <trkpt lat="42.89569194" lon="13.32116492">
        <ele>910.00000</ele>
        <time>2024-05-10T17:43:55Z</time>
      </trkpt>
      <trkpt lat="42.89564098" lon="13.32110993">
        <ele>909.00000</ele>
        <time>2024-05-10T17:43:56Z</time>
      </trkpt>
      <trkpt lat="42.89562195" lon="13.32106492">
        <ele>908.00000</ele>
        <time>2024-05-10T17:43:57Z</time>
      </trkpt>
      <trkpt lat="42.89559898" lon="13.32101195">
        <ele>908.00000</ele>
        <time>2024-05-10T17:43:58Z</time>
      </trkpt>
      <trkpt lat="42.89558691" lon="13.32097398">
        <ele>908.00000</ele>
        <time>2024-05-10T17:43:59Z</time>
      </trkpt>
      <trkpt lat="42.89557392" lon="13.32094497">
        <ele>908.00000</ele>
        <time>2024-05-10T17:43:59Z</time>
      </trkpt>
      <trkpt lat="42.89557199" lon="13.32093492">
        <ele>908.00000</ele>
        <time>2024-05-10T17:43:59Z</time>
      </trkpt>
      <trkpt lat="42.89557593" lon="13.32093592">
        <ele>908.00000</ele>
        <time>2024-05-10T17:43:59Z</time>
      </trkpt>
      <trkpt lat="42.89551299" lon="13.32086795">
        <ele>907.00000</ele>
        <time>2024-05-10T17:44:01Z</time>
      </trkpt>
      <trkpt lat="42.89550594" lon="13.32085696">
        <ele>907.00000</ele>
        <time>2024-05-10T17:44:01Z</time>
      </trkpt>
      <trkpt lat="42.89550092" lon="13.32083794">
        <ele>907.00000</ele>
        <time>2024-05-10T17:44:01Z</time>
      </trkpt>
      <trkpt lat="42.89549496" lon="13.32081095">
        <ele>907.00000</ele>
        <time>2024-05-10T17:44:02Z</time>
      </trkpt>
      <trkpt lat="42.89548792" lon="13.32077692">
        <ele>907.00000</ele>
        <time>2024-05-10T17:44:02Z</time>
      </trkpt>
      <trkpt lat="42.89547996" lon="13.32073794">
        <ele>907.00000</ele>
        <time>2024-05-10T17:44:03Z</time>
      </trkpt>
      <trkpt lat="42.89547099" lon="13.32069796">
        <ele>906.00000</ele>
        <time>2024-05-10T17:44:04Z</time>
      </trkpt>
      <trkpt lat="42.89546194" lon="13.32065697">
        <ele>906.00000</ele>
        <time>2024-05-10T17:44:04Z</time>
      </trkpt>
      <trkpt lat="42.89545699" lon="13.32061699">
        <ele>906.00000</ele>
        <time>2024-05-10T17:44:05Z</time>
      </trkpt>
      <trkpt lat="42.89544593" lon="13.32057793">
        <ele>906.00000</ele>
        <time>2024-05-10T17:44:05Z</time>
      </trkpt>
      <trkpt lat="42.89543394" lon="13.32053694">
        <ele>906.00000</ele>
        <time>2024-05-10T17:44:06Z</time>
      </trkpt>
      <trkpt lat="42.89542498" lon="13.32049394">
        <ele>906.00000</ele>
        <time>2024-05-10T17:44:07Z</time>
      </trkpt>
      <trkpt lat="42.89541198" lon="13.32045296">
        <ele>906.00000</ele>
        <time>2024-05-10T17:44:07Z</time>
      </trkpt>
      <trkpt lat="42.89539991" lon="13.32040694">
        <ele>905.00000</ele>
        <time>2024-05-10T17:44:08Z</time>
      </trkpt>
      <trkpt lat="42.89538793" lon="13.32036294">
        <ele>905.00000</ele>
        <time>2024-05-10T17:44:09Z</time>
      </trkpt>
      <trkpt lat="42.89537695" lon="13.32031692">
        <ele>905.00000</ele>
        <time>2024-05-10T17:44:09Z</time>
      </trkpt>
      <trkpt lat="42.89536597" lon="13.32027199">
        <ele>905.00000</ele>
        <time>2024-05-10T17:44:10Z</time>
      </trkpt>
      <trkpt lat="42.89535398" lon="13.32022899">
        <ele>905.00000</ele>
        <time>2024-05-10T17:44:11Z</time>
      </trkpt>
      <trkpt lat="42.89534392" lon="13.32019194">
        <ele>905.00000</ele>
        <time>2024-05-10T17:44:11Z</time>
      </trkpt>
      <trkpt lat="42.89533093" lon="13.32015599">
        <ele>905.00000</ele>
        <time>2024-05-10T17:44:12Z</time>
      </trkpt>
      <trkpt lat="42.89532297" lon="13.32012095">
        <ele>905.00000</ele>
        <time>2024-05-10T17:44:13Z</time>
      </trkpt>
      <trkpt lat="42.89531894" lon="13.32008197">
        <ele>905.00000</ele>
        <time>2024-05-10T17:44:13Z</time>
      </trkpt>
      <trkpt lat="42.89531299" lon="13.32003193">
        <ele>904.00000</ele>
        <time>2024-05-10T17:44:14Z</time>
      </trkpt>
      <trkpt lat="42.89530495" lon="13.31998994">
        <ele>905.00000</ele>
        <time>2024-05-10T17:44:15Z</time>
      </trkpt>
      <trkpt lat="42.89529296" lon="13.31995096">
        <ele>905.00000</ele>
        <time>2024-05-10T17:44:15Z</time>
      </trkpt>
      <trkpt lat="42.89527796" lon="13.31990998">
        <ele>905.00000</ele>
        <time>2024-05-10T17:44:16Z</time>
      </trkpt>
      <trkpt lat="42.89526999" lon="13.31986798">
        <ele>905.00000</ele>
        <time>2024-05-10T17:44:16Z</time>
      </trkpt>
      <trkpt lat="42.89525692" lon="13.31983496">
        <ele>905.00000</ele>
        <time>2024-05-10T17:44:17Z</time>
      </trkpt>
      <trkpt lat="42.89523798" lon="13.31980193">
        <ele>905.00000</ele>
        <time>2024-05-10T17:44:18Z</time>
      </trkpt>
      <trkpt lat="42.89522892" lon="13.31976698">
        <ele>905.00000</ele>
        <time>2024-05-10T17:44:18Z</time>
      </trkpt>
      <trkpt lat="42.89522297" lon="13.31972893">
        <ele>905.00000</ele>
        <time>2024-05-10T17:44:19Z</time>
      </trkpt>
      <trkpt lat="42.89520998" lon="13.31969599">
        <ele>905.00000</ele>
        <time>2024-05-10T17:44:19Z</time>
      </trkpt>
      <trkpt lat="42.89520696" lon="13.31965592">
        <ele>905.00000</ele>
        <time>2024-05-10T17:44:20Z</time>
      </trkpt>
      <trkpt lat="42.89520193" lon="13.31961795">
        <ele>906.00000</ele>
        <time>2024-05-10T17:44:20Z</time>
      </trkpt>
      <trkpt lat="42.89519397" lon="13.31958099">
        <ele>906.00000</ele>
        <time>2024-05-10T17:44:21Z</time>
      </trkpt>
      <trkpt lat="42.89518693" lon="13.31954394">
        <ele>906.00000</ele>
        <time>2024-05-10T17:44:22Z</time>
      </trkpt>
      <trkpt lat="42.89518299" lon="13.31950195">
        <ele>907.00000</ele>
        <time>2024-05-10T17:44:22Z</time>
      </trkpt>
      <trkpt lat="42.89517595" lon="13.31945895">
        <ele>907.00000</ele>
        <time>2024-05-10T17:44:23Z</time>
      </trkpt>
      <trkpt lat="42.89516799" lon="13.31942098">
        <ele>907.00000</ele>
        <time>2024-05-10T17:44:23Z</time>
      </trkpt>
      <trkpt lat="42.89515793" lon="13.31938393">
        <ele>908.00000</ele>
        <time>2024-05-10T17:44:24Z</time>
      </trkpt>
      <trkpt lat="42.89514997" lon="13.31934998">
        <ele>908.00000</ele>
        <time>2024-05-10T17:44:25Z</time>
      </trkpt>
      <trkpt lat="42.89513597" lon="13.31931394">
        <ele>909.00000</ele>
        <time>2024-05-10T17:44:25Z</time>
      </trkpt>
      <trkpt lat="42.89512197" lon="13.31927597">
        <ele>909.00000</ele>
        <time>2024-05-10T17:44:26Z</time>
      </trkpt>
      <trkpt lat="42.89510998" lon="13.31923599">
        <ele>910.00000</ele>
        <time>2024-05-10T17:44:26Z</time>
      </trkpt>
      <trkpt lat="42.89509397" lon="13.31919894">
        <ele>910.00000</ele>
        <time>2024-05-10T17:44:27Z</time>
      </trkpt>
      <trkpt lat="42.89508593" lon="13.31916592">
        <ele>911.00000</ele>
        <time>2024-05-10T17:44:28Z</time>
      </trkpt>
      <trkpt lat="42.89507495" lon="13.31913297">
        <ele>911.00000</ele>
        <time>2024-05-10T17:44:28Z</time>
      </trkpt>
      <trkpt lat="42.89505894" lon="13.31910297">
        <ele>911.00000</ele>
        <time>2024-05-10T17:44:29Z</time>
      </trkpt>
      <trkpt lat="42.89503899" lon="13.31906793">
        <ele>911.00000</ele>
        <time>2024-05-10T17:44:29Z</time>
      </trkpt>
      <trkpt lat="42.89502499" lon="13.31903994">
        <ele>911.00000</ele>
        <time>2024-05-10T17:44:30Z</time>
      </trkpt>
      <trkpt lat="42.89501594" lon="13.31900993">
        <ele>911.00000</ele>
        <time>2024-05-10T17:44:30Z</time>
      </trkpt>
      <trkpt lat="42.89500999" lon="13.31899593">
        <ele>911.00000</ele>
        <time>2024-05-10T17:44:30Z</time>
      </trkpt>
      <trkpt lat="42.89500496" lon="13.31898596">
        <ele>911.00000</ele>
        <time>2024-05-10T17:44:31Z</time>
      </trkpt>
      <trkpt lat="42.89498392" lon="13.31893994">
        <ele>911.00000</ele>
        <time>2024-05-10T17:44:31Z</time>
      </trkpt>
      <trkpt lat="42.89496992" lon="13.31891597">
        <ele>911.00000</ele>
        <time>2024-05-10T17:44:32Z</time>
      </trkpt>
      <trkpt lat="42.89495995" lon="13.31889099">
        <ele>910.00000</ele>
        <time>2024-05-10T17:44:32Z</time>
      </trkpt>
      <trkpt lat="42.89494997" lon="13.31886794">
        <ele>910.00000</ele>
        <time>2024-05-10T17:44:33Z</time>
      </trkpt>
      <trkpt lat="42.89493899" lon="13.31884698">
        <ele>910.00000</ele>
        <time>2024-05-10T17:44:33Z</time>
      </trkpt>
      <trkpt lat="42.89492298" lon="13.31882393">
        <ele>909.00000</ele>
        <time>2024-05-10T17:44:34Z</time>
      </trkpt>
      <trkpt lat="42.89491293" lon="13.31879393">
        <ele>909.00000</ele>
        <time>2024-05-10T17:44:34Z</time>
      </trkpt>
      <trkpt lat="42.89489893" lon="13.31876199">
        <ele>908.00000</ele>
        <time>2024-05-10T17:44:35Z</time>
      </trkpt>
      <trkpt lat="42.89487496" lon="13.31873492">
        <ele>908.00000</ele>
        <time>2024-05-10T17:44:35Z</time>
      </trkpt>
      <trkpt lat="42.89484696" lon="13.31870692">
        <ele>907.00000</ele>
        <time>2024-05-10T17:44:36Z</time>
      </trkpt>
      <trkpt lat="42.89482198" lon="13.31868194">
        <ele>907.00000</ele>
        <time>2024-05-10T17:44:37Z</time>
      </trkpt>
      <trkpt lat="42.89479994" lon="13.31865898">
        <ele>906.00000</ele>
        <time>2024-05-10T17:44:37Z</time>
      </trkpt>
      <trkpt lat="42.89477697" lon="13.31864791">
        <ele>906.00000</ele>
        <time>2024-05-10T17:44:38Z</time>
      </trkpt>
      <trkpt lat="42.89474898" lon="13.31862897">
        <ele>906.00000</ele>
        <time>2024-05-10T17:44:38Z</time>
      </trkpt>
      <trkpt lat="42.89471796" lon="13.31860994">
        <ele>905.00000</ele>
        <time>2024-05-10T17:44:39Z</time>
      </trkpt>
      <trkpt lat="42.89468494" lon="13.31860399">
        <ele>905.00000</ele>
        <time>2024-05-10T17:44:40Z</time>
      </trkpt>
      <trkpt lat="42.89465292" lon="13.31859092">
        <ele>904.00000</ele>
        <time>2024-05-10T17:44:40Z</time>
      </trkpt>
      <trkpt lat="42.89463196" lon="13.31857692">
        <ele>903.00000</ele>
        <time>2024-05-10T17:44:41Z</time>
      </trkpt>
      <trkpt lat="42.89461394" lon="13.31855898">
        <ele>902.00000</ele>
        <time>2024-05-10T17:44:41Z</time>
      </trkpt>
      <trkpt lat="42.89459492" lon="13.31853392">
        <ele>902.00000</ele>
        <time>2024-05-10T17:44:42Z</time>
      </trkpt>
      <trkpt lat="42.89457094" lon="13.31851699">
        <ele>901.00000</ele>
        <time>2024-05-10T17:44:42Z</time>
      </trkpt>
      <trkpt lat="42.89454898" lon="13.31849092">
        <ele>900.00000</ele>
        <time>2024-05-10T17:44:43Z</time>
      </trkpt>
      <trkpt lat="42.89452593" lon="13.31846091">
        <ele>900.00000</ele>
        <time>2024-05-10T17:44:43Z</time>
      </trkpt>
      <trkpt lat="42.89449995" lon="13.31843594">
        <ele>899.00000</ele>
        <time>2024-05-10T17:44:44Z</time>
      </trkpt>
      <trkpt lat="42.89447195" lon="13.31841096">
        <ele>899.00000</ele>
        <time>2024-05-10T17:44:45Z</time>
      </trkpt>
      <trkpt lat="42.89444597" lon="13.31838095">
        <ele>899.00000</ele>
        <time>2024-05-10T17:44:45Z</time>
      </trkpt>
      <trkpt lat="42.89442493" lon="13.31835396">
        <ele>898.00000</ele>
        <time>2024-05-10T17:44:46Z</time>
      </trkpt>
      <trkpt lat="42.89440096" lon="13.31831892">
        <ele>897.00000</ele>
        <time>2024-05-10T17:44:47Z</time>
      </trkpt>
      <trkpt lat="42.89436793" lon="13.31827995">
        <ele>895.00000</ele>
        <time>2024-05-10T17:44:48Z</time>
      </trkpt>
      <trkpt lat="42.89432896" lon="13.31824097">
        <ele>893.00000</ele>
        <time>2024-05-10T17:44:48Z</time>
      </trkpt>
      <trkpt lat="42.89429392" lon="13.31820694">
        <ele>892.00000</ele>
        <time>2024-05-10T17:44:49Z</time>
      </trkpt>
      <trkpt lat="42.89426098" lon="13.31817794">
        <ele>891.00000</ele>
        <time>2024-05-10T17:44:50Z</time>
      </trkpt>
      <trkpt lat="42.89422594" lon="13.31814492">
        <ele>890.00000</ele>
        <time>2024-05-10T17:44:51Z</time>
      </trkpt>
      <trkpt lat="42.89418898" lon="13.31809697">
        <ele>889.00000</ele>
        <time>2024-05-10T17:44:52Z</time>
      </trkpt>
      <trkpt lat="42.89414699" lon="13.31805498">
        <ele>888.00000</ele>
        <time>2024-05-10T17:44:53Z</time>
      </trkpt>
      <trkpt lat="42.89411396" lon="13.31802095">
        <ele>886.00000</ele>
        <time>2024-05-10T17:44:54Z</time>
      </trkpt>
      <trkpt lat="42.89408395" lon="13.31799094">
        <ele>885.00000</ele>
        <time>2024-05-10T17:44:55Z</time>
      </trkpt>
      <trkpt lat="42.89405294" lon="13.31797493">
        <ele>884.00000</ele>
        <time>2024-05-10T17:44:55Z</time>
      </trkpt>
      <trkpt lat="42.89402394" lon="13.31795892">
        <ele>883.00000</ele>
        <time>2024-05-10T17:44:56Z</time>
      </trkpt>
      <trkpt lat="42.89400097" lon="13.31793897">
        <ele>883.00000</ele>
        <time>2024-05-10T17:44:56Z</time>
      </trkpt>
      <trkpt lat="42.89397591" lon="13.31791492">
        <ele>882.00000</ele>
        <time>2024-05-10T17:44:57Z</time>
      </trkpt>
      <trkpt lat="42.89395496" lon="13.31788097">
        <ele>881.00000</ele>
        <time>2024-05-10T17:44:58Z</time>
      </trkpt>
      <trkpt lat="42.89393593" lon="13.31784392">
        <ele>880.00000</ele>
        <time>2024-05-10T17:44:58Z</time>
      </trkpt>
      <trkpt lat="42.89391992" lon="13.31781794">
        <ele>879.00000</ele>
        <time>2024-05-10T17:44:59Z</time>
      </trkpt>
      <trkpt lat="42.89390098" lon="13.31776698">
        <ele>878.00000</ele>
        <time>2024-05-10T17:45:00Z</time>
      </trkpt>
      <trkpt lat="42.89387499" lon="13.31772792">
        <ele>877.00000</ele>
        <time>2024-05-10T17:45:01Z</time>
      </trkpt>
      <trkpt lat="42.89386192" lon="13.31769699">
        <ele>877.00000</ele>
        <time>2024-05-10T17:45:01Z</time>
      </trkpt>
      <trkpt lat="42.89385597" lon="13.31767796">
        <ele>876.00000</ele>
        <time>2024-05-10T17:45:01Z</time>
      </trkpt>
      <trkpt lat="42.89385798" lon="13.31765592">
        <ele>876.00000</ele>
        <time>2024-05-10T17:45:02Z</time>
      </trkpt>
      <trkpt lat="42.89386192" lon="13.31764192">
        <ele>876.00000</ele>
        <time>2024-05-10T17:45:02Z</time>
      </trkpt>
      <trkpt lat="42.89387198" lon="13.31762398">
        <ele>875.00000</ele>
        <time>2024-05-10T17:45:02Z</time>
      </trkpt>
      <trkpt lat="42.89388799" lon="13.31761694">
        <ele>876.00000</ele>
        <time>2024-05-10T17:45:03Z</time>
      </trkpt>
      <trkpt lat="42.89390995" lon="13.31759791">
        <ele>875.00000</ele>
        <time>2024-05-10T17:45:03Z</time>
      </trkpt>
      <trkpt lat="42.89393291" lon="13.31759498">
        <ele>875.00000</ele>
        <time>2024-05-10T17:45:04Z</time>
      </trkpt>
      <trkpt lat="42.89396393" lon="13.31760495">
        <ele>875.00000</ele>
        <time>2024-05-10T17:45:04Z</time>
      </trkpt>
      <trkpt lat="42.89398698" lon="13.31762298">
        <ele>876.00000</ele>
        <time>2024-05-10T17:45:05Z</time>
      </trkpt>
      <trkpt lat="42.89400994" lon="13.31763898">
        <ele>876.00000</ele>
        <time>2024-05-10T17:45:05Z</time>
      </trkpt>
      <trkpt lat="42.89403693" lon="13.31765298">
        <ele>876.00000</ele>
        <time>2024-05-10T17:45:06Z</time>
      </trkpt>
      <trkpt lat="42.89406199" lon="13.31767092">
        <ele>877.00000</ele>
        <time>2024-05-10T17:45:06Z</time>
      </trkpt>
      <trkpt lat="42.89409393" lon="13.31768492">
        <ele>877.00000</ele>
        <time>2024-05-10T17:45:07Z</time>
      </trkpt>
      <trkpt lat="42.89411899" lon="13.31770193">
        <ele>878.00000</ele>
        <time>2024-05-10T17:45:08Z</time>
      </trkpt>
      <trkpt lat="42.89414891" lon="13.31771794">
        <ele>878.00000</ele>
        <time>2024-05-10T17:45:08Z</time>
      </trkpt>
      <trkpt lat="42.89417096" lon="13.31772599">
        <ele>879.00000</ele>
        <time>2024-05-10T17:45:09Z</time>
      </trkpt>
      <trkpt lat="42.89419493" lon="13.31774099">
        <ele>879.00000</ele>
        <time>2024-05-10T17:45:09Z</time>
      </trkpt>
      <trkpt lat="42.89422092" lon="13.31775692">
        <ele>879.00000</ele>
        <time>2024-05-10T17:45:10Z</time>
      </trkpt>
      <trkpt lat="42.89424799" lon="13.31778097">
        <ele>879.00000</ele>
        <time>2024-05-10T17:45:10Z</time>
      </trkpt>
      <trkpt lat="42.89428495" lon="13.31779698">
        <ele>879.00000</ele>
        <time>2024-05-10T17:45:11Z</time>
      </trkpt>
      <trkpt lat="42.89431999" lon="13.31780998">
        <ele>879.00000</ele>
        <time>2024-05-10T17:45:12Z</time>
      </trkpt>
      <trkpt lat="42.89435394" lon="13.31782196">
        <ele>879.00000</ele>
        <time>2024-05-10T17:45:13Z</time>
      </trkpt>
      <trkpt lat="42.89437992" lon="13.31783395">
        <ele>879.00000</ele>
        <time>2024-05-10T17:45:13Z</time>
      </trkpt>
      <trkpt lat="42.89439895" lon="13.31784292">
        <ele>879.00000</ele>
        <time>2024-05-10T17:45:14Z</time>
      </trkpt>
      <trkpt lat="42.89441596" lon="13.31786094">
        <ele>880.00000</ele>
        <time>2024-05-10T17:45:14Z</time>
      </trkpt>
      <trkpt lat="42.89444396" lon="13.31787695">
        <ele>880.00000</ele>
        <time>2024-05-10T17:45:15Z</time>
      </trkpt>
      <trkpt lat="42.89447095" lon="13.31789094">
        <ele>881.00000</ele>
        <time>2024-05-10T17:45:15Z</time>
      </trkpt>
      <trkpt lat="42.89449894" lon="13.31790394">
        <ele>881.00000</ele>
        <time>2024-05-10T17:45:16Z</time>
      </trkpt>
      <trkpt lat="42.89453096" lon="13.31791592">
        <ele>881.00000</ele>
        <time>2024-05-10T17:45:16Z</time>
      </trkpt>
      <trkpt lat="42.89455996" lon="13.31791299">
        <ele>881.00000</ele>
        <time>2024-05-10T17:45:17Z</time>
      </trkpt>
      <trkpt lat="42.89458394" lon="13.31791995">
        <ele>881.00000</ele>
        <time>2024-05-10T17:45:18Z</time>
      </trkpt>
      <trkpt lat="42.89460296" lon="13.31792397">
        <ele>882.00000</ele>
        <time>2024-05-10T17:45:18Z</time>
      </trkpt>
      <trkpt lat="42.89461797" lon="13.31792799">
        <ele>882.00000</ele>
        <time>2024-05-10T17:45:18Z</time>
      </trkpt>
      <trkpt lat="42.89462199" lon="13.31792799">
        <ele>882.00000</ele>
        <time>2024-05-10T17:45:18Z</time>
      </trkpt>
      <trkpt lat="42.89463791" lon="13.31792296">
        <ele>881.00000</ele>
        <time>2024-05-10T17:45:19Z</time>
      </trkpt>
      <trkpt lat="42.89466197" lon="13.31791995">
        <ele>881.00000</ele>
        <time>2024-05-10T17:45:19Z</time>
      </trkpt>
      <trkpt lat="42.89468494" lon="13.31791592">
        <ele>881.00000</ele>
        <time>2024-05-10T17:45:20Z</time>
      </trkpt>
      <trkpt lat="42.89471092" lon="13.31790494">
        <ele>880.00000</ele>
        <time>2024-05-10T17:45:20Z</time>
      </trkpt>
      <trkpt lat="42.89473196" lon="13.31789597">
        <ele>879.00000</ele>
        <time>2024-05-10T17:45:21Z</time>
      </trkpt>
      <trkpt lat="42.89475291" lon="13.31788399">
        <ele>879.00000</ele>
        <time>2024-05-10T17:45:21Z</time>
      </trkpt>
      <trkpt lat="42.89477596" lon="13.31787594">
        <ele>878.00000</ele>
        <time>2024-05-10T17:45:21Z</time>
      </trkpt>
      <trkpt lat="42.89480195" lon="13.31786999">
        <ele>878.00000</ele>
        <time>2024-05-10T17:45:22Z</time>
      </trkpt>
      <trkpt lat="42.89482793" lon="13.31786194">
        <ele>877.00000</ele>
        <time>2024-05-10T17:45:23Z</time>
      </trkpt>
      <trkpt lat="42.89485593" lon="13.31785792">
        <ele>877.00000</ele>
        <time>2024-05-10T17:45:23Z</time>
      </trkpt>
      <trkpt lat="42.89488099" lon="13.31786295">
        <ele>877.00000</ele>
        <time>2024-05-10T17:45:24Z</time>
      </trkpt>
      <trkpt lat="42.89490999" lon="13.31787292">
        <ele>878.00000</ele>
        <time>2024-05-10T17:45:24Z</time>
      </trkpt>
      <trkpt lat="42.89493698" lon="13.31788298">
        <ele>878.00000</ele>
        <time>2024-05-10T17:45:25Z</time>
      </trkpt>
      <trkpt lat="42.89496799" lon="13.31789899">
        <ele>879.00000</ele>
        <time>2024-05-10T17:45:25Z</time>
      </trkpt>
      <trkpt lat="42.89499297" lon="13.31791592">
        <ele>879.00000</ele>
        <time>2024-05-10T17:45:26Z</time>
      </trkpt>
      <trkpt lat="42.89501694" lon="13.31793797">
        <ele>880.00000</ele>
        <time>2024-05-10T17:45:27Z</time>
      </trkpt>
      <trkpt lat="42.89504293" lon="13.31796596">
        <ele>881.00000</ele>
        <time>2024-05-10T17:45:27Z</time>
      </trkpt>
      <trkpt lat="42.89506598" lon="13.31798792">
        <ele>882.00000</ele>
        <time>2024-05-10T17:45:28Z</time>
      </trkpt>
      <trkpt lat="42.89509397" lon="13.31801399">
        <ele>882.00000</ele>
        <time>2024-05-10T17:45:28Z</time>
      </trkpt>
      <trkpt lat="42.89512499" lon="13.31803696">
        <ele>883.00000</ele>
        <time>2024-05-10T17:45:29Z</time>
      </trkpt>
      <trkpt lat="42.89516195" lon="13.31806495">
        <ele>884.00000</ele>
        <time>2024-05-10T17:45:30Z</time>
      </trkpt>
      <trkpt lat="42.89518794" lon="13.31808297">
        <ele>884.00000</ele>
        <time>2024-05-10T17:45:31Z</time>
      </trkpt>
      <trkpt lat="42.89521099" lon="13.31809194">
        <ele>884.00000</ele>
        <time>2024-05-10T17:45:31Z</time>
      </trkpt>
      <trkpt lat="42.89523496" lon="13.31810896">
        <ele>884.00000</ele>
        <time>2024-05-10T17:45:32Z</time>
      </trkpt>
      <trkpt lat="42.89525499" lon="13.31812899">
        <ele>884.00000</ele>
        <time>2024-05-10T17:45:32Z</time>
      </trkpt>
      <trkpt lat="42.89527494" lon="13.31814693">
        <ele>885.00000</ele>
        <time>2024-05-10T17:45:33Z</time>
      </trkpt>
      <trkpt lat="42.89529195" lon="13.31816998">
        <ele>885.00000</ele>
        <time>2024-05-10T17:45:33Z</time>
      </trkpt>
      <trkpt lat="42.89530294" lon="13.31819797">
        <ele>885.00000</ele>
        <time>2024-05-10T17:45:34Z</time>
      </trkpt>
      <trkpt lat="42.89531492" lon="13.31822999">
        <ele>886.00000</ele>
        <time>2024-05-10T17:45:34Z</time>
      </trkpt>
      <trkpt lat="42.89532297" lon="13.31826495">
        <ele>886.00000</ele>
        <time>2024-05-10T17:45:35Z</time>
      </trkpt>
      <trkpt lat="42.89532599" lon="13.31830292">
        <ele>887.00000</ele>
        <time>2024-05-10T17:45:35Z</time>
      </trkpt>
      <trkpt lat="42.89533093" lon="13.31834399">
        <ele>888.00000</ele>
        <time>2024-05-10T17:45:36Z</time>
      </trkpt>
      <trkpt lat="42.89533495" lon="13.31837592">
        <ele>888.00000</ele>
        <time>2024-05-10T17:45:36Z</time>
      </trkpt>
      <trkpt lat="42.89534199" lon="13.31840199">
        <ele>889.00000</ele>
        <time>2024-05-10T17:45:37Z</time>
      </trkpt>
      <trkpt lat="42.89534292" lon="13.31842697">
        <ele>889.00000</ele>
        <time>2024-05-10T17:45:37Z</time>
      </trkpt>
      <trkpt lat="42.89533898" lon="13.31845697">
        <ele>890.00000</ele>
        <time>2024-05-10T17:45:37Z</time>
      </trkpt>
      <trkpt lat="42.89533596" lon="13.31849897">
        <ele>890.00000</ele>
        <time>2024-05-10T17:45:38Z</time>
      </trkpt>
      <trkpt lat="42.89533898" lon="13.31853794">
        <ele>891.00000</ele>
        <time>2024-05-10T17:45:39Z</time>
      </trkpt>
      <trkpt lat="42.89533797" lon="13.31857097">
        <ele>892.00000</ele>
        <time>2024-05-10T17:45:39Z</time>
      </trkpt>
      <trkpt lat="42.89533797" lon="13.31860198">
        <ele>892.00000</ele>
        <time>2024-05-10T17:45:40Z</time>
      </trkpt>
      <trkpt lat="42.89534292" lon="13.31862696">
        <ele>892.00000</ele>
        <time>2024-05-10T17:45:40Z</time>
      </trkpt>
      <trkpt lat="42.89534292" lon="13.31865697">
        <ele>893.00000</ele>
        <time>2024-05-10T17:45:40Z</time>
      </trkpt>
      <trkpt lat="42.89534694" lon="13.31868597">
        <ele>893.00000</ele>
        <time>2024-05-10T17:45:41Z</time>
      </trkpt>
      <trkpt lat="42.89535197" lon="13.31871899">
        <ele>894.00000</ele>
        <time>2024-05-10T17:45:41Z</time>
      </trkpt>
      <trkpt lat="42.89536094" lon="13.31875093">
        <ele>894.00000</ele>
        <time>2024-05-10T17:45:42Z</time>
      </trkpt>
      <trkpt lat="42.89536999" lon="13.31878596">
        <ele>894.00000</ele>
        <time>2024-05-10T17:45:42Z</time>
      </trkpt>
      <trkpt lat="42.89537695" lon="13.31882192">
        <ele>894.00000</ele>
        <time>2024-05-10T17:45:43Z</time>
      </trkpt>
      <trkpt lat="42.89538793" lon="13.31884992">
        <ele>894.00000</ele>
        <time>2024-05-10T17:45:43Z</time>
      </trkpt>
      <trkpt lat="42.89539195" lon="13.31887791">
        <ele>894.00000</ele>
        <time>2024-05-10T17:45:44Z</time>
      </trkpt>
      <trkpt lat="42.89540293" lon="13.31890893">
        <ele>894.00000</ele>
        <time>2024-05-10T17:45:44Z</time>
      </trkpt>
      <trkpt lat="42.89541492" lon="13.31893994">
        <ele>894.00000</ele>
        <time>2024-05-10T17:45:45Z</time>
      </trkpt>
      <trkpt lat="42.89543093" lon="13.31897095">
        <ele>893.00000</ele>
        <time>2024-05-10T17:45:45Z</time>
      </trkpt>
      <trkpt lat="42.89544291" lon="13.31901295">
        <ele>893.00000</ele>
        <time>2024-05-10T17:45:46Z</time>
      </trkpt>
      <trkpt lat="42.89545792" lon="13.31904597">
        <ele>892.00000</ele>
        <time>2024-05-10T17:45:47Z</time>
      </trkpt>
      <trkpt lat="42.89547099" lon="13.31907698">
        <ele>892.00000</ele>
        <time>2024-05-10T17:45:47Z</time>
      </trkpt>
      <trkpt lat="42.89547996" lon="13.31911194">
        <ele>891.00000</ele>
        <time>2024-05-10T17:45:48Z</time>
      </trkpt>
      <trkpt lat="42.89548893" lon="13.31914697">
        <ele>891.00000</ele>
        <time>2024-05-10T17:45:48Z</time>
      </trkpt>
      <trkpt lat="42.89550594" lon="13.31917991">
        <ele>890.00000</ele>
        <time>2024-05-10T17:45:49Z</time>
      </trkpt>
      <trkpt lat="42.89552095" lon="13.31922199">
        <ele>890.00000</ele>
        <time>2024-05-10T17:45:50Z</time>
      </trkpt>
      <trkpt lat="42.89553193" lon="13.31924999">
        <ele>889.00000</ele>
        <time>2024-05-10T17:45:50Z</time>
      </trkpt>
      <trkpt lat="42.89554593" lon="13.31928192">
        <ele>888.00000</ele>
        <time>2024-05-10T17:45:51Z</time>
      </trkpt>
      <trkpt lat="42.89555892" lon="13.31930992">
        <ele>888.00000</ele>
        <time>2024-05-10T17:45:51Z</time>
      </trkpt>
      <trkpt lat="42.89556495" lon="13.31935392">
        <ele>888.00000</ele>
        <time>2024-05-10T17:45:52Z</time>
      </trkpt>
      <trkpt lat="42.89557593" lon="13.31938594">
        <ele>887.00000</ele>
        <time>2024-05-10T17:45:52Z</time>
      </trkpt>
      <trkpt lat="42.89558499" lon="13.31940597">
        <ele>887.00000</ele>
        <time>2024-05-10T17:45:53Z</time>
      </trkpt>
      <trkpt lat="42.89556697" lon="13.31942299">
        <ele>888.00000</ele>
        <time>2024-05-10T17:45:53Z</time>
      </trkpt>
      <trkpt lat="42.89561793" lon="13.31949398">
        <ele>886.00000</ele>
        <time>2024-05-10T17:45:54Z</time>
      </trkpt>
      <trkpt lat="42.89562195" lon="13.31949591">
        <ele>886.00000</ele>
        <time>2024-05-10T17:45:55Z</time>
      </trkpt>
      <trkpt lat="42.89562799" lon="13.31951594">
        <ele>885.00000</ele>
        <time>2024-05-10T17:45:55Z</time>
      </trkpt>
      <trkpt lat="42.89563796" lon="13.31951896">
        <ele>885.00000</ele>
        <time>2024-05-10T17:45:55Z</time>
      </trkpt>
      <trkpt lat="42.89563897" lon="13.31954696">
        <ele>886.00000</ele>
        <time>2024-05-10T17:45:55Z</time>
      </trkpt>
      <trkpt lat="42.89564299" lon="13.31957093">
        <ele>886.00000</ele>
        <time>2024-05-10T17:45:56Z</time>
      </trkpt>
      <trkpt lat="42.89565397" lon="13.31959398">
        <ele>885.00000</ele>
        <time>2024-05-10T17:45:56Z</time>
      </trkpt>
      <trkpt lat="42.89566696" lon="13.31961594">
        <ele>885.00000</ele>
        <time>2024-05-10T17:45:57Z</time>
      </trkpt>
      <trkpt lat="42.89567694" lon="13.31963899">
        <ele>885.00000</ele>
        <time>2024-05-10T17:45:57Z</time>
      </trkpt>
      <trkpt lat="42.89569496" lon="13.31965894">
        <ele>884.00000</ele>
        <time>2024-05-10T17:45:57Z</time>
      </trkpt>
      <trkpt lat="42.89570996" lon="13.31968693">
        <ele>884.00000</ele>
        <time>2024-05-10T17:45:58Z</time>
      </trkpt>
      <trkpt lat="42.89571893" lon="13.31971795">
        <ele>884.00000</ele>
        <time>2024-05-10T17:45:58Z</time>
      </trkpt>
      <trkpt lat="42.89572698" lon="13.31975298">
        <ele>885.00000</ele>
        <time>2024-05-10T17:45:59Z</time>
      </trkpt>
      <trkpt lat="42.89573695" lon="13.31978593">
        <ele>885.00000</ele>
        <time>2024-05-10T17:46:00Z</time>
      </trkpt>
      <trkpt lat="42.89574793" lon="13.31982599">
        <ele>886.00000</ele>
        <time>2024-05-10T17:46:00Z</time>
      </trkpt>
      <trkpt lat="42.89576394" lon="13.31986597">
        <ele>886.00000</ele>
        <time>2024-05-10T17:46:01Z</time>
      </trkpt>
      <trkpt lat="42.89577995" lon="13.31990294">
        <ele>887.00000</ele>
        <time>2024-05-10T17:46:01Z</time>
      </trkpt>
      <trkpt lat="42.89579294" lon="13.31994292">
        <ele>887.00000</ele>
        <time>2024-05-10T17:46:02Z</time>
      </trkpt>
      <trkpt lat="42.89581197" lon="13.31998592">
        <ele>888.00000</ele>
        <time>2024-05-10T17:46:03Z</time>
      </trkpt>
      <trkpt lat="42.89582496" lon="13.32002699">
        <ele>889.00000</ele>
        <time>2024-05-10T17:46:04Z</time>
      </trkpt>
      <trkpt lat="42.89583292" lon="13.32006898">
        <ele>890.00000</ele>
        <time>2024-05-10T17:46:04Z</time>
      </trkpt>
      <trkpt lat="42.89584793" lon="13.32011299">
        <ele>891.00000</ele>
        <time>2024-05-10T17:46:05Z</time>
      </trkpt>
      <trkpt lat="42.89585497" lon="13.32015196">
        <ele>893.00000</ele>
        <time>2024-05-10T17:46:05Z</time>
      </trkpt>
      <trkpt lat="42.89586092" lon="13.32018893">
        <ele>894.00000</ele>
        <time>2024-05-10T17:46:06Z</time>
      </trkpt>
      <trkpt lat="42.89587299" lon="13.32022598">
        <ele>895.00000</ele>
        <time>2024-05-10T17:46:07Z</time>
      </trkpt>
      <trkpt lat="42.89590392" lon="13.32027199">
        <ele>895.00000</ele>
        <time>2024-05-10T17:46:08Z</time>
      </trkpt>
      <trkpt lat="42.89592496" lon="13.32030996">
        <ele>895.00000</ele>
        <time>2024-05-10T17:46:08Z</time>
      </trkpt>
      <trkpt lat="42.89594499" lon="13.32033695">
        <ele>895.00000</ele>
        <time>2024-05-10T17:46:09Z</time>
      </trkpt>
      <trkpt lat="42.89597399" lon="13.32035397">
        <ele>894.00000</ele>
        <time>2024-05-10T17:46:09Z</time>
      </trkpt>
      <trkpt lat="42.89600693" lon="13.32036998">
        <ele>893.00000</ele>
        <time>2024-05-10T17:46:10Z</time>
      </trkpt>
      <trkpt lat="42.89603593" lon="13.32037492">
        <ele>892.00000</ele>
        <time>2024-05-10T17:46:11Z</time>
      </trkpt>
      <trkpt lat="42.89606896" lon="13.32038297">
        <ele>891.00000</ele>
        <time>2024-05-10T17:46:11Z</time>
      </trkpt>
      <trkpt lat="42.89609595" lon="13.32038599">
        <ele>890.00000</ele>
        <time>2024-05-10T17:46:12Z</time>
      </trkpt>
      <trkpt lat="42.89612394" lon="13.32039194">
        <ele>889.00000</ele>
        <time>2024-05-10T17:46:12Z</time>
      </trkpt>
      <trkpt lat="42.89615395" lon="13.32039495">
        <ele>888.00000</ele>
        <time>2024-05-10T17:46:13Z</time>
      </trkpt>
      <trkpt lat="42.89618597" lon="13.32040191">
        <ele>888.00000</ele>
        <time>2024-05-10T17:46:14Z</time>
      </trkpt>
      <trkpt lat="42.89622092" lon="13.32041096">
        <ele>887.00000</ele>
        <time>2024-05-10T17:46:14Z</time>
      </trkpt>
      <trkpt lat="42.89625193" lon="13.32042396">
        <ele>886.00000</ele>
        <time>2024-05-10T17:46:15Z</time>
      </trkpt>
      <trkpt lat="42.89628496" lon="13.32043494">
        <ele>885.00000</ele>
        <time>2024-05-10T17:46:16Z</time>
      </trkpt>
      <trkpt lat="42.89630893" lon="13.32043997">
        <ele>884.00000</ele>
        <time>2024-05-10T17:46:16Z</time>
      </trkpt>
      <trkpt lat="42.89633793" lon="13.32044994">
        <ele>883.00000</ele>
        <time>2024-05-10T17:46:17Z</time>
      </trkpt>
      <trkpt lat="42.89636299" lon="13.32046293">
        <ele>883.00000</ele>
        <time>2024-05-10T17:46:17Z</time>
      </trkpt>
      <trkpt lat="42.89638496" lon="13.32047592">
        <ele>882.00000</ele>
        <time>2024-05-10T17:46:18Z</time>
      </trkpt>
      <trkpt lat="42.89641597" lon="13.32049696">
        <ele>882.00000</ele>
        <time>2024-05-10T17:46:19Z</time>
      </trkpt>
      <trkpt lat="42.89644296" lon="13.32051498">
        <ele>882.00000</ele>
        <time>2024-05-10T17:46:19Z</time>
      </trkpt>
      <trkpt lat="42.89646995" lon="13.32053292">
        <ele>883.00000</ele>
        <time>2024-05-10T17:46:20Z</time>
      </trkpt>
      <trkpt lat="42.89649493" lon="13.32055496">
        <ele>883.00000</ele>
        <time>2024-05-10T17:46:20Z</time>
      </trkpt>
      <trkpt lat="42.89652192" lon="13.32057491">
        <ele>883.00000</ele>
        <time>2024-05-10T17:46:21Z</time>
      </trkpt>
      <trkpt lat="42.89655595" lon="13.32059595">
        <ele>883.00000</ele>
        <time>2024-05-10T17:46:22Z</time>
      </trkpt>
      <trkpt lat="42.89658998" lon="13.32062294">
        <ele>884.00000</ele>
        <time>2024-05-10T17:46:23Z</time>
      </trkpt>
      <trkpt lat="42.89662099" lon="13.32064297">
        <ele>884.00000</ele>
        <time>2024-05-10T17:46:23Z</time>
      </trkpt>
      <trkpt lat="42.89663792" lon="13.32066091">
        <ele>884.00000</ele>
        <time>2024-05-10T17:46:24Z</time>
      </trkpt>
      <trkpt lat="42.89665896" lon="13.32068296">
        <ele>885.00000</ele>
        <time>2024-05-10T17:46:24Z</time>
      </trkpt>
      <trkpt lat="42.89667597" lon="13.32070693">
        <ele>886.00000</ele>
        <time>2024-05-10T17:46:25Z</time>
      </trkpt>
      <trkpt lat="42.89669198" lon="13.32073593">
        <ele>887.00000</ele>
        <time>2024-05-10T17:46:25Z</time>
      </trkpt>
      <trkpt lat="42.89669894" lon="13.32075596">
        <ele>887.00000</ele>
        <time>2024-05-10T17:46:25Z</time>
      </trkpt>
      <trkpt lat="42.89670699" lon="13.32078195">
        <ele>888.00000</ele>
        <time>2024-05-10T17:46:26Z</time>
      </trkpt>
      <trkpt lat="42.89671897" lon="13.32080299">
        <ele>889.00000</ele>
        <time>2024-05-10T17:46:26Z</time>
      </trkpt>
      <trkpt lat="42.89673096" lon="13.32082696">
        <ele>890.00000</ele>
        <time>2024-05-10T17:46:27Z</time>
      </trkpt>
      <trkpt lat="42.89673599" lon="13.32084297">
        <ele>890.00000</ele>
        <time>2024-05-10T17:46:27Z</time>
      </trkpt>
      <trkpt lat="42.89674798" lon="13.32086694">
        <ele>891.00000</ele>
        <time>2024-05-10T17:46:27Z</time>
      </trkpt>
      <trkpt lat="42.89675393" lon="13.32089192">
        <ele>891.00000</ele>
        <time>2024-05-10T17:46:28Z</time>
      </trkpt>
      <trkpt lat="42.89677195" lon="13.32091799">
        <ele>892.00000</ele>
        <time>2024-05-10T17:46:28Z</time>
      </trkpt>
      <trkpt lat="42.89679198" lon="13.32093299">
        <ele>893.00000</ele>
        <time>2024-05-10T17:46:29Z</time>
      </trkpt>
      <trkpt lat="42.89681394" lon="13.32093793">
        <ele>893.00000</ele>
        <time>2024-05-10T17:46:29Z</time>
      </trkpt>
      <trkpt lat="42.89682995" lon="13.32092997">
        <ele>893.00000</ele>
        <time>2024-05-10T17:46:30Z</time>
      </trkpt>
      <trkpt lat="42.89683699" lon="13.32090893">
        <ele>893.00000</ele>
        <time>2024-05-10T17:46:30Z</time>
      </trkpt>
      <trkpt lat="42.89683599" lon="13.32088295">
        <ele>892.00000</ele>
        <time>2024-05-10T17:46:30Z</time>
      </trkpt>
      <trkpt lat="42.89683297" lon="13.32085898">
        <ele>892.00000</ele>
        <time>2024-05-10T17:46:31Z</time>
      </trkpt>
      <trkpt lat="42.89683196" lon="13.32082998">
        <ele>891.00000</ele>
        <time>2024-05-10T17:46:31Z</time>
      </trkpt>
      <trkpt lat="42.89683791" lon="13.32079393">
        <ele>891.00000</ele>
        <time>2024-05-10T17:46:32Z</time>
      </trkpt>
      <trkpt lat="42.89683297" lon="13.32076191">
        <ele>890.00000</ele>
        <time>2024-05-10T17:46:32Z</time>
      </trkpt>
      <trkpt lat="42.89683599" lon="13.32072495">
        <ele>890.00000</ele>
        <time>2024-05-10T17:46:33Z</time>
      </trkpt>
      <trkpt lat="42.89682794" lon="13.32070391">
        <ele>889.00000</ele>
        <time>2024-05-10T17:46:33Z</time>
      </trkpt>
      <trkpt lat="42.89681394" lon="13.32067298">
        <ele>889.00000</ele>
        <time>2024-05-10T17:46:34Z</time>
      </trkpt>
      <trkpt lat="42.89680799" lon="13.32062495">
        <ele>888.00000</ele>
        <time>2024-05-10T17:46:34Z</time>
      </trkpt>
      <trkpt lat="42.89679491" lon="13.32056796">
        <ele>886.00000</ele>
        <time>2024-05-10T17:46:35Z</time>
      </trkpt>
      <trkpt lat="42.89678293" lon="13.32050492">
        <ele>885.00000</ele>
        <time>2024-05-10T17:46:36Z</time>
      </trkpt>
      <trkpt lat="42.89676792" lon="13.32043594">
        <ele>884.00000</ele>
        <time>2024-05-10T17:46:37Z</time>
      </trkpt>
      <trkpt lat="42.89675594" lon="13.32037199">
        <ele>883.00000</ele>
        <time>2024-05-10T17:46:38Z</time>
      </trkpt>
      <trkpt lat="42.89673398" lon="13.32030694">
        <ele>882.00000</ele>
        <time>2024-05-10T17:46:39Z</time>
      </trkpt>
      <trkpt lat="42.89672099" lon="13.32024098">
        <ele>881.00000</ele>
        <time>2024-05-10T17:46:40Z</time>
      </trkpt>
      <trkpt lat="42.89670598" lon="13.32017996">
        <ele>881.00000</ele>
        <time>2024-05-10T17:46:41Z</time>
      </trkpt>
      <trkpt lat="42.89668897" lon="13.32013495">
        <ele>880.00000</ele>
        <time>2024-05-10T17:46:42Z</time>
      </trkpt>
      <trkpt lat="42.89666893" lon="13.32008893">
        <ele>880.00000</ele>
        <time>2024-05-10T17:46:43Z</time>
      </trkpt>
      <trkpt lat="42.89664697" lon="13.32005096">
        <ele>879.00000</ele>
        <time>2024-05-10T17:46:43Z</time>
      </trkpt>
      <trkpt lat="42.89662493" lon="13.32001199">
        <ele>878.00000</ele>
        <time>2024-05-10T17:46:44Z</time>
      </trkpt>
      <trkpt lat="42.89660791" lon="13.31998491">
        <ele>878.00000</ele>
        <time>2024-05-10T17:46:45Z</time>
      </trkpt>
      <trkpt lat="42.89659895" lon="13.31995197">
        <ele>877.00000</ele>
        <time>2024-05-10T17:46:45Z</time>
      </trkpt>
      <trkpt lat="42.89658394" lon="13.31991693">
        <ele>876.00000</ele>
        <time>2024-05-10T17:46:46Z</time>
      </trkpt>
      <trkpt lat="42.89657196" lon="13.31986991">
        <ele>876.00000</ele>
        <time>2024-05-10T17:46:46Z</time>
      </trkpt>
      <trkpt lat="42.89656299" lon="13.31981996">
        <ele>875.00000</ele>
        <time>2024-05-10T17:46:47Z</time>
      </trkpt>
      <trkpt lat="42.89655796" lon="13.31977193">
        <ele>874.00000</ele>
        <time>2024-05-10T17:46:48Z</time>
      </trkpt>
      <trkpt lat="42.89655896" lon="13.31973094">
        <ele>874.00000</ele>
        <time>2024-05-10T17:46:48Z</time>
      </trkpt>
      <trkpt lat="42.89655997" lon="13.31968492">
        <ele>873.00000</ele>
        <time>2024-05-10T17:46:49Z</time>
      </trkpt>
      <trkpt lat="42.89656894" lon="13.31963597">
        <ele>872.00000</ele>
        <time>2024-05-10T17:46:50Z</time>
      </trkpt>
      <trkpt lat="42.89658495" lon="13.31960094">
        <ele>872.00000</ele>
        <time>2024-05-10T17:46:51Z</time>
      </trkpt>
      <trkpt lat="42.89660096" lon="13.31956892">
        <ele>872.00000</ele>
        <time>2024-05-10T17:46:51Z</time>
      </trkpt>
      <trkpt lat="42.89661697" lon="13.31954897">
        <ele>872.00000</ele>
        <time>2024-05-10T17:46:52Z</time>
      </trkpt>
      <trkpt lat="42.89663692" lon="13.31952298">
        <ele>872.00000</ele>
        <time>2024-05-10T17:46:52Z</time>
      </trkpt>
      <trkpt lat="42.89665896" lon="13.31950295">
        <ele>872.00000</ele>
        <time>2024-05-10T17:46:53Z</time>
      </trkpt>
      <trkpt lat="42.89668293" lon="13.31947294">
        <ele>873.00000</ele>
        <time>2024-05-10T17:46:53Z</time>
      </trkpt>
      <trkpt lat="42.89670598" lon="13.31944596">
        <ele>873.00000</ele>
        <time>2024-05-10T17:46:54Z</time>
      </trkpt>
      <trkpt lat="42.89673297" lon="13.31941897">
        <ele>873.00000</ele>
        <time>2024-05-10T17:46:55Z</time>
      </trkpt>
      <trkpt lat="42.89675795" lon="13.31939592">
        <ele>873.00000</ele>
        <time>2024-05-10T17:46:55Z</time>
      </trkpt>
      <trkpt lat="42.89678092" lon="13.31936893">
        <ele>873.00000</ele>
        <time>2024-05-10T17:46:56Z</time>
      </trkpt>
      <trkpt lat="42.89680397" lon="13.31933892">
        <ele>873.00000</ele>
        <time>2024-05-10T17:46:56Z</time>
      </trkpt>
      <trkpt lat="42.89682794" lon="13.31931394">
        <ele>874.00000</ele>
        <time>2024-05-10T17:46:57Z</time>
      </trkpt>
      <trkpt lat="42.89685199" lon="13.31928997">
        <ele>874.00000</ele>
        <time>2024-05-10T17:46:58Z</time>
      </trkpt>
      <trkpt lat="42.89687496" lon="13.31926692">
        <ele>874.00000</ele>
        <time>2024-05-10T17:46:58Z</time>
      </trkpt>
      <trkpt lat="42.89689499" lon="13.31924093">
        <ele>875.00000</ele>
        <time>2024-05-10T17:46:59Z</time>
      </trkpt>
      <trkpt lat="42.89691394" lon="13.31921797">
        <ele>875.00000</ele>
        <time>2024-05-10T17:46:59Z</time>
      </trkpt>
      <trkpt lat="42.89692995" lon="13.31919693">
        <ele>875.00000</ele>
        <time>2024-05-10T17:47:00Z</time>
      </trkpt>
      <trkpt lat="42.89694495" lon="13.31917597">
        <ele>876.00000</ele>
        <time>2024-05-10T17:47:00Z</time>
      </trkpt>
      <trkpt lat="42.89695694" lon="13.31915996">
        <ele>876.00000</ele>
        <time>2024-05-10T17:47:00Z</time>
      </trkpt>
      <trkpt lat="42.89696892" lon="13.31913893">
        <ele>876.00000</ele>
        <time>2024-05-10T17:47:01Z</time>
      </trkpt>
      <trkpt lat="42.89697999" lon="13.31911495">
        <ele>876.00000</ele>
        <time>2024-05-10T17:47:01Z</time>
      </trkpt>
      <trkpt lat="42.89699692" lon="13.31908293">
        <ele>876.00000</ele>
        <time>2024-05-10T17:47:02Z</time>
      </trkpt>
      <trkpt lat="42.89702592" lon="13.31905293">
        <ele>876.00000</ele>
        <time>2024-05-10T17:47:03Z</time>
      </trkpt>
      <trkpt lat="42.89705098" lon="13.31901999">
        <ele>876.00000</ele>
        <time>2024-05-10T17:47:03Z</time>
      </trkpt>
      <trkpt lat="42.89707596" lon="13.31898495">
        <ele>876.00000</ele>
        <time>2024-05-10T17:47:04Z</time>
      </trkpt>
      <trkpt lat="42.89709499" lon="13.31895293">
        <ele>876.00000</ele>
        <time>2024-05-10T17:47:05Z</time>
      </trkpt>
      <trkpt lat="42.89711091" lon="13.31892695">
        <ele>876.00000</ele>
        <time>2024-05-10T17:47:05Z</time>
      </trkpt>
      <trkpt lat="42.89712499" lon="13.31889694">
        <ele>876.00000</ele>
        <time>2024-05-10T17:47:06Z</time>
      </trkpt>
      <trkpt lat="42.89713899" lon="13.31886492">
        <ele>876.00000</ele>
        <time>2024-05-10T17:47:06Z</time>
      </trkpt>
      <trkpt lat="42.89715299" lon="13.31883894">
        <ele>875.00000</ele>
        <time>2024-05-10T17:47:07Z</time>
      </trkpt>
      <trkpt lat="42.89716891" lon="13.31881698">
        <ele>875.00000</ele>
        <time>2024-05-10T17:47:07Z</time>
      </trkpt>
      <trkpt lat="42.89718492" lon="13.31878999">
        <ele>875.00000</ele>
        <time>2024-05-10T17:47:08Z</time>
      </trkpt>
      <trkpt lat="42.89720294" lon="13.31876794">
        <ele>875.00000</ele>
        <time>2024-05-10T17:47:08Z</time>
      </trkpt>
      <trkpt lat="42.89722298" lon="13.31874397">
        <ele>875.00000</ele>
        <time>2024-05-10T17:47:09Z</time>
      </trkpt>
      <trkpt lat="42.89724494" lon="13.31872193">
        <ele>875.00000</ele>
        <time>2024-05-10T17:47:09Z</time>
      </trkpt>
      <trkpt lat="42.89726598" lon="13.31870198">
        <ele>875.00000</ele>
        <time>2024-05-10T17:47:10Z</time>
      </trkpt>
      <trkpt lat="42.89728391" lon="13.31868194">
        <ele>874.00000</ele>
        <time>2024-05-10T17:47:10Z</time>
      </trkpt>
      <trkpt lat="42.89730093" lon="13.31865998">
        <ele>874.00000</ele>
        <time>2024-05-10T17:47:11Z</time>
      </trkpt>
      <trkpt lat="42.89732096" lon="13.31864297">
        <ele>874.00000</ele>
        <time>2024-05-10T17:47:11Z</time>
      </trkpt>
      <trkpt lat="42.89733898" lon="13.31862394">
        <ele>874.00000</ele>
        <time>2024-05-10T17:47:11Z</time>
      </trkpt>
      <trkpt lat="42.89736094" lon="13.31860399">
        <ele>874.00000</ele>
        <time>2024-05-10T17:47:12Z</time>
      </trkpt>
      <trkpt lat="42.89738492" lon="13.31858094">
        <ele>874.00000</ele>
        <time>2024-05-10T17:47:13Z</time>
      </trkpt>
      <trkpt lat="42.89740797" lon="13.31856594">
        <ele>874.00000</ele>
        <time>2024-05-10T17:47:13Z</time>
      </trkpt>
      <trkpt lat="42.89742892" lon="13.31854993">
        <ele>874.00000</ele>
        <time>2024-05-10T17:47:14Z</time>
      </trkpt>
      <trkpt lat="42.89745298" lon="13.31853593">
        <ele>874.00000</ele>
        <time>2024-05-10T17:47:14Z</time>
      </trkpt>
      <trkpt lat="42.89747796" lon="13.31852998">
        <ele>874.00000</ele>
        <time>2024-05-10T17:47:15Z</time>
      </trkpt>
      <trkpt lat="42.89749899" lon="13.31851892">
        <ele>874.00000</ele>
        <time>2024-05-10T17:47:15Z</time>
      </trkpt>
      <trkpt lat="42.89752196" lon="13.31851196">
        <ele>875.00000</ele>
        <time>2024-05-10T17:47:16Z</time>
      </trkpt>
      <trkpt lat="42.89754291" lon="13.31850492">
        <ele>875.00000</ele>
        <time>2024-05-10T17:47:16Z</time>
      </trkpt>
      <trkpt lat="42.89757393" lon="13.31850492">
        <ele>875.00000</ele>
        <time>2024-05-10T17:47:17Z</time>
      </trkpt>
      <trkpt lat="42.89760293" lon="13.31850592">
        <ele>876.00000</ele>
        <time>2024-05-10T17:47:17Z</time>
      </trkpt>
      <trkpt lat="42.89762598" lon="13.31851196">
        <ele>876.00000</ele>
        <time>2024-05-10T17:47:18Z</time>
      </trkpt>
      <trkpt lat="42.89765398" lon="13.31850995">
        <ele>877.00000</ele>
        <time>2024-05-10T17:47:18Z</time>
      </trkpt>
      <trkpt lat="42.89767996" lon="13.31850299">
        <ele>877.00000</ele>
        <time>2024-05-10T17:47:19Z</time>
      </trkpt>
      <trkpt lat="42.89770393" lon="13.31849796">
        <ele>877.00000</ele>
        <time>2024-05-10T17:47:19Z</time>
      </trkpt>
      <trkpt lat="42.89772799" lon="13.31848992">
        <ele>877.00000</ele>
        <time>2024-05-10T17:47:20Z</time>
      </trkpt>
      <trkpt lat="42.89774794" lon="13.31847692">
        <ele>877.00000</ele>
        <time>2024-05-10T17:47:20Z</time>
      </trkpt>
      <trkpt lat="42.89777199" lon="13.31846896">
        <ele>877.00000</ele>
        <time>2024-05-10T17:47:21Z</time>
      </trkpt>
      <trkpt lat="42.89779898" lon="13.31846896">
        <ele>877.00000</ele>
        <time>2024-05-10T17:47:21Z</time>
      </trkpt>
      <trkpt lat="42.89782899" lon="13.31847399">
        <ele>878.00000</ele>
        <time>2024-05-10T17:47:22Z</time>
      </trkpt>
      <trkpt lat="42.89785598" lon="13.31847894">
        <ele>878.00000</ele>
        <time>2024-05-10T17:47:22Z</time>
      </trkpt>
      <trkpt lat="42.89787995" lon="13.31847793">
        <ele>878.00000</ele>
        <time>2024-05-10T17:47:23Z</time>
      </trkpt>
      <trkpt lat="42.89790392" lon="13.31847097">
        <ele>878.00000</ele>
        <time>2024-05-10T17:47:23Z</time>
      </trkpt>
      <trkpt lat="42.89792798" lon="13.31846594">
        <ele>878.00000</ele>
        <time>2024-05-10T17:47:24Z</time>
      </trkpt>
      <trkpt lat="42.89795095" lon="13.31846192">
        <ele>878.00000</ele>
        <time>2024-05-10T17:47:24Z</time>
      </trkpt>
      <trkpt lat="42.89797592" lon="13.31846091">
        <ele>879.00000</ele>
        <time>2024-05-10T17:47:25Z</time>
      </trkpt>
      <trkpt lat="42.89800199" lon="13.31846192">
        <ele>879.00000</ele>
        <time>2024-05-10T17:47:25Z</time>
      </trkpt>
      <trkpt lat="42.89802798" lon="13.31845899">
        <ele>879.00000</ele>
        <time>2024-05-10T17:47:26Z</time>
      </trkpt>
      <trkpt lat="42.89805295" lon="13.31846091">
        <ele>879.00000</ele>
        <time>2024-05-10T17:47:26Z</time>
      </trkpt>
      <trkpt lat="42.89807894" lon="13.31845597">
        <ele>880.00000</ele>
        <time>2024-05-10T17:47:27Z</time>
      </trkpt>
      <trkpt lat="42.89810199" lon="13.31845195">
        <ele>880.00000</ele>
        <time>2024-05-10T17:47:27Z</time>
      </trkpt>
      <trkpt lat="42.89812395" lon="13.31844298">
        <ele>880.00000</ele>
        <time>2024-05-10T17:47:28Z</time>
      </trkpt>
      <trkpt lat="42.89814893" lon="13.31843594">
        <ele>880.00000</ele>
        <time>2024-05-10T17:47:28Z</time>
      </trkpt>
      <trkpt lat="42.89817399" lon="13.31843493">
        <ele>880.00000</ele>
        <time>2024-05-10T17:47:29Z</time>
      </trkpt>
      <trkpt lat="42.89820198" lon="13.31842596">
        <ele>880.00000</ele>
        <time>2024-05-10T17:47:29Z</time>
      </trkpt>
      <trkpt lat="42.89823099" lon="13.31840895">
        <ele>880.00000</ele>
        <time>2024-05-10T17:47:30Z</time>
      </trkpt>
      <trkpt lat="42.89825999" lon="13.31838992">
        <ele>879.00000</ele>
        <time>2024-05-10T17:47:31Z</time>
      </trkpt>
      <trkpt lat="42.89828597" lon="13.31837693">
        <ele>879.00000</ele>
        <time>2024-05-10T17:47:31Z</time>
      </trkpt>
      <trkpt lat="42.89830793" lon="13.31836092">
        <ele>879.00000</ele>
        <time>2024-05-10T17:47:32Z</time>
      </trkpt>
      <trkpt lat="42.89833392" lon="13.31834097">
        <ele>879.00000</ele>
        <time>2024-05-10T17:47:32Z</time>
      </trkpt>
      <trkpt lat="42.89835998" lon="13.31832194">
        <ele>878.00000</ele>
        <time>2024-05-10T17:47:33Z</time>
      </trkpt>
      <trkpt lat="42.89838496" lon="13.31829797">
        <ele>878.00000</ele>
        <time>2024-05-10T17:47:33Z</time>
      </trkpt>
      <trkpt lat="42.89840793" lon="13.31827299">
        <ele>877.00000</ele>
        <time>2024-05-10T17:47:34Z</time>
      </trkpt>
      <trkpt lat="42.89843793" lon="13.31825497">
        <ele>877.00000</ele>
        <time>2024-05-10T17:47:35Z</time>
      </trkpt>
      <trkpt lat="42.89846492" lon="13.31824198">
        <ele>877.00000</ele>
        <time>2024-05-10T17:47:35Z</time>
      </trkpt>
      <trkpt lat="42.89848898" lon="13.31822899">
        <ele>877.00000</ele>
        <time>2024-05-10T17:47:36Z</time>
      </trkpt>
      <trkpt lat="42.89851698" lon="13.31821893">
        <ele>877.00000</ele>
        <time>2024-05-10T17:47:36Z</time>
      </trkpt>
      <trkpt lat="42.89854095" lon="13.31820996">
        <ele>877.00000</ele>
        <time>2024-05-10T17:47:37Z</time>
      </trkpt>
      <trkpt lat="42.89856492" lon="13.31820292">
        <ele>877.00000</ele>
        <time>2024-05-10T17:47:37Z</time>
      </trkpt>
      <trkpt lat="42.89858998" lon="13.31819395">
        <ele>877.00000</ele>
        <time>2024-05-10T17:47:38Z</time>
      </trkpt>
      <trkpt lat="42.89861697" lon="13.31818699">
        <ele>877.00000</ele>
        <time>2024-05-10T17:47:38Z</time>
      </trkpt>
      <trkpt lat="42.89864195" lon="13.31817291">
        <ele>877.00000</ele>
        <time>2024-05-10T17:47:39Z</time>
      </trkpt>
      <trkpt lat="42.89866492" lon="13.31815497">
        <ele>876.00000</ele>
        <time>2024-05-10T17:47:39Z</time>
      </trkpt>
      <trkpt lat="42.89868897" lon="13.31813595">
        <ele>876.00000</ele>
        <time>2024-05-10T17:47:40Z</time>
      </trkpt>
      <trkpt lat="42.89871194" lon="13.31811198">
        <ele>875.00000</ele>
        <time>2024-05-10T17:47:41Z</time>
      </trkpt>
      <trkpt lat="42.89873591" lon="13.31808893">
        <ele>875.00000</ele>
        <time>2024-05-10T17:47:41Z</time>
      </trkpt>
      <trkpt lat="42.89875796" lon="13.31806194">
        <ele>874.00000</ele>
        <time>2024-05-10T17:47:42Z</time>
      </trkpt>
      <trkpt lat="42.89878293" lon="13.31803595">
        <ele>873.00000</ele>
        <time>2024-05-10T17:47:42Z</time>
      </trkpt>
      <trkpt lat="42.89880196" lon="13.31801299">
        <ele>873.00000</ele>
        <time>2024-05-10T17:47:43Z</time>
      </trkpt>
      <trkpt lat="42.89882099" lon="13.31798993">
        <ele>873.00000</ele>
        <time>2024-05-10T17:47:43Z</time>
      </trkpt>
      <trkpt lat="42.89884697" lon="13.31796999">
        <ele>872.00000</ele>
        <time>2024-05-10T17:47:44Z</time>
      </trkpt>
      <trkpt lat="42.89887396" lon="13.31795196">
        <ele>872.00000</ele>
        <time>2024-05-10T17:47:45Z</time>
      </trkpt>
      <trkpt lat="42.89889793" lon="13.31793696">
        <ele>872.00000</ele>
        <time>2024-05-10T17:47:45Z</time>
      </trkpt>
      <trkpt lat="42.89892098" lon="13.31792598">
        <ele>872.00000</ele>
        <time>2024-05-10T17:47:46Z</time>
      </trkpt>
      <trkpt lat="42.89894697" lon="13.31791399">
        <ele>872.00000</ele>
        <time>2024-05-10T17:47:46Z</time>
      </trkpt>
      <trkpt lat="42.89897195" lon="13.31789195">
        <ele>872.00000</ele>
        <time>2024-05-10T17:47:47Z</time>
      </trkpt>
      <trkpt lat="42.89899793" lon="13.31788399">
        <ele>872.00000</ele>
        <time>2024-05-10T17:47:47Z</time>
      </trkpt>
      <trkpt lat="42.89902098" lon="13.31787795">
        <ele>872.00000</ele>
        <time>2024-05-10T17:47:48Z</time>
      </trkpt>
      <trkpt lat="42.89904495" lon="13.31787192">
        <ele>872.00000</ele>
        <time>2024-05-10T17:47:48Z</time>
      </trkpt>
      <trkpt lat="42.89907094" lon="13.31786999">
        <ele>873.00000</ele>
        <time>2024-05-10T17:47:49Z</time>
      </trkpt>
      <trkpt lat="42.89909499" lon="13.31786597">
        <ele>873.00000</ele>
        <time>2024-05-10T17:47:49Z</time>
      </trkpt>
      <trkpt lat="42.89912592" lon="13.31787192">
        <ele>873.00000</ele>
        <time>2024-05-10T17:47:50Z</time>
      </trkpt>
      <trkpt lat="42.89915299" lon="13.31788298">
        <ele>874.00000</ele>
        <time>2024-05-10T17:47:50Z</time>
      </trkpt>
      <trkpt lat="42.89917596" lon="13.31789497">
        <ele>874.00000</ele>
        <time>2024-05-10T17:47:51Z</time>
      </trkpt>
      <trkpt lat="42.89920295" lon="13.31791492">
        <ele>874.00000</ele>
        <time>2024-05-10T17:47:52Z</time>
      </trkpt>
      <trkpt lat="42.89921997" lon="13.31793495">
        <ele>874.00000</ele>
        <time>2024-05-10T17:47:52Z</time>
      </trkpt>
      <trkpt lat="42.89923497" lon="13.31795993">
        <ele>874.00000</ele>
        <time>2024-05-10T17:47:53Z</time>
      </trkpt>
      <trkpt lat="42.89924394" lon="13.31798893">
        <ele>875.00000</ele>
        <time>2024-05-10T17:47:53Z</time>
      </trkpt>
      <trkpt lat="42.89925098" lon="13.31802095">
        <ele>876.00000</ele>
        <time>2024-05-10T17:47:53Z</time>
      </trkpt>
      <trkpt lat="42.89926397" lon="13.31805397">
        <ele>876.00000</ele>
        <time>2024-05-10T17:47:54Z</time>
      </trkpt>
      <trkpt lat="42.89927294" lon="13.31808599">
        <ele>876.00000</ele>
        <time>2024-05-10T17:47:55Z</time>
      </trkpt>
      <trkpt lat="42.89927696" lon="13.31812195">
        <ele>877.00000</ele>
        <time>2024-05-10T17:47:55Z</time>
      </trkpt>
      <trkpt lat="42.89928099" lon="13.31816394">
        <ele>878.00000</ele>
        <time>2024-05-10T17:47:56Z</time>
      </trkpt>
      <trkpt lat="42.89928794" lon="13.31820493">
        <ele>878.00000</ele>
        <time>2024-05-10T17:47:56Z</time>
      </trkpt>
      <trkpt lat="42.89930194" lon="13.31824298">
        <ele>879.00000</ele>
        <time>2024-05-10T17:47:57Z</time>
      </trkpt>
      <trkpt lat="42.89930898" lon="13.31827299">
        <ele>879.00000</ele>
        <time>2024-05-10T17:47:57Z</time>
      </trkpt>
      <trkpt lat="42.89931292" lon="13.31830593">
        <ele>880.00000</ele>
        <time>2024-05-10T17:47:58Z</time>
      </trkpt>
      <trkpt lat="42.89932097" lon="13.31834097">
        <ele>880.00000</ele>
        <time>2024-05-10T17:47:58Z</time>
      </trkpt>
      <trkpt lat="42.89932499" lon="13.31836796">
        <ele>881.00000</ele>
        <time>2024-05-10T17:47:59Z</time>
      </trkpt>
      <trkpt lat="42.89933195" lon="13.31839595">
        <ele>881.00000</ele>
        <time>2024-05-10T17:47:59Z</time>
      </trkpt>
      <trkpt lat="42.89934092" lon="13.31842496">
        <ele>882.00000</ele>
        <time>2024-05-10T17:48:00Z</time>
      </trkpt>
      <trkpt lat="42.89935198" lon="13.31845597">
        <ele>882.00000</ele>
        <time>2024-05-10T17:48:00Z</time>
      </trkpt>
      <trkpt lat="42.89937092" lon="13.31848992">
        <ele>882.00000</ele>
        <time>2024-05-10T17:48:01Z</time>
      </trkpt>
      <trkpt lat="42.89938098" lon="13.31852193">
        <ele>883.00000</ele>
        <time>2024-05-10T17:48:01Z</time>
      </trkpt>
      <trkpt lat="42.89939196" lon="13.31855898">
        <ele>883.00000</ele>
        <time>2024-05-10T17:48:02Z</time>
      </trkpt>
      <trkpt lat="42.89940596" lon="13.31859494">
        <ele>883.00000</ele>
        <time>2024-05-10T17:48:03Z</time>
      </trkpt>
      <trkpt lat="42.89942792" lon="13.31863299">
        <ele>884.00000</ele>
        <time>2024-05-10T17:48:03Z</time>
      </trkpt>
      <trkpt lat="42.89944594" lon="13.31866996">
        <ele>884.00000</ele>
        <time>2024-05-10T17:48:04Z</time>
      </trkpt>
      <trkpt lat="42.89945994" lon="13.31870298">
        <ele>884.00000</ele>
        <time>2024-05-10T17:48:04Z</time>
      </trkpt>
      <trkpt lat="42.89947696" lon="13.31872696">
        <ele>884.00000</ele>
        <time>2024-05-10T17:48:05Z</time>
      </trkpt>
      <trkpt lat="42.89950797" lon="13.31875294">
        <ele>883.00000</ele>
        <time>2024-05-10T17:48:06Z</time>
      </trkpt>
      <trkpt lat="42.89952792" lon="13.31877892">
        <ele>883.00000</ele>
        <time>2024-05-10T17:48:06Z</time>
      </trkpt>
      <trkpt lat="42.89954099" lon="13.31880692">
        <ele>883.00000</ele>
        <time>2024-05-10T17:48:07Z</time>
      </trkpt>
      <trkpt lat="42.89956094" lon="13.31883693">
        <ele>883.00000</ele>
        <time>2024-05-10T17:48:07Z</time>
      </trkpt>
      <trkpt lat="42.89957997" lon="13.31886895">
        <ele>883.00000</ele>
        <time>2024-05-10T17:48:08Z</time>
      </trkpt>
      <trkpt lat="42.89959891" lon="13.31889694">
        <ele>882.00000</ele>
        <time>2024-05-10T17:48:08Z</time>
      </trkpt>
      <trkpt lat="42.89962096" lon="13.31892292">
        <ele>882.00000</ele>
        <time>2024-05-10T17:48:09Z</time>
      </trkpt>
      <trkpt lat="42.89964292" lon="13.31894799">
        <ele>881.00000</ele>
        <time>2024-05-10T17:48:10Z</time>
      </trkpt>
      <trkpt lat="42.89966597" lon="13.31897196">
        <ele>880.00000</ele>
        <time>2024-05-10T17:48:10Z</time>
      </trkpt>
      <trkpt lat="42.89969095" lon="13.31899694">
        <ele>879.00000</ele>
        <time>2024-05-10T17:48:11Z</time>
      </trkpt>
      <trkpt lat="42.89971098" lon="13.31901898">
        <ele>879.00000</ele>
        <time>2024-05-10T17:48:11Z</time>
      </trkpt>
      <trkpt lat="42.89972992" lon="13.31904094">
        <ele>878.00000</ele>
        <time>2024-05-10T17:48:12Z</time>
      </trkpt>
      <trkpt lat="42.89974199" lon="13.31907799">
        <ele>879.00000</ele>
        <time>2024-05-10T17:48:12Z</time>
      </trkpt>
      <trkpt lat="42.89975498" lon="13.31911194">
        <ele>879.00000</ele>
        <time>2024-05-10T17:48:13Z</time>
      </trkpt>
      <trkpt lat="42.89976496" lon="13.31914597">
        <ele>879.00000</ele>
        <time>2024-05-10T17:48:14Z</time>
      </trkpt>
      <trkpt lat="42.89977896" lon="13.31918193">
        <ele>880.00000</ele>
        <time>2024-05-10T17:48:14Z</time>
      </trkpt>
      <trkpt lat="42.89979899" lon="13.31920992">
        <ele>880.00000</ele>
        <time>2024-05-10T17:48:15Z</time>
      </trkpt>
      <trkpt lat="42.89981299" lon="13.31923792">
        <ele>880.00000</ele>
        <time>2024-05-10T17:48:15Z</time>
      </trkpt>
      <trkpt lat="42.89982497" lon="13.31928092">
        <ele>880.00000</ele>
        <time>2024-05-10T17:48:16Z</time>
      </trkpt>
      <trkpt lat="42.89983092" lon="13.31933397">
        <ele>881.00000</ele>
        <time>2024-05-10T17:48:17Z</time>
      </trkpt>
      <trkpt lat="42.89984199" lon="13.31937999">
        <ele>882.00000</ele>
        <time>2024-05-10T17:48:17Z</time>
      </trkpt>
      <trkpt lat="42.89985297" lon="13.31941695">
        <ele>882.00000</ele>
        <time>2024-05-10T17:48:18Z</time>
      </trkpt>
      <trkpt lat="42.89986294" lon="13.31945694">
        <ele>883.00000</ele>
        <time>2024-05-10T17:48:19Z</time>
      </trkpt>
      <trkpt lat="42.89987099" lon="13.31949692">
        <ele>884.00000</ele>
        <time>2024-05-10T17:48:19Z</time>
      </trkpt>
      <trkpt lat="42.89987493" lon="13.31953195">
        <ele>884.00000</ele>
        <time>2024-05-10T17:48:20Z</time>
      </trkpt>
      <trkpt lat="42.89987895" lon="13.31957093">
        <ele>885.00000</ele>
        <time>2024-05-10T17:48:20Z</time>
      </trkpt>
      <trkpt lat="42.89987895" lon="13.31961099">
        <ele>887.00000</ele>
        <time>2024-05-10T17:48:21Z</time>
      </trkpt>
      <trkpt lat="42.89988599" lon="13.31965098">
        <ele>887.00000</ele>
        <time>2024-05-10T17:48:21Z</time>
      </trkpt>
      <trkpt lat="42.89989597" lon="13.31968995">
        <ele>888.00000</ele>
        <time>2024-05-10T17:48:22Z</time>
      </trkpt>
      <trkpt lat="42.89990091" lon="13.31972993">
        <ele>889.00000</ele>
        <time>2024-05-10T17:48:23Z</time>
      </trkpt>
      <trkpt lat="42.89990192" lon="13.31976396">
        <ele>889.00000</ele>
        <time>2024-05-10T17:48:23Z</time>
      </trkpt>
      <trkpt lat="42.89991198" lon="13.31979892">
        <ele>890.00000</ele>
        <time>2024-05-10T17:48:24Z</time>
      </trkpt>
      <trkpt lat="42.89991399" lon="13.31984393">
        <ele>891.00000</ele>
        <time>2024-05-10T17:48:24Z</time>
      </trkpt>
      <trkpt lat="42.89990996" lon="13.31988894">
        <ele>892.00000</ele>
        <time>2024-05-10T17:48:25Z</time>
      </trkpt>
      <trkpt lat="42.89991994" lon="13.31993596">
        <ele>892.00000</ele>
        <time>2024-05-10T17:48:26Z</time>
      </trkpt>
      <trkpt lat="42.89992799" lon="13.31997494">
        <ele>893.00000</ele>
        <time>2024-05-10T17:48:26Z</time>
      </trkpt>
      <trkpt lat="42.89993897" lon="13.32000696">
        <ele>892.00000</ele>
        <time>2024-05-10T17:48:27Z</time>
      </trkpt>
      <trkpt lat="42.89995699" lon="13.32003193">
        <ele>892.00000</ele>
        <time>2024-05-10T17:48:27Z</time>
      </trkpt>
      <trkpt lat="42.89997593" lon="13.32006596">
        <ele>891.00000</ele>
        <time>2024-05-10T17:48:28Z</time>
      </trkpt>
      <trkpt lat="42.89999295" lon="13.32009195">
        <ele>890.00000</ele>
        <time>2024-05-10T17:48:29Z</time>
      </trkpt>
      <trkpt lat="42.90000292" lon="13.32011994">
        <ele>890.00000</ele>
        <time>2024-05-10T17:48:29Z</time>
      </trkpt>
      <trkpt lat="42.90002094" lon="13.32015297">
        <ele>889.00000</ele>
        <time>2024-05-10T17:48:30Z</time>
      </trkpt>
      <trkpt lat="42.90003896" lon="13.32017895">
        <ele>888.00000</ele>
        <time>2024-05-10T17:48:30Z</time>
      </trkpt>
      <trkpt lat="42.90005095" lon="13.32020393">
        <ele>888.00000</ele>
        <time>2024-05-10T17:48:31Z</time>
      </trkpt>
      <trkpt lat="42.90007391" lon="13.32023293">
        <ele>887.00000</ele>
        <time>2024-05-10T17:48:31Z</time>
      </trkpt>
      <trkpt lat="42.90010099" lon="13.32026294">
        <ele>886.00000</ele>
        <time>2024-05-10T17:48:32Z</time>
      </trkpt>
      <trkpt lat="42.90013091" lon="13.32028398">
        <ele>884.00000</ele>
        <time>2024-05-10T17:48:33Z</time>
      </trkpt>
      <trkpt lat="42.90015396" lon="13.32030493">
        <ele>883.00000</ele>
        <time>2024-05-10T17:48:33Z</time>
      </trkpt>
      <trkpt lat="42.90016796" lon="13.32032396">
        <ele>882.00000</ele>
        <time>2024-05-10T17:48:34Z</time>
      </trkpt>
      <trkpt lat="42.90017894" lon="13.32034693">
        <ele>882.00000</ele>
        <time>2024-05-10T17:48:34Z</time>
      </trkpt>
      <trkpt lat="42.90019696" lon="13.32037693">
        <ele>881.00000</ele>
        <time>2024-05-10T17:48:34Z</time>
      </trkpt>
      <trkpt lat="42.90020995" lon="13.32040191">
        <ele>881.00000</ele>
        <time>2024-05-10T17:48:35Z</time>
      </trkpt>
      <trkpt lat="42.90022294" lon="13.32042697">
        <ele>880.00000</ele>
        <time>2024-05-10T17:48:35Z</time>
      </trkpt>
      <trkpt lat="42.90022999" lon="13.32045698">
        <ele>880.00000</ele>
        <time>2024-05-10T17:48:36Z</time>
      </trkpt>
      <trkpt lat="42.90023594" lon="13.32048699">
        <ele>880.00000</ele>
        <time>2024-05-10T17:48:36Z</time>
      </trkpt>
      <trkpt lat="42.90023694" lon="13.32051699">
        <ele>880.00000</ele>
        <time>2024-05-10T17:48:37Z</time>
      </trkpt>
      <trkpt lat="42.90023795" lon="13.32055195">
        <ele>881.00000</ele>
        <time>2024-05-10T17:48:37Z</time>
      </trkpt>
      <trkpt lat="42.90024197" lon="13.32057994">
        <ele>881.00000</ele>
        <time>2024-05-10T17:48:38Z</time>
      </trkpt>
      <trkpt lat="42.90023895" lon="13.32061297">
        <ele>882.00000</ele>
        <time>2024-05-10T17:48:38Z</time>
      </trkpt>
      <trkpt lat="42.90024197" lon="13.32064398">
        <ele>882.00000</ele>
        <time>2024-05-10T17:48:39Z</time>
      </trkpt>
      <trkpt lat="42.90024993" lon="13.32068296">
        <ele>883.00000</ele>
        <time>2024-05-10T17:48:39Z</time>
      </trkpt>
      <trkpt lat="42.90026192" lon="13.32070492">
        <ele>882.00000</ele>
        <time>2024-05-10T17:48:40Z</time>
      </trkpt>
      <trkpt lat="42.90028195" lon="13.32073291">
        <ele>882.00000</ele>
        <time>2024-05-10T17:48:40Z</time>
      </trkpt>
      <trkpt lat="42.90030299" lon="13.32075999">
        <ele>882.00000</ele>
        <time>2024-05-10T17:48:41Z</time>
      </trkpt>
      <trkpt lat="42.90032998" lon="13.32078396">
        <ele>882.00000</ele>
        <time>2024-05-10T17:48:41Z</time>
      </trkpt>
      <trkpt lat="42.90035395" lon="13.32080097">
        <ele>882.00000</ele>
        <time>2024-05-10T17:48:42Z</time>
      </trkpt>
      <trkpt lat="42.90036795" lon="13.32081992">
        <ele>882.00000</ele>
        <time>2024-05-10T17:48:42Z</time>
      </trkpt>
      <trkpt lat="42.90038195" lon="13.32083299">
        <ele>882.00000</ele>
        <time>2024-05-10T17:48:43Z</time>
      </trkpt>
      <trkpt lat="42.90039394" lon="13.32084196">
        <ele>882.00000</ele>
        <time>2024-05-10T17:48:43Z</time>
      </trkpt>
      <trkpt lat="42.90041196" lon="13.32085093">
        <ele>881.00000</ele>
        <time>2024-05-10T17:48:43Z</time>
      </trkpt>
      <trkpt lat="42.90043291" lon="13.32085696">
        <ele>881.00000</ele>
        <time>2024-05-10T17:48:44Z</time>
      </trkpt>
      <trkpt lat="42.90046392" lon="13.32086895">
        <ele>881.00000</ele>
        <time>2024-05-10T17:48:44Z</time>
      </trkpt>
      <trkpt lat="42.90048496" lon="13.32089393">
        <ele>881.00000</ele>
        <time>2024-05-10T17:48:45Z</time>
      </trkpt>
      <trkpt lat="42.90051095" lon="13.32092997">
        <ele>881.00000</ele>
        <time>2024-05-10T17:48:46Z</time>
      </trkpt>
      <trkpt lat="42.90053199" lon="13.32095897">
        <ele>881.00000</ele>
        <time>2024-05-10T17:48:46Z</time>
      </trkpt>
      <trkpt lat="42.90055696" lon="13.32098395">
        <ele>881.00000</ele>
        <time>2024-05-10T17:48:47Z</time>
      </trkpt>
      <trkpt lat="42.90057892" lon="13.32100097">
        <ele>881.00000</ele>
        <time>2024-05-10T17:48:47Z</time>
      </trkpt>
      <trkpt lat="42.90059393" lon="13.32100993">
        <ele>882.00000</ele>
        <time>2024-05-10T17:48:48Z</time>
      </trkpt>
      <trkpt lat="42.90060591" lon="13.32100893">
        <ele>882.00000</ele>
        <time>2024-05-10T17:48:48Z</time>
      </trkpt>
      <trkpt lat="42.90060692" lon="13.32101295">
        <ele>882.00000</ele>
        <time>2024-05-10T17:48:48Z</time>
      </trkpt>
      <trkpt lat="42.90077799" lon="13.32092192">
        <ele>884.00000</ele>
        <time>2024-05-10T17:48:52Z</time>
      </trkpt>
      <trkpt lat="42.90078495" lon="13.32092494">
        <ele>884.00000</ele>
        <time>2024-05-10T17:48:52Z</time>
      </trkpt>
      <trkpt lat="42.90079099" lon="13.32092796">
        <ele>884.00000</ele>
        <time>2024-05-10T17:48:52Z</time>
      </trkpt>
      <trkpt lat="42.90079895" lon="13.32092293">
        <ele>884.00000</ele>
        <time>2024-05-10T17:48:52Z</time>
      </trkpt>
      <trkpt lat="42.90080498" lon="13.32091597">
        <ele>884.00000</ele>
        <time>2024-05-10T17:48:52Z</time>
      </trkpt>
      <trkpt lat="42.90080096" lon="13.32090692">
        <ele>884.00000</ele>
        <time>2024-05-10T17:48:53Z</time>
      </trkpt>
      <trkpt lat="42.90079099" lon="13.32090399">
        <ele>884.00000</ele>
        <time>2024-05-10T17:48:53Z</time>
      </trkpt>
      <trkpt lat="42.90078495" lon="13.32089091">
        <ele>884.00000</ele>
        <time>2024-05-10T17:48:53Z</time>
      </trkpt>
      <trkpt lat="42.90077598" lon="13.32088496">
        <ele>884.00000</ele>
        <time>2024-05-10T17:48:53Z</time>
      </trkpt>
      <trkpt lat="42.90076894" lon="13.32088496">
        <ele>883.00000</ele>
        <time>2024-05-10T17:48:53Z</time>
      </trkpt>
      <trkpt lat="42.90075796" lon="13.32089192">
        <ele>883.00000</ele>
        <time>2024-05-10T17:48:54Z</time>
      </trkpt>
      <trkpt lat="42.90075494" lon="13.32089393">
        <ele>883.00000</ele>
        <time>2024-05-10T17:48:54Z</time>
      </trkpt>
      <trkpt lat="42.90075293" lon="13.32090097">
        <ele>883.00000</ele>
        <time>2024-05-10T17:48:54Z</time>
      </trkpt>
      <trkpt lat="42.90075897" lon="13.32089393">
        <ele>883.00000</ele>
        <time>2024-05-10T17:48:54Z</time>
      </trkpt>
      <trkpt lat="42.90072494" lon="13.32088194">
        <ele>883.00000</ele>
        <time>2024-05-10T17:48:55Z</time>
      </trkpt>
      <trkpt lat="42.90071899" lon="13.32086292">
        <ele>882.00000</ele>
        <time>2024-05-10T17:48:55Z</time>
      </trkpt>
      <trkpt lat="42.90071094" lon="13.32084992">
        <ele>882.00000</ele>
        <time>2024-05-10T17:48:55Z</time>
      </trkpt>
      <trkpt lat="42.90069493" lon="13.32082897">
        <ele>882.00000</ele>
        <time>2024-05-10T17:48:56Z</time>
      </trkpt>
      <trkpt lat="42.90068294" lon="13.32081095">
        <ele>881.00000</ele>
        <time>2024-05-10T17:48:56Z</time>
      </trkpt>
      <trkpt lat="42.90067096" lon="13.32079092">
        <ele>881.00000</ele>
        <time>2024-05-10T17:48:56Z</time>
      </trkpt>
      <trkpt lat="42.90066199" lon="13.32076191">
        <ele>881.00000</ele>
        <time>2024-05-10T17:48:57Z</time>
      </trkpt>
      <trkpt lat="42.90065696" lon="13.32073895">
        <ele>880.00000</ele>
        <time>2024-05-10T17:48:57Z</time>
      </trkpt>
      <trkpt lat="42.90065294" lon="13.32070592">
        <ele>880.00000</ele>
        <time>2024-05-10T17:48:58Z</time>
      </trkpt>
      <trkpt lat="42.90065294" lon="13.32066996">
        <ele>880.00000</ele>
        <time>2024-05-10T17:48:58Z</time>
      </trkpt>
      <trkpt lat="42.90065797" lon="13.32062596">
        <ele>880.00000</ele>
        <time>2024-05-10T17:48:59Z</time>
      </trkpt>
      <trkpt lat="42.90066199" lon="13.32058891">
        <ele>880.00000</ele>
        <time>2024-05-10T17:48:59Z</time>
      </trkpt>
      <trkpt lat="42.90066492" lon="13.32053896">
        <ele>880.00000</ele>
        <time>2024-05-10T17:49:00Z</time>
      </trkpt>
      <trkpt lat="42.90066794" lon="13.32049596">
        <ele>880.00000</ele>
        <time>2024-05-10T17:49:01Z</time>
      </trkpt>
      <trkpt lat="42.90066492" lon="13.32046092">
        <ele>880.00000</ele>
        <time>2024-05-10T17:49:01Z</time>
      </trkpt>
      <trkpt lat="42.90067096" lon="13.32042094">
        <ele>880.00000</ele>
        <time>2024-05-10T17:49:02Z</time>
      </trkpt>
      <trkpt lat="42.90068697" lon="13.32037492">
        <ele>880.00000</ele>
        <time>2024-05-10T17:49:03Z</time>
      </trkpt>
      <trkpt lat="42.90070499" lon="13.32032597">
        <ele>880.00000</ele>
        <time>2024-05-10T17:49:03Z</time>
      </trkpt>
      <trkpt lat="42.90071899" lon="13.32028498">
        <ele>881.00000</ele>
        <time>2024-05-10T17:49:04Z</time>
      </trkpt>
      <trkpt lat="42.90072695" lon="13.32025296">
        <ele>881.00000</ele>
        <time>2024-05-10T17:49:05Z</time>
      </trkpt>
      <trkpt lat="42.90073399" lon="13.32023092">
        <ele>881.00000</ele>
        <time>2024-05-10T17:49:05Z</time>
      </trkpt>
      <trkpt lat="42.90073491" lon="13.32020896">
        <ele>881.00000</ele>
        <time>2024-05-10T17:49:05Z</time>
      </trkpt>
      <trkpt lat="42.90073592" lon="13.32017996">
        <ele>880.00000</ele>
        <time>2024-05-10T17:49:06Z</time>
      </trkpt>
      <trkpt lat="42.90073198" lon="13.32013696">
        <ele>880.00000</ele>
        <time>2024-05-10T17:49:06Z</time>
      </trkpt>
      <trkpt lat="42.90072393" lon="13.32009094">
        <ele>879.00000</ele>
        <time>2024-05-10T17:49:07Z</time>
      </trkpt>
      <trkpt lat="42.90071496" lon="13.32004895">
        <ele>879.00000</ele>
        <time>2024-05-10T17:49:08Z</time>
      </trkpt>
      <trkpt lat="42.90070692" lon="13.32000595">
        <ele>878.00000</ele>
        <time>2024-05-10T17:49:08Z</time>
      </trkpt>
      <trkpt lat="42.90070298" lon="13.31996396">
        <ele>878.00000</ele>
        <time>2024-05-10T17:49:09Z</time>
      </trkpt>
      <trkpt lat="42.90070096" lon="13.31992297">
        <ele>877.00000</ele>
        <time>2024-05-10T17:49:09Z</time>
      </trkpt>
      <trkpt lat="42.90070096" lon="13.31988098">
        <ele>877.00000</ele>
        <time>2024-05-10T17:49:10Z</time>
      </trkpt>
      <trkpt lat="42.90070197" lon="13.31983496">
        <ele>877.00000</ele>
        <time>2024-05-10T17:49:11Z</time>
      </trkpt>
      <trkpt lat="42.90070096" lon="13.31978995">
        <ele>877.00000</ele>
        <time>2024-05-10T17:49:11Z</time>
      </trkpt>
      <trkpt lat="42.90070298" lon="13.31974594">
        <ele>877.00000</ele>
        <time>2024-05-10T17:49:12Z</time>
      </trkpt>
      <trkpt lat="42.90071396" lon="13.31970697">
        <ele>877.00000</ele>
        <time>2024-05-10T17:49:13Z</time>
      </trkpt>
      <trkpt lat="42.90072594" lon="13.31968098">
        <ele>877.00000</ele>
        <time>2024-05-10T17:49:13Z</time>
      </trkpt>
      <trkpt lat="42.90073592" lon="13.31966296">
        <ele>877.00000</ele>
        <time>2024-05-10T17:49:13Z</time>
      </trkpt>
      <trkpt lat="42.90074296" lon="13.31963396">
        <ele>877.00000</ele>
        <time>2024-05-10T17:49:14Z</time>
      </trkpt>
      <trkpt lat="42.90074991" lon="13.31960597">
        <ele>877.00000</ele>
        <time>2024-05-10T17:49:14Z</time>
      </trkpt>
      <trkpt lat="42.90075193" lon="13.31957596">
        <ele>877.00000</ele>
        <time>2024-05-10T17:49:15Z</time>
      </trkpt>
      <trkpt lat="42.90075696" lon="13.31954092">
        <ele>877.00000</ele>
        <time>2024-05-10T17:49:15Z</time>
      </trkpt>
      <trkpt lat="42.90075696" lon="13.31951192">
        <ele>877.00000</ele>
        <time>2024-05-10T17:49:16Z</time>
      </trkpt>
      <trkpt lat="42.90076198" lon="13.31948594">
        <ele>877.00000</ele>
        <time>2024-05-10T17:49:16Z</time>
      </trkpt>
      <trkpt lat="42.90076492" lon="13.31945492">
        <ele>877.00000</ele>
        <time>2024-05-10T17:49:17Z</time>
      </trkpt>
      <trkpt lat="42.90077095" lon="13.31942198">
        <ele>877.00000</ele>
        <time>2024-05-10T17:49:17Z</time>
      </trkpt>
      <trkpt lat="42.90077598" lon="13.31938795">
        <ele>877.00000</ele>
        <time>2024-05-10T17:49:18Z</time>
      </trkpt>
      <trkpt lat="42.90078193" lon="13.31935392">
        <ele>877.00000</ele>
        <time>2024-05-10T17:49:18Z</time>
      </trkpt>
      <trkpt lat="42.90078596" lon="13.31931092">
        <ele>877.00000</ele>
        <time>2024-05-10T17:49:19Z</time>
      </trkpt>
      <trkpt lat="42.90079099" lon="13.31926792">
        <ele>877.00000</ele>
        <time>2024-05-10T17:49:19Z</time>
      </trkpt>
      <trkpt lat="42.90079593" lon="13.31922794">
        <ele>877.00000</ele>
        <time>2024-05-10T17:49:20Z</time>
      </trkpt>
      <trkpt lat="42.90080297" lon="13.31919098">
        <ele>877.00000</ele>
        <time>2024-05-10T17:49:21Z</time>
      </trkpt>
      <trkpt lat="42.90081295" lon="13.31915192">
        <ele>877.00000</ele>
        <time>2024-05-10T17:49:21Z</time>
      </trkpt>
      <trkpt lat="42.90082192" lon="13.31910992">
        <ele>877.00000</ele>
        <time>2024-05-10T17:49:22Z</time>
      </trkpt>
      <trkpt lat="42.90082896" lon="13.31907296">
        <ele>877.00000</ele>
        <time>2024-05-10T17:49:22Z</time>
      </trkpt>
      <trkpt lat="42.90083893" lon="13.31903097">
        <ele>877.00000</ele>
        <time>2024-05-10T17:49:23Z</time>
      </trkpt>
      <trkpt lat="42.90084597" lon="13.31899099">
        <ele>877.00000</ele>
        <time>2024-05-10T17:49:24Z</time>
      </trkpt>
      <trkpt lat="42.90085092" lon="13.31894899">
        <ele>877.00000</ele>
        <time>2024-05-10T17:49:24Z</time>
      </trkpt>
      <trkpt lat="42.90085796" lon="13.31891396">
        <ele>877.00000</ele>
        <time>2024-05-10T17:49:25Z</time>
      </trkpt>
      <trkpt lat="42.90086198" lon="13.31888395">
        <ele>877.00000</ele>
        <time>2024-05-10T17:49:25Z</time>
      </trkpt>
      <trkpt lat="42.90086693" lon="13.31885897">
        <ele>877.00000</ele>
        <time>2024-05-10T17:49:26Z</time>
      </trkpt>
      <trkpt lat="42.90087397" lon="13.31882796">
        <ele>877.00000</ele>
        <time>2024-05-10T17:49:26Z</time>
      </trkpt>
      <trkpt lat="42.90087598" lon="13.31880399">
        <ele>877.00000</ele>
        <time>2024-05-10T17:49:26Z</time>
      </trkpt>
      <trkpt lat="42.90088092" lon="13.31877892">
        <ele>878.00000</ele>
        <time>2024-05-10T17:49:27Z</time>
      </trkpt>
      <trkpt lat="42.90088696" lon="13.31875294">
        <ele>878.00000</ele>
        <time>2024-05-10T17:49:27Z</time>
      </trkpt>
      <trkpt lat="42.90089392" lon="13.31872997">
        <ele>878.00000</ele>
        <time>2024-05-10T17:49:28Z</time>
      </trkpt>
      <trkpt lat="42.90089492" lon="13.31870994">
        <ele>878.00000</ele>
        <time>2024-05-10T17:49:28Z</time>
      </trkpt>
      <trkpt lat="42.90089995" lon="13.31868798">
        <ele>879.00000</ele>
        <time>2024-05-10T17:49:28Z</time>
      </trkpt>
      <trkpt lat="42.90090498" lon="13.31865998">
        <ele>879.00000</ele>
        <time>2024-05-10T17:49:29Z</time>
      </trkpt>
      <trkpt lat="42.90090599" lon="13.31862595">
        <ele>879.00000</ele>
        <time>2024-05-10T17:49:29Z</time>
      </trkpt>
      <trkpt lat="42.90089995" lon="13.31859695">
        <ele>879.00000</ele>
        <time>2024-05-10T17:49:30Z</time>
      </trkpt>
      <trkpt lat="42.90089299" lon="13.31857298">
        <ele>879.00000</ele>
        <time>2024-05-10T17:49:30Z</time>
      </trkpt>
      <trkpt lat="42.90088696" lon="13.31854892">
        <ele>878.00000</ele>
        <time>2024-05-10T17:49:30Z</time>
      </trkpt>
      <trkpt lat="42.90087992" lon="13.31852395">
        <ele>878.00000</ele>
        <time>2024-05-10T17:49:31Z</time>
      </trkpt>
      <trkpt lat="42.90087497" lon="13.31848992">
        <ele>878.00000</ele>
        <time>2024-05-10T17:49:31Z</time>
      </trkpt>
      <trkpt lat="42.90087296" lon="13.31846192">
        <ele>878.00000</ele>
        <time>2024-05-10T17:49:32Z</time>
      </trkpt>
      <trkpt lat="42.90087296" lon="13.31842596">
        <ele>878.00000</ele>
        <time>2024-05-10T17:49:32Z</time>
      </trkpt>
      <trkpt lat="42.90087296" lon="13.31839495">
        <ele>879.00000</ele>
        <time>2024-05-10T17:49:33Z</time>
      </trkpt>
      <trkpt lat="42.90086793" lon="13.31835296">
        <ele>879.00000</ele>
        <time>2024-05-10T17:49:33Z</time>
      </trkpt>
      <trkpt lat="42.90086098" lon="13.31830794">
        <ele>878.00000</ele>
        <time>2024-05-10T17:49:34Z</time>
      </trkpt>
      <trkpt lat="42.90085796" lon="13.31826595">
        <ele>878.00000</ele>
        <time>2024-05-10T17:49:35Z</time>
      </trkpt>
      <trkpt lat="42.90084798" lon="13.31822396">
        <ele>877.00000</ele>
        <time>2024-05-10T17:49:35Z</time>
      </trkpt>
      <trkpt lat="42.90084396" lon="13.31818398">
        <ele>877.00000</ele>
        <time>2024-05-10T17:49:36Z</time>
      </trkpt>
      <trkpt lat="42.90083893" lon="13.31815497">
        <ele>877.00000</ele>
        <time>2024-05-10T17:49:36Z</time>
      </trkpt>
      <trkpt lat="42.90083298" lon="13.31812396">
        <ele>876.00000</ele>
        <time>2024-05-10T17:49:37Z</time>
      </trkpt>
      <trkpt lat="42.90083097" lon="13.31809094">
        <ele>876.00000</ele>
        <time>2024-05-10T17:49:37Z</time>
      </trkpt>
      <trkpt lat="42.90082795" lon="13.31806093">
        <ele>875.00000</ele>
        <time>2024-05-10T17:49:38Z</time>
      </trkpt>
      <trkpt lat="42.90082099" lon="13.31802095">
        <ele>875.00000</ele>
        <time>2024-05-10T17:49:38Z</time>
      </trkpt>
      <trkpt lat="42.90081596" lon="13.31798499">
        <ele>874.00000</ele>
        <time>2024-05-10T17:49:39Z</time>
      </trkpt>
      <trkpt lat="42.90080792" lon="13.31794392">
        <ele>873.00000</ele>
        <time>2024-05-10T17:49:39Z</time>
      </trkpt>
      <trkpt lat="42.90080096" lon="13.31790695">
        <ele>873.00000</ele>
        <time>2024-05-10T17:49:40Z</time>
      </trkpt>
      <trkpt lat="42.90079493" lon="13.31787494">
        <ele>872.00000</ele>
        <time>2024-05-10T17:49:40Z</time>
      </trkpt>
      <trkpt lat="42.90078696" lon="13.31784199">
        <ele>872.00000</ele>
        <time>2024-05-10T17:49:41Z</time>
      </trkpt>
      <trkpt lat="42.90078294" lon="13.31781098">
        <ele>872.00000</ele>
        <time>2024-05-10T17:49:41Z</time>
      </trkpt>
      <trkpt lat="42.90077992" lon="13.31777695">
        <ele>871.00000</ele>
        <time>2024-05-10T17:49:42Z</time>
      </trkpt>
      <trkpt lat="42.90078193" lon="13.31774191">
        <ele>871.00000</ele>
        <time>2024-05-10T17:49:42Z</time>
      </trkpt>
      <trkpt lat="42.90078596" lon="13.31770897">
        <ele>871.00000</ele>
        <time>2024-05-10T17:49:43Z</time>
      </trkpt>
      <trkpt lat="42.90079392" lon="13.31767796">
        <ele>871.00000</ele>
        <time>2024-05-10T17:49:43Z</time>
      </trkpt>
      <trkpt lat="42.90080792" lon="13.31764896">
        <ele>871.00000</ele>
        <time>2024-05-10T17:49:44Z</time>
      </trkpt>
      <trkpt lat="42.90082099" lon="13.31761895">
        <ele>871.00000</ele>
        <time>2024-05-10T17:49:44Z</time>
      </trkpt>
      <trkpt lat="42.90083591" lon="13.31758894">
        <ele>871.00000</ele>
        <time>2024-05-10T17:49:45Z</time>
      </trkpt>
      <trkpt lat="42.90084999" lon="13.31756195">
        <ele>871.00000</ele>
        <time>2024-05-10T17:49:45Z</time>
      </trkpt>
      <trkpt lat="42.90086693" lon="13.31753899">
        <ele>871.00000</ele>
        <time>2024-05-10T17:49:46Z</time>
      </trkpt>
      <trkpt lat="42.90088495" lon="13.31751694">
        <ele>871.00000</ele>
        <time>2024-05-10T17:49:46Z</time>
      </trkpt>
      <trkpt lat="42.90089895" lon="13.31749599">
        <ele>872.00000</ele>
        <time>2024-05-10T17:49:47Z</time>
      </trkpt>
      <trkpt lat="42.90091797" lon="13.31747495">
        <ele>872.00000</ele>
        <time>2024-05-10T17:49:47Z</time>
      </trkpt>
      <trkpt lat="42.90093893" lon="13.31745995">
        <ele>872.00000</ele>
        <time>2024-05-10T17:49:48Z</time>
      </trkpt>
      <trkpt lat="42.90095695" lon="13.31744595">
        <ele>872.00000</ele>
        <time>2024-05-10T17:49:48Z</time>
      </trkpt>
      <trkpt lat="42.90098092" lon="13.31743195">
        <ele>873.00000</ele>
        <time>2024-05-10T17:49:49Z</time>
      </trkpt>
      <trkpt lat="42.90100095" lon="13.31742994">
        <ele>873.00000</ele>
        <time>2024-05-10T17:49:49Z</time>
      </trkpt>
      <trkpt lat="42.90101696" lon="13.31743396">
        <ele>874.00000</ele>
        <time>2024-05-10T17:49:49Z</time>
      </trkpt>
      <trkpt lat="42.90103096" lon="13.31743597">
        <ele>875.00000</ele>
        <time>2024-05-10T17:49:50Z</time>
      </trkpt>
      <trkpt lat="42.90104496" lon="13.31743698">
        <ele>875.00000</ele>
        <time>2024-05-10T17:49:50Z</time>
      </trkpt>
      <trkpt lat="42.90105393" lon="13.31743991">
        <ele>875.00000</ele>
        <time>2024-05-10T17:49:50Z</time>
      </trkpt>
      <trkpt lat="42.90105493" lon="13.31743991">
        <ele>875.00000</ele>
        <time>2024-05-10T17:49:50Z</time>
      </trkpt>
      <trkpt lat="42.90111092" lon="13.31742893">
        <ele>877.00000</ele>
        <time>2024-05-10T17:49:51Z</time>
      </trkpt>
      <trkpt lat="42.90111897" lon="13.31742592">
        <ele>877.00000</ele>
        <time>2024-05-10T17:49:52Z</time>
      </trkpt>
      <trkpt lat="42.90112995" lon="13.31742097">
        <ele>877.00000</ele>
        <time>2024-05-10T17:49:52Z</time>
      </trkpt>
      <trkpt lat="42.90113498" lon="13.31741393">
        <ele>877.00000</ele>
        <time>2024-05-10T17:49:52Z</time>
      </trkpt>
      <trkpt lat="42.90113791" lon="13.31741292">
        <ele>877.00000</ele>
        <time>2024-05-10T17:49:52Z</time>
      </trkpt>
      <trkpt lat="42.90119097" lon="13.31740396">
        <ele>878.00000</ele>
        <time>2024-05-10T17:49:53Z</time>
      </trkpt>
      <trkpt lat="42.90120095" lon="13.31739893">
        <ele>878.00000</ele>
        <time>2024-05-10T17:49:53Z</time>
      </trkpt>
      <trkpt lat="42.90121193" lon="13.31738392">
        <ele>878.00000</ele>
        <time>2024-05-10T17:49:54Z</time>
      </trkpt>
      <trkpt lat="42.90122693" lon="13.31737194">
        <ele>878.00000</ele>
        <time>2024-05-10T17:49:54Z</time>
      </trkpt>
      <trkpt lat="42.90124394" lon="13.31736196">
        <ele>878.00000</ele>
        <time>2024-05-10T17:49:54Z</time>
      </trkpt>
      <trkpt lat="42.90125794" lon="13.31735593">
        <ele>878.00000</ele>
        <time>2024-05-10T17:49:55Z</time>
      </trkpt>
      <trkpt lat="42.90127093" lon="13.31734998">
        <ele>878.00000</ele>
        <time>2024-05-10T17:49:55Z</time>
      </trkpt>
      <trkpt lat="42.90128099" lon="13.31734092">
        <ele>878.00000</ele>
        <time>2024-05-10T17:49:55Z</time>
      </trkpt>
      <trkpt lat="42.90129097" lon="13.31732793">
        <ele>878.00000</ele>
        <time>2024-05-10T17:49:55Z</time>
      </trkpt>
      <trkpt lat="42.90130295" lon="13.31731293">
        <ele>878.00000</ele>
        <time>2024-05-10T17:49:56Z</time>
      </trkpt>
      <trkpt lat="42.90132299" lon="13.31729399">
        <ele>878.00000</ele>
        <time>2024-05-10T17:49:56Z</time>
      </trkpt>
      <trkpt lat="42.90134092" lon="13.31728099">
        <ele>878.00000</ele>
        <time>2024-05-10T17:49:57Z</time>
      </trkpt>
      <trkpt lat="42.90136096" lon="13.31727596">
        <ele>878.00000</ele>
        <time>2024-05-10T17:49:57Z</time>
      </trkpt>
      <trkpt lat="42.90138392" lon="13.31726892">
        <ele>879.00000</ele>
        <time>2024-05-10T17:49:57Z</time>
      </trkpt>
      <trkpt lat="42.90140496" lon="13.31726599">
        <ele>879.00000</ele>
        <time>2024-05-10T17:49:58Z</time>
      </trkpt>
      <trkpt lat="42.90142399" lon="13.31726691">
        <ele>880.00000</ele>
        <time>2024-05-10T17:49:58Z</time>
      </trkpt>
      <trkpt lat="42.90144394" lon="13.31726197">
        <ele>880.00000</ele>
        <time>2024-05-10T17:49:59Z</time>
      </trkpt>
      <trkpt lat="42.90146598" lon="13.31725493">
        <ele>880.00000</ele>
        <time>2024-05-10T17:49:59Z</time>
      </trkpt>
      <trkpt lat="42.90148492" lon="13.31724897">
        <ele>881.00000</ele>
        <time>2024-05-10T17:49:59Z</time>
      </trkpt>
      <trkpt lat="42.90149892" lon="13.31723498">
        <ele>881.00000</ele>
        <time>2024-05-10T17:50:00Z</time>
      </trkpt>
      <trkpt lat="42.90151099" lon="13.31722391">
        <ele>881.00000</ele>
        <time>2024-05-10T17:50:00Z</time>
      </trkpt>
      <trkpt lat="42.90151996" lon="13.31721494">
        <ele>881.00000</ele>
        <time>2024-05-10T17:50:00Z</time>
      </trkpt>
      <trkpt lat="42.90154092" lon="13.31720497">
        <ele>881.00000</ele>
        <time>2024-05-10T17:50:01Z</time>
      </trkpt>
      <trkpt lat="42.90155793" lon="13.31719994">
        <ele>881.00000</ele>
        <time>2024-05-10T17:50:01Z</time>
      </trkpt>
      <trkpt lat="42.90157092" lon="13.31719399">
        <ele>881.00000</ele>
        <time>2024-05-10T17:50:01Z</time>
      </trkpt>
      <trkpt lat="42.90158995" lon="13.31718494">
        <ele>882.00000</ele>
        <time>2024-05-10T17:50:02Z</time>
      </trkpt>
      <trkpt lat="42.90160696" lon="13.31717396">
        <ele>882.00000</ele>
        <time>2024-05-10T17:50:02Z</time>
      </trkpt>
      <trkpt lat="42.90162297" lon="13.31716398">
        <ele>882.00000</ele>
        <time>2024-05-10T17:50:03Z</time>
      </trkpt>
      <trkpt lat="42.90163697" lon="13.31715191">
        <ele>882.00000</ele>
        <time>2024-05-10T17:50:03Z</time>
      </trkpt>
      <trkpt lat="42.90165298" lon="13.31713993">
        <ele>882.00000</ele>
        <time>2024-05-10T17:50:03Z</time>
      </trkpt>
      <trkpt lat="42.90166698" lon="13.31713096">
        <ele>883.00000</ele>
        <time>2024-05-10T17:50:04Z</time>
      </trkpt>
      <trkpt lat="42.90168399" lon="13.31711696">
        <ele>883.00000</ele>
        <time>2024-05-10T17:50:04Z</time>
      </trkpt>
      <trkpt lat="42.90170093" lon="13.31711092">
        <ele>883.00000</ele>
        <time>2024-05-10T17:50:04Z</time>
      </trkpt>
      <trkpt lat="42.90171895" lon="13.31710196">
        <ele>883.00000</ele>
        <time>2024-05-10T17:50:05Z</time>
      </trkpt>
      <trkpt lat="42.90173093" lon="13.31708896">
        <ele>883.00000</ele>
        <time>2024-05-10T17:50:05Z</time>
      </trkpt>
      <trkpt lat="42.90174694" lon="13.31707698">
        <ele>883.00000</ele>
        <time>2024-05-10T17:50:05Z</time>
      </trkpt>
      <trkpt lat="42.90176094" lon="13.31707195">
        <ele>884.00000</ele>
        <time>2024-05-10T17:50:06Z</time>
      </trkpt>
      <trkpt lat="42.90177494" lon="13.31706298">
        <ele>884.00000</ele>
        <time>2024-05-10T17:50:06Z</time>
      </trkpt>
      <trkpt lat="42.90178894" lon="13.31705493">
        <ele>884.00000</ele>
        <time>2024-05-10T17:50:06Z</time>
      </trkpt>
      <trkpt lat="42.90180293" lon="13.31704798">
        <ele>884.00000</ele>
        <time>2024-05-10T17:50:07Z</time>
      </trkpt>
      <trkpt lat="42.90181693" lon="13.31704295">
        <ele>884.00000</ele>
        <time>2024-05-10T17:50:07Z</time>
      </trkpt>
      <trkpt lat="42.90182892" lon="13.31703498">
        <ele>884.00000</ele>
        <time>2024-05-10T17:50:07Z</time>
      </trkpt>
      <trkpt lat="42.90183797" lon="13.31703096">
        <ele>884.00000</ele>
        <time>2024-05-10T17:50:07Z</time>
      </trkpt>
      <trkpt lat="42.90184996" lon="13.31702593">
        <ele>885.00000</ele>
        <time>2024-05-10T17:50:08Z</time>
      </trkpt>
      <trkpt lat="42.90186094" lon="13.31702291">
        <ele>885.00000</ele>
        <time>2024-05-10T17:50:08Z</time>
      </trkpt>
      <trkpt lat="42.90187192" lon="13.31701898">
        <ele>885.00000</ele>
        <time>2024-05-10T17:50:08Z</time>
      </trkpt>
      <trkpt lat="42.90188399" lon="13.31701596">
        <ele>885.00000</ele>
        <time>2024-05-10T17:50:08Z</time>
      </trkpt>
      <trkpt lat="42.90189597" lon="13.31700992">
        <ele>885.00000</ele>
        <time>2024-05-10T17:50:08Z</time>
      </trkpt>
      <trkpt lat="42.90190796" lon="13.31700196">
        <ele>885.00000</ele>
        <time>2024-05-10T17:50:09Z</time>
      </trkpt>
      <trkpt lat="42.90191994" lon="13.31699492">
        <ele>885.00000</ele>
        <time>2024-05-10T17:50:09Z</time>
      </trkpt>
      <trkpt lat="42.90192891" lon="13.31698796">
        <ele>885.00000</ele>
        <time>2024-05-10T17:50:09Z</time>
      </trkpt>
      <trkpt lat="42.90194199" lon="13.31698193">
        <ele>886.00000</ele>
        <time>2024-05-10T17:50:10Z</time>
      </trkpt>
      <trkpt lat="42.90195599" lon="13.31697698">
        <ele>886.00000</ele>
        <time>2024-05-10T17:50:10Z</time>
      </trkpt>
      <trkpt lat="42.90196998" lon="13.31697497">
        <ele>886.00000</ele>
        <time>2024-05-10T17:50:10Z</time>
      </trkpt>
      <trkpt lat="42.90198692" lon="13.31696793">
        <ele>886.00000</ele>
        <time>2024-05-10T17:50:10Z</time>
      </trkpt>
      <trkpt lat="42.90200293" lon="13.31696399">
        <ele>887.00000</ele>
        <time>2024-05-10T17:50:11Z</time>
      </trkpt>
      <trkpt lat="42.90201298" lon="13.31695293">
        <ele>887.00000</ele>
        <time>2024-05-10T17:50:11Z</time>
      </trkpt>
      <trkpt lat="42.90202296" lon="13.31694697">
        <ele>887.00000</ele>
        <time>2024-05-10T17:50:11Z</time>
      </trkpt>
      <trkpt lat="42.90203193" lon="13.31694295">
        <ele>887.00000</ele>
        <time>2024-05-10T17:50:11Z</time>
      </trkpt>
      <trkpt lat="42.90204199" lon="13.31693792">
        <ele>888.00000</ele>
        <time>2024-05-10T17:50:12Z</time>
      </trkpt>
      <trkpt lat="42.90205699" lon="13.31693298">
        <ele>888.00000</ele>
        <time>2024-05-10T17:50:12Z</time>
      </trkpt>
      <trkpt lat="42.90207099" lon="13.31692594">
        <ele>888.00000</ele>
        <time>2024-05-10T17:50:12Z</time>
      </trkpt>
      <trkpt lat="42.90208197" lon="13.31692292">
        <ele>888.00000</ele>
        <time>2024-05-10T17:50:12Z</time>
      </trkpt>
      <trkpt lat="42.90209295" lon="13.31692191">
        <ele>889.00000</ele>
        <time>2024-05-10T17:50:13Z</time>
      </trkpt>
      <trkpt lat="42.90210393" lon="13.31691395">
        <ele>889.00000</ele>
        <time>2024-05-10T17:50:13Z</time>
      </trkpt>
      <trkpt lat="42.90211692" lon="13.31690993">
        <ele>889.00000</ele>
        <time>2024-05-10T17:50:13Z</time>
      </trkpt>
      <trkpt lat="42.90213192" lon="13.31690398">
        <ele>890.00000</ele>
        <time>2024-05-10T17:50:14Z</time>
      </trkpt>
      <trkpt lat="42.90214299" lon="13.31689693">
        <ele>890.00000</ele>
        <time>2024-05-10T17:50:14Z</time>
      </trkpt>
      <trkpt lat="42.90215699" lon="13.31689392">
        <ele>890.00000</ele>
        <time>2024-05-10T17:50:14Z</time>
      </trkpt>
      <trkpt lat="42.90217098" lon="13.31688897">
        <ele>891.00000</ele>
        <time>2024-05-10T17:50:14Z</time>
      </trkpt>
      <trkpt lat="42.90218498" lon="13.31688797">
        <ele>891.00000</ele>
        <time>2024-05-10T17:50:15Z</time>
      </trkpt>
      <trkpt lat="42.90219898" lon="13.31688294">
        <ele>891.00000</ele>
        <time>2024-05-10T17:50:15Z</time>
      </trkpt>
      <trkpt lat="42.90221599" lon="13.31687992">
        <ele>892.00000</ele>
        <time>2024-05-10T17:50:15Z</time>
      </trkpt>
      <trkpt lat="42.90223192" lon="13.31687799">
        <ele>892.00000</ele>
        <time>2024-05-10T17:50:16Z</time>
      </trkpt>
      <trkpt lat="42.90224793" lon="13.31687699">
        <ele>892.00000</ele>
        <time>2024-05-10T17:50:16Z</time>
      </trkpt>
      <trkpt lat="42.90226997" lon="13.31687196">
        <ele>892.00000</ele>
        <time>2024-05-10T17:50:16Z</time>
      </trkpt>
      <trkpt lat="42.90228892" lon="13.31686592">
        <ele>893.00000</ele>
        <time>2024-05-10T17:50:17Z</time>
      </trkpt>
      <trkpt lat="42.90230593" lon="13.31686198">
        <ele>893.00000</ele>
        <time>2024-05-10T17:50:17Z</time>
      </trkpt>
      <trkpt lat="42.90232295" lon="13.31685595">
        <ele>893.00000</ele>
        <time>2024-05-10T17:50:17Z</time>
      </trkpt>
      <trkpt lat="42.90233996" lon="13.31685494">
        <ele>893.00000</ele>
        <time>2024-05-10T17:50:18Z</time>
      </trkpt>
      <trkpt lat="42.90235798" lon="13.31684991">
        <ele>893.00000</ele>
        <time>2024-05-10T17:50:18Z</time>
      </trkpt>
      <trkpt lat="42.90237592" lon="13.31684798">
        <ele>893.00000</ele>
        <time>2024-05-10T17:50:18Z</time>
      </trkpt>
      <trkpt lat="42.90239092" lon="13.31684396">
        <ele>894.00000</ele>
        <time>2024-05-10T17:50:19Z</time>
      </trkpt>
      <trkpt lat="42.90240895" lon="13.31684497">
        <ele>894.00000</ele>
        <time>2024-05-10T17:50:19Z</time>
      </trkpt>
      <trkpt lat="42.90242697" lon="13.31684497">
        <ele>894.00000</ele>
        <time>2024-05-10T17:50:19Z</time>
      </trkpt>
      <trkpt lat="42.90244599" lon="13.31684296">
        <ele>894.00000</ele>
        <time>2024-05-10T17:50:20Z</time>
      </trkpt>
      <trkpt lat="42.90246695" lon="13.31683793">
        <ele>895.00000</ele>
        <time>2024-05-10T17:50:20Z</time>
      </trkpt>
      <trkpt lat="42.90249193" lon="13.31682996">
        <ele>895.00000</ele>
        <time>2024-05-10T17:50:21Z</time>
      </trkpt>
      <trkpt lat="42.90251498" lon="13.31682099">
        <ele>895.00000</ele>
        <time>2024-05-10T17:50:21Z</time>
      </trkpt>
      <trkpt lat="42.90253895" lon="13.31681798">
        <ele>895.00000</ele>
        <time>2024-05-10T17:50:22Z</time>
      </trkpt>
      <trkpt lat="42.90256099" lon="13.31681194">
        <ele>895.00000</ele>
        <time>2024-05-10T17:50:22Z</time>
      </trkpt>
      <trkpt lat="42.90258698" lon="13.31680792">
        <ele>895.00000</ele>
        <time>2024-05-10T17:50:23Z</time>
      </trkpt>
      <trkpt lat="42.90260994" lon="13.31680398">
        <ele>896.00000</ele>
        <time>2024-05-10T17:50:23Z</time>
      </trkpt>
      <trkpt lat="42.90263098" lon="13.31679895">
        <ele>896.00000</ele>
        <time>2024-05-10T17:50:24Z</time>
      </trkpt>
      <trkpt lat="42.90265294" lon="13.31679694">
        <ele>896.00000</ele>
        <time>2024-05-10T17:50:24Z</time>
      </trkpt>
      <trkpt lat="42.90267297" lon="13.31679392">
        <ele>896.00000</ele>
        <time>2024-05-10T17:50:24Z</time>
      </trkpt>
      <trkpt lat="42.90268697" lon="13.31678898">
        <ele>896.00000</ele>
        <time>2024-05-10T17:50:25Z</time>
      </trkpt>
      <trkpt lat="42.90271195" lon="13.31678093">
        <ele>896.00000</ele>
        <time>2024-05-10T17:50:25Z</time>
      </trkpt>
      <trkpt lat="42.90273299" lon="13.31677397">
        <ele>896.00000</ele>
        <time>2024-05-10T17:50:26Z</time>
      </trkpt>
      <trkpt lat="42.90274992" lon="13.31676995">
        <ele>896.00000</ele>
        <time>2024-05-10T17:50:26Z</time>
      </trkpt>
      <trkpt lat="42.90276995" lon="13.31676693">
        <ele>897.00000</ele>
        <time>2024-05-10T17:50:26Z</time>
      </trkpt>
      <trkpt lat="42.90278596" lon="13.31676794">
        <ele>897.00000</ele>
        <time>2024-05-10T17:50:27Z</time>
      </trkpt>
      <trkpt lat="42.90281195" lon="13.31676391">
        <ele>897.00000</ele>
        <time>2024-05-10T17:50:27Z</time>
      </trkpt>
      <trkpt lat="42.90283592" lon="13.31675595">
        <ele>897.00000</ele>
        <time>2024-05-10T17:50:28Z</time>
      </trkpt>
      <trkpt lat="42.90285897" lon="13.31674598">
        <ele>897.00000</ele>
        <time>2024-05-10T17:50:28Z</time>
      </trkpt>
      <trkpt lat="42.90288093" lon="13.31673399">
        <ele>897.00000</ele>
        <time>2024-05-10T17:50:29Z</time>
      </trkpt>
      <trkpt lat="42.90289895" lon="13.31672695">
        <ele>897.00000</ele>
        <time>2024-05-10T17:50:29Z</time>
      </trkpt>
      <trkpt lat="42.90292192" lon="13.31671899">
        <ele>897.00000</ele>
        <time>2024-05-10T17:50:30Z</time>
      </trkpt>
      <trkpt lat="42.90294296" lon="13.31671698">
        <ele>897.00000</ele>
        <time>2024-05-10T17:50:30Z</time>
      </trkpt>
      <trkpt lat="42.90296098" lon="13.31671195">
        <ele>898.00000</ele>
        <time>2024-05-10T17:50:30Z</time>
      </trkpt>
      <trkpt lat="42.90298093" lon="13.31670499">
        <ele>898.00000</ele>
        <time>2024-05-10T17:50:31Z</time>
      </trkpt>
      <trkpt lat="42.90299895" lon="13.31670097">
        <ele>898.00000</ele>
        <time>2024-05-10T17:50:31Z</time>
      </trkpt>
      <trkpt lat="42.90301697" lon="13.31669493">
        <ele>898.00000</ele>
        <time>2024-05-10T17:50:32Z</time>
      </trkpt>
      <trkpt lat="42.90303792" lon="13.31669191">
        <ele>898.00000</ele>
        <time>2024-05-10T17:50:32Z</time>
      </trkpt>
      <trkpt lat="42.90305594" lon="13.31668797">
        <ele>898.00000</ele>
        <time>2024-05-10T17:50:32Z</time>
      </trkpt>
      <trkpt lat="42.90307195" lon="13.31668596">
        <ele>898.00000</ele>
        <time>2024-05-10T17:50:33Z</time>
      </trkpt>
      <trkpt lat="42.90308997" lon="13.31668093">
        <ele>898.00000</ele>
        <time>2024-05-10T17:50:33Z</time>
      </trkpt>
      <trkpt lat="42.90310992" lon="13.31667792">
        <ele>899.00000</ele>
        <time>2024-05-10T17:50:33Z</time>
      </trkpt>
      <trkpt lat="42.90312996" lon="13.31667096">
        <ele>899.00000</ele>
        <time>2024-05-10T17:50:34Z</time>
      </trkpt>
      <trkpt lat="42.90315292" lon="13.31666392">
        <ele>899.00000</ele>
        <time>2024-05-10T17:50:34Z</time>
      </trkpt>
      <trkpt lat="42.90317296" lon="13.31666098">
        <ele>899.00000</ele>
        <time>2024-05-10T17:50:35Z</time>
      </trkpt>
      <trkpt lat="42.90319198" lon="13.31665595">
        <ele>899.00000</ele>
        <time>2024-05-10T17:50:35Z</time>
      </trkpt>
      <trkpt lat="42.90321394" lon="13.31665495">
        <ele>899.00000</ele>
        <time>2024-05-10T17:50:36Z</time>
      </trkpt>
      <trkpt lat="42.90323699" lon="13.31664992">
        <ele>900.00000</ele>
        <time>2024-05-10T17:50:36Z</time>
      </trkpt>
      <trkpt lat="42.90325895" lon="13.31664196">
        <ele>900.00000</ele>
        <time>2024-05-10T17:50:36Z</time>
      </trkpt>
      <trkpt lat="42.90328091" lon="13.31663793">
        <ele>900.00000</ele>
        <time>2024-05-10T17:50:37Z</time>
      </trkpt>
      <trkpt lat="42.90330296" lon="13.31662997">
        <ele>900.00000</ele>
        <time>2024-05-10T17:50:37Z</time>
      </trkpt>
      <trkpt lat="42.90332492" lon="13.31662796">
        <ele>900.00000</ele>
        <time>2024-05-10T17:50:38Z</time>
      </trkpt>
      <trkpt lat="42.90334495" lon="13.31662595">
        <ele>901.00000</ele>
        <time>2024-05-10T17:50:38Z</time>
      </trkpt>
      <trkpt lat="42.90336792" lon="13.31662293">
        <ele>901.00000</ele>
        <time>2024-05-10T17:50:39Z</time>
      </trkpt>
      <trkpt lat="42.90338695" lon="13.31661991">
        <ele>901.00000</ele>
        <time>2024-05-10T17:50:39Z</time>
      </trkpt>
      <trkpt lat="42.90340396" lon="13.31661597">
        <ele>901.00000</ele>
        <time>2024-05-10T17:50:39Z</time>
      </trkpt>
      <trkpt lat="42.90342198" lon="13.31661396">
        <ele>901.00000</ele>
        <time>2024-05-10T17:50:40Z</time>
      </trkpt>
      <trkpt lat="42.90344193" lon="13.31661094">
        <ele>901.00000</ele>
        <time>2024-05-10T17:50:40Z</time>
      </trkpt>
      <trkpt lat="42.90345995" lon="13.31661296">
        <ele>901.00000</ele>
        <time>2024-05-10T17:50:40Z</time>
      </trkpt>
      <trkpt lat="42.90347697" lon="13.31661094">
        <ele>901.00000</ele>
        <time>2024-05-10T17:50:41Z</time>
      </trkpt>
      <trkpt lat="42.90349298" lon="13.31660893">
        <ele>902.00000</ele>
        <time>2024-05-10T17:50:41Z</time>
      </trkpt>
      <trkpt lat="42.90350597" lon="13.31660591">
        <ele>902.00000</ele>
        <time>2024-05-10T17:50:41Z</time>
      </trkpt>
      <trkpt lat="42.90352298" lon="13.31660591">
        <ele>902.00000</ele>
        <time>2024-05-10T17:50:42Z</time>
      </trkpt>
      <trkpt lat="42.90353899" lon="13.31659896">
        <ele>902.00000</ele>
        <time>2024-05-10T17:50:42Z</time>
      </trkpt>
      <trkpt lat="42.90355098" lon="13.31659493">
        <ele>902.00000</ele>
        <time>2024-05-10T17:50:42Z</time>
      </trkpt>
      <trkpt lat="42.90356699" lon="13.31659695">
        <ele>902.00000</ele>
        <time>2024-05-10T17:50:43Z</time>
      </trkpt>
      <trkpt lat="42.90358694" lon="13.31659896">
        <ele>902.00000</ele>
        <time>2024-05-10T17:50:43Z</time>
      </trkpt>
      <trkpt lat="42.90360496" lon="13.31660198">
        <ele>903.00000</ele>
        <time>2024-05-10T17:50:43Z</time>
      </trkpt>
      <trkpt lat="42.90362298" lon="13.31660097">
        <ele>903.00000</ele>
        <time>2024-05-10T17:50:44Z</time>
      </trkpt>
      <trkpt lat="42.90363991" lon="13.31659996">
        <ele>903.00000</ele>
        <time>2024-05-10T17:50:44Z</time>
      </trkpt>
      <trkpt lat="42.90365299" lon="13.31659795">
        <ele>903.00000</ele>
        <time>2024-05-10T17:50:44Z</time>
      </trkpt>
      <trkpt lat="42.90366891" lon="13.31660097">
        <ele>903.00000</ele>
        <time>2024-05-10T17:50:45Z</time>
      </trkpt>
      <trkpt lat="42.90368593" lon="13.31660198">
        <ele>903.00000</ele>
        <time>2024-05-10T17:50:45Z</time>
      </trkpt>
      <trkpt lat="42.90370294" lon="13.31659996">
        <ele>904.00000</ele>
        <time>2024-05-10T17:50:45Z</time>
      </trkpt>
      <trkpt lat="42.90372197" lon="13.31660097">
        <ele>904.00000</ele>
        <time>2024-05-10T17:50:46Z</time>
      </trkpt>
      <trkpt lat="42.90373899" lon="13.31660298">
        <ele>904.00000</ele>
        <time>2024-05-10T17:50:46Z</time>
      </trkpt>
      <trkpt lat="42.90375499" lon="13.31660399">
        <ele>904.00000</ele>
        <time>2024-05-10T17:50:46Z</time>
      </trkpt>
      <trkpt lat="42.90376991" lon="13.31660692">
        <ele>904.00000</ele>
        <time>2024-05-10T17:50:47Z</time>
      </trkpt>
      <trkpt lat="42.90378492" lon="13.31660692">
        <ele>905.00000</ele>
        <time>2024-05-10T17:50:47Z</time>
      </trkpt>
      <trkpt lat="42.90379992" lon="13.31661094">
        <ele>905.00000</ele>
        <time>2024-05-10T17:50:47Z</time>
      </trkpt>
      <trkpt lat="42.90381794" lon="13.31661597">
        <ele>905.00000</ele>
        <time>2024-05-10T17:50:48Z</time>
      </trkpt>
      <trkpt lat="42.90383496" lon="13.31662092">
        <ele>905.00000</ele>
        <time>2024-05-10T17:50:48Z</time>
      </trkpt>
      <trkpt lat="42.90385197" lon="13.31662293">
        <ele>905.00000</ele>
        <time>2024-05-10T17:50:48Z</time>
      </trkpt>
      <trkpt lat="42.90387293" lon="13.31663592">
        <ele>906.00000</ele>
        <time>2024-05-10T17:50:49Z</time>
      </trkpt>
      <trkpt lat="42.90388793" lon="13.31663894">
        <ele>906.00000</ele>
        <time>2024-05-10T17:50:49Z</time>
      </trkpt>
      <trkpt lat="42.90390394" lon="13.31664891">
        <ele>906.00000</ele>
        <time>2024-05-10T17:50:49Z</time>
      </trkpt>
      <trkpt lat="42.90391794" lon="13.31665495">
        <ele>907.00000</ele>
        <time>2024-05-10T17:50:50Z</time>
      </trkpt>
      <trkpt lat="42.90393294" lon="13.31665998">
        <ele>907.00000</ele>
        <time>2024-05-10T17:50:50Z</time>
      </trkpt>
      <trkpt lat="42.90394996" lon="13.31666694">
        <ele>907.00000</ele>
        <time>2024-05-10T17:50:50Z</time>
      </trkpt>
      <trkpt lat="42.90396798" lon="13.31667196">
        <ele>908.00000</ele>
        <time>2024-05-10T17:50:51Z</time>
      </trkpt>
      <trkpt lat="42.90398399" lon="13.31667792">
        <ele>908.00000</ele>
        <time>2024-05-10T17:50:51Z</time>
      </trkpt>
      <trkpt lat="42.90399899" lon="13.31668496">
        <ele>908.00000</ele>
        <time>2024-05-10T17:50:51Z</time>
      </trkpt>
      <trkpt lat="42.90401098" lon="13.31669292">
        <ele>909.00000</ele>
        <time>2024-05-10T17:50:52Z</time>
      </trkpt>
      <trkpt lat="42.90402196" lon="13.31669795">
        <ele>909.00000</ele>
        <time>2024-05-10T17:50:52Z</time>
      </trkpt>
      <trkpt lat="42.90403797" lon="13.31670499">
        <ele>909.00000</ele>
        <time>2024-05-10T17:50:52Z</time>
      </trkpt>
      <trkpt lat="42.90405197" lon="13.31671396">
        <ele>910.00000</ele>
        <time>2024-05-10T17:50:53Z</time>
      </trkpt>
      <trkpt lat="42.90406596" lon="13.31671698">
        <ele>910.00000</ele>
        <time>2024-05-10T17:50:53Z</time>
      </trkpt>
      <trkpt lat="42.90408097" lon="13.31672695">
        <ele>910.00000</ele>
        <time>2024-05-10T17:50:53Z</time>
      </trkpt>
      <trkpt lat="42.90409698" lon="13.31673592">
        <ele>911.00000</ele>
        <time>2024-05-10T17:50:54Z</time>
      </trkpt>
      <trkpt lat="42.90411097" lon="13.31674296">
        <ele>911.00000</ele>
        <time>2024-05-10T17:50:54Z</time>
      </trkpt>
      <trkpt lat="42.90412799" lon="13.31675193">
        <ele>912.00000</ele>
        <time>2024-05-10T17:50:54Z</time>
      </trkpt>
      <trkpt lat="42.90414199" lon="13.31675696">
        <ele>912.00000</ele>
        <time>2024-05-10T17:50:55Z</time>
      </trkpt>
      <trkpt lat="42.90415397" lon="13.31675897">
        <ele>912.00000</ele>
        <time>2024-05-10T17:50:55Z</time>
      </trkpt>
      <trkpt lat="42.90416596" lon="13.31676391">
        <ele>913.00000</ele>
        <time>2024-05-10T17:50:55Z</time>
      </trkpt>
      <trkpt lat="42.90418096" lon="13.31677297">
        <ele>913.00000</ele>
        <time>2024-05-10T17:50:55Z</time>
      </trkpt>
      <trkpt lat="42.90418792" lon="13.31678495">
        <ele>913.00000</ele>
        <time>2024-05-10T17:50:56Z</time>
      </trkpt>
      <trkpt lat="42.90419898" lon="13.31679292">
        <ele>913.00000</ele>
        <time>2024-05-10T17:50:56Z</time>
      </trkpt>
      <trkpt lat="42.90420896" lon="13.31679895">
        <ele>914.00000</ele>
        <time>2024-05-10T17:50:56Z</time>
      </trkpt>
      <trkpt lat="42.90422497" lon="13.31680398">
        <ele>914.00000</ele>
        <time>2024-05-10T17:50:56Z</time>
      </trkpt>
      <trkpt lat="42.90424299" lon="13.31681094">
        <ele>914.00000</ele>
        <time>2024-05-10T17:50:57Z</time>
      </trkpt>
      <trkpt lat="42.90425699" lon="13.31681798">
        <ele>914.00000</ele>
        <time>2024-05-10T17:50:57Z</time>
      </trkpt>
      <trkpt lat="42.90427098" lon="13.31683197">
        <ele>914.00000</ele>
        <time>2024-05-10T17:50:57Z</time>
      </trkpt>
      <trkpt lat="42.90428197" lon="13.31684094">
        <ele>915.00000</ele>
        <time>2024-05-10T17:50:58Z</time>
      </trkpt>
      <trkpt lat="42.90429697" lon="13.31685092">
        <ele>915.00000</ele>
        <time>2024-05-10T17:50:58Z</time>
      </trkpt>
      <trkpt lat="42.90430895" lon="13.31685695">
        <ele>915.00000</ele>
        <time>2024-05-10T17:50:58Z</time>
      </trkpt>
      <trkpt lat="42.90432698" lon="13.31686098">
        <ele>915.00000</ele>
        <time>2024-05-10T17:50:59Z</time>
      </trkpt>
      <trkpt lat="42.90434097" lon="13.31687196">
        <ele>915.00000</ele>
        <time>2024-05-10T17:50:59Z</time>
      </trkpt>
      <trkpt lat="42.90435195" lon="13.31688193">
        <ele>915.00000</ele>
        <time>2024-05-10T17:50:59Z</time>
      </trkpt>
      <trkpt lat="42.90436796" lon="13.31688998">
        <ele>916.00000</ele>
        <time>2024-05-10T17:51:00Z</time>
      </trkpt>
      <trkpt lat="42.90438297" lon="13.31689895">
        <ele>916.00000</ele>
        <time>2024-05-10T17:51:00Z</time>
      </trkpt>
      <trkpt lat="42.90439696" lon="13.31690398">
        <ele>916.00000</ele>
        <time>2024-05-10T17:51:00Z</time>
      </trkpt>
      <trkpt lat="42.90440795" lon="13.31691395">
        <ele>916.00000</ele>
        <time>2024-05-10T17:51:00Z</time>
      </trkpt>
      <trkpt lat="42.90442194" lon="13.31691998">
        <ele>916.00000</ele>
        <time>2024-05-10T17:51:01Z</time>
      </trkpt>
      <trkpt lat="42.90443393" lon="13.31693097">
        <ele>916.00000</ele>
        <time>2024-05-10T17:51:01Z</time>
      </trkpt>
      <trkpt lat="42.90444793" lon="13.31694094">
        <ele>917.00000</ele>
        <time>2024-05-10T17:51:01Z</time>
      </trkpt>
      <trkpt lat="42.90445899" lon="13.31695091">
        <ele>917.00000</ele>
        <time>2024-05-10T17:51:02Z</time>
      </trkpt>
      <trkpt lat="42.90446997" lon="13.31695997">
        <ele>917.00000</ele>
        <time>2024-05-10T17:51:02Z</time>
      </trkpt>
      <trkpt lat="42.90448296" lon="13.31696894">
        <ele>917.00000</ele>
        <time>2024-05-10T17:51:02Z</time>
      </trkpt>
      <trkpt lat="42.90449797" lon="13.31698193">
        <ele>918.00000</ele>
        <time>2024-05-10T17:51:02Z</time>
      </trkpt>
      <trkpt lat="42.90451096" lon="13.31699098">
        <ele>918.00000</ele>
        <time>2024-05-10T17:51:03Z</time>
      </trkpt>
      <trkpt lat="42.90452294" lon="13.31699592">
        <ele>918.00000</ele>
        <time>2024-05-10T17:51:03Z</time>
      </trkpt>
      <trkpt lat="42.90453795" lon="13.31699894">
        <ele>918.00000</ele>
        <time>2024-05-10T17:51:03Z</time>
      </trkpt>
      <trkpt lat="42.90455094" lon="13.31700397">
        <ele>918.00000</ele>
        <time>2024-05-10T17:51:04Z</time>
      </trkpt>
      <trkpt lat="42.90456594" lon="13.31700992">
        <ele>919.00000</ele>
        <time>2024-05-10T17:51:04Z</time>
      </trkpt>
      <trkpt lat="42.90457894" lon="13.31701495">
        <ele>919.00000</ele>
        <time>2024-05-10T17:51:04Z</time>
      </trkpt>
      <trkpt lat="42.90459293" lon="13.31702199">
        <ele>919.00000</ele>
        <time>2024-05-10T17:51:04Z</time>
      </trkpt>
      <trkpt lat="42.90460794" lon="13.31703297">
        <ele>919.00000</ele>
        <time>2024-05-10T17:51:05Z</time>
      </trkpt>
      <trkpt lat="42.90462194" lon="13.31704999">
        <ele>919.00000</ele>
        <time>2024-05-10T17:51:05Z</time>
      </trkpt>
      <trkpt lat="42.90463694" lon="13.31706692">
        <ele>920.00000</ele>
        <time>2024-05-10T17:51:06Z</time>
      </trkpt>
      <trkpt lat="42.90464993" lon="13.31708092">
        <ele>920.00000</ele>
        <time>2024-05-10T17:51:06Z</time>
      </trkpt>
      <trkpt lat="42.90466594" lon="13.31709894">
        <ele>920.00000</ele>
        <time>2024-05-10T17:51:06Z</time>
      </trkpt>
      <trkpt lat="42.90467399" lon="13.31711092">
        <ele>920.00000</ele>
        <time>2024-05-10T17:51:07Z</time>
      </trkpt>
      <trkpt lat="42.90468798" lon="13.31712995">
        <ele>921.00000</ele>
        <time>2024-05-10T17:51:07Z</time>
      </trkpt>
      <trkpt lat="42.90469394" lon="13.31714395">
        <ele>921.00000</ele>
        <time>2024-05-10T17:51:07Z</time>
      </trkpt>
      <trkpt lat="42.90469796" lon="13.31715996">
        <ele>921.00000</ele>
        <time>2024-05-10T17:51:07Z</time>
      </trkpt>
      <trkpt lat="42.90469494" lon="13.31718795">
        <ele>921.00000</ele>
        <time>2024-05-10T17:51:08Z</time>
      </trkpt>
      <trkpt lat="42.90469192" lon="13.31720195">
        <ele>921.00000</ele>
        <time>2024-05-10T17:51:08Z</time>
      </trkpt>
      <trkpt lat="42.90468899" lon="13.31721696">
        <ele>921.00000</ele>
        <time>2024-05-10T17:51:08Z</time>
      </trkpt>
      <trkpt lat="42.90468497" lon="13.31723992">
        <ele>921.00000</ele>
        <time>2024-05-10T17:51:09Z</time>
      </trkpt>
      <trkpt lat="42.90467793" lon="13.31725895">
        <ele>922.00000</ele>
        <time>2024-05-10T17:51:09Z</time>
      </trkpt>
      <trkpt lat="42.90467298" lon="13.31727999">
        <ele>922.00000</ele>
        <time>2024-05-10T17:51:09Z</time>
      </trkpt>
      <trkpt lat="42.90466896" lon="13.31730597">
        <ele>922.00000</ele>
        <time>2024-05-10T17:51:10Z</time>
      </trkpt>
      <trkpt lat="42.90466695" lon="13.31732894">
        <ele>922.00000</ele>
        <time>2024-05-10T17:51:10Z</time>
      </trkpt>
      <trkpt lat="42.90466393" lon="13.31734796">
        <ele>922.00000</ele>
        <time>2024-05-10T17:51:10Z</time>
      </trkpt>
      <trkpt lat="42.90466493" lon="13.31736498">
        <ele>922.00000</ele>
        <time>2024-05-10T17:51:11Z</time>
      </trkpt>
      <trkpt lat="42.90466393" lon="13.31738493">
        <ele>922.00000</ele>
        <time>2024-05-10T17:51:11Z</time>
      </trkpt>
      <trkpt lat="42.90466393" lon="13.31740094">
        <ele>922.00000</ele>
        <time>2024-05-10T17:51:11Z</time>
      </trkpt>
      <trkpt lat="42.90466192" lon="13.31741997">
        <ele>923.00000</ele>
        <time>2024-05-10T17:51:11Z</time>
      </trkpt>
      <trkpt lat="42.90466292" lon="13.31744293">
        <ele>923.00000</ele>
        <time>2024-05-10T17:51:12Z</time>
      </trkpt>
      <trkpt lat="42.90466192" lon="13.31746095">
        <ele>923.00000</ele>
        <time>2024-05-10T17:51:12Z</time>
      </trkpt>
      <trkpt lat="42.90466292" lon="13.31748199">
        <ele>923.00000</ele>
        <time>2024-05-10T17:51:12Z</time>
      </trkpt>
      <trkpt lat="42.90466393" lon="13.31750596">
        <ele>923.00000</ele>
        <time>2024-05-10T17:51:13Z</time>
      </trkpt>
      <trkpt lat="42.90466594" lon="13.31752792">
        <ele>923.00000</ele>
        <time>2024-05-10T17:51:13Z</time>
      </trkpt>
      <trkpt lat="42.90467097" lon="13.31754595">
        <ele>923.00000</ele>
        <time>2024-05-10T17:51:13Z</time>
      </trkpt>
      <trkpt lat="42.90467692" lon="13.31756296">
        <ele>924.00000</ele>
        <time>2024-05-10T17:51:13Z</time>
      </trkpt>
      <trkpt lat="42.90468094" lon="13.31757696">
        <ele>924.00000</ele>
        <time>2024-05-10T17:51:14Z</time>
      </trkpt>
      <trkpt lat="42.90468296" lon="13.31759498">
        <ele>924.00000</ele>
        <time>2024-05-10T17:51:14Z</time>
      </trkpt>
      <trkpt lat="42.90469192" lon="13.31760998">
        <ele>924.00000</ele>
        <time>2024-05-10T17:51:14Z</time>
      </trkpt>
      <trkpt lat="42.90470693" lon="13.31762499">
        <ele>924.00000</ele>
        <time>2024-05-10T17:51:15Z</time>
      </trkpt>
      <trkpt lat="42.90471992" lon="13.31763697">
        <ele>924.00000</ele>
        <time>2024-05-10T17:51:15Z</time>
      </trkpt>
      <trkpt lat="42.90473593" lon="13.31764795">
        <ele>925.00000</ele>
        <time>2024-05-10T17:51:15Z</time>
      </trkpt>
      <trkpt lat="42.90475093" lon="13.31765298">
        <ele>925.00000</ele>
        <time>2024-05-10T17:51:16Z</time>
      </trkpt>
      <trkpt lat="42.90476694" lon="13.31765893">
        <ele>925.00000</ele>
        <time>2024-05-10T17:51:16Z</time>
      </trkpt>
      <trkpt lat="42.90478496" lon="13.31767193">
        <ele>925.00000</ele>
        <time>2024-05-10T17:51:16Z</time>
      </trkpt>
      <trkpt lat="42.90480298" lon="13.31767897">
        <ele>925.00000</ele>
        <time>2024-05-10T17:51:17Z</time>
      </trkpt>
      <trkpt lat="42.90481698" lon="13.31768793">
        <ele>925.00000</ele>
        <time>2024-05-10T17:51:17Z</time>
      </trkpt>
      <trkpt lat="42.90483693" lon="13.31769699">
        <ele>925.00000</ele>
        <time>2024-05-10T17:51:17Z</time>
      </trkpt>
      <trkpt lat="42.90485495" lon="13.31770394">
        <ele>925.00000</ele>
        <time>2024-05-10T17:51:18Z</time>
      </trkpt>
      <trkpt lat="42.90487398" lon="13.31771099">
        <ele>926.00000</ele>
        <time>2024-05-10T17:51:18Z</time>
      </trkpt>
      <trkpt lat="42.90489192" lon="13.31771694">
        <ele>926.00000</ele>
        <time>2024-05-10T17:51:19Z</time>
      </trkpt>
      <trkpt lat="42.90490793" lon="13.31772096">
        <ele>926.00000</ele>
        <time>2024-05-10T17:51:19Z</time>
      </trkpt>
      <trkpt lat="42.90492796" lon="13.31772197">
        <ele>926.00000</ele>
        <time>2024-05-10T17:51:19Z</time>
      </trkpt>
      <trkpt lat="42.90495092" lon="13.31772297">
        <ele>926.00000</ele>
        <time>2024-05-10T17:51:20Z</time>
      </trkpt>
      <trkpt lat="42.90497398" lon="13.31772599">
        <ele>926.00000</ele>
        <time>2024-05-10T17:51:20Z</time>
      </trkpt>
      <trkpt lat="42.90499493" lon="13.31773697">
        <ele>926.00000</ele>
        <time>2024-05-10T17:51:21Z</time>
      </trkpt>
      <trkpt lat="42.90501597" lon="13.31774694">
        <ele>926.00000</ele>
        <time>2024-05-10T17:51:21Z</time>
      </trkpt>
      <trkpt lat="42.90504497" lon="13.31775298">
        <ele>926.00000</ele>
        <time>2024-05-10T17:51:22Z</time>
      </trkpt>
      <trkpt lat="42.90507498" lon="13.31775197">
        <ele>927.00000</ele>
        <time>2024-05-10T17:51:22Z</time>
      </trkpt>
      <trkpt lat="42.90510297" lon="13.31774896">
        <ele>927.00000</ele>
        <time>2024-05-10T17:51:23Z</time>
      </trkpt>
      <trkpt lat="42.90513097" lon="13.31773295">
        <ele>927.00000</ele>
        <time>2024-05-10T17:51:23Z</time>
      </trkpt>
      <trkpt lat="42.90515595" lon="13.31770897">
        <ele>926.00000</ele>
        <time>2024-05-10T17:51:24Z</time>
      </trkpt>
      <trkpt lat="42.90517891" lon="13.31768793">
        <ele>926.00000</ele>
        <time>2024-05-10T17:51:25Z</time>
      </trkpt>
      <trkpt lat="42.90519492" lon="13.31766698">
        <ele>926.00000</ele>
        <time>2024-05-10T17:51:25Z</time>
      </trkpt>
      <trkpt lat="42.90520993" lon="13.31764393">
        <ele>926.00000</ele>
        <time>2024-05-10T17:51:26Z</time>
      </trkpt>
      <trkpt lat="42.90522594" lon="13.31762499">
        <ele>926.00000</ele>
        <time>2024-05-10T17:51:26Z</time>
      </trkpt>
      <trkpt lat="42.90524194" lon="13.31760797">
        <ele>926.00000</ele>
        <time>2024-05-10T17:51:26Z</time>
      </trkpt>
      <trkpt lat="42.90525695" lon="13.31759297">
        <ele>925.00000</ele>
        <time>2024-05-10T17:51:27Z</time>
      </trkpt>
      <trkpt lat="42.90526994" lon="13.31757092">
        <ele>925.00000</ele>
        <time>2024-05-10T17:51:27Z</time>
      </trkpt>
      <trkpt lat="42.90528092" lon="13.31754393">
        <ele>925.00000</ele>
        <time>2024-05-10T17:51:28Z</time>
      </trkpt>
      <trkpt lat="42.90529198" lon="13.31752197">
        <ele>925.00000</ele>
        <time>2024-05-10T17:51:28Z</time>
      </trkpt>
      <trkpt lat="42.90530196" lon="13.31749691">
        <ele>924.00000</ele>
        <time>2024-05-10T17:51:28Z</time>
      </trkpt>
      <trkpt lat="42.90531193" lon="13.31747193">
        <ele>924.00000</ele>
        <time>2024-05-10T17:51:29Z</time>
      </trkpt>
      <trkpt lat="42.90532199" lon="13.31744897">
        <ele>924.00000</ele>
        <time>2024-05-10T17:51:29Z</time>
      </trkpt>
      <trkpt lat="42.90532794" lon="13.31742994">
        <ele>924.00000</ele>
        <time>2024-05-10T17:51:30Z</time>
      </trkpt>
      <trkpt lat="42.90533297" lon="13.31740396">
        <ele>924.00000</ele>
        <time>2024-05-10T17:51:30Z</time>
      </trkpt>
      <trkpt lat="42.90534697" lon="13.31738895">
        <ele>924.00000</ele>
        <time>2024-05-10T17:51:30Z</time>
      </trkpt>
      <trkpt lat="42.90535694" lon="13.31737395">
        <ele>923.00000</ele>
        <time>2024-05-10T17:51:31Z</time>
      </trkpt>
      <trkpt lat="42.90535795" lon="13.31736699">
        <ele>923.00000</ele>
        <time>2024-05-10T17:51:31Z</time>
      </trkpt>
      <trkpt lat="42.90535493" lon="13.31736892">
        <ele>923.00000</ele>
        <time>2024-05-10T17:51:31Z</time>
      </trkpt>
      <trkpt lat="42.90537798" lon="13.31731695">
        <ele>923.00000</ele>
        <time>2024-05-10T17:51:32Z</time>
      </trkpt>
      <trkpt lat="42.90538192" lon="13.31729097">
        <ele>923.00000</ele>
        <time>2024-05-10T17:51:32Z</time>
      </trkpt>
      <trkpt lat="42.90538595" lon="13.31726096">
        <ele>923.00000</ele>
        <time>2024-05-10T17:51:32Z</time>
      </trkpt>
      <trkpt lat="42.90538896" lon="13.31722894">
        <ele>923.00000</ele>
        <time>2024-05-10T17:51:33Z</time>
      </trkpt>
      <trkpt lat="42.90539592" lon="13.31720296">
        <ele>923.00000</ele>
        <time>2024-05-10T17:51:33Z</time>
      </trkpt>
      <trkpt lat="42.90540397" lon="13.31718091">
        <ele>923.00000</ele>
        <time>2024-05-10T17:51:34Z</time>
      </trkpt>
      <trkpt lat="42.90541595" lon="13.31715493">
        <ele>924.00000</ele>
        <time>2024-05-10T17:51:34Z</time>
      </trkpt>
      <trkpt lat="42.90542199" lon="13.31712299">
        <ele>924.00000</ele>
        <time>2024-05-10T17:51:35Z</time>
      </trkpt>
      <trkpt lat="42.90542894" lon="13.31708494">
        <ele>924.00000</ele>
        <time>2024-05-10T17:51:35Z</time>
      </trkpt>
      <trkpt lat="42.90543397" lon="13.31704194">
        <ele>925.00000</ele>
        <time>2024-05-10T17:51:36Z</time>
      </trkpt>
      <trkpt lat="42.90544194" lon="13.31700598">
        <ele>925.00000</ele>
        <time>2024-05-10T17:51:36Z</time>
      </trkpt>
      <trkpt lat="42.90544797" lon="13.31697396">
        <ele>925.00000</ele>
        <time>2024-05-10T17:51:37Z</time>
      </trkpt>
      <trkpt lat="42.90544998" lon="13.31693792">
        <ele>926.00000</ele>
        <time>2024-05-10T17:51:37Z</time>
      </trkpt>
      <trkpt lat="42.90544998" lon="13.31690096">
        <ele>926.00000</ele>
        <time>2024-05-10T17:51:38Z</time>
      </trkpt>
      <trkpt lat="42.90545199" lon="13.31686693">
        <ele>926.00000</ele>
        <time>2024-05-10T17:51:38Z</time>
      </trkpt>
      <trkpt lat="42.90545392" lon="13.31683097">
        <ele>927.00000</ele>
        <time>2024-05-10T17:51:39Z</time>
      </trkpt>
      <trkpt lat="42.90545593" lon="13.31679292">
        <ele>927.00000</ele>
        <time>2024-05-10T17:51:40Z</time>
      </trkpt>
      <trkpt lat="42.90546096" lon="13.31675595">
        <ele>927.00000</ele>
        <time>2024-05-10T17:51:40Z</time>
      </trkpt>
      <trkpt lat="42.90546298" lon="13.31671999">
        <ele>928.00000</ele>
        <time>2024-05-10T17:51:41Z</time>
      </trkpt>
      <trkpt lat="42.90546398" lon="13.31668093">
        <ele>928.00000</ele>
        <time>2024-05-10T17:51:41Z</time>
      </trkpt>
      <trkpt lat="42.90546096" lon="13.31664992">
        <ele>928.00000</ele>
        <time>2024-05-10T17:51:42Z</time>
      </trkpt>
      <trkpt lat="42.90545895" lon="13.31661597">
        <ele>928.00000</ele>
        <time>2024-05-10T17:51:42Z</time>
      </trkpt>
      <trkpt lat="42.90545593" lon="13.31658094">
        <ele>928.00000</ele>
        <time>2024-05-10T17:51:43Z</time>
      </trkpt>
      <trkpt lat="42.90545593" lon="13.31654096">
        <ele>928.00000</ele>
        <time>2024-05-10T17:51:43Z</time>
      </trkpt>
      <trkpt lat="42.90545895" lon="13.31650198">
        <ele>928.00000</ele>
        <time>2024-05-10T17:51:44Z</time>
      </trkpt>
      <trkpt lat="42.90546298" lon="13.31646895">
        <ele>928.00000</ele>
        <time>2024-05-10T17:51:44Z</time>
      </trkpt>
      <trkpt lat="42.90546499" lon="13.31643593">
        <ele>928.00000</ele>
        <time>2024-05-10T17:51:45Z</time>
      </trkpt>
      <trkpt lat="42.90546599" lon="13.31639595">
        <ele>928.00000</ele>
        <time>2024-05-10T17:51:45Z</time>
      </trkpt>
      <trkpt lat="42.90546398" lon="13.31635798">
        <ele>927.00000</ele>
        <time>2024-05-10T17:51:46Z</time>
      </trkpt>
      <trkpt lat="42.90545694" lon="13.31632395">
        <ele>927.00000</ele>
        <time>2024-05-10T17:51:47Z</time>
      </trkpt>
      <trkpt lat="42.90544898" lon="13.31629796">
        <ele>926.00000</ele>
        <time>2024-05-10T17:51:47Z</time>
      </trkpt>
      <trkpt lat="42.90544093" lon="13.31627299">
        <ele>926.00000</ele>
        <time>2024-05-10T17:51:47Z</time>
      </trkpt>
      <trkpt lat="42.90543297" lon="13.31624692">
        <ele>926.00000</ele>
        <time>2024-05-10T17:51:48Z</time>
      </trkpt>
      <trkpt lat="42.90542693" lon="13.31622295">
        <ele>925.00000</ele>
        <time>2024-05-10T17:51:48Z</time>
      </trkpt>
      <trkpt lat="42.90541796" lon="13.31619998">
        <ele>925.00000</ele>
        <time>2024-05-10T17:51:48Z</time>
      </trkpt>
      <trkpt lat="42.90541092" lon="13.31617391">
        <ele>925.00000</ele>
        <time>2024-05-10T17:51:49Z</time>
      </trkpt>
      <trkpt lat="42.90540196" lon="13.31614692">
        <ele>925.00000</ele>
        <time>2024-05-10T17:51:49Z</time>
      </trkpt>
      <trkpt lat="42.90539399" lon="13.31612094">
        <ele>925.00000</ele>
        <time>2024-05-10T17:51:50Z</time>
      </trkpt>
      <trkpt lat="42.90538293" lon="13.31609596">
        <ele>925.00000</ele>
        <time>2024-05-10T17:51:50Z</time>
      </trkpt>
      <trkpt lat="42.90537497" lon="13.31607593">
        <ele>925.00000</ele>
        <time>2024-05-10T17:51:51Z</time>
      </trkpt>
      <trkpt lat="42.90536792" lon="13.31604994">
        <ele>925.00000</ele>
        <time>2024-05-10T17:51:51Z</time>
      </trkpt>
      <trkpt lat="42.90535996" lon="13.31602195">
        <ele>925.00000</ele>
        <time>2024-05-10T17:51:51Z</time>
      </trkpt>
      <trkpt lat="42.90535594" lon="13.31599596">
        <ele>925.00000</ele>
        <time>2024-05-10T17:51:52Z</time>
      </trkpt>
      <trkpt lat="42.90534798" lon="13.31596998">
        <ele>925.00000</ele>
        <time>2024-05-10T17:51:52Z</time>
      </trkpt>
      <trkpt lat="42.90533792" lon="13.31594299">
        <ele>925.00000</ele>
        <time>2024-05-10T17:51:53Z</time>
      </trkpt>
      <trkpt lat="42.90532099" lon="13.31591893">
        <ele>926.00000</ele>
        <time>2024-05-10T17:51:53Z</time>
      </trkpt>
      <trkpt lat="42.90530598" lon="13.31589798">
        <ele>926.00000</ele>
        <time>2024-05-10T17:51:54Z</time>
      </trkpt>
      <trkpt lat="42.90528796" lon="13.31588197">
        <ele>927.00000</ele>
        <time>2024-05-10T17:51:54Z</time>
      </trkpt>
      <trkpt lat="42.90527296" lon="13.31586395">
        <ele>928.00000</ele>
        <time>2024-05-10T17:51:54Z</time>
      </trkpt>
      <trkpt lat="42.90525695" lon="13.31584693">
        <ele>928.00000</ele>
        <time>2024-05-10T17:51:55Z</time>
      </trkpt>
      <trkpt lat="42.90523792" lon="13.31583092">
        <ele>928.00000</ele>
        <time>2024-05-10T17:51:55Z</time>
      </trkpt>
      <trkpt lat="42.90521797" lon="13.31580997">
        <ele>929.00000</ele>
        <time>2024-05-10T17:51:56Z</time>
      </trkpt>
      <trkpt lat="42.90519995" lon="13.31578893">
        <ele>929.00000</ele>
        <time>2024-05-10T17:51:56Z</time>
      </trkpt>
      <trkpt lat="42.90519299" lon="13.31576697">
        <ele>929.00000</ele>
        <time>2024-05-10T17:51:57Z</time>
      </trkpt>
      <trkpt lat="42.90518696" lon="13.31573897">
        <ele>930.00000</ele>
        <time>2024-05-10T17:51:57Z</time>
      </trkpt>
      <trkpt lat="42.90517891" lon="13.31571794">
        <ele>930.00000</ele>
        <time>2024-05-10T17:51:57Z</time>
      </trkpt>
      <trkpt lat="42.90516894" lon="13.31569396">
        <ele>930.00000</ele>
        <time>2024-05-10T17:51:58Z</time>
      </trkpt>
      <trkpt lat="42.90515796" lon="13.31566899">
        <ele>930.00000</ele>
        <time>2024-05-10T17:51:58Z</time>
      </trkpt>
      <trkpt lat="42.90514991" lon="13.31564493">
        <ele>931.00000</ele>
        <time>2024-05-10T17:51:59Z</time>
      </trkpt>
      <trkpt lat="42.90513994" lon="13.31561895">
        <ele>931.00000</ele>
        <time>2024-05-10T17:51:59Z</time>
      </trkpt>
      <trkpt lat="42.90512996" lon="13.31559397">
        <ele>931.00000</ele>
        <time>2024-05-10T17:51:59Z</time>
      </trkpt>
      <trkpt lat="42.90511697" lon="13.31557092">
        <ele>932.00000</ele>
        <time>2024-05-10T17:52:00Z</time>
      </trkpt>
      <trkpt lat="42.90510792" lon="13.31554695">
        <ele>932.00000</ele>
        <time>2024-05-10T17:52:00Z</time>
      </trkpt>
      <trkpt lat="42.90509593" lon="13.31552297">
        <ele>932.00000</ele>
        <time>2024-05-10T17:52:01Z</time>
      </trkpt>
      <trkpt lat="42.90508596" lon="13.31550193">
        <ele>932.00000</ele>
        <time>2024-05-10T17:52:01Z</time>
      </trkpt>
      <trkpt lat="42.90507498" lon="13.31548199">
        <ele>933.00000</ele>
        <time>2024-05-10T17:52:01Z</time>
      </trkpt>
      <trkpt lat="42.90506492" lon="13.31546296">
        <ele>933.00000</ele>
        <time>2024-05-10T17:52:02Z</time>
      </trkpt>
      <trkpt lat="42.90505595" lon="13.31544695">
        <ele>933.00000</ele>
        <time>2024-05-10T17:52:02Z</time>
      </trkpt>
      <trkpt lat="42.90504698" lon="13.31542893">
        <ele>933.00000</ele>
        <time>2024-05-10T17:52:02Z</time>
      </trkpt>
      <trkpt lat="42.90503399" lon="13.31540797">
        <ele>934.00000</ele>
        <time>2024-05-10T17:52:03Z</time>
      </trkpt>
      <trkpt lat="42.90502293" lon="13.31538693">
        <ele>934.00000</ele>
        <time>2024-05-10T17:52:03Z</time>
      </trkpt>
      <trkpt lat="42.90501396" lon="13.31536397">
        <ele>935.00000</ele>
        <time>2024-05-10T17:52:03Z</time>
      </trkpt>
      <trkpt lat="42.90500993" lon="13.31534293">
        <ele>935.00000</ele>
        <time>2024-05-10T17:52:04Z</time>
      </trkpt>
      <trkpt lat="42.90500692" lon="13.31531695">
        <ele>935.00000</ele>
        <time>2024-05-10T17:52:04Z</time>
      </trkpt>
      <trkpt lat="42.90500599" lon="13.31528895">
        <ele>935.00000</ele>
        <time>2024-05-10T17:52:05Z</time>
      </trkpt>
      <trkpt lat="42.90500096" lon="13.31525794">
        <ele>935.00000</ele>
        <time>2024-05-10T17:52:05Z</time>
      </trkpt>
      <trkpt lat="42.90499694" lon="13.31523799">
        <ele>935.00000</ele>
        <time>2024-05-10T17:52:05Z</time>
      </trkpt>
      <trkpt lat="42.90499292" lon="13.31521594">
        <ele>935.00000</ele>
        <time>2024-05-10T17:52:06Z</time>
      </trkpt>
      <trkpt lat="42.90499099" lon="13.31519197">
        <ele>934.00000</ele>
        <time>2024-05-10T17:52:06Z</time>
      </trkpt>
      <trkpt lat="42.90498797" lon="13.31517294">
        <ele>934.00000</ele>
        <time>2024-05-10T17:52:06Z</time>
      </trkpt>
      <trkpt lat="42.90498395" lon="13.31514394">
        <ele>934.00000</ele>
        <time>2024-05-10T17:52:07Z</time>
      </trkpt>
      <trkpt lat="42.90497993" lon="13.31511897">
        <ele>933.00000</ele>
        <time>2024-05-10T17:52:07Z</time>
      </trkpt>
      <trkpt lat="42.90497699" lon="13.31509399">
        <ele>933.00000</ele>
        <time>2024-05-10T17:52:08Z</time>
      </trkpt>
      <trkpt lat="42.90496794" lon="13.31507194">
        <ele>933.00000</ele>
        <time>2024-05-10T17:52:08Z</time>
      </trkpt>
      <trkpt lat="42.90495897" lon="13.31504998">
        <ele>933.00000</ele>
        <time>2024-05-10T17:52:08Z</time>
      </trkpt>
      <trkpt lat="42.90494497" lon="13.31503397">
        <ele>933.00000</ele>
        <time>2024-05-10T17:52:09Z</time>
      </trkpt>
      <trkpt lat="42.90493198" lon="13.31501796">
        <ele>933.00000</ele>
        <time>2024-05-10T17:52:09Z</time>
      </trkpt>
      <trkpt lat="42.90491597" lon="13.31501293">
        <ele>933.00000</ele>
        <time>2024-05-10T17:52:09Z</time>
      </trkpt>
      <trkpt lat="42.90489996" lon="13.31501595">
        <ele>934.00000</ele>
        <time>2024-05-10T17:52:10Z</time>
      </trkpt>
      <trkpt lat="42.90488194" lon="13.31501595">
        <ele>934.00000</ele>
        <time>2024-05-10T17:52:10Z</time>
      </trkpt>
      <trkpt lat="42.90486794" lon="13.31501293">
        <ele>934.00000</ele>
        <time>2024-05-10T17:52:10Z</time>
      </trkpt>
      <trkpt lat="42.90485495" lon="13.31500095">
        <ele>935.00000</ele>
        <time>2024-05-10T17:52:11Z</time>
      </trkpt>
      <trkpt lat="42.90484196" lon="13.31499198">
        <ele>935.00000</ele>
        <time>2024-05-10T17:52:11Z</time>
      </trkpt>
      <trkpt lat="42.90482696" lon="13.31497899">
        <ele>935.00000</ele>
        <time>2024-05-10T17:52:11Z</time>
      </trkpt>
      <trkpt lat="42.90481095" lon="13.31496398">
        <ele>936.00000</ele>
        <time>2024-05-10T17:52:12Z</time>
      </trkpt>
      <trkpt lat="42.90479594" lon="13.31495099">
        <ele>936.00000</ele>
        <time>2024-05-10T17:52:12Z</time>
      </trkpt>
      <trkpt lat="42.90478597" lon="13.31493599">
        <ele>937.00000</ele>
        <time>2024-05-10T17:52:12Z</time>
      </trkpt>
      <trkpt lat="42.90477692" lon="13.31491897">
        <ele>937.00000</ele>
        <time>2024-05-10T17:52:13Z</time>
      </trkpt>
      <trkpt lat="42.90476493" lon="13.31490296">
        <ele>938.00000</ele>
        <time>2024-05-10T17:52:13Z</time>
      </trkpt>
      <trkpt lat="42.90475194" lon="13.31488193">
        <ele>938.00000</ele>
        <time>2024-05-10T17:52:13Z</time>
      </trkpt>
      <trkpt lat="42.90474096" lon="13.31486298">
        <ele>939.00000</ele>
        <time>2024-05-10T17:52:14Z</time>
      </trkpt>
      <trkpt lat="42.90473098" lon="13.31484094">
        <ele>939.00000</ele>
        <time>2024-05-10T17:52:14Z</time>
      </trkpt>
      <trkpt lat="42.90472495" lon="13.31482392">
        <ele>940.00000</ele>
        <time>2024-05-10T17:52:14Z</time>
      </trkpt>
      <trkpt lat="42.90471296" lon="13.31481093">
        <ele>940.00000</ele>
        <time>2024-05-10T17:52:15Z</time>
      </trkpt>
      <trkpt lat="42.90469896" lon="13.31479794">
        <ele>941.00000</ele>
        <time>2024-05-10T17:52:15Z</time>
      </trkpt>
      <trkpt lat="42.90468094" lon="13.31477891">
        <ele>941.00000</ele>
        <time>2024-05-10T17:52:15Z</time>
      </trkpt>
      <trkpt lat="42.90466594" lon="13.31476097">
        <ele>941.00000</ele>
        <time>2024-05-10T17:52:16Z</time>
      </trkpt>
      <trkpt lat="42.90465496" lon="13.31474094">
        <ele>942.00000</ele>
        <time>2024-05-10T17:52:16Z</time>
      </trkpt>
      <trkpt lat="42.90464599" lon="13.31472191">
        <ele>942.00000</ele>
        <time>2024-05-10T17:52:17Z</time>
      </trkpt>
      <trkpt lat="42.90463895" lon="13.31470699">
        <ele>943.00000</ele>
        <time>2024-05-10T17:52:17Z</time>
      </trkpt>
      <trkpt lat="42.90463199" lon="13.31468596">
        <ele>943.00000</ele>
        <time>2024-05-10T17:52:17Z</time>
      </trkpt>
      <trkpt lat="42.90462093" lon="13.31466391">
        <ele>943.00000</ele>
        <time>2024-05-10T17:52:18Z</time>
      </trkpt>
      <trkpt lat="42.90460894" lon="13.31464497">
        <ele>944.00000</ele>
        <time>2024-05-10T17:52:18Z</time>
      </trkpt>
      <trkpt lat="42.90460098" lon="13.31462192">
        <ele>944.00000</ele>
        <time>2024-05-10T17:52:18Z</time>
      </trkpt>
      <trkpt lat="42.90459092" lon="13.31459996">
        <ele>945.00000</ele>
        <time>2024-05-10T17:52:19Z</time>
      </trkpt>
      <trkpt lat="42.90458296" lon="13.31457599">
        <ele>945.00000</ele>
        <time>2024-05-10T17:52:19Z</time>
      </trkpt>
      <trkpt lat="42.90457592" lon="13.31455394">
        <ele>946.00000</ele>
        <time>2024-05-10T17:52:19Z</time>
      </trkpt>
      <trkpt lat="42.90457198" lon="13.31452997">
        <ele>946.00000</ele>
        <time>2024-05-10T17:52:20Z</time>
      </trkpt>
      <trkpt lat="42.90456695" lon="13.31450499">
        <ele>946.00000</ele>
        <time>2024-05-10T17:52:20Z</time>
      </trkpt>
      <trkpt lat="42.90456091" lon="13.31448697">
        <ele>947.00000</ele>
        <time>2024-05-10T17:52:20Z</time>
      </trkpt>
      <trkpt lat="42.90455295" lon="13.31446593">
        <ele>947.00000</ele>
        <time>2024-05-10T17:52:21Z</time>
      </trkpt>
      <trkpt lat="42.90454792" lon="13.31444699">
        <ele>947.00000</ele>
        <time>2024-05-10T17:52:21Z</time>
      </trkpt>
      <trkpt lat="42.90454398" lon="13.31442293">
        <ele>947.00000</ele>
        <time>2024-05-10T17:52:21Z</time>
      </trkpt>
      <trkpt lat="42.90453895" lon="13.31439292">
        <ele>947.00000</ele>
        <time>2024-05-10T17:52:22Z</time>
      </trkpt>
      <trkpt lat="42.90452496" lon="13.31439192">
        <ele>947.00000</ele>
        <time>2024-05-10T17:52:22Z</time>
      </trkpt>
      <trkpt lat="42.90451792" lon="13.31436895">
        <ele>947.00000</ele>
        <time>2024-05-10T17:52:23Z</time>
      </trkpt>
      <trkpt lat="42.90451196" lon="13.31435596">
        <ele>947.00000</ele>
        <time>2024-05-10T17:52:23Z</time>
      </trkpt>
      <trkpt lat="42.90450098" lon="13.31434498">
        <ele>947.00000</ele>
        <time>2024-05-10T17:52:23Z</time>
      </trkpt>
      <trkpt lat="42.90448992" lon="13.31432897">
        <ele>947.00000</ele>
        <time>2024-05-10T17:52:23Z</time>
      </trkpt>
      <trkpt lat="42.90447793" lon="13.31431296">
        <ele>947.00000</ele>
        <time>2024-05-10T17:52:24Z</time>
      </trkpt>
      <trkpt lat="42.90446293" lon="13.31429293">
        <ele>948.00000</ele>
        <time>2024-05-10T17:52:24Z</time>
      </trkpt>
      <trkpt lat="42.90444692" lon="13.31426996">
        <ele>948.00000</ele>
        <time>2024-05-10T17:52:25Z</time>
      </trkpt>
      <trkpt lat="42.90442999" lon="13.31423996">
        <ele>949.00000</ele>
        <time>2024-05-10T17:52:25Z</time>
      </trkpt>
      <trkpt lat="42.90441599" lon="13.31421992">
        <ele>949.00000</ele>
        <time>2024-05-10T17:52:26Z</time>
      </trkpt>
      <trkpt lat="42.90440493" lon="13.31420098">
        <ele>949.00000</ele>
        <time>2024-05-10T17:52:26Z</time>
      </trkpt>
      <trkpt lat="42.90438992" lon="13.31417793">
        <ele>949.00000</ele>
        <time>2024-05-10T17:52:26Z</time>
      </trkpt>
      <trkpt lat="42.90438196" lon="13.31416192">
        <ele>949.00000</ele>
        <time>2024-05-10T17:52:27Z</time>
      </trkpt>
      <trkpt lat="42.90436998" lon="13.31414096">
        <ele>949.00000</ele>
        <time>2024-05-10T17:52:27Z</time>
      </trkpt>
      <trkpt lat="42.90435598" lon="13.31411993">
        <ele>949.00000</ele>
        <time>2024-05-10T17:52:27Z</time>
      </trkpt>
      <trkpt lat="42.90434592" lon="13.31410392">
        <ele>949.00000</ele>
        <time>2024-05-10T17:52:28Z</time>
      </trkpt>
      <trkpt lat="42.90434097" lon="13.31409294">
        <ele>949.00000</ele>
        <time>2024-05-10T17:52:28Z</time>
      </trkpt>
      <trkpt lat="42.90433393" lon="13.31407592">
        <ele>949.00000</ele>
        <time>2024-05-10T17:52:28Z</time>
      </trkpt>
      <trkpt lat="42.90432195" lon="13.31406192">
        <ele>949.00000</ele>
        <time>2024-05-10T17:52:29Z</time>
      </trkpt>
      <trkpt lat="42.90430996" lon="13.31405195">
        <ele>949.00000</ele>
        <time>2024-05-10T17:52:29Z</time>
      </trkpt>
      <trkpt lat="42.90429496" lon="13.31404197">
        <ele>949.00000</ele>
        <time>2024-05-10T17:52:29Z</time>
      </trkpt>
      <trkpt lat="42.90428197" lon="13.31402999">
        <ele>949.00000</ele>
        <time>2024-05-10T17:52:29Z</time>
      </trkpt>
      <trkpt lat="42.90426093" lon="13.31401197">
        <ele>950.00000</ele>
        <time>2024-05-10T17:52:30Z</time>
      </trkpt>
      <trkpt lat="42.90424198" lon="13.31399596">
        <ele>950.00000</ele>
        <time>2024-05-10T17:52:30Z</time>
      </trkpt>
      <trkpt lat="42.90421692" lon="13.31397391">
        <ele>951.00000</ele>
        <time>2024-05-10T17:52:31Z</time>
      </trkpt>
      <trkpt lat="42.90420091" lon="13.31395899">
        <ele>952.00000</ele>
        <time>2024-05-10T17:52:31Z</time>
      </trkpt>
      <trkpt lat="42.90418893" lon="13.31394592">
        <ele>952.00000</ele>
        <time>2024-05-10T17:52:32Z</time>
      </trkpt>
      <trkpt lat="42.90417895" lon="13.31393594">
        <ele>953.00000</ele>
        <time>2024-05-10T17:52:32Z</time>
      </trkpt>
      <trkpt lat="42.90416797" lon="13.31392597">
        <ele>953.00000</ele>
        <time>2024-05-10T17:52:32Z</time>
      </trkpt>
      <trkpt lat="42.90415397" lon="13.31391197">
        <ele>953.00000</ele>
        <time>2024-05-10T17:52:33Z</time>
      </trkpt>
      <trkpt lat="42.90414098" lon="13.31389496">
        <ele>954.00000</ele>
        <time>2024-05-10T17:52:33Z</time>
      </trkpt>
      <trkpt lat="42.90412698" lon="13.31388599">
        <ele>954.00000</ele>
        <time>2024-05-10T17:52:33Z</time>
      </trkpt>
      <trkpt lat="42.90411793" lon="13.31387291">
        <ele>953.00000</ele>
        <time>2024-05-10T17:52:33Z</time>
      </trkpt>
      <trkpt lat="42.90410192" lon="13.31386193">
        <ele>953.00000</ele>
        <time>2024-05-10T17:52:34Z</time>
      </trkpt>
      <trkpt lat="42.90408792" lon="13.31385891">
        <ele>953.00000</ele>
        <time>2024-05-10T17:52:34Z</time>
      </trkpt>
      <trkpt lat="42.90407694" lon="13.31384995">
        <ele>953.00000</ele>
        <time>2024-05-10T17:52:34Z</time>
      </trkpt>
      <trkpt lat="42.90406395" lon="13.31384098">
        <ele>953.00000</ele>
        <time>2024-05-10T17:52:35Z</time>
      </trkpt>
      <trkpt lat="42.90404694" lon="13.31383293">
        <ele>953.00000</ele>
        <time>2024-05-10T17:52:35Z</time>
      </trkpt>
      <trkpt lat="42.90403596" lon="13.31381692">
        <ele>953.00000</ele>
        <time>2024-05-10T17:52:35Z</time>
      </trkpt>
      <trkpt lat="42.90402095" lon="13.31380292">
        <ele>953.00000</ele>
        <time>2024-05-10T17:52:36Z</time>
      </trkpt>
      <trkpt lat="42.90400193" lon="13.31378691">
        <ele>954.00000</ele>
        <time>2024-05-10T17:52:36Z</time>
      </trkpt>
      <trkpt lat="42.90397896" lon="13.31375992">
        <ele>954.00000</ele>
        <time>2024-05-10T17:52:37Z</time>
      </trkpt>
      <trkpt lat="42.90395691" lon="13.31373595">
        <ele>955.00000</ele>
        <time>2024-05-10T17:52:37Z</time>
      </trkpt>
      <trkpt lat="42.90393294" lon="13.31370695">
        <ele>955.00000</ele>
        <time>2024-05-10T17:52:38Z</time>
      </trkpt>
      <trkpt lat="42.90390998" lon="13.31368692">
        <ele>956.00000</ele>
        <time>2024-05-10T17:52:38Z</time>
      </trkpt>
      <trkpt lat="42.90390294" lon="13.31366496">
        <ele>956.00000</ele>
        <time>2024-05-10T17:52:39Z</time>
      </trkpt>
      <trkpt lat="42.90388994" lon="13.31364694">
        <ele>957.00000</ele>
        <time>2024-05-10T17:52:39Z</time>
      </trkpt>
      <trkpt lat="42.90387293" lon="13.31362095">
        <ele>958.00000</ele>
        <time>2024-05-10T17:52:40Z</time>
      </trkpt>
      <trkpt lat="42.90385893" lon="13.31360394">
        <ele>958.00000</ele>
        <time>2024-05-10T17:52:40Z</time>
      </trkpt>
      <trkpt lat="42.90384393" lon="13.31358893">
        <ele>957.00000</ele>
        <time>2024-05-10T17:52:40Z</time>
      </trkpt>
      <trkpt lat="42.90383596" lon="13.31356194">
        <ele>957.00000</ele>
        <time>2024-05-10T17:52:41Z</time>
      </trkpt>
      <trkpt lat="42.90383295" lon="13.31354199">
        <ele>956.00000</ele>
        <time>2024-05-10T17:52:41Z</time>
      </trkpt>
      <trkpt lat="42.90383194" lon="13.31352196">
        <ele>956.00000</ele>
        <time>2024-05-10T17:52:41Z</time>
      </trkpt>
      <trkpt lat="42.90382498" lon="13.31349799">
        <ele>956.00000</ele>
        <time>2024-05-10T17:52:42Z</time>
      </trkpt>
      <trkpt lat="42.90381995" lon="13.31347494">
        <ele>955.00000</ele>
        <time>2024-05-10T17:52:42Z</time>
      </trkpt>
      <trkpt lat="42.90381099" lon="13.31344493">
        <ele>955.00000</ele>
        <time>2024-05-10T17:52:43Z</time>
      </trkpt>
      <trkpt lat="42.90379892" lon="13.31341492">
        <ele>955.00000</ele>
        <time>2024-05-10T17:52:43Z</time>
      </trkpt>
      <trkpt lat="42.90378592" lon="13.31338693">
        <ele>955.00000</ele>
        <time>2024-05-10T17:52:44Z</time>
      </trkpt>
      <trkpt lat="42.90377394" lon="13.31336296">
        <ele>955.00000</ele>
        <time>2024-05-10T17:52:44Z</time>
      </trkpt>
      <trkpt lat="42.90375893" lon="13.31333597">
        <ele>955.00000</ele>
        <time>2024-05-10T17:52:45Z</time>
      </trkpt>
      <trkpt lat="42.90374292" lon="13.31331199">
        <ele>955.00000</ele>
        <time>2024-05-10T17:52:45Z</time>
      </trkpt>
      <trkpt lat="42.90372893" lon="13.31329498">
        <ele>956.00000</ele>
        <time>2024-05-10T17:52:45Z</time>
      </trkpt>
      <trkpt lat="42.90371292" lon="13.31326992">
        <ele>956.00000</ele>
        <time>2024-05-10T17:52:46Z</time>
      </trkpt>
      <trkpt lat="42.90369498" lon="13.31325399">
        <ele>956.00000</ele>
        <time>2024-05-10T17:52:46Z</time>
      </trkpt>
      <trkpt lat="42.90367897" lon="13.31323899">
        <ele>957.00000</ele>
        <time>2024-05-10T17:52:47Z</time>
      </trkpt>
      <trkpt lat="42.90366196" lon="13.31322298">
        <ele>957.00000</ele>
        <time>2024-05-10T17:52:47Z</time>
      </trkpt>
      <trkpt lat="42.90364595" lon="13.31320295">
        <ele>958.00000</ele>
        <time>2024-05-10T17:52:48Z</time>
      </trkpt>
      <trkpt lat="42.90363195" lon="13.31318291">
        <ele>958.00000</ele>
        <time>2024-05-10T17:52:48Z</time>
      </trkpt>
      <trkpt lat="42.90361594" lon="13.31316397">
        <ele>958.00000</ele>
        <time>2024-05-10T17:52:48Z</time>
      </trkpt>
      <trkpt lat="42.90359691" lon="13.31314796">
        <ele>958.00000</ele>
        <time>2024-05-10T17:52:49Z</time>
      </trkpt>
      <trkpt lat="42.90357897" lon="13.31313396">
        <ele>959.00000</ele>
        <time>2024-05-10T17:52:49Z</time>
      </trkpt>
      <trkpt lat="42.90356095" lon="13.31311997">
        <ele>959.00000</ele>
        <time>2024-05-10T17:52:50Z</time>
      </trkpt>
      <trkpt lat="42.90354394" lon="13.31310295">
        <ele>959.00000</ele>
        <time>2024-05-10T17:52:50Z</time>
      </trkpt>
      <trkpt lat="42.90352592" lon="13.31308795">
        <ele>960.00000</ele>
        <time>2024-05-10T17:52:51Z</time>
      </trkpt>
      <trkpt lat="42.90350999" lon="13.31307294">
        <ele>960.00000</ele>
        <time>2024-05-10T17:52:51Z</time>
      </trkpt>
      <trkpt lat="42.90349599" lon="13.31305492">
        <ele>960.00000</ele>
        <time>2024-05-10T17:52:51Z</time>
      </trkpt>
      <trkpt lat="42.90348099" lon="13.31303598">
        <ele>961.00000</ele>
        <time>2024-05-10T17:52:52Z</time>
      </trkpt>
      <trkpt lat="42.90346297" lon="13.31301997">
        <ele>961.00000</ele>
        <time>2024-05-10T17:52:52Z</time>
      </trkpt>
      <trkpt lat="42.90344294" lon="13.31300195">
        <ele>962.00000</ele>
        <time>2024-05-10T17:52:53Z</time>
      </trkpt>
      <trkpt lat="42.90342198" lon="13.31298795">
        <ele>962.00000</ele>
        <time>2024-05-10T17:52:53Z</time>
      </trkpt>
      <trkpt lat="42.90340396" lon="13.31297094">
        <ele>963.00000</ele>
        <time>2024-05-10T17:52:54Z</time>
      </trkpt>
      <trkpt lat="42.90338493" lon="13.31295099">
        <ele>964.00000</ele>
        <time>2024-05-10T17:52:54Z</time>
      </trkpt>
      <trkpt lat="42.90336792" lon="13.31293297">
        <ele>964.00000</ele>
        <time>2024-05-10T17:52:54Z</time>
      </trkpt>
      <trkpt lat="42.90334998" lon="13.31291394">
        <ele>965.00000</ele>
        <time>2024-05-10T17:52:55Z</time>
      </trkpt>
      <trkpt lat="42.90333095" lon="13.31289399">
        <ele>966.00000</ele>
        <time>2024-05-10T17:52:55Z</time>
      </trkpt>
      <trkpt lat="42.90331494" lon="13.31287697">
        <ele>966.00000</ele>
        <time>2024-05-10T17:52:56Z</time>
      </trkpt>
      <trkpt lat="42.90329491" lon="13.31285594">
        <ele>966.00000</ele>
        <time>2024-05-10T17:52:56Z</time>
      </trkpt>
      <trkpt lat="42.90327798" lon="13.31283397">
        <ele>966.00000</ele>
        <time>2024-05-10T17:52:57Z</time>
      </trkpt>
      <trkpt lat="42.90326197" lon="13.31281495">
        <ele>966.00000</ele>
        <time>2024-05-10T17:52:57Z</time>
      </trkpt>
      <trkpt lat="42.90324395" lon="13.31279693">
        <ele>966.00000</ele>
        <time>2024-05-10T17:52:58Z</time>
      </trkpt>
      <trkpt lat="42.90322492" lon="13.31277295">
        <ele>966.00000</ele>
        <time>2024-05-10T17:52:58Z</time>
      </trkpt>
      <trkpt lat="42.90320799" lon="13.31275099">
        <ele>967.00000</ele>
        <time>2024-05-10T17:52:59Z</time>
      </trkpt>
      <trkpt lat="42.90319299" lon="13.31272895">
        <ele>967.00000</ele>
        <time>2024-05-10T17:52:59Z</time>
      </trkpt>
      <trkpt lat="42.90317798" lon="13.31270699">
        <ele>967.00000</ele>
        <time>2024-05-10T17:53:00Z</time>
      </trkpt>
      <trkpt lat="42.90315996" lon="13.31268796">
        <ele>967.00000</ele>
        <time>2024-05-10T17:53:00Z</time>
      </trkpt>
      <trkpt lat="42.90314496" lon="13.31266592">
        <ele>967.00000</ele>
        <time>2024-05-10T17:53:00Z</time>
      </trkpt>
      <trkpt lat="42.90313297" lon="13.31264195">
        <ele>967.00000</ele>
        <time>2024-05-10T17:53:01Z</time>
      </trkpt>
      <trkpt lat="42.90311898" lon="13.31261898">
        <ele>968.00000</ele>
        <time>2024-05-10T17:53:01Z</time>
      </trkpt>
      <trkpt lat="42.90310297" lon="13.31259492">
        <ele>968.00000</ele>
        <time>2024-05-10T17:53:02Z</time>
      </trkpt>
      <trkpt lat="42.90308796" lon="13.31256994">
        <ele>968.00000</ele>
        <time>2024-05-10T17:53:02Z</time>
      </trkpt>
      <trkpt lat="42.90307397" lon="13.31254195">
        <ele>969.00000</ele>
        <time>2024-05-10T17:53:03Z</time>
      </trkpt>
      <trkpt lat="42.90306198" lon="13.31251597">
        <ele>969.00000</ele>
        <time>2024-05-10T17:53:03Z</time>
      </trkpt>
      <trkpt lat="42.90304698" lon="13.31248898">
        <ele>969.00000</ele>
        <time>2024-05-10T17:53:04Z</time>
      </trkpt>
      <trkpt lat="42.90302996" lon="13.31246492">
        <ele>969.00000</ele>
        <time>2024-05-10T17:53:04Z</time>
      </trkpt>
      <trkpt lat="42.90301999" lon="13.31244095">
        <ele>968.00000</ele>
        <time>2024-05-10T17:53:05Z</time>
      </trkpt>
      <trkpt lat="42.90300993" lon="13.31241597">
        <ele>968.00000</ele>
        <time>2024-05-10T17:53:05Z</time>
      </trkpt>
      <trkpt lat="42.90299995" lon="13.31238194">
        <ele>968.00000</ele>
        <time>2024-05-10T17:53:06Z</time>
      </trkpt>
      <trkpt lat="42.90298897" lon="13.31235495">
        <ele>967.00000</ele>
        <time>2024-05-10T17:53:06Z</time>
      </trkpt>
      <trkpt lat="42.90297699" lon="13.31233399">
        <ele>967.00000</ele>
        <time>2024-05-10T17:53:06Z</time>
      </trkpt>
      <trkpt lat="42.90296592" lon="13.31231396">
        <ele>967.00000</ele>
        <time>2024-05-10T17:53:07Z</time>
      </trkpt>
      <trkpt lat="42.90295293" lon="13.31229493">
        <ele>967.00000</ele>
        <time>2024-05-10T17:53:07Z</time>
      </trkpt>
      <trkpt lat="42.90293994" lon="13.31228395">
        <ele>967.00000</ele>
        <time>2024-05-10T17:53:07Z</time>
      </trkpt>
      <trkpt lat="42.90292695" lon="13.31226292">
        <ele>967.00000</ele>
        <time>2024-05-10T17:53:08Z</time>
      </trkpt>
      <trkpt lat="42.90291798" lon="13.31223794">
        <ele>967.00000</ele>
        <time>2024-05-10T17:53:08Z</time>
      </trkpt>
      <trkpt lat="42.90290599" lon="13.31221397">
        <ele>967.00000</ele>
        <time>2024-05-10T17:53:09Z</time>
      </trkpt>
      <trkpt lat="42.90289493" lon="13.31219092">
        <ele>967.00000</ele>
        <time>2024-05-10T17:53:09Z</time>
      </trkpt>
      <trkpt lat="42.90288194" lon="13.31216493">
        <ele>967.00000</ele>
        <time>2024-05-10T17:53:10Z</time>
      </trkpt>
      <trkpt lat="42.90286995" lon="13.31214096">
        <ele>967.00000</ele>
        <time>2024-05-10T17:53:10Z</time>
      </trkpt>
      <trkpt lat="42.90285897" lon="13.31211598">
        <ele>967.00000</ele>
        <time>2024-05-10T17:53:10Z</time>
      </trkpt>
      <trkpt lat="42.90284598" lon="13.31209595">
        <ele>968.00000</ele>
        <time>2024-05-10T17:53:11Z</time>
      </trkpt>
      <trkpt lat="42.90283592" lon="13.31207592">
        <ele>968.00000</ele>
        <time>2024-05-10T17:53:11Z</time>
      </trkpt>
      <trkpt lat="42.90282293" lon="13.31205597">
        <ele>968.00000</ele>
        <time>2024-05-10T17:53:12Z</time>
      </trkpt>
      <trkpt lat="42.90281496" lon="13.31203795">
        <ele>968.00000</ele>
        <time>2024-05-10T17:53:12Z</time>
      </trkpt>
      <trkpt lat="42.90279795" lon="13.31201791">
        <ele>969.00000</ele>
        <time>2024-05-10T17:53:12Z</time>
      </trkpt>
      <trkpt lat="42.90278295" lon="13.31199998">
        <ele>970.00000</ele>
        <time>2024-05-10T17:53:13Z</time>
      </trkpt>
      <trkpt lat="42.90276593" lon="13.31197693">
        <ele>970.00000</ele>
        <time>2024-05-10T17:53:13Z</time>
      </trkpt>
      <trkpt lat="42.90274498" lon="13.31195496">
        <ele>971.00000</ele>
        <time>2024-05-10T17:53:14Z</time>
      </trkpt>
      <trkpt lat="42.90272997" lon="13.31193493">
        <ele>971.00000</ele>
        <time>2024-05-10T17:53:14Z</time>
      </trkpt>
      <trkpt lat="42.90271497" lon="13.31191599">
        <ele>971.00000</ele>
        <time>2024-05-10T17:53:15Z</time>
      </trkpt>
      <trkpt lat="42.90270097" lon="13.31189495">
        <ele>972.00000</ele>
        <time>2024-05-10T17:53:15Z</time>
      </trkpt>
      <trkpt lat="42.90268597" lon="13.31187492">
        <ele>972.00000</ele>
        <time>2024-05-10T17:53:15Z</time>
      </trkpt>
      <trkpt lat="42.90267096" lon="13.31185296">
        <ele>973.00000</ele>
        <time>2024-05-10T17:53:16Z</time>
      </trkpt>
      <trkpt lat="42.90265495" lon="13.31183393">
        <ele>974.00000</ele>
        <time>2024-05-10T17:53:16Z</time>
      </trkpt>
      <trkpt lat="42.90263794" lon="13.31181197">
        <ele>974.00000</ele>
        <time>2024-05-10T17:53:17Z</time>
      </trkpt>
      <trkpt lat="42.90262193" lon="13.31179093">
        <ele>975.00000</ele>
        <time>2024-05-10T17:53:17Z</time>
      </trkpt>
      <trkpt lat="42.90260491" lon="13.31176696">
        <ele>975.00000</ele>
        <time>2024-05-10T17:53:18Z</time>
      </trkpt>
      <trkpt lat="42.90258899" lon="13.31175095">
        <ele>976.00000</ele>
        <time>2024-05-10T17:53:18Z</time>
      </trkpt>
      <trkpt lat="42.90257398" lon="13.31173092">
        <ele>976.00000</ele>
        <time>2024-05-10T17:53:18Z</time>
      </trkpt>
      <trkpt lat="42.90255898" lon="13.31171298">
        <ele>977.00000</ele>
        <time>2024-05-10T17:53:19Z</time>
      </trkpt>
      <trkpt lat="42.90254197" lon="13.31168993">
        <ele>978.00000</ele>
        <time>2024-05-10T17:53:19Z</time>
      </trkpt>
      <trkpt lat="42.90252596" lon="13.31167291">
        <ele>978.00000</ele>
        <time>2024-05-10T17:53:20Z</time>
      </trkpt>
      <trkpt lat="42.90251095" lon="13.31165095">
        <ele>979.00000</ele>
        <time>2024-05-10T17:53:20Z</time>
      </trkpt>
      <trkpt lat="42.90249796" lon="13.31162799">
        <ele>979.00000</ele>
        <time>2024-05-10T17:53:21Z</time>
      </trkpt>
      <trkpt lat="42.90248396" lon="13.31160091">
        <ele>979.00000</ele>
        <time>2024-05-10T17:53:21Z</time>
      </trkpt>
      <trkpt lat="42.90246997" lon="13.31157493">
        <ele>980.00000</ele>
        <time>2024-05-10T17:53:22Z</time>
      </trkpt>
      <trkpt lat="42.90245798" lon="13.31154492">
        <ele>980.00000</ele>
        <time>2024-05-10T17:53:22Z</time>
      </trkpt>
      <trkpt lat="42.90244993" lon="13.31151592">
        <ele>980.00000</ele>
        <time>2024-05-10T17:53:22Z</time>
      </trkpt>
      <trkpt lat="42.90243996" lon="13.31148893">
        <ele>981.00000</ele>
        <time>2024-05-10T17:53:23Z</time>
      </trkpt>
      <trkpt lat="42.90243493" lon="13.31145993">
        <ele>981.00000</ele>
        <time>2024-05-10T17:53:23Z</time>
      </trkpt>
      <trkpt lat="42.90242998" lon="13.31142992">
        <ele>981.00000</ele>
        <time>2024-05-10T17:53:24Z</time>
      </trkpt>
      <trkpt lat="42.90242596" lon="13.31140193">
        <ele>982.00000</ele>
        <time>2024-05-10T17:53:24Z</time>
      </trkpt>
      <trkpt lat="42.90242495" lon="13.31137494">
        <ele>982.00000</ele>
        <time>2024-05-10T17:53:25Z</time>
      </trkpt>
      <trkpt lat="42.90242194" lon="13.31134895">
        <ele>982.00000</ele>
        <time>2024-05-10T17:53:25Z</time>
      </trkpt>
      <trkpt lat="42.90242093" lon="13.31131693">
        <ele>982.00000</ele>
        <time>2024-05-10T17:53:26Z</time>
      </trkpt>
      <trkpt lat="42.90241791" lon="13.31128299">
        <ele>982.00000</ele>
        <time>2024-05-10T17:53:26Z</time>
      </trkpt>
      <trkpt lat="42.90241297" lon="13.31124996">
        <ele>983.00000</ele>
        <time>2024-05-10T17:53:26Z</time>
      </trkpt>
      <trkpt lat="42.90240995" lon="13.31121895">
        <ele>983.00000</ele>
        <time>2024-05-10T17:53:27Z</time>
      </trkpt>
      <trkpt lat="42.90240794" lon="13.31118492">
        <ele>983.00000</ele>
        <time>2024-05-10T17:53:27Z</time>
      </trkpt>
      <trkpt lat="42.90240492" lon="13.31114795">
        <ele>983.00000</ele>
        <time>2024-05-10T17:53:28Z</time>
      </trkpt>
      <trkpt lat="42.90239595" lon="13.31109993">
        <ele>983.00000</ele>
        <time>2024-05-10T17:53:29Z</time>
      </trkpt>
      <trkpt lat="42.90238799" lon="13.31104997">
        <ele>983.00000</ele>
        <time>2024-05-10T17:53:29Z</time>
      </trkpt>
      <trkpt lat="42.90237994" lon="13.31099892">
        <ele>983.00000</ele>
        <time>2024-05-10T17:53:30Z</time>
      </trkpt>
      <trkpt lat="42.90237098" lon="13.31094696">
        <ele>983.00000</ele>
        <time>2024-05-10T17:53:31Z</time>
      </trkpt>
      <trkpt lat="42.90235999" lon="13.31088895">
        <ele>984.00000</ele>
        <time>2024-05-10T17:53:32Z</time>
      </trkpt>
      <trkpt lat="42.90234994" lon="13.31082894">
        <ele>984.00000</ele>
        <time>2024-05-10T17:53:33Z</time>
      </trkpt>
      <trkpt lat="42.90233694" lon="13.31076197">
        <ele>983.00000</ele>
        <time>2024-05-10T17:53:34Z</time>
      </trkpt>
      <trkpt lat="42.90232094" lon="13.31069198">
        <ele>983.00000</ele>
        <time>2024-05-10T17:53:35Z</time>
      </trkpt>
      <trkpt lat="42.90230199" lon="13.31061797">
        <ele>983.00000</ele>
        <time>2024-05-10T17:53:36Z</time>
      </trkpt>
      <trkpt lat="42.90228297" lon="13.31053993">
        <ele>982.00000</ele>
        <time>2024-05-10T17:53:37Z</time>
      </trkpt>
      <trkpt lat="42.90226193" lon="13.31045192">
        <ele>982.00000</ele>
        <time>2024-05-10T17:53:39Z</time>
      </trkpt>
      <trkpt lat="42.90224793" lon="13.31036098">
        <ele>982.00000</ele>
        <time>2024-05-10T17:53:40Z</time>
      </trkpt>
      <trkpt lat="42.90224491" lon="13.31026693">
        <ele>981.00000</ele>
        <time>2024-05-10T17:53:41Z</time>
      </trkpt>
      <trkpt lat="42.90225497" lon="13.31016995">
        <ele>981.00000</ele>
        <time>2024-05-10T17:53:43Z</time>
      </trkpt>
      <trkpt lat="42.90227794" lon="13.31007692">
        <ele>981.00000</ele>
        <time>2024-05-10T17:53:44Z</time>
      </trkpt>
      <trkpt lat="42.90231297" lon="13.31000098">
        <ele>981.00000</ele>
        <time>2024-05-10T17:53:46Z</time>
      </trkpt>
      <trkpt lat="42.90236293" lon="13.30994297">
        <ele>981.00000</ele>
        <time>2024-05-10T17:53:47Z</time>
      </trkpt>
      <trkpt lat="42.90241892" lon="13.30989193">
        <ele>981.00000</ele>
        <time>2024-05-10T17:53:48Z</time>
      </trkpt>
      <trkpt lat="42.90246795" lon="13.30984197">
        <ele>982.00000</ele>
        <time>2024-05-10T17:53:49Z</time>
      </trkpt>
      <trkpt lat="42.90251498" lon="13.30979595">
        <ele>982.00000</ele>
        <time>2024-05-10T17:53:51Z</time>
      </trkpt>
      <trkpt lat="42.90255798" lon="13.30975295">
        <ele>982.00000</ele>
        <time>2024-05-10T17:53:52Z</time>
      </trkpt>
      <trkpt lat="42.90260299" lon="13.30971297">
        <ele>983.00000</ele>
        <time>2024-05-10T17:53:53Z</time>
      </trkpt>
      <trkpt lat="42.90265093" lon="13.30966997">
        <ele>983.00000</ele>
        <time>2024-05-10T17:53:54Z</time>
      </trkpt>
      <trkpt lat="42.90269896" lon="13.30962597">
        <ele>983.00000</ele>
        <time>2024-05-10T17:53:55Z</time>
      </trkpt>
      <trkpt lat="42.90274598" lon="13.30958892">
        <ele>983.00000</ele>
        <time>2024-05-10T17:53:56Z</time>
      </trkpt>
      <trkpt lat="42.90279393" lon="13.30954894">
        <ele>983.00000</ele>
        <time>2024-05-10T17:53:57Z</time>
      </trkpt>
      <trkpt lat="42.90284598" lon="13.30950695">
        <ele>983.00000</ele>
        <time>2024-05-10T17:53:58Z</time>
      </trkpt>
      <trkpt lat="42.90289996" lon="13.30946696">
        <ele>983.00000</ele>
        <time>2024-05-10T17:54:00Z</time>
      </trkpt>
      <trkpt lat="42.90295796" lon="13.30942992">
        <ele>983.00000</ele>
        <time>2024-05-10T17:54:01Z</time>
      </trkpt>
      <trkpt lat="42.90301999" lon="13.30939295">
        <ele>983.00000</ele>
        <time>2024-05-10T17:54:02Z</time>
      </trkpt>
      <trkpt lat="42.90308796" lon="13.30935892">
        <ele>982.00000</ele>
        <time>2024-05-10T17:54:04Z</time>
      </trkpt>
      <trkpt lat="42.90315695" lon="13.30933193">
        <ele>982.00000</ele>
        <time>2024-05-10T17:54:05Z</time>
      </trkpt>
      <trkpt lat="42.90322895" lon="13.30930997">
        <ele>982.00000</ele>
        <time>2024-05-10T17:54:07Z</time>
      </trkpt>
      <trkpt lat="42.90330698" lon="13.30928994">
        <ele>981.00000</ele>
        <time>2024-05-10T17:54:08Z</time>
      </trkpt>
      <trkpt lat="42.90339097" lon="13.30928097">
        <ele>980.00000</ele>
        <time>2024-05-10T17:54:10Z</time>
      </trkpt>
      <trkpt lat="42.90347697" lon="13.30928097">
        <ele>979.00000</ele>
        <time>2024-05-10T17:54:12Z</time>
      </trkpt>
      <trkpt lat="42.90356397" lon="13.30928097">
        <ele>978.00000</ele>
        <time>2024-05-10T17:54:13Z</time>
      </trkpt>
      <trkpt lat="42.90365098" lon="13.30927896">
        <ele>976.00000</ele>
        <time>2024-05-10T17:54:15Z</time>
      </trkpt>
      <trkpt lat="42.90373999" lon="13.30927695">
        <ele>975.00000</ele>
        <time>2024-05-10T17:54:17Z</time>
      </trkpt>
      <trkpt lat="42.90383093" lon="13.30927594">
        <ele>973.00000</ele>
        <time>2024-05-10T17:54:19Z</time>
      </trkpt>
      <trkpt lat="42.90392498" lon="13.30928097">
        <ele>972.00000</ele>
        <time>2024-05-10T17:54:21Z</time>
      </trkpt>
      <trkpt lat="42.90402196" lon="13.30929195">
        <ele>971.00000</ele>
        <time>2024-05-10T17:54:23Z</time>
      </trkpt>
      <trkpt lat="42.90411693" lon="13.30931299">
        <ele>970.00000</ele>
        <time>2024-05-10T17:54:25Z</time>
      </trkpt>
      <trkpt lat="42.90421298" lon="13.30933797">
        <ele>969.00000</ele>
        <time>2024-05-10T17:54:26Z</time>
      </trkpt>
      <trkpt lat="42.90431197" lon="13.30936999">
        <ele>969.00000</ele>
        <time>2024-05-10T17:54:29Z</time>
      </trkpt>
      <trkpt lat="42.90440694" lon="13.30940494">
        <ele>968.00000</ele>
        <time>2024-05-10T17:54:30Z</time>
      </trkpt>
      <trkpt lat="42.90450794" lon="13.30945598">
        <ele>967.00000</ele>
        <time>2024-05-10T17:54:33Z</time>
      </trkpt>
      <trkpt lat="42.90460995" lon="13.30951399">
        <ele>965.00000</ele>
        <time>2024-05-10T17:54:35Z</time>
      </trkpt>
      <trkpt lat="42.90471095" lon="13.30958297">
        <ele>963.00000</ele>
        <time>2024-05-10T17:54:37Z</time>
      </trkpt>
      <trkpt lat="42.90479997" lon="13.30964399">
        <ele>961.00000</ele>
        <time>2024-05-10T17:54:39Z</time>
      </trkpt>
      <trkpt lat="42.90488697" lon="13.30970199">
        <ele>960.00000</ele>
        <time>2024-05-10T17:54:41Z</time>
      </trkpt>
      <trkpt lat="42.90496995" lon="13.30975295">
        <ele>959.00000</ele>
        <time>2024-05-10T17:54:43Z</time>
      </trkpt>
      <trkpt lat="42.90505394" lon="13.30978799">
        <ele>958.00000</ele>
        <time>2024-05-10T17:54:45Z</time>
      </trkpt>
      <trkpt lat="42.90514094" lon="13.30979797">
        <ele>957.00000</ele>
        <time>2024-05-10T17:54:46Z</time>
      </trkpt>
      <trkpt lat="42.90522099" lon="13.30976595">
        <ele>957.00000</ele>
        <time>2024-05-10T17:54:48Z</time>
      </trkpt>
      <trkpt lat="42.90528394" lon="13.30969696">
        <ele>958.00000</ele>
        <time>2024-05-10T17:54:50Z</time>
      </trkpt>
      <trkpt lat="42.90534697" lon="13.30959294">
        <ele>958.00000</ele>
        <time>2024-05-10T17:54:52Z</time>
      </trkpt>
      <trkpt lat="42.90540196" lon="13.30948096">
        <ele>957.00000</ele>
        <time>2024-05-10T17:54:54Z</time>
      </trkpt>
      <trkpt lat="42.90545895" lon="13.30936797">
        <ele>957.00000</ele>
        <time>2024-05-10T17:54:56Z</time>
      </trkpt>
      <trkpt lat="42.90551494" lon="13.30924099">
        <ele>956.00000</ele>
        <time>2024-05-10T17:54:58Z</time>
      </trkpt>
      <trkpt lat="42.90556792" lon="13.30910998">
        <ele>955.00000</ele>
        <time>2024-05-10T17:55:00Z</time>
      </trkpt>
      <trkpt lat="42.90561695" lon="13.30897293">
        <ele>952.00000</ele>
        <time>2024-05-10T17:55:02Z</time>
      </trkpt>
      <trkpt lat="42.90566397" lon="13.30883991">
        <ele>950.00000</ele>
        <time>2024-05-10T17:55:04Z</time>
      </trkpt>
      <trkpt lat="42.90570999" lon="13.30870899">
        <ele>950.00000</ele>
        <time>2024-05-10T17:55:07Z</time>
      </trkpt>
      <trkpt lat="42.90575399" lon="13.30858494">
        <ele>949.00000</ele>
        <time>2024-05-10T17:55:09Z</time>
      </trkpt>
      <trkpt lat="42.90580898" lon="13.30846499">
        <ele>949.00000</ele>
        <time>2024-05-10T17:55:11Z</time>
      </trkpt>
      <trkpt lat="42.90589196" lon="13.30835695">
        <ele>948.00000</ele>
        <time>2024-05-10T17:55:13Z</time>
      </trkpt>
      <trkpt lat="42.90598399" lon="13.30829593">
        <ele>945.00000</ele>
        <time>2024-05-10T17:55:15Z</time>
      </trkpt>
      <trkpt lat="42.90605993" lon="13.30821496">
        <ele>942.00000</ele>
        <time>2024-05-10T17:55:17Z</time>
      </trkpt>
      <trkpt lat="42.90610595" lon="13.30812192">
        <ele>941.00000</ele>
        <time>2024-05-10T17:55:19Z</time>
      </trkpt>
      <trkpt lat="42.90612397" lon="13.30800198">
        <ele>940.00000</ele>
        <time>2024-05-10T17:55:20Z</time>
      </trkpt>
      <trkpt lat="42.90611593" lon="13.30787398">
        <ele>940.00000</ele>
        <time>2024-05-10T17:55:22Z</time>
      </trkpt>
      <trkpt lat="42.90609095" lon="13.30774691">
        <ele>942.00000</ele>
        <time>2024-05-10T17:55:24Z</time>
      </trkpt>
      <trkpt lat="42.90605692" lon="13.30762093">
        <ele>944.00000</ele>
        <time>2024-05-10T17:55:26Z</time>
      </trkpt>
      <trkpt lat="42.90601694" lon="13.30748699">
        <ele>947.00000</ele>
        <time>2024-05-10T17:55:28Z</time>
      </trkpt>
      <trkpt lat="42.90597192" lon="13.30735598">
        <ele>950.00000</ele>
        <time>2024-05-10T17:55:30Z</time>
      </trkpt>
      <trkpt lat="42.90594896" lon="13.30722397">
        <ele>951.00000</ele>
        <time>2024-05-10T17:55:32Z</time>
      </trkpt>
      <trkpt lat="42.90594594" lon="13.30709296">
        <ele>952.00000</ele>
        <time>2024-05-10T17:55:34Z</time>
      </trkpt>
      <trkpt lat="42.90595499" lon="13.30697494">
        <ele>953.00000</ele>
        <time>2024-05-10T17:55:36Z</time>
      </trkpt>
      <trkpt lat="42.90597092" lon="13.30685793">
        <ele>953.00000</ele>
        <time>2024-05-10T17:55:38Z</time>
      </trkpt>
      <trkpt lat="42.90600797" lon="13.30674494">
        <ele>951.00000</ele>
        <time>2024-05-10T17:55:40Z</time>
      </trkpt>
      <trkpt lat="42.90605692" lon="13.30665492">
        <ele>950.00000</ele>
        <time>2024-05-10T17:55:41Z</time>
      </trkpt>
      <trkpt lat="42.90612095" lon="13.30658795">
        <ele>948.00000</ele>
        <time>2024-05-10T17:55:43Z</time>
      </trkpt>
      <trkpt lat="42.90619497" lon="13.30656096">
        <ele>946.00000</ele>
        <time>2024-05-10T17:55:44Z</time>
      </trkpt>
      <trkpt lat="42.90627795" lon="13.30656892">
        <ele>943.00000</ele>
        <time>2024-05-10T17:55:46Z</time>
      </trkpt>
      <trkpt lat="42.90634693" lon="13.30661796">
        <ele>939.00000</ele>
        <time>2024-05-10T17:55:48Z</time>
      </trkpt>
      <trkpt lat="42.90641097" lon="13.30667696">
        <ele>936.00000</ele>
        <time>2024-05-10T17:55:49Z</time>
      </trkpt>
      <trkpt lat="42.90646998" lon="13.30674595">
        <ele>934.00000</ele>
        <time>2024-05-10T17:55:51Z</time>
      </trkpt>
      <trkpt lat="42.90653192" lon="13.30681996">
        <ele>932.00000</ele>
        <time>2024-05-10T17:55:52Z</time>
      </trkpt>
      <trkpt lat="42.90659093" lon="13.30689799">
        <ele>930.00000</ele>
        <time>2024-05-10T17:55:54Z</time>
      </trkpt>
      <trkpt lat="42.90665698" lon="13.30696991">
        <ele>928.00000</ele>
        <time>2024-05-10T17:55:56Z</time>
      </trkpt>
      <trkpt lat="42.90672596" lon="13.30702791">
        <ele>927.00000</ele>
        <time>2024-05-10T17:55:57Z</time>
      </trkpt>
      <trkpt lat="42.90680299" lon="13.30705692">
        <ele>927.00000</ele>
        <time>2024-05-10T17:55:59Z</time>
      </trkpt>
      <trkpt lat="42.90688396" lon="13.30704795">
        <ele>927.00000</ele>
        <time>2024-05-10T17:56:01Z</time>
      </trkpt>
      <trkpt lat="42.90696593" lon="13.30700998">
        <ele>928.00000</ele>
        <time>2024-05-10T17:56:02Z</time>
      </trkpt>
      <trkpt lat="42.90704095" lon="13.30694996">
        <ele>930.00000</ele>
        <time>2024-05-10T17:56:04Z</time>
      </trkpt>
      <trkpt lat="42.90711295" lon="13.30689196">
        <ele>931.00000</ele>
        <time>2024-05-10T17:56:06Z</time>
      </trkpt>
      <trkpt lat="42.90718697" lon="13.30683899">
        <ele>933.00000</ele>
        <time>2024-05-10T17:56:07Z</time>
      </trkpt>
      <trkpt lat="42.90725796" lon="13.30680496">
        <ele>934.00000</ele>
        <time>2024-05-10T17:56:09Z</time>
      </trkpt>
      <trkpt lat="42.90732694" lon="13.30677797">
        <ele>935.00000</ele>
        <time>2024-05-10T17:56:10Z</time>
      </trkpt>
      <trkpt lat="42.90740892" lon="13.30674997">
        <ele>937.00000</ele>
        <time>2024-05-10T17:56:12Z</time>
      </trkpt>
      <trkpt lat="42.90747899" lon="13.30674394">
        <ele>938.00000</ele>
        <time>2024-05-10T17:56:13Z</time>
      </trkpt>
      <trkpt lat="42.90754294" lon="13.30674192">
        <ele>939.00000</ele>
        <time>2024-05-10T17:56:15Z</time>
      </trkpt>
      <trkpt lat="42.90759793" lon="13.30673698">
        <ele>940.00000</ele>
        <time>2024-05-10T17:56:16Z</time>
      </trkpt>
      <trkpt lat="42.90765694" lon="13.30672692">
        <ele>941.00000</ele>
        <time>2024-05-10T17:56:17Z</time>
      </trkpt>
      <trkpt lat="42.90770094" lon="13.30672793">
        <ele>941.00000</ele>
        <time>2024-05-10T17:56:18Z</time>
      </trkpt>
      <trkpt lat="42.90775593" lon="13.30670999">
        <ele>942.00000</ele>
        <time>2024-05-10T17:56:19Z</time>
      </trkpt>
      <trkpt lat="42.90779692" lon="13.30669499">
        <ele>943.00000</ele>
        <time>2024-05-10T17:56:20Z</time>
      </trkpt>
      <trkpt lat="42.90783095" lon="13.30667395">
        <ele>943.00000</ele>
        <time>2024-05-10T17:56:21Z</time>
      </trkpt>
      <trkpt lat="42.90786598" lon="13.30665391">
        <ele>943.00000</ele>
        <time>2024-05-10T17:56:21Z</time>
      </trkpt>
      <trkpt lat="42.90788794" lon="13.30664595">
        <ele>943.00000</ele>
        <time>2024-05-10T17:56:22Z</time>
      </trkpt>
      <trkpt lat="42.90790697" lon="13.30664193">
        <ele>943.00000</ele>
        <time>2024-05-10T17:56:22Z</time>
      </trkpt>
      <trkpt lat="42.90792893" lon="13.30663296">
        <ele>943.00000</ele>
        <time>2024-05-10T17:56:23Z</time>
      </trkpt>
      <trkpt lat="42.90795592" lon="13.30661997">
        <ele>944.00000</ele>
        <time>2024-05-10T17:56:23Z</time>
      </trkpt>
      <trkpt lat="42.90798693" lon="13.30660396">
        <ele>944.00000</ele>
        <time>2024-05-10T17:56:24Z</time>
      </trkpt>
      <trkpt lat="42.90800898" lon="13.30659599">
        <ele>944.00000</ele>
        <time>2024-05-10T17:56:24Z</time>
      </trkpt>
      <trkpt lat="42.90803295" lon="13.30659097">
        <ele>944.00000</ele>
        <time>2024-05-10T17:56:25Z</time>
      </trkpt>
      <trkpt lat="42.90806095" lon="13.30658292">
        <ele>944.00000</ele>
        <time>2024-05-10T17:56:25Z</time>
      </trkpt>
      <trkpt lat="42.90809095" lon="13.30657797">
        <ele>944.00000</ele>
        <time>2024-05-10T17:56:26Z</time>
      </trkpt>
      <trkpt lat="42.90812096" lon="13.30657697">
        <ele>944.00000</ele>
        <time>2024-05-10T17:56:27Z</time>
      </trkpt>
      <trkpt lat="42.90815298" lon="13.30658493">
        <ele>943.00000</ele>
        <time>2024-05-10T17:56:27Z</time>
      </trkpt>
      <trkpt lat="42.90817796" lon="13.30660295">
        <ele>943.00000</ele>
        <time>2024-05-10T17:56:28Z</time>
      </trkpt>
      <trkpt lat="42.90819891" lon="13.30662793">
        <ele>943.00000</ele>
        <time>2024-05-10T17:56:28Z</time>
      </trkpt>
      <trkpt lat="42.90821492" lon="13.30665693">
        <ele>942.00000</ele>
        <time>2024-05-10T17:56:29Z</time>
      </trkpt>
      <trkpt lat="42.90823093" lon="13.30668895">
        <ele>942.00000</ele>
        <time>2024-05-10T17:56:29Z</time>
      </trkpt>
      <trkpt lat="42.90824292" lon="13.30672499">
        <ele>941.00000</ele>
        <time>2024-05-10T17:56:30Z</time>
      </trkpt>
      <trkpt lat="42.90825398" lon="13.30675793">
        <ele>941.00000</ele>
        <time>2024-05-10T17:56:31Z</time>
      </trkpt>
      <trkpt lat="42.90826094" lon="13.30679297">
        <ele>940.00000</ele>
        <time>2024-05-10T17:56:31Z</time>
      </trkpt>
      <trkpt lat="42.90825792" lon="13.30682298">
        <ele>940.00000</ele>
        <time>2024-05-10T17:56:32Z</time>
      </trkpt>
      <trkpt lat="42.90825298" lon="13.30685692">
        <ele>939.00000</ele>
        <time>2024-05-10T17:56:32Z</time>
      </trkpt>
      <trkpt lat="42.90824191" lon="13.30689397">
        <ele>938.00000</ele>
        <time>2024-05-10T17:56:33Z</time>
      </trkpt>
      <trkpt lat="42.90822599" lon="13.30693395">
        <ele>938.00000</ele>
        <time>2024-05-10T17:56:33Z</time>
      </trkpt>
      <trkpt lat="42.90820897" lon="13.30697393">
        <ele>937.00000</ele>
        <time>2024-05-10T17:56:34Z</time>
      </trkpt>
      <trkpt lat="42.90819296" lon="13.30702791">
        <ele>936.00000</ele>
        <time>2024-05-10T17:56:35Z</time>
      </trkpt>
      <trkpt lat="42.90818793" lon="13.30709095">
        <ele>936.00000</ele>
        <time>2024-05-10T17:56:36Z</time>
      </trkpt>
      <trkpt lat="42.90819698" lon="13.30714995">
        <ele>935.00000</ele>
        <time>2024-05-10T17:56:37Z</time>
      </trkpt>
      <trkpt lat="42.90822096" lon="13.30719295">
        <ele>935.00000</ele>
        <time>2024-05-10T17:56:37Z</time>
      </trkpt>
      <trkpt lat="42.90825096" lon="13.30720595">
        <ele>935.00000</ele>
        <time>2024-05-10T17:56:38Z</time>
      </trkpt>
      <trkpt lat="42.90828399" lon="13.30720997">
        <ele>936.00000</ele>
        <time>2024-05-10T17:56:39Z</time>
      </trkpt>
      <trkpt lat="42.90831592" lon="13.30720595">
        <ele>936.00000</ele>
        <time>2024-05-10T17:56:39Z</time>
      </trkpt>
      <trkpt lat="42.90835096" lon="13.30720595">
        <ele>937.00000</ele>
        <time>2024-05-10T17:56:40Z</time>
      </trkpt>
      <trkpt lat="42.90839195" lon="13.30721097">
        <ele>937.00000</ele>
        <time>2024-05-10T17:56:41Z</time>
      </trkpt>
      <trkpt lat="42.90843897" lon="13.30722095">
        <ele>937.00000</ele>
        <time>2024-05-10T17:56:42Z</time>
      </trkpt>
      <trkpt lat="42.90848792" lon="13.30723294">
        <ele>938.00000</ele>
        <time>2024-05-10T17:56:43Z</time>
      </trkpt>
      <trkpt lat="42.90853595" lon="13.30725196">
        <ele>938.00000</ele>
        <time>2024-05-10T17:56:44Z</time>
      </trkpt>
      <trkpt lat="42.90857995" lon="13.30728792">
        <ele>938.00000</ele>
        <time>2024-05-10T17:56:45Z</time>
      </trkpt>
      <trkpt lat="42.90861692" lon="13.30733997">
        <ele>937.00000</ele>
        <time>2024-05-10T17:56:46Z</time>
      </trkpt>
      <trkpt lat="42.90863997" lon="13.30739999">
        <ele>937.00000</ele>
        <time>2024-05-10T17:56:47Z</time>
      </trkpt>
      <trkpt lat="42.90864793" lon="13.30747098">
        <ele>936.00000</ele>
        <time>2024-05-10T17:56:48Z</time>
      </trkpt>
      <trkpt lat="42.90865095" lon="13.30754793">
        <ele>936.00000</ele>
        <time>2024-05-10T17:56:49Z</time>
      </trkpt>
      <trkpt lat="42.90866092" lon="13.30762797">
        <ele>935.00000</ele>
        <time>2024-05-10T17:56:50Z</time>
      </trkpt>
      <trkpt lat="42.90868196" lon="13.30770391">
        <ele>935.00000</ele>
        <time>2024-05-10T17:56:52Z</time>
      </trkpt>
      <trkpt lat="42.90871499" lon="13.30777592">
        <ele>935.00000</ele>
        <time>2024-05-10T17:56:53Z</time>
      </trkpt>
      <trkpt lat="42.90875195" lon="13.30783794">
        <ele>935.00000</ele>
        <time>2024-05-10T17:56:54Z</time>
      </trkpt>
      <trkpt lat="42.90878699" lon="13.30789796">
        <ele>935.00000</ele>
        <time>2024-05-10T17:56:55Z</time>
      </trkpt>
      <trkpt lat="42.90881699" lon="13.30795696">
        <ele>935.00000</ele>
        <time>2024-05-10T17:56:56Z</time>
      </trkpt>
      <trkpt lat="42.90884591" lon="13.30801698">
        <ele>935.00000</ele>
        <time>2024-05-10T17:56:57Z</time>
      </trkpt>
      <trkpt lat="42.90887491" lon="13.30807498">
        <ele>934.00000</ele>
        <time>2024-05-10T17:56:58Z</time>
      </trkpt>
      <trkpt lat="42.90890492" lon="13.30812594">
        <ele>935.00000</ele>
        <time>2024-05-10T17:56:59Z</time>
      </trkpt>
      <trkpt lat="42.90893199" lon="13.30817699">
        <ele>935.00000</ele>
        <time>2024-05-10T17:57:00Z</time>
      </trkpt>
      <trkpt lat="42.90895194" lon="13.30823591">
        <ele>935.00000</ele>
        <time>2024-05-10T17:57:01Z</time>
      </trkpt>
      <trkpt lat="42.90897399" lon="13.30829593">
        <ele>935.00000</ele>
        <time>2024-05-10T17:57:02Z</time>
      </trkpt>
      <trkpt lat="42.90899695" lon="13.30834999">
        <ele>936.00000</ele>
        <time>2024-05-10T17:57:03Z</time>
      </trkpt>
      <trkpt lat="42.90901891" lon="13.30840498">
        <ele>936.00000</ele>
        <time>2024-05-10T17:57:04Z</time>
      </trkpt>
      <trkpt lat="42.90904096" lon="13.30845493">
        <ele>936.00000</ele>
        <time>2024-05-10T17:57:05Z</time>
      </trkpt>
      <trkpt lat="42.90906694" lon="13.30850497">
        <ele>936.00000</ele>
        <time>2024-05-10T17:57:06Z</time>
      </trkpt>
      <trkpt lat="42.90908295" lon="13.30855594">
        <ele>936.00000</ele>
        <time>2024-05-10T17:57:06Z</time>
      </trkpt>
      <trkpt lat="42.90909494" lon="13.30860195">
        <ele>936.00000</ele>
        <time>2024-05-10T17:57:07Z</time>
      </trkpt>
      <trkpt lat="42.90910692" lon="13.30864596">
        <ele>936.00000</ele>
        <time>2024-05-10T17:57:08Z</time>
      </trkpt>
      <trkpt lat="42.90912193" lon="13.30869399">
        <ele>936.00000</ele>
        <time>2024-05-10T17:57:09Z</time>
      </trkpt>
      <trkpt lat="42.90913794" lon="13.30873799">
        <ele>936.00000</ele>
        <time>2024-05-10T17:57:09Z</time>
      </trkpt>
      <trkpt lat="42.90915193" lon="13.30878694">
        <ele>936.00000</ele>
        <time>2024-05-10T17:57:10Z</time>
      </trkpt>
      <trkpt lat="42.90916694" lon="13.30883597">
        <ele>936.00000</ele>
        <time>2024-05-10T17:57:11Z</time>
      </trkpt>
      <trkpt lat="42.90918496" lon="13.30888099">
        <ele>936.00000</ele>
        <time>2024-05-10T17:57:12Z</time>
      </trkpt>
      <trkpt lat="42.90920298" lon="13.30891493">
        <ele>935.00000</ele>
        <time>2024-05-10T17:57:12Z</time>
      </trkpt>
      <trkpt lat="42.90922394" lon="13.30894896">
        <ele>935.00000</ele>
        <time>2024-05-10T17:57:13Z</time>
      </trkpt>
      <trkpt lat="42.90925193" lon="13.30898593">
        <ele>935.00000</ele>
        <time>2024-05-10T17:57:14Z</time>
      </trkpt>
      <trkpt lat="42.90928797" lon="13.30902096">
        <ele>935.00000</ele>
        <time>2024-05-10T17:57:15Z</time>
      </trkpt>
      <trkpt lat="42.90932192" lon="13.30904896">
        <ele>935.00000</ele>
        <time>2024-05-10T17:57:15Z</time>
      </trkpt>
      <trkpt lat="42.90935897" lon="13.30907695">
        <ele>935.00000</ele>
        <time>2024-05-10T17:57:16Z</time>
      </trkpt>
      <trkpt lat="42.90939794" lon="13.30909992">
        <ele>935.00000</ele>
        <time>2024-05-10T17:57:17Z</time>
      </trkpt>
      <trkpt lat="42.90944094" lon="13.30911794">
        <ele>936.00000</ele>
        <time>2024-05-10T17:57:18Z</time>
      </trkpt>
      <trkpt lat="42.90948193" lon="13.30911995">
        <ele>936.00000</ele>
        <time>2024-05-10T17:57:19Z</time>
      </trkpt>
      <trkpt lat="42.90952292" lon="13.30913194">
        <ele>935.00000</ele>
        <time>2024-05-10T17:57:20Z</time>
      </trkpt>
      <trkpt lat="42.90957095" lon="13.30915097">
        <ele>935.00000</ele>
        <time>2024-05-10T17:57:21Z</time>
      </trkpt>
      <trkpt lat="42.90961998" lon="13.30916597">
        <ele>935.00000</ele>
        <time>2024-05-10T17:57:22Z</time>
      </trkpt>
      <trkpt lat="42.90966792" lon="13.30918097">
        <ele>935.00000</ele>
        <time>2024-05-10T17:57:23Z</time>
      </trkpt>
      <trkpt lat="42.90971696" lon="13.30920092">
        <ele>934.00000</ele>
        <time>2024-05-10T17:57:24Z</time>
      </trkpt>
      <trkpt lat="42.90976197" lon="13.30922397">
        <ele>934.00000</ele>
        <time>2024-05-10T17:57:25Z</time>
      </trkpt>
      <trkpt lat="42.90980698" lon="13.30924895">
        <ele>934.00000</ele>
        <time>2024-05-10T17:57:26Z</time>
      </trkpt>
      <trkpt lat="42.90985199" lon="13.30926798">
        <ele>935.00000</ele>
        <time>2024-05-10T17:57:27Z</time>
      </trkpt>
      <trkpt lat="42.90989893" lon="13.30927795">
        <ele>935.00000</ele>
        <time>2024-05-10T17:57:27Z</time>
      </trkpt>
      <trkpt lat="42.90995098" lon="13.30928592">
        <ele>935.00000</ele>
        <time>2024-05-10T17:57:28Z</time>
      </trkpt>
      <trkpt lat="42.91000194" lon="13.30929396">
        <ele>935.00000</ele>
        <time>2024-05-10T17:57:30Z</time>
      </trkpt>
      <trkpt lat="42.91005693" lon="13.30930092">
        <ele>935.00000</ele>
        <time>2024-05-10T17:57:31Z</time>
      </trkpt>
      <trkpt lat="42.91010999" lon="13.30930695">
        <ele>935.00000</ele>
        <time>2024-05-10T17:57:32Z</time>
      </trkpt>
      <trkpt lat="42.91016799" lon="13.30931399">
        <ele>935.00000</ele>
        <time>2024-05-10T17:57:33Z</time>
      </trkpt>
      <trkpt lat="42.91022893" lon="13.30931198">
        <ele>935.00000</ele>
        <time>2024-05-10T17:57:34Z</time>
      </trkpt>
      <trkpt lat="42.91028995" lon="13.30930293">
        <ele>935.00000</ele>
        <time>2024-05-10T17:57:35Z</time>
      </trkpt>
      <trkpt lat="42.91035398" lon="13.30929296">
        <ele>935.00000</ele>
        <time>2024-05-10T17:57:37Z</time>
      </trkpt>
      <trkpt lat="42.91041794" lon="13.30928692">
        <ele>934.00000</ele>
        <time>2024-05-10T17:57:38Z</time>
      </trkpt>
      <trkpt lat="42.91048097" lon="13.30928298">
        <ele>934.00000</ele>
        <time>2024-05-10T17:57:39Z</time>
      </trkpt>
      <trkpt lat="42.91054492" lon="13.30928097">
        <ele>934.00000</ele>
        <time>2024-05-10T17:57:40Z</time>
      </trkpt>
      <trkpt lat="42.91060393" lon="13.30927896">
        <ele>934.00000</ele>
        <time>2024-05-10T17:57:42Z</time>
      </trkpt>
      <trkpt lat="42.91066093" lon="13.30927996">
        <ele>934.00000</ele>
        <time>2024-05-10T17:57:43Z</time>
      </trkpt>
      <trkpt lat="42.91071591" lon="13.30928198">
        <ele>934.00000</ele>
        <time>2024-05-10T17:57:44Z</time>
      </trkpt>
      <trkpt lat="42.91077299" lon="13.30928692">
        <ele>935.00000</ele>
        <time>2024-05-10T17:57:45Z</time>
      </trkpt>
      <trkpt lat="42.91082697" lon="13.30929799">
        <ele>935.00000</ele>
        <time>2024-05-10T17:57:46Z</time>
      </trkpt>
      <trkpt lat="42.91087894" lon="13.30931592">
        <ele>936.00000</ele>
        <time>2024-05-10T17:57:47Z</time>
      </trkpt>
      <trkpt lat="42.91092898" lon="13.30933495">
        <ele>936.00000</ele>
        <time>2024-05-10T17:57:48Z</time>
      </trkpt>
      <trkpt lat="42.91097592" lon="13.30935599">
        <ele>937.00000</ele>
        <time>2024-05-10T17:57:49Z</time>
      </trkpt>
      <trkpt lat="42.91101791" lon="13.30938097">
        <ele>938.00000</ele>
        <time>2024-05-10T17:57:50Z</time>
      </trkpt>
      <trkpt lat="42.91105697" lon="13.30940796">
        <ele>938.00000</ele>
        <time>2024-05-10T17:57:51Z</time>
      </trkpt>
      <trkpt lat="42.91109193" lon="13.30943193">
        <ele>938.00000</ele>
        <time>2024-05-10T17:57:52Z</time>
      </trkpt>
      <trkpt lat="42.91112395" lon="13.30945095">
        <ele>939.00000</ele>
        <time>2024-05-10T17:57:52Z</time>
      </trkpt>
      <trkpt lat="42.91115496" lon="13.30946998">
        <ele>939.00000</ele>
        <time>2024-05-10T17:57:53Z</time>
      </trkpt>
      <trkpt lat="42.91118698" lon="13.30948398">
        <ele>940.00000</ele>
        <time>2024-05-10T17:57:54Z</time>
      </trkpt>
      <trkpt lat="42.91121598" lon="13.30949999">
        <ele>940.00000</ele>
        <time>2024-05-10T17:57:54Z</time>
      </trkpt>
      <trkpt lat="42.91124599" lon="13.30951499">
        <ele>941.00000</ele>
        <time>2024-05-10T17:57:55Z</time>
      </trkpt>
      <trkpt lat="42.91127993" lon="13.30952899">
        <ele>941.00000</ele>
        <time>2024-05-10T17:57:56Z</time>
      </trkpt>
      <trkpt lat="42.91130893" lon="13.30954098">
        <ele>942.00000</ele>
        <time>2024-05-10T17:57:56Z</time>
      </trkpt>
      <trkpt lat="42.91133995" lon="13.30955095">
        <ele>943.00000</ele>
        <time>2024-05-10T17:57:57Z</time>
      </trkpt>
      <trkpt lat="42.91136593" lon="13.30955992">
        <ele>943.00000</ele>
        <time>2024-05-10T17:57:58Z</time>
      </trkpt>
      <trkpt lat="42.91139292" lon="13.30957098">
        <ele>944.00000</ele>
        <time>2024-05-10T17:57:58Z</time>
      </trkpt>
      <trkpt lat="42.91141899" lon="13.30957995">
        <ele>944.00000</ele>
        <time>2024-05-10T17:57:59Z</time>
      </trkpt>
      <trkpt lat="42.91144698" lon="13.30958892">
        <ele>944.00000</ele>
        <time>2024-05-10T17:57:59Z</time>
      </trkpt>
      <trkpt lat="42.91147196" lon="13.30959898">
        <ele>945.00000</ele>
        <time>2024-05-10T17:58:00Z</time>
      </trkpt>
      <trkpt lat="42.91149795" lon="13.30961097">
        <ele>945.00000</ele>
        <time>2024-05-10T17:58:00Z</time>
      </trkpt>
      <trkpt lat="42.91152393" lon="13.30962094">
        <ele>945.00000</ele>
        <time>2024-05-10T17:58:01Z</time>
      </trkpt>
      <trkpt lat="42.91154991" lon="13.30963192">
        <ele>945.00000</ele>
        <time>2024-05-10T17:58:01Z</time>
      </trkpt>
      <trkpt lat="42.91157891" lon="13.30964399">
        <ele>946.00000</ele>
        <time>2024-05-10T17:58:02Z</time>
      </trkpt>
      <trkpt lat="42.91160498" lon="13.30965799">
        <ele>946.00000</ele>
        <time>2024-05-10T17:58:03Z</time>
      </trkpt>
      <trkpt lat="42.91162895" lon="13.30967593">
        <ele>946.00000</ele>
        <time>2024-05-10T17:58:03Z</time>
      </trkpt>
      <trkpt lat="42.91165393" lon="13.30968892">
        <ele>946.00000</ele>
        <time>2024-05-10T17:58:04Z</time>
      </trkpt>
      <trkpt lat="42.91167598" lon="13.30970996">
        <ele>947.00000</ele>
        <time>2024-05-10T17:58:04Z</time>
      </trkpt>
      <trkpt lat="42.91169794" lon="13.30972898">
        <ele>947.00000</ele>
        <time>2024-05-10T17:58:05Z</time>
      </trkpt>
      <trkpt lat="42.91171596" lon="13.30975195">
        <ele>947.00000</ele>
        <time>2024-05-10T17:58:05Z</time>
      </trkpt>
      <trkpt lat="42.91173499" lon="13.30977492">
        <ele>947.00000</ele>
        <time>2024-05-10T17:58:06Z</time>
      </trkpt>
      <trkpt lat="42.91175192" lon="13.30979897">
        <ele>948.00000</ele>
        <time>2024-05-10T17:58:06Z</time>
      </trkpt>
      <trkpt lat="42.91176893" lon="13.30982898">
        <ele>948.00000</ele>
        <time>2024-05-10T17:58:07Z</time>
      </trkpt>
      <trkpt lat="42.91178595" lon="13.30985899">
        <ele>948.00000</ele>
        <time>2024-05-10T17:58:07Z</time>
      </trkpt>
      <trkpt lat="42.91180598" lon="13.30988095">
        <ele>948.00000</ele>
        <time>2024-05-10T17:58:08Z</time>
      </trkpt>
      <trkpt lat="42.91182694" lon="13.30990592">
        <ele>948.00000</ele>
        <time>2024-05-10T17:58:08Z</time>
      </trkpt>
      <trkpt lat="42.91185099" lon="13.30992797">
        <ele>949.00000</ele>
        <time>2024-05-10T17:58:09Z</time>
      </trkpt>
      <trkpt lat="42.91187396" lon="13.30995496">
        <ele>949.00000</ele>
        <time>2024-05-10T17:58:10Z</time>
      </trkpt>
      <trkpt lat="42.91189097" lon="13.30998396">
        <ele>949.00000</ele>
        <time>2024-05-10T17:58:10Z</time>
      </trkpt>
      <trkpt lat="42.91191092" lon="13.31001799">
        <ele>949.00000</ele>
        <time>2024-05-10T17:58:11Z</time>
      </trkpt>
      <trkpt lat="42.91193095" lon="13.31004599">
        <ele>949.00000</ele>
        <time>2024-05-10T17:58:11Z</time>
      </trkpt>
      <trkpt lat="42.91195392" lon="13.31006996">
        <ele>950.00000</ele>
        <time>2024-05-10T17:58:12Z</time>
      </trkpt>
      <trkpt lat="42.91197697" lon="13.31009393">
        <ele>950.00000</ele>
        <time>2024-05-10T17:58:12Z</time>
      </trkpt>
      <trkpt lat="42.91199793" lon="13.31011698">
        <ele>950.00000</ele>
        <time>2024-05-10T17:58:13Z</time>
      </trkpt>
      <trkpt lat="42.91201695" lon="13.31014196">
        <ele>950.00000</ele>
        <time>2024-05-10T17:58:14Z</time>
      </trkpt>
      <trkpt lat="42.91203196" lon="13.31016794">
        <ele>950.00000</ele>
        <time>2024-05-10T17:58:14Z</time>
      </trkpt>
      <trkpt lat="42.91205098" lon="13.31019493">
        <ele>950.00000</ele>
        <time>2024-05-10T17:58:15Z</time>
      </trkpt>
      <trkpt lat="42.91206993" lon="13.31022192">
        <ele>951.00000</ele>
        <time>2024-05-10T17:58:15Z</time>
      </trkpt>
      <trkpt lat="42.91208694" lon="13.31025193">
        <ele>951.00000</ele>
        <time>2024-05-10T17:58:16Z</time>
      </trkpt>
      <trkpt lat="42.91210496" lon="13.31027993">
        <ele>951.00000</ele>
        <time>2024-05-10T17:58:16Z</time>
      </trkpt>
      <trkpt lat="42.91212298" lon="13.31031094">
        <ele>951.00000</ele>
        <time>2024-05-10T17:58:17Z</time>
      </trkpt>
      <trkpt lat="42.91214092" lon="13.31034296">
        <ele>951.00000</ele>
        <time>2024-05-10T17:58:17Z</time>
      </trkpt>
      <trkpt lat="42.91216095" lon="13.31037296">
        <ele>951.00000</ele>
        <time>2024-05-10T17:58:18Z</time>
      </trkpt>
      <trkpt lat="42.91217797" lon="13.31040096">
        <ele>951.00000</ele>
        <time>2024-05-10T17:58:18Z</time>
      </trkpt>
      <trkpt lat="42.91219599" lon="13.31043097">
        <ele>951.00000</ele>
        <time>2024-05-10T17:58:19Z</time>
      </trkpt>
      <trkpt lat="42.91221493" lon="13.31045695">
        <ele>951.00000</ele>
        <time>2024-05-10T17:58:20Z</time>
      </trkpt>
      <trkpt lat="42.91223497" lon="13.31048897">
        <ele>952.00000</ele>
        <time>2024-05-10T17:58:20Z</time>
      </trkpt>
      <trkpt lat="42.91225399" lon="13.31052392">
        <ele>952.00000</ele>
        <time>2024-05-10T17:58:21Z</time>
      </trkpt>
      <trkpt lat="42.91227595" lon="13.31055594">
        <ele>952.00000</ele>
        <time>2024-05-10T17:58:21Z</time>
      </trkpt>
      <trkpt lat="42.91229791" lon="13.31058695">
        <ele>952.00000</ele>
        <time>2024-05-10T17:58:22Z</time>
      </trkpt>
      <trkpt lat="42.91231795" lon="13.31061193">
        <ele>952.00000</ele>
        <time>2024-05-10T17:58:23Z</time>
      </trkpt>
      <trkpt lat="42.91233999" lon="13.31063699">
        <ele>953.00000</ele>
        <time>2024-05-10T17:58:23Z</time>
      </trkpt>
      <trkpt lat="42.91236195" lon="13.31066197">
        <ele>953.00000</ele>
        <time>2024-05-10T17:58:24Z</time>
      </trkpt>
      <trkpt lat="42.91238299" lon="13.31069097">
        <ele>953.00000</ele>
        <time>2024-05-10T17:58:24Z</time>
      </trkpt>
      <trkpt lat="42.91240193" lon="13.31072098">
        <ele>953.00000</ele>
        <time>2024-05-10T17:58:25Z</time>
      </trkpt>
      <trkpt lat="42.91241794" lon="13.31074898">
        <ele>953.00000</ele>
        <time>2024-05-10T17:58:26Z</time>
      </trkpt>
      <trkpt lat="42.91243496" lon="13.31077697">
        <ele>953.00000</ele>
        <time>2024-05-10T17:58:26Z</time>
      </trkpt>
      <trkpt lat="42.91245591" lon="13.31080597">
        <ele>953.00000</ele>
        <time>2024-05-10T17:58:27Z</time>
      </trkpt>
      <trkpt lat="42.91247796" lon="13.31083296">
        <ele>953.00000</ele>
        <time>2024-05-10T17:58:27Z</time>
      </trkpt>
      <trkpt lat="42.91250092" lon="13.31085995">
        <ele>954.00000</ele>
        <time>2024-05-10T17:58:28Z</time>
      </trkpt>
      <trkpt lat="42.91252397" lon="13.31088795">
        <ele>954.00000</ele>
        <time>2024-05-10T17:58:28Z</time>
      </trkpt>
      <trkpt lat="42.91254694" lon="13.31091695">
        <ele>954.00000</ele>
        <time>2024-05-10T17:58:29Z</time>
      </trkpt>
      <trkpt lat="42.91257091" lon="13.31094897">
        <ele>954.00000</ele>
        <time>2024-05-10T17:58:30Z</time>
      </trkpt>
      <trkpt lat="42.91259296" lon="13.31097495">
        <ele>954.00000</ele>
        <time>2024-05-10T17:58:30Z</time>
      </trkpt>
      <trkpt lat="42.91261492" lon="13.31100395">
        <ele>954.00000</ele>
        <time>2024-05-10T17:58:31Z</time>
      </trkpt>
      <trkpt lat="42.91263797" lon="13.31103597">
        <ele>954.00000</ele>
        <time>2024-05-10T17:58:32Z</time>
      </trkpt>
      <trkpt lat="42.91266194" lon="13.31106497">
        <ele>954.00000</ele>
        <time>2024-05-10T17:58:32Z</time>
      </trkpt>
      <trkpt lat="42.91268792" lon="13.31108995">
        <ele>954.00000</ele>
        <time>2024-05-10T17:58:33Z</time>
      </trkpt>
      <trkpt lat="42.91271299" lon="13.31111493">
        <ele>954.00000</ele>
        <time>2024-05-10T17:58:34Z</time>
      </trkpt>
      <trkpt lat="42.91274098" lon="13.31113899">
        <ele>954.00000</ele>
        <time>2024-05-10T17:58:34Z</time>
      </trkpt>
      <trkpt lat="42.91277199" lon="13.31116195">
        <ele>954.00000</ele>
        <time>2024-05-10T17:58:35Z</time>
      </trkpt>
      <trkpt lat="42.91279697" lon="13.31118693">
        <ele>954.00000</ele>
        <time>2024-05-10T17:58:36Z</time>
      </trkpt>
      <trkpt lat="42.91282396" lon="13.31120898">
        <ele>955.00000</ele>
        <time>2024-05-10T17:58:36Z</time>
      </trkpt>
      <trkpt lat="42.91284995" lon="13.31122993">
        <ele>955.00000</ele>
        <time>2024-05-10T17:58:37Z</time>
      </trkpt>
      <trkpt lat="42.91288096" lon="13.31124594">
        <ele>955.00000</ele>
        <time>2024-05-10T17:58:37Z</time>
      </trkpt>
      <trkpt lat="42.91290896" lon="13.31126094">
        <ele>955.00000</ele>
        <time>2024-05-10T17:58:38Z</time>
      </trkpt>
      <trkpt lat="42.91293695" lon="13.31128098">
        <ele>955.00000</ele>
        <time>2024-05-10T17:58:39Z</time>
      </trkpt>
      <trkpt lat="42.91296394" lon="13.31129992">
        <ele>955.00000</ele>
        <time>2024-05-10T17:58:39Z</time>
      </trkpt>
      <trkpt lat="42.91299194" lon="13.31132196">
        <ele>955.00000</ele>
        <time>2024-05-10T17:58:40Z</time>
      </trkpt>
      <trkpt lat="42.91301691" lon="13.31134292">
        <ele>955.00000</ele>
        <time>2024-05-10T17:58:40Z</time>
      </trkpt>
      <trkpt lat="42.91303996" lon="13.31136798">
        <ele>955.00000</ele>
        <time>2024-05-10T17:58:41Z</time>
      </trkpt>
      <trkpt lat="42.91306595" lon="13.31139497">
        <ele>955.00000</ele>
        <time>2024-05-10T17:58:42Z</time>
      </trkpt>
      <trkpt lat="42.91309495" lon="13.31141995">
        <ele>955.00000</ele>
        <time>2024-05-10T17:58:42Z</time>
      </trkpt>
      <trkpt lat="42.91312295" lon="13.31144493">
        <ele>955.00000</ele>
        <time>2024-05-10T17:58:43Z</time>
      </trkpt>
      <trkpt lat="42.91314792" lon="13.31147292">
        <ele>955.00000</ele>
        <time>2024-05-10T17:58:44Z</time>
      </trkpt>
      <trkpt lat="42.91317198" lon="13.31150393">
        <ele>956.00000</ele>
        <time>2024-05-10T17:58:44Z</time>
      </trkpt>
      <trkpt lat="42.91319394" lon="13.31153696">
        <ele>956.00000</ele>
        <time>2024-05-10T17:58:45Z</time>
      </trkpt>
      <trkpt lat="42.91321791" lon="13.31156898">
        <ele>956.00000</ele>
        <time>2024-05-10T17:58:46Z</time>
      </trkpt>
      <trkpt lat="42.91324096" lon="13.31159697">
        <ele>956.00000</ele>
        <time>2024-05-10T17:58:46Z</time>
      </trkpt>
      <trkpt lat="42.91326493" lon="13.31162698">
        <ele>956.00000</ele>
        <time>2024-05-10T17:58:47Z</time>
      </trkpt>
      <trkpt lat="42.91328798" lon="13.31165892">
        <ele>956.00000</ele>
        <time>2024-05-10T17:58:48Z</time>
      </trkpt>
      <trkpt lat="42.91330894" lon="13.31168792">
        <ele>956.00000</ele>
        <time>2024-05-10T17:58:48Z</time>
      </trkpt>
      <trkpt lat="42.91333593" lon="13.31171792">
        <ele>956.00000</ele>
        <time>2024-05-10T17:58:49Z</time>
      </trkpt>
      <trkpt lat="42.91336392" lon="13.31174693">
        <ele>956.00000</ele>
        <time>2024-05-10T17:58:50Z</time>
      </trkpt>
      <trkpt lat="42.91339192" lon="13.31177794">
        <ele>957.00000</ele>
        <time>2024-05-10T17:58:50Z</time>
      </trkpt>
      <trkpt lat="42.91341992" lon="13.31180996">
        <ele>957.00000</ele>
        <time>2024-05-10T17:58:51Z</time>
      </trkpt>
      <trkpt lat="42.91344397" lon="13.31184499">
        <ele>957.00000</ele>
        <time>2024-05-10T17:58:52Z</time>
      </trkpt>
      <trkpt lat="42.91346895" lon="13.31188296">
        <ele>957.00000</ele>
        <time>2024-05-10T17:58:53Z</time>
      </trkpt>
      <trkpt lat="42.91349192" lon="13.31192395">
        <ele>957.00000</ele>
        <time>2024-05-10T17:58:53Z</time>
      </trkpt>
      <trkpt lat="42.91351195" lon="13.31196796">
        <ele>958.00000</ele>
        <time>2024-05-10T17:58:54Z</time>
      </trkpt>
      <trkpt lat="42.91353198" lon="13.31201297">
        <ele>958.00000</ele>
        <time>2024-05-10T17:58:55Z</time>
      </trkpt>
      <trkpt lat="42.91354699" lon="13.31205295">
        <ele>958.00000</ele>
        <time>2024-05-10T17:58:55Z</time>
      </trkpt>
      <trkpt lat="42.91355998" lon="13.31209595">
        <ele>958.00000</ele>
        <time>2024-05-10T17:58:56Z</time>
      </trkpt>
      <trkpt lat="42.91357297" lon="13.31213995">
        <ele>958.00000</ele>
        <time>2024-05-10T17:58:57Z</time>
      </trkpt>
      <trkpt lat="42.91358697" lon="13.31218195">
        <ele>958.00000</ele>
        <time>2024-05-10T17:58:58Z</time>
      </trkpt>
      <trkpt lat="42.91360298" lon="13.31222193">
        <ele>958.00000</ele>
        <time>2024-05-10T17:58:58Z</time>
      </trkpt>
      <trkpt lat="42.91361899" lon="13.31225998">
        <ele>959.00000</ele>
        <time>2024-05-10T17:58:59Z</time>
      </trkpt>
      <trkpt lat="42.91363894" lon="13.31229996">
        <ele>959.00000</ele>
        <time>2024-05-10T17:59:00Z</time>
      </trkpt>
      <trkpt lat="42.91366098" lon="13.31233492">
        <ele>960.00000</ele>
        <time>2024-05-10T17:59:00Z</time>
      </trkpt>
      <trkpt lat="42.91368093" lon="13.31237398">
        <ele>960.00000</ele>
        <time>2024-05-10T17:59:01Z</time>
      </trkpt>
      <trkpt lat="42.91369794" lon="13.31241195">
        <ele>960.00000</ele>
        <time>2024-05-10T17:59:02Z</time>
      </trkpt>
      <trkpt lat="42.91371798" lon="13.31244799">
        <ele>961.00000</ele>
        <time>2024-05-10T17:59:02Z</time>
      </trkpt>
      <trkpt lat="42.91373399" lon="13.31247791">
        <ele>961.00000</ele>
        <time>2024-05-10T17:59:03Z</time>
      </trkpt>
      <trkpt lat="42.91374396" lon="13.31250993">
        <ele>961.00000</ele>
        <time>2024-05-10T17:59:03Z</time>
      </trkpt>
      <trkpt lat="42.91375192" lon="13.31253994">
        <ele>961.00000</ele>
        <time>2024-05-10T17:59:04Z</time>
      </trkpt>
      <trkpt lat="42.91376399" lon="13.31256399">
        <ele>961.00000</ele>
        <time>2024-05-10T17:59:04Z</time>
      </trkpt>
      <trkpt lat="42.91378294" lon="13.31258093">
        <ele>961.00000</ele>
        <time>2024-05-10T17:59:05Z</time>
      </trkpt>
      <trkpt lat="42.91380096" lon="13.31259098">
        <ele>961.00000</ele>
        <time>2024-05-10T17:59:05Z</time>
      </trkpt>
      <trkpt lat="42.91382292" lon="13.31258998">
        <ele>961.00000</ele>
        <time>2024-05-10T17:59:05Z</time>
      </trkpt>
      <trkpt lat="42.91384899" lon="13.31258897">
        <ele>962.00000</ele>
        <time>2024-05-10T17:59:06Z</time>
      </trkpt>
      <trkpt lat="42.91387396" lon="13.31257891">
        <ele>962.00000</ele>
        <time>2024-05-10T17:59:07Z</time>
      </trkpt>
      <trkpt lat="42.91390397" lon="13.31255293">
        <ele>963.00000</ele>
        <time>2024-05-10T17:59:07Z</time>
      </trkpt>
      <trkpt lat="42.91392895" lon="13.31253399">
        <ele>964.00000</ele>
        <time>2024-05-10T17:59:08Z</time>
      </trkpt>
      <trkpt lat="42.91394999" lon="13.31252493">
        <ele>965.00000</ele>
        <time>2024-05-10T17:59:08Z</time>
      </trkpt>
      <trkpt lat="42.91397094" lon="13.31251697">
        <ele>965.00000</ele>
        <time>2024-05-10T17:59:09Z</time>
      </trkpt>
      <trkpt lat="42.91399592" lon="13.31251295">
        <ele>966.00000</ele>
        <time>2024-05-10T17:59:09Z</time>
      </trkpt>
      <trkpt lat="42.91401294" lon="13.31251597">
        <ele>966.00000</ele>
        <time>2024-05-10T17:59:10Z</time>
      </trkpt>
      <trkpt lat="42.91403096" lon="13.31251798">
        <ele>967.00000</ele>
        <time>2024-05-10T17:59:10Z</time>
      </trkpt>
      <trkpt lat="42.91405392" lon="13.31252996">
        <ele>967.00000</ele>
        <time>2024-05-10T17:59:10Z</time>
      </trkpt>
      <trkpt lat="42.91407798" lon="13.31254094">
        <ele>967.00000</ele>
        <time>2024-05-10T17:59:11Z</time>
      </trkpt>
      <trkpt lat="42.91409893" lon="13.31255192">
        <ele>968.00000</ele>
        <time>2024-05-10T17:59:11Z</time>
      </trkpt>
      <trkpt lat="42.91411997" lon="13.31255896">
        <ele>968.00000</ele>
        <time>2024-05-10T17:59:12Z</time>
      </trkpt>
      <trkpt lat="42.91414294" lon="13.31256399">
        <ele>969.00000</ele>
        <time>2024-05-10T17:59:12Z</time>
      </trkpt>
      <trkpt lat="42.91416398" lon="13.31256592">
        <ele>969.00000</ele>
        <time>2024-05-10T17:59:13Z</time>
      </trkpt>
      <trkpt lat="42.91418393" lon="13.31256793">
        <ele>969.00000</ele>
        <time>2024-05-10T17:59:13Z</time>
      </trkpt>
      <trkpt lat="42.91420396" lon="13.31256994">
        <ele>970.00000</ele>
        <time>2024-05-10T17:59:13Z</time>
      </trkpt>
      <trkpt lat="42.91422693" lon="13.31257296">
        <ele>970.00000</ele>
        <time>2024-05-10T17:59:14Z</time>
      </trkpt>
      <trkpt lat="42.91425098" lon="13.31257799">
        <ele>970.00000</ele>
        <time>2024-05-10T17:59:14Z</time>
      </trkpt>
      <trkpt lat="42.91427395" lon="13.31257992">
        <ele>971.00000</ele>
        <time>2024-05-10T17:59:15Z</time>
      </trkpt>
      <trkpt lat="42.91429599" lon="13.31258495">
        <ele>971.00000</ele>
        <time>2024-05-10T17:59:15Z</time>
      </trkpt>
      <trkpt lat="42.91431695" lon="13.31258797">
        <ele>972.00000</ele>
        <time>2024-05-10T17:59:16Z</time>
      </trkpt>
      <trkpt lat="42.91433799" lon="13.31259199">
        <ele>972.00000</ele>
        <time>2024-05-10T17:59:16Z</time>
      </trkpt>
      <trkpt lat="42.91436095" lon="13.31259693">
        <ele>972.00000</ele>
        <time>2024-05-10T17:59:17Z</time>
      </trkpt>
      <trkpt lat="42.91437897" lon="13.31259995">
        <ele>972.00000</ele>
        <time>2024-05-10T17:59:17Z</time>
      </trkpt>
      <trkpt lat="42.91439699" lon="13.31259895">
        <ele>973.00000</ele>
        <time>2024-05-10T17:59:17Z</time>
      </trkpt>
      <trkpt lat="42.91441292" lon="13.31260096">
        <ele>973.00000</ele>
        <time>2024-05-10T17:59:18Z</time>
      </trkpt>
      <trkpt lat="42.91442792" lon="13.31260196">
        <ele>973.00000</ele>
        <time>2024-05-10T17:59:18Z</time>
      </trkpt>
      <trkpt lat="42.91444092" lon="13.31260498">
        <ele>974.00000</ele>
        <time>2024-05-10T17:59:18Z</time>
      </trkpt>
      <trkpt lat="42.91445491" lon="13.31260791">
        <ele>974.00000</ele>
        <time>2024-05-10T17:59:18Z</time>
      </trkpt>
      <trkpt lat="42.91447193" lon="13.31260699">
        <ele>974.00000</ele>
        <time>2024-05-10T17:59:19Z</time>
      </trkpt>
      <trkpt lat="42.91448995" lon="13.31259895">
        <ele>975.00000</ele>
        <time>2024-05-10T17:59:19Z</time>
      </trkpt>
      <trkpt lat="42.91450596" lon="13.31259492">
        <ele>975.00000</ele>
        <time>2024-05-10T17:59:20Z</time>
      </trkpt>
      <trkpt lat="42.91452398" lon="13.31259492">
        <ele>975.00000</ele>
        <time>2024-05-10T17:59:20Z</time>
      </trkpt>
      <trkpt lat="42.91453999" lon="13.31259392">
        <ele>976.00000</ele>
        <time>2024-05-10T17:59:20Z</time>
      </trkpt>
      <trkpt lat="42.91455692" lon="13.31259693">
        <ele>976.00000</ele>
        <time>2024-05-10T17:59:21Z</time>
      </trkpt>
      <trkpt lat="42.91457293" lon="13.31260196">
        <ele>976.00000</ele>
        <time>2024-05-10T17:59:21Z</time>
      </trkpt>
      <trkpt lat="42.91458592" lon="13.31260599">
        <ele>976.00000</ele>
        <time>2024-05-10T17:59:21Z</time>
      </trkpt>
      <trkpt lat="42.91460093" lon="13.31260892">
        <ele>976.00000</ele>
        <time>2024-05-10T17:59:21Z</time>
      </trkpt>
      <trkpt lat="42.91461694" lon="13.31261093">
        <ele>977.00000</ele>
        <time>2024-05-10T17:59:22Z</time>
      </trkpt>
      <trkpt lat="42.91463093" lon="13.31261496">
        <ele>977.00000</ele>
        <time>2024-05-10T17:59:22Z</time>
      </trkpt>
      <trkpt lat="42.91465097" lon="13.31262292">
        <ele>977.00000</ele>
        <time>2024-05-10T17:59:22Z</time>
      </trkpt>
      <trkpt lat="42.91466798" lon="13.31263499">
        <ele>977.00000</ele>
        <time>2024-05-10T17:59:23Z</time>
      </trkpt>
      <trkpt lat="42.91468399" lon="13.31264195">
        <ele>977.00000</ele>
        <time>2024-05-10T17:59:23Z</time>
      </trkpt>
      <trkpt lat="42.91470193" lon="13.31264597">
        <ele>977.00000</ele>
        <time>2024-05-10T17:59:24Z</time>
      </trkpt>
      <trkpt lat="42.91471894" lon="13.31265091">
        <ele>978.00000</ele>
        <time>2024-05-10T17:59:24Z</time>
      </trkpt>
      <trkpt lat="42.91473596" lon="13.31265795">
        <ele>978.00000</ele>
        <time>2024-05-10T17:59:24Z</time>
      </trkpt>
      <trkpt lat="42.91475197" lon="13.31266491">
        <ele>978.00000</ele>
        <time>2024-05-10T17:59:25Z</time>
      </trkpt>
      <trkpt lat="42.91476798" lon="13.31266994">
        <ele>978.00000</ele>
        <time>2024-05-10T17:59:25Z</time>
      </trkpt>
      <trkpt lat="42.91478399" lon="13.31267296">
        <ele>978.00000</ele>
        <time>2024-05-10T17:59:25Z</time>
      </trkpt>
      <trkpt lat="42.91479899" lon="13.31267497">
        <ele>978.00000</ele>
        <time>2024-05-10T17:59:26Z</time>
      </trkpt>
      <trkpt lat="42.91481592" lon="13.31267899">
        <ele>978.00000</ele>
        <time>2024-05-10T17:59:26Z</time>
      </trkpt>
      <trkpt lat="42.91483093" lon="13.31267698">
        <ele>979.00000</ele>
        <time>2024-05-10T17:59:26Z</time>
      </trkpt>
      <trkpt lat="42.91484693" lon="13.31267992">
        <ele>979.00000</ele>
        <time>2024-05-10T17:59:27Z</time>
      </trkpt>
      <trkpt lat="42.91486496" lon="13.31268394">
        <ele>979.00000</ele>
        <time>2024-05-10T17:59:27Z</time>
      </trkpt>
      <trkpt lat="42.91488298" lon="13.31268696">
        <ele>979.00000</ele>
        <time>2024-05-10T17:59:27Z</time>
      </trkpt>
      <trkpt lat="42.91490192" lon="13.31268897">
        <ele>980.00000</ele>
        <time>2024-05-10T17:59:28Z</time>
      </trkpt>
      <trkpt lat="42.91492195" lon="13.31268897">
        <ele>980.00000</ele>
        <time>2024-05-10T17:59:28Z</time>
      </trkpt>
      <trkpt lat="42.91494098" lon="13.31269098">
        <ele>980.00000</ele>
        <time>2024-05-10T17:59:28Z</time>
      </trkpt>
      <trkpt lat="42.91495992" lon="13.31269492">
        <ele>980.00000</ele>
        <time>2024-05-10T17:59:29Z</time>
      </trkpt>
      <trkpt lat="42.91497593" lon="13.31269794">
        <ele>981.00000</ele>
        <time>2024-05-10T17:59:29Z</time>
      </trkpt>
      <trkpt lat="42.91499395" lon="13.31269995">
        <ele>981.00000</ele>
        <time>2024-05-10T17:59:29Z</time>
      </trkpt>
      <trkpt lat="42.91501097" lon="13.31270297">
        <ele>981.00000</ele>
        <time>2024-05-10T17:59:30Z</time>
      </trkpt>
      <trkpt lat="42.91502698" lon="13.31270498">
        <ele>981.00000</ele>
        <time>2024-05-10T17:59:30Z</time>
      </trkpt>
      <trkpt lat="42.91504198" lon="13.31270699">
        <ele>981.00000</ele>
        <time>2024-05-10T17:59:30Z</time>
      </trkpt>
      <trkpt lat="42.91505799" lon="13.31270799">
        <ele>981.00000</ele>
        <time>2024-05-10T17:59:31Z</time>
      </trkpt>
      <trkpt lat="42.91507693" lon="13.31271193">
        <ele>982.00000</ele>
        <time>2024-05-10T17:59:31Z</time>
      </trkpt>
      <trkpt lat="42.91509496" lon="13.31271495">
        <ele>982.00000</ele>
        <time>2024-05-10T17:59:32Z</time>
      </trkpt>
      <trkpt lat="42.91511599" lon="13.31271898">
        <ele>982.00000</ele>
        <time>2024-05-10T17:59:32Z</time>
      </trkpt>
      <trkpt lat="42.91513393" lon="13.31272291">
        <ele>982.00000</ele>
        <time>2024-05-10T17:59:32Z</time>
      </trkpt>
      <trkpt lat="42.91515296" lon="13.31272794">
        <ele>982.00000</ele>
        <time>2024-05-10T17:59:33Z</time>
      </trkpt>
      <trkpt lat="42.91517199" lon="13.31273297">
        <ele>982.00000</ele>
        <time>2024-05-10T17:59:33Z</time>
      </trkpt>
      <trkpt lat="42.91518892" lon="13.31273792">
        <ele>982.00000</ele>
        <time>2024-05-10T17:59:33Z</time>
      </trkpt>
      <trkpt lat="42.91520895" lon="13.31274295">
        <ele>982.00000</ele>
        <time>2024-05-10T17:59:34Z</time>
      </trkpt>
      <trkpt lat="42.91522999" lon="13.31274798">
        <ele>983.00000</ele>
        <time>2024-05-10T17:59:34Z</time>
      </trkpt>
      <trkpt lat="42.91524994" lon="13.31275393">
        <ele>983.00000</ele>
        <time>2024-05-10T17:59:35Z</time>
      </trkpt>
      <trkpt lat="42.91526997" lon="13.31275996">
        <ele>983.00000</ele>
        <time>2024-05-10T17:59:35Z</time>
      </trkpt>
      <trkpt lat="42.91528992" lon="13.31276399">
        <ele>983.00000</ele>
        <time>2024-05-10T17:59:35Z</time>
      </trkpt>
      <trkpt lat="42.91530492" lon="13.31277195">
        <ele>983.00000</ele>
        <time>2024-05-10T17:59:36Z</time>
      </trkpt>
      <trkpt lat="42.91532194" lon="13.31278092">
        <ele>983.00000</ele>
        <time>2024-05-10T17:59:36Z</time>
      </trkpt>
      <trkpt lat="42.91533795" lon="13.31278293">
        <ele>983.00000</ele>
        <time>2024-05-10T17:59:36Z</time>
      </trkpt>
      <trkpt lat="42.91535798" lon="13.31278796">
        <ele>983.00000</ele>
        <time>2024-05-10T17:59:37Z</time>
      </trkpt>
      <trkpt lat="42.91537893" lon="13.31279399">
        <ele>984.00000</ele>
        <time>2024-05-10T17:59:37Z</time>
      </trkpt>
      <trkpt lat="42.91540098" lon="13.31280296">
        <ele>984.00000</ele>
        <time>2024-05-10T17:59:38Z</time>
      </trkpt>
      <trkpt lat="42.91542395" lon="13.31281193">
        <ele>984.00000</ele>
        <time>2024-05-10T17:59:38Z</time>
      </trkpt>
      <trkpt lat="42.91544993" lon="13.31282392">
        <ele>984.00000</ele>
        <time>2024-05-10T17:59:39Z</time>
      </trkpt>
      <trkpt lat="42.91547591" lon="13.31282895">
        <ele>984.00000</ele>
        <time>2024-05-10T17:59:39Z</time>
      </trkpt>
      <trkpt lat="42.91549896" lon="13.31283397">
        <ele>984.00000</ele>
        <time>2024-05-10T17:59:40Z</time>
      </trkpt>
      <trkpt lat="42.91552495" lon="13.31284395">
        <ele>985.00000</ele>
        <time>2024-05-10T17:59:40Z</time>
      </trkpt>
      <trkpt lat="42.91555294" lon="13.31285392">
        <ele>985.00000</ele>
        <time>2024-05-10T17:59:41Z</time>
      </trkpt>
      <trkpt lat="42.91558094" lon="13.31286197">
        <ele>985.00000</ele>
        <time>2024-05-10T17:59:41Z</time>
      </trkpt>
      <trkpt lat="42.91560793" lon="13.31286692">
        <ele>985.00000</ele>
        <time>2024-05-10T17:59:42Z</time>
      </trkpt>
      <trkpt lat="42.91563391" lon="13.31287697">
        <ele>985.00000</ele>
        <time>2024-05-10T17:59:43Z</time>
      </trkpt>
      <trkpt lat="42.91565998" lon="13.31288494">
        <ele>985.00000</ele>
        <time>2024-05-10T17:59:43Z</time>
      </trkpt>
      <trkpt lat="42.91568596" lon="13.31289298">
        <ele>985.00000</ele>
        <time>2024-05-10T17:59:44Z</time>
      </trkpt>
      <trkpt lat="42.91571496" lon="13.31289893">
        <ele>985.00000</ele>
        <time>2024-05-10T17:59:44Z</time>
      </trkpt>
      <trkpt lat="42.91574397" lon="13.31290296">
        <ele>985.00000</ele>
        <time>2024-05-10T17:59:45Z</time>
      </trkpt>
      <trkpt lat="42.91577297" lon="13.31290991">
        <ele>986.00000</ele>
        <time>2024-05-10T17:59:45Z</time>
      </trkpt>
      <trkpt lat="42.91580499" lon="13.31291696">
        <ele>986.00000</ele>
        <time>2024-05-10T17:59:46Z</time>
      </trkpt>
      <trkpt lat="42.91583692" lon="13.31291997">
        <ele>986.00000</ele>
        <time>2024-05-10T17:59:47Z</time>
      </trkpt>
      <trkpt lat="42.91587196" lon="13.31291997">
        <ele>986.00000</ele>
        <time>2024-05-10T17:59:47Z</time>
      </trkpt>
      <trkpt lat="42.91590792" lon="13.31291897">
        <ele>987.00000</ele>
        <time>2024-05-10T17:59:48Z</time>
      </trkpt>
      <trkpt lat="42.91594094" lon="13.31291796">
        <ele>987.00000</ele>
        <time>2024-05-10T17:59:49Z</time>
      </trkpt>
      <trkpt lat="42.91597497" lon="13.31291997">
        <ele>987.00000</ele>
        <time>2024-05-10T17:59:49Z</time>
      </trkpt>
      <trkpt lat="42.91601093" lon="13.31291997">
        <ele>988.00000</ele>
        <time>2024-05-10T17:59:50Z</time>
      </trkpt>
      <trkpt lat="42.91604597" lon="13.31291997">
        <ele>988.00000</ele>
        <time>2024-05-10T17:59:51Z</time>
      </trkpt>
      <trkpt lat="42.91607899" lon="13.31291796">
        <ele>988.00000</ele>
        <time>2024-05-10T17:59:52Z</time>
      </trkpt>
      <trkpt lat="42.91611093" lon="13.31291394">
        <ele>989.00000</ele>
        <time>2024-05-10T17:59:52Z</time>
      </trkpt>
      <trkpt lat="42.91613993" lon="13.31290991">
        <ele>989.00000</ele>
        <time>2024-05-10T17:59:53Z</time>
      </trkpt>
      <trkpt lat="42.91616893" lon="13.31290195">
        <ele>989.00000</ele>
        <time>2024-05-10T17:59:53Z</time>
      </trkpt>
      <trkpt lat="42.91619894" lon="13.31289097">
        <ele>989.00000</ele>
        <time>2024-05-10T17:59:54Z</time>
      </trkpt>
      <trkpt lat="42.91623095" lon="13.31288393">
        <ele>989.00000</ele>
        <time>2024-05-10T17:59:55Z</time>
      </trkpt>
      <trkpt lat="42.91626599" lon="13.31287597">
        <ele>989.00000</ele>
        <time>2024-05-10T17:59:55Z</time>
      </trkpt>
      <trkpt lat="42.91630195" lon="13.31286792">
        <ele>989.00000</ele>
        <time>2024-05-10T17:59:56Z</time>
      </trkpt>
      <trkpt lat="42.91633799" lon="13.31285594">
        <ele>989.00000</ele>
        <time>2024-05-10T17:59:57Z</time>
      </trkpt>
      <trkpt lat="42.91637496" lon="13.31284697">
        <ele>990.00000</ele>
        <time>2024-05-10T17:59:58Z</time>
      </trkpt>
      <trkpt lat="42.91641091" lon="13.31283993">
        <ele>989.00000</ele>
        <time>2024-05-10T17:59:58Z</time>
      </trkpt>
      <trkpt lat="42.91644696" lon="13.31283297">
        <ele>989.00000</ele>
        <time>2024-05-10T17:59:59Z</time>
      </trkpt>
      <trkpt lat="42.91647898" lon="13.31282593">
        <ele>989.00000</ele>
        <time>2024-05-10T18:00:00Z</time>
      </trkpt>
      <trkpt lat="42.91651493" lon="13.31281797">
        <ele>989.00000</ele>
        <time>2024-05-10T18:00:00Z</time>
      </trkpt>
      <trkpt lat="42.91654997" lon="13.31280799">
        <ele>988.00000</ele>
        <time>2024-05-10T18:00:01Z</time>
      </trkpt>
      <trkpt lat="42.91658299" lon="13.31279693">
        <ele>988.00000</ele>
        <time>2024-05-10T18:00:02Z</time>
      </trkpt>
      <trkpt lat="42.91661493" lon="13.31278695">
        <ele>988.00000</ele>
        <time>2024-05-10T18:00:02Z</time>
      </trkpt>
      <trkpt lat="42.91664795" lon="13.31277899">
        <ele>988.00000</ele>
        <time>2024-05-10T18:00:03Z</time>
      </trkpt>
      <trkpt lat="42.91668199" lon="13.31276893">
        <ele>987.00000</ele>
        <time>2024-05-10T18:00:04Z</time>
      </trkpt>
      <trkpt lat="42.91671694" lon="13.31275896">
        <ele>987.00000</ele>
        <time>2024-05-10T18:00:04Z</time>
      </trkpt>
      <trkpt lat="42.91674896" lon="13.31274898">
        <ele>987.00000</ele>
        <time>2024-05-10T18:00:05Z</time>
      </trkpt>
      <trkpt lat="42.91678299" lon="13.31273792">
        <ele>987.00000</ele>
        <time>2024-05-10T18:00:06Z</time>
      </trkpt>
      <trkpt lat="42.91681895" lon="13.31272593">
        <ele>987.00000</ele>
        <time>2024-05-10T18:00:07Z</time>
      </trkpt>
      <trkpt lat="42.91685499" lon="13.31271093">
        <ele>987.00000</ele>
        <time>2024-05-10T18:00:07Z</time>
      </trkpt>
      <trkpt lat="42.91689396" lon="13.31269199">
        <ele>987.00000</ele>
        <time>2024-05-10T18:00:08Z</time>
      </trkpt>
      <trkpt lat="42.91694099" lon="13.31266491">
        <ele>987.00000</ele>
        <time>2024-05-10T18:00:09Z</time>
      </trkpt>
      <trkpt lat="42.91699094" lon="13.31263499">
        <ele>987.00000</ele>
        <time>2024-05-10T18:00:10Z</time>
      </trkpt>
      <trkpt lat="42.91703595" lon="13.31259895">
        <ele>987.00000</ele>
        <time>2024-05-10T18:00:11Z</time>
      </trkpt>
      <trkpt lat="42.91707099" lon="13.31255997">
        <ele>987.00000</ele>
        <time>2024-05-10T18:00:12Z</time>
      </trkpt>
      <trkpt lat="42.91710091" lon="13.31252292">
        <ele>987.00000</ele>
        <time>2024-05-10T18:00:13Z</time>
      </trkpt>
      <trkpt lat="42.91712396" lon="13.31248797">
        <ele>987.00000</ele>
        <time>2024-05-10T18:00:14Z</time>
      </trkpt>
      <trkpt lat="42.91714198" lon="13.31245193">
        <ele>987.00000</ele>
        <time>2024-05-10T18:00:14Z</time>
      </trkpt>
      <trkpt lat="42.91716294" lon="13.31241698">
        <ele>987.00000</ele>
        <time>2024-05-10T18:00:15Z</time>
      </trkpt>
      <trkpt lat="42.91718398" lon="13.31238496">
        <ele>988.00000</ele>
        <time>2024-05-10T18:00:16Z</time>
      </trkpt>
      <trkpt lat="42.91720996" lon="13.31235394">
        <ele>988.00000</ele>
        <time>2024-05-10T18:00:16Z</time>
      </trkpt>
      <trkpt lat="42.91723595" lon="13.31232293">
        <ele>988.00000</ele>
        <time>2024-05-10T18:00:17Z</time>
      </trkpt>
      <trkpt lat="42.91725992" lon="13.31228898">
        <ele>987.00000</ele>
        <time>2024-05-10T18:00:18Z</time>
      </trkpt>
      <trkpt lat="42.91728196" lon="13.31225898">
        <ele>987.00000</ele>
        <time>2024-05-10T18:00:18Z</time>
      </trkpt>
      <trkpt lat="42.91729998" lon="13.31222595">
        <ele>987.00000</ele>
        <time>2024-05-10T18:00:19Z</time>
      </trkpt>
      <trkpt lat="42.91732094" lon="13.31220097">
        <ele>987.00000</ele>
        <time>2024-05-10T18:00:20Z</time>
      </trkpt>
      <trkpt lat="42.91734399" lon="13.31217792">
        <ele>986.00000</ele>
        <time>2024-05-10T18:00:20Z</time>
      </trkpt>
      <trkpt lat="42.91736595" lon="13.31215295">
        <ele>986.00000</ele>
        <time>2024-05-10T18:00:21Z</time>
      </trkpt>
      <trkpt lat="42.91738598" lon="13.31212696">
        <ele>985.00000</ele>
        <time>2024-05-10T18:00:21Z</time>
      </trkpt>
      <trkpt lat="42.91740392" lon="13.31210198">
        <ele>985.00000</ele>
        <time>2024-05-10T18:00:22Z</time>
      </trkpt>
      <trkpt lat="42.91742194" lon="13.31207592">
        <ele>985.00000</ele>
        <time>2024-05-10T18:00:22Z</time>
      </trkpt>
      <trkpt lat="42.91743795" lon="13.31204398">
        <ele>984.00000</ele>
        <time>2024-05-10T18:00:23Z</time>
      </trkpt>
      <trkpt lat="42.91745195" lon="13.31201297">
        <ele>984.00000</ele>
        <time>2024-05-10T18:00:23Z</time>
      </trkpt>
      <trkpt lat="42.91746494" lon="13.31197793">
        <ele>984.00000</ele>
        <time>2024-05-10T18:00:24Z</time>
      </trkpt>
      <trkpt lat="42.91747793" lon="13.31193694">
        <ele>984.00000</ele>
        <time>2024-05-10T18:00:25Z</time>
      </trkpt>
      <trkpt lat="42.91748992" lon="13.31188892">
        <ele>984.00000</ele>
        <time>2024-05-10T18:00:25Z</time>
      </trkpt>
      <trkpt lat="42.91750593" lon="13.31183594">
        <ele>983.00000</ele>
        <time>2024-05-10T18:00:26Z</time>
      </trkpt>
      <trkpt lat="42.91752294" lon="13.31178096">
        <ele>983.00000</ele>
        <time>2024-05-10T18:00:27Z</time>
      </trkpt>
      <trkpt lat="42.91754096" lon="13.31172497">
        <ele>983.00000</ele>
        <time>2024-05-10T18:00:28Z</time>
      </trkpt>
      <trkpt lat="42.91755999" lon="13.31167291">
        <ele>982.00000</ele>
        <time>2024-05-10T18:00:29Z</time>
      </trkpt>
      <trkpt lat="42.91757692" lon="13.31162497">
        <ele>983.00000</ele>
        <time>2024-05-10T18:00:30Z</time>
      </trkpt>
      <trkpt lat="42.91759494" lon="13.31158298">
        <ele>983.00000</ele>
        <time>2024-05-10T18:00:30Z</time>
      </trkpt>
      <trkpt lat="42.91761196" lon="13.31154492">
        <ele>983.00000</ele>
        <time>2024-05-10T18:00:31Z</time>
      </trkpt>
      <trkpt lat="42.91762897" lon="13.31151098">
        <ele>983.00000</ele>
        <time>2024-05-10T18:00:32Z</time>
      </trkpt>
      <trkpt lat="42.91764196" lon="13.31147493">
        <ele>983.00000</ele>
        <time>2024-05-10T18:00:32Z</time>
      </trkpt>
      <trkpt lat="42.91765194" lon="13.31144392">
        <ele>983.00000</ele>
        <time>2024-05-10T18:00:33Z</time>
      </trkpt>
      <trkpt lat="42.91766191" lon="13.31141098">
        <ele>983.00000</ele>
        <time>2024-05-10T18:00:33Z</time>
      </trkpt>
      <trkpt lat="42.91767298" lon="13.31136899">
        <ele>984.00000</ele>
        <time>2024-05-10T18:00:34Z</time>
      </trkpt>
      <trkpt lat="42.91767893" lon="13.31132791">
        <ele>984.00000</ele>
        <time>2024-05-10T18:00:34Z</time>
      </trkpt>
      <trkpt lat="42.91768396" lon="13.31128198">
        <ele>984.00000</ele>
        <time>2024-05-10T18:00:35Z</time>
      </trkpt>
      <trkpt lat="42.91768396" lon="13.31124493">
        <ele>985.00000</ele>
        <time>2024-05-10T18:00:36Z</time>
      </trkpt>
      <trkpt lat="42.91768195" lon="13.31121493">
        <ele>985.00000</ele>
        <time>2024-05-10T18:00:36Z</time>
      </trkpt>
      <trkpt lat="42.91768396" lon="13.31117897">
        <ele>985.00000</ele>
        <time>2024-05-10T18:00:37Z</time>
      </trkpt>
      <trkpt lat="42.91768496" lon="13.31114393">
        <ele>985.00000</ele>
        <time>2024-05-10T18:00:37Z</time>
      </trkpt>
      <trkpt lat="42.91768496" lon="13.31110194">
        <ele>986.00000</ele>
        <time>2024-05-10T18:00:38Z</time>
      </trkpt>
      <trkpt lat="42.91768698" lon="13.31105693">
        <ele>986.00000</ele>
        <time>2024-05-10T18:00:38Z</time>
      </trkpt>
      <trkpt lat="42.91769192" lon="13.31100697">
        <ele>987.00000</ele>
        <time>2024-05-10T18:00:39Z</time>
      </trkpt>
      <trkpt lat="42.91769997" lon="13.31095593">
        <ele>987.00000</ele>
        <time>2024-05-10T18:00:40Z</time>
      </trkpt>
      <trkpt lat="42.91770894" lon="13.31090195">
        <ele>987.00000</ele>
        <time>2024-05-10T18:00:41Z</time>
      </trkpt>
      <trkpt lat="42.91772293" lon="13.31085098">
        <ele>987.00000</ele>
        <time>2024-05-10T18:00:42Z</time>
      </trkpt>
      <trkpt lat="42.91773492" lon="13.31080195">
        <ele>986.00000</ele>
        <time>2024-05-10T18:00:42Z</time>
      </trkpt>
      <trkpt lat="42.91774598" lon="13.31075493">
        <ele>986.00000</ele>
        <time>2024-05-10T18:00:43Z</time>
      </trkpt>
      <trkpt lat="42.91775898" lon="13.31070799">
        <ele>986.00000</ele>
        <time>2024-05-10T18:00:44Z</time>
      </trkpt>
      <trkpt lat="42.91777096" lon="13.31065795">
        <ele>985.00000</ele>
        <time>2024-05-10T18:00:45Z</time>
      </trkpt>
      <trkpt lat="42.91778295" lon="13.31060196">
        <ele>985.00000</ele>
        <time>2024-05-10T18:00:45Z</time>
      </trkpt>
      <trkpt lat="42.91778798" lon="13.31054798">
        <ele>985.00000</ele>
        <time>2024-05-10T18:00:46Z</time>
      </trkpt>
      <trkpt lat="42.91778496" lon="13.31049199">
        <ele>986.00000</ele>
        <time>2024-05-10T18:00:47Z</time>
      </trkpt>
      <trkpt lat="42.91779192" lon="13.31044396">
        <ele>986.00000</ele>
        <time>2024-05-10T18:00:48Z</time>
      </trkpt>
      <trkpt lat="42.91779996" lon="13.31038093">
        <ele>986.00000</ele>
        <time>2024-05-10T18:00:49Z</time>
      </trkpt>
      <trkpt lat="42.91781798" lon="13.31032393">
        <ele>986.00000</ele>
        <time>2024-05-10T18:00:50Z</time>
      </trkpt>
      <trkpt lat="42.91783098" lon="13.31025193">
        <ele>987.00000</ele>
        <time>2024-05-10T18:00:51Z</time>
      </trkpt>
      <trkpt lat="42.91783994" lon="13.31018798">
        <ele>987.00000</ele>
        <time>2024-05-10T18:00:52Z</time>
      </trkpt>
      <trkpt lat="42.91785093" lon="13.31012696">
        <ele>988.00000</ele>
        <time>2024-05-10T18:00:53Z</time>
      </trkpt>
      <trkpt lat="42.91786995" lon="13.31007398">
        <ele>988.00000</ele>
        <time>2024-05-10T18:00:53Z</time>
      </trkpt>
      <trkpt lat="42.91788596" lon="13.31001296">
        <ele>989.00000</ele>
        <time>2024-05-10T18:00:54Z</time>
      </trkpt>
      <trkpt lat="42.91790398" lon="13.30995496">
        <ele>989.00000</ele>
        <time>2024-05-10T18:00:55Z</time>
      </trkpt>
      <trkpt lat="42.91792091" lon="13.30990098">
        <ele>989.00000</ele>
        <time>2024-05-10T18:00:56Z</time>
      </trkpt>
      <trkpt lat="42.91793592" lon="13.30984398">
        <ele>989.00000</ele>
        <time>2024-05-10T18:00:57Z</time>
      </trkpt>
      <trkpt lat="42.91795193" lon="13.30978699">
        <ele>989.00000</ele>
        <time>2024-05-10T18:00:58Z</time>
      </trkpt>
      <trkpt lat="42.91796492" lon="13.30972898">
        <ele>989.00000</ele>
        <time>2024-05-10T18:00:59Z</time>
      </trkpt>
      <trkpt lat="42.91797799" lon="13.30966696">
        <ele>989.00000</ele>
        <time>2024-05-10T18:01:00Z</time>
      </trkpt>
      <trkpt lat="42.91798898" lon="13.30960795">
        <ele>989.00000</ele>
        <time>2024-05-10T18:01:01Z</time>
      </trkpt>
      <trkpt lat="42.91799694" lon="13.30955598">
        <ele>989.00000</ele>
        <time>2024-05-10T18:01:01Z</time>
      </trkpt>
      <trkpt lat="42.91800599" lon="13.30949898">
        <ele>989.00000</ele>
        <time>2024-05-10T18:01:02Z</time>
      </trkpt>
      <trkpt lat="42.91800993" lon="13.30943495">
        <ele>990.00000</ele>
        <time>2024-05-10T18:01:03Z</time>
      </trkpt>
      <trkpt lat="42.91801094" lon="13.30937594">
        <ele>990.00000</ele>
        <time>2024-05-10T18:01:04Z</time>
      </trkpt>
      <trkpt lat="42.91800993" lon="13.30931399">
        <ele>990.00000</ele>
        <time>2024-05-10T18:01:05Z</time>
      </trkpt>
      <trkpt lat="42.91801094" lon="13.30924996">
        <ele>991.00000</ele>
        <time>2024-05-10T18:01:06Z</time>
      </trkpt>
      <trkpt lat="42.91801295" lon="13.30919095">
        <ele>991.00000</ele>
        <time>2024-05-10T18:01:07Z</time>
      </trkpt>
      <trkpt lat="42.91802192" lon="13.30913898">
        <ele>991.00000</ele>
        <time>2024-05-10T18:01:08Z</time>
      </trkpt>
      <trkpt lat="42.91803893" lon="13.30908492">
        <ele>992.00000</ele>
        <time>2024-05-10T18:01:08Z</time>
      </trkpt>
      <trkpt lat="42.91806299" lon="13.30902792">
        <ele>992.00000</ele>
        <time>2024-05-10T18:01:09Z</time>
      </trkpt>
      <trkpt lat="42.91808696" lon="13.30897293">
        <ele>993.00000</ele>
        <time>2024-05-10T18:01:10Z</time>
      </trkpt>
      <trkpt lat="42.91810892" lon="13.30892097">
        <ele>994.00000</ele>
        <time>2024-05-10T18:01:11Z</time>
      </trkpt>
      <trkpt lat="42.91813096" lon="13.30886296">
        <ele>994.00000</ele>
        <time>2024-05-10T18:01:12Z</time>
      </trkpt>
      <trkpt lat="42.91815393" lon="13.30880295">
        <ele>995.00000</ele>
        <time>2024-05-10T18:01:13Z</time>
      </trkpt>
      <trkpt lat="42.91817799" lon="13.30874595">
        <ele>995.00000</ele>
        <time>2024-05-10T18:01:14Z</time>
      </trkpt>
      <trkpt lat="42.91820095" lon="13.30868996">
        <ele>995.00000</ele>
        <time>2024-05-10T18:01:15Z</time>
      </trkpt>
      <trkpt lat="42.91822392" lon="13.30863397">
        <ele>995.00000</ele>
        <time>2024-05-10T18:01:16Z</time>
      </trkpt>
      <trkpt lat="42.91824697" lon="13.30858494">
        <ele>994.00000</ele>
        <time>2024-05-10T18:01:17Z</time>
      </trkpt>
      <trkpt lat="42.91826893" lon="13.30853196">
        <ele>994.00000</ele>
        <time>2024-05-10T18:01:18Z</time>
      </trkpt>
      <trkpt lat="42.91828997" lon="13.30848092">
        <ele>994.00000</ele>
        <time>2024-05-10T18:01:19Z</time>
      </trkpt>
      <trkpt lat="42.91831294" lon="13.30842895">
        <ele>994.00000</ele>
        <time>2024-05-10T18:01:20Z</time>
      </trkpt>
      <trkpt lat="42.91833791" lon="13.30838494">
        <ele>993.00000</ele>
        <time>2024-05-10T18:01:20Z</time>
      </trkpt>
      <trkpt lat="42.91835996" lon="13.30833197">
        <ele>993.00000</ele>
        <time>2024-05-10T18:01:21Z</time>
      </trkpt>
      <trkpt lat="42.91837899" lon="13.30827799">
        <ele>993.00000</ele>
        <time>2024-05-10T18:01:22Z</time>
      </trkpt>
      <trkpt lat="42.91839097" lon="13.30822493">
        <ele>992.00000</ele>
        <time>2024-05-10T18:01:23Z</time>
      </trkpt>
      <trkpt lat="42.91839793" lon="13.30816593">
        <ele>992.00000</ele>
        <time>2024-05-10T18:01:24Z</time>
      </trkpt>
      <trkpt lat="42.91840597" lon="13.30810792">
        <ele>992.00000</ele>
        <time>2024-05-10T18:01:25Z</time>
      </trkpt>
      <trkpt lat="42.91841997" lon="13.30805093">
        <ele>992.00000</ele>
        <time>2024-05-10T18:01:26Z</time>
      </trkpt>
      <trkpt lat="42.91843196" lon="13.30799192">
        <ele>993.00000</ele>
        <time>2024-05-10T18:01:27Z</time>
      </trkpt>
      <trkpt lat="42.91844495" lon="13.30793299">
        <ele>993.00000</ele>
        <time>2024-05-10T18:01:27Z</time>
      </trkpt>
      <trkpt lat="42.91844696" lon="13.30787893">
        <ele>994.00000</ele>
        <time>2024-05-10T18:01:28Z</time>
      </trkpt>
      <trkpt lat="42.91844696" lon="13.30783098">
        <ele>994.00000</ele>
        <time>2024-05-10T18:01:29Z</time>
      </trkpt>
      <trkpt lat="42.91844998" lon="13.30778396">
        <ele>995.00000</ele>
        <time>2024-05-10T18:01:30Z</time>
      </trkpt>
      <trkpt lat="42.91844696" lon="13.30772797">
        <ele>996.00000</ele>
        <time>2024-05-10T18:01:30Z</time>
      </trkpt>
      <trkpt lat="42.91844596" lon="13.30767399">
        <ele>996.00000</ele>
        <time>2024-05-10T18:01:31Z</time>
      </trkpt>
      <trkpt lat="42.91844596" lon="13.30761993">
        <ele>997.00000</ele>
        <time>2024-05-10T18:01:32Z</time>
      </trkpt>
      <trkpt lat="42.91844998" lon="13.30757391">
        <ele>997.00000</ele>
        <time>2024-05-10T18:01:33Z</time>
      </trkpt>
      <trkpt lat="42.91845392" lon="13.30752697">
        <ele>998.00000</ele>
        <time>2024-05-10T18:01:33Z</time>
      </trkpt>
      <trkpt lat="42.91846297" lon="13.30748196">
        <ele>998.00000</ele>
        <time>2024-05-10T18:01:34Z</time>
      </trkpt>
      <trkpt lat="42.91847798" lon="13.30744198">
        <ele>999.00000</ele>
        <time>2024-05-10T18:01:35Z</time>
      </trkpt>
      <trkpt lat="42.91849792" lon="13.30740594">
        <ele>999.00000</ele>
        <time>2024-05-10T18:01:35Z</time>
      </trkpt>
      <trkpt lat="42.91851695" lon="13.30736998">
        <ele>999.00000</ele>
        <time>2024-05-10T18:01:36Z</time>
      </trkpt>
      <trkpt lat="42.91853891" lon="13.30733897">
        <ele>1000.0000</ele>
        <time>2024-05-10T18:01:37Z</time>
      </trkpt>
      <trkpt lat="42.91856196" lon="13.30731793">
        <ele>1000.0000</ele>
        <time>2024-05-10T18:01:37Z</time>
      </trkpt>
      <trkpt lat="42.91858795" lon="13.30729295">
        <ele>1000.0000</ele>
        <time>2024-05-10T18:01:38Z</time>
      </trkpt>
      <trkpt lat="42.91861494" lon="13.30727795">
        <ele>1000.0000</ele>
        <time>2024-05-10T18:01:38Z</time>
      </trkpt>
      <trkpt lat="42.91864092" lon="13.30727392">
        <ele>1000.0000</ele>
        <time>2024-05-10T18:01:39Z</time>
      </trkpt>
      <trkpt lat="42.91866799" lon="13.30727493">
        <ele>1000.0000</ele>
        <time>2024-05-10T18:01:40Z</time>
      </trkpt>
      <trkpt lat="42.91868995" lon="13.30727392">
        <ele>1000.0000</ele>
        <time>2024-05-10T18:01:40Z</time>
      </trkpt>
      <trkpt lat="42.91871795" lon="13.30727694">
        <ele>1000.0000</ele>
        <time>2024-05-10T18:01:41Z</time>
      </trkpt>
      <trkpt lat="42.91874393" lon="13.30728197">
        <ele>1000.0000</ele>
        <time>2024-05-10T18:01:41Z</time>
      </trkpt>
      <trkpt lat="42.91876598" lon="13.30728893">
        <ele>1000.0000</ele>
        <time>2024-05-10T18:01:41Z</time>
      </trkpt>
      <trkpt lat="42.91878794" lon="13.30729597">
        <ele>1000.0000</ele>
        <time>2024-05-10T18:01:42Z</time>
      </trkpt>
      <trkpt lat="42.91880898" lon="13.30730091">
        <ele>1000.0000</ele>
        <time>2024-05-10T18:01:42Z</time>
      </trkpt>
      <trkpt lat="42.91883194" lon="13.30730795">
        <ele>1000.0000</ele>
        <time>2024-05-10T18:01:43Z</time>
      </trkpt>
      <trkpt lat="42.91885793" lon="13.30731298">
        <ele>1000.0000</ele>
        <time>2024-05-10T18:01:43Z</time>
      </trkpt>
      <trkpt lat="42.91888198" lon="13.30730997">
        <ele>1000.0000</ele>
        <time>2024-05-10T18:01:44Z</time>
      </trkpt>
      <trkpt lat="42.91890696" lon="13.30730594">
        <ele>1000.0000</ele>
        <time>2024-05-10T18:01:44Z</time>
      </trkpt>
      <trkpt lat="42.91893093" lon="13.30730393">
        <ele>1001.0000</ele>
        <time>2024-05-10T18:01:45Z</time>
      </trkpt>
      <trkpt lat="42.91895097" lon="13.30729597">
        <ele>1001.0000</ele>
        <time>2024-05-10T18:01:45Z</time>
      </trkpt>
      <trkpt lat="42.91897293" lon="13.30729194">
        <ele>1002.0000</ele>
        <time>2024-05-10T18:01:46Z</time>
      </trkpt>
      <trkpt lat="42.91899397" lon="13.30728499">
        <ele>1002.0000</ele>
        <time>2024-05-10T18:01:46Z</time>
      </trkpt>
      <trkpt lat="42.91901391" lon="13.30727895">
        <ele>1003.0000</ele>
        <time>2024-05-10T18:01:47Z</time>
      </trkpt>
      <trkpt lat="42.91903194" lon="13.30727191">
        <ele>1003.0000</ele>
        <time>2024-05-10T18:01:47Z</time>
      </trkpt>
      <trkpt lat="42.91905197" lon="13.30726596">
        <ele>1004.0000</ele>
        <time>2024-05-10T18:01:47Z</time>
      </trkpt>
      <trkpt lat="42.91907091" lon="13.30725892">
        <ele>1005.0000</ele>
        <time>2024-05-10T18:01:48Z</time>
      </trkpt>
      <trkpt lat="42.91908994" lon="13.30725498">
        <ele>1005.0000</ele>
        <time>2024-05-10T18:01:48Z</time>
      </trkpt>
      <trkpt lat="42.91910997" lon="13.30724895">
        <ele>1006.0000</ele>
        <time>2024-05-10T18:01:48Z</time>
      </trkpt>
      <trkpt lat="42.91912598" lon="13.30723796">
        <ele>1006.0000</ele>
        <time>2024-05-10T18:01:49Z</time>
      </trkpt>
      <trkpt lat="42.91914392" lon="13.30722598">
        <ele>1007.0000</ele>
        <time>2024-05-10T18:01:49Z</time>
      </trkpt>
      <trkpt lat="42.91916194" lon="13.30721097">
        <ele>1008.0000</ele>
        <time>2024-05-10T18:01:50Z</time>
      </trkpt>
      <trkpt lat="42.91917996" lon="13.30720293">
        <ele>1008.0000</ele>
        <time>2024-05-10T18:01:50Z</time>
      </trkpt>
      <trkpt lat="42.91919798" lon="13.30719195">
        <ele>1008.0000</ele>
        <time>2024-05-10T18:01:50Z</time>
      </trkpt>
      <trkpt lat="42.91921491" lon="13.30718499">
        <ele>1009.0000</ele>
        <time>2024-05-10T18:01:51Z</time>
      </trkpt>
      <trkpt lat="42.91923293" lon="13.30717292">
        <ele>1009.0000</ele>
        <time>2024-05-10T18:01:51Z</time>
      </trkpt>
      <trkpt lat="42.91925297" lon="13.30716295">
        <ele>1010.0000</ele>
        <time>2024-05-10T18:01:52Z</time>
      </trkpt>
      <trkpt lat="42.91926998" lon="13.30715498">
        <ele>1010.0000</ele>
        <time>2024-05-10T18:01:52Z</time>
      </trkpt>
      <trkpt lat="42.91928691" lon="13.30714593">
        <ele>1010.0000</ele>
        <time>2024-05-10T18:01:52Z</time>
      </trkpt>
      <trkpt lat="42.91930292" lon="13.30713495">
        <ele>1011.0000</ele>
        <time>2024-05-10T18:01:53Z</time>
      </trkpt>
      <trkpt lat="42.91931994" lon="13.30713294">
        <ele>1011.0000</ele>
        <time>2024-05-10T18:01:53Z</time>
      </trkpt>
      <trkpt lat="42.91933595" lon="13.30712598">
        <ele>1011.0000</ele>
        <time>2024-05-10T18:01:53Z</time>
      </trkpt>
      <trkpt lat="42.91934592" lon="13.30711894">
        <ele>1011.0000</ele>
        <time>2024-05-10T18:01:54Z</time>
      </trkpt>
      <trkpt lat="42.91936093" lon="13.30711299">
        <ele>1011.0000</ele>
        <time>2024-05-10T18:01:54Z</time>
      </trkpt>
      <trkpt lat="42.91937895" lon="13.30710897">
        <ele>1012.0000</ele>
        <time>2024-05-10T18:01:54Z</time>
      </trkpt>
      <trkpt lat="42.91939596" lon="13.30710796">
        <ele>1012.0000</ele>
        <time>2024-05-10T18:01:55Z</time>
      </trkpt>
      <trkpt lat="42.91941197" lon="13.30710997">
        <ele>1012.0000</ele>
        <time>2024-05-10T18:01:55Z</time>
      </trkpt>
      <trkpt lat="42.91942798" lon="13.30710897">
        <ele>1012.0000</ele>
        <time>2024-05-10T18:01:55Z</time>
      </trkpt>
      <trkpt lat="42.91944097" lon="13.30710494">
        <ele>1012.0000</ele>
        <time>2024-05-10T18:01:56Z</time>
      </trkpt>
      <trkpt lat="42.91945497" lon="13.30710092">
        <ele>1012.0000</ele>
        <time>2024-05-10T18:01:56Z</time>
      </trkpt>
      <trkpt lat="42.91946997" lon="13.30710394">
        <ele>1012.0000</ele>
        <time>2024-05-10T18:01:56Z</time>
      </trkpt>
      <trkpt lat="42.91948196" lon="13.30711391">
        <ele>1012.0000</ele>
        <time>2024-05-10T18:01:56Z</time>
      </trkpt>
      <trkpt lat="42.91949696" lon="13.30712196">
        <ele>1011.0000</ele>
        <time>2024-05-10T18:01:57Z</time>
      </trkpt>
      <trkpt lat="42.91950593" lon="13.30712397">
        <ele>1011.0000</ele>
        <time>2024-05-10T18:01:57Z</time>
      </trkpt>
      <trkpt lat="42.91951792" lon="13.30712196">
        <ele>1011.0000</ele>
        <time>2024-05-10T18:01:57Z</time>
      </trkpt>
      <trkpt lat="42.91952798" lon="13.30711693">
        <ele>1011.0000</ele>
        <time>2024-05-10T18:01:57Z</time>
      </trkpt>
      <trkpt lat="42.91954197" lon="13.30711592">
        <ele>1011.0000</ele>
        <time>2024-05-10T18:01:58Z</time>
      </trkpt>
      <trkpt lat="42.91955698" lon="13.30711492">
        <ele>1011.0000</ele>
        <time>2024-05-10T18:01:58Z</time>
      </trkpt>
      <trkpt lat="42.91957098" lon="13.30711098">
        <ele>1011.0000</ele>
        <time>2024-05-10T18:01:58Z</time>
      </trkpt>
      <trkpt lat="42.91958497" lon="13.30710595">
        <ele>1011.0000</ele>
        <time>2024-05-10T18:01:59Z</time>
      </trkpt>
      <trkpt lat="42.91959797" lon="13.30710293">
        <ele>1011.0000</ele>
        <time>2024-05-10T18:01:59Z</time>
      </trkpt>
      <trkpt lat="42.91960895" lon="13.30710193">
        <ele>1011.0000</ele>
        <time>2024-05-10T18:01:59Z</time>
      </trkpt>
      <trkpt lat="42.91961993" lon="13.30709698">
        <ele>1011.0000</ele>
        <time>2024-05-10T18:01:59Z</time>
      </trkpt>
      <trkpt lat="42.91963099" lon="13.30708399">
        <ele>1011.0000</ele>
        <time>2024-05-10T18:02:00Z</time>
      </trkpt>
      <trkpt lat="42.91964197" lon="13.30707393">
        <ele>1012.0000</ele>
        <time>2024-05-10T18:02:00Z</time>
      </trkpt>
      <trkpt lat="42.91965396" lon="13.30706798">
        <ele>1012.0000</ele>
        <time>2024-05-10T18:02:00Z</time>
      </trkpt>
      <trkpt lat="42.91966594" lon="13.30705893">
        <ele>1012.0000</ele>
        <time>2024-05-10T18:02:00Z</time>
      </trkpt>
      <trkpt lat="42.91967793" lon="13.30705096">
        <ele>1012.0000</ele>
        <time>2024-05-10T18:02:01Z</time>
      </trkpt>
      <trkpt lat="42.91968991" lon="13.30704392">
        <ele>1012.0000</ele>
        <time>2024-05-10T18:02:01Z</time>
      </trkpt>
      <trkpt lat="42.91970492" lon="13.30703797">
        <ele>1012.0000</ele>
        <time>2024-05-10T18:02:01Z</time>
      </trkpt>
      <trkpt lat="42.91971699" lon="13.30703093">
        <ele>1012.0000</ele>
        <time>2024-05-10T18:02:01Z</time>
      </trkpt>
      <trkpt lat="42.91972897" lon="13.30702297">
        <ele>1012.0000</ele>
        <time>2024-05-10T18:02:02Z</time>
      </trkpt>
      <trkpt lat="42.91973995" lon="13.30701299">
        <ele>1012.0000</ele>
        <time>2024-05-10T18:02:02Z</time>
      </trkpt>
      <trkpt lat="42.91975194" lon="13.30700797">
        <ele>1012.0000</ele>
        <time>2024-05-10T18:02:02Z</time>
      </trkpt>
      <trkpt lat="42.91976493" lon="13.30699698">
        <ele>1012.0000</ele>
        <time>2024-05-10T18:02:02Z</time>
      </trkpt>
      <trkpt lat="42.91977893" lon="13.30698894">
        <ele>1012.0000</ele>
        <time>2024-05-10T18:02:03Z</time>
      </trkpt>
      <trkpt lat="42.91979192" lon="13.30697997">
        <ele>1012.0000</ele>
        <time>2024-05-10T18:02:03Z</time>
      </trkpt>
      <trkpt lat="42.91980399" lon="13.30697494">
        <ele>1012.0000</ele>
        <time>2024-05-10T18:02:03Z</time>
      </trkpt>
      <trkpt lat="42.91981698" lon="13.30696899">
        <ele>1012.0000</ele>
        <time>2024-05-10T18:02:04Z</time>
      </trkpt>
      <trkpt lat="42.91982796" lon="13.30695591">
        <ele>1012.0000</ele>
        <time>2024-05-10T18:02:04Z</time>
      </trkpt>
      <trkpt lat="42.91983693" lon="13.30694393">
        <ele>1013.0000</ele>
        <time>2024-05-10T18:02:04Z</time>
      </trkpt>
      <trkpt lat="42.91984498" lon="13.30693596">
        <ele>1013.0000</ele>
        <time>2024-05-10T18:02:04Z</time>
      </trkpt>
      <trkpt lat="42.91985596" lon="13.30693194">
        <ele>1013.0000</ele>
        <time>2024-05-10T18:02:05Z</time>
      </trkpt>
      <trkpt lat="42.91986593" lon="13.30692197">
        <ele>1013.0000</ele>
        <time>2024-05-10T18:02:05Z</time>
      </trkpt>
      <trkpt lat="42.91987499" lon="13.30691794">
        <ele>1013.0000</ele>
        <time>2024-05-10T18:02:05Z</time>
      </trkpt>
      <trkpt lat="42.91988496" lon="13.30691099">
        <ele>1013.0000</ele>
        <time>2024-05-10T18:02:05Z</time>
      </trkpt>
      <trkpt lat="42.91989393" lon="13.30690596">
        <ele>1014.0000</ele>
        <time>2024-05-10T18:02:05Z</time>
      </trkpt>
      <trkpt lat="42.91990692" lon="13.30689992">
        <ele>1014.0000</ele>
        <time>2024-05-10T18:02:06Z</time>
      </trkpt>
      <trkpt lat="42.91991991" lon="13.30688794">
        <ele>1014.0000</ele>
        <time>2024-05-10T18:02:06Z</time>
      </trkpt>
      <trkpt lat="42.91993492" lon="13.30687796">
        <ele>1014.0000</ele>
        <time>2024-05-10T18:02:06Z</time>
      </trkpt>
      <trkpt lat="42.91995093" lon="13.30686598">
        <ele>1015.0000</ele>
        <time>2024-05-10T18:02:07Z</time>
      </trkpt>
      <trkpt lat="42.91996493" lon="13.30685491">
        <ele>1015.0000</ele>
        <time>2024-05-10T18:02:07Z</time>
      </trkpt>
      <trkpt lat="42.91997892" lon="13.30684896">
        <ele>1015.0000</ele>
        <time>2024-05-10T18:02:07Z</time>
      </trkpt>
      <trkpt lat="42.91999191" lon="13.30684091">
        <ele>1015.0000</ele>
        <time>2024-05-10T18:02:08Z</time>
      </trkpt>
      <trkpt lat="42.92001195" lon="13.30683195">
        <ele>1015.0000</ele>
        <time>2024-05-10T18:02:08Z</time>
      </trkpt>
      <trkpt lat="42.92003198" lon="13.30681895">
        <ele>1016.0000</ele>
        <time>2024-05-10T18:02:08Z</time>
      </trkpt>
      <trkpt lat="42.92005193" lon="13.30680596">
        <ele>1016.0000</ele>
        <time>2024-05-10T18:02:09Z</time>
      </trkpt>
      <trkpt lat="42.92007096" lon="13.30679599">
        <ele>1016.0000</ele>
        <time>2024-05-10T18:02:09Z</time>
      </trkpt>
      <trkpt lat="42.92009392" lon="13.30678199">
        <ele>1017.0000</ele>
        <time>2024-05-10T18:02:10Z</time>
      </trkpt>
      <trkpt lat="42.92011295" lon="13.30676992">
        <ele>1017.0000</ele>
        <time>2024-05-10T18:02:10Z</time>
      </trkpt>
      <trkpt lat="42.92013198" lon="13.30676196">
        <ele>1017.0000</ele>
        <time>2024-05-10T18:02:11Z</time>
      </trkpt>
      <trkpt lat="42.92015293" lon="13.30675098">
        <ele>1017.0000</ele>
        <time>2024-05-10T18:02:11Z</time>
      </trkpt>
      <trkpt lat="42.92017498" lon="13.30673698">
        <ele>1017.0000</ele>
        <time>2024-05-10T18:02:12Z</time>
      </trkpt>
      <trkpt lat="42.92019392" lon="13.30672499">
        <ele>1018.0000</ele>
        <time>2024-05-10T18:02:12Z</time>
      </trkpt>
      <trkpt lat="42.92021295" lon="13.30671695">
        <ele>1018.0000</ele>
        <time>2024-05-10T18:02:12Z</time>
      </trkpt>
      <trkpt lat="42.92023097" lon="13.30670496">
        <ele>1018.0000</ele>
        <time>2024-05-10T18:02:13Z</time>
      </trkpt>
      <trkpt lat="42.92025192" lon="13.30669297">
        <ele>1018.0000</ele>
        <time>2024-05-10T18:02:13Z</time>
      </trkpt>
      <trkpt lat="42.92027095" lon="13.30668392">
        <ele>1018.0000</ele>
        <time>2024-05-10T18:02:14Z</time>
      </trkpt>
      <trkpt lat="42.92028998" lon="13.30666598">
        <ele>1018.0000</ele>
        <time>2024-05-10T18:02:14Z</time>
      </trkpt>
      <trkpt lat="42.92030992" lon="13.30664595">
        <ele>1018.0000</ele>
        <time>2024-05-10T18:02:15Z</time>
      </trkpt>
      <trkpt lat="42.92033197" lon="13.30662298">
        <ele>1018.0000</ele>
        <time>2024-05-10T18:02:15Z</time>
      </trkpt>
      <trkpt lat="42.92035292" lon="13.30659792">
        <ele>1018.0000</ele>
        <time>2024-05-10T18:02:16Z</time>
      </trkpt>
      <trkpt lat="42.92037799" lon="13.30656892">
        <ele>1018.0000</ele>
        <time>2024-05-10T18:02:16Z</time>
      </trkpt>
      <trkpt lat="42.92040095" lon="13.30654193">
        <ele>1018.0000</ele>
        <time>2024-05-10T18:02:17Z</time>
      </trkpt>
      <trkpt lat="42.92042291" lon="13.30651595">
        <ele>1018.0000</ele>
        <time>2024-05-10T18:02:18Z</time>
      </trkpt>
      <trkpt lat="42.92044395" lon="13.30648493">
        <ele>1018.0000</ele>
        <time>2024-05-10T18:02:18Z</time>
      </trkpt>
      <trkpt lat="42.92046591" lon="13.30645593">
        <ele>1018.0000</ele>
        <time>2024-05-10T18:02:19Z</time>
      </trkpt>
      <trkpt lat="42.92048494" lon="13.30642593">
        <ele>1018.0000</ele>
        <time>2024-05-10T18:02:19Z</time>
      </trkpt>
      <trkpt lat="42.92050799" lon="13.30639894">
        <ele>1018.0000</ele>
        <time>2024-05-10T18:02:20Z</time>
      </trkpt>
      <trkpt lat="42.92052794" lon="13.30637295">
        <ele>1018.0000</ele>
        <time>2024-05-10T18:02:21Z</time>
      </trkpt>
      <trkpt lat="42.92055099" lon="13.30634898">
        <ele>1018.0000</ele>
        <time>2024-05-10T18:02:21Z</time>
      </trkpt>
      <trkpt lat="42.92057295" lon="13.30632199">
        <ele>1019.0000</ele>
        <time>2024-05-10T18:02:22Z</time>
      </trkpt>
      <trkpt lat="42.92059499" lon="13.30629492">
        <ele>1019.0000</ele>
        <time>2024-05-10T18:02:22Z</time>
      </trkpt>
      <trkpt lat="42.92061595" lon="13.30626893">
        <ele>1019.0000</ele>
        <time>2024-05-10T18:02:23Z</time>
      </trkpt>
      <trkpt lat="42.92063891" lon="13.30624194">
        <ele>1020.0000</ele>
        <time>2024-05-10T18:02:23Z</time>
      </trkpt>
      <trkpt lat="42.92066096" lon="13.30621495">
        <ele>1020.0000</ele>
        <time>2024-05-10T18:02:24Z</time>
      </trkpt>
      <trkpt lat="42.92068292" lon="13.30618595">
        <ele>1020.0000</ele>
        <time>2024-05-10T18:02:25Z</time>
      </trkpt>
      <trkpt lat="42.92070195" lon="13.30615393">
        <ele>1021.0000</ele>
        <time>2024-05-10T18:02:25Z</time>
      </trkpt>
      <trkpt lat="42.92072198" lon="13.30612493">
        <ele>1021.0000</ele>
        <time>2024-05-10T18:02:26Z</time>
      </trkpt>
      <trkpt lat="42.92074394" lon="13.30609593">
        <ele>1021.0000</ele>
        <time>2024-05-10T18:02:26Z</time>
      </trkpt>
      <trkpt lat="42.92076297" lon="13.30606693">
        <ele>1021.0000</ele>
        <time>2024-05-10T18:02:27Z</time>
      </trkpt>
      <trkpt lat="42.92077596" lon="13.30604095">
        <ele>1021.0000</ele>
        <time>2024-05-10T18:02:28Z</time>
      </trkpt>
      <trkpt lat="42.92078895" lon="13.30601697">
        <ele>1020.0000</ele>
        <time>2024-05-10T18:02:28Z</time>
      </trkpt>
      <trkpt lat="42.92079892" lon="13.30599199">
        <ele>1020.0000</ele>
        <time>2024-05-10T18:02:28Z</time>
      </trkpt>
      <trkpt lat="42.92080496" lon="13.30597297">
        <ele>1020.0000</ele>
        <time>2024-05-10T18:02:29Z</time>
      </trkpt>
      <trkpt lat="42.92080999" lon="13.30595796">
        <ele>1020.0000</ele>
        <time>2024-05-10T18:02:29Z</time>
      </trkpt>
      <trkpt lat="42.92081393" lon="13.30594195">
        <ele>1020.0000</ele>
        <time>2024-05-10T18:02:29Z</time>
      </trkpt>
      <trkpt lat="42.92081795" lon="13.30592595">
        <ele>1020.0000</ele>
        <time>2024-05-10T18:02:29Z</time>
      </trkpt>
      <trkpt lat="42.92081493" lon="13.30592092">
        <ele>1020.0000</ele>
        <time>2024-05-10T18:02:30Z</time>
      </trkpt>
      <trkpt lat="42.92081996" lon="13.30591999">
        <ele>1020.0000</ele>
        <time>2024-05-10T18:02:30Z</time>
      </trkpt>
      <trkpt lat="42.92083991" lon="13.30590893">
        <ele>1020.0000</ele>
        <time>2024-05-10T18:02:30Z</time>
      </trkpt>
      <trkpt lat="42.92085592" lon="13.30594799">
        <ele>1020.0000</ele>
        <time>2024-05-10T18:02:31Z</time>
      </trkpt>
      <trkpt lat="42.92084896" lon="13.30596894">
        <ele>1020.0000</ele>
        <time>2024-05-10T18:02:31Z</time>
      </trkpt>
      <trkpt lat="42.92083798" lon="13.30598294">
        <ele>1020.0000</ele>
        <time>2024-05-10T18:02:31Z</time>
      </trkpt>
      <trkpt lat="42.92082994" lon="13.30600197">
        <ele>1020.0000</ele>
        <time>2024-05-10T18:02:32Z</time>
      </trkpt>
      <trkpt lat="42.92081996" lon="13.30601697">
        <ele>1020.0000</ele>
        <time>2024-05-10T18:02:32Z</time>
      </trkpt>
      <trkpt lat="42.92080295" lon="13.30602594">
        <ele>1020.0000</ele>
        <time>2024-05-10T18:02:32Z</time>
      </trkpt>
      <trkpt lat="42.92079197" lon="13.30603198">
        <ele>1020.0000</ele>
        <time>2024-05-10T18:02:33Z</time>
      </trkpt>
      <trkpt lat="42.92078291" lon="13.30602494">
        <ele>1020.0000</ele>
        <time>2024-05-10T18:02:33Z</time>
      </trkpt>
      <trkpt lat="42.92077596" lon="13.30600691">
        <ele>1020.0000</ele>
        <time>2024-05-10T18:02:33Z</time>
      </trkpt>
      <trkpt lat="42.92077093" lon="13.30598294">
        <ele>1020.0000</ele>
        <time>2024-05-10T18:02:33Z</time>
      </trkpt>
      <trkpt lat="42.92076699" lon="13.30595595">
        <ele>1020.0000</ele>
        <time>2024-05-10T18:02:34Z</time>
      </trkpt>
      <trkpt lat="42.92077294" lon="13.30593793">
        <ele>1020.0000</ele>
        <time>2024-05-10T18:02:34Z</time>
      </trkpt>
      <trkpt lat="42.92077898" lon="13.30591899">
        <ele>1020.0000</ele>
        <time>2024-05-10T18:02:34Z</time>
      </trkpt>
      <trkpt lat="42.92078996" lon="13.30588295">
        <ele>1020.0000</ele>
        <time>2024-05-10T18:02:35Z</time>
      </trkpt>
      <trkpt lat="42.92080697" lon="13.30583995">
        <ele>1020.0000</ele>
        <time>2024-05-10T18:02:36Z</time>
      </trkpt>
      <trkpt lat="42.92082893" lon="13.30578798">
        <ele>1019.0000</ele>
        <time>2024-05-10T18:02:37Z</time>
      </trkpt>
      <trkpt lat="42.92085994" lon="13.30572595">
        <ele>1017.0000</ele>
        <time>2024-05-10T18:02:38Z</time>
      </trkpt>
      <trkpt lat="42.92088895" lon="13.30565295">
        <ele>1015.0000</ele>
        <time>2024-05-10T18:02:39Z</time>
      </trkpt>
      <trkpt lat="42.92091099" lon="13.30558497">
        <ele>1014.0000</ele>
        <time>2024-05-10T18:02:40Z</time>
      </trkpt>
      <trkpt lat="42.92091996" lon="13.30552998">
        <ele>1013.0000</ele>
        <time>2024-05-10T18:02:41Z</time>
      </trkpt>
      <trkpt lat="42.92090998" lon="13.30546997">
        <ele>1012.0000</ele>
        <time>2024-05-10T18:02:42Z</time>
      </trkpt>
      <trkpt lat="42.92087897" lon="13.30542295">
        <ele>1012.0000</ele>
        <time>2024-05-10T18:02:43Z</time>
      </trkpt>
      <trkpt lat="42.92083597" lon="13.30539093">
        <ele>1013.0000</ele>
        <time>2024-05-10T18:02:44Z</time>
      </trkpt>
      <trkpt lat="42.92079498" lon="13.30537098">
        <ele>1013.0000</ele>
        <time>2024-05-10T18:02:45Z</time>
      </trkpt>
      <trkpt lat="42.92075199" lon="13.30535497">
        <ele>1014.0000</ele>
        <time>2024-05-10T18:02:45Z</time>
      </trkpt>
      <trkpt lat="42.92070396" lon="13.30533393">
        <ele>1014.0000</ele>
        <time>2024-05-10T18:02:46Z</time>
      </trkpt>
      <trkpt lat="42.92065794" lon="13.30530594">
        <ele>1014.0000</ele>
        <time>2024-05-10T18:02:47Z</time>
      </trkpt>
      <trkpt lat="42.92061192" lon="13.30526495">
        <ele>1015.0000</ele>
        <time>2024-05-10T18:02:49Z</time>
      </trkpt>
      <trkpt lat="42.92057194" lon="13.30520795">
        <ele>1015.0000</ele>
        <time>2024-05-10T18:02:50Z</time>
      </trkpt>
      <trkpt lat="42.92054194" lon="13.30514894">
        <ele>1014.0000</ele>
        <time>2024-05-10T18:02:51Z</time>
      </trkpt>
      <trkpt lat="42.92052299" lon="13.30508993">
        <ele>1014.0000</ele>
        <time>2024-05-10T18:02:52Z</time>
      </trkpt>
      <trkpt lat="42.92051997" lon="13.30503595">
        <ele>1014.0000</ele>
        <time>2024-05-10T18:02:52Z</time>
      </trkpt>
      <trkpt lat="42.92052995" lon="13.30499195">
        <ele>1013.0000</ele>
        <time>2024-05-10T18:02:53Z</time>
      </trkpt>
      <trkpt lat="42.92055099" lon="13.30495893">
        <ele>1013.0000</ele>
        <time>2024-05-10T18:02:54Z</time>
      </trkpt>
      <trkpt lat="42.92057496" lon="13.30493294">
        <ele>1013.0000</ele>
        <time>2024-05-10T18:02:54Z</time>
      </trkpt>
      <trkpt lat="42.92059692" lon="13.30490193">
        <ele>1013.0000</ele>
        <time>2024-05-10T18:02:55Z</time>
      </trkpt>
      <trkpt lat="42.92061796" lon="13.30487192">
        <ele>1012.0000</ele>
        <time>2024-05-10T18:02:56Z</time>
      </trkpt>
      <trkpt lat="42.92063296" lon="13.30483496">
        <ele>1012.0000</ele>
        <time>2024-05-10T18:02:56Z</time>
      </trkpt>
      <trkpt lat="42.92064797" lon="13.30479397">
        <ele>1012.0000</ele>
        <time>2024-05-10T18:02:57Z</time>
      </trkpt>
      <trkpt lat="42.92065098" lon="13.30475592">
        <ele>1012.0000</ele>
        <time>2024-05-10T18:02:57Z</time>
      </trkpt>
      <trkpt lat="42.92064294" lon="13.30471996">
        <ele>1013.0000</ele>
        <time>2024-05-10T18:02:58Z</time>
      </trkpt>
      <trkpt lat="42.92062299" lon="13.30469498">
        <ele>1014.0000</ele>
        <time>2024-05-10T18:02:59Z</time>
      </trkpt>
      <trkpt lat="42.92060296" lon="13.30467293">
        <ele>1014.0000</ele>
        <time>2024-05-10T18:02:59Z</time>
      </trkpt>
      <trkpt lat="42.92059793" lon="13.30462591">
        <ele>1015.0000</ele>
        <time>2024-05-10T18:03:00Z</time>
      </trkpt>
      <trkpt lat="42.92061192" lon="13.30457897">
        <ele>1016.0000</ele>
        <time>2024-05-10T18:03:01Z</time>
      </trkpt>
      <trkpt lat="42.92062793" lon="13.30454193">
        <ele>1016.0000</ele>
        <time>2024-05-10T18:03:01Z</time>
      </trkpt>
      <trkpt lat="42.92065291" lon="13.30452097">
        <ele>1016.0000</ele>
        <time>2024-05-10T18:03:02Z</time>
      </trkpt>
      <trkpt lat="42.92067596" lon="13.30450697">
        <ele>1016.0000</ele>
        <time>2024-05-10T18:03:02Z</time>
      </trkpt>
      <trkpt lat="42.92069792" lon="13.30448795">
        <ele>1016.0000</ele>
        <time>2024-05-10T18:03:03Z</time>
      </trkpt>
      <trkpt lat="42.92071695" lon="13.30446892">
        <ele>1016.0000</ele>
        <time>2024-05-10T18:03:03Z</time>
      </trkpt>
      <trkpt lat="42.92073296" lon="13.30444696">
        <ele>1016.0000</ele>
        <time>2024-05-10T18:03:04Z</time>
      </trkpt>
      <trkpt lat="42.92074696" lon="13.30442592">
        <ele>1017.0000</ele>
        <time>2024-05-10T18:03:04Z</time>
      </trkpt>
      <trkpt lat="42.92076498" lon="13.30440597">
        <ele>1017.0000</ele>
        <time>2024-05-10T18:03:05Z</time>
      </trkpt>
      <trkpt lat="42.92078199" lon="13.30438594">
        <ele>1017.0000</ele>
        <time>2024-05-10T18:03:05Z</time>
      </trkpt>
      <trkpt lat="42.92079993" lon="13.30437194">
        <ele>1018.0000</ele>
        <time>2024-05-10T18:03:05Z</time>
      </trkpt>
      <trkpt lat="42.92081795" lon="13.30435794">
        <ele>1018.0000</ele>
        <time>2024-05-10T18:03:06Z</time>
      </trkpt>
      <trkpt lat="42.92083597" lon="13.30433699">
        <ele>1018.0000</ele>
        <time>2024-05-10T18:03:06Z</time>
      </trkpt>
      <trkpt lat="42.92085492" lon="13.30431595">
        <ele>1019.0000</ele>
        <time>2024-05-10T18:03:07Z</time>
      </trkpt>
      <trkpt lat="42.92087897" lon="13.30429592">
        <ele>1019.0000</ele>
        <time>2024-05-10T18:03:07Z</time>
      </trkpt>
      <trkpt lat="42.92090395" lon="13.30427798">
        <ele>1020.0000</ele>
        <time>2024-05-10T18:03:08Z</time>
      </trkpt>
      <trkpt lat="42.92092893" lon="13.30426096">
        <ele>1020.0000</ele>
        <time>2024-05-10T18:03:09Z</time>
      </trkpt>
      <trkpt lat="42.92094896" lon="13.30424898">
        <ele>1020.0000</ele>
        <time>2024-05-10T18:03:09Z</time>
      </trkpt>
      <trkpt lat="42.92097394" lon="13.30423498">
        <ele>1021.0000</ele>
        <time>2024-05-10T18:03:09Z</time>
      </trkpt>
      <trkpt lat="42.92099992" lon="13.30422492">
        <ele>1021.0000</ele>
        <time>2024-05-10T18:03:10Z</time>
      </trkpt>
      <trkpt lat="42.92102498" lon="13.30421193">
        <ele>1021.0000</ele>
        <time>2024-05-10T18:03:11Z</time>
      </trkpt>
      <trkpt lat="42.92104996" lon="13.30419894">
        <ele>1021.0000</ele>
        <time>2024-05-10T18:03:11Z</time>
      </trkpt>
      <trkpt lat="42.92107494" lon="13.30418595">
        <ele>1021.0000</ele>
        <time>2024-05-10T18:03:12Z</time>
      </trkpt>
      <trkpt lat="42.92109698" lon="13.30417396">
        <ele>1021.0000</ele>
        <time>2024-05-10T18:03:12Z</time>
      </trkpt>
      <trkpt lat="42.92111895" lon="13.30416298">
        <ele>1022.0000</ele>
        <time>2024-05-10T18:03:13Z</time>
      </trkpt>
      <trkpt lat="42.92113998" lon="13.30415099">
        <ele>1022.0000</ele>
        <time>2024-05-10T18:03:13Z</time>
      </trkpt>
      <trkpt lat="42.92116094" lon="13.30414094">
        <ele>1022.0000</ele>
        <time>2024-05-10T18:03:13Z</time>
      </trkpt>
      <trkpt lat="42.92118499" lon="13.30413096">
        <ele>1022.0000</ele>
        <time>2024-05-10T18:03:14Z</time>
      </trkpt>
      <trkpt lat="42.92120897" lon="13.30411797">
        <ele>1022.0000</ele>
        <time>2024-05-10T18:03:15Z</time>
      </trkpt>
      <trkpt lat="42.92123395" lon="13.30410699">
        <ele>1022.0000</ele>
        <time>2024-05-10T18:03:15Z</time>
      </trkpt>
      <trkpt lat="42.92125792" lon="13.30409794">
        <ele>1022.0000</ele>
        <time>2024-05-10T18:03:16Z</time>
      </trkpt>
      <trkpt lat="42.92127896" lon="13.30409492">
        <ele>1022.0000</ele>
        <time>2024-05-10T18:03:16Z</time>
      </trkpt>
      <trkpt lat="42.92129999" lon="13.30409198">
        <ele>1022.0000</ele>
        <time>2024-05-10T18:03:16Z</time>
      </trkpt>
      <trkpt lat="42.92131994" lon="13.30408595">
        <ele>1022.0000</ele>
        <time>2024-05-10T18:03:17Z</time>
      </trkpt>
      <trkpt lat="42.92134392" lon="13.30407992">
        <ele>1022.0000</ele>
        <time>2024-05-10T18:03:17Z</time>
      </trkpt>
      <trkpt lat="42.92136697" lon="13.30407195">
        <ele>1022.0000</ele>
        <time>2024-05-10T18:03:18Z</time>
      </trkpt>
      <trkpt lat="42.92139094" lon="13.30406097">
        <ele>1022.0000</ele>
        <time>2024-05-10T18:03:18Z</time>
      </trkpt>
      <trkpt lat="42.92141793" lon="13.30405594">
        <ele>1022.0000</ele>
        <time>2024-05-10T18:03:19Z</time>
      </trkpt>
      <trkpt lat="42.92144098" lon="13.30405293">
        <ele>1021.0000</ele>
        <time>2024-05-10T18:03:19Z</time>
      </trkpt>
      <trkpt lat="42.92146294" lon="13.30404496">
        <ele>1021.0000</ele>
        <time>2024-05-10T18:03:20Z</time>
      </trkpt>
      <trkpt lat="42.92148792" lon="13.30403197">
        <ele>1021.0000</ele>
        <time>2024-05-10T18:03:20Z</time>
      </trkpt>
      <trkpt lat="42.92151197" lon="13.30402493">
        <ele>1020.0000</ele>
        <time>2024-05-10T18:03:21Z</time>
      </trkpt>
      <trkpt lat="42.92154097" lon="13.30401194">
        <ele>1020.0000</ele>
        <time>2024-05-10T18:03:21Z</time>
      </trkpt>
      <trkpt lat="42.92156293" lon="13.30399299">
        <ele>1020.0000</ele>
        <time>2024-05-10T18:03:22Z</time>
      </trkpt>
      <trkpt lat="42.92158297" lon="13.30397497">
        <ele>1020.0000</ele>
        <time>2024-05-10T18:03:22Z</time>
      </trkpt>
      <trkpt lat="42.92160292" lon="13.30395997">
        <ele>1020.0000</ele>
        <time>2024-05-10T18:03:23Z</time>
      </trkpt>
      <trkpt lat="42.92162697" lon="13.30394396">
        <ele>1020.0000</ele>
        <time>2024-05-10T18:03:23Z</time>
      </trkpt>
      <trkpt lat="42.92165698" lon="13.30392292">
        <ele>1020.0000</ele>
        <time>2024-05-10T18:03:24Z</time>
      </trkpt>
      <trkpt lat="42.92169193" lon="13.30389199">
        <ele>1020.0000</ele>
        <time>2024-05-10T18:03:25Z</time>
      </trkpt>
      <trkpt lat="42.92173099" lon="13.30386492">
        <ele>1020.0000</ele>
        <time>2024-05-10T18:03:26Z</time>
      </trkpt>
      <trkpt lat="42.92176796" lon="13.30383491">
        <ele>1020.0000</ele>
        <time>2024-05-10T18:03:27Z</time>
      </trkpt>
      <trkpt lat="42.92180098" lon="13.30380398">
        <ele>1020.0000</ele>
        <time>2024-05-10T18:03:27Z</time>
      </trkpt>
      <trkpt lat="42.92182898" lon="13.30378496">
        <ele>1020.0000</ele>
        <time>2024-05-10T18:03:28Z</time>
      </trkpt>
      <trkpt lat="42.92185496" lon="13.30376593">
        <ele>1020.0000</ele>
        <time>2024-05-10T18:03:29Z</time>
      </trkpt>
      <trkpt lat="42.92187994" lon="13.30374699">
        <ele>1021.0000</ele>
        <time>2024-05-10T18:03:29Z</time>
      </trkpt>
      <trkpt lat="42.92190492" lon="13.30372695">
        <ele>1021.0000</ele>
        <time>2024-05-10T18:03:30Z</time>
      </trkpt>
      <trkpt lat="42.92192797" lon="13.30370591">
        <ele>1021.0000</ele>
        <time>2024-05-10T18:03:30Z</time>
      </trkpt>
      <trkpt lat="42.92195194" lon="13.30368597">
        <ele>1021.0000</ele>
        <time>2024-05-10T18:03:31Z</time>
      </trkpt>
      <trkpt lat="42.92197499" lon="13.30366392">
        <ele>1021.0000</ele>
        <time>2024-05-10T18:03:31Z</time>
      </trkpt>
      <trkpt lat="42.92199896" lon="13.30363593">
        <ele>1021.0000</ele>
        <time>2024-05-10T18:03:32Z</time>
      </trkpt>
      <trkpt lat="42.92202293" lon="13.30361397">
        <ele>1022.0000</ele>
        <time>2024-05-10T18:03:33Z</time>
      </trkpt>
      <trkpt lat="42.92204598" lon="13.30359293">
        <ele>1022.0000</ele>
        <time>2024-05-10T18:03:33Z</time>
      </trkpt>
      <trkpt lat="42.92207197" lon="13.30356895">
        <ele>1022.0000</ele>
        <time>2024-05-10T18:03:34Z</time>
      </trkpt>
      <trkpt lat="42.92209795" lon="13.30354993">
        <ele>1022.0000</ele>
        <time>2024-05-10T18:03:34Z</time>
      </trkpt>
      <trkpt lat="42.92212192" lon="13.30352998">
        <ele>1022.0000</ele>
        <time>2024-05-10T18:03:35Z</time>
      </trkpt>
      <trkpt lat="42.92214196" lon="13.30350995">
        <ele>1022.0000</ele>
        <time>2024-05-10T18:03:35Z</time>
      </trkpt>
      <trkpt lat="42.92216392" lon="13.30348899">
        <ele>1022.0000</ele>
        <time>2024-05-10T18:03:36Z</time>
      </trkpt>
      <trkpt lat="42.92218797" lon="13.30346594">
        <ele>1022.0000</ele>
        <time>2024-05-10T18:03:37Z</time>
      </trkpt>
      <trkpt lat="42.92221195" lon="13.30343795">
        <ele>1023.0000</ele>
        <time>2024-05-10T18:03:37Z</time>
      </trkpt>
      <trkpt lat="42.92223399" lon="13.30340693">
        <ele>1023.0000</ele>
        <time>2024-05-10T18:03:38Z</time>
      </trkpt>
      <trkpt lat="42.92225595" lon="13.30337198">
        <ele>1023.0000</ele>
        <time>2024-05-10T18:03:39Z</time>
      </trkpt>
      <trkpt lat="42.92227598" lon="13.30333393">
        <ele>1023.0000</ele>
        <time>2024-05-10T18:03:39Z</time>
      </trkpt>
      <trkpt lat="42.92230096" lon="13.30328799">
        <ele>1022.0000</ele>
        <time>2024-05-10T18:03:40Z</time>
      </trkpt>
      <trkpt lat="42.92232695" lon="13.30324097">
        <ele>1022.0000</ele>
        <time>2024-05-10T18:03:41Z</time>
      </trkpt>
      <trkpt lat="42.92235394" lon="13.30319495">
        <ele>1021.0000</ele>
        <time>2024-05-10T18:03:42Z</time>
      </trkpt>
      <trkpt lat="42.92239199" lon="13.30315095">
        <ele>1021.0000</ele>
        <time>2024-05-10T18:03:43Z</time>
      </trkpt>
      <trkpt lat="42.92243096" lon="13.30310191">
        <ele>1020.0000</ele>
        <time>2024-05-10T18:03:44Z</time>
      </trkpt>
      <trkpt lat="42.92247195" lon="13.30304693">
        <ele>1020.0000</ele>
        <time>2024-05-10T18:03:45Z</time>
      </trkpt>
      <trkpt lat="42.92251093" lon="13.30300292">
        <ele>1020.0000</ele>
        <time>2024-05-10T18:03:46Z</time>
      </trkpt>
      <trkpt lat="42.92254596" lon="13.30296697">
        <ele>1019.0000</ele>
        <time>2024-05-10T18:03:47Z</time>
      </trkpt>
      <trkpt lat="42.92257899" lon="13.30293394">
        <ele>1018.0000</ele>
        <time>2024-05-10T18:03:48Z</time>
      </trkpt>
      <trkpt lat="42.92261294" lon="13.30290695">
        <ele>1018.0000</ele>
        <time>2024-05-10T18:03:48Z</time>
      </trkpt>
      <trkpt lat="42.92264697" lon="13.30288197">
        <ele>1017.0000</ele>
        <time>2024-05-10T18:03:49Z</time>
      </trkpt>
      <trkpt lat="42.92268091" lon="13.30285096">
        <ele>1016.0000</ele>
        <time>2024-05-10T18:03:50Z</time>
      </trkpt>
      <trkpt lat="42.92271595" lon="13.30281894">
        <ele>1015.0000</ele>
        <time>2024-05-10T18:03:51Z</time>
      </trkpt>
      <trkpt lat="42.92275291" lon="13.30278893">
        <ele>1014.0000</ele>
        <time>2024-05-10T18:03:52Z</time>
      </trkpt>
      <trkpt lat="42.92278099" lon="13.30275792">
        <ele>1014.0000</ele>
        <time>2024-05-10T18:03:52Z</time>
      </trkpt>
      <trkpt lat="42.92280597" lon="13.30273495">
        <ele>1014.0000</ele>
        <time>2024-05-10T18:03:53Z</time>
      </trkpt>
      <trkpt lat="42.92282994" lon="13.30272297">
        <ele>1014.0000</ele>
        <time>2024-05-10T18:03:54Z</time>
      </trkpt>
      <trkpt lat="42.92285098" lon="13.30270797">
        <ele>1014.0000</ele>
        <time>2024-05-10T18:03:54Z</time>
      </trkpt>
      <trkpt lat="42.92287395" lon="13.30268994">
        <ele>1013.0000</ele>
        <time>2024-05-10T18:03:55Z</time>
      </trkpt>
      <trkpt lat="42.92290295" lon="13.30267092">
        <ele>1013.0000</ele>
        <time>2024-05-10T18:03:55Z</time>
      </trkpt>
      <trkpt lat="42.92293296" lon="13.30264896">
        <ele>1013.0000</ele>
        <time>2024-05-10T18:03:56Z</time>
      </trkpt>
      <trkpt lat="42.92296498" lon="13.30262599">
        <ele>1013.0000</ele>
        <time>2024-05-10T18:03:57Z</time>
      </trkpt>
      <trkpt lat="42.92299699" lon="13.30260395">
        <ele>1012.0000</ele>
        <time>2024-05-10T18:03:57Z</time>
      </trkpt>
      <trkpt lat="42.92302692" lon="13.30258199">
        <ele>1012.0000</ele>
        <time>2024-05-10T18:03:58Z</time>
      </trkpt>
      <trkpt lat="42.92305491" lon="13.30255893">
        <ele>1012.0000</ele>
        <time>2024-05-10T18:03:59Z</time>
      </trkpt>
      <trkpt lat="42.92308199" lon="13.30253295">
        <ele>1012.0000</ele>
        <time>2024-05-10T18:03:59Z</time>
      </trkpt>
      <trkpt lat="42.92311199" lon="13.30250596">
        <ele>1012.0000</ele>
        <time>2024-05-10T18:04:00Z</time>
      </trkpt>
      <trkpt lat="42.92314292" lon="13.30247394">
        <ele>1012.0000</ele>
        <time>2024-05-10T18:04:01Z</time>
      </trkpt>
      <trkpt lat="42.92317796" lon="13.30244092">
        <ele>1013.0000</ele>
        <time>2024-05-10T18:04:02Z</time>
      </trkpt>
      <trkpt lat="42.92321291" lon="13.30240295">
        <ele>1013.0000</ele>
        <time>2024-05-10T18:04:03Z</time>
      </trkpt>
      <trkpt lat="42.92325197" lon="13.30236498">
        <ele>1013.0000</ele>
        <time>2024-05-10T18:04:04Z</time>
      </trkpt>
      <trkpt lat="42.92328793" lon="13.30233195">
        <ele>1014.0000</ele>
        <time>2024-05-10T18:04:04Z</time>
      </trkpt>
      <trkpt lat="42.92332598" lon="13.30229398">
        <ele>1014.0000</ele>
        <time>2024-05-10T18:04:05Z</time>
      </trkpt>
      <trkpt lat="42.92336094" lon="13.30226096">
        <ele>1014.0000</ele>
        <time>2024-05-10T18:04:06Z</time>
      </trkpt>
      <trkpt lat="42.92339497" lon="13.30222995">
        <ele>1015.0000</ele>
        <time>2024-05-10T18:04:07Z</time>
      </trkpt>
      <trkpt lat="42.92342598" lon="13.30219499">
        <ele>1014.0000</ele>
        <time>2024-05-10T18:04:08Z</time>
      </trkpt>
      <trkpt lat="42.92345398" lon="13.30215996">
        <ele>1013.0000</ele>
        <time>2024-05-10T18:04:09Z</time>
      </trkpt>
      <trkpt lat="42.92348993" lon="13.30212593">
        <ele>1013.0000</ele>
        <time>2024-05-10T18:04:09Z</time>
      </trkpt>
      <trkpt lat="42.92353092" lon="13.30209592">
        <ele>1012.0000</ele>
        <time>2024-05-10T18:04:10Z</time>
      </trkpt>
      <trkpt lat="42.92357292" lon="13.30205694">
        <ele>1011.0000</ele>
        <time>2024-05-10T18:04:11Z</time>
      </trkpt>
      <trkpt lat="42.92361793" lon="13.30200397">
        <ele>1010.0000</ele>
        <time>2024-05-10T18:04:13Z</time>
      </trkpt>
      <trkpt lat="42.92365497" lon="13.30194395">
        <ele>1009.0000</ele>
        <time>2024-05-10T18:04:14Z</time>
      </trkpt>
      <trkpt lat="42.92368993" lon="13.30187698">
        <ele>1009.0000</ele>
        <time>2024-05-10T18:04:15Z</time>
      </trkpt>
      <trkpt lat="42.92372496" lon="13.30181295">
        <ele>1008.0000</ele>
        <time>2024-05-10T18:04:16Z</time>
      </trkpt>
      <trkpt lat="42.92376394" lon="13.30175897">
        <ele>1008.0000</ele>
        <time>2024-05-10T18:04:17Z</time>
      </trkpt>
      <trkpt lat="42.92379898" lon="13.30172393">
        <ele>1007.0000</ele>
        <time>2024-05-10T18:04:18Z</time>
      </trkpt>
      <trkpt lat="42.92382496" lon="13.30170499">
        <ele>1007.0000</ele>
        <time>2024-05-10T18:04:19Z</time>
      </trkpt>
      <trkpt lat="42.92384399" lon="13.30169493">
        <ele>1007.0000</ele>
        <time>2024-05-10T18:04:19Z</time>
      </trkpt>
      <trkpt lat="42.92386896" lon="13.30167397">
        <ele>1007.0000</ele>
        <time>2024-05-10T18:04:20Z</time>
      </trkpt>
      <trkpt lat="42.92389495" lon="13.30165495">
        <ele>1007.0000</ele>
        <time>2024-05-10T18:04:20Z</time>
      </trkpt>
      <trkpt lat="42.92392998" lon="13.30163793">
        <ele>1007.0000</ele>
        <time>2024-05-10T18:04:21Z</time>
      </trkpt>
      <trkpt lat="42.92396896" lon="13.30161798">
        <ele>1007.0000</ele>
        <time>2024-05-10T18:04:22Z</time>
      </trkpt>
      <trkpt lat="42.92400592" lon="13.30159896">
        <ele>1008.0000</ele>
        <time>2024-05-10T18:04:23Z</time>
      </trkpt>
      <trkpt lat="42.92404096" lon="13.30157197">
        <ele>1008.0000</ele>
        <time>2024-05-10T18:04:23Z</time>
      </trkpt>
      <trkpt lat="42.92407692" lon="13.30155294">
        <ele>1009.0000</ele>
        <time>2024-05-10T18:04:24Z</time>
      </trkpt>
      <trkpt lat="42.92411397" lon="13.30153894">
        <ele>1009.0000</ele>
        <time>2024-05-10T18:04:25Z</time>
      </trkpt>
      <trkpt lat="42.92414993" lon="13.30152997">
        <ele>1009.0000</ele>
        <time>2024-05-10T18:04:26Z</time>
      </trkpt>
      <trkpt lat="42.92418496" lon="13.30152293">
        <ele>1009.0000</ele>
        <time>2024-05-10T18:04:26Z</time>
      </trkpt>
      <trkpt lat="42.92422092" lon="13.30151396">
        <ele>1009.0000</ele>
        <time>2024-05-10T18:04:27Z</time>
      </trkpt>
      <trkpt lat="42.92425596" lon="13.30150298">
        <ele>1009.0000</ele>
        <time>2024-05-10T18:04:28Z</time>
      </trkpt>
      <trkpt lat="42.92429191" lon="13.30148798">
        <ele>1009.0000</ele>
        <time>2024-05-10T18:04:29Z</time>
      </trkpt>
      <trkpt lat="42.92432796" lon="13.30146593">
        <ele>1009.0000</ele>
        <time>2024-05-10T18:04:29Z</time>
      </trkpt>
      <trkpt lat="42.92435998" lon="13.30144599">
        <ele>1009.0000</ele>
        <time>2024-05-10T18:04:30Z</time>
      </trkpt>
      <trkpt lat="42.92439099" lon="13.30142294">
        <ele>1009.0000</ele>
        <time>2024-05-10T18:04:31Z</time>
      </trkpt>
      <trkpt lat="42.92441898" lon="13.30140491">
        <ele>1009.0000</ele>
        <time>2024-05-10T18:04:31Z</time>
      </trkpt>
      <trkpt lat="42.92445293" lon="13.30138899">
        <ele>1008.0000</ele>
        <time>2024-05-10T18:04:32Z</time>
      </trkpt>
      <trkpt lat="42.92448797" lon="13.30136896">
        <ele>1008.0000</ele>
        <time>2024-05-10T18:04:33Z</time>
      </trkpt>
      <trkpt lat="42.92452493" lon="13.30134398">
        <ele>1008.0000</ele>
        <time>2024-05-10T18:04:34Z</time>
      </trkpt>
      <trkpt lat="42.92456693" lon="13.30131498">
        <ele>1008.0000</ele>
        <time>2024-05-10T18:04:35Z</time>
      </trkpt>
      <trkpt lat="42.92461194" lon="13.30127793">
        <ele>1008.0000</ele>
        <time>2024-05-10T18:04:36Z</time>
      </trkpt>
      <trkpt lat="42.92465996" lon="13.30124599">
        <ele>1007.0000</ele>
        <time>2024-05-10T18:04:37Z</time>
      </trkpt>
      <trkpt lat="42.92470699" lon="13.30121599">
        <ele>1007.0000</ele>
        <time>2024-05-10T18:04:38Z</time>
      </trkpt>
      <trkpt lat="42.92475895" lon="13.30118598">
        <ele>1006.0000</ele>
        <time>2024-05-10T18:04:39Z</time>
      </trkpt>
      <trkpt lat="42.92481193" lon="13.30115295">
        <ele>1005.0000</ele>
        <time>2024-05-10T18:04:40Z</time>
      </trkpt>
      <trkpt lat="42.92486096" lon="13.30111297">
        <ele>1004.0000</ele>
        <time>2024-05-10T18:04:41Z</time>
      </trkpt>
      <trkpt lat="42.92490798" lon="13.30107098">
        <ele>1003.0000</ele>
        <time>2024-05-10T18:04:42Z</time>
      </trkpt>
      <trkpt lat="42.92495392" lon="13.30102999">
        <ele>1003.0000</ele>
        <time>2024-05-10T18:04:44Z</time>
      </trkpt>
      <trkpt lat="42.92499692" lon="13.30098791">
        <ele>1002.0000</ele>
        <time>2024-05-10T18:04:45Z</time>
      </trkpt>
      <trkpt lat="42.92503992" lon="13.30094592">
        <ele>1002.0000</ele>
        <time>2024-05-10T18:04:46Z</time>
      </trkpt>
      <trkpt lat="42.92507998" lon="13.30090695">
        <ele>1002.0000</ele>
        <time>2024-05-10T18:04:47Z</time>
      </trkpt>
      <trkpt lat="42.92511896" lon="13.30086093">
        <ele>1002.0000</ele>
        <time>2024-05-10T18:04:48Z</time>
      </trkpt>
      <trkpt lat="42.92515592" lon="13.30081298">
        <ele>1001.0000</ele>
        <time>2024-05-10T18:04:49Z</time>
      </trkpt>
      <trkpt lat="42.92519096" lon="13.30075993">
        <ele>1001.0000</ele>
        <time>2024-05-10T18:04:50Z</time>
      </trkpt>
      <trkpt lat="42.92522692" lon="13.30070796">
        <ele>1001.0000</ele>
        <time>2024-05-10T18:04:51Z</time>
      </trkpt>
      <trkpt lat="42.92526296" lon="13.30065499">
        <ele>1001.0000</ele>
        <time>2024-05-10T18:04:52Z</time>
      </trkpt>
      <trkpt lat="42.92530495" lon="13.30060997">
        <ele>1001.0000</ele>
        <time>2024-05-10T18:04:53Z</time>
      </trkpt>
      <trkpt lat="42.92535097" lon="13.30057092">
        <ele>1000.0000</ele>
        <time>2024-05-10T18:04:54Z</time>
      </trkpt>
      <trkpt lat="42.92539095" lon="13.30054292">
        <ele>1000.0000</ele>
        <time>2024-05-10T18:04:55Z</time>
      </trkpt>
      <trkpt lat="42.92543697" lon="13.30052096">
        <ele>999.00000</ele>
        <time>2024-05-10T18:04:56Z</time>
      </trkpt>
      <trkpt lat="42.92548994" lon="13.30050394">
        <ele>999.00000</ele>
        <time>2024-05-10T18:04:57Z</time>
      </trkpt>
      <trkpt lat="42.92555096" lon="13.30048693">
        <ele>998.00000</ele>
        <time>2024-05-10T18:04:58Z</time>
      </trkpt>
      <trkpt lat="42.92561994" lon="13.30046195">
        <ele>997.00000</ele>
        <time>2024-05-10T18:05:00Z</time>
      </trkpt>
      <trkpt lat="42.92568893" lon="13.30042499">
        <ele>996.00000</ele>
        <time>2024-05-10T18:05:01Z</time>
      </trkpt>
      <trkpt lat="42.92575799" lon="13.30037998">
        <ele>996.00000</ele>
        <time>2024-05-10T18:05:03Z</time>
      </trkpt>
      <trkpt lat="42.92581591" lon="13.30033597">
        <ele>996.00000</ele>
        <time>2024-05-10T18:05:04Z</time>
      </trkpt>
      <trkpt lat="42.92587098" lon="13.30029993">
        <ele>995.00000</ele>
        <time>2024-05-10T18:05:05Z</time>
      </trkpt>
      <trkpt lat="42.92592295" lon="13.30027093">
        <ele>994.00000</ele>
        <time>2024-05-10T18:05:06Z</time>
      </trkpt>
      <trkpt lat="42.92597492" lon="13.30023899">
        <ele>993.00000</ele>
        <time>2024-05-10T18:05:07Z</time>
      </trkpt>
      <trkpt lat="42.92603694" lon="13.30021795">
        <ele>992.00000</ele>
        <time>2024-05-10T18:05:09Z</time>
      </trkpt>
      <trkpt lat="42.92609696" lon="13.30019993">
        <ele>991.00000</ele>
        <time>2024-05-10T18:05:10Z</time>
      </trkpt>
      <trkpt lat="42.92616091" lon="13.30018694">
        <ele>990.00000</ele>
        <time>2024-05-10T18:05:11Z</time>
      </trkpt>
      <trkpt lat="42.92621891" lon="13.30016791">
        <ele>988.00000</ele>
        <time>2024-05-10T18:05:12Z</time>
      </trkpt>
      <trkpt lat="42.92627692" lon="13.30015199">
        <ele>987.00000</ele>
        <time>2024-05-10T18:05:14Z</time>
      </trkpt>
      <trkpt lat="42.92632495" lon="13.30012793">
        <ele>986.00000</ele>
        <time>2024-05-10T18:05:15Z</time>
      </trkpt>
      <trkpt lat="42.92636199" lon="13.30009591">
        <ele>986.00000</ele>
        <time>2024-05-10T18:05:16Z</time>
      </trkpt>
      <trkpt lat="42.92639594" lon="13.30006691">
        <ele>986.00000</ele>
        <time>2024-05-10T18:05:16Z</time>
      </trkpt>
      <trkpt lat="42.92643793" lon="13.30003598">
        <ele>986.00000</ele>
        <time>2024-05-10T18:05:17Z</time>
      </trkpt>
      <trkpt lat="42.92647498" lon="13.30000899">
        <ele>986.00000</ele>
        <time>2024-05-10T18:05:18Z</time>
      </trkpt>
      <trkpt lat="42.92651899" lon="13.29998695">
        <ele>987.00000</ele>
        <time>2024-05-10T18:05:19Z</time>
      </trkpt>
      <trkpt lat="42.92656199" lon="13.29998091">
        <ele>987.00000</ele>
        <time>2024-05-10T18:05:20Z</time>
      </trkpt>
      <trkpt lat="42.92660892" lon="13.30000296">
        <ele>986.00000</ele>
        <time>2024-05-10T18:05:21Z</time>
      </trkpt>
      <trkpt lat="42.92665695" lon="13.30003598">
        <ele>986.00000</ele>
        <time>2024-05-10T18:05:22Z</time>
      </trkpt>
      <trkpt lat="42.92669098" lon="13.30009994">
        <ele>985.00000</ele>
        <time>2024-05-10T18:05:23Z</time>
      </trkpt>
      <trkpt lat="42.92670892" lon="13.30017898">
        <ele>984.00000</ele>
        <time>2024-05-10T18:05:24Z</time>
      </trkpt>
      <trkpt lat="42.92672594" lon="13.30026196">
        <ele>983.00000</ele>
        <time>2024-05-10T18:05:26Z</time>
      </trkpt>
      <trkpt lat="42.92673692" lon="13.30034896">
        <ele>982.00000</ele>
        <time>2024-05-10T18:05:27Z</time>
      </trkpt>
      <trkpt lat="42.92674798" lon="13.30041895">
        <ele>981.00000</ele>
        <time>2024-05-10T18:05:28Z</time>
      </trkpt>
      <trkpt lat="42.92676097" lon="13.30047293">
        <ele>980.00000</ele>
        <time>2024-05-10T18:05:29Z</time>
      </trkpt>
      <trkpt lat="42.92678394" lon="13.30052398">
        <ele>980.00000</ele>
        <time>2024-05-10T18:05:30Z</time>
      </trkpt>
      <trkpt lat="42.92681495" lon="13.30056798">
        <ele>979.00000</ele>
        <time>2024-05-10T18:05:31Z</time>
      </trkpt>
      <trkpt lat="42.92684395" lon="13.30061995">
        <ele>979.00000</ele>
        <time>2024-05-10T18:05:32Z</time>
      </trkpt>
      <trkpt lat="42.92687295" lon="13.30066697">
        <ele>979.00000</ele>
        <time>2024-05-10T18:05:32Z</time>
      </trkpt>
      <trkpt lat="42.92690397" lon="13.30072799">
        <ele>978.00000</ele>
        <time>2024-05-10T18:05:34Z</time>
      </trkpt>
      <trkpt lat="42.92692995" lon="13.30079698">
        <ele>977.00000</ele>
        <time>2024-05-10T18:05:35Z</time>
      </trkpt>
      <trkpt lat="42.92694495" lon="13.30087593">
        <ele>976.00000</ele>
        <time>2024-05-10T18:05:36Z</time>
      </trkpt>
      <trkpt lat="42.92695795" lon="13.30095497">
        <ele>975.00000</ele>
        <time>2024-05-10T18:05:37Z</time>
      </trkpt>
      <trkpt lat="42.92696398" lon="13.30103594">
        <ele>974.00000</ele>
        <time>2024-05-10T18:05:38Z</time>
      </trkpt>
      <trkpt lat="42.92696792" lon="13.30110593">
        <ele>973.00000</ele>
        <time>2024-05-10T18:05:39Z</time>
      </trkpt>
      <trkpt lat="42.92697597" lon="13.30116796">
        <ele>971.00000</ele>
        <time>2024-05-10T18:05:40Z</time>
      </trkpt>
      <trkpt lat="42.92698997" lon="13.30123392">
        <ele>970.00000</ele>
        <time>2024-05-10T18:05:41Z</time>
      </trkpt>
      <trkpt lat="42.92700698" lon="13.30131296">
        <ele>968.00000</ele>
        <time>2024-05-10T18:05:42Z</time>
      </trkpt>
      <trkpt lat="42.92701796" lon="13.30139393">
        <ele>967.00000</ele>
        <time>2024-05-10T18:05:44Z</time>
      </trkpt>
      <trkpt lat="42.92700991" lon="13.30148295">
        <ele>965.00000</ele>
        <time>2024-05-10T18:05:45Z</time>
      </trkpt>
      <trkpt lat="42.92698997" lon="13.30157993">
        <ele>963.00000</ele>
        <time>2024-05-10T18:05:46Z</time>
      </trkpt>
      <trkpt lat="42.92697899" lon="13.30166894">
        <ele>961.00000</ele>
        <time>2024-05-10T18:05:48Z</time>
      </trkpt>
      <trkpt lat="42.92696197" lon="13.30175897">
        <ele>960.00000</ele>
        <time>2024-05-10T18:05:49Z</time>
      </trkpt>
      <trkpt lat="42.92697094" lon="13.30184396">
        <ele>959.00000</ele>
        <time>2024-05-10T18:05:50Z</time>
      </trkpt>
      <trkpt lat="42.92697396" lon="13.30190992">
        <ele>958.00000</ele>
        <time>2024-05-10T18:05:51Z</time>
      </trkpt>
      <trkpt lat="42.92696893" lon="13.30196399">
        <ele>957.00000</ele>
        <time>2024-05-10T18:05:52Z</time>
      </trkpt>
      <trkpt lat="42.92694898" lon="13.30200799">
        <ele>957.00000</ele>
        <time>2024-05-10T18:05:53Z</time>
      </trkpt>
      <trkpt lat="42.92691998" lon="13.30203892">
        <ele>957.00000</ele>
        <time>2024-05-10T18:05:54Z</time>
      </trkpt>
      <trkpt lat="42.92687497" lon="13.30207698">
        <ele>956.00000</ele>
        <time>2024-05-10T18:05:55Z</time>
      </trkpt>
      <trkpt lat="42.92682099" lon="13.30210497">
        <ele>956.00000</ele>
        <time>2024-05-10T18:05:56Z</time>
      </trkpt>
      <trkpt lat="42.92675695" lon="13.30213095">
        <ele>956.00000</ele>
        <time>2024-05-10T18:05:57Z</time>
      </trkpt>
      <trkpt lat="42.92670196" lon="13.30214596">
        <ele>956.00000</ele>
        <time>2024-05-10T18:05:58Z</time>
      </trkpt>
      <trkpt lat="42.92665092" lon="13.30216599">
        <ele>957.00000</ele>
        <time>2024-05-10T18:05:59Z</time>
      </trkpt>
      <trkpt lat="42.92662493" lon="13.30220597">
        <ele>956.00000</ele>
        <time>2024-05-10T18:06:00Z</time>
      </trkpt>
      <trkpt lat="42.92661898" lon="13.30224193">
        <ele>956.00000</ele>
        <time>2024-05-10T18:06:01Z</time>
      </trkpt>
      <trkpt lat="42.92662192" lon="13.30228099">
        <ele>956.00000</ele>
        <time>2024-05-10T18:06:01Z</time>
      </trkpt>
      <trkpt lat="42.92663097" lon="13.30231293">
        <ele>956.00000</ele>
        <time>2024-05-10T18:06:02Z</time>
      </trkpt>
      <trkpt lat="42.92664597" lon="13.30233992">
        <ele>955.00000</ele>
        <time>2024-05-10T18:06:02Z</time>
      </trkpt>
      <trkpt lat="42.92665796" lon="13.30237898">
        <ele>955.00000</ele>
        <time>2024-05-10T18:06:03Z</time>
      </trkpt>
      <trkpt lat="42.92666399" lon="13.30241292">
        <ele>954.00000</ele>
        <time>2024-05-10T18:06:03Z</time>
      </trkpt>
      <trkpt lat="42.92668193" lon="13.30244896">
        <ele>954.00000</ele>
        <time>2024-05-10T18:06:04Z</time>
      </trkpt>
      <trkpt lat="42.92668797" lon="13.30249096">
        <ele>953.00000</ele>
        <time>2024-05-10T18:06:05Z</time>
      </trkpt>
      <trkpt lat="42.92670599" lon="13.30254997">
        <ele>953.00000</ele>
        <time>2024-05-10T18:06:06Z</time>
      </trkpt>
      <trkpt lat="42.92671898" lon="13.30261291">
        <ele>952.00000</ele>
        <time>2024-05-10T18:06:07Z</time>
      </trkpt>
      <trkpt lat="42.92671898" lon="13.30266899">
        <ele>951.00000</ele>
        <time>2024-05-10T18:06:07Z</time>
      </trkpt>
      <trkpt lat="42.92670297" lon="13.30273294">
        <ele>950.00000</ele>
        <time>2024-05-10T18:06:08Z</time>
      </trkpt>
      <trkpt lat="42.92668797" lon="13.30279296">
        <ele>950.00000</ele>
        <time>2024-05-10T18:06:09Z</time>
      </trkpt>
      <trkpt lat="42.92666592" lon="13.30284593">
        <ele>950.00000</ele>
        <time>2024-05-10T18:06:10Z</time>
      </trkpt>
      <trkpt lat="42.92664396" lon="13.30290092">
        <ele>950.00000</ele>
        <time>2024-05-10T18:06:11Z</time>
      </trkpt>
      <trkpt lat="42.92661999" lon="13.30296093">
        <ele>950.00000</ele>
        <time>2024-05-10T18:06:12Z</time>
      </trkpt>
      <trkpt lat="42.92659493" lon="13.30303193">
        <ele>950.00000</ele>
        <time>2024-05-10T18:06:13Z</time>
      </trkpt>
      <trkpt lat="42.92656894" lon="13.30311499">
        <ele>949.00000</ele>
        <time>2024-05-10T18:06:15Z</time>
      </trkpt>
      <trkpt lat="42.92654296" lon="13.30319797">
        <ele>948.00000</ele>
        <time>2024-05-10T18:06:16Z</time>
      </trkpt>
      <trkpt lat="42.92651899" lon="13.30328296">
        <ele>947.00000</ele>
        <time>2024-05-10T18:06:17Z</time>
      </trkpt>
      <trkpt lat="42.92649191" lon="13.30336796">
        <ele>947.00000</ele>
        <time>2024-05-10T18:06:19Z</time>
      </trkpt>
      <trkpt lat="42.92645696" lon="13.30345496">
        <ele>946.00000</ele>
        <time>2024-05-10T18:06:20Z</time>
      </trkpt>
      <trkpt lat="42.92642595" lon="13.30354096">
        <ele>946.00000</ele>
        <time>2024-05-10T18:06:22Z</time>
      </trkpt>
      <trkpt lat="42.92639393" lon="13.30363492">
        <ele>946.00000</ele>
        <time>2024-05-10T18:06:23Z</time>
      </trkpt>
      <trkpt lat="42.92635696" lon="13.30373198">
        <ele>945.00000</ele>
        <time>2024-05-10T18:06:25Z</time>
      </trkpt>
      <trkpt lat="42.92631497" lon="13.30382393">
        <ele>945.00000</ele>
        <time>2024-05-10T18:06:26Z</time>
      </trkpt>
      <trkpt lat="42.92627993" lon="13.30390691">
        <ele>944.00000</ele>
        <time>2024-05-10T18:06:28Z</time>
      </trkpt>
      <trkpt lat="42.92624498" lon="13.30398092">
        <ele>943.00000</ele>
        <time>2024-05-10T18:06:29Z</time>
      </trkpt>
      <trkpt lat="42.92621296" lon="13.30403692">
        <ele>942.00000</ele>
        <time>2024-05-10T18:06:30Z</time>
      </trkpt>
      <trkpt lat="42.92618195" lon="13.30408796">
        <ele>942.00000</ele>
        <time>2024-05-10T18:06:31Z</time>
      </trkpt>
      <trkpt lat="42.92614993" lon="13.30412694">
        <ele>941.00000</ele>
        <time>2024-05-10T18:06:32Z</time>
      </trkpt>
      <trkpt lat="42.92611992" lon="13.30416097">
        <ele>941.00000</ele>
        <time>2024-05-10T18:06:33Z</time>
      </trkpt>
      <trkpt lat="42.92608799" lon="13.30419098">
        <ele>940.00000</ele>
        <time>2024-05-10T18:06:33Z</time>
      </trkpt>
      <trkpt lat="42.92604994" lon="13.30421495">
        <ele>940.00000</ele>
        <time>2024-05-10T18:06:34Z</time>
      </trkpt>
      <trkpt lat="42.92601297" lon="13.30425099">
        <ele>939.00000</ele>
        <time>2024-05-10T18:06:35Z</time>
      </trkpt>
      <trkpt lat="42.92598397" lon="13.30430799">
        <ele>938.00000</ele>
        <time>2024-05-10T18:06:36Z</time>
      </trkpt>
      <trkpt lat="42.92597391" lon="13.30436297">
        <ele>936.00000</ele>
        <time>2024-05-10T18:06:37Z</time>
      </trkpt>
      <trkpt lat="42.92598799" lon="13.30440798">
        <ele>935.00000</ele>
        <time>2024-05-10T18:06:38Z</time>
      </trkpt>
      <trkpt lat="42.92600794" lon="13.30444193">
        <ele>933.00000</ele>
        <time>2024-05-10T18:06:38Z</time>
      </trkpt>
      <trkpt lat="42.92603493" lon="13.30445693">
        <ele>933.00000</ele>
        <time>2024-05-10T18:06:39Z</time>
      </trkpt>
      <trkpt lat="42.92606594" lon="13.30444595">
        <ele>932.00000</ele>
        <time>2024-05-10T18:06:40Z</time>
      </trkpt>
      <trkpt lat="42.92610299" lon="13.30443397">
        <ele>932.00000</ele>
        <time>2024-05-10T18:06:40Z</time>
      </trkpt>
      <trkpt lat="42.92614499" lon="13.30442894">
        <ele>932.00000</ele>
        <time>2024-05-10T18:06:41Z</time>
      </trkpt>
      <trkpt lat="42.92618899" lon="13.30442592">
        <ele>931.00000</ele>
        <time>2024-05-10T18:06:42Z</time>
      </trkpt>
      <trkpt lat="42.92623291" lon="13.30442894">
        <ele>931.00000</ele>
        <time>2024-05-10T18:06:43Z</time>
      </trkpt>
      <trkpt lat="42.92628295" lon="13.30443698">
        <ele>930.00000</ele>
        <time>2024-05-10T18:06:44Z</time>
      </trkpt>
      <trkpt lat="42.92632997" lon="13.30445693">
        <ele>929.00000</ele>
        <time>2024-05-10T18:06:45Z</time>
      </trkpt>
      <trkpt lat="42.92637691" lon="13.30449398">
        <ele>927.00000</ele>
        <time>2024-05-10T18:06:46Z</time>
      </trkpt>
      <trkpt lat="42.92643693" lon="13.30453497">
        <ele>925.00000</ele>
        <time>2024-05-10T18:06:47Z</time>
      </trkpt>
      <trkpt lat="42.92650792" lon="13.30456296">
        <ele>923.00000</ele>
        <time>2024-05-10T18:06:49Z</time>
      </trkpt>
      <trkpt lat="42.92658294" lon="13.30456892">
        <ele>921.00000</ele>
        <time>2024-05-10T18:06:50Z</time>
      </trkpt>
      <trkpt lat="42.92665595" lon="13.30454293">
        <ele>920.00000</ele>
        <time>2024-05-10T18:06:52Z</time>
      </trkpt>
      <trkpt lat="42.92672191" lon="13.30451292">
        <ele>920.00000</ele>
        <time>2024-05-10T18:06:53Z</time>
      </trkpt>
      <trkpt lat="42.92678494" lon="13.30448895">
        <ele>920.00000</ele>
        <time>2024-05-10T18:06:55Z</time>
      </trkpt>
      <trkpt lat="42.92685192" lon="13.30448292">
        <ele>919.00000</ele>
        <time>2024-05-10T18:06:56Z</time>
      </trkpt>
      <trkpt lat="42.92690891" lon="13.30448199">
        <ele>918.00000</ele>
        <time>2024-05-10T18:06:57Z</time>
      </trkpt>
      <trkpt lat="42.92695996" lon="13.30448795">
        <ele>917.00000</ele>
        <time>2024-05-10T18:06:58Z</time>
      </trkpt>
      <trkpt lat="42.92700396" lon="13.30448392">
        <ele>917.00000</ele>
        <time>2024-05-10T18:06:59Z</time>
      </trkpt>
      <trkpt lat="42.92705392" lon="13.30447194">
        <ele>917.00000</ele>
        <time>2024-05-10T18:07:00Z</time>
      </trkpt>
      <trkpt lat="42.92709692" lon="13.30443497">
        <ele>917.00000</ele>
        <time>2024-05-10T18:07:01Z</time>
      </trkpt>
      <trkpt lat="42.92714495" lon="13.30438896">
        <ele>917.00000</ele>
        <time>2024-05-10T18:07:02Z</time>
      </trkpt>
      <trkpt lat="42.92718996" lon="13.30434395">
        <ele>917.00000</ele>
        <time>2024-05-10T18:07:03Z</time>
      </trkpt>
      <trkpt lat="42.92722198" lon="13.30428594">
        <ele>918.00000</ele>
        <time>2024-05-10T18:07:04Z</time>
      </trkpt>
      <trkpt lat="42.92725693" lon="13.30422199">
        <ele>918.00000</ele>
        <time>2024-05-10T18:07:05Z</time>
      </trkpt>
      <trkpt lat="42.92728995" lon="13.30416499">
        <ele>919.00000</ele>
        <time>2024-05-10T18:07:07Z</time>
      </trkpt>
      <trkpt lat="42.92732197" lon="13.30410992">
        <ele>919.00000</ele>
        <time>2024-05-10T18:07:08Z</time>
      </trkpt>
      <trkpt lat="42.92735491" lon="13.30404999">
        <ele>919.00000</ele>
        <time>2024-05-10T18:07:09Z</time>
      </trkpt>
      <trkpt lat="42.92738392" lon="13.30398495">
        <ele>919.00000</ele>
        <time>2024-05-10T18:07:10Z</time>
      </trkpt>
      <trkpt lat="42.92741996" lon="13.30392695">
        <ele>919.00000</ele>
        <time>2024-05-10T18:07:11Z</time>
      </trkpt>
      <trkpt lat="42.92745399" lon="13.30387992">
        <ele>919.00000</ele>
        <time>2024-05-10T18:07:12Z</time>
      </trkpt>
      <trkpt lat="42.92749598" lon="13.30383894">
        <ele>919.00000</ele>
        <time>2024-05-10T18:07:13Z</time>
      </trkpt>
      <trkpt lat="42.92754099" lon="13.30378395">
        <ele>919.00000</ele>
        <time>2024-05-10T18:07:14Z</time>
      </trkpt>
      <trkpt lat="42.92758894" lon="13.30371798">
        <ele>918.00000</ele>
        <time>2024-05-10T18:07:15Z</time>
      </trkpt>
      <trkpt lat="42.92763596" lon="13.30365194">
        <ele>918.00000</ele>
        <time>2024-05-10T18:07:17Z</time>
      </trkpt>
      <trkpt lat="42.92767393" lon="13.30358698">
        <ele>918.00000</ele>
        <time>2024-05-10T18:07:18Z</time>
      </trkpt>
      <trkpt lat="42.92769799" lon="13.30351598">
        <ele>919.00000</ele>
        <time>2024-05-10T18:07:19Z</time>
      </trkpt>
      <trkpt lat="42.92772196" lon="13.30344691">
        <ele>919.00000</ele>
        <time>2024-05-10T18:07:20Z</time>
      </trkpt>
      <trkpt lat="42.92775398" lon="13.30339696">
        <ele>919.00000</ele>
        <time>2024-05-10T18:07:21Z</time>
      </trkpt>
      <trkpt lat="42.92779496" lon="13.30338698">
        <ele>918.00000</ele>
        <time>2024-05-10T18:07:22Z</time>
      </trkpt>
      <trkpt lat="42.92783293" lon="13.30340391">
        <ele>917.00000</ele>
        <time>2024-05-10T18:07:23Z</time>
      </trkpt>
      <trkpt lat="42.92787199" lon="13.30341892">
        <ele>916.00000</ele>
        <time>2024-05-10T18:07:24Z</time>
      </trkpt>
      <trkpt lat="42.92791399" lon="13.30341096">
        <ele>916.00000</ele>
        <time>2024-05-10T18:07:25Z</time>
      </trkpt>
      <trkpt lat="42.92795497" lon="13.30337894">
        <ele>915.00000</ele>
        <time>2024-05-10T18:07:26Z</time>
      </trkpt>
      <trkpt lat="42.92798599" lon="13.30334298">
        <ele>915.00000</ele>
        <time>2024-05-10T18:07:26Z</time>
      </trkpt>
      <trkpt lat="42.92801398" lon="13.30329797">
        <ele>915.00000</ele>
        <time>2024-05-10T18:07:27Z</time>
      </trkpt>
      <trkpt lat="42.92804198" lon="13.30324298">
        <ele>915.00000</ele>
        <time>2024-05-10T18:07:28Z</time>
      </trkpt>
      <trkpt lat="42.92806394" lon="13.30318992">
        <ele>915.00000</ele>
        <time>2024-05-10T18:07:29Z</time>
      </trkpt>
      <trkpt lat="42.92808791" lon="13.30313293">
        <ele>915.00000</ele>
        <time>2024-05-10T18:07:30Z</time>
      </trkpt>
      <trkpt lat="42.92810593" lon="13.30309194">
        <ele>915.00000</ele>
        <time>2024-05-10T18:07:31Z</time>
      </trkpt>
      <trkpt lat="42.92812597" lon="13.30304198">
        <ele>915.00000</ele>
        <time>2024-05-10T18:07:32Z</time>
      </trkpt>
      <trkpt lat="42.92813594" lon="13.30298792">
        <ele>916.00000</ele>
        <time>2024-05-10T18:07:32Z</time>
      </trkpt>
      <trkpt lat="42.92814499" lon="13.30292799">
        <ele>916.00000</ele>
        <time>2024-05-10T18:07:33Z</time>
      </trkpt>
      <trkpt lat="42.92816092" lon="13.30287099">
        <ele>917.00000</ele>
        <time>2024-05-10T18:07:34Z</time>
      </trkpt>
      <trkpt lat="42.92818891" lon="13.30280394">
        <ele>916.00000</ele>
        <time>2024-05-10T18:07:35Z</time>
      </trkpt>
      <trkpt lat="42.92822596" lon="13.30272599">
        <ele>916.00000</ele>
        <time>2024-05-10T18:07:37Z</time>
      </trkpt>
      <trkpt lat="42.92827491" lon="13.30264896">
        <ele>914.00000</ele>
        <time>2024-05-10T18:07:38Z</time>
      </trkpt>
      <trkpt lat="42.92832495" lon="13.30257494">
        <ele>913.00000</ele>
        <time>2024-05-10T18:07:40Z</time>
      </trkpt>
      <trkpt lat="42.92838798" lon="13.30251694">
        <ele>911.00000</ele>
        <time>2024-05-10T18:07:41Z</time>
      </trkpt>
      <trkpt lat="42.92843492" lon="13.30244595">
        <ele>909.00000</ele>
        <time>2024-05-10T18:07:43Z</time>
      </trkpt>
      <trkpt lat="42.92847197" lon="13.30237898">
        <ele>909.00000</ele>
        <time>2024-05-10T18:07:44Z</time>
      </trkpt>
      <trkpt lat="42.92849997" lon="13.30231091">
        <ele>908.00000</ele>
        <time>2024-05-10T18:07:45Z</time>
      </trkpt>
      <trkpt lat="42.92852494" lon="13.30224495">
        <ele>908.00000</ele>
        <time>2024-05-10T18:07:46Z</time>
      </trkpt>
      <trkpt lat="42.92854992" lon="13.30218996">
        <ele>907.00000</ele>
        <time>2024-05-10T18:07:47Z</time>
      </trkpt>
      <trkpt lat="42.92856794" lon="13.30212593">
        <ele>907.00000</ele>
        <time>2024-05-10T18:07:48Z</time>
      </trkpt>
      <trkpt lat="42.92859493" lon="13.30207195">
        <ele>907.00000</ele>
        <time>2024-05-10T18:07:49Z</time>
      </trkpt>
      <trkpt lat="42.92862896" lon="13.30200196">
        <ele>907.00000</ele>
        <time>2024-05-10T18:07:50Z</time>
      </trkpt>
      <trkpt lat="42.92865796" lon="13.30192895">
        <ele>907.00000</ele>
        <time>2024-05-10T18:07:51Z</time>
      </trkpt>
      <trkpt lat="42.92869199" lon="13.30186399">
        <ele>907.00000</ele>
        <time>2024-05-10T18:07:53Z</time>
      </trkpt>
      <trkpt lat="42.92872896" lon="13.30177598">
        <ele>907.00000</ele>
        <time>2024-05-10T18:07:54Z</time>
      </trkpt>
      <trkpt lat="42.92875494" lon="13.30168294">
        <ele>907.00000</ele>
        <time>2024-05-10T18:07:56Z</time>
      </trkpt>
      <trkpt lat="42.92877296" lon="13.30158999">
        <ele>907.00000</ele>
        <time>2024-05-10T18:07:57Z</time>
      </trkpt>
      <trkpt lat="42.92878797" lon="13.30150893">
        <ele>908.00000</ele>
        <time>2024-05-10T18:07:58Z</time>
      </trkpt>
      <trkpt lat="42.92879895" lon="13.30143794">
        <ele>908.00000</ele>
        <time>2024-05-10T18:07:59Z</time>
      </trkpt>
      <trkpt lat="42.92881194" lon="13.30137893">
        <ele>908.00000</ele>
        <time>2024-05-10T18:08:00Z</time>
      </trkpt>
      <trkpt lat="42.92881295" lon="13.30133392">
        <ele>908.00000</ele>
        <time>2024-05-10T18:08:01Z</time>
      </trkpt>
      <trkpt lat="42.92881295" lon="13.30128991">
        <ele>909.00000</ele>
        <time>2024-05-10T18:08:01Z</time>
      </trkpt>
      <trkpt lat="42.92881295" lon="13.30126494">
        <ele>910.00000</ele>
        <time>2024-05-10T18:08:02Z</time>
      </trkpt>
      <trkpt lat="42.92881797" lon="13.30123795">
        <ele>910.00000</ele>
        <time>2024-05-10T18:08:02Z</time>
      </trkpt>
      <trkpt lat="42.92881999" lon="13.30121196">
        <ele>910.00000</ele>
        <time>2024-05-10T18:08:03Z</time>
      </trkpt>
      <trkpt lat="42.92882191" lon="13.30118992">
        <ele>911.00000</ele>
        <time>2024-05-10T18:08:03Z</time>
      </trkpt>
      <trkpt lat="42.92883197" lon="13.30116192">
        <ele>910.00000</ele>
        <time>2024-05-10T18:08:03Z</time>
      </trkpt>
      <trkpt lat="42.92884396" lon="13.30114499">
        <ele>910.00000</ele>
        <time>2024-05-10T18:08:04Z</time>
      </trkpt>
      <trkpt lat="42.92885796" lon="13.30111691">
        <ele>910.00000</ele>
        <time>2024-05-10T18:08:04Z</time>
      </trkpt>
      <trkpt lat="42.92887195" lon="13.30109898">
        <ele>909.00000</ele>
        <time>2024-05-10T18:08:05Z</time>
      </trkpt>
      <trkpt lat="42.92889199" lon="13.30107592">
        <ele>909.00000</ele>
        <time>2024-05-10T18:08:05Z</time>
      </trkpt>
      <trkpt lat="42.92890096" lon="13.30104491">
        <ele>908.00000</ele>
        <time>2024-05-10T18:08:06Z</time>
      </trkpt>
      <trkpt lat="42.92890699" lon="13.30101499">
        <ele>909.00000</ele>
        <time>2024-05-10T18:08:06Z</time>
      </trkpt>
      <trkpt lat="42.92891294" lon="13.30098791">
        <ele>908.00000</ele>
        <time>2024-05-10T18:08:06Z</time>
      </trkpt>
      <trkpt lat="42.92891596" lon="13.30096294">
        <ele>909.00000</ele>
        <time>2024-05-10T18:08:07Z</time>
      </trkpt>
      <trkpt lat="42.92892292" lon="13.30093595">
        <ele>908.00000</ele>
        <time>2024-05-10T18:08:07Z</time>
      </trkpt>
      <trkpt lat="42.92892694" lon="13.30091197">
        <ele>908.00000</ele>
        <time>2024-05-10T18:08:08Z</time>
      </trkpt>
      <trkpt lat="42.92893096" lon="13.30088993">
        <ele>909.00000</ele>
        <time>2024-05-10T18:08:08Z</time>
      </trkpt>
      <trkpt lat="42.92893993" lon="13.30086495">
        <ele>908.00000</ele>
        <time>2024-05-10T18:08:08Z</time>
      </trkpt>
      <trkpt lat="42.92894094" lon="13.30083997">
        <ele>909.00000</ele>
        <time>2024-05-10T18:08:09Z</time>
      </trkpt>
      <trkpt lat="42.92893993" lon="13.30080695">
        <ele>909.00000</ele>
        <time>2024-05-10T18:08:09Z</time>
      </trkpt>
      <trkpt lat="42.92894194" lon="13.30078298">
        <ele>909.00000</ele>
        <time>2024-05-10T18:08:10Z</time>
      </trkpt>
      <trkpt lat="42.92894697" lon="13.30074995">
        <ele>909.00000</ele>
        <time>2024-05-10T18:08:10Z</time>
      </trkpt>
      <trkpt lat="42.92895091" lon="13.30071793">
        <ele>909.00000</ele>
        <time>2024-05-10T18:08:11Z</time>
      </trkpt>
      <trkpt lat="42.92895091" lon="13.30069396">
        <ele>910.00000</ele>
        <time>2024-05-10T18:08:11Z</time>
      </trkpt>
      <trkpt lat="42.92894597" lon="13.30066798">
        <ele>910.00000</ele>
        <time>2024-05-10T18:08:11Z</time>
      </trkpt>
      <trkpt lat="42.92895695" lon="13.30063998">
        <ele>910.00000</ele>
        <time>2024-05-10T18:08:12Z</time>
      </trkpt>
      <trkpt lat="42.92896198" lon="13.30061492">
        <ele>910.00000</ele>
        <time>2024-05-10T18:08:12Z</time>
      </trkpt>
      <trkpt lat="42.92896893" lon="13.30058994">
        <ele>910.00000</ele>
        <time>2024-05-10T18:08:13Z</time>
      </trkpt>
      <trkpt lat="42.92896893" lon="13.30055993">
        <ele>910.00000</ele>
        <time>2024-05-10T18:08:13Z</time>
      </trkpt>
      <trkpt lat="42.92897094" lon="13.30053093">
        <ele>911.00000</ele>
        <time>2024-05-10T18:08:13Z</time>
      </trkpt>
      <trkpt lat="42.92897497" lon="13.30050294">
        <ele>911.00000</ele>
        <time>2024-05-10T18:08:14Z</time>
      </trkpt>
      <trkpt lat="42.92897597" lon="13.30047796">
        <ele>911.00000</ele>
        <time>2024-05-10T18:08:14Z</time>
      </trkpt>
      <trkpt lat="42.92898092" lon="13.30044896">
        <ele>912.00000</ele>
        <time>2024-05-10T18:08:15Z</time>
      </trkpt>
      <trkpt lat="42.92898293" lon="13.30041795">
        <ele>912.00000</ele>
        <time>2024-05-10T18:08:15Z</time>
      </trkpt>
      <trkpt lat="42.92898796" lon="13.30038391">
        <ele>913.00000</ele>
        <time>2024-05-10T18:08:16Z</time>
      </trkpt>
      <trkpt lat="42.92899693" lon="13.30036296">
        <ele>913.00000</ele>
        <time>2024-05-10T18:08:16Z</time>
      </trkpt>
      <trkpt lat="42.92899793" lon="13.30034293">
        <ele>913.00000</ele>
        <time>2024-05-10T18:08:16Z</time>
      </trkpt>
      <trkpt lat="42.92900196" lon="13.30032893">
        <ele>914.00000</ele>
        <time>2024-05-10T18:08:16Z</time>
      </trkpt>
      <trkpt lat="42.92901394" lon="13.30030999">
        <ele>913.00000</ele>
        <time>2024-05-10T18:08:17Z</time>
      </trkpt>
      <trkpt lat="42.92902199" lon="13.30029297">
        <ele>913.00000</ele>
        <time>2024-05-10T18:08:17Z</time>
      </trkpt>
      <trkpt lat="42.92903297" lon="13.30027294">
        <ele>913.00000</ele>
        <time>2024-05-10T18:08:18Z</time>
      </trkpt>
      <trkpt lat="42.92904496" lon="13.30024997">
        <ele>913.00000</ele>
        <time>2024-05-10T18:08:18Z</time>
      </trkpt>
      <trkpt lat="42.92906398" lon="13.30022793">
        <ele>913.00000</ele>
        <time>2024-05-10T18:08:18Z</time>
      </trkpt>
      <trkpt lat="42.92907999" lon="13.30020999">
        <ele>912.00000</ele>
        <time>2024-05-10T18:08:19Z</time>
      </trkpt>
      <trkpt lat="42.92910095" lon="13.30018795">
        <ele>912.00000</ele>
        <time>2024-05-10T18:08:19Z</time>
      </trkpt>
      <trkpt lat="42.92912593" lon="13.30016498">
        <ele>911.00000</ele>
        <time>2024-05-10T18:08:20Z</time>
      </trkpt>
      <trkpt lat="42.92915199" lon="13.30015492">
        <ele>911.00000</ele>
        <time>2024-05-10T18:08:21Z</time>
      </trkpt>
      <trkpt lat="42.92917597" lon="13.30014294">
        <ele>910.00000</ele>
        <time>2024-05-10T18:08:21Z</time>
      </trkpt>
      <trkpt lat="42.92919692" lon="13.30012693">
        <ele>910.00000</ele>
        <time>2024-05-10T18:08:22Z</time>
      </trkpt>
      <trkpt lat="42.92922492" lon="13.30011494">
        <ele>910.00000</ele>
        <time>2024-05-10T18:08:22Z</time>
      </trkpt>
      <trkpt lat="42.92925694" lon="13.30011293">
        <ele>910.00000</ele>
        <time>2024-05-10T18:08:23Z</time>
      </trkpt>
      <trkpt lat="42.92929298" lon="13.30011192">
        <ele>909.00000</ele>
        <time>2024-05-10T18:08:23Z</time>
      </trkpt>
      <trkpt lat="42.92932793" lon="13.30010497">
        <ele>909.00000</ele>
        <time>2024-05-10T18:08:24Z</time>
      </trkpt>
      <trkpt lat="42.92936196" lon="13.30009398">
        <ele>909.00000</ele>
        <time>2024-05-10T18:08:25Z</time>
      </trkpt>
      <trkpt lat="42.92939499" lon="13.30009298">
        <ele>908.00000</ele>
        <time>2024-05-10T18:08:26Z</time>
      </trkpt>
      <trkpt lat="42.92942793" lon="13.30008393">
        <ele>908.00000</ele>
        <time>2024-05-10T18:08:26Z</time>
      </trkpt>
      <trkpt lat="42.92946296" lon="13.30007697">
        <ele>908.00000</ele>
        <time>2024-05-10T18:08:27Z</time>
      </trkpt>
      <trkpt lat="42.92949196" lon="13.30006398">
        <ele>908.00000</ele>
        <time>2024-05-10T18:08:28Z</time>
      </trkpt>
      <trkpt lat="42.92952893" lon="13.30005794">
        <ele>907.00000</ele>
        <time>2024-05-10T18:08:28Z</time>
      </trkpt>
      <trkpt lat="42.92956598" lon="13.30004596">
        <ele>907.00000</ele>
        <time>2024-05-10T18:08:29Z</time>
      </trkpt>
      <trkpt lat="42.92960898" lon="13.30003296">
        <ele>907.00000</ele>
        <time>2024-05-10T18:08:30Z</time>
      </trkpt>
      <trkpt lat="42.92965591" lon="13.30001796">
        <ele>907.00000</ele>
        <time>2024-05-10T18:08:31Z</time>
      </trkpt>
      <trkpt lat="42.92970092" lon="13.29999692">
        <ele>907.00000</ele>
        <time>2024-05-10T18:08:32Z</time>
      </trkpt>
      <trkpt lat="42.92974795" lon="13.29997496">
        <ele>906.00000</ele>
        <time>2024-05-10T18:08:33Z</time>
      </trkpt>
      <trkpt lat="42.92977896" lon="13.29995895">
        <ele>906.00000</ele>
        <time>2024-05-10T18:08:33Z</time>
      </trkpt>
      <trkpt lat="42.92981098" lon="13.29994596">
        <ele>906.00000</ele>
        <time>2024-05-10T18:08:34Z</time>
      </trkpt>
      <trkpt lat="42.92984694" lon="13.29993096">
        <ele>906.00000</ele>
        <time>2024-05-10T18:08:35Z</time>
      </trkpt>
      <trkpt lat="42.92988499" lon="13.29991394">
        <ele>905.00000</ele>
        <time>2024-05-10T18:08:36Z</time>
      </trkpt>
      <trkpt lat="42.92991994" lon="13.29989491">
        <ele>905.00000</ele>
        <time>2024-05-10T18:08:36Z</time>
      </trkpt>
      <trkpt lat="42.92995397" lon="13.29986692">
        <ele>905.00000</ele>
        <time>2024-05-10T18:08:37Z</time>
      </trkpt>
      <trkpt lat="42.92998298" lon="13.29983297">
        <ele>904.00000</ele>
        <time>2024-05-10T18:08:38Z</time>
      </trkpt>
      <trkpt lat="42.93001298" lon="13.29980498">
        <ele>904.00000</ele>
        <time>2024-05-10T18:08:39Z</time>
      </trkpt>
      <trkpt lat="42.93003997" lon="13.29977497">
        <ele>904.00000</ele>
        <time>2024-05-10T18:08:39Z</time>
      </trkpt>
      <trkpt lat="42.93006294" lon="13.29974295">
        <ele>904.00000</ele>
        <time>2024-05-10T18:08:40Z</time>
      </trkpt>
      <trkpt lat="42.93008599" lon="13.29970892">
        <ele>903.00000</ele>
        <time>2024-05-10T18:08:41Z</time>
      </trkpt>
      <trkpt lat="42.93010393" lon="13.29967296">
        <ele>903.00000</ele>
        <time>2024-05-10T18:08:41Z</time>
      </trkpt>
      <trkpt lat="42.93012497" lon="13.29963692">
        <ele>903.00000</ele>
        <time>2024-05-10T18:08:42Z</time>
      </trkpt>
      <trkpt lat="42.93014299" lon="13.29960096">
        <ele>903.00000</ele>
        <time>2024-05-10T18:08:43Z</time>
      </trkpt>
      <trkpt lat="42.93015891" lon="13.29955997">
        <ele>903.00000</ele>
        <time>2024-05-10T18:08:43Z</time>
      </trkpt>
      <trkpt lat="42.93016897" lon="13.29951999">
        <ele>903.00000</ele>
        <time>2024-05-10T18:08:44Z</time>
      </trkpt>
      <trkpt lat="42.93017199" lon="13.29948395">
        <ele>903.00000</ele>
        <time>2024-05-10T18:08:45Z</time>
      </trkpt>
      <trkpt lat="42.93017492" lon="13.29943492">
        <ele>903.00000</ele>
        <time>2024-05-10T18:08:45Z</time>
      </trkpt>
      <trkpt lat="42.93016193" lon="13.29938597">
        <ele>903.00000</ele>
        <time>2024-05-10T18:08:46Z</time>
      </trkpt>
      <trkpt lat="42.93014198" lon="13.29934297">
        <ele>903.00000</ele>
        <time>2024-05-10T18:08:47Z</time>
      </trkpt>
      <trkpt lat="42.93010493" lon="13.29930097">
        <ele>903.00000</ele>
        <time>2024-05-10T18:08:48Z</time>
      </trkpt>
      <trkpt lat="42.93005892" lon="13.29925194">
        <ele>903.00000</ele>
        <time>2024-05-10T18:08:49Z</time>
      </trkpt>
      <trkpt lat="42.93000695" lon="13.29919695">
        <ele>904.00000</ele>
        <time>2024-05-10T18:08:50Z</time>
      </trkpt>
      <trkpt lat="42.92994492" lon="13.29914792">
        <ele>904.00000</ele>
        <time>2024-05-10T18:08:52Z</time>
      </trkpt>
      <trkpt lat="42.92989094" lon="13.29909796">
        <ele>904.00000</ele>
        <time>2024-05-10T18:08:53Z</time>
      </trkpt>
      <trkpt lat="42.92984593" lon="13.29905597">
        <ele>904.00000</ele>
        <time>2024-05-10T18:08:54Z</time>
      </trkpt>
      <trkpt lat="42.92979991" lon="13.29902295">
        <ele>904.00000</ele>
        <time>2024-05-10T18:08:55Z</time>
      </trkpt>
      <trkpt lat="42.92975499" lon="13.29900895">
        <ele>904.00000</ele>
        <time>2024-05-10T18:08:56Z</time>
      </trkpt>
      <trkpt lat="42.92970998" lon="13.29900199">
        <ele>905.00000</ele>
        <time>2024-05-10T18:08:57Z</time>
      </trkpt>
      <trkpt lat="42.92966497" lon="13.29899998">
        <ele>906.00000</ele>
        <time>2024-05-10T18:08:58Z</time>
      </trkpt>
      <trkpt lat="42.92962398" lon="13.29898891">
        <ele>906.00000</ele>
        <time>2024-05-10T18:08:59Z</time>
      </trkpt>
      <trkpt lat="42.92958693" lon="13.29897198">
        <ele>907.00000</ele>
        <time>2024-05-10T18:08:59Z</time>
      </trkpt>
      <trkpt lat="42.92956095" lon="13.29894499">
        <ele>907.00000</ele>
        <time>2024-05-10T18:09:00Z</time>
      </trkpt>
      <trkpt lat="42.92953798" lon="13.29889998">
        <ele>907.00000</ele>
        <time>2024-05-10T18:09:01Z</time>
      </trkpt>
      <trkpt lat="42.92953496" lon="13.29884299">
        <ele>906.00000</ele>
        <time>2024-05-10T18:09:02Z</time>
      </trkpt>
      <trkpt lat="42.92955097" lon="13.29879194">
        <ele>905.00000</ele>
        <time>2024-05-10T18:09:03Z</time>
      </trkpt>
      <trkpt lat="42.92956598" lon="13.29875196">
        <ele>904.00000</ele>
        <time>2024-05-10T18:09:03Z</time>
      </trkpt>
      <trkpt lat="42.92956992" lon="13.29871994">
        <ele>904.00000</ele>
        <time>2024-05-10T18:09:04Z</time>
      </trkpt>
      <trkpt lat="42.92957394" lon="13.29869798">
        <ele>903.00000</ele>
        <time>2024-05-10T18:09:04Z</time>
      </trkpt>
      <trkpt lat="42.92957696" lon="13.29867493">
        <ele>903.00000</ele>
        <time>2024-05-10T18:09:04Z</time>
      </trkpt>
      <trkpt lat="42.92957796" lon="13.29865699">
        <ele>903.00000</ele>
        <time>2024-05-10T18:09:05Z</time>
      </trkpt>
      <trkpt lat="42.92957796" lon="13.29865096">
        <ele>903.00000</ele>
        <time>2024-05-10T18:09:05Z</time>
      </trkpt>
      <trkpt lat="42.92957696" lon="13.29864995">
        <ele>903.00000</ele>
        <time>2024-05-10T18:09:05Z</time>
      </trkpt>
      <trkpt lat="42.92958693" lon="13.29852296">
        <ele>901.00000</ele>
        <time>2024-05-10T18:09:07Z</time>
      </trkpt>
      <trkpt lat="42.92958894" lon="13.29849497">
        <ele>901.00000</ele>
        <time>2024-05-10T18:09:07Z</time>
      </trkpt>
      <trkpt lat="42.92958894" lon="13.29845599">
        <ele>901.00000</ele>
        <time>2024-05-10T18:09:08Z</time>
      </trkpt>
      <trkpt lat="42.92959297" lon="13.29841299">
        <ele>900.00000</ele>
        <time>2024-05-10T18:09:08Z</time>
      </trkpt>
      <trkpt lat="42.92959992" lon="13.29836999">
        <ele>900.00000</ele>
        <time>2024-05-10T18:09:09Z</time>
      </trkpt>
      <trkpt lat="42.92961392" lon="13.29833094">
        <ele>899.00000</ele>
        <time>2024-05-10T18:09:10Z</time>
      </trkpt>
      <trkpt lat="42.92962498" lon="13.29829397">
        <ele>899.00000</ele>
        <time>2024-05-10T18:09:10Z</time>
      </trkpt>
      <trkpt lat="42.92963798" lon="13.29825692">
        <ele>898.00000</ele>
        <time>2024-05-10T18:09:11Z</time>
      </trkpt>
      <trkpt lat="42.92965692" lon="13.29822893">
        <ele>897.00000</ele>
        <time>2024-05-10T18:09:11Z</time>
      </trkpt>
      <trkpt lat="42.92966798" lon="13.29819498">
        <ele>897.00000</ele>
        <time>2024-05-10T18:09:12Z</time>
      </trkpt>
      <trkpt lat="42.92967796" lon="13.29816799">
        <ele>896.00000</ele>
        <time>2024-05-10T18:09:12Z</time>
      </trkpt>
      <trkpt lat="42.92969196" lon="13.29813798">
        <ele>896.00000</ele>
        <time>2024-05-10T18:09:13Z</time>
      </trkpt>
      <trkpt lat="42.92971492" lon="13.29810898">
        <ele>895.00000</ele>
        <time>2024-05-10T18:09:13Z</time>
      </trkpt>
      <trkpt lat="42.92974895" lon="13.29808493">
        <ele>894.00000</ele>
        <time>2024-05-10T18:09:14Z</time>
      </trkpt>
      <trkpt lat="42.92978994" lon="13.29808099">
        <ele>892.00000</ele>
        <time>2024-05-10T18:09:15Z</time>
      </trkpt>
      <trkpt lat="42.92981794" lon="13.29809691">
        <ele>891.00000</ele>
        <time>2024-05-10T18:09:16Z</time>
      </trkpt>
      <trkpt lat="42.92983093" lon="13.29812994">
        <ele>891.00000</ele>
        <time>2024-05-10T18:09:16Z</time>
      </trkpt>
      <trkpt lat="42.92984593" lon="13.29816891">
        <ele>891.00000</ele>
        <time>2024-05-10T18:09:17Z</time>
      </trkpt>
      <trkpt lat="42.92984493" lon="13.29820194">
        <ele>891.00000</ele>
        <time>2024-05-10T18:09:17Z</time>
      </trkpt>
      <trkpt lat="42.92985096" lon="13.29823396">
        <ele>891.00000</ele>
        <time>2024-05-10T18:09:18Z</time>
      </trkpt>
      <trkpt lat="42.92986697" lon="13.29827193">
        <ele>891.00000</ele>
        <time>2024-05-10T18:09:18Z</time>
      </trkpt>
      <trkpt lat="42.92988893" lon="13.29831291">
        <ele>891.00000</ele>
        <time>2024-05-10T18:09:19Z</time>
      </trkpt>
      <trkpt lat="42.92991098" lon="13.29836999">
        <ele>891.00000</ele>
        <time>2024-05-10T18:09:20Z</time>
      </trkpt>
      <trkpt lat="42.92993193" lon="13.29841299">
        <ele>891.00000</ele>
        <time>2024-05-10T18:09:21Z</time>
      </trkpt>
      <trkpt lat="42.92995791" lon="13.29846396">
        <ele>891.00000</ele>
        <time>2024-05-10T18:09:22Z</time>
      </trkpt>
      <trkpt lat="42.92998197" lon="13.29850796">
        <ele>891.00000</ele>
        <time>2024-05-10T18:09:23Z</time>
      </trkpt>
      <trkpt lat="42.93001592" lon="13.29854694">
        <ele>891.00000</ele>
        <time>2024-05-10T18:09:23Z</time>
      </trkpt>
      <trkpt lat="42.93004592" lon="13.29856395">
        <ele>890.00000</ele>
        <time>2024-05-10T18:09:24Z</time>
      </trkpt>
      <trkpt lat="42.93007694" lon="13.29856093">
        <ele>890.00000</ele>
        <time>2024-05-10T18:09:25Z</time>
      </trkpt>
      <trkpt lat="42.93011197" lon="13.29855197">
        <ele>888.00000</ele>
        <time>2024-05-10T18:09:25Z</time>
      </trkpt>
      <trkpt lat="42.93015397" lon="13.29853395">
        <ele>887.00000</ele>
        <time>2024-05-10T18:09:26Z</time>
      </trkpt>
      <trkpt lat="42.93021096" lon="13.29853294">
        <ele>885.00000</ele>
        <time>2024-05-10T18:09:27Z</time>
      </trkpt>
      <trkpt lat="42.93025991" lon="13.29852598">
        <ele>884.00000</ele>
        <time>2024-05-10T18:09:28Z</time>
      </trkpt>
      <trkpt lat="42.93031096" lon="13.29852992">
        <ele>882.00000</ele>
        <time>2024-05-10T18:09:29Z</time>
      </trkpt>
      <trkpt lat="42.93035999" lon="13.29852992">
        <ele>881.00000</ele>
        <time>2024-05-10T18:09:30Z</time>
      </trkpt>
      <trkpt lat="42.93040693" lon="13.29853294">
        <ele>880.00000</ele>
        <time>2024-05-10T18:09:31Z</time>
      </trkpt>
      <trkpt lat="42.93046292" lon="13.29853093">
        <ele>878.00000</ele>
        <time>2024-05-10T18:09:32Z</time>
      </trkpt>
      <trkpt lat="42.93051699" lon="13.29854392">
        <ele>877.00000</ele>
        <time>2024-05-10T18:09:34Z</time>
      </trkpt>
      <trkpt lat="42.93056996" lon="13.29855892">
        <ele>876.00000</ele>
        <time>2024-05-10T18:09:35Z</time>
      </trkpt>
      <trkpt lat="42.93063794" lon="13.29857594">
        <ele>874.00000</ele>
        <time>2024-05-10T18:09:36Z</time>
      </trkpt>
      <trkpt lat="42.93069192" lon="13.29859396">
        <ele>873.00000</ele>
        <time>2024-05-10T18:09:37Z</time>
      </trkpt>
      <trkpt lat="42.93073399" lon="13.29860192">
        <ele>872.00000</ele>
        <time>2024-05-10T18:09:38Z</time>
      </trkpt>
      <trkpt lat="42.93076694" lon="13.29861491">
        <ele>871.00000</ele>
        <time>2024-05-10T18:09:39Z</time>
      </trkpt>
      <trkpt lat="42.93079392" lon="13.29863294">
        <ele>871.00000</ele>
        <time>2024-05-10T18:09:39Z</time>
      </trkpt>
      <trkpt lat="42.93082192" lon="13.29864693">
        <ele>870.00000</ele>
        <time>2024-05-10T18:09:40Z</time>
      </trkpt>
      <trkpt lat="42.93086199" lon="13.29866395">
        <ele>869.00000</ele>
        <time>2024-05-10T18:09:41Z</time>
      </trkpt>
      <trkpt lat="42.93089895" lon="13.29867895">
        <ele>868.00000</ele>
        <time>2024-05-10T18:09:42Z</time>
      </trkpt>
      <trkpt lat="42.93093994" lon="13.29870695">
        <ele>867.00000</ele>
        <time>2024-05-10T18:09:42Z</time>
      </trkpt>
      <trkpt lat="42.93098394" lon="13.29874098">
        <ele>867.00000</ele>
        <time>2024-05-10T18:09:43Z</time>
      </trkpt>
      <trkpt lat="42.93102594" lon="13.29876998">
        <ele>866.00000</ele>
        <time>2024-05-10T18:09:44Z</time>
      </trkpt>
      <trkpt lat="42.93106793" lon="13.29879797">
        <ele>864.00000</ele>
        <time>2024-05-10T18:09:45Z</time>
      </trkpt>
      <trkpt lat="42.93110196" lon="13.29883293">
        <ele>864.00000</ele>
        <time>2024-05-10T18:09:46Z</time>
      </trkpt>
      <trkpt lat="42.93114496" lon="13.29887199">
        <ele>863.00000</ele>
        <time>2024-05-10T18:09:47Z</time>
      </trkpt>
      <trkpt lat="42.93117991" lon="13.29890795">
        <ele>862.00000</ele>
        <time>2024-05-10T18:09:48Z</time>
      </trkpt>
      <trkpt lat="42.93120799" lon="13.29894399">
        <ele>862.00000</ele>
        <time>2024-05-10T18:09:49Z</time>
      </trkpt>
      <trkpt lat="42.93123297" lon="13.29897399">
        <ele>861.00000</ele>
        <time>2024-05-10T18:09:50Z</time>
      </trkpt>
      <trkpt lat="42.93124998" lon="13.29899696">
        <ele>861.00000</ele>
        <time>2024-05-10T18:09:50Z</time>
      </trkpt>
      <trkpt lat="42.93126599" lon="13.29902697">
        <ele>860.00000</ele>
        <time>2024-05-10T18:09:51Z</time>
      </trkpt>
      <trkpt lat="42.93127697" lon="13.29906494">
        <ele>860.00000</ele>
        <time>2024-05-10T18:09:51Z</time>
      </trkpt>
      <trkpt lat="42.93128192" lon="13.29911297">
        <ele>860.00000</ele>
        <time>2024-05-10T18:09:52Z</time>
      </trkpt>
      <trkpt lat="42.93127798" lon="13.29915898">
        <ele>861.00000</ele>
        <time>2024-05-10T18:09:53Z</time>
      </trkpt>
      <trkpt lat="42.93127194" lon="13.29920793">
        <ele>861.00000</ele>
        <time>2024-05-10T18:09:53Z</time>
      </trkpt>
      <trkpt lat="42.93126599" lon="13.29925596">
        <ele>861.00000</ele>
        <time>2024-05-10T18:09:54Z</time>
      </trkpt>
      <trkpt lat="42.93125795" lon="13.29930097">
        <ele>861.00000</ele>
        <time>2024-05-10T18:09:55Z</time>
      </trkpt>
      <trkpt lat="42.93124797" lon="13.29934297">
        <ele>861.00000</ele>
        <time>2024-05-10T18:09:55Z</time>
      </trkpt>
      <trkpt lat="42.93123096" lon="13.29937892">
        <ele>861.00000</ele>
        <time>2024-05-10T18:09:56Z</time>
      </trkpt>
      <trkpt lat="42.93121696" lon="13.29941497">
        <ele>862.00000</ele>
        <time>2024-05-10T18:09:57Z</time>
      </trkpt>
      <trkpt lat="42.93120891" lon="13.29944799">
        <ele>862.00000</ele>
        <time>2024-05-10T18:09:57Z</time>
      </trkpt>
      <trkpt lat="42.93120296" lon="13.29948898">
        <ele>861.00000</ele>
        <time>2024-05-10T18:09:58Z</time>
      </trkpt>
      <trkpt lat="42.93119299" lon="13.29953198">
        <ele>861.00000</ele>
        <time>2024-05-10T18:09:58Z</time>
      </trkpt>
      <trkpt lat="42.93117899" lon="13.29957196">
        <ele>861.00000</ele>
        <time>2024-05-10T18:09:59Z</time>
      </trkpt>
      <trkpt lat="42.93116591" lon="13.29961798">
        <ele>861.00000</ele>
        <time>2024-05-10T18:10:00Z</time>
      </trkpt>
      <trkpt lat="42.93114898" lon="13.29966399">
        <ele>862.00000</ele>
        <time>2024-05-10T18:10:00Z</time>
      </trkpt>
      <trkpt lat="42.93112794" lon="13.29970791">
        <ele>862.00000</ele>
        <time>2024-05-10T18:10:01Z</time>
      </trkpt>
      <trkpt lat="42.93110699" lon="13.29974899">
        <ele>862.00000</ele>
        <time>2024-05-10T18:10:02Z</time>
      </trkpt>
      <trkpt lat="42.93108796" lon="13.29979391">
        <ele>863.00000</ele>
        <time>2024-05-10T18:10:03Z</time>
      </trkpt>
      <trkpt lat="42.93106994" lon="13.29984295">
        <ele>864.00000</ele>
        <time>2024-05-10T18:10:04Z</time>
      </trkpt>
      <trkpt lat="42.93105494" lon="13.29989994">
        <ele>864.00000</ele>
        <time>2024-05-10T18:10:04Z</time>
      </trkpt>
      <trkpt lat="42.93103993" lon="13.29995895">
        <ele>864.00000</ele>
        <time>2024-05-10T18:10:05Z</time>
      </trkpt>
      <trkpt lat="42.93102191" lon="13.30002299">
        <ele>864.00000</ele>
        <time>2024-05-10T18:10:06Z</time>
      </trkpt>
      <trkpt lat="42.93100599" lon="13.30008493">
        <ele>864.00000</ele>
        <time>2024-05-10T18:10:07Z</time>
      </trkpt>
      <trkpt lat="42.93099492" lon="13.30014294">
        <ele>864.00000</ele>
        <time>2024-05-10T18:10:08Z</time>
      </trkpt>
      <trkpt lat="42.93098595" lon="13.30021494">
        <ele>864.00000</ele>
        <time>2024-05-10T18:10:09Z</time>
      </trkpt>
      <trkpt lat="42.93097799" lon="13.30028995">
        <ele>864.00000</ele>
        <time>2024-05-10T18:10:10Z</time>
      </trkpt>
      <trkpt lat="42.93097296" lon="13.30036799">
        <ele>864.00000</ele>
        <time>2024-05-10T18:10:12Z</time>
      </trkpt>
      <trkpt lat="42.93096299" lon="13.30044393">
        <ele>864.00000</ele>
        <time>2024-05-10T18:10:13Z</time>
      </trkpt>
      <trkpt lat="42.93095092" lon="13.30052096">
        <ele>864.00000</ele>
        <time>2024-05-10T18:10:14Z</time>
      </trkpt>
      <trkpt lat="42.93093994" lon="13.30060595">
        <ele>864.00000</ele>
        <time>2024-05-10T18:10:15Z</time>
      </trkpt>
      <trkpt lat="42.93093399" lon="13.30069296">
        <ele>863.00000</ele>
        <time>2024-05-10T18:10:16Z</time>
      </trkpt>
      <trkpt lat="42.93092292" lon="13.30079094">
        <ele>862.00000</ele>
        <time>2024-05-10T18:10:18Z</time>
      </trkpt>
      <trkpt lat="42.93091395" lon="13.30088792">
        <ele>861.00000</ele>
        <time>2024-05-10T18:10:19Z</time>
      </trkpt>
      <trkpt lat="42.93090197" lon="13.30098498">
        <ele>860.00000</ele>
        <time>2024-05-10T18:10:21Z</time>
      </trkpt>
      <trkpt lat="42.93089292" lon="13.30108297">
        <ele>858.00000</ele>
        <time>2024-05-10T18:10:22Z</time>
      </trkpt>
      <trkpt lat="42.93088193" lon="13.30117299">
        <ele>857.00000</ele>
        <time>2024-05-10T18:10:23Z</time>
      </trkpt>
      <trkpt lat="42.93086995" lon="13.30125597">
        <ele>856.00000</ele>
        <time>2024-05-10T18:10:25Z</time>
      </trkpt>
      <trkpt lat="42.93084992" lon="13.30133995">
        <ele>855.00000</ele>
        <time>2024-05-10T18:10:26Z</time>
      </trkpt>
      <trkpt lat="42.93083399" lon="13.30140793">
        <ele>854.00000</ele>
        <time>2024-05-10T18:10:27Z</time>
      </trkpt>
      <trkpt lat="42.93079996" lon="13.30148295">
        <ele>854.00000</ele>
        <time>2024-05-10T18:10:28Z</time>
      </trkpt>
      <trkpt lat="42.93076492" lon="13.30155093">
        <ele>853.00000</ele>
        <time>2024-05-10T18:10:30Z</time>
      </trkpt>
      <trkpt lat="42.93072192" lon="13.30161295">
        <ele>853.00000</ele>
        <time>2024-05-10T18:10:31Z</time>
      </trkpt>
      <trkpt lat="42.93067599" lon="13.30166392">
        <ele>854.00000</ele>
        <time>2024-05-10T18:10:32Z</time>
      </trkpt>
      <trkpt lat="42.93062897" lon="13.30172494">
        <ele>854.00000</ele>
        <time>2024-05-10T18:10:33Z</time>
      </trkpt>
      <trkpt lat="42.93057993" lon="13.30178696">
        <ele>854.00000</ele>
        <time>2024-05-10T18:10:35Z</time>
      </trkpt>
      <trkpt lat="42.93053098" lon="13.30184698">
        <ele>854.00000</ele>
        <time>2024-05-10T18:10:36Z</time>
      </trkpt>
      <trkpt lat="42.93048094" lon="13.30191696">
        <ele>854.00000</ele>
        <time>2024-05-10T18:10:37Z</time>
      </trkpt>
      <trkpt lat="42.93043099" lon="13.30198494">
        <ele>854.00000</ele>
        <time>2024-05-10T18:10:39Z</time>
      </trkpt>
      <trkpt lat="42.93039193" lon="13.30205292">
        <ele>854.00000</ele>
        <time>2024-05-10T18:10:40Z</time>
      </trkpt>
      <trkpt lat="42.93036393" lon="13.30213598">
        <ele>853.00000</ele>
        <time>2024-05-10T18:10:41Z</time>
      </trkpt>
      <trkpt lat="42.93033594" lon="13.30222995">
        <ele>852.00000</ele>
        <time>2024-05-10T18:10:43Z</time>
      </trkpt>
      <trkpt lat="42.93030099" lon="13.30232198">
        <ele>851.00000</ele>
        <time>2024-05-10T18:10:44Z</time>
      </trkpt>
      <trkpt lat="42.93026494" lon="13.30240194">
        <ele>851.00000</ele>
        <time>2024-05-10T18:10:46Z</time>
      </trkpt>
      <trkpt lat="42.93023695" lon="13.30247696">
        <ele>851.00000</ele>
        <time>2024-05-10T18:10:47Z</time>
      </trkpt>
      <trkpt lat="42.93021197" lon="13.30255491">
        <ele>851.00000</ele>
        <time>2024-05-10T18:10:48Z</time>
      </trkpt>
      <trkpt lat="42.93018297" lon="13.30262792">
        <ele>851.00000</ele>
        <time>2024-05-10T18:10:50Z</time>
      </trkpt>
      <trkpt lat="42.93014793" lon="13.30269397">
        <ele>851.00000</ele>
        <time>2024-05-10T18:10:51Z</time>
      </trkpt>
      <trkpt lat="42.93011792" lon="13.30275599">
        <ele>851.00000</ele>
        <time>2024-05-10T18:10:52Z</time>
      </trkpt>
      <trkpt lat="42.93008792" lon="13.30281693">
        <ele>851.00000</ele>
        <time>2024-05-10T18:10:53Z</time>
      </trkpt>
      <trkpt lat="42.93005699" lon="13.30287493">
        <ele>851.00000</ele>
        <time>2024-05-10T18:10:54Z</time>
      </trkpt>
      <trkpt lat="42.93001592" lon="13.30294098">
        <ele>851.00000</ele>
        <time>2024-05-10T18:10:55Z</time>
      </trkpt>
      <trkpt lat="42.92997694" lon="13.30300997">
        <ele>851.00000</ele>
        <time>2024-05-10T18:10:56Z</time>
      </trkpt>
      <trkpt lat="42.92993998" lon="13.30308197">
        <ele>851.00000</ele>
        <time>2024-05-10T18:10:58Z</time>
      </trkpt>
      <trkpt lat="42.92991098" lon="13.30315397">
        <ele>851.00000</ele>
        <time>2024-05-10T18:10:59Z</time>
      </trkpt>
      <trkpt lat="42.92988893" lon="13.30323192">
        <ele>851.00000</ele>
        <time>2024-05-10T18:11:00Z</time>
      </trkpt>
      <trkpt lat="42.92986596" lon="13.30331892">
        <ele>850.00000</ele>
        <time>2024-05-10T18:11:02Z</time>
      </trkpt>
      <trkpt lat="42.92984995" lon="13.30339092">
        <ele>849.00000</ele>
        <time>2024-05-10T18:11:03Z</time>
      </trkpt>
      <trkpt lat="42.92983294" lon="13.30345395">
        <ele>849.00000</ele>
        <time>2024-05-10T18:11:04Z</time>
      </trkpt>
      <trkpt lat="42.92981299" lon="13.30351196">
        <ele>849.00000</ele>
        <time>2024-05-10T18:11:05Z</time>
      </trkpt>
      <trkpt lat="42.92978491" lon="13.30356795">
        <ele>848.00000</ele>
        <time>2024-05-10T18:11:06Z</time>
      </trkpt>
      <trkpt lat="42.92974694" lon="13.30360298">
        <ele>849.00000</ele>
        <time>2024-05-10T18:11:07Z</time>
      </trkpt>
      <trkpt lat="42.92970897" lon="13.30363199">
        <ele>850.00000</ele>
        <time>2024-05-10T18:11:07Z</time>
      </trkpt>
      <trkpt lat="42.92966295" lon="13.30365898">
        <ele>851.00000</ele>
        <time>2024-05-10T18:11:08Z</time>
      </trkpt>
      <trkpt lat="42.92961895" lon="13.30368295">
        <ele>853.00000</ele>
        <time>2024-05-10T18:11:09Z</time>
      </trkpt>
      <trkpt lat="42.92957595" lon="13.30372092">
        <ele>854.00000</ele>
        <time>2024-05-10T18:11:10Z</time>
      </trkpt>
      <trkpt lat="42.92954997" lon="13.30377498">
        <ele>855.00000</ele>
        <time>2024-05-10T18:11:11Z</time>
      </trkpt>
      <trkpt lat="42.92953899" lon="13.30382796">
        <ele>855.00000</ele>
        <time>2024-05-10T18:11:12Z</time>
      </trkpt>
      <trkpt lat="42.92955592" lon="13.30388898">
        <ele>854.00000</ele>
        <time>2024-05-10T18:11:13Z</time>
      </trkpt>
      <trkpt lat="42.92957092" lon="13.30394991">
        <ele>853.00000</ele>
        <time>2024-05-10T18:11:14Z</time>
      </trkpt>
      <trkpt lat="42.92959992" lon="13.30400599">
        <ele>851.00000</ele>
        <time>2024-05-10T18:11:15Z</time>
      </trkpt>
      <trkpt lat="42.92963596" lon="13.30407598">
        <ele>849.00000</ele>
        <time>2024-05-10T18:11:16Z</time>
      </trkpt>
      <trkpt lat="42.92968793" lon="13.30414395">
        <ele>846.00000</ele>
        <time>2024-05-10T18:11:18Z</time>
      </trkpt>
      <trkpt lat="42.92973395" lon="13.30421897">
        <ele>844.00000</ele>
        <time>2024-05-10T18:11:19Z</time>
      </trkpt>
      <trkpt lat="42.92976396" lon="13.30429793">
        <ele>842.00000</ele>
        <time>2024-05-10T18:11:20Z</time>
      </trkpt>
      <trkpt lat="42.92978893" lon="13.30438393">
        <ele>841.00000</ele>
        <time>2024-05-10T18:11:22Z</time>
      </trkpt>
      <trkpt lat="42.92979991" lon="13.30447395">
        <ele>840.00000</ele>
        <time>2024-05-10T18:11:23Z</time>
      </trkpt>
      <trkpt lat="42.92980696" lon="13.30456196">
        <ele>840.00000</ele>
        <time>2024-05-10T18:11:24Z</time>
      </trkpt>
      <trkpt lat="42.92979991" lon="13.30464293">
        <ele>839.00000</ele>
        <time>2024-05-10T18:11:26Z</time>
      </trkpt>
      <trkpt lat="42.92978399" lon="13.30472792">
        <ele>839.00000</ele>
        <time>2024-05-10T18:11:27Z</time>
      </trkpt>
      <trkpt lat="42.92977091" lon="13.30481392">
        <ele>839.00000</ele>
        <time>2024-05-10T18:11:28Z</time>
      </trkpt>
      <trkpt lat="42.92975599" lon="13.30489992">
        <ele>838.00000</ele>
        <time>2024-05-10T18:11:30Z</time>
      </trkpt>
      <trkpt lat="42.92974694" lon="13.30498994">
        <ele>838.00000</ele>
        <time>2024-05-10T18:11:31Z</time>
      </trkpt>
      <trkpt lat="42.92972892" lon="13.30507594">
        <ele>838.00000</ele>
        <time>2024-05-10T18:11:32Z</time>
      </trkpt>
      <trkpt lat="42.92971299" lon="13.30516395">
        <ele>838.00000</ele>
        <time>2024-05-10T18:11:34Z</time>
      </trkpt>
      <trkpt lat="42.92969296" lon="13.30524894">
        <ele>837.00000</ele>
        <time>2024-05-10T18:11:35Z</time>
      </trkpt>
      <trkpt lat="42.92966698" lon="13.30533393">
        <ele>837.00000</ele>
        <time>2024-05-10T18:11:36Z</time>
      </trkpt>
      <trkpt lat="42.92962197" lon="13.30542496">
        <ele>836.00000</ele>
        <time>2024-05-10T18:11:38Z</time>
      </trkpt>
      <trkpt lat="42.92958492" lon="13.30550392">
        <ele>836.00000</ele>
        <time>2024-05-10T18:11:39Z</time>
      </trkpt>
      <trkpt lat="42.92954896" lon="13.30558296">
        <ele>835.00000</ele>
        <time>2024-05-10T18:11:41Z</time>
      </trkpt>
      <trkpt lat="42.92951392" lon="13.30565999">
        <ele>835.00000</ele>
        <time>2024-05-10T18:11:42Z</time>
      </trkpt>
      <trkpt lat="42.92947093" lon="13.30570793">
        <ele>835.00000</ele>
        <time>2024-05-10T18:11:43Z</time>
      </trkpt>
      <trkpt lat="42.92942197" lon="13.30575898">
        <ele>836.00000</ele>
        <time>2024-05-10T18:11:44Z</time>
      </trkpt>
      <trkpt lat="42.92937294" lon="13.30582293">
        <ele>835.00000</ele>
        <time>2024-05-10T18:11:46Z</time>
      </trkpt>
      <trkpt lat="42.92934092" lon="13.30591698">
        <ele>833.00000</ele>
        <time>2024-05-10T18:11:47Z</time>
      </trkpt>
      <trkpt lat="42.92931997" lon="13.30600993">
        <ele>831.00000</ele>
        <time>2024-05-10T18:11:49Z</time>
      </trkpt>
      <trkpt lat="42.92929398" lon="13.30611697">
        <ele>829.00000</ele>
        <time>2024-05-10T18:11:50Z</time>
      </trkpt>
      <trkpt lat="42.92927898" lon="13.30621697">
        <ele>827.00000</ele>
        <time>2024-05-10T18:11:52Z</time>
      </trkpt>
      <trkpt lat="42.92925995" lon="13.30631797">
        <ele>825.00000</ele>
        <time>2024-05-10T18:11:53Z</time>
      </trkpt>
      <trkpt lat="42.92923196" lon="13.30640195">
        <ele>824.00000</ele>
        <time>2024-05-10T18:11:55Z</time>
      </trkpt>
      <trkpt lat="42.92921293" lon="13.30648795">
        <ele>822.00000</ele>
        <time>2024-05-10T18:11:56Z</time>
      </trkpt>
      <trkpt lat="42.92918493" lon="13.30654897">
        <ele>822.00000</ele>
        <time>2024-05-10T18:11:57Z</time>
      </trkpt>
      <trkpt lat="42.92914696" lon="13.30660195">
        <ele>821.00000</ele>
        <time>2024-05-10T18:11:58Z</time>
      </trkpt>
      <trkpt lat="42.92910195" lon="13.30665299">
        <ele>821.00000</ele>
        <time>2024-05-10T18:11:59Z</time>
      </trkpt>
      <trkpt lat="42.92904898" lon="13.30669691">
        <ele>821.00000</ele>
        <time>2024-05-10T18:12:00Z</time>
      </trkpt>
      <trkpt lat="42.92898897" lon="13.30674394">
        <ele>821.00000</ele>
        <time>2024-05-10T18:12:02Z</time>
      </trkpt>
      <trkpt lat="42.92893197" lon="13.30678392">
        <ele>821.00000</ele>
        <time>2024-05-10T18:12:03Z</time>
      </trkpt>
      <trkpt lat="42.92886491" lon="13.30683295">
        <ele>821.00000</ele>
        <time>2024-05-10T18:12:05Z</time>
      </trkpt>
      <trkpt lat="42.92879291" lon="13.30689196">
        <ele>821.00000</ele>
        <time>2024-05-10T18:12:06Z</time>
      </trkpt>
      <trkpt lat="42.92872795" lon="13.30696497">
        <ele>821.00000</ele>
        <time>2024-05-10T18:12:08Z</time>
      </trkpt>
      <trkpt lat="42.92866995" lon="13.30705096">
        <ele>820.00000</ele>
        <time>2024-05-10T18:12:10Z</time>
      </trkpt>
      <trkpt lat="42.92860994" lon="13.30714593">
        <ele>819.00000</ele>
        <time>2024-05-10T18:12:12Z</time>
      </trkpt>
      <trkpt lat="42.92855193" lon="13.30723294">
        <ele>818.00000</ele>
        <time>2024-05-10T18:12:13Z</time>
      </trkpt>
      <trkpt lat="42.92848798" lon="13.30731994">
        <ele>816.00000</ele>
        <time>2024-05-10T18:12:15Z</time>
      </trkpt>
      <trkpt lat="42.92842092" lon="13.30739798">
        <ele>815.00000</ele>
        <time>2024-05-10T18:12:17Z</time>
      </trkpt>
      <trkpt lat="42.92835094" lon="13.30746595">
        <ele>814.00000</ele>
        <time>2024-05-10T18:12:19Z</time>
      </trkpt>
      <trkpt lat="42.92828396" lon="13.30752396">
        <ele>814.00000</ele>
        <time>2024-05-10T18:12:20Z</time>
      </trkpt>
      <trkpt lat="42.92821196" lon="13.30756595">
        <ele>815.00000</ele>
        <time>2024-05-10T18:12:22Z</time>
      </trkpt>
      <trkpt lat="42.92813695" lon="13.30758095">
        <ele>816.00000</ele>
        <time>2024-05-10T18:12:23Z</time>
      </trkpt>
      <trkpt lat="42.92807098" lon="13.30760199">
        <ele>817.00000</ele>
        <time>2024-05-10T18:12:25Z</time>
      </trkpt>
      <trkpt lat="42.92801993" lon="13.30764692">
        <ele>818.00000</ele>
        <time>2024-05-10T18:12:26Z</time>
      </trkpt>
      <trkpt lat="42.92799194" lon="13.30772495">
        <ele>818.00000</ele>
        <time>2024-05-10T18:12:27Z</time>
      </trkpt>
      <trkpt lat="42.92798498" lon="13.30780098">
        <ele>818.00000</ele>
        <time>2024-05-10T18:12:28Z</time>
      </trkpt>
      <trkpt lat="42.92799395" lon="13.30786996">
        <ele>818.00000</ele>
        <time>2024-05-10T18:12:29Z</time>
      </trkpt>
      <trkpt lat="42.92802094" lon="13.30792293">
        <ele>817.00000</ele>
        <time>2024-05-10T18:12:30Z</time>
      </trkpt>
      <trkpt lat="42.92804198" lon="13.30797993">
        <ele>817.00000</ele>
        <time>2024-05-10T18:12:31Z</time>
      </trkpt>
      <trkpt lat="42.92805598" lon="13.30803299">
        <ele>817.00000</ele>
        <time>2024-05-10T18:12:32Z</time>
      </trkpt>
      <trkpt lat="42.92807199" lon="13.30808194">
        <ele>816.00000</ele>
        <time>2024-05-10T18:12:33Z</time>
      </trkpt>
      <trkpt lat="42.92807593" lon="13.30813491">
        <ele>816.00000</ele>
        <time>2024-05-10T18:12:33Z</time>
      </trkpt>
      <trkpt lat="42.92809898" lon="13.30818395">
        <ele>815.00000</ele>
        <time>2024-05-10T18:12:34Z</time>
      </trkpt>
      <trkpt lat="42.92811398" lon="13.30823994">
        <ele>815.00000</ele>
        <time>2024-05-10T18:12:35Z</time>
      </trkpt>
      <trkpt lat="42.92812798" lon="13.30829098">
        <ele>815.00000</ele>
        <time>2024-05-10T18:12:36Z</time>
      </trkpt>
      <trkpt lat="42.92814399" lon="13.30833893">
        <ele>814.00000</ele>
        <time>2024-05-10T18:12:37Z</time>
      </trkpt>
      <trkpt lat="42.92816293" lon="13.30839098">
        <ele>814.00000</ele>
        <time>2024-05-10T18:12:38Z</time>
      </trkpt>
      <trkpt lat="42.92817894" lon="13.30844898">
        <ele>814.00000</ele>
        <time>2024-05-10T18:12:39Z</time>
      </trkpt>
      <trkpt lat="42.92819595" lon="13.30850891">
        <ele>814.00000</ele>
        <time>2024-05-10T18:12:40Z</time>
      </trkpt>
      <trkpt lat="42.92821498" lon="13.30856893">
        <ele>814.00000</ele>
        <time>2024-05-10T18:12:40Z</time>
      </trkpt>
      <trkpt lat="42.92823795" lon="13.30863397">
        <ele>814.00000</ele>
        <time>2024-05-10T18:12:42Z</time>
      </trkpt>
      <trkpt lat="42.92825798" lon="13.30869399">
        <ele>814.00000</ele>
        <time>2024-05-10T18:12:42Z</time>
      </trkpt>
      <trkpt lat="42.92828195" lon="13.30876699">
        <ele>814.00000</ele>
        <time>2024-05-10T18:12:44Z</time>
      </trkpt>
      <trkpt lat="42.92830592" lon="13.30883396">
        <ele>814.00000</ele>
        <time>2024-05-10T18:12:45Z</time>
      </trkpt>
      <trkpt lat="42.92833392" lon="13.30889599">
        <ele>815.00000</ele>
        <time>2024-05-10T18:12:46Z</time>
      </trkpt>
      <trkpt lat="42.92836594" lon="13.30895693">
        <ele>814.00000</ele>
        <time>2024-05-10T18:12:47Z</time>
      </trkpt>
      <trkpt lat="42.92840299" lon="13.30901694">
        <ele>814.00000</ele>
        <time>2024-05-10T18:12:48Z</time>
      </trkpt>
      <trkpt lat="42.92844892" lon="13.30907293">
        <ele>814.00000</ele>
        <time>2024-05-10T18:12:49Z</time>
      </trkpt>
      <trkpt lat="42.92849795" lon="13.30912892">
        <ele>813.00000</ele>
        <time>2024-05-10T18:12:51Z</time>
      </trkpt>
      <trkpt lat="42.92854498" lon="13.30918491">
        <ele>812.00000</ele>
        <time>2024-05-10T18:12:52Z</time>
      </trkpt>
      <trkpt lat="42.92859393" lon="13.30924099">
        <ele>812.00000</ele>
        <time>2024-05-10T18:12:53Z</time>
      </trkpt>
      <trkpt lat="42.92864196" lon="13.30929597">
        <ele>811.00000</ele>
        <time>2024-05-10T18:12:54Z</time>
      </trkpt>
      <trkpt lat="42.92868596" lon="13.30935792">
        <ele>810.00000</ele>
        <time>2024-05-10T18:12:56Z</time>
      </trkpt>
      <trkpt lat="42.92870792" lon="13.30943796">
        <ele>810.00000</ele>
        <time>2024-05-10T18:12:57Z</time>
      </trkpt>
      <trkpt lat="42.92871496" lon="13.30951692">
        <ele>809.00000</ele>
        <time>2024-05-10T18:12:58Z</time>
      </trkpt>
      <trkpt lat="42.92871496" lon="13.30959496">
        <ele>809.00000</ele>
        <time>2024-05-10T18:12:59Z</time>
      </trkpt>
      <trkpt lat="42.92870499" lon="13.30966293">
        <ele>809.00000</ele>
        <time>2024-05-10T18:13:00Z</time>
      </trkpt>
      <trkpt lat="42.92869694" lon="13.30973099">
        <ele>809.00000</ele>
        <time>2024-05-10T18:13:01Z</time>
      </trkpt>
      <trkpt lat="42.92869199" lon="13.30980098">
        <ele>809.00000</ele>
        <time>2024-05-10T18:13:02Z</time>
      </trkpt>
      <trkpt lat="42.92868596" lon="13.30987298">
        <ele>809.00000</ele>
        <time>2024-05-10T18:13:03Z</time>
      </trkpt>
      <trkpt lat="42.92868294" lon="13.30994197">
        <ele>809.00000</ele>
        <time>2024-05-10T18:13:04Z</time>
      </trkpt>
      <trkpt lat="42.92867993" lon="13.31001698">
        <ele>809.00000</ele>
        <time>2024-05-10T18:13:05Z</time>
      </trkpt>
      <trkpt lat="42.92868093" lon="13.31008697">
        <ele>809.00000</ele>
        <time>2024-05-10T18:13:06Z</time>
      </trkpt>
      <trkpt lat="42.92868093" lon="13.31014992">
        <ele>810.00000</ele>
        <time>2024-05-10T18:13:07Z</time>
      </trkpt>
      <trkpt lat="42.92868294" lon="13.31021798">
        <ele>810.00000</ele>
        <time>2024-05-10T18:13:08Z</time>
      </trkpt>
      <trkpt lat="42.92868194" lon="13.31028194">
        <ele>810.00000</ele>
        <time>2024-05-10T18:13:09Z</time>
      </trkpt>
      <trkpt lat="42.92868194" lon="13.31034296">
        <ele>810.00000</ele>
        <time>2024-05-10T18:13:10Z</time>
      </trkpt>
      <trkpt lat="42.92867791" lon="13.31040398">
        <ele>810.00000</ele>
        <time>2024-05-10T18:13:11Z</time>
      </trkpt>
      <trkpt lat="42.92867297" lon="13.31046894">
        <ele>811.00000</ele>
        <time>2024-05-10T18:13:12Z</time>
      </trkpt>
      <trkpt lat="42.92866098" lon="13.31052593">
        <ele>811.00000</ele>
        <time>2024-05-10T18:13:13Z</time>
      </trkpt>
      <trkpt lat="42.92864296" lon="13.31058494">
        <ele>812.00000</ele>
        <time>2024-05-10T18:13:14Z</time>
      </trkpt>
      <trkpt lat="42.92862595" lon="13.31063892">
        <ele>813.00000</ele>
        <time>2024-05-10T18:13:15Z</time>
      </trkpt>
      <trkpt lat="42.92860994" lon="13.31069793">
        <ele>814.00000</ele>
        <time>2024-05-10T18:13:16Z</time>
      </trkpt>
      <trkpt lat="42.92859694" lon="13.31076499">
        <ele>816.00000</ele>
        <time>2024-05-10T18:13:17Z</time>
      </trkpt>
      <trkpt lat="42.92859099" lon="13.31083598">
        <ele>816.00000</ele>
        <time>2024-05-10T18:13:18Z</time>
      </trkpt>
      <trkpt lat="42.92859594" lon="13.31089893">
        <ele>817.00000</ele>
        <time>2024-05-10T18:13:19Z</time>
      </trkpt>
      <trkpt lat="42.92861195" lon="13.31096598">
        <ele>817.00000</ele>
        <time>2024-05-10T18:13:20Z</time>
      </trkpt>
      <trkpt lat="42.92864196" lon="13.31103296">
        <ele>817.00000</ele>
        <time>2024-05-10T18:13:21Z</time>
      </trkpt>
      <trkpt lat="42.92867699" lon="13.31108794">
        <ele>816.00000</ele>
        <time>2024-05-10T18:13:22Z</time>
      </trkpt>
      <trkpt lat="42.92871798" lon="13.31113697">
        <ele>815.00000</ele>
        <time>2024-05-10T18:13:23Z</time>
      </trkpt>
      <trkpt lat="42.92875796" lon="13.31118299">
        <ele>814.00000</ele>
        <time>2024-05-10T18:13:24Z</time>
      </trkpt>
      <trkpt lat="42.92880096" lon="13.31122792">
        <ele>813.00000</ele>
        <time>2024-05-10T18:13:25Z</time>
      </trkpt>
      <trkpt lat="42.92884094" lon="13.31127192">
        <ele>812.00000</ele>
        <time>2024-05-10T18:13:26Z</time>
      </trkpt>
      <trkpt lat="42.92888495" lon="13.31131995">
        <ele>811.00000</ele>
        <time>2024-05-10T18:13:27Z</time>
      </trkpt>
      <trkpt lat="42.92892895" lon="13.31136999">
        <ele>811.00000</ele>
        <time>2024-05-10T18:13:28Z</time>
      </trkpt>
      <trkpt lat="42.92897396" lon="13.31141492">
        <ele>811.00000</ele>
        <time>2024-05-10T18:13:30Z</time>
      </trkpt>
      <trkpt lat="42.92901696" lon="13.31145398">
        <ele>810.00000</ele>
        <time>2024-05-10T18:13:31Z</time>
      </trkpt>
      <trkpt lat="42.92905393" lon="13.31148499">
        <ele>810.00000</ele>
        <time>2024-05-10T18:13:31Z</time>
      </trkpt>
      <trkpt lat="42.92908796" lon="13.31151793">
        <ele>810.00000</ele>
        <time>2024-05-10T18:13:32Z</time>
      </trkpt>
      <trkpt lat="42.92911897" lon="13.31154593">
        <ele>810.00000</ele>
        <time>2024-05-10T18:13:33Z</time>
      </trkpt>
      <trkpt lat="42.92914696" lon="13.31156596">
        <ele>809.00000</ele>
        <time>2024-05-10T18:13:34Z</time>
      </trkpt>
      <trkpt lat="42.92917094" lon="13.31158096">
        <ele>809.00000</ele>
        <time>2024-05-10T18:13:34Z</time>
      </trkpt>
      <trkpt lat="42.92919097" lon="13.31159899">
        <ele>809.00000</ele>
        <time>2024-05-10T18:13:35Z</time>
      </trkpt>
      <trkpt lat="42.92920396" lon="13.31161592">
        <ele>809.00000</ele>
        <time>2024-05-10T18:13:35Z</time>
      </trkpt>
      <trkpt lat="42.92921595" lon="13.31162899">
        <ele>809.00000</ele>
        <time>2024-05-10T18:13:35Z</time>
      </trkpt>
      <trkpt lat="42.92922894" lon="13.31164693">
        <ele>809.00000</ele>
        <time>2024-05-10T18:13:36Z</time>
      </trkpt>
      <trkpt lat="42.92924998" lon="13.31167199">
        <ele>810.00000</ele>
        <time>2024-05-10T18:13:36Z</time>
      </trkpt>
      <trkpt lat="42.92927194" lon="13.31169999">
        <ele>810.00000</ele>
        <time>2024-05-10T18:13:37Z</time>
      </trkpt>
      <trkpt lat="42.92929599" lon="13.31173293">
        <ele>810.00000</ele>
        <time>2024-05-10T18:13:38Z</time>
      </trkpt>
      <trkpt lat="42.92931896" lon="13.31176998">
        <ele>810.00000</ele>
        <time>2024-05-10T18:13:38Z</time>
      </trkpt>
      <trkpt lat="42.92934193" lon="13.31181993">
        <ele>811.00000</ele>
        <time>2024-05-10T18:13:39Z</time>
      </trkpt>
      <trkpt lat="42.92937093" lon="13.31186796">
        <ele>811.00000</ele>
        <time>2024-05-10T18:13:40Z</time>
      </trkpt>
      <trkpt lat="42.92940395" lon="13.31191398">
        <ele>810.00000</ele>
        <time>2024-05-10T18:13:41Z</time>
      </trkpt>
      <trkpt lat="42.92943597" lon="13.31196796">
        <ele>810.00000</ele>
        <time>2024-05-10T18:13:42Z</time>
      </trkpt>
      <trkpt lat="42.92946497" lon="13.31201992">
        <ele>811.00000</ele>
        <time>2024-05-10T18:13:43Z</time>
      </trkpt>
      <trkpt lat="42.92949699" lon="13.31206795">
        <ele>810.00000</ele>
        <time>2024-05-10T18:13:44Z</time>
      </trkpt>
      <trkpt lat="42.92953195" lon="13.31212897">
        <ele>810.00000</ele>
        <time>2024-05-10T18:13:45Z</time>
      </trkpt>
      <trkpt lat="42.92956992" lon="13.31218597">
        <ele>810.00000</ele>
        <time>2024-05-10T18:13:46Z</time>
      </trkpt>
      <trkpt lat="42.92960797" lon="13.31224791">
        <ele>810.00000</ele>
        <time>2024-05-10T18:13:47Z</time>
      </trkpt>
      <trkpt lat="42.92964594" lon="13.31231094">
        <ele>810.00000</ele>
        <time>2024-05-10T18:13:49Z</time>
      </trkpt>
      <trkpt lat="42.92968399" lon="13.31237699">
        <ele>810.00000</ele>
        <time>2024-05-10T18:13:50Z</time>
      </trkpt>
      <trkpt lat="42.92972196" lon="13.31243793">
        <ele>810.00000</ele>
        <time>2024-05-10T18:13:51Z</time>
      </trkpt>
      <trkpt lat="42.92975993" lon="13.31249895">
        <ele>810.00000</ele>
        <time>2024-05-10T18:13:52Z</time>
      </trkpt>
      <trkpt lat="42.92979799" lon="13.31256198">
        <ele>811.00000</ele>
        <time>2024-05-10T18:13:53Z</time>
      </trkpt>
      <trkpt lat="42.92983797" lon="13.31262996">
        <ele>812.00000</ele>
        <time>2024-05-10T18:13:55Z</time>
      </trkpt>
      <trkpt lat="42.92987896" lon="13.31269794">
        <ele>812.00000</ele>
        <time>2024-05-10T18:13:56Z</time>
      </trkpt>
      <trkpt lat="42.92992397" lon="13.31276499">
        <ele>812.00000</ele>
        <time>2024-05-10T18:13:57Z</time>
      </trkpt>
      <trkpt lat="42.92996998" lon="13.31283397">
        <ele>811.00000</ele>
        <time>2024-05-10T18:13:59Z</time>
      </trkpt>
      <trkpt lat="42.93001399" lon="13.31290497">
        <ele>811.00000</ele>
        <time>2024-05-10T18:14:00Z</time>
      </trkpt>
      <trkpt lat="42.93005397" lon="13.31297697">
        <ele>811.00000</ele>
        <time>2024-05-10T18:14:01Z</time>
      </trkpt>
      <trkpt lat="42.93009496" lon="13.31306196">
        <ele>810.00000</ele>
        <time>2024-05-10T18:14:03Z</time>
      </trkpt>
      <trkpt lat="42.93013293" lon="13.31314595">
        <ele>810.00000</ele>
        <time>2024-05-10T18:14:04Z</time>
      </trkpt>
      <trkpt lat="42.93017098" lon="13.31322792">
        <ele>809.00000</ele>
        <time>2024-05-10T18:14:06Z</time>
      </trkpt>
      <trkpt lat="42.93021298" lon="13.31331099">
        <ele>808.00000</ele>
        <time>2024-05-10T18:14:07Z</time>
      </trkpt>
      <trkpt lat="42.93025497" lon="13.31339598">
        <ele>807.00000</ele>
        <time>2024-05-10T18:14:09Z</time>
      </trkpt>
      <trkpt lat="42.93029495" lon="13.31348198">
        <ele>807.00000</ele>
        <time>2024-05-10T18:14:10Z</time>
      </trkpt>
      <trkpt lat="42.93033191" lon="13.31357091">
        <ele>808.00000</ele>
        <time>2024-05-10T18:14:12Z</time>
      </trkpt>
      <trkpt lat="42.93036997" lon="13.31365993">
        <ele>808.00000</ele>
        <time>2024-05-10T18:14:13Z</time>
      </trkpt>
      <trkpt lat="42.93040794" lon="13.31374299">
        <ele>809.00000</ele>
        <time>2024-05-10T18:14:15Z</time>
      </trkpt>
      <trkpt lat="42.93044691" lon="13.31382296">
        <ele>809.00000</ele>
        <time>2024-05-10T18:14:16Z</time>
      </trkpt>
      <trkpt lat="42.93047994" lon="13.31390099">
        <ele>809.00000</ele>
        <time>2024-05-10T18:14:17Z</time>
      </trkpt>
      <trkpt lat="42.93051397" lon="13.31397794">
        <ele>810.00000</ele>
        <time>2024-05-10T18:14:19Z</time>
      </trkpt>
      <trkpt lat="42.93054398" lon="13.31404994">
        <ele>811.00000</ele>
        <time>2024-05-10T18:14:20Z</time>
      </trkpt>
      <trkpt lat="42.93057591" lon="13.31411398">
        <ele>811.00000</ele>
        <time>2024-05-10T18:14:21Z</time>
      </trkpt>
      <trkpt lat="42.93060994" lon="13.31417298">
        <ele>811.00000</ele>
        <time>2024-05-10T18:14:22Z</time>
      </trkpt>
      <trkpt lat="42.93063995" lon="13.31423291">
        <ele>810.00000</ele>
        <time>2024-05-10T18:14:23Z</time>
      </trkpt>
      <trkpt lat="42.93066895" lon="13.31429293">
        <ele>810.00000</ele>
        <time>2024-05-10T18:14:24Z</time>
      </trkpt>
      <trkpt lat="42.93069695" lon="13.31434993">
        <ele>809.00000</ele>
        <time>2024-05-10T18:14:25Z</time>
      </trkpt>
      <trkpt lat="42.93072494" lon="13.31440399">
        <ele>809.00000</ele>
        <time>2024-05-10T18:14:26Z</time>
      </trkpt>
      <trkpt lat="42.93075495" lon="13.31445998">
        <ele>809.00000</ele>
        <time>2024-05-10T18:14:27Z</time>
      </trkpt>
      <trkpt lat="42.93078697" lon="13.31451698">
        <ele>808.00000</ele>
        <time>2024-05-10T18:14:28Z</time>
      </trkpt>
      <trkpt lat="42.93081899" lon="13.31457498">
        <ele>807.00000</ele>
        <time>2024-05-10T18:14:29Z</time>
      </trkpt>
      <trkpt lat="42.93084899" lon="13.31463097">
        <ele>807.00000</ele>
        <time>2024-05-10T18:14:30Z</time>
      </trkpt>
      <trkpt lat="42.93087892" lon="13.31468797">
        <ele>806.00000</ele>
        <time>2024-05-10T18:14:31Z</time>
      </trkpt>
      <trkpt lat="42.93090892" lon="13.31474798">
        <ele>806.00000</ele>
        <time>2024-05-10T18:14:32Z</time>
      </trkpt>
      <trkpt lat="42.93094195" lon="13.31481395">
        <ele>805.00000</ele>
        <time>2024-05-10T18:14:34Z</time>
      </trkpt>
      <trkpt lat="42.93097699" lon="13.31487597">
        <ele>804.00000</ele>
        <time>2024-05-10T18:14:35Z</time>
      </trkpt>
      <trkpt lat="42.93101395" lon="13.31493398">
        <ele>803.00000</ele>
        <time>2024-05-10T18:14:36Z</time>
      </trkpt>
      <trkpt lat="42.93105192" lon="13.31499299">
        <ele>802.00000</ele>
        <time>2024-05-10T18:14:37Z</time>
      </trkpt>
      <trkpt lat="42.93109098" lon="13.31505493">
        <ele>801.00000</ele>
        <time>2024-05-10T18:14:38Z</time>
      </trkpt>
      <trkpt lat="42.93113197" lon="13.31511595">
        <ele>800.00000</ele>
        <time>2024-05-10T18:14:40Z</time>
      </trkpt>
      <trkpt lat="42.93117195" lon="13.31518191">
        <ele>798.00000</ele>
        <time>2024-05-10T18:14:41Z</time>
      </trkpt>
      <trkpt lat="42.93120992" lon="13.31525492">
        <ele>797.00000</ele>
        <time>2024-05-10T18:14:42Z</time>
      </trkpt>
      <trkpt lat="42.93124998" lon="13.31533698">
        <ele>797.00000</ele>
        <time>2024-05-10T18:14:44Z</time>
      </trkpt>
      <trkpt lat="42.93129198" lon="13.31541694">
        <ele>797.00000</ele>
        <time>2024-05-10T18:14:45Z</time>
      </trkpt>
      <trkpt lat="42.93133498" lon="13.31549699">
        <ele>796.00000</ele>
        <time>2024-05-10T18:14:46Z</time>
      </trkpt>
      <trkpt lat="42.93138292" lon="13.31557796">
        <ele>796.00000</ele>
        <time>2024-05-10T18:14:48Z</time>
      </trkpt>
      <trkpt lat="42.93143095" lon="13.31566195">
        <ele>795.00000</ele>
        <time>2024-05-10T18:14:50Z</time>
      </trkpt>
      <trkpt lat="42.93147998" lon="13.31574794">
        <ele>795.00000</ele>
        <time>2024-05-10T18:14:51Z</time>
      </trkpt>
      <trkpt lat="42.93152994" lon="13.31583696">
        <ele>795.00000</ele>
        <time>2024-05-10T18:14:53Z</time>
      </trkpt>
      <trkpt lat="42.93157998" lon="13.31593394">
        <ele>795.00000</ele>
        <time>2024-05-10T18:14:55Z</time>
      </trkpt>
      <trkpt lat="42.93162893" lon="13.31603997">
        <ele>795.00000</ele>
        <time>2024-05-10T18:14:56Z</time>
      </trkpt>
      <trkpt lat="42.93167495" lon="13.31615095">
        <ele>796.00000</ele>
        <time>2024-05-10T18:14:58Z</time>
      </trkpt>
      <trkpt lat="42.93171895" lon="13.31627198">
        <ele>797.00000</ele>
        <time>2024-05-10T18:15:00Z</time>
      </trkpt>
      <trkpt lat="42.93175994" lon="13.31639796">
        <ele>799.00000</ele>
        <time>2024-05-10T18:15:02Z</time>
      </trkpt>
      <trkpt lat="42.93180998" lon="13.31652092">
        <ele>798.00000</ele>
        <time>2024-05-10T18:15:04Z</time>
      </trkpt>
      <trkpt lat="42.93187796" lon="13.31662595">
        <ele>797.00000</ele>
        <time>2024-05-10T18:15:06Z</time>
      </trkpt>
      <trkpt lat="42.93195792" lon="13.31671798">
        <ele>795.00000</ele>
        <time>2024-05-10T18:15:08Z</time>
      </trkpt>
      <trkpt lat="42.93204291" lon="13.31680499">
        <ele>794.00000</ele>
        <time>2024-05-10T18:15:11Z</time>
      </trkpt>
      <trkpt lat="42.93213293" lon="13.31688897">
        <ele>793.00000</ele>
        <time>2024-05-10T18:15:13Z</time>
      </trkpt>
      <trkpt lat="42.93222296" lon="13.31696793">
        <ele>793.00000</ele>
        <time>2024-05-10T18:15:15Z</time>
      </trkpt>
      <trkpt lat="42.93231298" lon="13.31705292">
        <ele>791.00000</ele>
        <time>2024-05-10T18:15:17Z</time>
      </trkpt>
      <trkpt lat="42.93240199" lon="13.31714496">
        <ele>790.00000</ele>
        <time>2024-05-10T18:15:19Z</time>
      </trkpt>
      <trkpt lat="42.93248891" lon="13.31723297">
        <ele>790.00000</ele>
        <time>2024-05-10T18:15:21Z</time>
      </trkpt>
      <trkpt lat="42.93257592" lon="13.31731997">
        <ele>788.00000</ele>
        <time>2024-05-10T18:15:24Z</time>
      </trkpt>
      <trkpt lat="42.93266292" lon="13.31740597">
        <ele>786.00000</ele>
        <time>2024-05-10T18:15:26Z</time>
      </trkpt>
      <trkpt lat="42.93274498" lon="13.31748493">
        <ele>784.00000</ele>
        <time>2024-05-10T18:15:28Z</time>
      </trkpt>
      <trkpt lat="42.93282394" lon="13.31756497">
        <ele>784.00000</ele>
        <time>2024-05-10T18:15:30Z</time>
      </trkpt>
      <trkpt lat="42.93289896" lon="13.31764192">
        <ele>783.00000</ele>
        <time>2024-05-10T18:15:32Z</time>
      </trkpt>
      <trkpt lat="42.93296794" lon="13.31771995">
        <ele>783.00000</ele>
        <time>2024-05-10T18:15:33Z</time>
      </trkpt>
      <trkpt lat="42.93303198" lon="13.31779095">
        <ele>783.00000</ele>
        <time>2024-05-10T18:15:35Z</time>
      </trkpt>
      <trkpt lat="42.93309099" lon="13.31786295">
        <ele>782.00000</ele>
        <time>2024-05-10T18:15:37Z</time>
      </trkpt>
      <trkpt lat="42.93314295" lon="13.31793897">
        <ele>782.00000</ele>
        <time>2024-05-10T18:15:38Z</time>
      </trkpt>
      <trkpt lat="42.93318495" lon="13.31802397">
        <ele>782.00000</ele>
        <time>2024-05-10T18:15:40Z</time>
      </trkpt>
      <trkpt lat="42.93321898" lon="13.31812899">
        <ele>781.00000</ele>
        <time>2024-05-10T18:15:41Z</time>
      </trkpt>
      <trkpt lat="42.93325393" lon="13.31823896">
        <ele>781.00000</ele>
        <time>2024-05-10T18:15:43Z</time>
      </trkpt>
      <trkpt lat="42.93326893" lon="13.31835396">
        <ele>780.00000</ele>
        <time>2024-05-10T18:15:45Z</time>
      </trkpt>
      <trkpt lat="42.93326097" lon="13.31847692">
        <ele>779.00000</ele>
        <time>2024-05-10T18:15:47Z</time>
      </trkpt>
      <trkpt lat="42.93322493" lon="13.31858899">
        <ele>778.00000</ele>
        <time>2024-05-10T18:15:48Z</time>
      </trkpt>
      <trkpt lat="42.93316793" lon="13.31867993">
        <ele>777.00000</ele>
        <time>2024-05-10T18:15:50Z</time>
      </trkpt>
      <trkpt lat="42.93309492" lon="13.31875093">
        <ele>777.00000</ele>
        <time>2024-05-10T18:15:52Z</time>
      </trkpt>
      <trkpt lat="42.93301999" lon="13.31882092">
        <ele>776.00000</ele>
        <time>2024-05-10T18:15:54Z</time>
      </trkpt>
      <trkpt lat="42.93294296" lon="13.31889493">
        <ele>774.00000</ele>
        <time>2024-05-10T18:15:56Z</time>
      </trkpt>
      <trkpt lat="42.93286199" lon="13.31896995">
        <ele>773.00000</ele>
        <time>2024-05-10T18:15:58Z</time>
      </trkpt>
      <trkpt lat="42.93278194" lon="13.31905092">
        <ele>772.00000</ele>
        <time>2024-05-10T18:16:00Z</time>
      </trkpt>
      <trkpt lat="42.93269796" lon="13.31913792">
        <ele>771.00000</ele>
        <time>2024-05-10T18:16:02Z</time>
      </trkpt>
      <trkpt lat="42.93262193" lon="13.31921394">
        <ele>770.00000</ele>
        <time>2024-05-10T18:16:04Z</time>
      </trkpt>
      <trkpt lat="42.93255195" lon="13.31928092">
        <ele>770.00000</ele>
        <time>2024-05-10T18:16:05Z</time>
      </trkpt>
      <trkpt lat="42.93248598" lon="13.31933598">
        <ele>770.00000</ele>
        <time>2024-05-10T18:16:07Z</time>
      </trkpt>
      <trkpt lat="42.93243594" lon="13.31939198">
        <ele>769.00000</ele>
        <time>2024-05-10T18:16:08Z</time>
      </trkpt>
      <trkpt lat="42.93240493" lon="13.31946398">
        <ele>768.00000</ele>
        <time>2024-05-10T18:16:09Z</time>
      </trkpt>
      <trkpt lat="42.93239998" lon="13.31955199">
        <ele>766.00000</ele>
        <time>2024-05-10T18:16:11Z</time>
      </trkpt>
      <trkpt lat="42.93244097" lon="13.31962499">
        <ele>765.00000</ele>
        <time>2024-05-10T18:16:12Z</time>
      </trkpt>
      <trkpt lat="42.93251398" lon="13.31965894">
        <ele>765.00000</ele>
        <time>2024-05-10T18:16:14Z</time>
      </trkpt>
      <trkpt lat="42.93259595" lon="13.31966397">
        <ele>764.00000</ele>
        <time>2024-05-10T18:16:15Z</time>
      </trkpt>
      <trkpt lat="42.93269092" lon="13.31966891">
        <ele>764.00000</ele>
        <time>2024-05-10T18:16:17Z</time>
      </trkpt>
      <trkpt lat="42.93278999" lon="13.31967797">
        <ele>763.00000</ele>
        <time>2024-05-10T18:16:19Z</time>
      </trkpt>
      <trkpt lat="42.93289192" lon="13.31968593">
        <ele>761.00000</ele>
        <time>2024-05-10T18:16:21Z</time>
      </trkpt>
      <trkpt lat="42.93299895" lon="13.31969498">
        <ele>760.00000</ele>
        <time>2024-05-10T18:16:23Z</time>
      </trkpt>
      <trkpt lat="42.93310699" lon="13.31969892">
        <ele>758.00000</ele>
        <time>2024-05-10T18:16:26Z</time>
      </trkpt>
      <trkpt lat="42.93321797" lon="13.31969196">
        <ele>757.00000</ele>
        <time>2024-05-10T18:16:28Z</time>
      </trkpt>
      <trkpt lat="42.93332694" lon="13.31966891">
        <ele>757.00000</ele>
        <time>2024-05-10T18:16:30Z</time>
      </trkpt>
      <trkpt lat="42.93343992" lon="13.31963698">
        <ele>756.00000</ele>
        <time>2024-05-10T18:16:32Z</time>
      </trkpt>
      <trkpt lat="42.93355492" lon="13.31960094">
        <ele>755.00000</ele>
        <time>2024-05-10T18:16:35Z</time>
      </trkpt>
      <trkpt lat="42.93367696" lon="13.31956498">
        <ele>755.00000</ele>
        <time>2024-05-10T18:16:37Z</time>
      </trkpt>
      <trkpt lat="42.93379498" lon="13.31953195">
        <ele>754.00000</ele>
        <time>2024-05-10T18:16:40Z</time>
      </trkpt>
      <trkpt lat="42.93391392" lon="13.31950698">
        <ele>753.00000</ele>
        <time>2024-05-10T18:16:42Z</time>
      </trkpt>
      <trkpt lat="42.93403395" lon="13.31949499">
        <ele>752.00000</ele>
        <time>2024-05-10T18:16:44Z</time>
      </trkpt>
      <trkpt lat="42.93415792" lon="13.31949197">
        <ele>750.00000</ele>
        <time>2024-05-10T18:16:47Z</time>
      </trkpt>
      <trkpt lat="42.93428197" lon="13.31948996">
        <ele>749.00000</ele>
        <time>2024-05-10T18:16:49Z</time>
      </trkpt>
      <trkpt lat="42.93441097" lon="13.31948594">
        <ele>749.00000</ele>
        <time>2024-05-10T18:16:52Z</time>
      </trkpt>
      <trkpt lat="42.93453695" lon="13.31948694">
        <ele>748.00000</ele>
        <time>2024-05-10T18:16:54Z</time>
      </trkpt>
      <trkpt lat="42.93465396" lon="13.31949197">
        <ele>748.00000</ele>
        <time>2024-05-10T18:16:57Z</time>
      </trkpt>
      <trkpt lat="42.93476594" lon="13.31949398">
        <ele>747.00000</ele>
        <time>2024-05-10T18:16:59Z</time>
      </trkpt>
      <trkpt lat="42.93487097" lon="13.31950094">
        <ele>746.00000</ele>
        <time>2024-05-10T18:17:01Z</time>
      </trkpt>
      <trkpt lat="42.93496199" lon="13.31951393">
        <ele>744.00000</ele>
        <time>2024-05-10T18:17:03Z</time>
      </trkpt>
      <trkpt lat="42.93503198" lon="13.31953899">
        <ele>742.00000</ele>
        <time>2024-05-10T18:17:04Z</time>
      </trkpt>
      <trkpt lat="42.93508294" lon="13.31959297">
        <ele>740.00000</ele>
        <time>2024-05-10T18:17:06Z</time>
      </trkpt>
      <trkpt lat="42.93510599" lon="13.31967193">
        <ele>738.00000</ele>
        <time>2024-05-10T18:17:07Z</time>
      </trkpt>
      <trkpt lat="42.93509996" lon="13.31976992">
        <ele>737.00000</ele>
        <time>2024-05-10T18:17:08Z</time>
      </trkpt>
      <trkpt lat="42.93505998" lon="13.31985298">
        <ele>736.00000</ele>
        <time>2024-05-10T18:17:10Z</time>
      </trkpt>
      <trkpt lat="42.93500198" lon="13.31992297">
        <ele>735.00000</ele>
        <time>2024-05-10T18:17:11Z</time>
      </trkpt>
      <trkpt lat="42.93493693" lon="13.31998893">
        <ele>734.00000</ele>
        <time>2024-05-10T18:17:13Z</time>
      </trkpt>
      <trkpt lat="42.93486694" lon="13.32006194">
        <ele>733.00000</ele>
        <time>2024-05-10T18:17:15Z</time>
      </trkpt>
      <trkpt lat="42.93479394" lon="13.32013495">
        <ele>732.00000</ele>
        <time>2024-05-10T18:17:17Z</time>
      </trkpt>
      <trkpt lat="42.93471992" lon="13.32021399">
        <ele>731.00000</ele>
        <time>2024-05-10T18:17:18Z</time>
      </trkpt>
      <trkpt lat="42.93463996" lon="13.32029596">
        <ele>730.00000</ele>
        <time>2024-05-10T18:17:20Z</time>
      </trkpt>
      <trkpt lat="42.93455799" lon="13.32038297">
        <ele>730.00000</ele>
        <time>2024-05-10T18:17:22Z</time>
      </trkpt>
      <trkpt lat="42.93447299" lon="13.32047299">
        <ele>730.00000</ele>
        <time>2024-05-10T18:17:25Z</time>
      </trkpt>
      <trkpt lat="42.93438498" lon="13.32057097">
        <ele>730.00000</ele>
        <time>2024-05-10T18:17:27Z</time>
      </trkpt>
      <trkpt lat="42.93429597" lon="13.32066896">
        <ele>730.00000</ele>
        <time>2024-05-10T18:17:29Z</time>
      </trkpt>
      <trkpt lat="42.93420896" lon="13.32077197">
        <ele>730.00000</ele>
        <time>2024-05-10T18:17:31Z</time>
      </trkpt>
      <trkpt lat="42.93412297" lon="13.32086996">
        <ele>730.00000</ele>
        <time>2024-05-10T18:17:34Z</time>
      </trkpt>
      <trkpt lat="42.93403194" lon="13.32097297">
        <ele>728.00000</ele>
        <time>2024-05-10T18:17:36Z</time>
      </trkpt>
      <trkpt lat="42.93393999" lon="13.32108495">
        <ele>727.00000</ele>
        <time>2024-05-10T18:17:39Z</time>
      </trkpt>
      <trkpt lat="42.93384594" lon="13.32120196">
        <ele>725.00000</ele>
        <time>2024-05-10T18:17:41Z</time>
      </trkpt>
      <trkpt lat="42.93374997" lon="13.32131998">
        <ele>722.00000</ele>
        <time>2024-05-10T18:17:44Z</time>
      </trkpt>
      <trkpt lat="42.93365299" lon="13.32143096">
        <ele>720.00000</ele>
        <time>2024-05-10T18:17:46Z</time>
      </trkpt>
      <trkpt lat="42.93355199" lon="13.32153196">
        <ele>719.00000</ele>
        <time>2024-05-10T18:17:49Z</time>
      </trkpt>
      <trkpt lat="42.93344596" lon="13.32161796">
        <ele>718.00000</ele>
        <time>2024-05-10T18:17:51Z</time>
      </trkpt>
      <trkpt lat="42.93334093" lon="13.32169692">
        <ele>718.00000</ele>
        <time>2024-05-10T18:17:54Z</time>
      </trkpt>
      <trkpt lat="42.93323599" lon="13.32176397">
        <ele>718.00000</ele>
        <time>2024-05-10T18:17:56Z</time>
      </trkpt>
      <trkpt lat="42.93312896" lon="13.32181996">
        <ele>718.00000</ele>
        <time>2024-05-10T18:17:58Z</time>
      </trkpt>
      <trkpt lat="42.93301898" lon="13.32186497">
        <ele>718.00000</ele>
        <time>2024-05-10T18:18:01Z</time>
      </trkpt>
      <trkpt lat="42.93291698" lon="13.32191199">
        <ele>718.00000</ele>
        <time>2024-05-10T18:18:03Z</time>
      </trkpt>
      <trkpt lat="42.93282997" lon="13.32195692">
        <ele>718.00000</ele>
        <time>2024-05-10T18:18:05Z</time>
      </trkpt>
      <trkpt lat="42.93274993" lon="13.32199498">
        <ele>719.00000</ele>
        <time>2024-05-10T18:18:06Z</time>
      </trkpt>
      <trkpt lat="42.93267097" lon="13.32202792">
        <ele>718.00000</ele>
        <time>2024-05-10T18:18:08Z</time>
      </trkpt>
      <trkpt lat="42.93259494" lon="13.32205591">
        <ele>718.00000</ele>
        <time>2024-05-10T18:18:09Z</time>
      </trkpt>
      <trkpt lat="42.93252093" lon="13.32209497">
        <ele>718.00000</ele>
        <time>2024-05-10T18:18:11Z</time>
      </trkpt>
      <trkpt lat="42.93246595" lon="13.32215599">
        <ele>717.00000</ele>
        <time>2024-05-10T18:18:12Z</time>
      </trkpt>
      <trkpt lat="42.93244298" lon="13.32224694">
        <ele>715.00000</ele>
        <time>2024-05-10T18:18:14Z</time>
      </trkpt>
      <trkpt lat="42.93244994" lon="13.32235297">
        <ele>712.00000</ele>
        <time>2024-05-10T18:18:15Z</time>
      </trkpt>
      <trkpt lat="42.93250299" lon="13.32243796">
        <ele>709.00000</ele>
        <time>2024-05-10T18:18:17Z</time>
      </trkpt>
      <trkpt lat="42.93257692" lon="13.32250694">
        <ele>707.00000</ele>
        <time>2024-05-10T18:18:19Z</time>
      </trkpt>
      <trkpt lat="42.93265898" lon="13.32256997">
        <ele>705.00000</ele>
        <time>2024-05-10T18:18:21Z</time>
      </trkpt>
      <trkpt lat="42.93274498" lon="13.32264197">
        <ele>703.00000</ele>
        <time>2024-05-10T18:18:23Z</time>
      </trkpt>
      <trkpt lat="42.93283198" lon="13.32271699">
        <ele>702.00000</ele>
        <time>2024-05-10T18:18:25Z</time>
      </trkpt>
      <trkpt lat="42.93292494" lon="13.32278497">
        <ele>700.00000</ele>
        <time>2024-05-10T18:18:27Z</time>
      </trkpt>
      <trkpt lat="42.93301597" lon="13.32285798">
        <ele>699.00000</ele>
        <time>2024-05-10T18:18:29Z</time>
      </trkpt>
      <trkpt lat="42.93311295" lon="13.32292998">
        <ele>698.00000</ele>
        <time>2024-05-10T18:18:31Z</time>
      </trkpt>
      <trkpt lat="42.93321194" lon="13.32300692">
        <ele>698.00000</ele>
        <time>2024-05-10T18:18:34Z</time>
      </trkpt>
      <trkpt lat="42.93330891" lon="13.32308798">
        <ele>698.00000</ele>
        <time>2024-05-10T18:18:36Z</time>
      </trkpt>
      <trkpt lat="42.93340195" lon="13.32317096">
        <ele>696.00000</ele>
        <time>2024-05-10T18:18:38Z</time>
      </trkpt>
      <trkpt lat="42.93349692" lon="13.32324799">
        <ele>695.00000</ele>
        <time>2024-05-10T18:18:40Z</time>
      </trkpt>
      <trkpt lat="42.93358996" lon="13.32330993">
        <ele>694.00000</ele>
        <time>2024-05-10T18:18:42Z</time>
      </trkpt>
      <trkpt lat="42.93368996" lon="13.32335192">
        <ele>692.00000</ele>
        <time>2024-05-10T18:18:44Z</time>
      </trkpt>
      <trkpt lat="42.93379297" lon="13.32336097">
        <ele>690.00000</ele>
        <time>2024-05-10T18:18:46Z</time>
      </trkpt>
      <trkpt lat="42.93388894" lon="13.32332393">
        <ele>690.00000</ele>
        <time>2024-05-10T18:18:48Z</time>
      </trkpt>
      <trkpt lat="42.93397997" lon="13.32325696">
        <ele>690.00000</ele>
        <time>2024-05-10T18:18:51Z</time>
      </trkpt>
      <trkpt lat="42.93407393" lon="13.32317196">
        <ele>691.00000</ele>
        <time>2024-05-10T18:18:53Z</time>
      </trkpt>
      <trkpt lat="42.93416395" lon="13.32307792">
        <ele>691.00000</ele>
        <time>2024-05-10T18:18:55Z</time>
      </trkpt>
      <trkpt lat="42.93426495" lon="13.32299896">
        <ele>690.00000</ele>
        <time>2024-05-10T18:18:57Z</time>
      </trkpt>
      <trkpt lat="42.93436696" lon="13.32292797">
        <ele>689.00000</ele>
        <time>2024-05-10T18:19:00Z</time>
      </trkpt>
      <trkpt lat="42.93446595" lon="13.32285496">
        <ele>688.00000</ele>
        <time>2024-05-10T18:19:02Z</time>
      </trkpt>
      <trkpt lat="42.93456394" lon="13.32278799">
        <ele>688.00000</ele>
        <time>2024-05-10T18:19:04Z</time>
      </trkpt>
      <trkpt lat="42.93466494" lon="13.32273795">
        <ele>687.00000</ele>
        <time>2024-05-10T18:19:06Z</time>
      </trkpt>
      <trkpt lat="42.93476795" lon="13.32272093">
        <ele>686.00000</ele>
        <time>2024-05-10T18:19:08Z</time>
      </trkpt>
      <trkpt lat="42.93486996" lon="13.32275496">
        <ele>685.00000</ele>
        <time>2024-05-10T18:19:10Z</time>
      </trkpt>
      <trkpt lat="42.93497197" lon="13.32281699">
        <ele>683.00000</ele>
        <time>2024-05-10T18:19:13Z</time>
      </trkpt>
      <trkpt lat="42.93507398" lon="13.32286996">
        <ele>681.00000</ele>
        <time>2024-05-10T18:19:15Z</time>
      </trkpt>
      <trkpt lat="42.93517699" lon="13.32292294">
        <ele>679.00000</ele>
        <time>2024-05-10T18:19:17Z</time>
      </trkpt>
      <trkpt lat="42.93528193" lon="13.32297893">
        <ele>678.00000</ele>
        <time>2024-05-10T18:19:19Z</time>
      </trkpt>
      <trkpt lat="42.93538595" lon="13.32302696">
        <ele>676.00000</ele>
        <time>2024-05-10T18:19:22Z</time>
      </trkpt>
      <trkpt lat="42.93549399" lon="13.32305696">
        <ele>674.00000</ele>
        <time>2024-05-10T18:19:24Z</time>
      </trkpt>
      <trkpt lat="42.93559692" lon="13.32305093">
        <ele>673.00000</ele>
        <time>2024-05-10T18:19:26Z</time>
      </trkpt>
      <trkpt lat="42.93570195" lon="13.32302796">
        <ele>672.00000</ele>
        <time>2024-05-10T18:19:28Z</time>
      </trkpt>
      <trkpt lat="42.93580194" lon="13.32301396">
        <ele>672.00000</ele>
        <time>2024-05-10T18:19:30Z</time>
      </trkpt>
      <trkpt lat="42.93590194" lon="13.32302193">
        <ele>671.00000</ele>
        <time>2024-05-10T18:19:32Z</time>
      </trkpt>
      <trkpt lat="42.93600194" lon="13.32304498">
        <ele>671.00000</ele>
        <time>2024-05-10T18:19:34Z</time>
      </trkpt>
      <trkpt lat="42.93609598" lon="13.32309594">
        <ele>670.00000</ele>
        <time>2024-05-10T18:19:36Z</time>
      </trkpt>
      <trkpt lat="42.93618097" lon="13.32316895">
        <ele>668.00000</ele>
        <time>2024-05-10T18:19:38Z</time>
      </trkpt>
      <trkpt lat="42.93626295" lon="13.32325394">
        <ele>667.00000</ele>
        <time>2024-05-10T18:19:40Z</time>
      </trkpt>
      <trkpt lat="42.93634895" lon="13.32334295">
        <ele>665.00000</ele>
        <time>2024-05-10T18:19:42Z</time>
      </trkpt>
      <trkpt lat="42.93643796" lon="13.32342694">
        <ele>664.00000</ele>
        <time>2024-05-10T18:19:44Z</time>
      </trkpt>
      <trkpt lat="42.93653293" lon="13.32350397">
        <ele>663.00000</ele>
        <time>2024-05-10T18:19:47Z</time>
      </trkpt>
      <trkpt lat="42.93663594" lon="13.32358092">
        <ele>662.00000</ele>
        <time>2024-05-10T18:19:49Z</time>
      </trkpt>
      <trkpt lat="42.93674399" lon="13.32364697">
        <ele>661.00000</ele>
        <time>2024-05-10T18:19:51Z</time>
      </trkpt>
      <trkpt lat="42.93685496" lon="13.32371897">
        <ele>660.00000</ele>
        <time>2024-05-10T18:19:54Z</time>
      </trkpt>
      <trkpt lat="42.93696192" lon="13.32378393">
        <ele>658.00000</ele>
        <time>2024-05-10T18:19:56Z</time>
      </trkpt>
      <trkpt lat="42.93706996" lon="13.32385492">
        <ele>655.00000</ele>
        <time>2024-05-10T18:19:58Z</time>
      </trkpt>
      <trkpt lat="42.93717792" lon="13.32392298">
        <ele>653.00000</ele>
        <time>2024-05-10T18:20:01Z</time>
      </trkpt>
      <trkpt lat="42.93728898" lon="13.32397294">
        <ele>652.00000</ele>
        <time>2024-05-10T18:20:03Z</time>
      </trkpt>
      <trkpt lat="42.93741093" lon="13.32399792">
        <ele>652.00000</ele>
        <time>2024-05-10T18:20:06Z</time>
      </trkpt>
      <trkpt lat="42.93753398" lon="13.32399398">
        <ele>652.00000</ele>
        <time>2024-05-10T18:20:08Z</time>
      </trkpt>
      <trkpt lat="42.93765393" lon="13.32398199">
        <ele>652.00000</ele>
        <time>2024-05-10T18:20:11Z</time>
      </trkpt>
      <trkpt lat="42.93777295" lon="13.32397093">
        <ele>652.00000</ele>
        <time>2024-05-10T18:20:13Z</time>
      </trkpt>
      <trkpt lat="42.93790999" lon="13.32396095">
        <ele>652.00000</ele>
        <time>2024-05-10T18:20:16Z</time>
      </trkpt>
      <trkpt lat="42.93804796" lon="13.32395492">
        <ele>651.00000</ele>
        <time>2024-05-10T18:20:18Z</time>
      </trkpt>
      <trkpt lat="42.93818894" lon="13.32394997">
        <ele>649.00000</ele>
        <time>2024-05-10T18:20:21Z</time>
      </trkpt>
      <trkpt lat="42.93833395" lon="13.32395399">
        <ele>646.00000</ele>
        <time>2024-05-10T18:20:24Z</time>
      </trkpt>
      <trkpt lat="42.93847393" lon="13.32396992">
        <ele>643.00000</ele>
        <time>2024-05-10T18:20:27Z</time>
      </trkpt>
      <trkpt lat="42.93861097" lon="13.32399096">
        <ele>640.00000</ele>
        <time>2024-05-10T18:20:30Z</time>
      </trkpt>
      <trkpt lat="42.93874399" lon="13.32402197">
        <ele>637.00000</ele>
        <time>2024-05-10T18:20:32Z</time>
      </trkpt>
      <trkpt lat="42.93887693" lon="13.32405793">
        <ele>635.00000</ele>
        <time>2024-05-10T18:20:35Z</time>
      </trkpt>
      <trkpt lat="42.93900794" lon="13.32408995">
        <ele>634.00000</ele>
        <time>2024-05-10T18:20:38Z</time>
      </trkpt>
      <trkpt lat="42.93914096" lon="13.32412096">
        <ele>633.00000</ele>
        <time>2024-05-10T18:20:40Z</time>
      </trkpt>
      <trkpt lat="42.93927197" lon="13.32415298">
        <ele>633.00000</ele>
        <time>2024-05-10T18:20:43Z</time>
      </trkpt>
      <trkpt lat="42.93940298" lon="13.32419095">
        <ele>633.00000</ele>
        <time>2024-05-10T18:20:46Z</time>
      </trkpt>
      <trkpt lat="42.93952996" lon="13.32422892">
        <ele>632.00000</ele>
        <time>2024-05-10T18:20:48Z</time>
      </trkpt>
      <trkpt lat="42.93965796" lon="13.32426496">
        <ele>630.00000</ele>
        <time>2024-05-10T18:20:51Z</time>
      </trkpt>
      <trkpt lat="42.93978695" lon="13.32429598">
        <ele>628.00000</ele>
        <time>2024-05-10T18:20:54Z</time>
      </trkpt>
      <trkpt lat="42.93991193" lon="13.32433093">
        <ele>625.00000</ele>
        <time>2024-05-10T18:20:56Z</time>
      </trkpt>
      <trkpt lat="42.94002491" lon="13.32436395">
        <ele>622.00000</ele>
        <time>2024-05-10T18:20:59Z</time>
      </trkpt>
      <trkpt lat="42.94013195" lon="13.32438298">
        <ele>621.00000</ele>
        <time>2024-05-10T18:21:01Z</time>
      </trkpt>
      <trkpt lat="42.94023094" lon="13.32439195">
        <ele>620.00000</ele>
        <time>2024-05-10T18:21:03Z</time>
      </trkpt>
      <trkpt lat="42.94032096" lon="13.32439798">
        <ele>619.00000</ele>
        <time>2024-05-10T18:21:04Z</time>
      </trkpt>
      <trkpt lat="42.94040093" lon="13.32440393">
        <ele>617.00000</ele>
        <time>2024-05-10T18:21:06Z</time>
      </trkpt>
      <trkpt lat="42.94046899" lon="13.32443495">
        <ele>616.00000</ele>
        <time>2024-05-10T18:21:07Z</time>
      </trkpt>
      <trkpt lat="42.94052096" lon="13.32450997">
        <ele>616.00000</ele>
        <time>2024-05-10T18:21:09Z</time>
      </trkpt>
      <trkpt lat="42.94056094" lon="13.32460996">
        <ele>616.00000</ele>
        <time>2024-05-10T18:21:11Z</time>
      </trkpt>
      <trkpt lat="42.94060494" lon="13.32471599">
        <ele>616.00000</ele>
        <time>2024-05-10T18:21:12Z</time>
      </trkpt>
      <trkpt lat="42.94065196" lon="13.32482496">
        <ele>615.00000</ele>
        <time>2024-05-10T18:21:14Z</time>
      </trkpt>
      <trkpt lat="42.94070594" lon="13.32493996">
        <ele>615.00000</ele>
        <time>2024-05-10T18:21:16Z</time>
      </trkpt>
      <trkpt lat="42.94076898" lon="13.32505093">
        <ele>614.00000</ele>
        <time>2024-05-10T18:21:18Z</time>
      </trkpt>
      <trkpt lat="42.94083997" lon="13.32515797">
        <ele>613.00000</ele>
        <time>2024-05-10T18:21:21Z</time>
      </trkpt>
      <trkpt lat="42.94092396" lon="13.32526199">
        <ele>611.00000</ele>
        <time>2024-05-10T18:21:23Z</time>
      </trkpt>
      <trkpt lat="42.94101499" lon="13.32535997">
        <ele>608.00000</ele>
        <time>2024-05-10T18:21:25Z</time>
      </trkpt>
      <trkpt lat="42.94110693" lon="13.32546299">
        <ele>607.00000</ele>
        <time>2024-05-10T18:21:27Z</time>
      </trkpt>
      <trkpt lat="42.94119092" lon="13.32556198">
        <ele>605.00000</ele>
        <time>2024-05-10T18:21:30Z</time>
      </trkpt>
      <trkpt lat="42.94125596" lon="13.32566399">
        <ele>602.00000</ele>
        <time>2024-05-10T18:21:32Z</time>
      </trkpt>
      <trkpt lat="42.94130894" lon="13.32576893">
        <ele>601.00000</ele>
        <time>2024-05-10T18:21:34Z</time>
      </trkpt>
      <trkpt lat="42.94134297" lon="13.32586498">
        <ele>600.00000</ele>
        <time>2024-05-10T18:21:35Z</time>
      </trkpt>
      <trkpt lat="42.94134892" lon="13.32595995">
        <ele>599.00000</ele>
        <time>2024-05-10T18:21:37Z</time>
      </trkpt>
      <trkpt lat="42.94132193" lon="13.32605492">
        <ele>599.00000</ele>
        <time>2024-05-10T18:21:38Z</time>
      </trkpt>
      <trkpt lat="42.94126292" lon="13.32611292">
        <ele>600.00000</ele>
        <time>2024-05-10T18:21:39Z</time>
      </trkpt>
      <trkpt lat="42.94119293" lon="13.32614192">
        <ele>600.00000</ele>
        <time>2024-05-10T18:21:41Z</time>
      </trkpt>
      <trkpt lat="42.94111791" lon="13.32614695">
        <ele>602.00000</ele>
        <time>2024-05-10T18:21:42Z</time>
      </trkpt>
      <trkpt lat="42.94104692" lon="13.32612298">
        <ele>602.00000</ele>
        <time>2024-05-10T18:21:44Z</time>
      </trkpt>
      <trkpt lat="42.94097593" lon="13.32608099">
        <ele>601.00000</ele>
        <time>2024-05-10T18:21:45Z</time>
      </trkpt>
      <trkpt lat="42.94089797" lon="13.32602893">
        <ele>601.00000</ele>
        <time>2024-05-10T18:21:47Z</time>
      </trkpt>
      <trkpt lat="42.94081399" lon="13.32598694">
        <ele>601.00000</ele>
        <time>2024-05-10T18:21:49Z</time>
      </trkpt>
      <trkpt lat="42.94072799" lon="13.32596892">
        <ele>600.00000</ele>
        <time>2024-05-10T18:21:51Z</time>
      </trkpt>
      <trkpt lat="42.94063797" lon="13.32597093">
        <ele>599.00000</ele>
        <time>2024-05-10T18:21:53Z</time>
      </trkpt>
      <trkpt lat="42.94054099" lon="13.32597294">
        <ele>598.00000</ele>
        <time>2024-05-10T18:21:54Z</time>
      </trkpt>
      <trkpt lat="42.94043999" lon="13.32597495">
        <ele>597.00000</ele>
        <time>2024-05-10T18:21:56Z</time>
      </trkpt>
      <trkpt lat="42.94033798" lon="13.32597998">
        <ele>596.00000</ele>
        <time>2024-05-10T18:21:59Z</time>
      </trkpt>
      <trkpt lat="42.94023396" lon="13.32598392">
        <ele>595.00000</ele>
        <time>2024-05-10T18:22:01Z</time>
      </trkpt>
      <trkpt lat="42.94013195" lon="13.32598493">
        <ele>594.00000</ele>
        <time>2024-05-10T18:22:03Z</time>
      </trkpt>
      <trkpt lat="42.94002198" lon="13.32598191">
        <ele>593.00000</ele>
        <time>2024-05-10T18:22:05Z</time>
      </trkpt>
      <trkpt lat="42.93990698" lon="13.32597395">
        <ele>591.00000</ele>
        <time>2024-05-10T18:22:07Z</time>
      </trkpt>
      <trkpt lat="42.93978997" lon="13.32596892">
        <ele>590.00000</ele>
        <time>2024-05-10T18:22:09Z</time>
      </trkpt>
      <trkpt lat="42.93967497" lon="13.32596892">
        <ele>590.00000</ele>
        <time>2024-05-10T18:22:12Z</time>
      </trkpt>
      <trkpt lat="42.93956198" lon="13.32596498">
        <ele>590.00000</ele>
        <time>2024-05-10T18:22:14Z</time>
      </trkpt>
      <trkpt lat="42.93945595" lon="13.32595895">
        <ele>590.00000</ele>
        <time>2024-05-10T18:22:16Z</time>
      </trkpt>
      <trkpt lat="42.93936199" lon="13.32595593">
        <ele>590.00000</ele>
        <time>2024-05-10T18:22:18Z</time>
      </trkpt>
      <trkpt lat="42.93927993" lon="13.32594595">
        <ele>590.00000</ele>
        <time>2024-05-10T18:22:20Z</time>
      </trkpt>
      <trkpt lat="42.93920198" lon="13.32592793">
        <ele>590.00000</ele>
        <time>2024-05-10T18:22:21Z</time>
      </trkpt>
      <trkpt lat="42.93913291" lon="13.32591393">
        <ele>590.00000</ele>
        <time>2024-05-10T18:22:23Z</time>
      </trkpt>
      <trkpt lat="42.93907499" lon="13.32591092">
        <ele>590.00000</ele>
        <time>2024-05-10T18:22:24Z</time>
      </trkpt>
      <trkpt lat="42.93903099" lon="13.32592894">
        <ele>590.00000</ele>
        <time>2024-05-10T18:22:25Z</time>
      </trkpt>
      <trkpt lat="42.93900299" lon="13.32596892">
        <ele>589.00000</ele>
        <time>2024-05-10T18:22:26Z</time>
      </trkpt>
      <trkpt lat="42.93899696" lon="13.32602499">
        <ele>588.00000</ele>
        <time>2024-05-10T18:22:26Z</time>
      </trkpt>
      <trkpt lat="42.93900894" lon="13.32607395">
        <ele>587.00000</ele>
        <time>2024-05-10T18:22:27Z</time>
      </trkpt>
      <trkpt lat="42.93904197" lon="13.32611594">
        <ele>586.00000</ele>
        <time>2024-05-10T18:22:28Z</time>
      </trkpt>
      <trkpt lat="42.93908991" lon="13.32614192">
        <ele>586.00000</ele>
        <time>2024-05-10T18:22:29Z</time>
      </trkpt>
      <trkpt lat="42.93915194" lon="13.32616992">
        <ele>585.00000</ele>
        <time>2024-05-10T18:22:30Z</time>
      </trkpt>
      <trkpt lat="42.93922394" lon="13.32620797">
        <ele>585.00000</ele>
        <time>2024-05-10T18:22:32Z</time>
      </trkpt>
      <trkpt lat="42.93930692" lon="13.32625298">
        <ele>584.00000</ele>
        <time>2024-05-10T18:22:34Z</time>
      </trkpt>
      <trkpt lat="42.93938898" lon="13.32629992">
        <ele>584.00000</ele>
        <time>2024-05-10T18:22:35Z</time>
      </trkpt>
      <trkpt lat="42.93947297" lon="13.32636798">
        <ele>583.00000</ele>
        <time>2024-05-10T18:22:37Z</time>
      </trkpt>
      <trkpt lat="42.93955695" lon="13.32643697">
        <ele>581.00000</ele>
        <time>2024-05-10T18:22:39Z</time>
      </trkpt>
      <trkpt lat="42.93964195" lon="13.32649799">
        <ele>579.00000</ele>
        <time>2024-05-10T18:22:41Z</time>
      </trkpt>
      <trkpt lat="42.93973096" lon="13.32655398">
        <ele>578.00000</ele>
        <time>2024-05-10T18:22:43Z</time>
      </trkpt>
      <trkpt lat="42.93982794" lon="13.32661097">
        <ele>577.00000</ele>
        <time>2024-05-10T18:22:45Z</time>
      </trkpt>
      <trkpt lat="42.93992391" lon="13.32666797">
        <ele>575.00000</ele>
        <time>2024-05-10T18:22:47Z</time>
      </trkpt>
      <trkpt lat="42.94002793" lon="13.32673394">
        <ele>574.00000</ele>
        <time>2024-05-10T18:22:50Z</time>
      </trkpt>
      <trkpt lat="42.94013195" lon="13.32680393">
        <ele>573.00000</ele>
        <time>2024-05-10T18:22:52Z</time>
      </trkpt>
      <trkpt lat="42.94023597" lon="13.32688598">
        <ele>573.00000</ele>
        <time>2024-05-10T18:22:54Z</time>
      </trkpt>
      <trkpt lat="42.94033999" lon="13.32696997">
        <ele>572.00000</ele>
        <time>2024-05-10T18:22:57Z</time>
      </trkpt>
      <trkpt lat="42.94044493" lon="13.32707298">
        <ele>570.00000</ele>
        <time>2024-05-10T18:22:59Z</time>
      </trkpt>
      <trkpt lat="42.94054292" lon="13.32718195">
        <ele>569.00000</ele>
        <time>2024-05-10T18:23:02Z</time>
      </trkpt>
      <trkpt lat="42.94064895" lon="13.32726594">
        <ele>569.00000</ele>
        <time>2024-05-10T18:23:04Z</time>
      </trkpt>
      <trkpt lat="42.94074995" lon="13.32735696">
        <ele>569.00000</ele>
        <time>2024-05-10T18:23:07Z</time>
      </trkpt>
      <trkpt lat="42.94085497" lon="13.32744397">
        <ele>568.00000</ele>
        <time>2024-05-10T18:23:09Z</time>
      </trkpt>
      <trkpt lat="42.94097299" lon="13.32750692">
        <ele>565.00000</ele>
        <time>2024-05-10T18:23:12Z</time>
      </trkpt>
      <trkpt lat="42.94109495" lon="13.32754296">
        <ele>564.00000</ele>
        <time>2024-05-10T18:23:14Z</time>
      </trkpt>
      <trkpt lat="42.94121992" lon="13.32757095">
        <ele>561.00000</ele>
        <time>2024-05-10T18:23:17Z</time>
      </trkpt>
      <trkpt lat="42.94135093" lon="13.32758897">
        <ele>559.00000</ele>
        <time>2024-05-10T18:23:20Z</time>
      </trkpt>
      <trkpt lat="42.94147792" lon="13.32760599">
        <ele>557.00000</ele>
        <time>2024-05-10T18:23:22Z</time>
      </trkpt>
      <trkpt lat="42.94160893" lon="13.32760993">
        <ele>555.00000</ele>
        <time>2024-05-10T18:23:25Z</time>
      </trkpt>
      <trkpt lat="42.94174195" lon="13.32760691">
        <ele>553.00000</ele>
        <time>2024-05-10T18:23:27Z</time>
      </trkpt>
      <trkpt lat="42.94186692" lon="13.32758495">
        <ele>551.00000</ele>
        <time>2024-05-10T18:23:30Z</time>
      </trkpt>
      <trkpt lat="42.94198192" lon="13.32754497">
        <ele>550.00000</ele>
        <time>2024-05-10T18:23:32Z</time>
      </trkpt>
      <trkpt lat="42.94207597" lon="13.32747699">
        <ele>549.00000</ele>
        <time>2024-05-10T18:23:34Z</time>
      </trkpt>
      <trkpt lat="42.94214495" lon="13.32738697">
        <ele>550.00000</ele>
        <time>2024-05-10T18:23:36Z</time>
      </trkpt>
      <trkpt lat="42.94219993" lon="13.32729795">
        <ele>551.00000</ele>
        <time>2024-05-10T18:23:38Z</time>
      </trkpt>
      <trkpt lat="42.94224696" lon="13.32722897">
        <ele>552.00000</ele>
        <time>2024-05-10T18:23:39Z</time>
      </trkpt>
      <trkpt lat="42.94229197" lon="13.32717298">
        <ele>552.00000</ele>
        <time>2024-05-10T18:23:41Z</time>
      </trkpt>
      <trkpt lat="42.94234695" lon="13.32713593">
        <ele>551.00000</ele>
        <time>2024-05-10T18:23:42Z</time>
      </trkpt>
      <trkpt lat="42.94240797" lon="13.32715798">
        <ele>550.00000</ele>
        <time>2024-05-10T18:23:43Z</time>
      </trkpt>
      <trkpt lat="42.94243798" lon="13.32723299">
        <ele>549.00000</ele>
        <time>2024-05-10T18:23:44Z</time>
      </trkpt>
      <trkpt lat="42.94245399" lon="13.32731698">
        <ele>548.00000</ele>
        <time>2024-05-10T18:23:46Z</time>
      </trkpt>
      <trkpt lat="42.94246698" lon="13.32740893">
        <ele>547.00000</ele>
        <time>2024-05-10T18:23:47Z</time>
      </trkpt>
      <trkpt lat="42.94248593" lon="13.32751396">
        <ele>546.00000</ele>
        <time>2024-05-10T18:23:49Z</time>
      </trkpt>
      <trkpt lat="42.94250495" lon="13.32763097">
        <ele>546.00000</ele>
        <time>2024-05-10T18:23:50Z</time>
      </trkpt>
      <trkpt lat="42.94253094" lon="13.32775594">
        <ele>545.00000</ele>
        <time>2024-05-10T18:23:52Z</time>
      </trkpt>
      <trkpt lat="42.94255692" lon="13.32787798">
        <ele>544.00000</ele>
        <time>2024-05-10T18:23:54Z</time>
      </trkpt>
      <trkpt lat="42.94257695" lon="13.32800799">
        <ele>543.00000</ele>
        <time>2024-05-10T18:23:56Z</time>
      </trkpt>
      <trkpt lat="42.94260394" lon="13.32814897">
        <ele>541.00000</ele>
        <time>2024-05-10T18:23:58Z</time>
      </trkpt>
      <trkpt lat="42.94263496" lon="13.32829498">
        <ele>540.00000</ele>
        <time>2024-05-10T18:24:00Z</time>
      </trkpt>
      <trkpt lat="42.94266295" lon="13.32844493">
        <ele>539.00000</ele>
        <time>2024-05-10T18:24:03Z</time>
      </trkpt>
      <trkpt lat="42.94268994" lon="13.32859195">
        <ele>538.00000</ele>
        <time>2024-05-10T18:24:05Z</time>
      </trkpt>
      <trkpt lat="42.94270997" lon="13.32874098">
        <ele>536.00000</ele>
        <time>2024-05-10T18:24:07Z</time>
      </trkpt>
      <trkpt lat="42.94270897" lon="13.32888599">
        <ele>534.00000</ele>
        <time>2024-05-10T18:24:09Z</time>
      </trkpt>
      <trkpt lat="42.94267695" lon="13.32901792">
        <ele>534.00000</ele>
        <time>2024-05-10T18:24:11Z</time>
      </trkpt>
      <trkpt lat="42.94261995" lon="13.32913191">
        <ele>534.00000</ele>
        <time>2024-05-10T18:24:13Z</time>
      </trkpt>
      <trkpt lat="42.94254695" lon="13.32923795">
        <ele>535.00000</ele>
        <time>2024-05-10T18:24:16Z</time>
      </trkpt>
      <trkpt lat="42.94247394" lon="13.32934699">
        <ele>536.00000</ele>
        <time>2024-05-10T18:24:18Z</time>
      </trkpt>
      <trkpt lat="42.94239498" lon="13.32945495">
        <ele>535.00000</ele>
        <time>2024-05-10T18:24:20Z</time>
      </trkpt>
      <trkpt lat="42.94231091" lon="13.32956199">
        <ele>533.00000</ele>
        <time>2024-05-10T18:24:22Z</time>
      </trkpt>
      <trkpt lat="42.94222692" lon="13.32967791">
        <ele>530.00000</ele>
        <time>2024-05-10T18:24:25Z</time>
      </trkpt>
      <trkpt lat="42.94213992" lon="13.32979492">
        <ele>527.00000</ele>
        <time>2024-05-10T18:24:27Z</time>
      </trkpt>
      <trkpt lat="42.94205392" lon="13.32990992">
        <ele>524.00000</ele>
        <time>2024-05-10T18:24:29Z</time>
      </trkpt>
      <trkpt lat="42.94197195" lon="13.33001696">
        <ele>520.00000</ele>
        <time>2024-05-10T18:24:32Z</time>
      </trkpt>
      <trkpt lat="42.94190095" lon="13.33013892">
        <ele>519.00000</ele>
        <time>2024-05-10T18:24:34Z</time>
      </trkpt>
      <trkpt lat="42.94186592" lon="13.33028594">
        <ele>519.00000</ele>
        <time>2024-05-10T18:24:36Z</time>
      </trkpt>
      <trkpt lat="42.94184597" lon="13.33043195">
        <ele>519.00000</ele>
        <time>2024-05-10T18:24:38Z</time>
      </trkpt>
      <trkpt lat="42.94183499" lon="13.33058995">
        <ele>519.00000</ele>
        <time>2024-05-10T18:24:41Z</time>
      </trkpt>
      <trkpt lat="42.94182593" lon="13.33075197">
        <ele>519.00000</ele>
        <time>2024-05-10T18:24:43Z</time>
      </trkpt>
      <trkpt lat="42.94182694" lon="13.33091399">
        <ele>519.00000</ele>
        <time>2024-05-10T18:24:46Z</time>
      </trkpt>
      <trkpt lat="42.94183691" lon="13.33107492">
        <ele>519.00000</ele>
        <time>2024-05-10T18:24:48Z</time>
      </trkpt>
      <trkpt lat="42.94185091" lon="13.33123996">
        <ele>519.00000</ele>
        <time>2024-05-10T18:24:50Z</time>
      </trkpt>
      <trkpt lat="42.94187296" lon="13.33140693">
        <ele>518.00000</ele>
        <time>2024-05-10T18:24:53Z</time>
      </trkpt>
      <trkpt lat="42.94189793" lon="13.33157692">
        <ele>518.00000</ele>
        <time>2024-05-10T18:24:55Z</time>
      </trkpt>
      <trkpt lat="42.94192895" lon="13.33173793">
        <ele>517.00000</ele>
        <time>2024-05-10T18:24:58Z</time>
      </trkpt>
      <trkpt lat="42.94196097" lon="13.33189493">
        <ele>515.00000</ele>
        <time>2024-05-10T18:25:00Z</time>
      </trkpt>
      <trkpt lat="42.94199592" lon="13.33205393">
        <ele>514.00000</ele>
        <time>2024-05-10T18:25:03Z</time>
      </trkpt>
      <trkpt lat="42.94202995" lon="13.33220598">
        <ele>515.00000</ele>
        <time>2024-05-10T18:25:05Z</time>
      </trkpt>
      <trkpt lat="42.94205996" lon="13.33235593">
        <ele>515.00000</ele>
        <time>2024-05-10T18:25:07Z</time>
      </trkpt>
      <trkpt lat="42.94208795" lon="13.33249599">
        <ele>515.00000</ele>
        <time>2024-05-10T18:25:09Z</time>
      </trkpt>
      <trkpt lat="42.94211796" lon="13.33263999">
        <ele>516.00000</ele>
        <time>2024-05-10T18:25:12Z</time>
      </trkpt>
      <trkpt lat="42.94214596" lon="13.33278098">
        <ele>516.00000</ele>
        <time>2024-05-10T18:25:14Z</time>
      </trkpt>
      <trkpt lat="42.94217395" lon="13.33292196">
        <ele>516.00000</ele>
        <time>2024-05-10T18:25:16Z</time>
      </trkpt>
      <trkpt lat="42.94220094" lon="13.33305892">
        <ele>516.00000</ele>
        <time>2024-05-10T18:25:18Z</time>
      </trkpt>
      <trkpt lat="42.94222491" lon="13.33319295">
        <ele>516.00000</ele>
        <time>2024-05-10T18:25:20Z</time>
      </trkpt>
      <trkpt lat="42.94225299" lon="13.33333192">
        <ele>516.00000</ele>
        <time>2024-05-10T18:25:22Z</time>
      </trkpt>
      <trkpt lat="42.94227797" lon="13.33346293">
        <ele>516.00000</ele>
        <time>2024-05-10T18:25:24Z</time>
      </trkpt>
      <trkpt lat="42.94230395" lon="13.33359193">
        <ele>516.00000</ele>
        <time>2024-05-10T18:25:26Z</time>
      </trkpt>
      <trkpt lat="42.94233094" lon="13.33372495">
        <ele>515.00000</ele>
        <time>2024-05-10T18:25:28Z</time>
      </trkpt>
      <trkpt lat="42.94235693" lon="13.33385495">
        <ele>514.00000</ele>
        <time>2024-05-10T18:25:30Z</time>
      </trkpt>
      <trkpt lat="42.94237998" lon="13.33398797">
        <ele>513.00000</ele>
        <time>2024-05-10T18:25:32Z</time>
      </trkpt>
      <trkpt lat="42.94240093" lon="13.33411496">
        <ele>512.00000</ele>
        <time>2024-05-10T18:25:34Z</time>
      </trkpt>
      <trkpt lat="42.94242298" lon="13.33424496">
        <ele>512.00000</ele>
        <time>2024-05-10T18:25:36Z</time>
      </trkpt>
      <trkpt lat="42.94244494" lon="13.33437094">
        <ele>512.00000</ele>
        <time>2024-05-10T18:25:38Z</time>
      </trkpt>
      <trkpt lat="42.94246296" lon="13.33448996">
        <ele>511.00000</ele>
        <time>2024-05-10T18:25:40Z</time>
      </trkpt>
      <trkpt lat="42.94248199" lon="13.33460999">
        <ele>512.00000</ele>
        <time>2024-05-10T18:25:41Z</time>
      </trkpt>
      <trkpt lat="42.94250596" lon="13.33472994">
        <ele>513.00000</ele>
        <time>2024-05-10T18:25:43Z</time>
      </trkpt>
      <trkpt lat="42.94253597" lon="13.33485298">
        <ele>513.00000</ele>
        <time>2024-05-10T18:25:45Z</time>
      </trkpt>
      <trkpt lat="42.94256094" lon="13.33497595">
        <ele>513.00000</ele>
        <time>2024-05-10T18:25:47Z</time>
      </trkpt>
      <trkpt lat="42.94258592" lon="13.33509597">
        <ele>512.00000</ele>
        <time>2024-05-10T18:25:49Z</time>
      </trkpt>
      <trkpt lat="42.94260394" lon="13.33521299">
        <ele>512.00000</ele>
        <time>2024-05-10T18:25:51Z</time>
      </trkpt>
      <trkpt lat="42.94261593" lon="13.33532094">
        <ele>512.00000</ele>
        <time>2024-05-10T18:25:52Z</time>
      </trkpt>
      <trkpt lat="42.94263194" lon="13.33541692">
        <ele>511.00000</ele>
        <time>2024-05-10T18:25:54Z</time>
      </trkpt>
      <trkpt lat="42.94264292" lon="13.33551197">
        <ele>511.00000</ele>
        <time>2024-05-10T18:25:55Z</time>
      </trkpt>
      <trkpt lat="42.94265599" lon="13.33560492">
        <ele>511.00000</ele>
        <time>2024-05-10T18:25:57Z</time>
      </trkpt>
      <trkpt lat="42.94267091" lon="13.33568497">
        <ele>511.00000</ele>
        <time>2024-05-10T18:25:58Z</time>
      </trkpt>
      <trkpt lat="42.94268298" lon="13.33575094">
        <ele>511.00000</ele>
        <time>2024-05-10T18:25:59Z</time>
      </trkpt>
      <trkpt lat="42.94269992" lon="13.33581296">
        <ele>511.00000</ele>
        <time>2024-05-10T18:26:00Z</time>
      </trkpt>
      <trkpt lat="42.94272397" lon="13.33585998">
        <ele>511.00000</ele>
        <time>2024-05-10T18:26:01Z</time>
      </trkpt>
      <trkpt lat="42.94275498" lon="13.33588094">
        <ele>511.00000</ele>
        <time>2024-05-10T18:26:01Z</time>
      </trkpt>
      <trkpt lat="42.94278893" lon="13.33586694">
        <ele>510.00000</ele>
        <time>2024-05-10T18:26:02Z</time>
      </trkpt>
      <trkpt lat="42.94281399" lon="13.33583199">
        <ele>509.00000</ele>
        <time>2024-05-10T18:26:03Z</time>
      </trkpt>
      <trkpt lat="42.94283092" lon="13.33577893">
        <ele>508.00000</ele>
        <time>2024-05-10T18:26:04Z</time>
      </trkpt>
      <trkpt lat="42.94284693" lon="13.33572495">
        <ele>508.00000</ele>
        <time>2024-05-10T18:26:04Z</time>
      </trkpt>
      <trkpt lat="42.94286596" lon="13.33566896">
        <ele>507.00000</ele>
        <time>2024-05-10T18:26:05Z</time>
      </trkpt>
      <trkpt lat="42.94288893" lon="13.33561196">
        <ele>506.00000</ele>
        <time>2024-05-10T18:26:06Z</time>
      </trkpt>
      <trkpt lat="42.94290997" lon="13.33554994">
        <ele>506.00000</ele>
        <time>2024-05-10T18:26:07Z</time>
      </trkpt>
      <trkpt lat="42.94293092" lon="13.33548196">
        <ele>506.00000</ele>
        <time>2024-05-10T18:26:08Z</time>
      </trkpt>
      <trkpt lat="42.94295297" lon="13.33541893">
        <ele>505.00000</ele>
        <time>2024-05-10T18:26:09Z</time>
      </trkpt>
      <trkpt lat="42.94297895" lon="13.33535196">
        <ele>505.00000</ele>
        <time>2024-05-10T18:26:10Z</time>
      </trkpt>
      <trkpt lat="42.94300694" lon="13.33528691">
        <ele>505.00000</ele>
        <time>2024-05-10T18:26:12Z</time>
      </trkpt>
      <trkpt lat="42.94303192" lon="13.33521491">
        <ele>505.00000</ele>
        <time>2024-05-10T18:26:13Z</time>
      </trkpt>
      <trkpt lat="42.94305891" lon="13.33514593">
        <ele>505.00000</ele>
        <time>2024-05-10T18:26:14Z</time>
      </trkpt>
      <trkpt lat="42.94308599" lon="13.33507896">
        <ele>505.00000</ele>
        <time>2024-05-10T18:26:15Z</time>
      </trkpt>
      <trkpt lat="42.94311499" lon="13.33501199">
        <ele>505.00000</ele>
        <time>2024-05-10T18:26:16Z</time>
      </trkpt>
      <trkpt lat="42.94314198" lon="13.33494493">
        <ele>506.00000</ele>
        <time>2024-05-10T18:26:17Z</time>
      </trkpt>
      <trkpt lat="42.94316696" lon="13.33487897">
        <ele>506.00000</ele>
        <time>2024-05-10T18:26:18Z</time>
      </trkpt>
      <trkpt lat="42.94319193" lon="13.33480797">
        <ele>506.00000</ele>
        <time>2024-05-10T18:26:20Z</time>
      </trkpt>
      <trkpt lat="42.94321892" lon="13.33473698">
        <ele>506.00000</ele>
        <time>2024-05-10T18:26:21Z</time>
      </trkpt>
      <trkpt lat="42.94324298" lon="13.33467093">
        <ele>507.00000</ele>
        <time>2024-05-10T18:26:22Z</time>
      </trkpt>
      <trkpt lat="42.94326695" lon="13.33460597">
        <ele>507.00000</ele>
        <time>2024-05-10T18:26:23Z</time>
      </trkpt>
      <trkpt lat="42.94328992" lon="13.33453598">
        <ele>508.00000</ele>
        <time>2024-05-10T18:26:24Z</time>
      </trkpt>
      <trkpt lat="42.94331397" lon="13.33447395">
        <ele>508.00000</ele>
        <time>2024-05-10T18:26:25Z</time>
      </trkpt>
      <trkpt lat="42.94333493" lon="13.33440992">
        <ele>509.00000</ele>
        <time>2024-05-10T18:26:26Z</time>
      </trkpt>
      <trkpt lat="42.94335597" lon="13.33434395">
        <ele>509.00000</ele>
        <time>2024-05-10T18:26:27Z</time>
      </trkpt>
      <trkpt lat="42.94337994" lon="13.33428092">
        <ele>509.00000</ele>
        <time>2024-05-10T18:26:28Z</time>
      </trkpt>
      <trkpt lat="42.94340299" lon="13.33422099">
        <ele>510.00000</ele>
        <time>2024-05-10T18:26:29Z</time>
      </trkpt>
      <trkpt lat="42.94342596" lon="13.33416298">
        <ele>510.00000</ele>
        <time>2024-05-10T18:26:30Z</time>
      </trkpt>
      <trkpt lat="42.94344993" lon="13.33410297">
        <ele>510.00000</ele>
        <time>2024-05-10T18:26:31Z</time>
      </trkpt>
      <trkpt lat="42.94346996" lon="13.33404798">
        <ele>510.00000</ele>
        <time>2024-05-10T18:26:32Z</time>
      </trkpt>
      <trkpt lat="42.94349393" lon="13.33399292">
        <ele>511.00000</ele>
        <time>2024-05-10T18:26:33Z</time>
      </trkpt>
      <trkpt lat="42.94351497" lon="13.33393894">
        <ele>511.00000</ele>
        <time>2024-05-10T18:26:34Z</time>
      </trkpt>
      <trkpt lat="42.94353391" lon="13.33388496">
        <ele>511.00000</ele>
        <time>2024-05-10T18:26:35Z</time>
      </trkpt>
      <trkpt lat="42.94354892" lon="13.33383299">
        <ele>511.00000</ele>
        <time>2024-05-10T18:26:36Z</time>
      </trkpt>
      <trkpt lat="42.94357398" lon="13.33380399">
        <ele>511.00000</ele>
        <time>2024-05-10T18:26:36Z</time>
      </trkpt>
      <trkpt lat="42.94360499" lon="13.33380198">
        <ele>511.00000</ele>
        <time>2024-05-10T18:26:37Z</time>
      </trkpt>
      <trkpt lat="42.94363198" lon="13.33381899">
        <ele>511.00000</ele>
        <time>2024-05-10T18:26:37Z</time>
      </trkpt>
      <trkpt lat="42.94364891" lon="13.33384799">
        <ele>511.00000</ele>
        <time>2024-05-10T18:26:38Z</time>
      </trkpt>
      <trkpt lat="42.94366593" lon="13.33387892">
        <ele>511.00000</ele>
        <time>2024-05-10T18:26:39Z</time>
      </trkpt>
      <trkpt lat="42.94367892" lon="13.33392092">
        <ele>511.00000</ele>
        <time>2024-05-10T18:26:39Z</time>
      </trkpt>
      <trkpt lat="42.94369694" lon="13.33396693">
        <ele>511.00000</ele>
        <time>2024-05-10T18:26:40Z</time>
      </trkpt>
      <trkpt lat="42.94372494" lon="13.33401295">
        <ele>511.00000</ele>
        <time>2024-05-10T18:26:41Z</time>
      </trkpt>
      <trkpt lat="42.94376299" lon="13.33404899">
        <ele>510.00000</ele>
        <time>2024-05-10T18:26:42Z</time>
      </trkpt>
      <trkpt lat="42.94380892" lon="13.33407296">
        <ele>510.00000</ele>
        <time>2024-05-10T18:26:43Z</time>
      </trkpt>
      <trkpt lat="42.94386098" lon="13.33408495">
        <ele>510.00000</ele>
        <time>2024-05-10T18:26:44Z</time>
      </trkpt>
      <trkpt lat="42.94391395" lon="13.33409392">
        <ele>509.00000</ele>
        <time>2024-05-10T18:26:45Z</time>
      </trkpt>
      <trkpt lat="42.94396692" lon="13.33410498">
        <ele>509.00000</ele>
        <time>2024-05-10T18:26:46Z</time>
      </trkpt>
      <trkpt lat="42.94401898" lon="13.33410993">
        <ele>509.00000</ele>
        <time>2024-05-10T18:26:47Z</time>
      </trkpt>
      <trkpt lat="42.94406994" lon="13.33411294">
        <ele>509.00000</ele>
        <time>2024-05-10T18:26:48Z</time>
      </trkpt>
      <trkpt lat="42.94412199" lon="13.33411194">
        <ele>508.00000</ele>
        <time>2024-05-10T18:26:49Z</time>
      </trkpt>
      <trkpt lat="42.94416993" lon="13.33411797">
        <ele>508.00000</ele>
        <time>2024-05-10T18:26:50Z</time>
      </trkpt>
      <trkpt lat="42.94421897" lon="13.33412694">
        <ele>509.00000</ele>
        <time>2024-05-10T18:26:51Z</time>
      </trkpt>
      <trkpt lat="42.94426498" lon="13.33413499">
        <ele>509.00000</ele>
        <time>2024-05-10T18:26:52Z</time>
      </trkpt>
      <trkpt lat="42.94431595" lon="13.33414094">
        <ele>510.00000</ele>
        <time>2024-05-10T18:26:53Z</time>
      </trkpt>
      <trkpt lat="42.94437093" lon="13.33415192">
        <ele>511.00000</ele>
        <time>2024-05-10T18:26:54Z</time>
      </trkpt>
      <trkpt lat="42.94442793" lon="13.33416793">
        <ele>511.00000</ele>
        <time>2024-05-10T18:26:55Z</time>
      </trkpt>
      <trkpt lat="42.94448493" lon="13.33418394">
        <ele>512.00000</ele>
        <time>2024-05-10T18:26:56Z</time>
      </trkpt>
      <trkpt lat="42.94454092" lon="13.33420297">
        <ele>513.00000</ele>
        <time>2024-05-10T18:26:58Z</time>
      </trkpt>
      <trkpt lat="42.94459096" lon="13.33422199">
        <ele>513.00000</ele>
        <time>2024-05-10T18:26:59Z</time>
      </trkpt>
      <trkpt lat="42.94463999" lon="13.33424496">
        <ele>514.00000</ele>
        <time>2024-05-10T18:27:00Z</time>
      </trkpt>
      <trkpt lat="42.94468794" lon="13.33427296">
        <ele>514.00000</ele>
        <time>2024-05-10T18:27:01Z</time>
      </trkpt>
      <trkpt lat="42.94474099" lon="13.33430497">
        <ele>515.00000</ele>
        <time>2024-05-10T18:27:02Z</time>
      </trkpt>
      <trkpt lat="42.94479397" lon="13.33433699">
        <ele>514.00000</ele>
        <time>2024-05-10T18:27:03Z</time>
      </trkpt>
      <trkpt lat="42.94484795" lon="13.33436599">
        <ele>514.00000</ele>
        <time>2024-05-10T18:27:04Z</time>
      </trkpt>
      <trkpt lat="42.94490293" lon="13.33438997">
        <ele>513.00000</ele>
        <time>2024-05-10T18:27:05Z</time>
      </trkpt>
      <trkpt lat="42.94495297" lon="13.33441997">
        <ele>513.00000</ele>
        <time>2024-05-10T18:27:06Z</time>
      </trkpt>
      <trkpt lat="42.94499899" lon="13.33445996">
        <ele>512.00000</ele>
        <time>2024-05-10T18:27:07Z</time>
      </trkpt>
      <trkpt lat="42.94503897" lon="13.33448896">
        <ele>512.00000</ele>
        <time>2024-05-10T18:27:08Z</time>
      </trkpt>
      <trkpt lat="42.94508096" lon="13.33452098">
        <ele>513.00000</ele>
        <time>2024-05-10T18:27:09Z</time>
      </trkpt>
      <trkpt lat="42.94513092" lon="13.33455299">
        <ele>513.00000</ele>
        <time>2024-05-10T18:27:10Z</time>
      </trkpt>
      <trkpt lat="42.94517593" lon="13.33458191">
        <ele>513.00000</ele>
        <time>2024-05-10T18:27:11Z</time>
      </trkpt>
      <trkpt lat="42.94522094" lon="13.33462198">
        <ele>513.00000</ele>
        <time>2024-05-10T18:27:12Z</time>
      </trkpt>
      <trkpt lat="42.94526293" lon="13.33466799">
        <ele>514.00000</ele>
        <time>2024-05-10T18:27:14Z</time>
      </trkpt>
      <trkpt lat="42.94530292" lon="13.33471996">
        <ele>514.00000</ele>
        <time>2024-05-10T18:27:15Z</time>
      </trkpt>
      <trkpt lat="42.94534298" lon="13.33478693">
        <ele>514.00000</ele>
        <time>2024-05-10T18:27:16Z</time>
      </trkpt>
      <trkpt lat="42.94538296" lon="13.33485399">
        <ele>513.00000</ele>
        <time>2024-05-10T18:27:17Z</time>
      </trkpt>
      <trkpt lat="42.94541892" lon="13.33492599">
        <ele>513.00000</ele>
        <time>2024-05-10T18:27:18Z</time>
      </trkpt>
      <trkpt lat="42.94545195" lon="13.33500394">
        <ele>512.00000</ele>
        <time>2024-05-10T18:27:20Z</time>
      </trkpt>
      <trkpt lat="42.94547793" lon="13.33508592">
        <ele>512.00000</ele>
        <time>2024-05-10T18:27:21Z</time>
      </trkpt>
      <trkpt lat="42.94550391" lon="13.33516999">
        <ele>512.00000</ele>
        <time>2024-05-10T18:27:22Z</time>
      </trkpt>
      <trkpt lat="42.94553199" lon="13.33525699">
        <ele>512.00000</ele>
        <time>2024-05-10T18:27:24Z</time>
      </trkpt>
      <trkpt lat="42.94556292" lon="13.33533796">
        <ele>512.00000</ele>
        <time>2024-05-10T18:27:25Z</time>
      </trkpt>
      <trkpt lat="42.94559293" lon="13.33541692">
        <ele>512.00000</ele>
        <time>2024-05-10T18:27:26Z</time>
      </trkpt>
      <trkpt lat="42.94562797" lon="13.33549596">
        <ele>512.00000</ele>
        <time>2024-05-10T18:27:28Z</time>
      </trkpt>
      <trkpt lat="42.94566292" lon="13.33556997">
        <ele>512.00000</ele>
        <time>2024-05-10T18:27:29Z</time>
      </trkpt>
      <trkpt lat="42.94569594" lon="13.33565295">
        <ele>512.00000</ele>
        <time>2024-05-10T18:27:31Z</time>
      </trkpt>
      <trkpt lat="42.94572796" lon="13.33574297">
        <ele>511.00000</ele>
        <time>2024-05-10T18:27:32Z</time>
      </trkpt>
      <trkpt lat="42.94575193" lon="13.33583794">
        <ele>511.00000</ele>
        <time>2024-05-10T18:27:33Z</time>
      </trkpt>
      <trkpt lat="42.94576593" lon="13.33593693">
        <ele>510.00000</ele>
        <time>2024-05-10T18:27:35Z</time>
      </trkpt>
      <trkpt lat="42.94576996" lon="13.33603198">
        <ele>509.00000</ele>
        <time>2024-05-10T18:27:36Z</time>
      </trkpt>
      <trkpt lat="42.94577398" lon="13.33613097">
        <ele>507.00000</ele>
        <time>2024-05-10T18:27:38Z</time>
      </trkpt>
      <trkpt lat="42.94579996" lon="13.33623298">
        <ele>508.00000</ele>
        <time>2024-05-10T18:27:39Z</time>
      </trkpt>
      <trkpt lat="42.94584095" lon="13.33632292">
        <ele>508.00000</ele>
        <time>2024-05-10T18:27:41Z</time>
      </trkpt>
      <trkpt lat="42.94589292" lon="13.33639894">
        <ele>509.00000</ele>
        <time>2024-05-10T18:27:42Z</time>
      </trkpt>
      <trkpt lat="42.94595193" lon="13.33645996">
        <ele>510.00000</ele>
        <time>2024-05-10T18:27:44Z</time>
      </trkpt>
      <trkpt lat="42.94600498" lon="13.33650296">
        <ele>511.00000</ele>
        <time>2024-05-10T18:27:45Z</time>
      </trkpt>
      <trkpt lat="42.94604195" lon="13.33652995">
        <ele>512.00000</ele>
        <time>2024-05-10T18:27:46Z</time>
      </trkpt>
      <trkpt lat="42.94607196" lon="13.33654797">
        <ele>513.00000</ele>
        <time>2024-05-10T18:27:47Z</time>
      </trkpt>
      <trkpt lat="42.94609794" lon="13.33656297">
        <ele>514.00000</ele>
        <time>2024-05-10T18:27:47Z</time>
      </trkpt>
      <trkpt lat="42.94611998" lon="13.33657697">
        <ele>514.00000</ele>
        <time>2024-05-10T18:27:48Z</time>
      </trkpt>
      <trkpt lat="42.94613792" lon="13.33658292">
        <ele>514.00000</ele>
        <time>2024-05-10T18:27:48Z</time>
      </trkpt>
      <trkpt lat="42.94613792" lon="13.33658996">
        <ele>514.00000</ele>
        <time>2024-05-10T18:27:48Z</time>
      </trkpt>
      <trkpt lat="42.94613298" lon="13.33659097">
        <ele>514.00000</ele>
        <time>2024-05-10T18:27:48Z</time>
      </trkpt>
      <trkpt lat="42.94613298" lon="13.33658996">
        <ele>514.00000</ele>
        <time>2024-05-10T18:27:48Z</time>
      </trkpt>
      <trkpt lat="42.94620095" lon="13.33662693">
        <ele>515.00000</ele>
        <time>2024-05-10T18:27:50Z</time>
      </trkpt>
      <trkpt lat="42.94622694" lon="13.33663799">
        <ele>516.00000</ele>
        <time>2024-05-10T18:27:50Z</time>
      </trkpt>
      <trkpt lat="42.94625493" lon="13.33665392">
        <ele>516.00000</ele>
        <time>2024-05-10T18:27:51Z</time>
      </trkpt>
      <trkpt lat="42.94628695" lon="13.33667797">
        <ele>517.00000</ele>
        <time>2024-05-10T18:27:52Z</time>
      </trkpt>
      <trkpt lat="42.94632299" lon="13.33670698">
        <ele>517.00000</ele>
        <time>2024-05-10T18:27:52Z</time>
      </trkpt>
      <trkpt lat="42.94636398" lon="13.33673195">
        <ele>517.00000</ele>
        <time>2024-05-10T18:27:53Z</time>
      </trkpt>
      <trkpt lat="42.94640296" lon="13.33676598">
        <ele>517.00000</ele>
        <time>2024-05-10T18:27:54Z</time>
      </trkpt>
      <trkpt lat="42.94644596" lon="13.33680194">
        <ele>517.00000</ele>
        <time>2024-05-10T18:27:55Z</time>
      </trkpt>
      <trkpt lat="42.94648996" lon="13.33684494">
        <ele>517.00000</ele>
        <time>2024-05-10T18:27:56Z</time>
      </trkpt>
      <trkpt lat="42.94654193" lon="13.33687897">
        <ele>517.00000</ele>
        <time>2024-05-10T18:27:58Z</time>
      </trkpt>
      <trkpt lat="42.94659398" lon="13.33691594">
        <ele>517.00000</ele>
        <time>2024-05-10T18:27:59Z</time>
      </trkpt>
      <trkpt lat="42.94664695" lon="13.33695692">
        <ele>517.00000</ele>
        <time>2024-05-10T18:28:00Z</time>
      </trkpt>
      <trkpt lat="42.94669892" lon="13.33700395">
        <ele>516.00000</ele>
        <time>2024-05-10T18:28:01Z</time>
      </trkpt>
      <trkpt lat="42.94675198" lon="13.33704393">
        <ele>515.00000</ele>
        <time>2024-05-10T18:28:02Z</time>
      </trkpt>
      <trkpt lat="42.94680797" lon="13.33709196">
        <ele>515.00000</ele>
        <time>2024-05-10T18:28:04Z</time>
      </trkpt>
      <trkpt lat="42.94685893" lon="13.33713797">
        <ele>515.00000</ele>
        <time>2024-05-10T18:28:05Z</time>
      </trkpt>
      <trkpt lat="42.94690696" lon="13.33718399">
        <ele>515.00000</ele>
        <time>2024-05-10T18:28:06Z</time>
      </trkpt>
      <trkpt lat="42.94695298" lon="13.33723395">
        <ele>515.00000</ele>
        <time>2024-05-10T18:28:07Z</time>
      </trkpt>
      <trkpt lat="42.94700997" lon="13.33728097">
        <ele>515.00000</ele>
        <time>2024-05-10T18:28:09Z</time>
      </trkpt>
      <trkpt lat="42.94706798" lon="13.33732992">
        <ele>514.00000</ele>
        <time>2024-05-10T18:28:10Z</time>
      </trkpt>
      <trkpt lat="42.94712598" lon="13.33737895">
        <ele>514.00000</ele>
        <time>2024-05-10T18:28:11Z</time>
      </trkpt>
      <trkpt lat="42.94718499" lon="13.33742992">
        <ele>514.00000</ele>
        <time>2024-05-10T18:28:13Z</time>
      </trkpt>
      <trkpt lat="42.94723696" lon="13.33747794">
        <ele>514.00000</ele>
        <time>2024-05-10T18:28:14Z</time>
      </trkpt>
      <trkpt lat="42.94728792" lon="13.33752597">
        <ele>514.00000</ele>
        <time>2024-05-10T18:28:15Z</time>
      </trkpt>
      <trkpt lat="42.94733896" lon="13.33757794">
        <ele>514.00000</ele>
        <time>2024-05-10T18:28:17Z</time>
      </trkpt>
      <trkpt lat="42.94738196" lon="13.33763494">
        <ele>513.00000</ele>
        <time>2024-05-10T18:28:18Z</time>
      </trkpt>
      <trkpt lat="42.94742597" lon="13.33769495">
        <ele>512.00000</ele>
        <time>2024-05-10T18:28:19Z</time>
      </trkpt>
      <trkpt lat="42.94746293" lon="13.33776595">
        <ele>511.00000</ele>
        <time>2024-05-10T18:28:20Z</time>
      </trkpt>
      <trkpt lat="42.94749294" lon="13.33783392">
        <ele>510.00000</ele>
        <time>2024-05-10T18:28:21Z</time>
      </trkpt>
      <trkpt lat="42.94752295" lon="13.33790592">
        <ele>509.00000</ele>
        <time>2024-05-10T18:28:23Z</time>
      </trkpt>
      <trkpt lat="42.94755094" lon="13.33797792">
        <ele>508.00000</ele>
        <time>2024-05-10T18:28:24Z</time>
      </trkpt>
      <trkpt lat="42.94757693" lon="13.33804599">
        <ele>507.00000</ele>
        <time>2024-05-10T18:28:25Z</time>
      </trkpt>
      <trkpt lat="42.94760593" lon="13.33810692">
        <ele>506.00000</ele>
        <time>2024-05-10T18:28:26Z</time>
      </trkpt>
      <trkpt lat="42.94763795" lon="13.33816694">
        <ele>506.00000</ele>
        <time>2024-05-10T18:28:27Z</time>
      </trkpt>
      <trkpt lat="42.94767499" lon="13.33823299">
        <ele>505.00000</ele>
        <time>2024-05-10T18:28:28Z</time>
      </trkpt>
      <trkpt lat="42.94771196" lon="13.33829895">
        <ele>504.00000</ele>
        <time>2024-05-10T18:28:30Z</time>
      </trkpt>
      <trkpt lat="42.94775093" lon="13.33835796">
        <ele>504.00000</ele>
        <time>2024-05-10T18:28:31Z</time>
      </trkpt>
      <trkpt lat="42.94778698" lon="13.33841294">
        <ele>503.00000</ele>
        <time>2024-05-10T18:28:32Z</time>
      </trkpt>
      <trkpt lat="42.94782696" lon="13.33846399">
        <ele>502.00000</ele>
        <time>2024-05-10T18:28:33Z</time>
      </trkpt>
      <trkpt lat="42.94787096" lon="13.33851696">
        <ele>501.00000</ele>
        <time>2024-05-10T18:28:34Z</time>
      </trkpt>
      <trkpt lat="42.94791597" lon="13.33856692">
        <ele>501.00000</ele>
        <time>2024-05-10T18:28:35Z</time>
      </trkpt>
      <trkpt lat="42.94795897" lon="13.33861294">
        <ele>500.00000</ele>
        <time>2024-05-10T18:28:36Z</time>
      </trkpt>
      <trkpt lat="42.94800398" lon="13.33866398">
        <ele>500.00000</ele>
        <time>2024-05-10T18:28:37Z</time>
      </trkpt>
      <trkpt lat="42.94805092" lon="13.33870698">
        <ele>499.00000</ele>
        <time>2024-05-10T18:28:39Z</time>
      </trkpt>
      <trkpt lat="42.94810096" lon="13.33875099">
        <ele>500.00000</ele>
        <time>2024-05-10T18:28:40Z</time>
      </trkpt>
      <trkpt lat="42.94815192" lon="13.33878695">
        <ele>501.00000</ele>
        <time>2024-05-10T18:28:41Z</time>
      </trkpt>
      <trkpt lat="42.94820096" lon="13.33880991">
        <ele>502.00000</ele>
        <time>2024-05-10T18:28:42Z</time>
      </trkpt>
      <trkpt lat="42.94825695" lon="13.33881896">
        <ele>503.00000</ele>
        <time>2024-05-10T18:28:43Z</time>
      </trkpt>
      <trkpt lat="42.94831193" lon="13.33882492">
        <ele>505.00000</ele>
        <time>2024-05-10T18:28:44Z</time>
      </trkpt>
      <trkpt lat="42.94837798" lon="13.33882894">
        <ele>506.00000</ele>
        <time>2024-05-10T18:28:46Z</time>
      </trkpt>
      <trkpt lat="42.94843599" lon="13.33883598">
        <ele>507.00000</ele>
        <time>2024-05-10T18:28:47Z</time>
      </trkpt>
      <trkpt lat="42.94849793" lon="13.33884294">
        <ele>508.00000</ele>
        <time>2024-05-10T18:28:48Z</time>
      </trkpt>
      <trkpt lat="42.94855794" lon="13.33884897">
        <ele>509.00000</ele>
        <time>2024-05-10T18:28:49Z</time>
      </trkpt>
      <trkpt lat="42.94862299" lon="13.33885593">
        <ele>509.00000</ele>
        <time>2024-05-10T18:28:50Z</time>
      </trkpt>
      <trkpt lat="42.94868292" lon="13.33886196">
        <ele>509.00000</ele>
        <time>2024-05-10T18:28:52Z</time>
      </trkpt>
      <trkpt lat="42.94874092" lon="13.33887093">
        <ele>509.00000</ele>
        <time>2024-05-10T18:28:53Z</time>
      </trkpt>
      <trkpt lat="42.94880094" lon="13.33887294">
        <ele>509.00000</ele>
        <time>2024-05-10T18:28:54Z</time>
      </trkpt>
      <trkpt lat="42.94885793" lon="13.33887395">
        <ele>509.00000</ele>
        <time>2024-05-10T18:28:55Z</time>
      </trkpt>
      <trkpt lat="42.94891392" lon="13.33886892">
        <ele>509.00000</ele>
        <time>2024-05-10T18:28:56Z</time>
      </trkpt>
      <trkpt lat="42.94897696" lon="13.33885593">
        <ele>510.00000</ele>
        <time>2024-05-10T18:28:58Z</time>
      </trkpt>
      <trkpt lat="42.94903798" lon="13.33884797">
        <ele>510.00000</ele>
        <time>2024-05-10T18:28:59Z</time>
      </trkpt>
      <trkpt lat="42.94909891" lon="13.33884595">
        <ele>510.00000</ele>
        <time>2024-05-10T18:29:00Z</time>
      </trkpt>
      <trkpt lat="42.94915691" lon="13.33884696">
        <ele>510.00000</ele>
        <time>2024-05-10T18:29:01Z</time>
      </trkpt>
      <trkpt lat="42.94921391" lon="13.33884998">
        <ele>510.00000</ele>
        <time>2024-05-10T18:29:02Z</time>
      </trkpt>
      <trkpt lat="42.94927191" lon="13.33885199">
        <ele>511.00000</ele>
        <time>2024-05-10T18:29:03Z</time>
      </trkpt>
      <trkpt lat="42.94932698" lon="13.33884897">
        <ele>512.00000</ele>
        <time>2024-05-10T18:29:05Z</time>
      </trkpt>
      <trkpt lat="42.94939094" lon="13.33884394">
        <ele>513.00000</ele>
        <time>2024-05-10T18:29:06Z</time>
      </trkpt>
      <trkpt lat="42.94944693" lon="13.33884696">
        <ele>513.00000</ele>
        <time>2024-05-10T18:29:07Z</time>
      </trkpt>
      <trkpt lat="42.94950594" lon="13.33885593">
        <ele>514.00000</ele>
        <time>2024-05-10T18:29:08Z</time>
      </trkpt>
      <trkpt lat="42.94956595" lon="13.33885895">
        <ele>514.00000</ele>
        <time>2024-05-10T18:29:09Z</time>
      </trkpt>
      <trkpt lat="42.94962798" lon="13.33886599">
        <ele>514.00000</ele>
        <time>2024-05-10T18:29:11Z</time>
      </trkpt>
      <trkpt lat="42.94968598" lon="13.33887496">
        <ele>515.00000</ele>
        <time>2024-05-10T18:29:12Z</time>
      </trkpt>
      <trkpt lat="42.94974599" lon="13.33889197">
        <ele>515.00000</ele>
        <time>2024-05-10T18:29:13Z</time>
      </trkpt>
      <trkpt lat="42.94980995" lon="13.33892298">
        <ele>515.00000</ele>
        <time>2024-05-10T18:29:14Z</time>
      </trkpt>
      <trkpt lat="42.94987499" lon="13.33895995">
        <ele>515.00000</ele>
        <time>2024-05-10T18:29:16Z</time>
      </trkpt>
      <trkpt lat="42.94994498" lon="13.33899892">
        <ele>515.00000</ele>
        <time>2024-05-10T18:29:17Z</time>
      </trkpt>
      <trkpt lat="42.95001497" lon="13.33903698">
        <ele>514.00000</ele>
        <time>2024-05-10T18:29:19Z</time>
      </trkpt>
      <trkpt lat="42.95008395" lon="13.33908199">
        <ele>512.00000</ele>
        <time>2024-05-10T18:29:20Z</time>
      </trkpt>
      <trkpt lat="42.95014992" lon="13.33911895">
        <ele>511.00000</ele>
        <time>2024-05-10T18:29:22Z</time>
      </trkpt>
      <trkpt lat="42.95021396" lon="13.33914795">
        <ele>510.00000</ele>
        <time>2024-05-10T18:29:23Z</time>
      </trkpt>
      <trkpt lat="42.95027992" lon="13.33917092">
        <ele>509.00000</ele>
        <time>2024-05-10T18:29:24Z</time>
      </trkpt>
      <trkpt lat="42.95034798" lon="13.33919598">
        <ele>509.00000</ele>
        <time>2024-05-10T18:29:26Z</time>
      </trkpt>
      <trkpt lat="42.95041495" lon="13.33921593">
        <ele>509.00000</ele>
        <time>2024-05-10T18:29:27Z</time>
      </trkpt>
      <trkpt lat="42.95047899" lon="13.33923395">
        <ele>509.00000</ele>
        <time>2024-05-10T18:29:29Z</time>
      </trkpt>
      <trkpt lat="42.95055099" lon="13.33924594">
        <ele>510.00000</ele>
        <time>2024-05-10T18:29:30Z</time>
      </trkpt>
      <trkpt lat="42.95062492" lon="13.33925398">
        <ele>510.00000</ele>
        <time>2024-05-10T18:29:31Z</time>
      </trkpt>
      <trkpt lat="42.95069793" lon="13.33926597">
        <ele>510.00000</ele>
        <time>2024-05-10T18:29:33Z</time>
      </trkpt>
      <trkpt lat="42.95076993" lon="13.33928793">
        <ele>509.00000</ele>
        <time>2024-05-10T18:29:34Z</time>
      </trkpt>
      <trkpt lat="42.95084495" lon="13.33931199">
        <ele>508.00000</ele>
        <time>2024-05-10T18:29:36Z</time>
      </trkpt>
      <trkpt lat="42.95091594" lon="13.33934593">
        <ele>505.00000</ele>
        <time>2024-05-10T18:29:37Z</time>
      </trkpt>
      <trkpt lat="42.95097897" lon="13.33938097">
        <ele>503.00000</ele>
        <time>2024-05-10T18:29:39Z</time>
      </trkpt>
      <trkpt lat="42.95105198" lon="13.33940595">
        <ele>501.00000</ele>
        <time>2024-05-10T18:29:40Z</time>
      </trkpt>
      <trkpt lat="42.95112691" lon="13.33941894">
        <ele>500.00000</ele>
        <time>2024-05-10T18:29:42Z</time>
      </trkpt>
      <trkpt lat="42.95120294" lon="13.33941995">
        <ele>500.00000</ele>
        <time>2024-05-10T18:29:43Z</time>
      </trkpt>
      <trkpt lat="42.95127393" lon="13.33940193">
        <ele>501.00000</ele>
        <time>2024-05-10T18:29:45Z</time>
      </trkpt>
      <trkpt lat="42.95133395" lon="13.33937393">
        <ele>503.00000</ele>
        <time>2024-05-10T18:29:46Z</time>
      </trkpt>
      <trkpt lat="42.95139497" lon="13.33933093">
        <ele>504.00000</ele>
        <time>2024-05-10T18:29:47Z</time>
      </trkpt>
      <trkpt lat="42.95144098" lon="13.33928693">
        <ele>506.00000</ele>
        <time>2024-05-10T18:29:49Z</time>
      </trkpt>
      <trkpt lat="42.95147996" lon="13.33925499">
        <ele>507.00000</ele>
        <time>2024-05-10T18:29:49Z</time>
      </trkpt>
      <trkpt lat="42.95150795" lon="13.33923798">
        <ele>508.00000</ele>
        <time>2024-05-10T18:29:50Z</time>
      </trkpt>
      <trkpt lat="42.95153092" lon="13.33922398">
        <ele>509.00000</ele>
        <time>2024-05-10T18:29:51Z</time>
      </trkpt>
      <trkpt lat="42.95155297" lon="13.33922398">
        <ele>509.00000</ele>
        <time>2024-05-10T18:29:51Z</time>
      </trkpt>
      <trkpt lat="42.95157694" lon="13.33922498">
        <ele>509.00000</ele>
        <time>2024-05-10T18:29:52Z</time>
      </trkpt>
      <trkpt lat="42.95160099" lon="13.33924594">
        <ele>509.00000</ele>
        <time>2024-05-10T18:29:52Z</time>
      </trkpt>
      <trkpt lat="42.95162798" lon="13.33927896">
        <ele>508.00000</ele>
        <time>2024-05-10T18:29:53Z</time>
      </trkpt>
      <trkpt lat="42.95164399" lon="13.33931593">
        <ele>507.00000</ele>
        <time>2024-05-10T18:29:53Z</time>
      </trkpt>
      <trkpt lat="42.95165799" lon="13.33936295">
        <ele>506.00000</ele>
        <time>2024-05-10T18:29:54Z</time>
      </trkpt>
      <trkpt lat="42.95165992" lon="13.33941693">
        <ele>504.00000</ele>
        <time>2024-05-10T18:29:55Z</time>
      </trkpt>
      <trkpt lat="42.95165296" lon="13.33948097">
        <ele>502.00000</ele>
        <time>2024-05-10T18:29:56Z</time>
      </trkpt>
      <trkpt lat="42.95164299" lon="13.33953796">
        <ele>501.00000</ele>
        <time>2024-05-10T18:29:57Z</time>
      </trkpt>
      <trkpt lat="42.95164198" lon="13.33959496">
        <ele>499.00000</ele>
        <time>2024-05-10T18:29:58Z</time>
      </trkpt>
      <trkpt lat="42.95164793" lon="13.33965891">
        <ele>498.00000</ele>
        <time>2024-05-10T18:29:59Z</time>
      </trkpt>
      <trkpt lat="42.95166394" lon="13.33971993">
        <ele>497.00000</ele>
        <time>2024-05-10T18:30:00Z</time>
      </trkpt>
      <trkpt lat="42.95170191" lon="13.33977391">
        <ele>496.00000</ele>
        <time>2024-05-10T18:30:01Z</time>
      </trkpt>
      <trkpt lat="42.95174592" lon="13.33981398">
        <ele>495.00000</ele>
        <time>2024-05-10T18:30:02Z</time>
      </trkpt>
      <trkpt lat="42.95179294" lon="13.33984399">
        <ele>494.00000</ele>
        <time>2024-05-10T18:30:03Z</time>
      </trkpt>
      <trkpt lat="42.95184298" lon="13.33987299">
        <ele>494.00000</ele>
        <time>2024-05-10T18:30:04Z</time>
      </trkpt>
      <trkpt lat="42.95189394" lon="13.33991297">
        <ele>493.00000</ele>
        <time>2024-05-10T18:30:05Z</time>
      </trkpt>
      <trkpt lat="42.95194691" lon="13.33996393">
        <ele>492.00000</ele>
        <time>2024-05-10T18:30:06Z</time>
      </trkpt>
      <trkpt lat="42.95199293" lon="13.34002696">
        <ele>491.00000</ele>
        <time>2024-05-10T18:30:08Z</time>
      </trkpt>
      <trkpt lat="42.95202897" lon="13.34009796">
        <ele>490.00000</ele>
        <time>2024-05-10T18:30:09Z</time>
      </trkpt>
      <trkpt lat="42.95205596" lon="13.34017298">
        <ele>489.00000</ele>
        <time>2024-05-10T18:30:10Z</time>
      </trkpt>
      <trkpt lat="42.95208396" lon="13.34024196">
        <ele>488.00000</ele>
        <time>2024-05-10T18:30:11Z</time>
      </trkpt>
      <trkpt lat="42.95212092" lon="13.34031396">
        <ele>488.00000</ele>
        <time>2024-05-10T18:30:13Z</time>
      </trkpt>
      <trkpt lat="42.95216292" lon="13.34038194">
        <ele>488.00000</ele>
        <time>2024-05-10T18:30:14Z</time>
      </trkpt>
      <trkpt lat="42.95220893" lon="13.34043994">
        <ele>488.00000</ele>
        <time>2024-05-10T18:30:15Z</time>
      </trkpt>
      <trkpt lat="42.95225495" lon="13.34048998">
        <ele>489.00000</ele>
        <time>2024-05-10T18:30:16Z</time>
      </trkpt>
      <trkpt lat="42.95230097" lon="13.34053399">
        <ele>489.00000</ele>
        <time>2024-05-10T18:30:17Z</time>
      </trkpt>
      <trkpt lat="42.95234899" lon="13.34057296">
        <ele>490.00000</ele>
        <time>2024-05-10T18:30:18Z</time>
      </trkpt>
      <trkpt lat="42.95239996" lon="13.34060892">
        <ele>490.00000</ele>
        <time>2024-05-10T18:30:20Z</time>
      </trkpt>
      <trkpt lat="42.95244597" lon="13.34064496">
        <ele>491.00000</ele>
        <time>2024-05-10T18:30:21Z</time>
      </trkpt>
      <trkpt lat="42.95249694" lon="13.34067698">
        <ele>491.00000</ele>
        <time>2024-05-10T18:30:22Z</time>
      </trkpt>
      <trkpt lat="42.95254899" lon="13.34070598">
        <ele>491.00000</ele>
        <time>2024-05-10T18:30:23Z</time>
      </trkpt>
      <trkpt lat="42.95259995" lon="13.34073197">
        <ele>492.00000</ele>
        <time>2024-05-10T18:30:24Z</time>
      </trkpt>
      <trkpt lat="42.95265493" lon="13.34074395">
        <ele>492.00000</ele>
        <time>2024-05-10T18:30:25Z</time>
      </trkpt>
      <trkpt lat="42.95270598" lon="13.34075292">
        <ele>492.00000</ele>
        <time>2024-05-10T18:30:26Z</time>
      </trkpt>
      <trkpt lat="42.95275795" lon="13.34075795">
        <ele>493.00000</ele>
        <time>2024-05-10T18:30:27Z</time>
      </trkpt>
      <trkpt lat="42.95280992" lon="13.34075694">
        <ele>493.00000</ele>
        <time>2024-05-10T18:30:28Z</time>
      </trkpt>
      <trkpt lat="42.95285593" lon="13.34075493">
        <ele>494.00000</ele>
        <time>2024-05-10T18:30:29Z</time>
      </trkpt>
      <trkpt lat="42.95290295" lon="13.34074898">
        <ele>495.00000</ele>
        <time>2024-05-10T18:30:30Z</time>
      </trkpt>
      <trkpt lat="42.95295392" lon="13.34074194">
        <ele>495.00000</ele>
        <time>2024-05-10T18:30:31Z</time>
      </trkpt>
      <trkpt lat="42.95300496" lon="13.34073892">
        <ele>496.00000</ele>
        <time>2024-05-10T18:30:32Z</time>
      </trkpt>
      <trkpt lat="42.95305492" lon="13.34074596">
        <ele>496.00000</ele>
        <time>2024-05-10T18:30:33Z</time>
      </trkpt>
      <trkpt lat="42.95310697" lon="13.34075896">
        <ele>497.00000</ele>
        <time>2024-05-10T18:30:34Z</time>
      </trkpt>
      <trkpt lat="42.95315994" lon="13.34077396">
        <ele>497.00000</ele>
        <time>2024-05-10T18:30:35Z</time>
      </trkpt>
      <trkpt lat="42.95321191" lon="13.34078092">
        <ele>497.00000</ele>
        <time>2024-05-10T18:30:36Z</time>
      </trkpt>
      <trkpt lat="42.95326095" lon="13.34078695">
        <ele>497.00000</ele>
        <time>2024-05-10T18:30:37Z</time>
      </trkpt>
      <trkpt lat="42.95330998" lon="13.34079399">
        <ele>497.00000</ele>
        <time>2024-05-10T18:30:38Z</time>
      </trkpt>
      <trkpt lat="42.95336698" lon="13.34079793">
        <ele>497.00000</ele>
        <time>2024-05-10T18:30:39Z</time>
      </trkpt>
      <trkpt lat="42.95342196" lon="13.34079793">
        <ele>497.00000</ele>
        <time>2024-05-10T18:30:41Z</time>
      </trkpt>
      <trkpt lat="42.95347594" lon="13.34079299">
        <ele>497.00000</ele>
        <time>2024-05-10T18:30:42Z</time>
      </trkpt>
      <trkpt lat="42.95352699" lon="13.34078494">
        <ele>497.00000</ele>
        <time>2024-05-10T18:30:43Z</time>
      </trkpt>
      <trkpt lat="42.95358097" lon="13.34076994">
        <ele>498.00000</ele>
        <time>2024-05-10T18:30:44Z</time>
      </trkpt>
      <trkpt lat="42.95362992" lon="13.34074596">
        <ele>498.00000</ele>
        <time>2024-05-10T18:30:45Z</time>
      </trkpt>
      <trkpt lat="42.95368398" lon="13.34070992">
        <ele>499.00000</ele>
        <time>2024-05-10T18:30:46Z</time>
      </trkpt>
      <trkpt lat="42.95374894" lon="13.34066499">
        <ele>500.00000</ele>
        <time>2024-05-10T18:30:47Z</time>
      </trkpt>
      <trkpt lat="42.95381197" lon="13.34063499">
        <ele>501.00000</ele>
        <time>2024-05-10T18:30:49Z</time>
      </trkpt>
      <trkpt lat="42.95387593" lon="13.34062593">
        <ele>501.00000</ele>
        <time>2024-05-10T18:30:50Z</time>
      </trkpt>
      <trkpt lat="42.95392999" lon="13.34065594">
        <ele>500.00000</ele>
        <time>2024-05-10T18:30:51Z</time>
      </trkpt>
      <trkpt lat="42.95396494" lon="13.34070699">
        <ele>499.00000</ele>
        <time>2024-05-10T18:30:52Z</time>
      </trkpt>
      <trkpt lat="42.95398397" lon="13.34076591">
        <ele>497.00000</ele>
        <time>2024-05-10T18:30:53Z</time>
      </trkpt>
      <trkpt lat="42.95400995" lon="13.34082199">
        <ele>496.00000</ele>
        <time>2024-05-10T18:30:54Z</time>
      </trkpt>
      <trkpt lat="42.95403895" lon="13.34088494">
        <ele>494.00000</ele>
        <time>2024-05-10T18:30:55Z</time>
      </trkpt>
      <trkpt lat="42.95408095" lon="13.34094193">
        <ele>493.00000</ele>
        <time>2024-05-10T18:30:56Z</time>
      </trkpt>
      <trkpt lat="42.95412898" lon="13.34097898">
        <ele>492.00000</ele>
        <time>2024-05-10T18:30:58Z</time>
      </trkpt>
      <trkpt lat="42.95418497" lon="13.34099692">
        <ele>492.00000</ele>
        <time>2024-05-10T18:30:59Z</time>
      </trkpt>
      <trkpt lat="42.95425496" lon="13.34100396">
        <ele>493.00000</ele>
        <time>2024-05-10T18:31:00Z</time>
      </trkpt>
      <trkpt lat="42.95432796" lon="13.34101997">
        <ele>493.00000</ele>
        <time>2024-05-10T18:31:02Z</time>
      </trkpt>
      <trkpt lat="42.95438898" lon="13.34106096">
        <ele>492.00000</ele>
        <time>2024-05-10T18:31:03Z</time>
      </trkpt>
      <trkpt lat="42.95443793" lon="13.34112499">
        <ele>491.00000</ele>
        <time>2024-05-10T18:31:04Z</time>
      </trkpt>
      <trkpt lat="42.95446794" lon="13.34121099">
        <ele>490.00000</ele>
        <time>2024-05-10T18:31:06Z</time>
      </trkpt>
      <trkpt lat="42.95448797" lon="13.34130495">
        <ele>488.00000</ele>
        <time>2024-05-10T18:31:07Z</time>
      </trkpt>
      <trkpt lat="42.95451194" lon="13.34141098">
        <ele>486.00000</ele>
        <time>2024-05-10T18:31:09Z</time>
      </trkpt>
      <trkpt lat="42.95453592" lon="13.34151894">
        <ele>484.00000</ele>
        <time>2024-05-10T18:31:10Z</time>
      </trkpt>
      <trkpt lat="42.95456592" lon="13.34162497">
        <ele>483.00000</ele>
        <time>2024-05-10T18:31:12Z</time>
      </trkpt>
      <trkpt lat="42.95460297" lon="13.34172396">
        <ele>482.00000</ele>
        <time>2024-05-10T18:31:14Z</time>
      </trkpt>
      <trkpt lat="42.95465494" lon="13.34181097">
        <ele>481.00000</ele>
        <time>2024-05-10T18:31:15Z</time>
      </trkpt>
      <trkpt lat="42.95471697" lon="13.34187995">
        <ele>480.00000</ele>
        <time>2024-05-10T18:31:17Z</time>
      </trkpt>
      <trkpt lat="42.95478796" lon="13.34194399">
        <ele>479.00000</ele>
        <time>2024-05-10T18:31:19Z</time>
      </trkpt>
      <trkpt lat="42.95483699" lon="13.34201892">
        <ele>479.00000</ele>
        <time>2024-05-10T18:31:20Z</time>
      </trkpt>
      <trkpt lat="42.95488192" lon="13.34211096">
        <ele>478.00000</ele>
        <time>2024-05-10T18:31:22Z</time>
      </trkpt>
      <trkpt lat="42.95492593" lon="13.34220198">
        <ele>477.00000</ele>
        <time>2024-05-10T18:31:23Z</time>
      </trkpt>
      <trkpt lat="42.95497094" lon="13.34226594">
        <ele>476.00000</ele>
        <time>2024-05-10T18:31:25Z</time>
      </trkpt>
      <trkpt lat="42.95501193" lon="13.34230894">
        <ele>475.00000</ele>
        <time>2024-05-10T18:31:26Z</time>
      </trkpt>
      <trkpt lat="42.95505199" lon="13.34235093">
        <ele>475.00000</ele>
        <time>2024-05-10T18:31:27Z</time>
      </trkpt>
      <trkpt lat="42.95508594" lon="13.34240198">
        <ele>474.00000</ele>
        <time>2024-05-10T18:31:28Z</time>
      </trkpt>
      <trkpt lat="42.95510999" lon="13.34246492">
        <ele>473.00000</ele>
        <time>2024-05-10T18:31:29Z</time>
      </trkpt>
      <trkpt lat="42.95512894" lon="13.34253692">
        <ele>473.00000</ele>
        <time>2024-05-10T18:31:30Z</time>
      </trkpt>
      <trkpt lat="42.95514495" lon="13.34261194">
        <ele>472.00000</ele>
        <time>2024-05-10T18:31:31Z</time>
      </trkpt>
      <trkpt lat="42.95515391" lon="13.34269492">
        <ele>472.00000</ele>
        <time>2024-05-10T18:31:32Z</time>
      </trkpt>
      <trkpt lat="42.95515492" lon="13.34278394">
        <ele>471.00000</ele>
        <time>2024-05-10T18:31:34Z</time>
      </trkpt>
      <trkpt lat="42.95513799" lon="13.34287195">
        <ele>471.00000</ele>
        <time>2024-05-10T18:31:35Z</time>
      </trkpt>
      <trkpt lat="42.95509692" lon="13.34294496">
        <ele>472.00000</ele>
        <time>2024-05-10T18:31:36Z</time>
      </trkpt>
      <trkpt lat="42.95503699" lon="13.34299198">
        <ele>472.00000</ele>
        <time>2024-05-10T18:31:38Z</time>
      </trkpt>
      <trkpt lat="42.95497295" lon="13.34301595">
        <ele>472.00000</ele>
        <time>2024-05-10T18:31:39Z</time>
      </trkpt>
      <trkpt lat="42.95490598" lon="13.34301997">
        <ele>473.00000</ele>
        <time>2024-05-10T18:31:40Z</time>
      </trkpt>
      <trkpt lat="42.95483892" lon="13.34302693">
        <ele>473.00000</ele>
        <time>2024-05-10T18:31:42Z</time>
      </trkpt>
      <trkpt lat="42.95477296" lon="13.34304898">
        <ele>474.00000</ele>
        <time>2024-05-10T18:31:43Z</time>
      </trkpt>
      <trkpt lat="42.95471093" lon="13.34306993">
        <ele>475.00000</ele>
        <time>2024-05-10T18:31:44Z</time>
      </trkpt>
      <trkpt lat="42.95464899" lon="13.34308795">
        <ele>475.00000</ele>
        <time>2024-05-10T18:31:46Z</time>
      </trkpt>
      <trkpt lat="42.95458294" lon="13.34309591">
        <ele>476.00000</ele>
        <time>2024-05-10T18:31:47Z</time>
      </trkpt>
      <trkpt lat="42.95451597" lon="13.34310597">
        <ele>476.00000</ele>
        <time>2024-05-10T18:31:48Z</time>
      </trkpt>
      <trkpt lat="42.95445595" lon="13.34311595">
        <ele>477.00000</ele>
        <time>2024-05-10T18:31:49Z</time>
      </trkpt>
      <trkpt lat="42.95439896" lon="13.34312198">
        <ele>477.00000</ele>
        <time>2024-05-10T18:31:51Z</time>
      </trkpt>
      <trkpt lat="42.95434498" lon="13.34313497">
        <ele>478.00000</ele>
        <time>2024-05-10T18:31:52Z</time>
      </trkpt>
      <trkpt lat="42.95431396" lon="13.34317797">
        <ele>478.00000</ele>
        <time>2024-05-10T18:31:53Z</time>
      </trkpt>
      <trkpt lat="42.95429494" lon="13.34323799">
        <ele>478.00000</ele>
        <time>2024-05-10T18:31:54Z</time>
      </trkpt>
      <trkpt lat="42.95427692" lon="13.34330697">
        <ele>479.00000</ele>
        <time>2024-05-10T18:31:55Z</time>
      </trkpt>
      <trkpt lat="42.95425697" lon="13.34338794">
        <ele>479.00000</ele>
        <time>2024-05-10T18:31:56Z</time>
      </trkpt>
      <trkpt lat="42.95423794" lon="13.34346095">
        <ele>479.00000</ele>
        <time>2024-05-10T18:31:57Z</time>
      </trkpt>
      <trkpt lat="42.95423693" lon="13.34352892">
        <ele>480.00000</ele>
        <time>2024-05-10T18:31:58Z</time>
      </trkpt>
      <trkpt lat="42.95425093" lon="13.34358894">
        <ele>480.00000</ele>
        <time>2024-05-10T18:31:59Z</time>
      </trkpt>
      <trkpt lat="42.95428094" lon="13.34362892">
        <ele>480.00000</ele>
        <time>2024-05-10T18:32:00Z</time>
      </trkpt>
      <trkpt lat="42.95431396" lon="13.34363797">
        <ele>480.00000</ele>
        <time>2024-05-10T18:32:00Z</time>
      </trkpt>
      <trkpt lat="42.95434498" lon="13.34363898">
        <ele>479.00000</ele>
        <time>2024-05-10T18:32:01Z</time>
      </trkpt>
      <trkpt lat="42.95437498" lon="13.34361693">
        <ele>479.00000</ele>
        <time>2024-05-10T18:32:02Z</time>
      </trkpt>
      <trkpt lat="42.95440893" lon="13.34358399">
        <ele>479.00000</ele>
        <time>2024-05-10T18:32:03Z</time>
      </trkpt>
      <trkpt lat="42.95443994" lon="13.34355097">
        <ele>478.00000</ele>
        <time>2024-05-10T18:32:03Z</time>
      </trkpt>
      <trkpt lat="42.95447297" lon="13.34352993">
        <ele>478.00000</ele>
        <time>2024-05-10T18:32:04Z</time>
      </trkpt>
      <trkpt lat="42.95450692" lon="13.34352297">
        <ele>478.00000</ele>
        <time>2024-05-10T18:32:05Z</time>
      </trkpt>
      <trkpt lat="42.95453692" lon="13.34352993">
        <ele>477.00000</ele>
        <time>2024-05-10T18:32:05Z</time>
      </trkpt>
      <trkpt lat="42.95455997" lon="13.34353898">
        <ele>477.00000</ele>
        <time>2024-05-10T18:32:06Z</time>
      </trkpt>
      <trkpt lat="42.95457892" lon="13.34354795">
        <ele>477.00000</ele>
        <time>2024-05-10T18:32:06Z</time>
      </trkpt>
      <trkpt lat="42.95459794" lon="13.34356195">
        <ele>477.00000</ele>
        <time>2024-05-10T18:32:07Z</time>
      </trkpt>
      <trkpt lat="42.95461295" lon="13.34358399">
        <ele>477.00000</ele>
        <time>2024-05-10T18:32:07Z</time>
      </trkpt>
      <trkpt lat="42.95462694" lon="13.34360696">
        <ele>477.00000</ele>
        <time>2024-05-10T18:32:08Z</time>
      </trkpt>
      <trkpt lat="42.95463792" lon="13.34363596">
        <ele>477.00000</ele>
        <time>2024-05-10T18:32:08Z</time>
      </trkpt>
      <trkpt lat="42.95464195" lon="13.34366798">
        <ele>478.00000</ele>
        <time>2024-05-10T18:32:09Z</time>
      </trkpt>
      <trkpt lat="42.95464899" lon="13.34369698">
        <ele>478.00000</ele>
        <time>2024-05-10T18:32:09Z</time>
      </trkpt>
      <trkpt lat="42.95465192" lon="13.34371995">
        <ele>479.00000</ele>
        <time>2024-05-10T18:32:09Z</time>
      </trkpt>
      <trkpt lat="42.95465393" lon="13.34374099">
        <ele>479.00000</ele>
        <time>2024-05-10T18:32:10Z</time>
      </trkpt>
      <trkpt lat="42.95465494" lon="13.34376395">
        <ele>479.00000</ele>
        <time>2024-05-10T18:32:10Z</time>
      </trkpt>
      <trkpt lat="42.95464999" lon="13.34378591">
        <ele>480.00000</ele>
        <time>2024-05-10T18:32:10Z</time>
      </trkpt>
      <trkpt lat="42.95464396" lon="13.34380997">
        <ele>480.00000</ele>
        <time>2024-05-10T18:32:11Z</time>
      </trkpt>
      <trkpt lat="42.95463591" lon="13.34383092">
        <ele>480.00000</ele>
        <time>2024-05-10T18:32:11Z</time>
      </trkpt>
      <trkpt lat="42.95462393" lon="13.34385297">
        <ele>481.00000</ele>
        <time>2024-05-10T18:32:11Z</time>
      </trkpt>
      <trkpt lat="42.95461798" lon="13.34387493">
        <ele>481.00000</ele>
        <time>2024-05-10T18:32:12Z</time>
      </trkpt>
      <trkpt lat="42.95461194" lon="13.34389697">
        <ele>481.00000</ele>
        <time>2024-05-10T18:32:12Z</time>
      </trkpt>
      <trkpt lat="42.95460691" lon="13.34391893">
        <ele>482.00000</ele>
        <time>2024-05-10T18:32:12Z</time>
      </trkpt>
      <trkpt lat="42.95459199" lon="13.34393494">
        <ele>482.00000</ele>
        <time>2024-05-10T18:32:13Z</time>
      </trkpt>
      <trkpt lat="42.95457992" lon="13.34395196">
        <ele>482.00000</ele>
        <time>2024-05-10T18:32:13Z</time>
      </trkpt>
      <trkpt lat="42.95456098" lon="13.34396596">
        <ele>482.00000</ele>
        <time>2024-05-10T18:32:14Z</time>
      </trkpt>
      <trkpt lat="42.95454799" lon="13.34398197">
        <ele>483.00000</ele>
        <time>2024-05-10T18:32:14Z</time>
      </trkpt>
      <trkpt lat="42.95453491" lon="13.34400191">
        <ele>483.00000</ele>
        <time>2024-05-10T18:32:14Z</time>
      </trkpt>
      <trkpt lat="42.95451899" lon="13.34401591">
        <ele>483.00000</ele>
        <time>2024-05-10T18:32:15Z</time>
      </trkpt>
      <trkpt lat="42.95450096" lon="13.34402496">
        <ele>483.00000</ele>
        <time>2024-05-10T18:32:15Z</time>
      </trkpt>
      <trkpt lat="42.95448596" lon="13.34403092">
        <ele>483.00000</ele>
        <time>2024-05-10T18:32:15Z</time>
      </trkpt>
      <trkpt lat="42.95446693" lon="13.34403896">
        <ele>483.00000</ele>
        <time>2024-05-10T18:32:16Z</time>
      </trkpt>
      <trkpt lat="42.95444992" lon="13.34405497">
        <ele>484.00000</ele>
        <time>2024-05-10T18:32:16Z</time>
      </trkpt>
      <trkpt lat="42.95442896" lon="13.34407299">
        <ele>484.00000</ele>
        <time>2024-05-10T18:32:17Z</time>
      </trkpt>
      <trkpt lat="42.95440793" lon="13.34409998">
        <ele>485.00000</ele>
        <time>2024-05-10T18:32:17Z</time>
      </trkpt>
      <trkpt lat="42.95438898" lon="13.34412496">
        <ele>485.00000</ele>
        <time>2024-05-10T18:32:18Z</time>
      </trkpt>
      <trkpt lat="42.95436694" lon="13.34414893">
        <ele>485.00000</ele>
        <time>2024-05-10T18:32:18Z</time>
      </trkpt>
      <trkpt lat="42.95435797" lon="13.34417399">
        <ele>486.00000</ele>
        <time>2024-05-10T18:32:19Z</time>
      </trkpt>
      <trkpt lat="42.95434498" lon="13.34419998">
        <ele>487.00000</ele>
        <time>2024-05-10T18:32:19Z</time>
      </trkpt>
      <trkpt lat="42.95433794" lon="13.34422194">
        <ele>487.00000</ele>
        <time>2024-05-10T18:32:20Z</time>
      </trkpt>
      <trkpt lat="42.95433098" lon="13.34424398">
        <ele>488.00000</ele>
        <time>2024-05-10T18:32:20Z</time>
      </trkpt>
      <trkpt lat="42.95432193" lon="13.34426494">
        <ele>488.00000</ele>
        <time>2024-05-10T18:32:20Z</time>
      </trkpt>
      <trkpt lat="42.95431195" lon="13.34428296">
        <ele>489.00000</ele>
        <time>2024-05-10T18:32:21Z</time>
      </trkpt>
      <trkpt lat="42.95430491" lon="13.34430492">
        <ele>489.00000</ele>
        <time>2024-05-10T18:32:21Z</time>
      </trkpt>
      <trkpt lat="42.95429795" lon="13.34432797">
        <ele>490.00000</ele>
        <time>2024-05-10T18:32:21Z</time>
      </trkpt>
      <trkpt lat="42.95428597" lon="13.34434892">
        <ele>491.00000</ele>
        <time>2024-05-10T18:32:22Z</time>
      </trkpt>
      <trkpt lat="42.95427298" lon="13.34436493">
        <ele>491.00000</ele>
        <time>2024-05-10T18:32:22Z</time>
      </trkpt>
      <trkpt lat="42.95426392" lon="13.34437893">
        <ele>491.00000</ele>
        <time>2024-05-10T18:32:22Z</time>
      </trkpt>
      <trkpt lat="42.95425496" lon="13.34439695">
        <ele>492.00000</ele>
        <time>2024-05-10T18:32:23Z</time>
      </trkpt>
      <trkpt lat="42.95424498" lon="13.34441095">
        <ele>492.00000</ele>
        <time>2024-05-10T18:32:23Z</time>
      </trkpt>
      <trkpt lat="42.95423199" lon="13.34442696">
        <ele>493.00000</ele>
        <time>2024-05-10T18:32:23Z</time>
      </trkpt>
      <trkpt lat="42.95421196" lon="13.34444498">
        <ele>493.00000</ele>
        <time>2024-05-10T18:32:24Z</time>
      </trkpt>
      <trkpt lat="42.95419796" lon="13.34445999">
        <ele>494.00000</ele>
        <time>2024-05-10T18:32:24Z</time>
      </trkpt>
      <trkpt lat="42.95418497" lon="13.34447298">
        <ele>494.00000</ele>
        <time>2024-05-10T18:32:25Z</time>
      </trkpt>
      <trkpt lat="42.95417793" lon="13.34448396">
        <ele>495.00000</ele>
        <time>2024-05-10T18:32:25Z</time>
      </trkpt>
      <trkpt lat="42.95416594" lon="13.34449091">
        <ele>495.00000</ele>
        <time>2024-05-10T18:32:25Z</time>
      </trkpt>
      <trkpt lat="42.95415496" lon="13.34449997">
        <ele>495.00000</ele>
        <time>2024-05-10T18:32:25Z</time>
      </trkpt>
      <trkpt lat="42.95414197" lon="13.34451396">
        <ele>496.00000</ele>
        <time>2024-05-10T18:32:26Z</time>
      </trkpt>
      <trkpt lat="42.95413099" lon="13.34452494">
        <ele>496.00000</ele>
        <time>2024-05-10T18:32:26Z</time>
      </trkpt>
      <trkpt lat="42.95411791" lon="13.34453693">
        <ele>496.00000</ele>
        <time>2024-05-10T18:32:26Z</time>
      </trkpt>
      <trkpt lat="42.95410199" lon="13.34454598">
        <ele>496.00000</ele>
        <time>2024-05-10T18:32:26Z</time>
      </trkpt>
      <trkpt lat="42.95408598" lon="13.34455193">
        <ele>497.00000</ele>
        <time>2024-05-10T18:32:27Z</time>
      </trkpt>
      <trkpt lat="42.95407491" lon="13.34455696">
        <ele>497.00000</ele>
        <time>2024-05-10T18:32:27Z</time>
      </trkpt>
      <trkpt lat="42.95405798" lon="13.34455998">
        <ele>497.00000</ele>
        <time>2024-05-10T18:32:27Z</time>
      </trkpt>
      <trkpt lat="42.95404398" lon="13.34456694">
        <ele>497.00000</ele>
        <time>2024-05-10T18:32:28Z</time>
      </trkpt>
      <trkpt lat="42.95402999" lon="13.34457599">
        <ele>497.00000</ele>
        <time>2024-05-10T18:32:28Z</time>
      </trkpt>
      <trkpt lat="42.95401993" lon="13.34458697">
        <ele>497.00000</ele>
        <time>2024-05-10T18:32:28Z</time>
      </trkpt>
      <trkpt lat="42.95400593" lon="13.34460399">
        <ele>498.00000</ele>
        <time>2024-05-10T18:32:29Z</time>
      </trkpt>
      <trkpt lat="42.95398699" lon="13.34461899">
        <ele>498.00000</ele>
        <time>2024-05-10T18:32:29Z</time>
      </trkpt>
      <trkpt lat="42.95397098" lon="13.34463592">
        <ele>498.00000</ele>
        <time>2024-05-10T18:32:29Z</time>
      </trkpt>
      <trkpt lat="42.95395497" lon="13.34464699">
        <ele>498.00000</ele>
        <time>2024-05-10T18:32:30Z</time>
      </trkpt>
      <trkpt lat="42.95394399" lon="13.34465294">
        <ele>498.00000</ele>
        <time>2024-05-10T18:32:30Z</time>
      </trkpt>
      <trkpt lat="42.95393393" lon="13.34465897">
        <ele>498.00000</ele>
        <time>2024-05-10T18:32:30Z</time>
      </trkpt>
      <trkpt lat="42.95392194" lon="13.34465897">
        <ele>498.00000</ele>
        <time>2024-05-10T18:32:31Z</time>
      </trkpt>
      <trkpt lat="42.95390996" lon="13.34467196">
        <ele>498.00000</ele>
        <time>2024-05-10T18:32:31Z</time>
      </trkpt>
      <trkpt lat="42.95389898" lon="13.34467892">
        <ele>498.00000</ele>
        <time>2024-05-10T18:32:31Z</time>
      </trkpt>
      <trkpt lat="42.95388297" lon="13.34468697">
        <ele>498.00000</ele>
        <time>2024-05-10T18:32:31Z</time>
      </trkpt>
      <trkpt lat="42.95386897" lon="13.34468998">
        <ele>498.00000</ele>
        <time>2024-05-10T18:32:32Z</time>
      </trkpt>
      <trkpt lat="42.95385899" lon="13.34469694">
        <ele>498.00000</ele>
        <time>2024-05-10T18:32:32Z</time>
      </trkpt>
      <trkpt lat="42.95384894" lon="13.34470499">
        <ele>498.00000</ele>
        <time>2024-05-10T18:32:32Z</time>
      </trkpt>
      <trkpt lat="42.95383997" lon="13.34471094">
        <ele>498.00000</ele>
        <time>2024-05-10T18:32:32Z</time>
      </trkpt>
      <trkpt lat="42.95382396" lon="13.34471899">
        <ele>498.00000</ele>
        <time>2024-05-10T18:32:33Z</time>
      </trkpt>
      <trkpt lat="42.95380895" lon="13.34472695">
        <ele>498.00000</ele>
        <time>2024-05-10T18:32:33Z</time>
      </trkpt>
      <trkpt lat="42.95379395" lon="13.34474095">
        <ele>498.00000</ele>
        <time>2024-05-10T18:32:33Z</time>
      </trkpt>
      <trkpt lat="42.95377895" lon="13.34474992">
        <ele>498.00000</ele>
        <time>2024-05-10T18:32:34Z</time>
      </trkpt>
      <trkpt lat="42.95375992" lon="13.34476492">
        <ele>498.00000</ele>
        <time>2024-05-10T18:32:34Z</time>
      </trkpt>
      <trkpt lat="42.95374793" lon="13.34477799">
        <ele>498.00000</ele>
        <time>2024-05-10T18:32:34Z</time>
      </trkpt>
      <trkpt lat="42.95374098" lon="13.34479996">
        <ele>498.00000</ele>
        <time>2024-05-10T18:32:35Z</time>
      </trkpt>
      <trkpt lat="42.95373695" lon="13.34482694">
        <ele>498.00000</ele>
        <time>2024-05-10T18:32:35Z</time>
      </trkpt>
      <trkpt lat="42.95372899" lon="13.34484899">
        <ele>498.00000</ele>
        <time>2024-05-10T18:32:36Z</time>
      </trkpt>
      <trkpt lat="42.95371994" lon="13.34486592">
        <ele>498.00000</ele>
        <time>2024-05-10T18:32:36Z</time>
      </trkpt>
      <trkpt lat="42.95371793" lon="13.34489392">
        <ele>498.00000</ele>
        <time>2024-05-10T18:32:36Z</time>
      </trkpt>
      <trkpt lat="42.95371793" lon="13.34492694">
        <ele>498.00000</ele>
        <time>2024-05-10T18:32:37Z</time>
      </trkpt>
      <trkpt lat="42.95371499" lon="13.34495594">
        <ele>498.00000</ele>
        <time>2024-05-10T18:32:37Z</time>
      </trkpt>
      <trkpt lat="42.95371097" lon="13.34498494">
        <ele>498.00000</ele>
        <time>2024-05-10T18:32:38Z</time>
      </trkpt>
      <trkpt lat="42.95370795" lon="13.34501495">
        <ele>498.00000</ele>
        <time>2024-05-10T18:32:38Z</time>
      </trkpt>
      <trkpt lat="42.95370292" lon="13.34504093">
        <ele>498.00000</ele>
        <time>2024-05-10T18:32:38Z</time>
      </trkpt>
      <trkpt lat="42.95370292" lon="13.34506792">
        <ele>499.00000</ele>
        <time>2024-05-10T18:32:39Z</time>
      </trkpt>
      <trkpt lat="42.95370594" lon="13.34508896">
        <ele>499.00000</ele>
        <time>2024-05-10T18:32:39Z</time>
      </trkpt>
      <trkpt lat="42.95371097" lon="13.34511092">
        <ele>499.00000</ele>
        <time>2024-05-10T18:32:40Z</time>
      </trkpt>
      <trkpt lat="42.95371592" lon="13.34512693">
        <ele>499.00000</ele>
        <time>2024-05-10T18:32:40Z</time>
      </trkpt>
      <trkpt lat="42.95372195" lon="13.34514495">
        <ele>500.00000</ele>
        <time>2024-05-10T18:32:40Z</time>
      </trkpt>
      <trkpt lat="42.95372899" lon="13.34516398">
        <ele>500.00000</ele>
        <time>2024-05-10T18:32:40Z</time>
      </trkpt>
      <trkpt lat="42.95373796" lon="13.34518192">
        <ele>500.00000</ele>
        <time>2024-05-10T18:32:41Z</time>
      </trkpt>
      <trkpt lat="42.95374995" lon="13.34519994">
        <ele>501.00000</ele>
        <time>2024-05-10T18:32:41Z</time>
      </trkpt>
      <trkpt lat="42.95376193" lon="13.34521897">
        <ele>501.00000</ele>
        <time>2024-05-10T18:32:41Z</time>
      </trkpt>
      <trkpt lat="42.95376897" lon="13.34523598">
        <ele>502.00000</ele>
        <time>2024-05-10T18:32:42Z</time>
      </trkpt>
      <trkpt lat="42.95377199" lon="13.34525392">
        <ele>502.00000</ele>
        <time>2024-05-10T18:32:42Z</time>
      </trkpt>
      <trkpt lat="42.95377291" lon="13.34527395">
        <ele>502.00000</ele>
        <time>2024-05-10T18:32:42Z</time>
      </trkpt>
      <trkpt lat="42.95377392" lon="13.34529499">
        <ele>503.00000</ele>
        <time>2024-05-10T18:32:43Z</time>
      </trkpt>
      <trkpt lat="42.95377593" lon="13.34531192">
        <ele>503.00000</ele>
        <time>2024-05-10T18:32:43Z</time>
      </trkpt>
      <trkpt lat="42.95378196" lon="13.34532793">
        <ele>503.00000</ele>
        <time>2024-05-10T18:32:43Z</time>
      </trkpt>
      <trkpt lat="42.95378599" lon="13.34535693">
        <ele>504.00000</ele>
        <time>2024-05-10T18:32:44Z</time>
      </trkpt>
      <trkpt lat="42.95379093" lon="13.34538292">
        <ele>505.00000</ele>
        <time>2024-05-10T18:32:44Z</time>
      </trkpt>
      <trkpt lat="42.95379093" lon="13.34540496">
        <ele>505.00000</ele>
        <time>2024-05-10T18:32:44Z</time>
      </trkpt>
      <trkpt lat="42.95380191" lon="13.34542499">
        <ele>506.00000</ele>
        <time>2024-05-10T18:32:45Z</time>
      </trkpt>
      <trkpt lat="42.95380292" lon="13.34544192">
        <ele>506.00000</ele>
        <time>2024-05-10T18:32:45Z</time>
      </trkpt>
      <trkpt lat="42.95380795" lon="13.34546296">
        <ele>507.00000</ele>
        <time>2024-05-10T18:32:45Z</time>
      </trkpt>
      <trkpt lat="42.95381591" lon="13.34548593">
        <ele>507.00000</ele>
        <time>2024-05-10T18:32:46Z</time>
      </trkpt>
      <trkpt lat="42.95381692" lon="13.34550295">
        <ele>508.00000</ele>
        <time>2024-05-10T18:32:46Z</time>
      </trkpt>
      <trkpt lat="42.95381893" lon="13.34552298">
        <ele>508.00000</ele>
        <time>2024-05-10T18:32:46Z</time>
      </trkpt>
      <trkpt lat="42.95382295" lon="13.34553899">
        <ele>509.00000</ele>
        <time>2024-05-10T18:32:46Z</time>
      </trkpt>
      <trkpt lat="42.95382698" lon="13.34556195">
        <ele>509.00000</ele>
        <time>2024-05-10T18:32:47Z</time>
      </trkpt>
      <trkpt lat="42.95382496" lon="13.34557394">
        <ele>509.00000</ele>
        <time>2024-05-10T18:32:47Z</time>
      </trkpt>
      <trkpt lat="42.95382798" lon="13.34559699">
        <ele>510.00000</ele>
        <time>2024-05-10T18:32:47Z</time>
      </trkpt>
      <trkpt lat="42.95383695" lon="13.34561895">
        <ele>511.00000</ele>
        <time>2024-05-10T18:32:48Z</time>
      </trkpt>
      <trkpt lat="42.95384198" lon="13.34565591">
        <ele>512.00000</ele>
        <time>2024-05-10T18:32:48Z</time>
      </trkpt>
      <trkpt lat="42.95384793" lon="13.34568198">
        <ele>513.00000</ele>
        <time>2024-05-10T18:32:49Z</time>
      </trkpt>
      <trkpt lat="42.95385992" lon="13.34570595">
        <ele>514.00000</ele>
        <time>2024-05-10T18:32:49Z</time>
      </trkpt>
      <trkpt lat="42.95386394" lon="13.34573596">
        <ele>514.00000</ele>
        <time>2024-05-10T18:32:49Z</time>
      </trkpt>
      <trkpt lat="42.95386193" lon="13.34576496">
        <ele>515.00000</ele>
        <time>2024-05-10T18:32:50Z</time>
      </trkpt>
      <trkpt lat="42.95386193" lon="13.34579497">
        <ele>516.00000</ele>
        <time>2024-05-10T18:32:50Z</time>
      </trkpt>
      <trkpt lat="42.95385095" lon="13.34582498">
        <ele>516.00000</ele>
        <time>2024-05-10T18:32:51Z</time>
      </trkpt>
      <trkpt lat="42.95384198" lon="13.34585297">
        <ele>516.00000</ele>
        <time>2024-05-10T18:32:51Z</time>
      </trkpt>
      <trkpt lat="42.95382597" lon="13.34588591">
        <ele>516.00000</ele>
        <time>2024-05-10T18:32:52Z</time>
      </trkpt>
      <trkpt lat="42.95382195" lon="13.34590494">
        <ele>516.00000</ele>
        <time>2024-05-10T18:32:52Z</time>
      </trkpt>
      <trkpt lat="42.95381298" lon="13.34592891">
        <ele>516.00000</ele>
        <time>2024-05-10T18:32:52Z</time>
      </trkpt>
      <trkpt lat="42.95380292" lon="13.34594693">
        <ele>516.00000</ele>
        <time>2024-05-10T18:32:53Z</time>
      </trkpt>
      <trkpt lat="42.95378993" lon="13.34596496">
        <ele>516.00000</ele>
        <time>2024-05-10T18:32:53Z</time>
      </trkpt>
      <trkpt lat="42.95377593" lon="13.34597996">
        <ele>516.00000</ele>
        <time>2024-05-10T18:32:54Z</time>
      </trkpt>
      <trkpt lat="42.95376394" lon="13.34600393">
        <ele>516.00000</ele>
        <time>2024-05-10T18:32:54Z</time>
      </trkpt>
      <trkpt lat="42.95374793" lon="13.34603494">
        <ele>516.00000</ele>
        <time>2024-05-10T18:32:55Z</time>
      </trkpt>
      <trkpt lat="42.95373695" lon="13.34605892">
        <ele>516.00000</ele>
        <time>2024-05-10T18:32:55Z</time>
      </trkpt>
      <trkpt lat="42.95372396" lon="13.34609194">
        <ele>516.00000</ele>
        <time>2024-05-10T18:32:56Z</time>
      </trkpt>
      <trkpt lat="42.95371399" lon="13.34611692">
        <ele>515.00000</ele>
        <time>2024-05-10T18:32:56Z</time>
      </trkpt>
      <trkpt lat="42.95369999" lon="13.34613997">
        <ele>515.00000</ele>
        <time>2024-05-10T18:32:56Z</time>
      </trkpt>
      <trkpt lat="42.95369194" lon="13.34615992">
        <ele>515.00000</ele>
        <time>2024-05-10T18:32:57Z</time>
      </trkpt>
      <trkpt lat="42.95368792" lon="13.34618498">
        <ele>515.00000</ele>
        <time>2024-05-10T18:32:57Z</time>
      </trkpt>
      <trkpt lat="42.95368096" lon="13.34620996">
        <ele>515.00000</ele>
        <time>2024-05-10T18:32:57Z</time>
      </trkpt>
      <trkpt lat="42.95366998" lon="13.34623494">
        <ele>515.00000</ele>
        <time>2024-05-10T18:32:58Z</time>
      </trkpt>
      <trkpt lat="42.95365791" lon="13.34625991">
        <ele>514.00000</ele>
        <time>2024-05-10T18:32:58Z</time>
      </trkpt>
      <trkpt lat="42.95364894" lon="13.34628498">
        <ele>514.00000</ele>
        <time>2024-05-10T18:32:59Z</time>
      </trkpt>
      <trkpt lat="42.95364299" lon="13.34630593">
        <ele>514.00000</ele>
        <time>2024-05-10T18:32:59Z</time>
      </trkpt>
      <trkpt lat="42.95363595" lon="13.34632898">
        <ele>514.00000</ele>
        <time>2024-05-10T18:32:59Z</time>
      </trkpt>
      <trkpt lat="42.95362799" lon="13.34634591">
        <ele>514.00000</ele>
        <time>2024-05-10T18:33:00Z</time>
      </trkpt>
      <trkpt lat="42.95361399" lon="13.34636997">
        <ele>513.00000</ele>
        <time>2024-05-10T18:33:00Z</time>
      </trkpt>
      <trkpt lat="42.95359899" lon="13.34638698">
        <ele>513.00000</ele>
        <time>2024-05-10T18:33:01Z</time>
      </trkpt>
      <trkpt lat="42.95358893" lon="13.34640299">
        <ele>513.00000</ele>
        <time>2024-05-10T18:33:01Z</time>
      </trkpt>
      <trkpt lat="42.95357493" lon="13.34642294">
        <ele>514.00000</ele>
        <time>2024-05-10T18:33:01Z</time>
      </trkpt>
      <trkpt lat="42.95355599" lon="13.34644993">
        <ele>514.00000</ele>
        <time>2024-05-10T18:33:02Z</time>
      </trkpt>
      <trkpt lat="42.95354099" lon="13.34647592">
        <ele>514.00000</ele>
        <time>2024-05-10T18:33:02Z</time>
      </trkpt>
      <trkpt lat="42.95352498" lon="13.34651196">
        <ele>514.00000</ele>
        <time>2024-05-10T18:33:03Z</time>
      </trkpt>
      <trkpt lat="42.95350997" lon="13.34654792">
        <ele>514.00000</ele>
        <time>2024-05-10T18:33:04Z</time>
      </trkpt>
      <trkpt lat="42.95350193" lon="13.34657893">
        <ele>514.00000</ele>
        <time>2024-05-10T18:33:04Z</time>
      </trkpt>
      <trkpt lat="42.95348893" lon="13.34661799">
        <ele>515.00000</ele>
        <time>2024-05-10T18:33:05Z</time>
      </trkpt>
      <trkpt lat="42.95347393" lon="13.34665395">
        <ele>515.00000</ele>
        <time>2024-05-10T18:33:05Z</time>
      </trkpt>
      <trkpt lat="42.95346295" lon="13.34668999">
        <ele>515.00000</ele>
        <time>2024-05-10T18:33:06Z</time>
      </trkpt>
      <trkpt lat="42.95345298" lon="13.34672293">
        <ele>516.00000</ele>
        <time>2024-05-10T18:33:06Z</time>
      </trkpt>
      <trkpt lat="42.95345096" lon="13.34675596">
        <ele>516.00000</ele>
        <time>2024-05-10T18:33:07Z</time>
      </trkpt>
      <trkpt lat="42.95344199" lon="13.34679594">
        <ele>517.00000</ele>
        <time>2024-05-10T18:33:07Z</time>
      </trkpt>
      <trkpt lat="42.95343898" lon="13.34683693">
        <ele>517.00000</ele>
        <time>2024-05-10T18:33:08Z</time>
      </trkpt>
      <trkpt lat="42.95344694" lon="13.34686593">
        <ele>518.00000</ele>
        <time>2024-05-10T18:33:09Z</time>
      </trkpt>
      <trkpt lat="42.95344694" lon="13.34687892">
        <ele>518.00000</ele>
        <time>2024-05-10T18:33:09Z</time>
      </trkpt>
      <trkpt lat="42.95344593" lon="13.34688797">
        <ele>518.00000</ele>
        <time>2024-05-10T18:33:09Z</time>
      </trkpt>
      <trkpt lat="42.95346094" lon="13.34694094">
        <ele>519.00000</ele>
        <time>2024-05-10T18:33:10Z</time>
      </trkpt>
      <trkpt lat="42.95345993" lon="13.34695494">
        <ele>519.00000</ele>
        <time>2024-05-10T18:33:10Z</time>
      </trkpt>
      <trkpt lat="42.95345792" lon="13.34695595">
        <ele>519.00000</ele>
        <time>2024-05-10T18:33:10Z</time>
      </trkpt>
      <trkpt lat="42.95347896" lon="13.34696894">
        <ele>519.00000</ele>
        <time>2024-05-10T18:33:10Z</time>
      </trkpt>
      <trkpt lat="42.95348198" lon="13.34697992">
        <ele>519.00000</ele>
        <time>2024-05-10T18:33:11Z</time>
      </trkpt>
      <trkpt lat="42.95348592" lon="13.34698897">
        <ele>519.00000</ele>
        <time>2024-05-10T18:33:11Z</time>
      </trkpt>
      <trkpt lat="42.95349095" lon="13.34699694">
        <ele>519.00000</ele>
        <time>2024-05-10T18:33:11Z</time>
      </trkpt>
      <trkpt lat="42.95349497" lon="13.34700892">
        <ele>519.00000</ele>
        <time>2024-05-10T18:33:11Z</time>
      </trkpt>
      <trkpt lat="42.95350193" lon="13.34702393">
        <ele>519.00000</ele>
        <time>2024-05-10T18:33:11Z</time>
      </trkpt>
      <trkpt lat="42.95350897" lon="13.34704698">
        <ele>519.00000</ele>
        <time>2024-05-10T18:33:12Z</time>
      </trkpt>
      <trkpt lat="42.95351894" lon="13.34706793">
        <ele>520.00000</ele>
        <time>2024-05-10T18:33:12Z</time>
      </trkpt>
      <trkpt lat="42.95352699" lon="13.34707992">
        <ele>520.00000</ele>
        <time>2024-05-10T18:33:12Z</time>
      </trkpt>
      <trkpt lat="42.95353294" lon="13.34709492">
        <ele>520.00000</ele>
        <time>2024-05-10T18:33:13Z</time>
      </trkpt>
      <trkpt lat="42.95354492" lon="13.34710791">
        <ele>520.00000</ele>
        <time>2024-05-10T18:33:13Z</time>
      </trkpt>
      <trkpt lat="42.95355398" lon="13.34712392">
        <ele>520.00000</ele>
        <time>2024-05-10T18:33:13Z</time>
      </trkpt>
      <trkpt lat="42.95356797" lon="13.34714496">
        <ele>520.00000</ele>
        <time>2024-05-10T18:33:14Z</time>
      </trkpt>
      <trkpt lat="42.95357099" lon="13.34716198">
        <ele>520.00000</ele>
        <time>2024-05-10T18:33:14Z</time>
      </trkpt>
      <trkpt lat="42.95357694" lon="13.34717899">
        <ele>520.00000</ele>
        <time>2024-05-10T18:33:14Z</time>
      </trkpt>
      <trkpt lat="42.95357694" lon="13.34719793">
        <ele>521.00000</ele>
        <time>2024-05-10T18:33:14Z</time>
      </trkpt>
      <trkpt lat="42.95357493" lon="13.34722392">
        <ele>521.00000</ele>
        <time>2024-05-10T18:33:15Z</time>
      </trkpt>
      <trkpt lat="42.95356999" lon="13.34725694">
        <ele>521.00000</ele>
        <time>2024-05-10T18:33:15Z</time>
      </trkpt>
      <trkpt lat="42.95356496" lon="13.34728393">
        <ele>521.00000</ele>
        <time>2024-05-10T18:33:16Z</time>
      </trkpt>
      <trkpt lat="42.95355599" lon="13.34730899">
        <ele>521.00000</ele>
        <time>2024-05-10T18:33:16Z</time>
      </trkpt>
      <trkpt lat="42.95354291" lon="13.34733196">
        <ele>522.00000</ele>
        <time>2024-05-10T18:33:16Z</time>
      </trkpt>
      <trkpt lat="42.95353294" lon="13.34735292">
        <ele>522.00000</ele>
        <time>2024-05-10T18:33:17Z</time>
      </trkpt>
      <trkpt lat="42.95351995" lon="13.34737194">
        <ele>522.00000</ele>
        <time>2024-05-10T18:33:17Z</time>
      </trkpt>
      <trkpt lat="42.95350997" lon="13.34738393">
        <ele>522.00000</ele>
        <time>2024-05-10T18:33:17Z</time>
      </trkpt>
      <trkpt lat="42.95349497" lon="13.34738896">
        <ele>523.00000</ele>
        <time>2024-05-10T18:33:18Z</time>
      </trkpt>
      <trkpt lat="42.95347795" lon="13.34739298">
        <ele>523.00000</ele>
        <time>2024-05-10T18:33:18Z</time>
      </trkpt>
      <trkpt lat="42.95345599" lon="13.34739692">
        <ele>523.00000</ele>
        <time>2024-05-10T18:33:19Z</time>
      </trkpt>
      <trkpt lat="42.95343898" lon="13.34740597">
        <ele>524.00000</ele>
        <time>2024-05-10T18:33:19Z</time>
      </trkpt>
      <trkpt lat="42.95342498" lon="13.34741695">
        <ele>524.00000</ele>
        <time>2024-05-10T18:33:19Z</time>
      </trkpt>
      <trkpt lat="42.95341693" lon="13.34742793">
        <ele>524.00000</ele>
        <time>2024-05-10T18:33:20Z</time>
      </trkpt>
      <trkpt lat="42.95342196" lon="13.34745392">
        <ele>524.00000</ele>
        <time>2024-05-10T18:33:20Z</time>
      </trkpt>
      <trkpt lat="42.95342498" lon="13.34747898">
        <ele>524.00000</ele>
        <time>2024-05-10T18:33:20Z</time>
      </trkpt>
      <trkpt lat="42.95342599" lon="13.34751594">
        <ele>525.00000</ele>
        <time>2024-05-10T18:33:21Z</time>
      </trkpt>
      <trkpt lat="42.95343697" lon="13.34754092">
        <ele>524.00000</ele>
        <time>2024-05-10T18:33:21Z</time>
      </trkpt>
      <trkpt lat="42.95344493" lon="13.34756598">
        <ele>524.00000</ele>
        <time>2024-05-10T18:33:22Z</time>
      </trkpt>
      <trkpt lat="42.95344996" lon="13.34759792">
        <ele>524.00000</ele>
        <time>2024-05-10T18:33:22Z</time>
      </trkpt>
      <trkpt lat="42.95345599" lon="13.34762197">
        <ele>524.00000</ele>
        <time>2024-05-10T18:33:22Z</time>
      </trkpt>
      <trkpt lat="42.95346396" lon="13.34765098">
        <ele>524.00000</ele>
        <time>2024-05-10T18:33:23Z</time>
      </trkpt>
      <trkpt lat="42.95347192" lon="13.34767797">
        <ele>524.00000</ele>
        <time>2024-05-10T18:33:23Z</time>
      </trkpt>
      <trkpt lat="42.95346798" lon="13.34770596">
        <ele>525.00000</ele>
        <time>2024-05-10T18:33:24Z</time>
      </trkpt>
      <trkpt lat="42.95345599" lon="13.34772893">
        <ele>525.00000</ele>
        <time>2024-05-10T18:33:24Z</time>
      </trkpt>
      <trkpt lat="42.95345298" lon="13.34775793">
        <ele>525.00000</ele>
        <time>2024-05-10T18:33:25Z</time>
      </trkpt>
      <trkpt lat="42.95344996" lon="13.34778098">
        <ele>525.00000</ele>
        <time>2024-05-10T18:33:25Z</time>
      </trkpt>
      <trkpt lat="42.95344099" lon="13.34781593">
        <ele>526.00000</ele>
        <time>2024-05-10T18:33:26Z</time>
      </trkpt>
      <trkpt lat="42.95343495" lon="13.34784493">
        <ele>526.00000</ele>
        <time>2024-05-10T18:33:26Z</time>
      </trkpt>
      <trkpt lat="42.95342992" lon="13.34788198">
        <ele>527.00000</ele>
        <time>2024-05-10T18:33:27Z</time>
      </trkpt>
      <trkpt lat="42.95342699" lon="13.34791995">
        <ele>527.00000</ele>
        <time>2024-05-10T18:33:27Z</time>
      </trkpt>
      <trkpt lat="42.95342498" lon="13.34795197">
        <ele>527.00000</ele>
        <time>2024-05-10T18:33:28Z</time>
      </trkpt>
      <trkpt lat="42.95341593" lon="13.34798893">
        <ele>528.00000</ele>
        <time>2024-05-10T18:33:28Z</time>
      </trkpt>
      <trkpt lat="42.95341199" lon="13.34801492">
        <ele>528.00000</ele>
        <time>2024-05-10T18:33:29Z</time>
      </trkpt>
      <trkpt lat="42.95340595" lon="13.34803998">
        <ele>529.00000</ele>
        <time>2024-05-10T18:33:29Z</time>
      </trkpt>
      <trkpt lat="42.95340495" lon="13.34807292">
        <ele>529.00000</ele>
        <time>2024-05-10T18:33:29Z</time>
      </trkpt>
      <trkpt lat="42.95339799" lon="13.34810092">
        <ele>529.00000</ele>
        <time>2024-05-10T18:33:30Z</time>
      </trkpt>
      <trkpt lat="42.95339799" lon="13.34813595">
        <ele>529.00000</ele>
        <time>2024-05-10T18:33:30Z</time>
      </trkpt>
      <trkpt lat="42.95339397" lon="13.34817392">
        <ele>530.00000</ele>
        <time>2024-05-10T18:33:31Z</time>
      </trkpt>
      <trkpt lat="42.95338894" lon="13.34820795">
        <ele>530.00000</ele>
        <time>2024-05-10T18:33:31Z</time>
      </trkpt>
      <trkpt lat="42.95338693" lon="13.34824492">
        <ele>530.00000</ele>
        <time>2024-05-10T18:33:32Z</time>
      </trkpt>
      <trkpt lat="42.95338592" lon="13.34828096">
        <ele>530.00000</ele>
        <time>2024-05-10T18:33:32Z</time>
      </trkpt>
      <trkpt lat="42.95338994" lon="13.34831499">
        <ele>530.00000</ele>
        <time>2024-05-10T18:33:33Z</time>
      </trkpt>
      <trkpt lat="42.95338994" lon="13.34834491">
        <ele>531.00000</ele>
        <time>2024-05-10T18:33:33Z</time>
      </trkpt>
      <trkpt lat="42.95338693" lon="13.34837391">
        <ele>531.00000</ele>
        <time>2024-05-10T18:33:34Z</time>
      </trkpt>
      <trkpt lat="42.95338592" lon="13.34840795">
        <ele>531.00000</ele>
        <time>2024-05-10T18:33:34Z</time>
      </trkpt>
      <trkpt lat="42.95338894" lon="13.34844298">
        <ele>532.00000</ele>
        <time>2024-05-10T18:33:35Z</time>
      </trkpt>
      <trkpt lat="42.95338894" lon="13.34846796">
        <ele>532.00000</ele>
        <time>2024-05-10T18:33:35Z</time>
      </trkpt>
      <trkpt lat="42.95338299" lon="13.34849696">
        <ele>532.00000</ele>
        <time>2024-05-10T18:33:36Z</time>
      </trkpt>
      <trkpt lat="42.95337595" lon="13.34852395">
        <ele>532.00000</ele>
        <time>2024-05-10T18:33:36Z</time>
      </trkpt>
      <trkpt lat="42.95336899" lon="13.34855195">
        <ele>533.00000</ele>
        <time>2024-05-10T18:33:37Z</time>
      </trkpt>
      <trkpt lat="42.95337595" lon="13.34858095">
        <ele>533.00000</ele>
        <time>2024-05-10T18:33:37Z</time>
      </trkpt>
      <trkpt lat="42.95337796" lon="13.34860199">
        <ele>533.00000</ele>
        <time>2024-05-10T18:33:37Z</time>
      </trkpt>
      <trkpt lat="42.95337997" lon="13.34863292">
        <ele>533.00000</ele>
        <time>2024-05-10T18:33:38Z</time>
      </trkpt>
      <trkpt lat="42.95337595" lon="13.34866292">
        <ele>533.00000</ele>
        <time>2024-05-10T18:33:38Z</time>
      </trkpt>
      <trkpt lat="42.95337092" lon="13.34868899">
        <ele>533.00000</ele>
        <time>2024-05-10T18:33:39Z</time>
      </trkpt>
      <trkpt lat="42.95336899" lon="13.34871598">
        <ele>534.00000</ele>
        <time>2024-05-10T18:33:39Z</time>
      </trkpt>
      <trkpt lat="42.95336698" lon="13.34874297">
        <ele>534.00000</ele>
        <time>2024-05-10T18:33:39Z</time>
      </trkpt>
      <trkpt lat="42.95336698" lon="13.34877197">
        <ele>534.00000</ele>
        <time>2024-05-10T18:33:40Z</time>
      </trkpt>
      <trkpt lat="42.95336798" lon="13.34879494">
        <ele>534.00000</ele>
        <time>2024-05-10T18:33:40Z</time>
      </trkpt>
      <trkpt lat="42.95336698" lon="13.34882193">
        <ele>534.00000</ele>
        <time>2024-05-10T18:33:41Z</time>
      </trkpt>
      <trkpt lat="42.95337192" lon="13.34885294">
        <ele>534.00000</ele>
        <time>2024-05-10T18:33:41Z</time>
      </trkpt>
      <trkpt lat="42.95338097" lon="13.34887993">
        <ele>534.00000</ele>
        <time>2024-05-10T18:33:41Z</time>
      </trkpt>
      <trkpt lat="42.95338994" lon="13.34890793">
        <ele>535.00000</ele>
        <time>2024-05-10T18:33:42Z</time>
      </trkpt>
      <trkpt lat="42.95339095" lon="13.34893399">
        <ele>535.00000</ele>
        <time>2024-05-10T18:33:42Z</time>
      </trkpt>
      <trkpt lat="42.95339598" lon="13.34895797">
        <ele>535.00000</ele>
        <time>2024-05-10T18:33:43Z</time>
      </trkpt>
      <trkpt lat="42.95340092" lon="13.34898998">
        <ele>535.00000</ele>
        <time>2024-05-10T18:33:43Z</time>
      </trkpt>
      <trkpt lat="42.95341299" lon="13.34901195">
        <ele>536.00000</ele>
        <time>2024-05-10T18:33:44Z</time>
      </trkpt>
      <trkpt lat="42.95341995" lon="13.34902896">
        <ele>536.00000</ele>
        <time>2024-05-10T18:33:44Z</time>
      </trkpt>
      <trkpt lat="42.95342892" lon="13.34904598">
        <ele>536.00000</ele>
        <time>2024-05-10T18:33:44Z</time>
      </trkpt>
      <trkpt lat="42.95343395" lon="13.34906592">
        <ele>536.00000</ele>
        <time>2024-05-10T18:33:44Z</time>
      </trkpt>
      <trkpt lat="42.95344493" lon="13.34909199">
        <ele>536.00000</ele>
        <time>2024-05-10T18:33:45Z</time>
      </trkpt>
      <trkpt lat="42.95345197" lon="13.34911596">
        <ele>537.00000</ele>
        <time>2024-05-10T18:33:45Z</time>
      </trkpt>
      <trkpt lat="42.95346496" lon="13.34914195">
        <ele>537.00000</ele>
        <time>2024-05-10T18:33:46Z</time>
      </trkpt>
      <trkpt lat="42.95347896" lon="13.34916491">
        <ele>537.00000</ele>
        <time>2024-05-10T18:33:46Z</time>
      </trkpt>
      <trkpt lat="42.95349296" lon="13.34918696">
        <ele>537.00000</ele>
        <time>2024-05-10T18:33:47Z</time>
      </trkpt>
      <trkpt lat="42.95350897" lon="13.34921797">
        <ele>538.00000</ele>
        <time>2024-05-10T18:33:47Z</time>
      </trkpt>
      <trkpt lat="42.95352699" lon="13.34924597">
        <ele>538.00000</ele>
        <time>2024-05-10T18:33:48Z</time>
      </trkpt>
      <trkpt lat="42.95354291" lon="13.34927396">
        <ele>538.00000</ele>
        <time>2024-05-10T18:33:48Z</time>
      </trkpt>
      <trkpt lat="42.95355599" lon="13.34929693">
        <ele>538.00000</ele>
        <time>2024-05-10T18:33:49Z</time>
      </trkpt>
      <trkpt lat="42.95356596" lon="13.34931897">
        <ele>538.00000</ele>
        <time>2024-05-10T18:33:49Z</time>
      </trkpt>
      <trkpt lat="42.95357292" lon="13.34934596">
        <ele>538.00000</ele>
        <time>2024-05-10T18:33:49Z</time>
      </trkpt>
      <trkpt lat="42.95358197" lon="13.34937396">
        <ele>538.00000</ele>
        <time>2024-05-10T18:33:50Z</time>
      </trkpt>
      <trkpt lat="42.95358591" lon="13.34939592">
        <ele>538.00000</ele>
        <time>2024-05-10T18:33:50Z</time>
      </trkpt>
      <trkpt lat="42.95359396" lon="13.34942794">
        <ele>538.00000</ele>
        <time>2024-05-10T18:33:51Z</time>
      </trkpt>
      <trkpt lat="42.95359999" lon="13.34945392">
        <ele>538.00000</ele>
        <time>2024-05-10T18:33:51Z</time>
      </trkpt>
      <trkpt lat="42.95361097" lon="13.34948393">
        <ele>538.00000</ele>
        <time>2024-05-10T18:33:52Z</time>
      </trkpt>
      <trkpt lat="42.95361994" lon="13.34950899">
        <ele>539.00000</ele>
        <time>2024-05-10T18:33:52Z</time>
      </trkpt>
      <trkpt lat="42.95361994" lon="13.34954193">
        <ele>538.00000</ele>
        <time>2024-05-10T18:33:52Z</time>
      </trkpt>
      <trkpt lat="42.95362095" lon="13.34957395">
        <ele>538.00000</ele>
        <time>2024-05-10T18:33:53Z</time>
      </trkpt>
      <trkpt lat="42.95362698" lon="13.34960295">
        <ele>538.00000</ele>
        <time>2024-05-10T18:33:53Z</time>
      </trkpt>
      <trkpt lat="42.95363495" lon="13.34962399">
        <ele>538.00000</ele>
        <time>2024-05-10T18:33:54Z</time>
      </trkpt>
      <trkpt lat="42.95364299" lon="13.34963799">
        <ele>539.00000</ele>
        <time>2024-05-10T18:33:54Z</time>
      </trkpt>
      <trkpt lat="42.95365699" lon="13.34965392">
        <ele>539.00000</ele>
        <time>2024-05-10T18:33:54Z</time>
      </trkpt>
      <trkpt lat="42.95366998" lon="13.34966791">
        <ele>539.00000</ele>
        <time>2024-05-10T18:33:55Z</time>
      </trkpt>
      <trkpt lat="42.95368893" lon="13.34968593">
        <ele>539.00000</ele>
        <time>2024-05-10T18:33:55Z</time>
      </trkpt>
      <trkpt lat="42.95369898" lon="13.34970898">
        <ele>539.00000</ele>
        <time>2024-05-10T18:33:56Z</time>
      </trkpt>
      <trkpt lat="42.95370996" lon="13.34974193">
        <ele>540.00000</ele>
        <time>2024-05-10T18:33:56Z</time>
      </trkpt>
      <trkpt lat="42.95372497" lon="13.34976799">
        <ele>540.00000</ele>
        <time>2024-05-10T18:33:57Z</time>
      </trkpt>
      <trkpt lat="42.95373897" lon="13.34979498">
        <ele>540.00000</ele>
        <time>2024-05-10T18:33:57Z</time>
      </trkpt>
      <trkpt lat="42.95375891" lon="13.34981795">
        <ele>540.00000</ele>
        <time>2024-05-10T18:33:58Z</time>
      </trkpt>
      <trkpt lat="42.95377392" lon="13.34984192">
        <ele>541.00000</ele>
        <time>2024-05-10T18:33:58Z</time>
      </trkpt>
      <trkpt lat="42.95378398" lon="13.34985592">
        <ele>541.00000</ele>
        <time>2024-05-10T18:33:58Z</time>
      </trkpt>
      <trkpt lat="42.95379496" lon="13.34988299">
        <ele>541.00000</ele>
        <time>2024-05-10T18:33:59Z</time>
      </trkpt>
      <trkpt lat="42.95380393" lon="13.34990998">
        <ele>541.00000</ele>
        <time>2024-05-10T18:33:59Z</time>
      </trkpt>
      <trkpt lat="42.95380895" lon="13.34993194">
        <ele>541.00000</ele>
        <time>2024-05-10T18:34:00Z</time>
      </trkpt>
      <trkpt lat="42.95381499" lon="13.34995994">
        <ele>540.00000</ele>
        <time>2024-05-10T18:34:00Z</time>
      </trkpt>
      <trkpt lat="42.95381499" lon="13.34999699">
        <ele>540.00000</ele>
        <time>2024-05-10T18:34:01Z</time>
      </trkpt>
      <trkpt lat="42.95381993" lon="13.35003093">
        <ele>540.00000</ele>
        <time>2024-05-10T18:34:01Z</time>
      </trkpt>
      <trkpt lat="42.95382999" lon="13.35005591">
        <ele>540.00000</ele>
        <time>2024-05-10T18:34:01Z</time>
      </trkpt>
      <trkpt lat="42.95384299" lon="13.35008298">
        <ele>540.00000</ele>
        <time>2024-05-10T18:34:02Z</time>
      </trkpt>
      <trkpt lat="42.95385799" lon="13.35010897">
        <ele>540.00000</ele>
        <time>2024-05-10T18:34:02Z</time>
      </trkpt>
      <trkpt lat="42.95387894" lon="13.35013797">
        <ele>540.00000</ele>
        <time>2024-05-10T18:34:03Z</time>
      </trkpt>
      <trkpt lat="42.95389395" lon="13.35016697">
        <ele>540.00000</ele>
        <time>2024-05-10T18:34:04Z</time>
      </trkpt>
      <trkpt lat="42.95390694" lon="13.35019497">
        <ele>540.00000</ele>
        <time>2024-05-10T18:34:04Z</time>
      </trkpt>
      <trkpt lat="42.95392395" lon="13.35022095">
        <ele>540.00000</ele>
        <time>2024-05-10T18:34:05Z</time>
      </trkpt>
      <trkpt lat="42.95393493" lon="13.35025297">
        <ele>540.00000</ele>
        <time>2024-05-10T18:34:05Z</time>
      </trkpt>
      <trkpt lat="42.95394692" lon="13.35028692">
        <ele>541.00000</ele>
        <time>2024-05-10T18:34:06Z</time>
      </trkpt>
      <trkpt lat="42.95395497" lon="13.35031198">
        <ele>541.00000</ele>
        <time>2024-05-10T18:34:06Z</time>
      </trkpt>
      <trkpt lat="42.95397098" lon="13.35033494">
        <ele>541.00000</ele>
        <time>2024-05-10T18:34:06Z</time>
      </trkpt>
      <trkpt lat="42.95399394" lon="13.35035297">
        <ele>541.00000</ele>
        <time>2024-05-10T18:34:07Z</time>
      </trkpt>
      <trkpt lat="42.95401699" lon="13.35035892">
        <ele>542.00000</ele>
        <time>2024-05-10T18:34:07Z</time>
      </trkpt>
      <trkpt lat="42.95403292" lon="13.35036998">
        <ele>542.00000</ele>
        <time>2024-05-10T18:34:08Z</time>
      </trkpt>
      <trkpt lat="42.95405396" lon="13.35037996">
        <ele>542.00000</ele>
        <time>2024-05-10T18:34:08Z</time>
      </trkpt>
      <trkpt lat="42.95407298" lon="13.35039094">
        <ele>542.00000</ele>
        <time>2024-05-10T18:34:09Z</time>
      </trkpt>
      <trkpt lat="42.95408992" lon="13.35040795">
        <ele>542.00000</ele>
        <time>2024-05-10T18:34:09Z</time>
      </trkpt>
      <trkpt lat="42.95410492" lon="13.35042597">
        <ele>543.00000</ele>
        <time>2024-05-10T18:34:09Z</time>
      </trkpt>
      <trkpt lat="42.95411095" lon="13.35045296">
        <ele>542.00000</ele>
        <time>2024-05-10T18:34:10Z</time>
      </trkpt>
      <trkpt lat="42.95411598" lon="13.35048096">
        <ele>542.00000</ele>
        <time>2024-05-10T18:34:10Z</time>
      </trkpt>
      <trkpt lat="42.95412395" lon="13.35051096">
        <ele>542.00000</ele>
        <time>2024-05-10T18:34:11Z</time>
      </trkpt>
      <trkpt lat="42.95413694" lon="13.35053494">
        <ele>542.00000</ele>
        <time>2024-05-10T18:34:11Z</time>
      </trkpt>
      <trkpt lat="42.95414993" lon="13.35056796">
        <ele>542.00000</ele>
        <time>2024-05-10T18:34:12Z</time>
      </trkpt>
      <trkpt lat="42.95416594" lon="13.35059797">
        <ele>542.00000</ele>
        <time>2024-05-10T18:34:12Z</time>
      </trkpt>
      <trkpt lat="42.95417591" lon="13.35062999">
        <ele>542.00000</ele>
        <time>2024-05-10T18:34:13Z</time>
      </trkpt>
      <trkpt lat="42.95418396" lon="13.35065899">
        <ele>542.00000</ele>
        <time>2024-05-10T18:34:13Z</time>
      </trkpt>
      <trkpt lat="42.95419595" lon="13.35068095">
        <ele>543.00000</ele>
        <time>2024-05-10T18:34:14Z</time>
      </trkpt>
      <trkpt lat="42.95419796" lon="13.35070895">
        <ele>542.00000</ele>
        <time>2024-05-10T18:34:14Z</time>
      </trkpt>
      <trkpt lat="42.95419796" lon="13.35073895">
        <ele>542.00000</ele>
        <time>2024-05-10T18:34:15Z</time>
      </trkpt>
      <trkpt lat="42.95420894" lon="13.35077592">
        <ele>542.00000</ele>
        <time>2024-05-10T18:34:15Z</time>
      </trkpt>
      <trkpt lat="42.95421598" lon="13.35081397">
        <ele>542.00000</ele>
        <time>2024-05-10T18:34:16Z</time>
      </trkpt>
      <trkpt lat="42.95422294" lon="13.35084599">
        <ele>542.00000</ele>
        <time>2024-05-10T18:34:16Z</time>
      </trkpt>
      <trkpt lat="42.95421891" lon="13.35087398">
        <ele>542.00000</ele>
        <time>2024-05-10T18:34:17Z</time>
      </trkpt>
      <trkpt lat="42.95422294" lon="13.35090097">
        <ele>542.00000</ele>
        <time>2024-05-10T18:34:17Z</time>
      </trkpt>
      <trkpt lat="42.95422193" lon="13.35092897">
        <ele>542.00000</ele>
        <time>2024-05-10T18:34:17Z</time>
      </trkpt>
      <trkpt lat="42.95421891" lon="13.35095495">
        <ele>543.00000</ele>
        <time>2024-05-10T18:34:18Z</time>
      </trkpt>
      <trkpt lat="42.95422897" lon="13.35098798">
        <ele>543.00000</ele>
        <time>2024-05-10T18:34:18Z</time>
      </trkpt>
      <trkpt lat="42.95424791" lon="13.35101799">
        <ele>543.00000</ele>
        <time>2024-05-10T18:34:19Z</time>
      </trkpt>
      <trkpt lat="42.95425898" lon="13.35104598">
        <ele>543.00000</ele>
        <time>2024-05-10T18:34:19Z</time>
      </trkpt>
      <trkpt lat="42.95426795" lon="13.35107096">
        <ele>543.00000</ele>
        <time>2024-05-10T18:34:20Z</time>
      </trkpt>
      <trkpt lat="42.95427993" lon="13.35109795">
        <ele>543.00000</ele>
        <time>2024-05-10T18:34:20Z</time>
      </trkpt>
      <trkpt lat="42.95429795" lon="13.35111899">
        <ele>544.00000</ele>
        <time>2024-05-10T18:34:21Z</time>
      </trkpt>
      <trkpt lat="42.95431396" lon="13.35113894">
        <ele>544.00000</ele>
        <time>2024-05-10T18:34:21Z</time>
      </trkpt>
      <trkpt lat="42.95432997" lon="13.35116492">
        <ele>544.00000</ele>
        <time>2024-05-10T18:34:22Z</time>
      </trkpt>
      <trkpt lat="42.95434498" lon="13.35118093">
        <ele>545.00000</ele>
        <time>2024-05-10T18:34:22Z</time>
      </trkpt>
      <trkpt lat="42.95435596" lon="13.35119493">
        <ele>545.00000</ele>
        <time>2024-05-10T18:34:22Z</time>
      </trkpt>
      <trkpt lat="42.95437096" lon="13.35120499">
        <ele>545.00000</ele>
        <time>2024-05-10T18:34:23Z</time>
      </trkpt>
      <trkpt lat="42.95438395" lon="13.35121194">
        <ele>545.00000</ele>
        <time>2024-05-10T18:34:23Z</time>
      </trkpt>
      <trkpt lat="42.95439996" lon="13.35122393">
        <ele>545.00000</ele>
        <time>2024-05-10T18:34:23Z</time>
      </trkpt>
      <trkpt lat="42.95441899" lon="13.35123499">
        <ele>545.00000</ele>
        <time>2024-05-10T18:34:24Z</time>
      </trkpt>
      <trkpt lat="42.95443793" lon="13.35124991">
        <ele>545.00000</ele>
        <time>2024-05-10T18:34:24Z</time>
      </trkpt>
      <trkpt lat="42.95445193" lon="13.35125997">
        <ele>546.00000</ele>
        <time>2024-05-10T18:34:24Z</time>
      </trkpt>
      <trkpt lat="42.95446794" lon="13.35127095">
        <ele>546.00000</ele>
        <time>2024-05-10T18:34:25Z</time>
      </trkpt>
      <trkpt lat="42.95448194" lon="13.35128093">
        <ele>547.00000</ele>
        <time>2024-05-10T18:34:25Z</time>
      </trkpt>
      <trkpt lat="42.95449795" lon="13.35129593">
        <ele>547.00000</ele>
        <time>2024-05-10T18:34:26Z</time>
      </trkpt>
      <trkpt lat="42.95451798" lon="13.35131295">
        <ele>548.00000</ele>
        <time>2024-05-10T18:34:26Z</time>
      </trkpt>
      <trkpt lat="42.95454095" lon="13.35132996">
        <ele>548.00000</ele>
        <time>2024-05-10T18:34:27Z</time>
      </trkpt>
      <trkpt lat="42.95455696" lon="13.35134496">
        <ele>549.00000</ele>
        <time>2024-05-10T18:34:27Z</time>
      </trkpt>
      <trkpt lat="42.95457498" lon="13.35135997">
        <ele>549.00000</ele>
        <time>2024-05-10T18:34:27Z</time>
      </trkpt>
      <trkpt lat="42.95459392" lon="13.35138092">
        <ele>550.00000</ele>
        <time>2024-05-10T18:34:28Z</time>
      </trkpt>
      <trkpt lat="42.95460792" lon="13.35139593">
        <ele>550.00000</ele>
        <time>2024-05-10T18:34:28Z</time>
      </trkpt>
      <trkpt lat="42.95461697" lon="13.35141495">
        <ele>550.00000</ele>
        <time>2024-05-10T18:34:29Z</time>
      </trkpt>
      <trkpt lat="42.95462694" lon="13.35143993">
        <ele>551.00000</ele>
        <time>2024-05-10T18:34:29Z</time>
      </trkpt>
      <trkpt lat="42.95463591" lon="13.35146399">
        <ele>551.00000</ele>
        <time>2024-05-10T18:34:29Z</time>
      </trkpt>
      <trkpt lat="42.95464396" lon="13.35148394">
        <ele>552.00000</ele>
        <time>2024-05-10T18:34:30Z</time>
      </trkpt>
      <trkpt lat="42.95465393" lon="13.35150397">
        <ele>552.00000</ele>
        <time>2024-05-10T18:34:30Z</time>
      </trkpt>
      <trkpt lat="42.95465896" lon="13.35152492">
        <ele>552.00000</ele>
        <time>2024-05-10T18:34:30Z</time>
      </trkpt>
      <trkpt lat="42.95467095" lon="13.35154898">
        <ele>553.00000</ele>
        <time>2024-05-10T18:34:31Z</time>
      </trkpt>
      <trkpt lat="42.95468495" lon="13.35156792">
        <ele>553.00000</ele>
        <time>2024-05-10T18:34:31Z</time>
      </trkpt>
      <trkpt lat="42.95468796" lon="13.35159198">
        <ele>553.00000</ele>
        <time>2024-05-10T18:34:32Z</time>
      </trkpt>
      <trkpt lat="42.95468998" lon="13.35161796">
        <ele>554.00000</ele>
        <time>2024-05-10T18:34:32Z</time>
      </trkpt>
      <trkpt lat="42.95468897" lon="13.35164294">
        <ele>554.00000</ele>
        <time>2024-05-10T18:34:32Z</time>
      </trkpt>
      <trkpt lat="42.95469492" lon="13.35167496">
        <ele>554.00000</ele>
        <time>2024-05-10T18:34:33Z</time>
      </trkpt>
      <trkpt lat="42.95469995" lon="13.35171192">
        <ele>555.00000</ele>
        <time>2024-05-10T18:34:33Z</time>
      </trkpt>
      <trkpt lat="42.95470397" lon="13.35174897">
        <ele>555.00000</ele>
        <time>2024-05-10T18:34:34Z</time>
      </trkpt>
      <trkpt lat="42.95470699" lon="13.35178392">
        <ele>555.00000</ele>
        <time>2024-05-10T18:34:34Z</time>
      </trkpt>
      <trkpt lat="42.95470699" lon="13.35181695">
        <ele>556.00000</ele>
        <time>2024-05-10T18:34:35Z</time>
      </trkpt>
      <trkpt lat="42.95470498" lon="13.35184696">
        <ele>556.00000</ele>
        <time>2024-05-10T18:34:35Z</time>
      </trkpt>
      <trkpt lat="42.95470699" lon="13.35187696">
        <ele>556.00000</ele>
        <time>2024-05-10T18:34:36Z</time>
      </trkpt>
      <trkpt lat="42.95470993" lon="13.35190898">
        <ele>556.00000</ele>
        <time>2024-05-10T18:34:36Z</time>
      </trkpt>
      <trkpt lat="42.95471797" lon="13.35193698">
        <ele>556.00000</ele>
        <time>2024-05-10T18:34:37Z</time>
      </trkpt>
      <trkpt lat="42.95472593" lon="13.35196799">
        <ele>557.00000</ele>
        <time>2024-05-10T18:34:37Z</time>
      </trkpt>
      <trkpt lat="42.95473499" lon="13.35199397">
        <ele>557.00000</ele>
        <time>2024-05-10T18:34:38Z</time>
      </trkpt>
      <trkpt lat="42.95474496" lon="13.35202993">
        <ele>557.00000</ele>
        <time>2024-05-10T18:34:38Z</time>
      </trkpt>
      <trkpt lat="42.95475494" lon="13.35205994">
        <ele>557.00000</ele>
        <time>2024-05-10T18:34:39Z</time>
      </trkpt>
      <trkpt lat="42.95476198" lon="13.35209397">
        <ele>558.00000</ele>
        <time>2024-05-10T18:34:39Z</time>
      </trkpt>
      <trkpt lat="42.95477095" lon="13.35212498">
        <ele>558.00000</ele>
        <time>2024-05-10T18:34:40Z</time>
      </trkpt>
      <trkpt lat="42.95477991" lon="13.35215994">
        <ele>558.00000</ele>
        <time>2024-05-10T18:34:40Z</time>
      </trkpt>
      <trkpt lat="42.95480196" lon="13.35220294">
        <ele>558.00000</ele>
        <time>2024-05-10T18:34:41Z</time>
      </trkpt>
      <trkpt lat="42.95483197" lon="13.35224392">
        <ele>558.00000</ele>
        <time>2024-05-10T18:34:42Z</time>
      </trkpt>
      <trkpt lat="42.95486792" lon="13.35227795">
        <ele>558.00000</ele>
        <time>2024-05-10T18:34:43Z</time>
      </trkpt>
      <trkpt lat="42.95490698" lon="13.35230293">
        <ele>558.00000</ele>
        <time>2024-05-10T18:34:44Z</time>
      </trkpt>
      <trkpt lat="42.95493196" lon="13.35230997">
        <ele>558.00000</ele>
        <time>2024-05-10T18:34:44Z</time>
      </trkpt>
      <trkpt lat="42.95495795" lon="13.35231693">
        <ele>558.00000</ele>
        <time>2024-05-10T18:34:45Z</time>
      </trkpt>
      <trkpt lat="42.95497898" lon="13.35232598">
        <ele>558.00000</ele>
        <time>2024-05-10T18:34:45Z</time>
      </trkpt>
      <trkpt lat="42.95499399" lon="13.35233093">
        <ele>558.00000</ele>
        <time>2024-05-10T18:34:45Z</time>
      </trkpt>
      <trkpt lat="42.95501193" lon="13.35233596">
        <ele>558.00000</ele>
        <time>2024-05-10T18:34:46Z</time>
      </trkpt>
      <trkpt lat="42.95502693" lon="13.35234593">
        <ele>559.00000</ele>
        <time>2024-05-10T18:34:46Z</time>
      </trkpt>
      <trkpt lat="42.95504394" lon="13.35235398">
        <ele>559.00000</ele>
        <time>2024-05-10T18:34:46Z</time>
      </trkpt>
      <trkpt lat="42.95505995" lon="13.35236395">
        <ele>559.00000</ele>
        <time>2024-05-10T18:34:47Z</time>
      </trkpt>
      <trkpt lat="42.95507797" lon="13.35237292">
        <ele>559.00000</ele>
        <time>2024-05-10T18:34:47Z</time>
      </trkpt>
      <trkpt lat="42.95509893" lon="13.35238499">
        <ele>559.00000</ele>
        <time>2024-05-10T18:34:48Z</time>
      </trkpt>
      <trkpt lat="42.95511293" lon="13.35239999">
        <ele>559.00000</ele>
        <time>2024-05-10T18:34:48Z</time>
      </trkpt>
      <trkpt lat="42.95512894" lon="13.35241399">
        <ele>559.00000</ele>
        <time>2024-05-10T18:34:48Z</time>
      </trkpt>
      <trkpt lat="42.95513698" lon="13.35242698">
        <ele>559.00000</ele>
        <time>2024-05-10T18:34:49Z</time>
      </trkpt>
      <trkpt lat="42.95515098" lon="13.35243897">
        <ele>559.00000</ele>
        <time>2024-05-10T18:34:49Z</time>
      </trkpt>
      <trkpt lat="42.95516196" lon="13.35245397">
        <ele>559.00000</ele>
        <time>2024-05-10T18:34:49Z</time>
      </trkpt>
      <trkpt lat="42.95517495" lon="13.35247493">
        <ele>559.00000</ele>
        <time>2024-05-10T18:34:50Z</time>
      </trkpt>
      <trkpt lat="42.95518199" lon="13.35249697">
        <ele>559.00000</ele>
        <time>2024-05-10T18:34:50Z</time>
      </trkpt>
      <trkpt lat="42.95519499" lon="13.35251793">
        <ele>559.00000</ele>
        <time>2024-05-10T18:34:50Z</time>
      </trkpt>
      <trkpt lat="42.95520295" lon="13.35253695">
        <ele>559.00000</ele>
        <time>2024-05-10T18:34:51Z</time>
      </trkpt>
      <trkpt lat="42.95521292" lon="13.35255598">
        <ele>559.00000</ele>
        <time>2024-05-10T18:34:51Z</time>
      </trkpt>
      <trkpt lat="42.95522298" lon="13.35257895">
        <ele>559.00000</ele>
        <time>2024-05-10T18:34:51Z</time>
      </trkpt>
      <trkpt lat="42.95522592" lon="13.35260493">
        <ele>559.00000</ele>
        <time>2024-05-10T18:34:52Z</time>
      </trkpt>
      <trkpt lat="42.95522893" lon="13.35262597">
        <ele>559.00000</ele>
        <time>2024-05-10T18:34:52Z</time>
      </trkpt>
      <trkpt lat="42.95522893" lon="13.35264592">
        <ele>559.00000</ele>
        <time>2024-05-10T18:34:52Z</time>
      </trkpt>
      <trkpt lat="42.95523094" lon="13.35267199">
        <ele>559.00000</ele>
        <time>2024-05-10T18:34:53Z</time>
      </trkpt>
      <trkpt lat="42.95522893" lon="13.35270099">
        <ele>559.00000</ele>
        <time>2024-05-10T18:34:53Z</time>
      </trkpt>
      <trkpt lat="42.95522793" lon="13.35272395">
        <ele>559.00000</ele>
        <time>2024-05-10T18:34:54Z</time>
      </trkpt>
      <trkpt lat="42.95522499" lon="13.35274592">
        <ele>559.00000</ele>
        <time>2024-05-10T18:34:54Z</time>
      </trkpt>
      <trkpt lat="42.95522793" lon="13.35276897">
        <ele>559.00000</ele>
        <time>2024-05-10T18:34:54Z</time>
      </trkpt>
      <trkpt lat="42.95522793" lon="13.35279897">
        <ele>559.00000</ele>
        <time>2024-05-10T18:34:55Z</time>
      </trkpt>
      <trkpt lat="42.95522994" lon="13.35283493">
        <ele>559.00000</ele>
        <time>2024-05-10T18:34:55Z</time>
      </trkpt>
      <trkpt lat="42.95522994" lon="13.35286393">
        <ele>559.00000</ele>
        <time>2024-05-10T18:34:56Z</time>
      </trkpt>
      <trkpt lat="42.95522994" lon="13.35289092">
        <ele>559.00000</ele>
        <time>2024-05-10T18:34:56Z</time>
      </trkpt>
      <trkpt lat="42.95523296" lon="13.35293292">
        <ele>559.00000</ele>
        <time>2024-05-10T18:34:57Z</time>
      </trkpt>
      <trkpt lat="42.95523698" lon="13.35296795">
        <ele>559.00000</ele>
        <time>2024-05-10T18:34:57Z</time>
      </trkpt>
      <trkpt lat="42.95523991" lon="13.35300592">
        <ele>559.00000</ele>
        <time>2024-05-10T18:34:58Z</time>
      </trkpt>
      <trkpt lat="42.95525299" lon="13.35303593">
        <ele>559.00000</ele>
        <time>2024-05-10T18:34:58Z</time>
      </trkpt>
      <trkpt lat="42.95525995" lon="13.35306191">
        <ele>559.00000</ele>
        <time>2024-05-10T18:34:59Z</time>
      </trkpt>
      <trkpt lat="42.95526799" lon="13.35309091">
        <ele>559.00000</ele>
        <time>2024-05-10T18:34:59Z</time>
      </trkpt>
      <trkpt lat="42.95528291" lon="13.35311992">
        <ele>559.00000</ele>
        <time>2024-05-10T18:35:00Z</time>
      </trkpt>
      <trkpt lat="42.95529498" lon="13.35313995">
        <ele>560.00000</ele>
        <time>2024-05-10T18:35:00Z</time>
      </trkpt>
      <trkpt lat="42.95531099" lon="13.35316199">
        <ele>560.00000</ele>
        <time>2024-05-10T18:35:00Z</time>
      </trkpt>
      <trkpt lat="42.95533496" lon="13.35317691">
        <ele>560.00000</ele>
        <time>2024-05-10T18:35:01Z</time>
      </trkpt>
      <trkpt lat="42.95535298" lon="13.35318798">
        <ele>561.00000</ele>
        <time>2024-05-10T18:35:01Z</time>
      </trkpt>
      <trkpt lat="42.95537495" lon="13.35318999">
        <ele>561.00000</ele>
        <time>2024-05-10T18:35:02Z</time>
      </trkpt>
      <trkpt lat="42.95539297" lon="13.35318999">
        <ele>562.00000</ele>
        <time>2024-05-10T18:35:02Z</time>
      </trkpt>
      <trkpt lat="42.95540998" lon="13.35319393">
        <ele>562.00000</ele>
        <time>2024-05-10T18:35:02Z</time>
      </trkpt>
      <trkpt lat="42.95542892" lon="13.35318697">
        <ele>563.00000</ele>
        <time>2024-05-10T18:35:03Z</time>
      </trkpt>
      <trkpt lat="42.95545097" lon="13.35317792">
        <ele>563.00000</ele>
        <time>2024-05-10T18:35:03Z</time>
      </trkpt>
      <trkpt lat="42.95547192" lon="13.35317398">
        <ele>564.00000</ele>
        <time>2024-05-10T18:35:04Z</time>
      </trkpt>
      <trkpt lat="42.95548592" lon="13.35317792">
        <ele>564.00000</ele>
        <time>2024-05-10T18:35:04Z</time>
      </trkpt>
      <trkpt lat="42.95550294" lon="13.35318496">
        <ele>564.00000</ele>
        <time>2024-05-10T18:35:04Z</time>
      </trkpt>
      <trkpt lat="42.95552196" lon="13.35318798">
        <ele>565.00000</ele>
        <time>2024-05-10T18:35:05Z</time>
      </trkpt>
      <trkpt lat="42.95553999" lon="13.35318898">
        <ele>565.00000</ele>
        <time>2024-05-10T18:35:05Z</time>
      </trkpt>
      <trkpt lat="42.95555993" lon="13.35318597">
        <ele>566.00000</ele>
        <time>2024-05-10T18:35:06Z</time>
      </trkpt>
      <trkpt lat="42.95557594" lon="13.35319493">
        <ele>566.00000</ele>
        <time>2024-05-10T18:35:06Z</time>
      </trkpt>
      <trkpt lat="42.95558793" lon="13.35319192">
        <ele>566.00000</ele>
        <time>2024-05-10T18:35:06Z</time>
      </trkpt>
      <trkpt lat="42.95560394" lon="13.35319896">
        <ele>567.00000</ele>
        <time>2024-05-10T18:35:06Z</time>
      </trkpt>
      <trkpt lat="42.95562297" lon="13.35320399">
        <ele>567.00000</ele>
        <time>2024-05-10T18:35:07Z</time>
      </trkpt>
      <trkpt lat="42.95564392" lon="13.35321094">
        <ele>567.00000</ele>
        <time>2024-05-10T18:35:07Z</time>
      </trkpt>
      <trkpt lat="42.95566395" lon="13.35321698">
        <ele>568.00000</ele>
        <time>2024-05-10T18:35:08Z</time>
      </trkpt>
      <trkpt lat="42.95568499" lon="13.35322293">
        <ele>568.00000</ele>
        <time>2024-05-10T18:35:08Z</time>
      </trkpt>
      <trkpt lat="42.95570394" lon="13.35322695">
        <ele>569.00000</ele>
        <time>2024-05-10T18:35:09Z</time>
      </trkpt>
      <trkpt lat="42.95572397" lon="13.35323098">
        <ele>569.00000</ele>
        <time>2024-05-10T18:35:09Z</time>
      </trkpt>
      <trkpt lat="42.95574199" lon="13.35323894">
        <ele>570.00000</ele>
        <time>2024-05-10T18:35:09Z</time>
      </trkpt>
      <trkpt lat="42.95576093" lon="13.35324699">
        <ele>570.00000</ele>
        <time>2024-05-10T18:35:10Z</time>
      </trkpt>
      <trkpt lat="42.95577895" lon="13.35325998">
        <ele>570.00000</ele>
        <time>2024-05-10T18:35:10Z</time>
      </trkpt>
      <trkpt lat="42.95578993" lon="13.35327498">
        <ele>570.00000</ele>
        <time>2024-05-10T18:35:10Z</time>
      </trkpt>
      <trkpt lat="42.95580594" lon="13.35328998">
        <ele>570.00000</ele>
        <time>2024-05-10T18:35:11Z</time>
      </trkpt>
      <trkpt lat="42.95582296" lon="13.35330197">
        <ele>571.00000</ele>
        <time>2024-05-10T18:35:11Z</time>
      </trkpt>
      <trkpt lat="42.95583897" lon="13.35331798">
        <ele>571.00000</ele>
        <time>2024-05-10T18:35:12Z</time>
      </trkpt>
      <trkpt lat="42.95585196" lon="13.35333399">
        <ele>571.00000</ele>
        <time>2024-05-10T18:35:12Z</time>
      </trkpt>
      <trkpt lat="42.95586596" lon="13.35335092">
        <ele>571.00000</ele>
        <time>2024-05-10T18:35:12Z</time>
      </trkpt>
      <trkpt lat="42.95587895" lon="13.35337095">
        <ele>571.00000</ele>
        <time>2024-05-10T18:35:13Z</time>
      </trkpt>
      <trkpt lat="42.95589194" lon="13.35338294">
        <ele>571.00000</ele>
        <time>2024-05-10T18:35:13Z</time>
      </trkpt>
      <trkpt lat="42.95590292" lon="13.35340599">
        <ele>571.00000</ele>
        <time>2024-05-10T18:35:13Z</time>
      </trkpt>
      <trkpt lat="42.95591298" lon="13.35342795">
        <ele>572.00000</ele>
        <time>2024-05-10T18:35:14Z</time>
      </trkpt>
      <trkpt lat="42.95592195" lon="13.35345293">
        <ele>572.00000</ele>
        <time>2024-05-10T18:35:14Z</time>
      </trkpt>
      <trkpt lat="42.95592991" lon="13.35347799">
        <ele>572.00000</ele>
        <time>2024-05-10T18:35:15Z</time>
      </trkpt>
      <trkpt lat="42.95593695" lon="13.35349895">
        <ele>572.00000</ele>
        <time>2024-05-10T18:35:15Z</time>
      </trkpt>
      <trkpt lat="42.95594098" lon="13.35352996">
        <ele>571.00000</ele>
        <time>2024-05-10T18:35:15Z</time>
      </trkpt>
      <trkpt lat="42.95594693" lon="13.35355293">
        <ele>571.00000</ele>
        <time>2024-05-10T18:35:16Z</time>
      </trkpt>
      <trkpt lat="42.95595095" lon="13.35357991">
        <ele>571.00000</ele>
        <time>2024-05-10T18:35:16Z</time>
      </trkpt>
      <trkpt lat="42.95595497" lon="13.35360095">
        <ele>571.00000</ele>
        <time>2024-05-10T18:35:16Z</time>
      </trkpt>
      <trkpt lat="42.95595799" lon="13.35362694">
        <ele>571.00000</ele>
        <time>2024-05-10T18:35:17Z</time>
      </trkpt>
      <trkpt lat="42.95596394" lon="13.35365192">
        <ele>571.00000</ele>
        <time>2024-05-10T18:35:17Z</time>
      </trkpt>
      <trkpt lat="42.95596495" lon="13.35367597">
        <ele>571.00000</ele>
        <time>2024-05-10T18:35:18Z</time>
      </trkpt>
      <trkpt lat="42.95596696" lon="13.35369693">
        <ele>572.00000</ele>
        <time>2024-05-10T18:35:18Z</time>
      </trkpt>
      <trkpt lat="42.95597299" lon="13.35372199">
        <ele>572.00000</ele>
        <time>2024-05-10T18:35:18Z</time>
      </trkpt>
      <trkpt lat="42.95598196" lon="13.35374697">
        <ele>572.00000</ele>
        <time>2024-05-10T18:35:19Z</time>
      </trkpt>
      <trkpt lat="42.95599495" lon="13.35377094">
        <ele>572.00000</ele>
        <time>2024-05-10T18:35:19Z</time>
      </trkpt>
      <trkpt lat="42.95600392" lon="13.35379198">
        <ele>573.00000</ele>
        <time>2024-05-10T18:35:20Z</time>
      </trkpt>
      <trkpt lat="42.95601096" lon="13.35381193">
        <ele>573.00000</ele>
        <time>2024-05-10T18:35:20Z</time>
      </trkpt>
      <trkpt lat="42.95602094" lon="13.35382592">
        <ele>573.00000</ele>
        <time>2024-05-10T18:35:20Z</time>
      </trkpt>
      <trkpt lat="42.95602899" lon="13.35383699">
        <ele>573.00000</ele>
        <time>2024-05-10T18:35:20Z</time>
      </trkpt>
      <trkpt lat="42.95604198" lon="13.35385291">
        <ele>574.00000</ele>
        <time>2024-05-10T18:35:21Z</time>
      </trkpt>
      <trkpt lat="42.95605598" lon="13.35386792">
        <ele>574.00000</ele>
        <time>2024-05-10T18:35:21Z</time>
      </trkpt>
      <trkpt lat="42.95606696" lon="13.35388795">
        <ele>574.00000</ele>
        <time>2024-05-10T18:35:21Z</time>
      </trkpt>
      <trkpt lat="42.95608196" lon="13.35390094">
        <ele>575.00000</ele>
        <time>2024-05-10T18:35:22Z</time>
      </trkpt>
      <trkpt lat="42.95609395" lon="13.35391997">
        <ele>575.00000</ele>
        <time>2024-05-10T18:35:22Z</time>
      </trkpt>
      <trkpt lat="42.95610593" lon="13.35393698">
        <ele>576.00000</ele>
        <time>2024-05-10T18:35:22Z</time>
      </trkpt>
      <trkpt lat="42.95611892" lon="13.35395593">
        <ele>576.00000</ele>
        <time>2024-05-10T18:35:23Z</time>
      </trkpt>
      <trkpt lat="42.95612596" lon="13.35397596">
        <ele>576.00000</ele>
        <time>2024-05-10T18:35:23Z</time>
      </trkpt>
      <trkpt lat="42.95613393" lon="13.35399096">
        <ele>577.00000</ele>
        <time>2024-05-10T18:35:23Z</time>
      </trkpt>
      <trkpt lat="42.95613694" lon="13.35401292">
        <ele>577.00000</ele>
        <time>2024-05-10T18:35:24Z</time>
      </trkpt>
      <trkpt lat="42.95614399" lon="13.35403597">
        <ele>577.00000</ele>
        <time>2024-05-10T18:35:24Z</time>
      </trkpt>
      <trkpt lat="42.95614893" lon="13.35406196">
        <ele>578.00000</ele>
        <time>2024-05-10T18:35:25Z</time>
      </trkpt>
      <trkpt lat="42.95615497" lon="13.35408492">
        <ele>578.00000</ele>
        <time>2024-05-10T18:35:25Z</time>
      </trkpt>
      <trkpt lat="42.95616092" lon="13.35410697">
        <ele>578.00000</ele>
        <time>2024-05-10T18:35:25Z</time>
      </trkpt>
      <trkpt lat="42.95615698" lon="13.35413295">
        <ele>578.00000</ele>
        <time>2024-05-10T18:35:26Z</time>
      </trkpt>
      <trkpt lat="42.95616092" lon="13.35415198">
        <ele>578.00000</ele>
        <time>2024-05-10T18:35:26Z</time>
      </trkpt>
      <trkpt lat="42.95616293" lon="13.35417595">
        <ele>579.00000</ele>
        <time>2024-05-10T18:35:26Z</time>
      </trkpt>
      <trkpt lat="42.95616896" lon="13.35419992">
        <ele>579.00000</ele>
        <time>2024-05-10T18:35:27Z</time>
      </trkpt>
      <trkpt lat="42.95616695" lon="13.35422792">
        <ele>579.00000</ele>
        <time>2024-05-10T18:35:27Z</time>
      </trkpt>
      <trkpt lat="42.95616393" lon="13.35425399">
        <ele>579.00000</ele>
        <time>2024-05-10T18:35:27Z</time>
      </trkpt>
      <trkpt lat="42.95616192" lon="13.35427997">
        <ele>580.00000</ele>
        <time>2024-05-10T18:35:28Z</time>
      </trkpt>
      <trkpt lat="42.95616393" lon="13.35430193">
        <ele>580.00000</ele>
        <time>2024-05-10T18:35:28Z</time>
      </trkpt>
      <trkpt lat="42.95616293" lon="13.35432599">
        <ele>580.00000</ele>
        <time>2024-05-10T18:35:29Z</time>
      </trkpt>
      <trkpt lat="42.95616494" lon="13.35435398">
        <ele>580.00000</ele>
        <time>2024-05-10T18:35:29Z</time>
      </trkpt>
      <trkpt lat="42.95616393" lon="13.35438097">
        <ele>581.00000</ele>
        <time>2024-05-10T18:35:29Z</time>
      </trkpt>
      <trkpt lat="42.95615999" lon="13.35440796">
        <ele>581.00000</ele>
        <time>2024-05-10T18:35:30Z</time>
      </trkpt>
      <trkpt lat="42.95615396" lon="13.35444292">
        <ele>581.00000</ele>
        <time>2024-05-10T18:35:30Z</time>
      </trkpt>
      <trkpt lat="42.95614994" lon="13.35446697">
        <ele>581.00000</ele>
        <time>2024-05-10T18:35:31Z</time>
      </trkpt>
      <trkpt lat="42.95614499" lon="13.35449396">
        <ele>581.00000</ele>
        <time>2024-05-10T18:35:31Z</time>
      </trkpt>
      <trkpt lat="42.95613292" lon="13.35452095">
        <ele>581.00000</ele>
        <time>2024-05-10T18:35:31Z</time>
      </trkpt>
      <trkpt lat="42.95611892" lon="13.35454199">
        <ele>581.00000</ele>
        <time>2024-05-10T18:35:32Z</time>
      </trkpt>
      <trkpt lat="42.95610995" lon="13.35456496">
        <ele>581.00000</ele>
        <time>2024-05-10T18:35:32Z</time>
      </trkpt>
      <trkpt lat="42.95610291" lon="13.35459094">
        <ele>581.00000</ele>
        <time>2024-05-10T18:35:33Z</time>
      </trkpt>
      <trkpt lat="42.95609696" lon="13.35461491">
        <ele>581.00000</ele>
        <time>2024-05-10T18:35:33Z</time>
      </trkpt>
      <trkpt lat="42.95609093" lon="13.35463796">
        <ele>581.00000</ele>
        <time>2024-05-10T18:35:33Z</time>
      </trkpt>
      <trkpt lat="42.95608196" lon="13.35465498">
        <ele>581.00000</ele>
        <time>2024-05-10T18:35:34Z</time>
      </trkpt>
      <trkpt lat="42.95607098" lon="13.35467593">
        <ele>581.00000</ele>
        <time>2024-05-10T18:35:34Z</time>
      </trkpt>
      <trkpt lat="42.95606494" lon="13.35469395">
        <ele>581.00000</ele>
        <time>2024-05-10T18:35:34Z</time>
      </trkpt>
      <trkpt lat="42.95605598" lon="13.35471793">
        <ele>581.00000</ele>
        <time>2024-05-10T18:35:35Z</time>
      </trkpt>
      <trkpt lat="42.95604692" lon="13.35474399">
        <ele>581.00000</ele>
        <time>2024-05-10T18:35:35Z</time>
      </trkpt>
      <trkpt lat="42.95603997" lon="13.35476998">
        <ele>582.00000</ele>
        <time>2024-05-10T18:35:36Z</time>
      </trkpt>
      <trkpt lat="42.95602899" lon="13.35479395">
        <ele>582.00000</ele>
        <time>2024-05-10T18:35:36Z</time>
      </trkpt>
      <trkpt lat="42.95602999" lon="13.35481993">
        <ele>582.00000</ele>
        <time>2024-05-10T18:35:36Z</time>
      </trkpt>
      <trkpt lat="42.95603091" lon="13.35484298">
        <ele>583.00000</ele>
        <time>2024-05-10T18:35:37Z</time>
      </trkpt>
      <trkpt lat="42.95603896" lon="13.35485396">
        <ele>583.00000</ele>
        <time>2024-05-10T18:35:37Z</time>
      </trkpt>
      <trkpt lat="42.95604592" lon="13.35486595">
        <ele>583.00000</ele>
        <time>2024-05-10T18:35:37Z</time>
      </trkpt>
      <trkpt lat="42.95605799" lon="13.35486494">
        <ele>584.00000</ele>
        <time>2024-05-10T18:35:37Z</time>
      </trkpt>
      <trkpt lat="42.95605899" lon="13.35483695">
        <ele>583.00000</ele>
        <time>2024-05-10T18:35:38Z</time>
      </trkpt>
      <trkpt lat="42.95606796" lon="13.35481398">
        <ele>583.00000</ele>
        <time>2024-05-10T18:35:38Z</time>
      </trkpt>
      <trkpt lat="42.95607592" lon="13.35479596">
        <ele>583.00000</ele>
        <time>2024-05-10T18:35:39Z</time>
      </trkpt>
      <trkpt lat="42.95608498" lon="13.35477794">
        <ele>583.00000</ele>
        <time>2024-05-10T18:35:39Z</time>
      </trkpt>
      <trkpt lat="42.95609797" lon="13.35475799">
        <ele>583.00000</ele>
        <time>2024-05-10T18:35:39Z</time>
      </trkpt>
      <trkpt lat="42.95611398" lon="13.35474592">
        <ele>583.00000</ele>
        <time>2024-05-10T18:35:40Z</time>
      </trkpt>
      <trkpt lat="42.95612697" lon="13.35472798">
        <ele>583.00000</ele>
        <time>2024-05-10T18:35:40Z</time>
      </trkpt>
      <trkpt lat="42.95614399" lon="13.35470996">
        <ele>584.00000</ele>
        <time>2024-05-10T18:35:40Z</time>
      </trkpt>
      <trkpt lat="42.95616293" lon="13.35469798">
        <ele>584.00000</ele>
        <time>2024-05-10T18:35:41Z</time>
      </trkpt>
      <trkpt lat="42.95617793" lon="13.35468792">
        <ele>585.00000</ele>
        <time>2024-05-10T18:35:41Z</time>
      </trkpt>
      <trkpt lat="42.95618497" lon="13.35467392">
        <ele>585.00000</ele>
        <time>2024-05-10T18:35:41Z</time>
      </trkpt>
      <trkpt lat="42.95619595" lon="13.35466294">
        <ele>585.00000</ele>
        <time>2024-05-10T18:35:42Z</time>
      </trkpt>
      <trkpt lat="42.95621096" lon="13.35465095">
        <ele>585.00000</ele>
        <time>2024-05-10T18:35:42Z</time>
      </trkpt>
      <trkpt lat="42.95622797" lon="13.35463595">
        <ele>586.00000</ele>
        <time>2024-05-10T18:35:42Z</time>
      </trkpt>
      <trkpt lat="42.95624993" lon="13.35461894">
        <ele>586.00000</ele>
        <time>2024-05-10T18:35:43Z</time>
      </trkpt>
      <trkpt lat="42.95627097" lon="13.35460091">
        <ele>587.00000</ele>
        <time>2024-05-10T18:35:43Z</time>
      </trkpt>
      <trkpt lat="42.95628698" lon="13.35458599">
        <ele>587.00000</ele>
        <time>2024-05-10T18:35:44Z</time>
      </trkpt>
      <trkpt lat="42.95630098" lon="13.35456194">
        <ele>588.00000</ele>
        <time>2024-05-10T18:35:44Z</time>
      </trkpt>
      <trkpt lat="42.95631598" lon="13.35454693">
        <ele>588.00000</ele>
        <time>2024-05-10T18:35:45Z</time>
      </trkpt>
      <trkpt lat="42.95632797" lon="13.35452891">
        <ele>588.00000</ele>
        <time>2024-05-10T18:35:45Z</time>
      </trkpt>
      <trkpt lat="42.95633593" lon="13.35451894">
        <ele>588.00000</ele>
        <time>2024-05-10T18:35:45Z</time>
      </trkpt>
      <trkpt lat="42.95635093" lon="13.35449597">
        <ele>588.00000</ele>
        <time>2024-05-10T18:35:46Z</time>
      </trkpt>
      <trkpt lat="42.95636594" lon="13.35447292">
        <ele>588.00000</ele>
        <time>2024-05-10T18:35:46Z</time>
      </trkpt>
      <trkpt lat="42.95637692" lon="13.35444392">
        <ele>588.00000</ele>
        <time>2024-05-10T18:35:47Z</time>
      </trkpt>
      <trkpt lat="42.95638496" lon="13.35440796">
        <ele>588.00000</ele>
        <time>2024-05-10T18:35:47Z</time>
      </trkpt>
      <trkpt lat="42.95639393" lon="13.35436999">
        <ele>587.00000</ele>
        <time>2024-05-10T18:35:48Z</time>
      </trkpt>
      <trkpt lat="42.95640793" lon="13.35432993">
        <ele>587.00000</ele>
        <time>2024-05-10T18:35:48Z</time>
      </trkpt>
      <trkpt lat="42.95642193" lon="13.35429196">
        <ele>587.00000</ele>
        <time>2024-05-10T18:35:49Z</time>
      </trkpt>
      <trkpt lat="42.95643199" lon="13.35425298">
        <ele>586.00000</ele>
        <time>2024-05-10T18:35:50Z</time>
      </trkpt>
      <trkpt lat="42.95644498" lon="13.35421493">
        <ele>586.00000</ele>
        <time>2024-05-10T18:35:50Z</time>
      </trkpt>
      <trkpt lat="42.95645495" lon="13.35417092">
        <ele>585.00000</ele>
        <time>2024-05-10T18:35:51Z</time>
      </trkpt>
      <trkpt lat="42.95646694" lon="13.35413195">
        <ele>585.00000</ele>
        <time>2024-05-10T18:35:52Z</time>
      </trkpt>
      <trkpt lat="42.95647691" lon="13.35408492">
        <ele>585.00000</ele>
        <time>2024-05-10T18:35:52Z</time>
      </trkpt>
      <trkpt lat="42.95647691" lon="13.35404193">
        <ele>584.00000</ele>
        <time>2024-05-10T18:35:53Z</time>
      </trkpt>
      <trkpt lat="42.95647792" lon="13.35398292">
        <ele>583.00000</ele>
        <time>2024-05-10T18:35:54Z</time>
      </trkpt>
      <trkpt lat="42.95647297" lon="13.35391393">
        <ele>582.00000</ele>
        <time>2024-05-10T18:35:55Z</time>
      </trkpt>
      <trkpt lat="42.95646493" lon="13.35385099">
        <ele>581.00000</ele>
        <time>2024-05-10T18:35:56Z</time>
      </trkpt>
      <trkpt lat="42.95645998" lon="13.35378091">
        <ele>581.00000</ele>
        <time>2024-05-10T18:35:57Z</time>
      </trkpt>
      <trkpt lat="42.95645998" lon="13.35370296">
        <ele>580.00000</ele>
        <time>2024-05-10T18:35:58Z</time>
      </trkpt>
      <trkpt lat="42.95646593" lon="13.35363096">
        <ele>579.00000</ele>
        <time>2024-05-10T18:35:59Z</time>
      </trkpt>
      <trkpt lat="42.95647993" lon="13.35356298">
        <ele>579.00000</ele>
        <time>2024-05-10T18:36:00Z</time>
      </trkpt>
      <trkpt lat="42.95650097" lon="13.35349392">
        <ele>579.00000</ele>
        <time>2024-05-10T18:36:01Z</time>
      </trkpt>
      <trkpt lat="42.95652092" lon="13.35343298">
        <ele>579.00000</ele>
        <time>2024-05-10T18:36:02Z</time>
      </trkpt>
      <trkpt lat="42.95654296" lon="13.35337196">
        <ele>580.00000</ele>
        <time>2024-05-10T18:36:03Z</time>
      </trkpt>
      <trkpt lat="42.95656794" lon="13.35331496">
        <ele>580.00000</ele>
        <time>2024-05-10T18:36:04Z</time>
      </trkpt>
      <trkpt lat="42.95658496" lon="13.35327699">
        <ele>580.00000</ele>
        <time>2024-05-10T18:36:05Z</time>
      </trkpt>
      <trkpt lat="42.95661396" lon="13.35324992">
        <ele>580.00000</ele>
        <time>2024-05-10T18:36:05Z</time>
      </trkpt>
      <trkpt lat="42.95664195" lon="13.35324196">
        <ele>580.00000</ele>
        <time>2024-05-10T18:36:06Z</time>
      </trkpt>
      <trkpt lat="42.95666894" lon="13.35325193">
        <ele>580.00000</ele>
        <time>2024-05-10T18:36:07Z</time>
      </trkpt>
      <trkpt lat="42.95668998" lon="13.35326492">
        <ele>580.00000</ele>
        <time>2024-05-10T18:36:07Z</time>
      </trkpt>
      <trkpt lat="42.95671697" lon="13.35328797">
        <ele>579.00000</ele>
        <time>2024-05-10T18:36:08Z</time>
      </trkpt>
      <trkpt lat="42.95673399" lon="13.35331899">
        <ele>579.00000</ele>
        <time>2024-05-10T18:36:08Z</time>
      </trkpt>
      <trkpt lat="42.95675494" lon="13.35335897">
        <ele>579.00000</ele>
        <time>2024-05-10T18:36:09Z</time>
      </trkpt>
      <trkpt lat="42.95677699" lon="13.35341697">
        <ele>579.00000</ele>
        <time>2024-05-10T18:36:10Z</time>
      </trkpt>
      <trkpt lat="42.95679593" lon="13.35347891">
        <ele>580.00000</ele>
        <time>2024-05-10T18:36:11Z</time>
      </trkpt>
      <trkpt lat="42.95681093" lon="13.35355494">
        <ele>580.00000</ele>
        <time>2024-05-10T18:36:12Z</time>
      </trkpt>
      <trkpt lat="42.95682594" lon="13.35361596">
        <ele>581.00000</ele>
        <time>2024-05-10T18:36:13Z</time>
      </trkpt>
      <trkpt lat="42.95686399" lon="13.35368293">
        <ele>582.00000</ele>
        <time>2024-05-10T18:36:14Z</time>
      </trkpt>
      <trkpt lat="42.95689391" lon="13.35373196">
        <ele>583.00000</ele>
        <time>2024-05-10T18:36:15Z</time>
      </trkpt>
      <trkpt lat="42.95693197" lon="13.35378494">
        <ele>584.00000</ele>
        <time>2024-05-10T18:36:16Z</time>
      </trkpt>
      <trkpt lat="42.95696994" lon="13.35383196">
        <ele>584.00000</ele>
        <time>2024-05-10T18:36:17Z</time>
      </trkpt>
      <trkpt lat="42.95702392" lon="13.35387194">
        <ele>584.00000</ele>
        <time>2024-05-10T18:36:18Z</time>
      </trkpt>
      <trkpt lat="42.95708695" lon="13.35389692">
        <ele>584.00000</ele>
        <time>2024-05-10T18:36:20Z</time>
      </trkpt>
      <trkpt lat="42.95713892" lon="13.35391695">
        <ele>584.00000</ele>
        <time>2024-05-10T18:36:21Z</time>
      </trkpt>
      <trkpt lat="42.95718594" lon="13.35393891">
        <ele>584.00000</ele>
        <time>2024-05-10T18:36:22Z</time>
      </trkpt>
      <trkpt lat="42.95722098" lon="13.35395693">
        <ele>584.00000</ele>
        <time>2024-05-10T18:36:23Z</time>
      </trkpt>
      <trkpt lat="42.95725593" lon="13.35396892">
        <ele>584.00000</ele>
        <time>2024-05-10T18:36:23Z</time>
      </trkpt>
      <trkpt lat="42.95728694" lon="13.35397898">
        <ele>583.00000</ele>
        <time>2024-05-10T18:36:24Z</time>
      </trkpt>
      <trkpt lat="42.95731896" lon="13.35398694">
        <ele>583.00000</ele>
        <time>2024-05-10T18:36:25Z</time>
      </trkpt>
      <trkpt lat="42.95735098" lon="13.35398392">
        <ele>582.00000</ele>
        <time>2024-05-10T18:36:25Z</time>
      </trkpt>
      <trkpt lat="42.95738996" lon="13.35398099">
        <ele>581.00000</ele>
        <time>2024-05-10T18:36:26Z</time>
      </trkpt>
      <trkpt lat="42.95741896" lon="13.35398099">
        <ele>581.00000</ele>
        <time>2024-05-10T18:36:27Z</time>
      </trkpt>
      <trkpt lat="42.95744595" lon="13.35398392">
        <ele>580.00000</ele>
        <time>2024-05-10T18:36:27Z</time>
      </trkpt>
      <trkpt lat="42.95747495" lon="13.35398895">
        <ele>580.00000</ele>
        <time>2024-05-10T18:36:28Z</time>
      </trkpt>
      <trkpt lat="42.95750898" lon="13.35399197">
        <ele>579.00000</ele>
        <time>2024-05-10T18:36:28Z</time>
      </trkpt>
      <trkpt lat="42.95754192" lon="13.35400094">
        <ele>580.00000</ele>
        <time>2024-05-10T18:36:29Z</time>
      </trkpt>
      <trkpt lat="42.95757997" lon="13.35401795">
        <ele>580.00000</ele>
        <time>2024-05-10T18:36:30Z</time>
      </trkpt>
      <trkpt lat="42.95761291" lon="13.35402499">
        <ele>581.00000</ele>
        <time>2024-05-10T18:36:31Z</time>
      </trkpt>
      <trkpt lat="42.95763898" lon="13.35402994">
        <ele>581.00000</ele>
        <time>2024-05-10T18:36:31Z</time>
      </trkpt>
      <trkpt lat="42.95766597" lon="13.35403296">
        <ele>581.00000</ele>
        <time>2024-05-10T18:36:32Z</time>
      </trkpt>
      <trkpt lat="42.95768994" lon="13.35403899">
        <ele>582.00000</ele>
        <time>2024-05-10T18:36:32Z</time>
      </trkpt>
      <trkpt lat="42.95771693" lon="13.35404193">
        <ele>582.00000</ele>
        <time>2024-05-10T18:36:33Z</time>
      </trkpt>
      <trkpt lat="42.95774795" lon="13.35403991">
        <ele>582.00000</ele>
        <time>2024-05-10T18:36:33Z</time>
      </trkpt>
      <trkpt lat="42.95778198" lon="13.35404092">
        <ele>582.00000</ele>
        <time>2024-05-10T18:36:34Z</time>
      </trkpt>
      <trkpt lat="42.95780897" lon="13.35404494">
        <ele>582.00000</ele>
        <time>2024-05-10T18:36:35Z</time>
      </trkpt>
      <trkpt lat="42.95783897" lon="13.35404092">
        <ele>582.00000</ele>
        <time>2024-05-10T18:36:35Z</time>
      </trkpt>
      <trkpt lat="42.95786798" lon="13.35404293">
        <ele>582.00000</ele>
        <time>2024-05-10T18:36:36Z</time>
      </trkpt>
      <trkpt lat="42.95789295" lon="13.35404193">
        <ele>582.00000</ele>
        <time>2024-05-10T18:36:36Z</time>
      </trkpt>
      <trkpt lat="42.95791693" lon="13.35403698">
        <ele>582.00000</ele>
        <time>2024-05-10T18:36:37Z</time>
      </trkpt>
      <trkpt lat="42.95794199" lon="13.35402399">
        <ele>581.00000</ele>
        <time>2024-05-10T18:36:37Z</time>
      </trkpt>
      <trkpt lat="42.95797099" lon="13.35401393">
        <ele>581.00000</ele>
        <time>2024-05-10T18:36:38Z</time>
      </trkpt>
      <trkpt lat="42.95800292" lon="13.35399691">
        <ele>580.00000</ele>
        <time>2024-05-10T18:36:38Z</time>
      </trkpt>
      <trkpt lat="42.95803796" lon="13.35397797">
        <ele>579.00000</ele>
        <time>2024-05-10T18:36:39Z</time>
      </trkpt>
      <trkpt lat="42.95807895" lon="13.35395693">
        <ele>578.00000</ele>
        <time>2024-05-10T18:36:40Z</time>
      </trkpt>
      <trkpt lat="42.95812295" lon="13.35394092">
        <ele>577.00000</ele>
        <time>2024-05-10T18:36:41Z</time>
      </trkpt>
      <trkpt lat="42.95817492" lon="13.35392097">
        <ele>576.00000</ele>
        <time>2024-05-10T18:36:42Z</time>
      </trkpt>
      <trkpt lat="42.95823192" lon="13.35391393">
        <ele>576.00000</ele>
        <time>2024-05-10T18:36:43Z</time>
      </trkpt>
      <trkpt lat="42.95829193" lon="13.35391293">
        <ele>575.00000</ele>
        <time>2024-05-10T18:36:44Z</time>
      </trkpt>
      <trkpt lat="42.95834993" lon="13.35390396">
        <ele>575.00000</ele>
        <time>2024-05-10T18:36:46Z</time>
      </trkpt>
      <trkpt lat="42.95840299" lon="13.35389398">
        <ele>575.00000</ele>
        <time>2024-05-10T18:36:47Z</time>
      </trkpt>
      <trkpt lat="42.95845496" lon="13.35388896">
        <ele>574.00000</ele>
        <time>2024-05-10T18:36:48Z</time>
      </trkpt>
      <trkpt lat="42.95850894" lon="13.35387496">
        <ele>574.00000</ele>
        <time>2024-05-10T18:36:49Z</time>
      </trkpt>
      <trkpt lat="42.95856594" lon="13.35387295">
        <ele>574.00000</ele>
        <time>2024-05-10T18:36:50Z</time>
      </trkpt>
      <trkpt lat="42.95862092" lon="13.35387898">
        <ele>574.00000</ele>
        <time>2024-05-10T18:36:51Z</time>
      </trkpt>
      <trkpt lat="42.95867892" lon="13.35388099">
        <ele>575.00000</ele>
        <time>2024-05-10T18:36:52Z</time>
      </trkpt>
      <trkpt lat="42.95873299" lon="13.35388694">
        <ele>575.00000</ele>
        <time>2024-05-10T18:36:53Z</time>
      </trkpt>
      <trkpt lat="42.95878797" lon="13.35389398">
        <ele>576.00000</ele>
        <time>2024-05-10T18:36:54Z</time>
      </trkpt>
      <trkpt lat="42.95884195" lon="13.35390094">
        <ele>576.00000</ele>
        <time>2024-05-10T18:36:56Z</time>
      </trkpt>
      <trkpt lat="42.95889291" lon="13.35390698">
        <ele>577.00000</ele>
        <time>2024-05-10T18:36:57Z</time>
      </trkpt>
      <trkpt lat="42.95893692" lon="13.35391796">
        <ele>577.00000</ele>
        <time>2024-05-10T18:36:57Z</time>
      </trkpt>
      <trkpt lat="42.95898294" lon="13.35391293">
        <ele>576.00000</ele>
        <time>2024-05-10T18:36:58Z</time>
      </trkpt>
      <trkpt lat="42.95903096" lon="13.35390597">
        <ele>576.00000</ele>
        <time>2024-05-10T18:36:59Z</time>
      </trkpt>
      <trkpt lat="42.95908293" lon="13.35390396">
        <ele>576.00000</ele>
        <time>2024-05-10T18:37:00Z</time>
      </trkpt>
      <trkpt lat="42.95912694" lon="13.35391092">
        <ele>576.00000</ele>
        <time>2024-05-10T18:37:01Z</time>
      </trkpt>
      <trkpt lat="42.95917295" lon="13.35391393">
        <ele>575.00000</ele>
        <time>2024-05-10T18:37:02Z</time>
      </trkpt>
      <trkpt lat="42.95921796" lon="13.35392097">
        <ele>574.00000</ele>
        <time>2024-05-10T18:37:03Z</time>
      </trkpt>
      <trkpt lat="42.95925895" lon="13.35395199">
        <ele>573.00000</ele>
        <time>2024-05-10T18:37:04Z</time>
      </trkpt>
      <trkpt lat="42.95928896" lon="13.35400094">
        <ele>572.00000</ele>
        <time>2024-05-10T18:37:05Z</time>
      </trkpt>
      <trkpt lat="42.95930597" lon="13.35407093">
        <ele>572.00000</ele>
        <time>2024-05-10T18:37:06Z</time>
      </trkpt>
      <trkpt lat="42.95931997" lon="13.35414192">
        <ele>571.00000</ele>
        <time>2024-05-10T18:37:07Z</time>
      </trkpt>
      <trkpt lat="42.95932391" lon="13.35422691">
        <ele>571.00000</ele>
        <time>2024-05-10T18:37:08Z</time>
      </trkpt>
      <trkpt lat="42.95933196" lon="13.35430797">
        <ele>570.00000</ele>
        <time>2024-05-10T18:37:10Z</time>
      </trkpt>
      <trkpt lat="42.95933498" lon="13.35438894">
        <ele>570.00000</ele>
        <time>2024-05-10T18:37:11Z</time>
      </trkpt>
      <trkpt lat="42.95932995" lon="13.35446597">
        <ele>570.00000</ele>
        <time>2024-05-10T18:37:12Z</time>
      </trkpt>
      <trkpt lat="42.95933095" lon="13.35453595">
        <ele>570.00000</ele>
        <time>2024-05-10T18:37:13Z</time>
      </trkpt>
      <trkpt lat="42.95932995" lon="13.35460997">
        <ele>569.00000</ele>
        <time>2024-05-10T18:37:14Z</time>
      </trkpt>
      <trkpt lat="42.95932693" lon="13.35467794">
        <ele>569.00000</ele>
        <time>2024-05-10T18:37:15Z</time>
      </trkpt>
      <trkpt lat="42.95932299" lon="13.35474693">
        <ele>569.00000</ele>
        <time>2024-05-10T18:37:16Z</time>
      </trkpt>
      <trkpt lat="42.95931796" lon="13.35480493">
        <ele>569.00000</ele>
        <time>2024-05-10T18:37:17Z</time>
      </trkpt>
      <trkpt lat="42.95931193" lon="13.35486897">
        <ele>569.00000</ele>
        <time>2024-05-10T18:37:18Z</time>
      </trkpt>
      <trkpt lat="42.95930095" lon="13.35494097">
        <ele>569.00000</ele>
        <time>2024-05-10T18:37:19Z</time>
      </trkpt>
      <trkpt lat="42.95928896" lon="13.35502998">
        <ele>569.00000</ele>
        <time>2024-05-10T18:37:20Z</time>
      </trkpt>
      <trkpt lat="42.95928192" lon="13.35511095">
        <ele>568.00000</ele>
        <time>2024-05-10T18:37:21Z</time>
      </trkpt>
      <trkpt lat="42.95928695" lon="13.35519393">
        <ele>566.00000</ele>
        <time>2024-05-10T18:37:23Z</time>
      </trkpt>
      <trkpt lat="42.95928896" lon="13.35527499">
        <ele>565.00000</ele>
        <time>2024-05-10T18:37:24Z</time>
      </trkpt>
      <trkpt lat="42.95928695" lon="13.35535193">
        <ele>563.00000</ele>
        <time>2024-05-10T18:37:25Z</time>
      </trkpt>
      <trkpt lat="42.95928795" lon="13.35542494">
        <ele>561.00000</ele>
        <time>2024-05-10T18:37:26Z</time>
      </trkpt>
      <trkpt lat="42.95928594" lon="13.35549199">
        <ele>560.00000</ele>
        <time>2024-05-10T18:37:27Z</time>
      </trkpt>
      <trkpt lat="42.95928594" lon="13.35556198">
        <ele>558.00000</ele>
        <time>2024-05-10T18:37:28Z</time>
      </trkpt>
      <trkpt lat="42.95927597" lon="13.35563097">
        <ele>557.00000</ele>
        <time>2024-05-10T18:37:29Z</time>
      </trkpt>
      <trkpt lat="42.95926993" lon="13.35570791">
        <ele>555.00000</ele>
        <time>2024-05-10T18:37:30Z</time>
      </trkpt>
      <trkpt lat="42.95927396" lon="13.35577597">
        <ele>553.00000</ele>
        <time>2024-05-10T18:37:31Z</time>
      </trkpt>
      <trkpt lat="42.95926691" lon="13.35584093">
        <ele>552.00000</ele>
        <time>2024-05-10T18:37:32Z</time>
      </trkpt>
      <trkpt lat="42.95926197" lon="13.35588997">
        <ele>551.00000</ele>
        <time>2024-05-10T18:37:33Z</time>
      </trkpt>
      <trkpt lat="42.95925895" lon="13.35594294">
        <ele>550.00000</ele>
        <time>2024-05-10T18:37:34Z</time>
      </trkpt>
      <trkpt lat="42.95924898" lon="13.35600698">
        <ele>549.00000</ele>
        <time>2024-05-10T18:37:35Z</time>
      </trkpt>
      <trkpt lat="42.95923397" lon="13.35607596">
        <ele>548.00000</ele>
        <time>2024-05-10T18:37:36Z</time>
      </trkpt>
      <trkpt lat="42.95921897" lon="13.35614293">
        <ele>547.00000</ele>
        <time>2024-05-10T18:37:37Z</time>
      </trkpt>
      <trkpt lat="42.95919399" lon="13.35621594">
        <ele>546.00000</ele>
        <time>2024-05-10T18:37:38Z</time>
      </trkpt>
      <trkpt lat="42.95916792" lon="13.35627797">
        <ele>546.00000</ele>
        <time>2024-05-10T18:37:39Z</time>
      </trkpt>
      <trkpt lat="42.95914395" lon="13.35632893">
        <ele>546.00000</ele>
        <time>2024-05-10T18:37:40Z</time>
      </trkpt>
      <trkpt lat="42.95912291" lon="13.35636598">
        <ele>546.00000</ele>
        <time>2024-05-10T18:37:41Z</time>
      </trkpt>
      <trkpt lat="42.95909098" lon="13.35639598">
        <ele>547.00000</ele>
        <time>2024-05-10T18:37:41Z</time>
      </trkpt>
      <trkpt lat="42.95905896" lon="13.35642197">
        <ele>548.00000</ele>
        <time>2024-05-10T18:37:42Z</time>
      </trkpt>
      <trkpt lat="42.95903197" lon="13.35644099">
        <ele>550.00000</ele>
        <time>2024-05-10T18:37:43Z</time>
      </trkpt>
      <trkpt lat="42.95900699" lon="13.35646396">
        <ele>551.00000</ele>
        <time>2024-05-10T18:37:43Z</time>
      </trkpt>
      <trkpt lat="42.95898193" lon="13.35649698">
        <ele>552.00000</ele>
        <time>2024-05-10T18:37:44Z</time>
      </trkpt>
      <trkpt lat="42.95896299" lon="13.35654292">
        <ele>552.00000</ele>
        <time>2024-05-10T18:37:45Z</time>
      </trkpt>
      <trkpt lat="42.95895293" lon="13.35658592">
        <ele>552.00000</ele>
        <time>2024-05-10T18:37:45Z</time>
      </trkpt>
      <trkpt lat="42.95894899" lon="13.35664593">
        <ele>551.00000</ele>
        <time>2024-05-10T18:37:46Z</time>
      </trkpt>
      <trkpt lat="42.95895192" lon="13.35671592">
        <ele>550.00000</ele>
        <time>2024-05-10T18:37:47Z</time>
      </trkpt>
      <trkpt lat="42.95895695" lon="13.35681097">
        <ele>548.00000</ele>
        <time>2024-05-10T18:37:49Z</time>
      </trkpt>
      <trkpt lat="42.95896994" lon="13.35687995">
        <ele>547.00000</ele>
        <time>2024-05-10T18:37:50Z</time>
      </trkpt>
      <trkpt lat="42.95898595" lon="13.35696092">
        <ele>546.00000</ele>
        <time>2024-05-10T18:37:51Z</time>
      </trkpt>
      <trkpt lat="42.95900397" lon="13.35702395">
        <ele>544.00000</ele>
        <time>2024-05-10T18:37:52Z</time>
      </trkpt>
      <trkpt lat="42.95901294" lon="13.35706193">
        <ele>544.00000</ele>
        <time>2024-05-10T18:37:53Z</time>
      </trkpt>
      <trkpt lat="42.95901797" lon="13.35709093">
        <ele>543.00000</ele>
        <time>2024-05-10T18:37:53Z</time>
      </trkpt>
      <trkpt lat="42.95901998" lon="13.35710895">
        <ele>543.00000</ele>
        <time>2024-05-10T18:37:53Z</time>
      </trkpt>
      <trkpt lat="42.95902099" lon="13.35713493">
        <ele>543.00000</ele>
        <time>2024-05-10T18:37:54Z</time>
      </trkpt>
      <trkpt lat="42.95902392" lon="13.35716494">
        <ele>543.00000</ele>
        <time>2024-05-10T18:37:54Z</time>
      </trkpt>
      <trkpt lat="42.95902694" lon="13.35719193">
        <ele>542.00000</ele>
        <time>2024-05-10T18:37:54Z</time>
      </trkpt>
      <trkpt lat="42.95903096" lon="13.35721598">
        <ele>542.00000</ele>
        <time>2024-05-10T18:37:55Z</time>
      </trkpt>
      <trkpt lat="42.95903197" lon="13.35723996">
        <ele>542.00000</ele>
        <time>2024-05-10T18:37:55Z</time>
      </trkpt>
      <trkpt lat="42.95903197" lon="13.35726393">
        <ele>542.00000</ele>
        <time>2024-05-10T18:37:56Z</time>
      </trkpt>
      <trkpt lat="42.95903692" lon="13.35728991">
        <ele>541.00000</ele>
        <time>2024-05-10T18:37:56Z</time>
      </trkpt>
      <trkpt lat="42.95904396" lon="13.35731891">
        <ele>541.00000</ele>
        <time>2024-05-10T18:37:56Z</time>
      </trkpt>
      <trkpt lat="42.95904798" lon="13.35734792">
        <ele>541.00000</ele>
        <time>2024-05-10T18:37:57Z</time>
      </trkpt>
      <trkpt lat="42.95904899" lon="13.35737499">
        <ele>541.00000</ele>
        <time>2024-05-10T18:37:57Z</time>
      </trkpt>
      <trkpt lat="42.95904697" lon="13.35740592">
        <ele>541.00000</ele>
        <time>2024-05-10T18:37:58Z</time>
      </trkpt>
      <trkpt lat="42.95904194" lon="13.35744498">
        <ele>541.00000</ele>
        <time>2024-05-10T18:37:58Z</time>
      </trkpt>
      <trkpt lat="42.95903993" lon="13.35748094">
        <ele>541.00000</ele>
        <time>2024-05-10T18:37:59Z</time>
      </trkpt>
      <trkpt lat="42.95903499" lon="13.35752896">
        <ele>541.00000</ele>
        <time>2024-05-10T18:38:00Z</time>
      </trkpt>
      <trkpt lat="42.95902996" lon="13.35758194">
        <ele>541.00000</ele>
        <time>2024-05-10T18:38:00Z</time>
      </trkpt>
      <trkpt lat="42.95902191" lon="13.35763793">
        <ele>541.00000</ele>
        <time>2024-05-10T18:38:01Z</time>
      </trkpt>
      <trkpt lat="42.95900993" lon="13.35768495">
        <ele>542.00000</ele>
        <time>2024-05-10T18:38:02Z</time>
      </trkpt>
      <trkpt lat="42.95899492" lon="13.35772896">
        <ele>542.00000</ele>
        <time>2024-05-10T18:38:03Z</time>
      </trkpt>
      <trkpt lat="42.95898092" lon="13.35776693">
        <ele>542.00000</ele>
        <time>2024-05-10T18:38:03Z</time>
      </trkpt>
      <trkpt lat="42.95896793" lon="13.35780993">
        <ele>542.00000</ele>
        <time>2024-05-10T18:38:04Z</time>
      </trkpt>
      <trkpt lat="42.95895997" lon="13.35784999">
        <ele>542.00000</ele>
        <time>2024-05-10T18:38:04Z</time>
      </trkpt>
      <trkpt lat="42.95894798" lon="13.35788193">
        <ele>542.00000</ele>
        <time>2024-05-10T18:38:05Z</time>
      </trkpt>
      <trkpt lat="42.95894195" lon="13.35791395">
        <ele>542.00000</ele>
        <time>2024-05-10T18:38:05Z</time>
      </trkpt>
      <trkpt lat="42.95894195" lon="13.35795099">
        <ele>542.00000</ele>
        <time>2024-05-10T18:38:06Z</time>
      </trkpt>
      <trkpt lat="42.95893893" lon="13.35798896">
        <ele>542.00000</ele>
        <time>2024-05-10T18:38:07Z</time>
      </trkpt>
      <trkpt lat="42.95894094" lon="13.35802895">
        <ele>542.00000</ele>
        <time>2024-05-10T18:38:07Z</time>
      </trkpt>
      <trkpt lat="42.95894597" lon="13.35806993">
        <ele>542.00000</ele>
        <time>2024-05-10T18:38:08Z</time>
      </trkpt>
      <trkpt lat="42.95895293" lon="13.35810799">
        <ele>543.00000</ele>
        <time>2024-05-10T18:38:08Z</time>
      </trkpt>
      <trkpt lat="42.95895896" lon="13.35814495">
        <ele>543.00000</ele>
        <time>2024-05-10T18:38:09Z</time>
      </trkpt>
      <trkpt lat="42.95896793" lon="13.35818493">
        <ele>543.00000</ele>
        <time>2024-05-10T18:38:10Z</time>
      </trkpt>
      <trkpt lat="42.95897397" lon="13.35821695">
        <ele>544.00000</ele>
        <time>2024-05-10T18:38:10Z</time>
      </trkpt>
      <trkpt lat="42.95898193" lon="13.35824897">
        <ele>544.00000</ele>
        <time>2024-05-10T18:38:11Z</time>
      </trkpt>
      <trkpt lat="42.95898998" lon="13.35828099">
        <ele>544.00000</ele>
        <time>2024-05-10T18:38:11Z</time>
      </trkpt>
      <trkpt lat="42.95899794" lon="13.35831594">
        <ele>545.00000</ele>
        <time>2024-05-10T18:38:12Z</time>
      </trkpt>
      <trkpt lat="42.95900699" lon="13.35834494">
        <ele>545.00000</ele>
        <time>2024-05-10T18:38:12Z</time>
      </trkpt>
      <trkpt lat="42.95901495" lon="13.35837394">
        <ele>545.00000</ele>
        <time>2024-05-10T18:38:12Z</time>
      </trkpt>
      <trkpt lat="42.95902099" lon="13.35840395">
        <ele>546.00000</ele>
        <time>2024-05-10T18:38:13Z</time>
      </trkpt>
      <trkpt lat="42.95902996" lon="13.35843496">
        <ele>546.00000</ele>
        <time>2024-05-10T18:38:13Z</time>
      </trkpt>
      <trkpt lat="42.95903993" lon="13.35846095">
        <ele>546.00000</ele>
        <time>2024-05-10T18:38:14Z</time>
      </trkpt>
      <trkpt lat="42.95904999" lon="13.35848794">
        <ele>547.00000</ele>
        <time>2024-05-10T18:38:14Z</time>
      </trkpt>
      <trkpt lat="42.95906198" lon="13.35851292">
        <ele>547.00000</ele>
        <time>2024-05-10T18:38:15Z</time>
      </trkpt>
      <trkpt lat="42.95907195" lon="13.35853697">
        <ele>548.00000</ele>
        <time>2024-05-10T18:38:15Z</time>
      </trkpt>
      <trkpt lat="42.95907899" lon="13.35855893">
        <ele>548.00000</ele>
        <time>2024-05-10T18:38:15Z</time>
      </trkpt>
      <trkpt lat="42.95908193" lon="13.35858492">
        <ele>548.00000</ele>
        <time>2024-05-10T18:38:16Z</time>
      </trkpt>
      <trkpt lat="42.95908796" lon="13.35861392">
        <ele>549.00000</ele>
        <time>2024-05-10T18:38:16Z</time>
      </trkpt>
      <trkpt lat="42.95909299" lon="13.35863697">
        <ele>549.00000</ele>
        <time>2024-05-10T18:38:17Z</time>
      </trkpt>
      <trkpt lat="42.95909391" lon="13.35866295">
        <ele>549.00000</ele>
        <time>2024-05-10T18:38:17Z</time>
      </trkpt>
      <trkpt lat="42.95909995" lon="13.35869095">
        <ele>550.00000</ele>
        <time>2024-05-10T18:38:17Z</time>
      </trkpt>
      <trkpt lat="42.95909794" lon="13.35871894">
        <ele>550.00000</ele>
        <time>2024-05-10T18:38:18Z</time>
      </trkpt>
      <trkpt lat="42.95909894" lon="13.35874996">
        <ele>551.00000</ele>
        <time>2024-05-10T18:38:18Z</time>
      </trkpt>
      <trkpt lat="42.95909894" lon="13.35876697">
        <ele>551.00000</ele>
        <time>2024-05-10T18:38:19Z</time>
      </trkpt>
      <trkpt lat="42.95910598" lon="13.35878499">
        <ele>551.00000</ele>
        <time>2024-05-10T18:38:19Z</time>
      </trkpt>
      <trkpt lat="42.95909894" lon="13.35880293">
        <ele>551.00000</ele>
        <time>2024-05-10T18:38:19Z</time>
      </trkpt>
      <trkpt lat="42.95908595" lon="13.35881492">
        <ele>551.00000</ele>
        <time>2024-05-10T18:38:20Z</time>
      </trkpt>
      <trkpt lat="42.95906499" lon="13.35881894">
        <ele>551.00000</ele>
        <time>2024-05-10T18:38:20Z</time>
      </trkpt>
      <trkpt lat="42.95904194" lon="13.35881693">
        <ele>551.00000</ele>
        <time>2024-05-10T18:38:20Z</time>
      </trkpt>
      <trkpt lat="42.95901898" lon="13.35881592">
        <ele>551.00000</ele>
        <time>2024-05-10T18:38:21Z</time>
      </trkpt>
      <trkpt lat="42.95899492" lon="13.35881592">
        <ele>551.00000</ele>
        <time>2024-05-10T18:38:21Z</time>
      </trkpt>
      <trkpt lat="42.95897296" lon="13.35880997">
        <ele>551.00000</ele>
        <time>2024-05-10T18:38:22Z</time>
      </trkpt>
      <trkpt lat="42.95894999" lon="13.35881098">
        <ele>551.00000</ele>
        <time>2024-05-10T18:38:22Z</time>
      </trkpt>
      <trkpt lat="42.95892694" lon="13.35881995">
        <ele>551.00000</ele>
        <time>2024-05-10T18:38:23Z</time>
      </trkpt>
      <trkpt lat="42.95890297" lon="13.35883595">
        <ele>551.00000</ele>
        <time>2024-05-10T18:38:23Z</time>
      </trkpt>
      <trkpt lat="42.95887699" lon="13.35884694">
        <ele>551.00000</ele>
        <time>2024-05-10T18:38:24Z</time>
      </trkpt>
      <trkpt lat="42.95885092" lon="13.35885792">
        <ele>551.00000</ele>
        <time>2024-05-10T18:38:24Z</time>
      </trkpt>
      <trkpt lat="42.95882192" lon="13.35886395">
        <ele>552.00000</ele>
        <time>2024-05-10T18:38:25Z</time>
      </trkpt>
      <trkpt lat="42.95879292" lon="13.35887392">
        <ele>552.00000</ele>
        <time>2024-05-10T18:38:26Z</time>
      </trkpt>
      <trkpt lat="42.95876895" lon="13.35888692">
        <ele>552.00000</ele>
        <time>2024-05-10T18:38:26Z</time>
      </trkpt>
      <trkpt lat="42.95874497" lon="13.35890091">
        <ele>552.00000</ele>
        <time>2024-05-10T18:38:27Z</time>
      </trkpt>
      <trkpt lat="42.95872092" lon="13.35891692">
        <ele>552.00000</ele>
        <time>2024-05-10T18:38:27Z</time>
      </trkpt>
      <trkpt lat="42.95869996" lon="13.35893193">
        <ele>552.00000</ele>
        <time>2024-05-10T18:38:28Z</time>
      </trkpt>
      <trkpt lat="42.95868094" lon="13.35894299">
        <ele>552.00000</ele>
        <time>2024-05-10T18:38:28Z</time>
      </trkpt>
      <trkpt lat="42.95866493" lon="13.35895791">
        <ele>552.00000</ele>
        <time>2024-05-10T18:38:28Z</time>
      </trkpt>
      <trkpt lat="42.95864699" lon="13.35898096">
        <ele>552.00000</ele>
        <time>2024-05-10T18:38:29Z</time>
      </trkpt>
      <trkpt lat="42.95862796" lon="13.35900594">
        <ele>552.00000</ele>
        <time>2024-05-10T18:38:29Z</time>
      </trkpt>
      <trkpt lat="42.95861396" lon="13.35902698">
        <ele>552.00000</ele>
        <time>2024-05-10T18:38:30Z</time>
      </trkpt>
      <trkpt lat="42.95859594" lon="13.35904793">
        <ele>553.00000</ele>
        <time>2024-05-10T18:38:30Z</time>
      </trkpt>
      <trkpt lat="42.95857792" lon="13.35906897">
        <ele>553.00000</ele>
        <time>2024-05-10T18:38:31Z</time>
      </trkpt>
      <trkpt lat="42.95855998" lon="13.35909093">
        <ele>553.00000</ele>
        <time>2024-05-10T18:38:31Z</time>
      </trkpt>
      <trkpt lat="42.95854498" lon="13.35911298">
        <ele>553.00000</ele>
        <time>2024-05-10T18:38:32Z</time>
      </trkpt>
      <trkpt lat="42.95853593" lon="13.35914097">
        <ele>554.00000</ele>
        <time>2024-05-10T18:38:32Z</time>
      </trkpt>
      <trkpt lat="42.95852696" lon="13.35917391">
        <ele>554.00000</ele>
        <time>2024-05-10T18:38:33Z</time>
      </trkpt>
      <trkpt lat="42.95851397" lon="13.35920794">
        <ele>554.00000</ele>
        <time>2024-05-10T18:38:33Z</time>
      </trkpt>
      <trkpt lat="42.95849997" lon="13.35923493">
        <ele>554.00000</ele>
        <time>2024-05-10T18:38:34Z</time>
      </trkpt>
      <trkpt lat="42.95848396" lon="13.35926494">
        <ele>554.00000</ele>
        <time>2024-05-10T18:38:34Z</time>
      </trkpt>
      <trkpt lat="42.95846393" lon="13.35930299">
        <ele>554.00000</ele>
        <time>2024-05-10T18:38:35Z</time>
      </trkpt>
      <trkpt lat="42.95844499" lon="13.35934096">
        <ele>554.00000</ele>
        <time>2024-05-10T18:38:36Z</time>
      </trkpt>
      <trkpt lat="42.95842093" lon="13.35938195">
        <ele>554.00000</ele>
        <time>2024-05-10T18:38:36Z</time>
      </trkpt>
      <trkpt lat="42.95839394" lon="13.35942797">
        <ele>555.00000</ele>
        <time>2024-05-10T18:38:37Z</time>
      </trkpt>
      <trkpt lat="42.95836695" lon="13.35947893">
        <ele>554.00000</ele>
        <time>2024-05-10T18:38:38Z</time>
      </trkpt>
      <trkpt lat="42.95834197" lon="13.35953098">
        <ele>554.00000</ele>
        <time>2024-05-10T18:38:39Z</time>
      </trkpt>
      <trkpt lat="42.95831398" lon="13.35957893">
        <ele>554.00000</ele>
        <time>2024-05-10T18:38:40Z</time>
      </trkpt>
      <trkpt lat="42.95828598" lon="13.35962696">
        <ele>554.00000</ele>
        <time>2024-05-10T18:38:41Z</time>
      </trkpt>
      <trkpt lat="42.95825991" lon="13.35967599">
        <ele>554.00000</ele>
        <time>2024-05-10T18:38:42Z</time>
      </trkpt>
      <trkpt lat="42.95823795" lon="13.35972293">
        <ele>554.00000</ele>
        <time>2024-05-10T18:38:43Z</time>
      </trkpt>
      <trkpt lat="42.95821297" lon="13.35976894">
        <ele>554.00000</ele>
        <time>2024-05-10T18:38:43Z</time>
      </trkpt>
      <trkpt lat="42.95818892" lon="13.35980599">
        <ele>555.00000</ele>
        <time>2024-05-10T18:38:44Z</time>
      </trkpt>
      <trkpt lat="42.95816092" lon="13.35984597">
        <ele>555.00000</ele>
        <time>2024-05-10T18:38:45Z</time>
      </trkpt>
      <trkpt lat="42.95813192" lon="13.35988596">
        <ele>555.00000</ele>
        <time>2024-05-10T18:38:46Z</time>
      </trkpt>
      <trkpt lat="42.95810594" lon="13.35991797">
        <ele>556.00000</ele>
        <time>2024-05-10T18:38:46Z</time>
      </trkpt>
      <trkpt lat="42.95808398" lon="13.35994999">
        <ele>556.00000</ele>
        <time>2024-05-10T18:38:47Z</time>
      </trkpt>
      <trkpt lat="42.95806394" lon="13.35997698">
        <ele>556.00000</ele>
        <time>2024-05-10T18:38:48Z</time>
      </trkpt>
      <trkpt lat="42.95804198" lon="13.36000297">
        <ele>557.00000</ele>
        <time>2024-05-10T18:38:48Z</time>
      </trkpt>
      <trkpt lat="42.95801793" lon="13.36002996">
        <ele>557.00000</ele>
        <time>2024-05-10T18:38:49Z</time>
      </trkpt>
      <trkpt lat="42.95798691" lon="13.36005292">
        <ele>558.00000</ele>
        <time>2024-05-10T18:38:50Z</time>
      </trkpt>
      <trkpt lat="42.95795498" lon="13.36007899">
        <ele>559.00000</ele>
        <time>2024-05-10T18:38:50Z</time>
      </trkpt>
      <trkpt lat="42.95792698" lon="13.36010699">
        <ele>560.00000</ele>
        <time>2024-05-10T18:38:51Z</time>
      </trkpt>
      <trkpt lat="42.95789597" lon="13.36013498">
        <ele>560.00000</ele>
        <time>2024-05-10T18:38:52Z</time>
      </trkpt>
      <trkpt lat="42.95786898" lon="13.36015795">
        <ele>561.00000</ele>
        <time>2024-05-10T18:38:52Z</time>
      </trkpt>
      <trkpt lat="42.95783998" lon="13.36018091">
        <ele>562.00000</ele>
        <time>2024-05-10T18:38:53Z</time>
      </trkpt>
      <trkpt lat="42.95780997" lon="13.36020095">
        <ele>562.00000</ele>
        <time>2024-05-10T18:38:54Z</time>
      </trkpt>
      <trkpt lat="42.95778298" lon="13.36021997">
        <ele>563.00000</ele>
        <time>2024-05-10T18:38:54Z</time>
      </trkpt>
      <trkpt lat="42.95775691" lon="13.36024093">
        <ele>563.00000</ele>
        <time>2024-05-10T18:38:55Z</time>
      </trkpt>
      <trkpt lat="42.95773093" lon="13.36026197">
        <ele>564.00000</ele>
        <time>2024-05-10T18:38:56Z</time>
      </trkpt>
      <trkpt lat="42.95770796" lon="13.36028393">
        <ele>564.00000</ele>
        <time>2024-05-10T18:38:56Z</time>
      </trkpt>
      <trkpt lat="42.95768491" lon="13.36030094">
        <ele>564.00000</ele>
        <time>2024-05-10T18:38:57Z</time>
      </trkpt>
      <trkpt lat="42.95765893" lon="13.36032098">
        <ele>564.00000</ele>
        <time>2024-05-10T18:38:57Z</time>
      </trkpt>
      <trkpt lat="42.95763395" lon="13.36033992">
        <ele>564.00000</ele>
        <time>2024-05-10T18:38:58Z</time>
      </trkpt>
      <trkpt lat="42.95761199" lon="13.36034897">
        <ele>565.00000</ele>
        <time>2024-05-10T18:38:58Z</time>
      </trkpt>
      <trkpt lat="42.95758894" lon="13.36036096">
        <ele>565.00000</ele>
        <time>2024-05-10T18:38:59Z</time>
      </trkpt>
      <trkpt lat="42.95756899" lon="13.36037496">
        <ele>565.00000</ele>
        <time>2024-05-10T18:38:59Z</time>
      </trkpt>
      <trkpt lat="42.95754695" lon="13.36038996">
        <ele>565.00000</ele>
        <time>2024-05-10T18:39:00Z</time>
      </trkpt>
      <trkpt lat="42.95752096" lon="13.36040295">
        <ele>565.00000</ele>
        <time>2024-05-10T18:39:00Z</time>
      </trkpt>
      <trkpt lat="42.95749397" lon="13.36041796">
        <ele>565.00000</ele>
        <time>2024-05-10T18:39:01Z</time>
      </trkpt>
      <trkpt lat="42.95746296" lon="13.36042198">
        <ele>565.00000</ele>
        <time>2024-05-10T18:39:01Z</time>
      </trkpt>
      <trkpt lat="42.95742893" lon="13.36042894">
        <ele>565.00000</ele>
        <time>2024-05-10T18:39:02Z</time>
      </trkpt>
      <trkpt lat="42.95739892" lon="13.36042894">
        <ele>565.00000</ele>
        <time>2024-05-10T18:39:03Z</time>
      </trkpt>
      <trkpt lat="42.95736992" lon="13.36041796">
        <ele>565.00000</ele>
        <time>2024-05-10T18:39:03Z</time>
      </trkpt>
      <trkpt lat="42.95734595" lon="13.36040798">
        <ele>565.00000</ele>
        <time>2024-05-10T18:39:04Z</time>
      </trkpt>
      <trkpt lat="42.95731896" lon="13.36039499">
        <ele>566.00000</ele>
        <time>2024-05-10T18:39:04Z</time>
      </trkpt>
      <trkpt lat="42.95729197" lon="13.36038493">
        <ele>566.00000</ele>
        <time>2024-05-10T18:39:05Z</time>
      </trkpt>
      <trkpt lat="42.95726699" lon="13.36037496">
        <ele>566.00000</ele>
        <time>2024-05-10T18:39:05Z</time>
      </trkpt>
      <trkpt lat="42.95724595" lon="13.36035895">
        <ele>566.00000</ele>
        <time>2024-05-10T18:39:06Z</time>
      </trkpt>
      <trkpt lat="42.95722793" lon="13.36034093">
        <ele>566.00000</ele>
        <time>2024-05-10T18:39:06Z</time>
      </trkpt>
      <trkpt lat="42.95721595" lon="13.36032793">
        <ele>567.00000</ele>
        <time>2024-05-10T18:39:07Z</time>
      </trkpt>
      <trkpt lat="42.95720295" lon="13.36031494">
        <ele>567.00000</ele>
        <time>2024-05-10T18:39:07Z</time>
      </trkpt>
      <trkpt lat="42.95718594" lon="13.36029994">
        <ele>567.00000</ele>
        <time>2024-05-10T18:39:07Z</time>
      </trkpt>
      <trkpt lat="42.95717295" lon="13.36027898">
        <ele>567.00000</ele>
        <time>2024-05-10T18:39:08Z</time>
      </trkpt>
      <trkpt lat="42.95716599" lon="13.36025392">
        <ele>567.00000</ele>
        <time>2024-05-10T18:39:08Z</time>
      </trkpt>
      <trkpt lat="42.95716096" lon="13.36022593">
        <ele>567.00000</ele>
        <time>2024-05-10T18:39:09Z</time>
      </trkpt>
      <trkpt lat="42.95715895" lon="13.36019894">
        <ele>568.00000</ele>
        <time>2024-05-10T18:39:09Z</time>
      </trkpt>
      <trkpt lat="42.95715593" lon="13.36017295">
        <ele>568.00000</ele>
        <time>2024-05-10T18:39:09Z</time>
      </trkpt>
      <trkpt lat="42.95715593" lon="13.36014797">
        <ele>568.00000</ele>
        <time>2024-05-10T18:39:10Z</time>
      </trkpt>
      <trkpt lat="42.95715996" lon="13.36012593">
        <ele>569.00000</ele>
        <time>2024-05-10T18:39:10Z</time>
      </trkpt>
      <trkpt lat="42.95716599" lon="13.36010296">
        <ele>569.00000</ele>
        <time>2024-05-10T18:39:11Z</time>
      </trkpt>
      <trkpt lat="42.95716792" lon="13.36007597">
        <ele>569.00000</ele>
        <time>2024-05-10T18:39:11Z</time>
      </trkpt>
      <trkpt lat="42.95717194" lon="13.36005292">
        <ele>570.00000</ele>
        <time>2024-05-10T18:39:11Z</time>
      </trkpt>
      <trkpt lat="42.95717094" lon="13.36002593">
        <ele>570.00000</ele>
        <time>2024-05-10T18:39:12Z</time>
      </trkpt>
      <trkpt lat="42.95717194" lon="13.36000096">
        <ele>570.00000</ele>
        <time>2024-05-10T18:39:12Z</time>
      </trkpt>
      <trkpt lat="42.95717798" lon="13.35997899">
        <ele>570.00000</ele>
        <time>2024-05-10T18:39:12Z</time>
      </trkpt>
      <trkpt lat="42.95717898" lon="13.35995393">
        <ele>571.00000</ele>
        <time>2024-05-10T18:39:13Z</time>
      </trkpt>
      <trkpt lat="42.95718192" lon="13.35992694">
        <ele>571.00000</ele>
        <time>2024-05-10T18:39:13Z</time>
      </trkpt>
      <trkpt lat="42.95718493" lon="13.35990096">
        <ele>571.00000</ele>
        <time>2024-05-10T18:39:14Z</time>
      </trkpt>
      <trkpt lat="42.95718493" lon="13.35987598">
        <ele>571.00000</ele>
        <time>2024-05-10T18:39:14Z</time>
      </trkpt>
      <trkpt lat="42.95718594" lon="13.35985092">
        <ele>571.00000</ele>
        <time>2024-05-10T18:39:14Z</time>
      </trkpt>
      <trkpt lat="42.95718393" lon="13.35982996">
        <ele>571.00000</ele>
        <time>2024-05-10T18:39:15Z</time>
      </trkpt>
      <trkpt lat="42.95718292" lon="13.35980599">
        <ele>571.00000</ele>
        <time>2024-05-10T18:39:15Z</time>
      </trkpt>
      <trkpt lat="42.95717999" lon="13.35978194">
        <ele>571.00000</ele>
        <time>2024-05-10T18:39:15Z</time>
      </trkpt>
      <trkpt lat="42.95717597" lon="13.35975294">
        <ele>572.00000</ele>
        <time>2024-05-10T18:39:16Z</time>
      </trkpt>
      <trkpt lat="42.95717597" lon="13.35972796">
        <ele>572.00000</ele>
        <time>2024-05-10T18:39:16Z</time>
      </trkpt>
      <trkpt lat="42.95718099" lon="13.35970197">
        <ele>572.00000</ele>
        <time>2024-05-10T18:39:16Z</time>
      </trkpt>
      <trkpt lat="42.95718292" lon="13.35967398">
        <ele>572.00000</ele>
        <time>2024-05-10T18:39:17Z</time>
      </trkpt>
      <trkpt lat="42.95718393" lon="13.35964498">
        <ele>572.00000</ele>
        <time>2024-05-10T18:39:17Z</time>
      </trkpt>
      <trkpt lat="42.95718594" lon="13.35961195">
        <ele>573.00000</ele>
        <time>2024-05-10T18:39:18Z</time>
      </trkpt>
      <trkpt lat="42.95718795" lon="13.35958697">
        <ele>573.00000</ele>
        <time>2024-05-10T18:39:18Z</time>
      </trkpt>
      <trkpt lat="42.95719097" lon="13.35955898">
        <ele>573.00000</ele>
        <time>2024-05-10T18:39:19Z</time>
      </trkpt>
      <trkpt lat="42.95719197" lon="13.35952897">
        <ele>573.00000</ele>
        <time>2024-05-10T18:39:19Z</time>
      </trkpt>
      <trkpt lat="42.95718695" lon="13.35949896">
        <ele>574.00000</ele>
        <time>2024-05-10T18:39:19Z</time>
      </trkpt>
      <trkpt lat="42.95717798" lon="13.35947298">
        <ele>574.00000</ele>
        <time>2024-05-10T18:39:20Z</time>
      </trkpt>
      <trkpt lat="42.95717194" lon="13.35944792">
        <ele>574.00000</ele>
        <time>2024-05-10T18:39:20Z</time>
      </trkpt>
      <trkpt lat="42.95716599" lon="13.35941699">
        <ele>575.00000</ele>
        <time>2024-05-10T18:39:21Z</time>
      </trkpt>
      <trkpt lat="42.95716197" lon="13.35938296">
        <ele>575.00000</ele>
        <time>2024-05-10T18:39:21Z</time>
      </trkpt>
      <trkpt lat="42.95715694" lon="13.35935295">
        <ele>575.00000</ele>
        <time>2024-05-10T18:39:22Z</time>
      </trkpt>
      <trkpt lat="42.95715593" lon="13.35932496">
        <ele>575.00000</ele>
        <time>2024-05-10T18:39:22Z</time>
      </trkpt>
      <trkpt lat="42.95715694" lon="13.35929495">
        <ele>575.00000</ele>
        <time>2024-05-10T18:39:23Z</time>
      </trkpt>
      <trkpt lat="42.95715794" lon="13.35927098">
        <ele>576.00000</ele>
        <time>2024-05-10T18:39:23Z</time>
      </trkpt>
      <trkpt lat="42.95715392" lon="13.35924793">
        <ele>576.00000</ele>
        <time>2024-05-10T18:39:23Z</time>
      </trkpt>
      <trkpt lat="42.95715199" lon="13.35921892">
        <ele>576.00000</ele>
        <time>2024-05-10T18:39:24Z</time>
      </trkpt>
      <trkpt lat="42.95714495" lon="13.35919193">
        <ele>576.00000</ele>
        <time>2024-05-10T18:39:24Z</time>
      </trkpt>
      <trkpt lat="42.95714193" lon="13.35917199">
        <ele>576.00000</ele>
        <time>2024-05-10T18:39:24Z</time>
      </trkpt>
      <trkpt lat="42.95713791" lon="13.35913997">
        <ele>577.00000</ele>
        <time>2024-05-10T18:39:25Z</time>
      </trkpt>
      <trkpt lat="42.95713196" lon="13.35911298">
        <ele>577.00000</ele>
        <time>2024-05-10T18:39:25Z</time>
      </trkpt>
      <trkpt lat="42.95712894" lon="13.35907895">
        <ele>577.00000</ele>
        <time>2024-05-10T18:39:26Z</time>
      </trkpt>
      <trkpt lat="42.95712299" lon="13.35904894">
        <ele>577.00000</ele>
        <time>2024-05-10T18:39:26Z</time>
      </trkpt>
      <trkpt lat="42.95711394" lon="13.35902597">
        <ele>578.00000</ele>
        <time>2024-05-10T18:39:27Z</time>
      </trkpt>
      <trkpt lat="42.95710698" lon="13.35900996">
        <ele>578.00000</ele>
        <time>2024-05-10T18:39:27Z</time>
      </trkpt>
      <trkpt lat="42.95710497" lon="13.35898398">
        <ele>578.00000</ele>
        <time>2024-05-10T18:39:27Z</time>
      </trkpt>
      <trkpt lat="42.95710296" lon="13.35896093">
        <ele>578.00000</ele>
        <time>2024-05-10T18:39:28Z</time>
      </trkpt>
      <trkpt lat="42.95709793" lon="13.35893897">
        <ele>578.00000</ele>
        <time>2024-05-10T18:39:28Z</time>
      </trkpt>
      <trkpt lat="42.95709592" lon="13.35891491">
        <ele>579.00000</ele>
        <time>2024-05-10T18:39:28Z</time>
      </trkpt>
      <trkpt lat="42.95709692" lon="13.35888792">
        <ele>579.00000</ele>
        <time>2024-05-10T18:39:29Z</time>
      </trkpt>
      <trkpt lat="42.95709592" lon="13.35885699">
        <ele>579.00000</ele>
        <time>2024-05-10T18:39:29Z</time>
      </trkpt>
      <trkpt lat="42.95709692" lon="13.35882799">
        <ele>580.00000</ele>
        <time>2024-05-10T18:39:30Z</time>
      </trkpt>
      <trkpt lat="42.95709491" lon="13.35879798">
        <ele>580.00000</ele>
        <time>2024-05-10T18:39:30Z</time>
      </trkpt>
      <trkpt lat="42.95709198" lon="13.35876798">
        <ele>581.00000</ele>
        <time>2024-05-10T18:39:30Z</time>
      </trkpt>
      <trkpt lat="42.95708594" lon="13.35874493">
        <ele>581.00000</ele>
        <time>2024-05-10T18:39:31Z</time>
      </trkpt>
      <trkpt lat="42.95707999" lon="13.35872791">
        <ele>581.00000</ele>
        <time>2024-05-10T18:39:31Z</time>
      </trkpt>
      <trkpt lat="42.95707396" lon="13.35870997">
        <ele>582.00000</ele>
        <time>2024-05-10T18:39:31Z</time>
      </trkpt>
      <trkpt lat="42.95707195" lon="13.35869095">
        <ele>582.00000</ele>
        <time>2024-05-10T18:39:32Z</time>
      </trkpt>
      <trkpt lat="42.95706893" lon="13.35867092">
        <ele>582.00000</ele>
        <time>2024-05-10T18:39:32Z</time>
      </trkpt>
      <trkpt lat="42.95706499" lon="13.35864795">
        <ele>583.00000</ele>
        <time>2024-05-10T18:39:32Z</time>
      </trkpt>
      <trkpt lat="42.95706499" lon="13.35862498">
        <ele>583.00000</ele>
        <time>2024-05-10T18:39:33Z</time>
      </trkpt>
      <trkpt lat="42.95705795" lon="13.35860495">
        <ele>583.00000</ele>
        <time>2024-05-10T18:39:33Z</time>
      </trkpt>
      <trkpt lat="42.95704898" lon="13.35858399">
        <ele>584.00000</ele>
        <time>2024-05-10T18:39:33Z</time>
      </trkpt>
      <trkpt lat="42.95703993" lon="13.35856396">
        <ele>584.00000</ele>
        <time>2024-05-10T18:39:34Z</time>
      </trkpt>
      <trkpt lat="42.95702693" lon="13.35854292">
        <ele>584.00000</ele>
        <time>2024-05-10T18:39:34Z</time>
      </trkpt>
      <trkpt lat="42.95701998" lon="13.35852297">
        <ele>584.00000</ele>
        <time>2024-05-10T18:39:34Z</time>
      </trkpt>
      <trkpt lat="42.95701193" lon="13.35850998">
        <ele>584.00000</ele>
        <time>2024-05-10T18:39:35Z</time>
      </trkpt>
      <trkpt lat="42.95700497" lon="13.35849397">
        <ele>585.00000</ele>
        <time>2024-05-10T18:39:35Z</time>
      </trkpt>
      <trkpt lat="42.95699399" lon="13.35847897">
        <ele>585.00000</ele>
        <time>2024-05-10T18:39:35Z</time>
      </trkpt>
      <trkpt lat="42.95698092" lon="13.35846698">
        <ele>585.00000</ele>
        <time>2024-05-10T18:39:36Z</time>
      </trkpt>
      <trkpt lat="42.95696793" lon="13.35845491">
        <ele>585.00000</ele>
        <time>2024-05-10T18:39:36Z</time>
      </trkpt>
      <trkpt lat="42.95695695" lon="13.35844092">
        <ele>585.00000</ele>
        <time>2024-05-10T18:39:36Z</time>
      </trkpt>
      <trkpt lat="42.95694798" lon="13.35842197">
        <ele>585.00000</ele>
        <time>2024-05-10T18:39:37Z</time>
      </trkpt>
      <trkpt lat="42.95693599" lon="13.35840295">
        <ele>586.00000</ele>
        <time>2024-05-10T18:39:37Z</time>
      </trkpt>
      <trkpt lat="42.95692493" lon="13.35839498">
        <ele>586.00000</ele>
        <time>2024-05-10T18:39:37Z</time>
      </trkpt>
      <trkpt lat="42.95690892" lon="13.35838794">
        <ele>586.00000</ele>
        <time>2024-05-10T18:39:37Z</time>
      </trkpt>
      <trkpt lat="42.95689794" lon="13.35837897">
        <ele>587.00000</ele>
        <time>2024-05-10T18:39:38Z</time>
      </trkpt>
      <trkpt lat="42.95688796" lon="13.35836296">
        <ele>587.00000</ele>
        <time>2024-05-10T18:39:38Z</time>
      </trkpt>
      <trkpt lat="42.95687397" lon="13.35835793">
        <ele>587.00000</ele>
        <time>2024-05-10T18:39:38Z</time>
      </trkpt>
      <trkpt lat="42.95686097" lon="13.35835391">
        <ele>588.00000</ele>
        <time>2024-05-10T18:39:39Z</time>
      </trkpt>
      <trkpt lat="42.95684597" lon="13.35834494">
        <ele>588.00000</ele>
        <time>2024-05-10T18:39:39Z</time>
      </trkpt>
      <trkpt lat="42.95683197" lon="13.35832994">
        <ele>589.00000</ele>
        <time>2024-05-10T18:39:39Z</time>
      </trkpt>
      <trkpt lat="42.95681596" lon="13.35831594">
        <ele>589.00000</ele>
        <time>2024-05-10T18:39:40Z</time>
      </trkpt>
      <trkpt lat="42.95679995" lon="13.35829993">
        <ele>590.00000</ele>
        <time>2024-05-10T18:39:40Z</time>
      </trkpt>
      <trkpt lat="42.95678998" lon="13.35828493">
        <ele>590.00000</ele>
        <time>2024-05-10T18:39:40Z</time>
      </trkpt>
      <trkpt lat="42.95677799" lon="13.35827194">
        <ele>591.00000</ele>
        <time>2024-05-10T18:39:41Z</time>
      </trkpt>
      <trkpt lat="42.95676693" lon="13.35825894">
        <ele>591.00000</ele>
        <time>2024-05-10T18:39:41Z</time>
      </trkpt>
      <trkpt lat="42.95675595" lon="13.35824394">
        <ele>592.00000</ele>
        <time>2024-05-10T18:39:41Z</time>
      </trkpt>
      <trkpt lat="42.95673893" lon="13.35823095">
        <ele>592.00000</ele>
        <time>2024-05-10T18:39:42Z</time>
      </trkpt>
      <trkpt lat="42.95672393" lon="13.35822097">
        <ele>593.00000</ele>
        <time>2024-05-10T18:39:42Z</time>
      </trkpt>
      <trkpt lat="42.95670993" lon="13.35821293">
        <ele>593.00000</ele>
        <time>2024-05-10T18:39:42Z</time>
      </trkpt>
      <trkpt lat="42.95669593" lon="13.35821293">
        <ele>594.00000</ele>
        <time>2024-05-10T18:39:43Z</time>
      </trkpt>
      <trkpt lat="42.95668294" lon="13.35820798">
        <ele>594.00000</ele>
        <time>2024-05-10T18:39:43Z</time>
      </trkpt>
      <trkpt lat="42.95667096" lon="13.35819591">
        <ele>594.00000</ele>
        <time>2024-05-10T18:39:43Z</time>
      </trkpt>
      <trkpt lat="42.95666391" lon="13.35817898">
        <ele>595.00000</ele>
        <time>2024-05-10T18:39:43Z</time>
      </trkpt>
      <trkpt lat="42.95665193" lon="13.35816297">
        <ele>595.00000</ele>
        <time>2024-05-10T18:39:44Z</time>
      </trkpt>
      <trkpt lat="42.95663894" lon="13.35815199">
        <ele>596.00000</ele>
        <time>2024-05-10T18:39:44Z</time>
      </trkpt>
      <trkpt lat="42.95662393" lon="13.35814093">
        <ele>596.00000</ele>
        <time>2024-05-10T18:39:44Z</time>
      </trkpt>
      <trkpt lat="42.95661094" lon="13.35812894">
        <ele>597.00000</ele>
        <time>2024-05-10T18:39:45Z</time>
      </trkpt>
      <trkpt lat="42.95659795" lon="13.35811997">
        <ele>597.00000</ele>
        <time>2024-05-10T18:39:45Z</time>
      </trkpt>
      <trkpt lat="42.95658395" lon="13.35810899">
        <ele>598.00000</ele>
        <time>2024-05-10T18:39:45Z</time>
      </trkpt>
      <trkpt lat="42.95656995" lon="13.35809499">
        <ele>598.00000</ele>
        <time>2024-05-10T18:39:46Z</time>
      </trkpt>
      <trkpt lat="42.95655897" lon="13.35808091">
        <ele>599.00000</ele>
        <time>2024-05-10T18:39:46Z</time>
      </trkpt>
      <trkpt lat="42.95654699" lon="13.35806298">
        <ele>599.00000</ele>
        <time>2024-05-10T18:39:46Z</time>
      </trkpt>
      <trkpt lat="42.95653198" lon="13.35804797">
        <ele>599.00000</ele>
        <time>2024-05-10T18:39:47Z</time>
      </trkpt>
      <trkpt lat="42.95651991" lon="13.35803397">
        <ele>600.00000</ele>
        <time>2024-05-10T18:39:47Z</time>
      </trkpt>
      <trkpt lat="42.95650399" lon="13.35801897">
        <ele>600.00000</ele>
        <time>2024-05-10T18:39:47Z</time>
      </trkpt>
      <trkpt lat="42.95648898" lon="13.35801294">
        <ele>601.00000</ele>
        <time>2024-05-10T18:39:48Z</time>
      </trkpt>
      <trkpt lat="42.95647893" lon="13.35799994">
        <ele>601.00000</ele>
        <time>2024-05-10T18:39:48Z</time>
      </trkpt>
      <trkpt lat="42.95646099" lon="13.35798192">
        <ele>602.00000</ele>
        <time>2024-05-10T18:39:48Z</time>
      </trkpt>
      <trkpt lat="42.95644791" lon="13.35796499">
        <ele>602.00000</ele>
        <time>2024-05-10T18:39:49Z</time>
      </trkpt>
      <trkpt lat="42.95643392" lon="13.35794697">
        <ele>603.00000</ele>
        <time>2024-05-10T18:39:49Z</time>
      </trkpt>
      <trkpt lat="42.95641992" lon="13.35792291">
        <ele>603.00000</ele>
        <time>2024-05-10T18:39:50Z</time>
      </trkpt>
      <trkpt lat="42.95640592" lon="13.35790498">
        <ele>604.00000</ele>
        <time>2024-05-10T18:39:50Z</time>
      </trkpt>
      <trkpt lat="42.95639595" lon="13.35789794">
        <ele>604.00000</ele>
        <time>2024-05-10T18:39:50Z</time>
      </trkpt>
      <trkpt lat="42.95638698" lon="13.35788394">
        <ele>604.00000</ele>
        <time>2024-05-10T18:39:51Z</time>
      </trkpt>
      <trkpt lat="42.95637499" lon="13.35786994">
        <ele>604.00000</ele>
        <time>2024-05-10T18:39:51Z</time>
      </trkpt>
      <trkpt lat="42.95636099" lon="13.35785494">
        <ele>604.00000</ele>
        <time>2024-05-10T18:39:51Z</time>
      </trkpt>
      <trkpt lat="42.95634398" lon="13.35784798">
        <ele>604.00000</ele>
        <time>2024-05-10T18:39:52Z</time>
      </trkpt>
      <trkpt lat="42.95632998" lon="13.35783692">
        <ele>604.00000</ele>
        <time>2024-05-10T18:39:52Z</time>
      </trkpt>
      <trkpt lat="42.95631699" lon="13.35782795">
        <ele>604.00000</ele>
        <time>2024-05-10T18:39:52Z</time>
      </trkpt>
      <trkpt lat="42.95630391" lon="13.35781898">
        <ele>604.00000</ele>
        <time>2024-05-10T18:39:52Z</time>
      </trkpt>
      <trkpt lat="42.95629193" lon="13.35780791">
        <ele>604.00000</ele>
        <time>2024-05-10T18:39:53Z</time>
      </trkpt>
      <trkpt lat="42.95627793" lon="13.35780397">
        <ele>604.00000</ele>
        <time>2024-05-10T18:39:53Z</time>
      </trkpt>
      <trkpt lat="42.95626494" lon="13.35779693">
        <ele>604.00000</ele>
        <time>2024-05-10T18:39:53Z</time>
      </trkpt>
      <trkpt lat="42.95624893" lon="13.35778797">
        <ele>605.00000</ele>
        <time>2024-05-10T18:39:54Z</time>
      </trkpt>
      <trkpt lat="42.95623795" lon="13.35777598">
        <ele>605.00000</ele>
        <time>2024-05-10T18:39:54Z</time>
      </trkpt>
      <trkpt lat="42.95621993" lon="13.35776693">
        <ele>605.00000</ele>
        <time>2024-05-10T18:39:54Z</time>
      </trkpt>
      <trkpt lat="42.95620392" lon="13.35776399">
        <ele>604.00000</ele>
        <time>2024-05-10T18:39:55Z</time>
      </trkpt>
      <trkpt lat="42.95618397" lon="13.35776299">
        <ele>604.00000</ele>
        <time>2024-05-10T18:39:55Z</time>
      </trkpt>
      <trkpt lat="42.95616695" lon="13.35776098">
        <ele>604.00000</ele>
        <time>2024-05-10T18:39:55Z</time>
      </trkpt>
      <trkpt lat="42.95614994" lon="13.35775896">
        <ele>604.00000</ele>
        <time>2024-05-10T18:39:56Z</time>
      </trkpt>
      <trkpt lat="42.95613393" lon="13.35775595">
        <ele>604.00000</ele>
        <time>2024-05-10T18:39:56Z</time>
      </trkpt>
      <trkpt lat="42.95611498" lon="13.35775393">
        <ele>604.00000</ele>
        <time>2024-05-10T18:39:56Z</time>
      </trkpt>
      <trkpt lat="42.95609797" lon="13.35774899">
        <ele>604.00000</ele>
        <time>2024-05-10T18:39:57Z</time>
      </trkpt>
      <trkpt lat="42.95607693" lon="13.35774698">
        <ele>604.00000</ele>
        <time>2024-05-10T18:39:57Z</time>
      </trkpt>
      <trkpt lat="42.95605598" lon="13.35774396">
        <ele>604.00000</ele>
        <time>2024-05-10T18:39:58Z</time>
      </trkpt>
      <trkpt lat="42.95603695" lon="13.35773994">
        <ele>604.00000</ele>
        <time>2024-05-10T18:39:58Z</time>
      </trkpt>
      <trkpt lat="42.95601599" lon="13.35773591">
        <ele>604.00000</ele>
        <time>2024-05-10T18:39:58Z</time>
      </trkpt>
      <trkpt lat="42.95599998" lon="13.35773298">
        <ele>603.00000</ele>
        <time>2024-05-10T18:39:59Z</time>
      </trkpt>
      <trkpt lat="42.95598397" lon="13.35772393">
        <ele>603.00000</ele>
        <time>2024-05-10T18:39:59Z</time>
      </trkpt>
      <trkpt lat="42.95596595" lon="13.35771898">
        <ele>603.00000</ele>
        <time>2024-05-10T18:39:59Z</time>
      </trkpt>
      <trkpt lat="42.95594894" lon="13.35771496">
        <ele>603.00000</ele>
        <time>2024-05-10T18:40:00Z</time>
      </trkpt>
      <trkpt lat="42.95592899" lon="13.35771094">
        <ele>603.00000</ele>
        <time>2024-05-10T18:40:00Z</time>
      </trkpt>
      <trkpt lat="42.95590996" lon="13.35770792">
        <ele>603.00000</ele>
        <time>2024-05-10T18:40:01Z</time>
      </trkpt>
      <trkpt lat="42.95589395" lon="13.35770398">
        <ele>602.00000</ele>
        <time>2024-05-10T18:40:01Z</time>
      </trkpt>
      <trkpt lat="42.95587794" lon="13.35770398">
        <ele>602.00000</ele>
        <time>2024-05-10T18:40:01Z</time>
      </trkpt>
      <trkpt lat="42.95586294" lon="13.35770197">
        <ele>602.00000</ele>
        <time>2024-05-10T18:40:02Z</time>
      </trkpt>
      <trkpt lat="42.95584693" lon="13.35769694">
        <ele>602.00000</ele>
        <time>2024-05-10T18:40:02Z</time>
      </trkpt>
      <trkpt lat="42.95582899" lon="13.35769099">
        <ele>602.00000</ele>
        <time>2024-05-10T18:40:02Z</time>
      </trkpt>
      <trkpt lat="42.95581198" lon="13.35768495">
        <ele>602.00000</ele>
        <time>2024-05-10T18:40:03Z</time>
      </trkpt>
      <trkpt lat="42.95579396" lon="13.35767892">
        <ele>602.00000</ele>
        <time>2024-05-10T18:40:03Z</time>
      </trkpt>
      <trkpt lat="42.95577694" lon="13.35766995">
        <ele>602.00000</ele>
        <time>2024-05-10T18:40:03Z</time>
      </trkpt>
      <trkpt lat="42.95575892" lon="13.35766199">
        <ele>602.00000</ele>
        <time>2024-05-10T18:40:04Z</time>
      </trkpt>
      <trkpt lat="42.95574098" lon="13.35765494">
        <ele>602.00000</ele>
        <time>2024-05-10T18:40:04Z</time>
      </trkpt>
      <trkpt lat="42.95572296" lon="13.35764899">
        <ele>602.00000</ele>
        <time>2024-05-10T18:40:04Z</time>
      </trkpt>
      <trkpt lat="42.95570293" lon="13.35764296">
        <ele>602.00000</ele>
        <time>2024-05-10T18:40:05Z</time>
      </trkpt>
      <trkpt lat="42.95568298" lon="13.35763793">
        <ele>602.00000</ele>
        <time>2024-05-10T18:40:05Z</time>
      </trkpt>
      <trkpt lat="42.95566395" lon="13.35763592">
        <ele>602.00000</ele>
        <time>2024-05-10T18:40:06Z</time>
      </trkpt>
      <trkpt lat="42.95564593" lon="13.35763298">
        <ele>602.00000</ele>
        <time>2024-05-10T18:40:06Z</time>
      </trkpt>
      <trkpt lat="42.95562892" lon="13.35763198">
        <ele>602.00000</ele>
        <time>2024-05-10T18:40:06Z</time>
      </trkpt>
      <trkpt lat="42.95560997" lon="13.35763298">
        <ele>602.00000</ele>
        <time>2024-05-10T18:40:07Z</time>
      </trkpt>
      <trkpt lat="42.95559195" lon="13.35763298">
        <ele>602.00000</ele>
        <time>2024-05-10T18:40:07Z</time>
      </trkpt>
      <trkpt lat="42.95556999" lon="13.35763491">
        <ele>602.00000</ele>
        <time>2024-05-10T18:40:08Z</time>
      </trkpt>
      <trkpt lat="42.95555097" lon="13.35763491">
        <ele>602.00000</ele>
        <time>2024-05-10T18:40:08Z</time>
      </trkpt>
      <trkpt lat="42.95553294" lon="13.35763894">
        <ele>602.00000</ele>
        <time>2024-05-10T18:40:08Z</time>
      </trkpt>
      <trkpt lat="42.95551291" lon="13.35764598">
        <ele>603.00000</ele>
        <time>2024-05-10T18:40:09Z</time>
      </trkpt>
      <trkpt lat="42.95549196" lon="13.35765092">
        <ele>603.00000</ele>
        <time>2024-05-10T18:40:09Z</time>
      </trkpt>
      <trkpt lat="42.95547293" lon="13.35765796">
        <ele>603.00000</ele>
        <time>2024-05-10T18:40:09Z</time>
      </trkpt>
      <trkpt lat="42.95544996" lon="13.35766299">
        <ele>603.00000</ele>
        <time>2024-05-10T18:40:10Z</time>
      </trkpt>
      <trkpt lat="42.95542792" lon="13.35767297">
        <ele>603.00000</ele>
        <time>2024-05-10T18:40:10Z</time>
      </trkpt>
      <trkpt lat="42.95540596" lon="13.35768093">
        <ele>603.00000</ele>
        <time>2024-05-10T18:40:11Z</time>
      </trkpt>
      <trkpt lat="42.95537796" lon="13.35769493">
        <ele>603.00000</ele>
        <time>2024-05-10T18:40:11Z</time>
      </trkpt>
      <trkpt lat="42.95535793" lon="13.35770691">
        <ele>603.00000</ele>
        <time>2024-05-10T18:40:12Z</time>
      </trkpt>
      <trkpt lat="42.95533597" lon="13.35771999">
        <ele>604.00000</ele>
        <time>2024-05-10T18:40:12Z</time>
      </trkpt>
      <trkpt lat="42.95531191" lon="13.35773399">
        <ele>604.00000</ele>
        <time>2024-05-10T18:40:13Z</time>
      </trkpt>
      <trkpt lat="42.95529196" lon="13.35774597">
        <ele>604.00000</ele>
        <time>2024-05-10T18:40:13Z</time>
      </trkpt>
      <trkpt lat="42.95527394" lon="13.35775494">
        <ele>604.00000</ele>
        <time>2024-05-10T18:40:14Z</time>
      </trkpt>
      <trkpt lat="42.95525399" lon="13.35776894">
        <ele>604.00000</ele>
        <time>2024-05-10T18:40:14Z</time>
      </trkpt>
      <trkpt lat="42.95523698" lon="13.35777799">
        <ele>605.00000</ele>
        <time>2024-05-10T18:40:15Z</time>
      </trkpt>
      <trkpt lat="42.95521695" lon="13.35779299">
        <ele>605.00000</ele>
        <time>2024-05-10T18:40:15Z</time>
      </trkpt>
      <trkpt lat="42.95519599" lon="13.35780397">
        <ele>605.00000</ele>
        <time>2024-05-10T18:40:15Z</time>
      </trkpt>
      <trkpt lat="42.95517294" lon="13.35781697">
        <ele>605.00000</ele>
        <time>2024-05-10T18:40:16Z</time>
      </trkpt>
      <trkpt lat="42.95515492" lon="13.35783499">
        <ele>606.00000</ele>
        <time>2024-05-10T18:40:16Z</time>
      </trkpt>
      <trkpt lat="42.95513497" lon="13.35784899">
        <ele>606.00000</ele>
        <time>2024-05-10T18:40:17Z</time>
      </trkpt>
      <trkpt lat="42.95511997" lon="13.35785896">
        <ele>606.00000</ele>
        <time>2024-05-10T18:40:17Z</time>
      </trkpt>
      <trkpt lat="42.95510295" lon="13.35787296">
        <ele>606.00000</ele>
        <time>2024-05-10T18:40:18Z</time>
      </trkpt>
      <trkpt lat="42.95508694" lon="13.35789299">
        <ele>607.00000</ele>
        <time>2024-05-10T18:40:18Z</time>
      </trkpt>
      <trkpt lat="42.95506792" lon="13.35791696">
        <ele>607.00000</ele>
        <time>2024-05-10T18:40:19Z</time>
      </trkpt>
      <trkpt lat="42.95504797" lon="13.35793993">
        <ele>607.00000</ele>
        <time>2024-05-10T18:40:19Z</time>
      </trkpt>
      <trkpt lat="42.95502693" lon="13.35795996">
        <ele>607.00000</ele>
        <time>2024-05-10T18:40:20Z</time>
      </trkpt>
      <trkpt lat="42.95500597" lon="13.35798796">
        <ele>608.00000</ele>
        <time>2024-05-10T18:40:20Z</time>
      </trkpt>
      <trkpt lat="42.95498494" lon="13.35801294">
        <ele>608.00000</ele>
        <time>2024-05-10T18:40:21Z</time>
      </trkpt>
      <trkpt lat="42.95496599" lon="13.35803791">
        <ele>609.00000</ele>
        <time>2024-05-10T18:40:21Z</time>
      </trkpt>
      <trkpt lat="42.95494294" lon="13.35805593">
        <ele>609.00000</ele>
        <time>2024-05-10T18:40:22Z</time>
      </trkpt>
      <trkpt lat="42.95492199" lon="13.35807798">
        <ele>610.00000</ele>
        <time>2024-05-10T18:40:22Z</time>
      </trkpt>
      <trkpt lat="42.95490095" lon="13.35809793">
        <ele>610.00000</ele>
        <time>2024-05-10T18:40:23Z</time>
      </trkpt>
      <trkpt lat="42.95488695" lon="13.35812299">
        <ele>611.00000</ele>
        <time>2024-05-10T18:40:23Z</time>
      </trkpt>
      <trkpt lat="42.95486792" lon="13.35814696">
        <ele>612.00000</ele>
        <time>2024-05-10T18:40:24Z</time>
      </trkpt>
      <trkpt lat="42.95484697" lon="13.35816892">
        <ele>612.00000</ele>
        <time>2024-05-10T18:40:24Z</time>
      </trkpt>
      <trkpt lat="42.95482995" lon="13.35818896">
        <ele>613.00000</ele>
        <time>2024-05-10T18:40:25Z</time>
      </trkpt>
      <trkpt lat="42.95480598" lon="13.35820698">
        <ele>613.00000</ele>
        <time>2024-05-10T18:40:25Z</time>
      </trkpt>
      <trkpt lat="42.95478193" lon="13.35822793">
        <ele>614.00000</ele>
        <time>2024-05-10T18:40:26Z</time>
      </trkpt>
      <trkpt lat="42.95475594" lon="13.35824595">
        <ele>614.00000</ele>
        <time>2024-05-10T18:40:26Z</time>
      </trkpt>
      <trkpt lat="42.95473096" lon="13.35825894">
        <ele>615.00000</ele>
        <time>2024-05-10T18:40:27Z</time>
      </trkpt>
      <trkpt lat="42.95470699" lon="13.35826599">
        <ele>615.00000</ele>
        <time>2024-05-10T18:40:27Z</time>
      </trkpt>
      <trkpt lat="42.95468495" lon="13.35827395">
        <ele>615.00000</ele>
        <time>2024-05-10T18:40:28Z</time>
      </trkpt>
      <trkpt lat="42.95466198" lon="13.35827797">
        <ele>616.00000</ele>
        <time>2024-05-10T18:40:28Z</time>
      </trkpt>
      <trkpt lat="42.95463893" lon="13.35828099">
        <ele>616.00000</ele>
        <time>2024-05-10T18:40:29Z</time>
      </trkpt>
      <trkpt lat="42.95461496" lon="13.35828099">
        <ele>616.00000</ele>
        <time>2024-05-10T18:40:29Z</time>
      </trkpt>
      <trkpt lat="42.95459099" lon="13.35828392">
        <ele>617.00000</ele>
        <time>2024-05-10T18:40:30Z</time>
      </trkpt>
      <trkpt lat="42.95456995" lon="13.35828099">
        <ele>617.00000</ele>
        <time>2024-05-10T18:40:30Z</time>
      </trkpt>
      <trkpt lat="42.95454899" lon="13.35827596">
        <ele>617.00000</ele>
        <time>2024-05-10T18:40:31Z</time>
      </trkpt>
      <trkpt lat="42.95452594" lon="13.35826992">
        <ele>617.00000</ele>
        <time>2024-05-10T18:40:31Z</time>
      </trkpt>
      <trkpt lat="42.95450197" lon="13.35826297">
        <ele>618.00000</ele>
        <time>2024-05-10T18:40:32Z</time>
      </trkpt>
      <trkpt lat="42.95447498" lon="13.35825794">
        <ele>618.00000</ele>
        <time>2024-05-10T18:40:32Z</time>
      </trkpt>
      <trkpt lat="42.95445193" lon="13.35825593">
        <ele>618.00000</ele>
        <time>2024-05-10T18:40:33Z</time>
      </trkpt>
      <trkpt lat="42.95443198" lon="13.35825098">
        <ele>618.00000</ele>
        <time>2024-05-10T18:40:33Z</time>
      </trkpt>
      <trkpt lat="42.95441195" lon="13.35824595">
        <ele>618.00000</ele>
        <time>2024-05-10T18:40:33Z</time>
      </trkpt>
      <trkpt lat="42.95439292" lon="13.35823799">
        <ele>618.00000</ele>
        <time>2024-05-10T18:40:34Z</time>
      </trkpt>
      <trkpt lat="42.95437297" lon="13.35822994">
        <ele>618.00000</ele>
        <time>2024-05-10T18:40:34Z</time>
      </trkpt>
      <trkpt lat="42.95435294" lon="13.35821796">
        <ele>618.00000</ele>
        <time>2024-05-10T18:40:35Z</time>
      </trkpt>
      <trkpt lat="42.95433592" lon="13.35820497">
        <ele>618.00000</ele>
        <time>2024-05-10T18:40:35Z</time>
      </trkpt>
      <trkpt lat="42.95431992" lon="13.35819298">
        <ele>618.00000</ele>
        <time>2024-05-10T18:40:35Z</time>
      </trkpt>
      <trkpt lat="42.95430399" lon="13.35817898">
        <ele>618.00000</ele>
        <time>2024-05-10T18:40:36Z</time>
      </trkpt>
      <trkpt lat="42.95428899" lon="13.35816599">
        <ele>618.00000</ele>
        <time>2024-05-10T18:40:36Z</time>
      </trkpt>
      <trkpt lat="42.95427499" lon="13.35815392">
        <ele>618.00000</ele>
        <time>2024-05-10T18:40:37Z</time>
      </trkpt>
      <trkpt lat="42.95426191" lon="13.35814897">
        <ele>618.00000</ele>
        <time>2024-05-10T18:40:37Z</time>
      </trkpt>
      <trkpt lat="42.95424699" lon="13.35814294">
        <ele>619.00000</ele>
        <time>2024-05-10T18:40:37Z</time>
      </trkpt>
      <trkpt lat="42.95423492" lon="13.35812995">
        <ele>619.00000</ele>
        <time>2024-05-10T18:40:37Z</time>
      </trkpt>
      <trkpt lat="42.95421891" lon="13.35811293">
        <ele>619.00000</ele>
        <time>2024-05-10T18:40:38Z</time>
      </trkpt>
      <trkpt lat="42.95420198" lon="13.35809893">
        <ele>619.00000</ele>
        <time>2024-05-10T18:40:38Z</time>
      </trkpt>
      <trkpt lat="42.95418497" lon="13.35808494">
        <ele>619.00000</ele>
        <time>2024-05-10T18:40:39Z</time>
      </trkpt>
      <trkpt lat="42.95417298" lon="13.35807496">
        <ele>619.00000</ele>
        <time>2024-05-10T18:40:39Z</time>
      </trkpt>
      <trkpt lat="42.95416099" lon="13.35806692">
        <ele>619.00000</ele>
        <time>2024-05-10T18:40:39Z</time>
      </trkpt>
      <trkpt lat="42.95414499" lon="13.35805292">
        <ele>619.00000</ele>
        <time>2024-05-10T18:40:40Z</time>
      </trkpt>
      <trkpt lat="42.95412696" lon="13.35803599">
        <ele>619.00000</ele>
        <time>2024-05-10T18:40:40Z</time>
      </trkpt>
      <trkpt lat="42.95411397" lon="13.35802098">
        <ele>619.00000</ele>
        <time>2024-05-10T18:40:40Z</time>
      </trkpt>
      <trkpt lat="42.95410098" lon="13.35800598">
        <ele>619.00000</ele>
        <time>2024-05-10T18:40:41Z</time>
      </trkpt>
      <trkpt lat="42.95408799" lon="13.35799198">
        <ele>619.00000</ele>
        <time>2024-05-10T18:40:41Z</time>
      </trkpt>
      <trkpt lat="42.95407399" lon="13.35797698">
        <ele>619.00000</ele>
        <time>2024-05-10T18:40:41Z</time>
      </trkpt>
      <trkpt lat="42.95405999" lon="13.35796399">
        <ele>619.00000</ele>
        <time>2024-05-10T18:40:42Z</time>
      </trkpt>
      <trkpt lat="42.95404792" lon="13.35795493">
        <ele>619.00000</ele>
        <time>2024-05-10T18:40:42Z</time>
      </trkpt>
      <trkpt lat="42.95403795" lon="13.35794094">
        <ele>619.00000</ele>
        <time>2024-05-10T18:40:42Z</time>
      </trkpt>
      <trkpt lat="42.95402395" lon="13.35792995">
        <ele>619.00000</ele>
        <time>2024-05-10T18:40:43Z</time>
      </trkpt>
      <trkpt lat="42.95400794" lon="13.35791998">
        <ele>620.00000</ele>
        <time>2024-05-10T18:40:43Z</time>
      </trkpt>
      <trkpt lat="42.95399696" lon="13.35790598">
        <ele>620.00000</ele>
        <time>2024-05-10T18:40:43Z</time>
      </trkpt>
      <trkpt lat="42.95398598" lon="13.35788595">
        <ele>620.00000</ele>
        <time>2024-05-10T18:40:44Z</time>
      </trkpt>
      <trkpt lat="42.95397693" lon="13.35786399">
        <ele>620.00000</ele>
        <time>2024-05-10T18:40:44Z</time>
      </trkpt>
      <trkpt lat="42.95396394" lon="13.35784999">
        <ele>620.00000</ele>
        <time>2024-05-10T18:40:44Z</time>
      </trkpt>
      <trkpt lat="42.95394793" lon="13.35783499">
        <ele>621.00000</ele>
        <time>2024-05-10T18:40:45Z</time>
      </trkpt>
      <trkpt lat="42.95393493" lon="13.35782493">
        <ele>621.00000</ele>
        <time>2024-05-10T18:40:45Z</time>
      </trkpt>
      <trkpt lat="42.95391893" lon="13.35781898">
        <ele>622.00000</ele>
        <time>2024-05-10T18:40:45Z</time>
      </trkpt>
      <trkpt lat="42.95390292" lon="13.35780699">
        <ele>622.00000</ele>
        <time>2024-05-10T18:40:46Z</time>
      </trkpt>
      <trkpt lat="42.95389495" lon="13.35779199">
        <ele>622.00000</ele>
        <time>2024-05-10T18:40:46Z</time>
      </trkpt>
      <trkpt lat="42.95388699" lon="13.35777095">
        <ele>622.00000</ele>
        <time>2024-05-10T18:40:46Z</time>
      </trkpt>
      <trkpt lat="42.95387995" lon="13.35774991">
        <ele>623.00000</ele>
        <time>2024-05-10T18:40:47Z</time>
      </trkpt>
      <trkpt lat="42.95387199" lon="13.35773591">
        <ele>623.00000</ele>
        <time>2024-05-10T18:40:47Z</time>
      </trkpt>
      <trkpt lat="42.95385992" lon="13.35772099">
        <ele>623.00000</ele>
        <time>2024-05-10T18:40:47Z</time>
      </trkpt>
      <trkpt lat="42.95384592" lon="13.35770691">
        <ele>623.00000</ele>
        <time>2024-05-10T18:40:48Z</time>
      </trkpt>
      <trkpt lat="42.95382999" lon="13.35769291">
        <ele>623.00000</ele>
        <time>2024-05-10T18:40:48Z</time>
      </trkpt>
      <trkpt lat="42.95381692" lon="13.35768193">
        <ele>624.00000</ele>
        <time>2024-05-10T18:40:48Z</time>
      </trkpt>
      <trkpt lat="42.95380493" lon="13.35766592">
        <ele>624.00000</ele>
        <time>2024-05-10T18:40:49Z</time>
      </trkpt>
      <trkpt lat="42.95379395" lon="13.35765494">
        <ele>624.00000</ele>
        <time>2024-05-10T18:40:49Z</time>
      </trkpt>
      <trkpt lat="42.95378297" lon="13.35764598">
        <ele>624.00000</ele>
        <time>2024-05-10T18:40:49Z</time>
      </trkpt>
      <trkpt lat="42.95376998" lon="13.35763298">
        <ele>624.00000</ele>
        <time>2024-05-10T18:40:49Z</time>
      </trkpt>
      <trkpt lat="42.95375699" lon="13.35761899">
        <ele>625.00000</ele>
        <time>2024-05-10T18:40:50Z</time>
      </trkpt>
      <trkpt lat="42.95374299" lon="13.35760599">
        <ele>625.00000</ele>
        <time>2024-05-10T18:40:50Z</time>
      </trkpt>
      <trkpt lat="42.95373293" lon="13.35759191">
        <ele>625.00000</ele>
        <time>2024-05-10T18:40:50Z</time>
      </trkpt>
      <trkpt lat="42.95371893" lon="13.35757599">
        <ele>625.00000</ele>
        <time>2024-05-10T18:40:51Z</time>
      </trkpt>
      <trkpt lat="42.95370494" lon="13.35756392">
        <ele>626.00000</ele>
        <time>2024-05-10T18:40:51Z</time>
      </trkpt>
      <trkpt lat="42.95369194" lon="13.35755193">
        <ele>626.00000</ele>
        <time>2024-05-10T18:40:51Z</time>
      </trkpt>
      <trkpt lat="42.95367593" lon="13.35754296">
        <ele>626.00000</ele>
        <time>2024-05-10T18:40:52Z</time>
      </trkpt>
      <trkpt lat="42.95365892" lon="13.35753693">
        <ele>626.00000</ele>
        <time>2024-05-10T18:40:52Z</time>
      </trkpt>
      <trkpt lat="42.95364199" lon="13.35752997">
        <ele>627.00000</ele>
        <time>2024-05-10T18:40:52Z</time>
      </trkpt>
      <trkpt lat="42.95362497" lon="13.35752092">
        <ele>627.00000</ele>
        <time>2024-05-10T18:40:53Z</time>
      </trkpt>
      <trkpt lat="42.95360393" lon="13.35751798">
        <ele>628.00000</ele>
        <time>2024-05-10T18:40:53Z</time>
      </trkpt>
      <trkpt lat="42.95358692" lon="13.35751195">
        <ele>628.00000</ele>
        <time>2024-05-10T18:40:54Z</time>
      </trkpt>
      <trkpt lat="42.95356898" lon="13.35750692">
        <ele>628.00000</ele>
        <time>2024-05-10T18:40:54Z</time>
      </trkpt>
      <trkpt lat="42.95355096" lon="13.35750591">
        <ele>628.00000</ele>
        <time>2024-05-10T18:40:54Z</time>
      </trkpt>
      <trkpt lat="42.95353394" lon="13.35750298">
        <ele>628.00000</ele>
        <time>2024-05-10T18:40:55Z</time>
      </trkpt>
      <trkpt lat="42.95351592" lon="13.35749795">
        <ele>629.00000</ele>
        <time>2024-05-10T18:40:55Z</time>
      </trkpt>
      <trkpt lat="42.95350394" lon="13.35749192">
        <ele>629.00000</ele>
        <time>2024-05-10T18:40:55Z</time>
      </trkpt>
      <trkpt lat="42.95348994" lon="13.35749192">
        <ele>629.00000</ele>
        <time>2024-05-10T18:40:56Z</time>
      </trkpt>
      <trkpt lat="42.95347393" lon="13.35749192">
        <ele>629.00000</ele>
        <time>2024-05-10T18:40:56Z</time>
      </trkpt>
      <trkpt lat="42.95345792" lon="13.35749099">
        <ele>629.00000</ele>
        <time>2024-05-10T18:40:56Z</time>
      </trkpt>
      <trkpt lat="42.95344292" lon="13.35748898">
        <ele>629.00000</ele>
        <time>2024-05-10T18:40:56Z</time>
      </trkpt>
      <trkpt lat="42.95342892" lon="13.35748898">
        <ele>630.00000</ele>
        <time>2024-05-10T18:40:57Z</time>
      </trkpt>
      <trkpt lat="42.95340897" lon="13.35748597">
        <ele>630.00000</ele>
        <time>2024-05-10T18:40:57Z</time>
      </trkpt>
      <trkpt lat="42.95339095" lon="13.35749099">
        <ele>630.00000</ele>
        <time>2024-05-10T18:40:58Z</time>
      </trkpt>
      <trkpt lat="42.95337695" lon="13.35749493">
        <ele>630.00000</ele>
        <time>2024-05-10T18:40:58Z</time>
      </trkpt>
      <trkpt lat="42.95335893" lon="13.35749393">
        <ele>630.00000</ele>
        <time>2024-05-10T18:40:58Z</time>
      </trkpt>
      <trkpt lat="42.95334191" lon="13.35749292">
        <ele>630.00000</ele>
        <time>2024-05-10T18:40:59Z</time>
      </trkpt>
      <trkpt lat="42.95332297" lon="13.35749292">
        <ele>631.00000</ele>
        <time>2024-05-10T18:40:59Z</time>
      </trkpt>
      <trkpt lat="42.95330797" lon="13.35749292">
        <ele>631.00000</ele>
        <time>2024-05-10T18:40:59Z</time>
      </trkpt>
      <trkpt lat="42.95329296" lon="13.35749594">
        <ele>631.00000</ele>
        <time>2024-05-10T18:40:59Z</time>
      </trkpt>
      <trkpt lat="42.95327595" lon="13.35749393">
        <ele>631.00000</ele>
        <time>2024-05-10T18:41:00Z</time>
      </trkpt>
      <trkpt lat="42.95326195" lon="13.35748798">
        <ele>631.00000</ele>
        <time>2024-05-10T18:41:00Z</time>
      </trkpt>
      <trkpt lat="42.95324594" lon="13.35749292">
        <ele>631.00000</ele>
        <time>2024-05-10T18:41:00Z</time>
      </trkpt>
      <trkpt lat="42.95322692" lon="13.35749896">
        <ele>631.00000</ele>
        <time>2024-05-10T18:41:01Z</time>
      </trkpt>
      <trkpt lat="42.95320898" lon="13.35750499">
        <ele>631.00000</ele>
        <time>2024-05-10T18:41:01Z</time>
      </trkpt>
      <trkpt lat="42.95319297" lon="13.35750692">
        <ele>631.00000</ele>
        <time>2024-05-10T18:41:02Z</time>
      </trkpt>
      <trkpt lat="42.95317394" lon="13.35750399">
        <ele>632.00000</ele>
        <time>2024-05-10T18:41:02Z</time>
      </trkpt>
      <trkpt lat="42.95316196" lon="13.35749996">
        <ele>632.00000</ele>
        <time>2024-05-10T18:41:02Z</time>
      </trkpt>
      <trkpt lat="42.95314695" lon="13.35749896">
        <ele>632.00000</ele>
        <time>2024-05-10T18:41:02Z</time>
      </trkpt>
      <trkpt lat="42.95313295" lon="13.35749896">
        <ele>632.00000</ele>
        <time>2024-05-10T18:41:03Z</time>
      </trkpt>
      <trkpt lat="42.95311292" lon="13.35749896">
        <ele>632.00000</ele>
        <time>2024-05-10T18:41:03Z</time>
      </trkpt>
      <trkpt lat="42.95309197" lon="13.35749493">
        <ele>632.00000</ele>
        <time>2024-05-10T18:41:04Z</time>
      </trkpt>
      <trkpt lat="42.95307495" lon="13.35749292">
        <ele>632.00000</ele>
        <time>2024-05-10T18:41:04Z</time>
      </trkpt>
      <trkpt lat="42.95305693" lon="13.35749896">
        <ele>633.00000</ele>
        <time>2024-05-10T18:41:04Z</time>
      </trkpt>
      <trkpt lat="42.95303598" lon="13.35750298">
        <ele>633.00000</ele>
        <time>2024-05-10T18:41:05Z</time>
      </trkpt>
      <trkpt lat="42.95301594" lon="13.35750097">
        <ele>633.00000</ele>
        <time>2024-05-10T18:41:05Z</time>
      </trkpt>
      <trkpt lat="42.95299792" lon="13.35750399">
        <ele>633.00000</ele>
        <time>2024-05-10T18:41:05Z</time>
      </trkpt>
      <trkpt lat="42.95297998" lon="13.35750692">
        <ele>633.00000</ele>
        <time>2024-05-10T18:41:06Z</time>
      </trkpt>
      <trkpt lat="42.95296196" lon="13.35750692">
        <ele>634.00000</ele>
        <time>2024-05-10T18:41:06Z</time>
      </trkpt>
      <trkpt lat="42.95294092" lon="13.35750399">
        <ele>634.00000</ele>
        <time>2024-05-10T18:41:07Z</time>
      </trkpt>
      <trkpt lat="42.95291695" lon="13.35750399">
        <ele>634.00000</ele>
        <time>2024-05-10T18:41:07Z</time>
      </trkpt>
      <trkpt lat="42.95289793" lon="13.35750399">
        <ele>635.00000</ele>
        <time>2024-05-10T18:41:07Z</time>
      </trkpt>
      <trkpt lat="42.95287395" lon="13.35750197">
        <ele>635.00000</ele>
        <time>2024-05-10T18:41:08Z</time>
      </trkpt>
      <trkpt lat="42.95284998" lon="13.35750499">
        <ele>635.00000</ele>
        <time>2024-05-10T18:41:08Z</time>
      </trkpt>
      <trkpt lat="42.95282492" lon="13.35750591">
        <ele>636.00000</ele>
        <time>2024-05-10T18:41:09Z</time>
      </trkpt>
      <trkpt lat="42.95280396" lon="13.35750893">
        <ele>636.00000</ele>
        <time>2024-05-10T18:41:09Z</time>
      </trkpt>
      <trkpt lat="42.95277999" lon="13.35751094">
        <ele>636.00000</ele>
        <time>2024-05-10T18:41:10Z</time>
      </trkpt>
      <trkpt lat="42.95276097" lon="13.35751698">
        <ele>637.00000</ele>
        <time>2024-05-10T18:41:10Z</time>
      </trkpt>
      <trkpt lat="42.95273699" lon="13.35752192">
        <ele>637.00000</ele>
        <time>2024-05-10T18:41:11Z</time>
      </trkpt>
      <trkpt lat="42.95271394" lon="13.35752896">
        <ele>638.00000</ele>
        <time>2024-05-10T18:41:11Z</time>
      </trkpt>
      <trkpt lat="42.95269198" lon="13.35753299">
        <ele>638.00000</ele>
        <time>2024-05-10T18:41:12Z</time>
      </trkpt>
      <trkpt lat="42.95266499" lon="13.35753492">
        <ele>639.00000</ele>
        <time>2024-05-10T18:41:12Z</time>
      </trkpt>
      <trkpt lat="42.95264395" lon="13.35753592">
        <ele>640.00000</ele>
        <time>2024-05-10T18:41:13Z</time>
      </trkpt>
      <trkpt lat="42.95262493" lon="13.35754397">
        <ele>640.00000</ele>
        <time>2024-05-10T18:41:13Z</time>
      </trkpt>
      <trkpt lat="42.95260196" lon="13.35755294">
        <ele>640.00000</ele>
        <time>2024-05-10T18:41:13Z</time>
      </trkpt>
      <trkpt lat="42.95257899" lon="13.35756392">
        <ele>641.00000</ele>
        <time>2024-05-10T18:41:14Z</time>
      </trkpt>
      <trkpt lat="42.95255997" lon="13.35757398">
        <ele>641.00000</ele>
        <time>2024-05-10T18:41:14Z</time>
      </trkpt>
      <trkpt lat="42.95253692" lon="13.35758395">
        <ele>642.00000</ele>
        <time>2024-05-10T18:41:15Z</time>
      </trkpt>
      <trkpt lat="42.95251596" lon="13.35759594">
        <ele>642.00000</ele>
        <time>2024-05-10T18:41:15Z</time>
      </trkpt>
      <trkpt lat="42.95249895" lon="13.35760993">
        <ele>643.00000</ele>
        <time>2024-05-10T18:41:16Z</time>
      </trkpt>
      <trkpt lat="42.95248193" lon="13.35762695">
        <ele>643.00000</ele>
        <time>2024-05-10T18:41:16Z</time>
      </trkpt>
      <trkpt lat="42.95245796" lon="13.35764799">
        <ele>644.00000</ele>
        <time>2024-05-10T18:41:17Z</time>
      </trkpt>
      <trkpt lat="42.95243893" lon="13.35766299">
        <ele>644.00000</ele>
        <time>2024-05-10T18:41:17Z</time>
      </trkpt>
      <trkpt lat="42.95241597" lon="13.35768093">
        <ele>645.00000</ele>
        <time>2024-05-10T18:41:18Z</time>
      </trkpt>
      <trkpt lat="42.95239199" lon="13.35769895">
        <ele>646.00000</ele>
        <time>2024-05-10T18:41:18Z</time>
      </trkpt>
      <trkpt lat="42.95237196" lon="13.35771496">
        <ele>646.00000</ele>
        <time>2024-05-10T18:41:19Z</time>
      </trkpt>
      <trkpt lat="42.95235092" lon="13.35773399">
        <ele>647.00000</ele>
        <time>2024-05-10T18:41:19Z</time>
      </trkpt>
      <trkpt lat="42.95233399" lon="13.35775192">
        <ele>648.00000</ele>
        <time>2024-05-10T18:41:20Z</time>
      </trkpt>
      <trkpt lat="42.95231496" lon="13.35777891">
        <ele>648.00000</ele>
        <time>2024-05-10T18:41:20Z</time>
      </trkpt>
      <trkpt lat="42.95229694" lon="13.35779995">
        <ele>649.00000</ele>
        <time>2024-05-10T18:41:21Z</time>
      </trkpt>
      <trkpt lat="42.95227993" lon="13.35781998">
        <ele>650.00000</ele>
        <time>2024-05-10T18:41:21Z</time>
      </trkpt>
      <trkpt lat="42.95226794" lon="13.35784094">
        <ele>650.00000</ele>
        <time>2024-05-10T18:41:21Z</time>
      </trkpt>
      <trkpt lat="42.95225193" lon="13.35787497">
        <ele>650.00000</ele>
        <time>2024-05-10T18:41:22Z</time>
      </trkpt>
      <trkpt lat="42.95223299" lon="13.35791294">
        <ele>651.00000</ele>
        <time>2024-05-10T18:41:23Z</time>
      </trkpt>
      <trkpt lat="42.95222092" lon="13.35795099">
        <ele>651.00000</ele>
        <time>2024-05-10T18:41:23Z</time>
      </trkpt>
      <trkpt lat="42.95220692" lon="13.35798595">
        <ele>651.00000</ele>
        <time>2024-05-10T18:41:24Z</time>
      </trkpt>
      <trkpt lat="42.95218999" lon="13.35802794">
        <ele>651.00000</ele>
        <time>2024-05-10T18:41:25Z</time>
      </trkpt>
      <trkpt lat="42.95217599" lon="13.35807396">
        <ele>651.00000</ele>
        <time>2024-05-10T18:41:25Z</time>
      </trkpt>
      <trkpt lat="42.95216292" lon="13.35811897">
        <ele>650.00000</ele>
        <time>2024-05-10T18:41:26Z</time>
      </trkpt>
      <trkpt lat="42.95214598" lon="13.35816792">
        <ele>649.00000</ele>
        <time>2024-05-10T18:41:27Z</time>
      </trkpt>
      <trkpt lat="42.95213299" lon="13.35821796">
        <ele>648.00000</ele>
        <time>2024-05-10T18:41:28Z</time>
      </trkpt>
      <trkpt lat="42.95212092" lon="13.35826699">
        <ele>647.00000</ele>
        <time>2024-05-10T18:41:28Z</time>
      </trkpt>
      <trkpt lat="42.95210994" lon="13.35831795">
        <ele>646.00000</ele>
        <time>2024-05-10T18:41:29Z</time>
      </trkpt>
      <trkpt lat="42.95209494" lon="13.35836598">
        <ele>646.00000</ele>
        <time>2024-05-10T18:41:30Z</time>
      </trkpt>
      <trkpt lat="42.95207792" lon="13.35841996">
        <ele>645.00000</ele>
        <time>2024-05-10T18:41:31Z</time>
      </trkpt>
      <trkpt lat="42.95206795" lon="13.35846992">
        <ele>644.00000</ele>
        <time>2024-05-10T18:41:32Z</time>
      </trkpt>
      <trkpt lat="42.95205999" lon="13.35852499">
        <ele>643.00000</ele>
        <time>2024-05-10T18:41:32Z</time>
      </trkpt>
      <trkpt lat="42.95204892" lon="13.35857494">
        <ele>642.00000</ele>
        <time>2024-05-10T18:41:33Z</time>
      </trkpt>
      <trkpt lat="42.95203392" lon="13.35862196">
        <ele>641.00000</ele>
        <time>2024-05-10T18:41:34Z</time>
      </trkpt>
      <trkpt lat="42.95201892" lon="13.35866698">
        <ele>640.00000</ele>
        <time>2024-05-10T18:41:35Z</time>
      </trkpt>
      <trkpt lat="42.95200098" lon="13.35871492">
        <ele>639.00000</ele>
        <time>2024-05-10T18:41:35Z</time>
      </trkpt>
      <trkpt lat="42.95197399" lon="13.35875792">
        <ele>638.00000</ele>
        <time>2024-05-10T18:41:36Z</time>
      </trkpt>
      <trkpt lat="42.95194197" lon="13.35878298">
        <ele>638.00000</ele>
        <time>2024-05-10T18:41:37Z</time>
      </trkpt>
      <trkpt lat="42.95190098" lon="13.35878994">
        <ele>638.00000</ele>
        <time>2024-05-10T18:41:38Z</time>
      </trkpt>
      <trkpt lat="42.95186595" lon="13.35878097">
        <ele>639.00000</ele>
        <time>2024-05-10T18:41:39Z</time>
      </trkpt>
      <trkpt lat="42.95184197" lon="13.35877091">
        <ele>639.00000</ele>
        <time>2024-05-10T18:41:39Z</time>
      </trkpt>
      <trkpt lat="42.95181398" lon="13.35876999">
        <ele>639.00000</ele>
        <time>2024-05-10T18:41:40Z</time>
      </trkpt>
      <trkpt lat="42.95178196" lon="13.35876496">
        <ele>639.00000</ele>
        <time>2024-05-10T18:41:40Z</time>
      </trkpt>
      <trkpt lat="42.95174499" lon="13.35875599">
        <ele>640.00000</ele>
        <time>2024-05-10T18:41:41Z</time>
      </trkpt>
      <trkpt lat="42.95171298" lon="13.35872791">
        <ele>641.00000</ele>
        <time>2024-05-10T18:41:42Z</time>
      </trkpt>
      <trkpt lat="42.95167794" lon="13.35868592">
        <ele>642.00000</ele>
        <time>2024-05-10T18:41:43Z</time>
      </trkpt>
      <trkpt lat="42.95165095" lon="13.35863898">
        <ele>643.00000</ele>
        <time>2024-05-10T18:41:44Z</time>
      </trkpt>
      <trkpt lat="42.95162396" lon="13.35859799">
        <ele>644.00000</ele>
        <time>2024-05-10T18:41:44Z</time>
      </trkpt>
      <trkpt lat="42.95159798" lon="13.35855499">
        <ele>644.00000</ele>
        <time>2024-05-10T18:41:45Z</time>
      </trkpt>
      <trkpt lat="42.95157291" lon="13.35850797">
        <ele>645.00000</ele>
        <time>2024-05-10T18:41:46Z</time>
      </trkpt>
      <trkpt lat="42.95154199" lon="13.35846799">
        <ele>645.00000</ele>
        <time>2024-05-10T18:41:47Z</time>
      </trkpt>
      <trkpt lat="42.95150494" lon="13.35843899">
        <ele>645.00000</ele>
        <time>2024-05-10T18:41:48Z</time>
      </trkpt>
      <trkpt lat="42.95147099" lon="13.35843195">
        <ele>645.00000</ele>
        <time>2024-05-10T18:41:48Z</time>
      </trkpt>
      <trkpt lat="42.95143595" lon="13.35843295">
        <ele>645.00000</ele>
        <time>2024-05-10T18:41:49Z</time>
      </trkpt>
      <trkpt lat="42.95139396" lon="13.35842994">
        <ele>645.00000</ele>
        <time>2024-05-10T18:41:50Z</time>
      </trkpt>
      <trkpt lat="42.95134895" lon="13.35843295">
        <ele>646.00000</ele>
        <time>2024-05-10T18:41:51Z</time>
      </trkpt>
      <trkpt lat="42.95129698" lon="13.35843195">
        <ele>646.00000</ele>
        <time>2024-05-10T18:41:52Z</time>
      </trkpt>
      <trkpt lat="42.95124191" lon="13.35842591">
        <ele>647.00000</ele>
        <time>2024-05-10T18:41:53Z</time>
      </trkpt>
      <trkpt lat="42.95118894" lon="13.35842097">
        <ele>648.00000</ele>
        <time>2024-05-10T18:41:54Z</time>
      </trkpt>
      <trkpt lat="42.95113395" lon="13.35841694">
        <ele>649.00000</ele>
        <time>2024-05-10T18:41:55Z</time>
      </trkpt>
      <trkpt lat="42.95108391" lon="13.35841191">
        <ele>650.00000</ele>
        <time>2024-05-10T18:41:56Z</time>
      </trkpt>
      <trkpt lat="42.95103295" lon="13.35840395">
        <ele>650.00000</ele>
        <time>2024-05-10T18:41:57Z</time>
      </trkpt>
      <trkpt lat="42.95097897" lon="13.35840496">
        <ele>651.00000</ele>
        <time>2024-05-10T18:41:58Z</time>
      </trkpt>
      <trkpt lat="42.95092399" lon="13.35840697">
        <ele>652.00000</ele>
        <time>2024-05-10T18:41:59Z</time>
      </trkpt>
      <trkpt lat="42.95087194" lon="13.35841694">
        <ele>653.00000</ele>
        <time>2024-05-10T18:42:00Z</time>
      </trkpt>
      <trkpt lat="42.95081494" lon="13.35844092">
        <ele>652.00000</ele>
        <time>2024-05-10T18:42:02Z</time>
      </trkpt>
      <trkpt lat="42.95075895" lon="13.35846698">
        <ele>652.00000</ele>
        <time>2024-05-10T18:42:03Z</time>
      </trkpt>
      <trkpt lat="42.95069499" lon="13.35847998">
        <ele>652.00000</ele>
        <time>2024-05-10T18:42:04Z</time>
      </trkpt>
      <trkpt lat="42.95062593" lon="13.35847998">
        <ele>653.00000</ele>
        <time>2024-05-10T18:42:05Z</time>
      </trkpt>
      <trkpt lat="42.95054999" lon="13.35847495">
        <ele>653.00000</ele>
        <time>2024-05-10T18:42:07Z</time>
      </trkpt>
      <trkpt lat="42.95047799" lon="13.35846891">
        <ele>654.00000</ele>
        <time>2024-05-10T18:42:08Z</time>
      </trkpt>
      <trkpt lat="42.95040397" lon="13.35846799">
        <ele>654.00000</ele>
        <time>2024-05-10T18:42:10Z</time>
      </trkpt>
      <trkpt lat="42.95033692" lon="13.35846095">
        <ele>654.00000</ele>
        <time>2024-05-10T18:42:11Z</time>
      </trkpt>
      <trkpt lat="42.95027397" lon="13.35845793">
        <ele>654.00000</ele>
        <time>2024-05-10T18:42:12Z</time>
      </trkpt>
      <trkpt lat="42.95021094" lon="13.35846095">
        <ele>653.00000</ele>
        <time>2024-05-10T18:42:14Z</time>
      </trkpt>
      <trkpt lat="42.95014891" lon="13.35846698">
        <ele>652.00000</ele>
        <time>2024-05-10T18:42:15Z</time>
      </trkpt>
      <trkpt lat="42.95008798" lon="13.35847696">
        <ele>651.00000</ele>
        <time>2024-05-10T18:42:16Z</time>
      </trkpt>
      <trkpt lat="42.95003098" lon="13.35848995">
        <ele>650.00000</ele>
        <time>2024-05-10T18:42:17Z</time>
      </trkpt>
      <trkpt lat="42.94998295" lon="13.35849992">
        <ele>649.00000</ele>
        <time>2024-05-10T18:42:18Z</time>
      </trkpt>
      <trkpt lat="42.94993895" lon="13.35850797">
        <ele>649.00000</ele>
        <time>2024-05-10T18:42:19Z</time>
      </trkpt>
      <trkpt lat="42.94989192" lon="13.35850998">
        <ele>649.00000</ele>
        <time>2024-05-10T18:42:20Z</time>
      </trkpt>
      <trkpt lat="42.94985194" lon="13.35850898">
        <ele>649.00000</ele>
        <time>2024-05-10T18:42:21Z</time>
      </trkpt>
      <trkpt lat="42.94981397" lon="13.35850495">
        <ele>649.00000</ele>
        <time>2024-05-10T18:42:22Z</time>
      </trkpt>
      <trkpt lat="42.94977592" lon="13.35849598">
        <ele>649.00000</ele>
        <time>2024-05-10T18:42:23Z</time>
      </trkpt>
      <trkpt lat="42.94974197" lon="13.35848894">
        <ele>650.00000</ele>
        <time>2024-05-10T18:42:23Z</time>
      </trkpt>
      <trkpt lat="42.94971096" lon="13.35847595">
        <ele>650.00000</ele>
        <time>2024-05-10T18:42:24Z</time>
      </trkpt>
      <trkpt lat="42.94968497" lon="13.35845894">
        <ele>651.00000</ele>
        <time>2024-05-10T18:42:24Z</time>
      </trkpt>
      <trkpt lat="42.94965396" lon="13.35844092">
        <ele>651.00000</ele>
        <time>2024-05-10T18:42:25Z</time>
      </trkpt>
      <trkpt lat="42.94962295" lon="13.35842499">
        <ele>652.00000</ele>
        <time>2024-05-10T18:42:26Z</time>
      </trkpt>
      <trkpt lat="42.94958791" lon="13.35841099">
        <ele>652.00000</ele>
        <time>2024-05-10T18:42:26Z</time>
      </trkpt>
      <trkpt lat="42.94955195" lon="13.35839892">
        <ele>653.00000</ele>
        <time>2024-05-10T18:42:27Z</time>
      </trkpt>
      <trkpt lat="42.94952396" lon="13.35838694">
        <ele>653.00000</ele>
        <time>2024-05-10T18:42:28Z</time>
      </trkpt>
      <trkpt lat="42.94949496" lon="13.35836992">
        <ele>654.00000</ele>
        <time>2024-05-10T18:42:28Z</time>
      </trkpt>
      <trkpt lat="42.94946797" lon="13.35835391">
        <ele>655.00000</ele>
        <time>2024-05-10T18:42:29Z</time>
      </trkpt>
      <trkpt lat="42.94944399" lon="13.35835198">
        <ele>655.00000</ele>
        <time>2024-05-10T18:42:30Z</time>
      </trkpt>
      <trkpt lat="42.94942296" lon="13.35835492">
        <ele>654.00000</ele>
        <time>2024-05-10T18:42:30Z</time>
      </trkpt>
      <trkpt lat="42.94939999" lon="13.35835299">
        <ele>654.00000</ele>
        <time>2024-05-10T18:42:30Z</time>
      </trkpt>
      <trkpt lat="42.94937593" lon="13.35835894">
        <ele>653.00000</ele>
        <time>2024-05-10T18:42:31Z</time>
      </trkpt>
      <trkpt lat="42.94935297" lon="13.35835793">
        <ele>653.00000</ele>
        <time>2024-05-10T18:42:31Z</time>
      </trkpt>
      <trkpt lat="42.94932992" lon="13.35835198">
        <ele>653.00000</ele>
        <time>2024-05-10T18:42:32Z</time>
      </trkpt>
      <trkpt lat="42.94930594" lon="13.35834997">
        <ele>653.00000</ele>
        <time>2024-05-10T18:42:32Z</time>
      </trkpt>
      <trkpt lat="42.94928298" lon="13.35834796">
        <ele>653.00000</ele>
        <time>2024-05-10T18:42:33Z</time>
      </trkpt>
      <trkpt lat="42.94925599" lon="13.35834595">
        <ele>652.00000</ele>
        <time>2024-05-10T18:42:33Z</time>
      </trkpt>
      <trkpt lat="42.94922892" lon="13.35833899">
        <ele>652.00000</ele>
        <time>2024-05-10T18:42:34Z</time>
      </trkpt>
      <trkpt lat="42.94919597" lon="13.35833095">
        <ele>652.00000</ele>
        <time>2024-05-10T18:42:35Z</time>
      </trkpt>
      <trkpt lat="42.94916194" lon="13.35832097">
        <ele>652.00000</ele>
        <time>2024-05-10T18:42:35Z</time>
      </trkpt>
      <trkpt lat="42.94912498" lon="13.35831192">
        <ele>652.00000</ele>
        <time>2024-05-10T18:42:36Z</time>
      </trkpt>
      <trkpt lat="42.94908894" lon="13.35830396">
        <ele>652.00000</ele>
        <time>2024-05-10T18:42:37Z</time>
      </trkpt>
      <trkpt lat="42.94904996" lon="13.35829691">
        <ele>653.00000</ele>
        <time>2024-05-10T18:42:37Z</time>
      </trkpt>
      <trkpt lat="42.94900897" lon="13.35829691">
        <ele>653.00000</ele>
        <time>2024-05-10T18:42:38Z</time>
      </trkpt>
      <trkpt lat="42.94897193" lon="13.35829691">
        <ele>653.00000</ele>
        <time>2024-05-10T18:42:39Z</time>
      </trkpt>
      <trkpt lat="42.94893496" lon="13.35829893">
        <ele>653.00000</ele>
        <time>2024-05-10T18:42:40Z</time>
      </trkpt>
      <trkpt lat="42.94889599" lon="13.35830295">
        <ele>653.00000</ele>
        <time>2024-05-10T18:42:41Z</time>
      </trkpt>
      <trkpt lat="42.94885693" lon="13.35830798">
        <ele>653.00000</ele>
        <time>2024-05-10T18:42:41Z</time>
      </trkpt>
      <trkpt lat="42.94881694" lon="13.35831695">
        <ele>652.00000</ele>
        <time>2024-05-10T18:42:42Z</time>
      </trkpt>
      <trkpt lat="42.94877696" lon="13.35833497">
        <ele>652.00000</ele>
        <time>2024-05-10T18:42:43Z</time>
      </trkpt>
      <trkpt lat="42.94873698" lon="13.35835592">
        <ele>651.00000</ele>
        <time>2024-05-10T18:42:44Z</time>
      </trkpt>
      <trkpt lat="42.94870094" lon="13.35837897">
        <ele>650.00000</ele>
        <time>2024-05-10T18:42:45Z</time>
      </trkpt>
      <trkpt lat="42.94866791" lon="13.35839699">
        <ele>649.00000</ele>
        <time>2024-05-10T18:42:45Z</time>
      </trkpt>
      <trkpt lat="42.94863699" lon="13.35841393">
        <ele>649.00000</ele>
        <time>2024-05-10T18:42:46Z</time>
      </trkpt>
      <trkpt lat="42.94859994" lon="13.35843195">
        <ele>648.00000</ele>
        <time>2024-05-10T18:42:47Z</time>
      </trkpt>
      <trkpt lat="42.94856197" lon="13.35845198">
        <ele>647.00000</ele>
        <time>2024-05-10T18:42:48Z</time>
      </trkpt>
      <trkpt lat="42.94852098" lon="13.35846891">
        <ele>646.00000</ele>
        <time>2024-05-10T18:42:48Z</time>
      </trkpt>
      <trkpt lat="42.94847798" lon="13.35848794">
        <ele>646.00000</ele>
        <time>2024-05-10T18:42:49Z</time>
      </trkpt>
      <trkpt lat="42.94843297" lon="13.35850294">
        <ele>645.00000</ele>
        <time>2024-05-10T18:42:50Z</time>
      </trkpt>
      <trkpt lat="42.94838695" lon="13.35850596">
        <ele>645.00000</ele>
        <time>2024-05-10T18:42:51Z</time>
      </trkpt>
      <trkpt lat="42.94833691" lon="13.35850495">
        <ele>645.00000</ele>
        <time>2024-05-10T18:42:52Z</time>
      </trkpt>
      <trkpt lat="42.94828293" lon="13.35849397">
        <ele>645.00000</ele>
        <time>2024-05-10T18:42:53Z</time>
      </trkpt>
      <trkpt lat="42.94822996" lon="13.35847293">
        <ele>645.00000</ele>
        <time>2024-05-10T18:42:54Z</time>
      </trkpt>
      <trkpt lat="42.94817598" lon="13.35845198">
        <ele>646.00000</ele>
        <time>2024-05-10T18:42:56Z</time>
      </trkpt>
      <trkpt lat="42.94812292" lon="13.35843094">
        <ele>646.00000</ele>
        <time>2024-05-10T18:42:57Z</time>
      </trkpt>
      <trkpt lat="42.94806794" lon="13.35839993">
        <ele>647.00000</ele>
        <time>2024-05-10T18:42:58Z</time>
      </trkpt>
      <trkpt lat="42.94801094" lon="13.35836699">
        <ele>647.00000</ele>
        <time>2024-05-10T18:42:59Z</time>
      </trkpt>
      <trkpt lat="42.94795193" lon="13.35833296">
        <ele>648.00000</ele>
        <time>2024-05-10T18:43:00Z</time>
      </trkpt>
      <trkpt lat="42.94788798" lon="13.35829993">
        <ele>648.00000</ele>
        <time>2024-05-10T18:43:02Z</time>
      </trkpt>
      <trkpt lat="42.94781698" lon="13.35826599">
        <ele>649.00000</ele>
        <time>2024-05-10T18:43:03Z</time>
      </trkpt>
      <trkpt lat="42.94774297" lon="13.35822693">
        <ele>649.00000</ele>
        <time>2024-05-10T18:43:05Z</time>
      </trkpt>
      <trkpt lat="42.94766494" lon="13.35819499">
        <ele>649.00000</ele>
        <time>2024-05-10T18:43:06Z</time>
      </trkpt>
      <trkpt lat="42.94758598" lon="13.35815995">
        <ele>649.00000</ele>
        <time>2024-05-10T18:43:08Z</time>
      </trkpt>
      <trkpt lat="42.94750493" lon="13.35812995">
        <ele>650.00000</ele>
        <time>2024-05-10T18:43:10Z</time>
      </trkpt>
      <trkpt lat="42.94742496" lon="13.35809994">
        <ele>649.00000</ele>
        <time>2024-05-10T18:43:11Z</time>
      </trkpt>
      <trkpt lat="42.94734793" lon="13.35808091">
        <ele>649.00000</ele>
        <time>2024-05-10T18:43:13Z</time>
      </trkpt>
      <trkpt lat="42.94726897" lon="13.35806197">
        <ele>649.00000</ele>
        <time>2024-05-10T18:43:15Z</time>
      </trkpt>
      <trkpt lat="42.94719496" lon="13.35804797">
        <ele>648.00000</ele>
        <time>2024-05-10T18:43:16Z</time>
      </trkpt>
      <trkpt lat="42.94711994" lon="13.35804395">
        <ele>648.00000</ele>
        <time>2024-05-10T18:43:18Z</time>
      </trkpt>
      <trkpt lat="42.94705398" lon="13.35804697">
        <ele>647.00000</ele>
        <time>2024-05-10T18:43:19Z</time>
      </trkpt>
      <trkpt lat="42.94698894" lon="13.35804998">
        <ele>647.00000</ele>
        <time>2024-05-10T18:43:20Z</time>
      </trkpt>
      <trkpt lat="42.94693093" lon="13.35805895">
        <ele>647.00000</ele>
        <time>2024-05-10T18:43:21Z</time>
      </trkpt>
      <trkpt lat="42.94687192" lon="13.35806599">
        <ele>647.00000</ele>
        <time>2024-05-10T18:43:23Z</time>
      </trkpt>
      <trkpt lat="42.94681694" lon="13.35806893">
        <ele>648.00000</ele>
        <time>2024-05-10T18:43:24Z</time>
      </trkpt>
      <trkpt lat="42.94676195" lon="13.35807899">
        <ele>648.00000</ele>
        <time>2024-05-10T18:43:25Z</time>
      </trkpt>
      <trkpt lat="42.94671099" lon="13.35808795">
        <ele>649.00000</ele>
        <time>2024-05-10T18:43:26Z</time>
      </trkpt>
      <trkpt lat="42.94666196" lon="13.35809198">
        <ele>649.00000</ele>
        <time>2024-05-10T18:43:27Z</time>
      </trkpt>
      <trkpt lat="42.94660898" lon="13.35810497">
        <ele>650.00000</ele>
        <time>2024-05-10T18:43:28Z</time>
      </trkpt>
      <trkpt lat="42.94655995" lon="13.35812299">
        <ele>651.00000</ele>
        <time>2024-05-10T18:43:29Z</time>
      </trkpt>
      <trkpt lat="42.94651695" lon="13.35815291">
        <ele>651.00000</ele>
        <time>2024-05-10T18:43:30Z</time>
      </trkpt>
      <trkpt lat="42.94647697" lon="13.35818694">
        <ele>651.00000</ele>
        <time>2024-05-10T18:43:31Z</time>
      </trkpt>
      <trkpt lat="42.94642995" lon="13.35823095">
        <ele>651.00000</ele>
        <time>2024-05-10T18:43:32Z</time>
      </trkpt>
      <trkpt lat="42.94639399" lon="13.35826892">
        <ele>651.00000</ele>
        <time>2024-05-10T18:43:33Z</time>
      </trkpt>
      <trkpt lat="42.94636398" lon="13.35831091">
        <ele>651.00000</ele>
        <time>2024-05-10T18:43:34Z</time>
      </trkpt>
      <trkpt lat="42.94633791" lon="13.35835592">
        <ele>651.00000</ele>
        <time>2024-05-10T18:43:35Z</time>
      </trkpt>
      <trkpt lat="42.94631193" lon="13.35840093">
        <ele>651.00000</ele>
        <time>2024-05-10T18:43:35Z</time>
      </trkpt>
      <trkpt lat="42.94628393" lon="13.35844695">
        <ele>650.00000</ele>
        <time>2024-05-10T18:43:36Z</time>
      </trkpt>
      <trkpt lat="42.94625393" lon="13.35848794">
        <ele>650.00000</ele>
        <time>2024-05-10T18:43:37Z</time>
      </trkpt>
      <trkpt lat="42.94622492" lon="13.35852893">
        <ele>650.00000</ele>
        <time>2024-05-10T18:43:38Z</time>
      </trkpt>
      <trkpt lat="42.94618997" lon="13.35857192">
        <ele>650.00000</ele>
        <time>2024-05-10T18:43:39Z</time>
      </trkpt>
      <trkpt lat="42.94615292" lon="13.35861291">
        <ele>650.00000</ele>
        <time>2024-05-10T18:43:40Z</time>
      </trkpt>
      <trkpt lat="42.94611495" lon="13.35865298">
        <ele>650.00000</ele>
        <time>2024-05-10T18:43:41Z</time>
      </trkpt>
      <trkpt lat="42.94606894" lon="13.35869397">
        <ele>650.00000</ele>
        <time>2024-05-10T18:43:42Z</time>
      </trkpt>
      <trkpt lat="42.94601798" lon="13.35873797">
        <ele>649.00000</ele>
        <time>2024-05-10T18:43:43Z</time>
      </trkpt>
      <trkpt lat="42.94596098" lon="13.35879597">
        <ele>648.00000</ele>
        <time>2024-05-10T18:43:45Z</time>
      </trkpt>
      <trkpt lat="42.94590298" lon="13.35886395">
        <ele>647.00000</ele>
        <time>2024-05-10T18:43:46Z</time>
      </trkpt>
      <trkpt lat="42.94584397" lon="13.35893595">
        <ele>646.00000</ele>
        <time>2024-05-10T18:43:48Z</time>
      </trkpt>
      <trkpt lat="42.94578496" lon="13.35900795">
        <ele>646.00000</ele>
        <time>2024-05-10T18:43:49Z</time>
      </trkpt>
      <trkpt lat="42.94572394" lon="13.35907794">
        <ele>645.00000</ele>
        <time>2024-05-10T18:43:51Z</time>
      </trkpt>
      <trkpt lat="42.94566191" lon="13.35913393">
        <ele>645.00000</ele>
        <time>2024-05-10T18:43:52Z</time>
      </trkpt>
      <trkpt lat="42.94558991" lon="13.35918799">
        <ele>645.00000</ele>
        <time>2024-05-10T18:43:54Z</time>
      </trkpt>
      <trkpt lat="42.94551699" lon="13.35923795">
        <ele>645.00000</ele>
        <time>2024-05-10T18:43:56Z</time>
      </trkpt>
      <trkpt lat="42.94544499" lon="13.35927399">
        <ele>645.00000</ele>
        <time>2024-05-10T18:43:57Z</time>
      </trkpt>
      <trkpt lat="42.94537399" lon="13.35930199">
        <ele>645.00000</ele>
        <time>2024-05-10T18:43:59Z</time>
      </trkpt>
      <trkpt lat="42.94530794" lon="13.35931892">
        <ele>645.00000</ele>
        <time>2024-05-10T18:44:00Z</time>
      </trkpt>
      <trkpt lat="42.94524491" lon="13.35933895">
        <ele>645.00000</ele>
        <time>2024-05-10T18:44:01Z</time>
      </trkpt>
      <trkpt lat="42.94518792" lon="13.35936795">
        <ele>645.00000</ele>
        <time>2024-05-10T18:44:02Z</time>
      </trkpt>
      <trkpt lat="42.94513997" lon="13.35940198">
        <ele>645.00000</ele>
        <time>2024-05-10T18:44:04Z</time>
      </trkpt>
      <trkpt lat="42.94509697" lon="13.35944691">
        <ele>646.00000</ele>
        <time>2024-05-10T18:44:05Z</time>
      </trkpt>
      <trkpt lat="42.94506093" lon="13.35949997">
        <ele>646.00000</ele>
        <time>2024-05-10T18:44:06Z</time>
      </trkpt>
      <trkpt lat="42.94502598" lon="13.35954791">
        <ele>647.00000</ele>
        <time>2024-05-10T18:44:07Z</time>
      </trkpt>
      <trkpt lat="42.94499195" lon="13.35958697">
        <ele>647.00000</ele>
        <time>2024-05-10T18:44:08Z</time>
      </trkpt>
      <trkpt lat="42.94495699" lon="13.35962193">
        <ele>648.00000</ele>
        <time>2024-05-10T18:44:08Z</time>
      </trkpt>
      <trkpt lat="42.94492296" lon="13.35965897">
        <ele>648.00000</ele>
        <time>2024-05-10T18:44:09Z</time>
      </trkpt>
      <trkpt lat="42.94488399" lon="13.35969795">
        <ele>648.00000</ele>
        <time>2024-05-10T18:44:10Z</time>
      </trkpt>
      <trkpt lat="42.94484099" lon="13.35973592">
        <ele>647.00000</ele>
        <time>2024-05-10T18:44:11Z</time>
      </trkpt>
      <trkpt lat="42.94480193" lon="13.35976794">
        <ele>646.00000</ele>
        <time>2024-05-10T18:44:12Z</time>
      </trkpt>
      <trkpt lat="42.94476094" lon="13.35979292">
        <ele>646.00000</ele>
        <time>2024-05-10T18:44:13Z</time>
      </trkpt>
      <trkpt lat="42.94472599" lon="13.35982192">
        <ele>645.00000</ele>
        <time>2024-05-10T18:44:14Z</time>
      </trkpt>
      <trkpt lat="42.94469992" lon="13.35985997">
        <ele>645.00000</ele>
        <time>2024-05-10T18:44:15Z</time>
      </trkpt>
      <trkpt lat="42.94467595" lon="13.35990792">
        <ele>644.00000</ele>
        <time>2024-05-10T18:44:16Z</time>
      </trkpt>
      <trkpt lat="42.94465994" lon="13.35997195">
        <ele>644.00000</ele>
        <time>2024-05-10T18:44:17Z</time>
      </trkpt>
      <trkpt lat="42.94464896" lon="13.36004798">
        <ele>644.00000</ele>
        <time>2024-05-10T18:44:18Z</time>
      </trkpt>
      <trkpt lat="42.94464091" lon="13.36014797">
        <ele>644.00000</ele>
        <time>2024-05-10T18:44:19Z</time>
      </trkpt>
      <trkpt lat="42.94464192" lon="13.36026993">
        <ele>644.00000</ele>
        <time>2024-05-10T18:44:21Z</time>
      </trkpt>
      <trkpt lat="42.94465198" lon="13.36038694">
        <ele>644.00000</ele>
        <time>2024-05-10T18:44:23Z</time>
      </trkpt>
      <trkpt lat="42.94467092" lon="13.36050697">
        <ele>644.00000</ele>
        <time>2024-05-10T18:44:24Z</time>
      </trkpt>
      <trkpt lat="42.94469992" lon="13.36062993">
        <ele>644.00000</ele>
        <time>2024-05-10T18:44:26Z</time>
      </trkpt>
      <trkpt lat="42.94472096" lon="13.36075097">
        <ele>644.00000</ele>
        <time>2024-05-10T18:44:28Z</time>
      </trkpt>
      <trkpt lat="42.94472892" lon="13.36087192">
        <ele>643.00000</ele>
        <time>2024-05-10T18:44:30Z</time>
      </trkpt>
      <trkpt lat="42.94471995" lon="13.36098792">
        <ele>643.00000</ele>
        <time>2024-05-10T18:44:32Z</time>
      </trkpt>
      <trkpt lat="42.94469992" lon="13.36108599">
        <ele>642.00000</ele>
        <time>2024-05-10T18:44:33Z</time>
      </trkpt>
      <trkpt lat="42.94464695" lon="13.36116897">
        <ele>642.00000</ele>
        <time>2024-05-10T18:44:35Z</time>
      </trkpt>
      <trkpt lat="42.94456992" lon="13.36122999">
        <ele>642.00000</ele>
        <time>2024-05-10T18:44:37Z</time>
      </trkpt>
      <trkpt lat="42.94448392" lon="13.36125992">
        <ele>641.00000</ele>
        <time>2024-05-10T18:44:38Z</time>
      </trkpt>
      <trkpt lat="42.94439499" lon="13.36125799">
        <ele>640.00000</ele>
        <time>2024-05-10T18:44:40Z</time>
      </trkpt>
      <trkpt lat="42.94430597" lon="13.36124592">
        <ele>639.00000</ele>
        <time>2024-05-10T18:44:42Z</time>
      </trkpt>
      <trkpt lat="42.94421997" lon="13.36123494">
        <ele>639.00000</ele>
        <time>2024-05-10T18:44:44Z</time>
      </trkpt>
      <trkpt lat="42.94414093" lon="13.36122899">
        <ele>638.00000</ele>
        <time>2024-05-10T18:44:45Z</time>
      </trkpt>
      <trkpt lat="42.94406994" lon="13.36121792">
        <ele>637.00000</ele>
        <time>2024-05-10T18:44:47Z</time>
      </trkpt>
      <trkpt lat="42.94399995" lon="13.36121499">
        <ele>637.00000</ele>
        <time>2024-05-10T18:44:48Z</time>
      </trkpt>
      <trkpt lat="42.94393792" lon="13.36122899">
        <ele>637.00000</ele>
        <time>2024-05-10T18:44:49Z</time>
      </trkpt>
      <trkpt lat="42.94388595" lon="13.36125296">
        <ele>637.00000</ele>
        <time>2024-05-10T18:44:50Z</time>
      </trkpt>
      <trkpt lat="42.94383893" lon="13.36128498">
        <ele>637.00000</ele>
        <time>2024-05-10T18:44:51Z</time>
      </trkpt>
      <trkpt lat="42.94379493" lon="13.36132094">
        <ele>637.00000</ele>
        <time>2024-05-10T18:44:52Z</time>
      </trkpt>
      <trkpt lat="42.94375897" lon="13.36136595">
        <ele>637.00000</ele>
        <time>2024-05-10T18:44:53Z</time>
      </trkpt>
      <trkpt lat="42.94372594" lon="13.36141599">
        <ele>637.00000</ele>
        <time>2024-05-10T18:44:54Z</time>
      </trkpt>
      <trkpt lat="42.94369694" lon="13.36148195">
        <ele>637.00000</ele>
        <time>2024-05-10T18:44:56Z</time>
      </trkpt>
      <trkpt lat="42.94367096" lon="13.36154993">
        <ele>638.00000</ele>
        <time>2024-05-10T18:44:57Z</time>
      </trkpt>
      <trkpt lat="42.94364598" lon="13.36162797">
        <ele>638.00000</ele>
        <time>2024-05-10T18:44:58Z</time>
      </trkpt>
      <trkpt lat="42.94362796" lon="13.36171799">
        <ele>638.00000</ele>
        <time>2024-05-10T18:44:59Z</time>
      </trkpt>
      <trkpt lat="42.94361296" lon="13.36181195">
        <ele>638.00000</ele>
        <time>2024-05-10T18:45:01Z</time>
      </trkpt>
      <trkpt lat="42.94359795" lon="13.36191195">
        <ele>638.00000</ele>
        <time>2024-05-10T18:45:02Z</time>
      </trkpt>
      <trkpt lat="42.94358798" lon="13.36201697">
        <ele>638.00000</ele>
        <time>2024-05-10T18:45:04Z</time>
      </trkpt>
      <trkpt lat="42.94357096" lon="13.36212694">
        <ele>638.00000</ele>
        <time>2024-05-10T18:45:05Z</time>
      </trkpt>
      <trkpt lat="42.94354498" lon="13.36222694">
        <ele>638.00000</ele>
        <time>2024-05-10T18:45:07Z</time>
      </trkpt>
      <trkpt lat="42.94350693" lon="13.36231595">
        <ele>637.00000</ele>
        <time>2024-05-10T18:45:09Z</time>
      </trkpt>
      <trkpt lat="42.94346493" lon="13.36240799">
        <ele>637.00000</ele>
        <time>2024-05-10T18:45:10Z</time>
      </trkpt>
      <trkpt lat="42.94340592" lon="13.36247999">
        <ele>637.00000</ele>
        <time>2024-05-10T18:45:12Z</time>
      </trkpt>
      <trkpt lat="42.94333795" lon="13.36251997">
        <ele>637.00000</ele>
        <time>2024-05-10T18:45:13Z</time>
      </trkpt>
      <trkpt lat="42.94327399" lon="13.36252097">
        <ele>636.00000</ele>
        <time>2024-05-10T18:45:14Z</time>
      </trkpt>
      <trkpt lat="42.94321498" lon="13.36250999">
        <ele>636.00000</ele>
        <time>2024-05-10T18:45:16Z</time>
      </trkpt>
      <trkpt lat="42.94315799" lon="13.36250597">
        <ele>636.00000</ele>
        <time>2024-05-10T18:45:17Z</time>
      </trkpt>
      <trkpt lat="42.94310493" lon="13.36249499">
        <ele>636.00000</ele>
        <time>2024-05-10T18:45:18Z</time>
      </trkpt>
      <trkpt lat="42.94304894" lon="13.36250094">
        <ele>635.00000</ele>
        <time>2024-05-10T18:45:19Z</time>
      </trkpt>
      <trkpt lat="42.94299999" lon="13.36251796">
        <ele>636.00000</ele>
        <time>2024-05-10T18:45:20Z</time>
      </trkpt>
      <trkpt lat="42.94295799" lon="13.36253799">
        <ele>636.00000</ele>
        <time>2024-05-10T18:45:21Z</time>
      </trkpt>
      <trkpt lat="42.94291592" lon="13.36255593">
        <ele>636.00000</ele>
        <time>2024-05-10T18:45:22Z</time>
      </trkpt>
      <trkpt lat="42.94287895" lon="13.36257294">
        <ele>636.00000</ele>
        <time>2024-05-10T18:45:23Z</time>
      </trkpt>
      <trkpt lat="42.94284895" lon="13.36258795">
        <ele>636.00000</ele>
        <time>2024-05-10T18:45:23Z</time>
      </trkpt>
      <trkpt lat="42.94282095" lon="13.36260396">
        <ele>636.00000</ele>
        <time>2024-05-10T18:45:24Z</time>
      </trkpt>
      <trkpt lat="42.94279094" lon="13.36262692">
        <ele>637.00000</ele>
        <time>2024-05-10T18:45:24Z</time>
      </trkpt>
      <trkpt lat="42.94276496" lon="13.36264595">
        <ele>637.00000</ele>
        <time>2024-05-10T18:45:25Z</time>
      </trkpt>
      <trkpt lat="42.94274493" lon="13.36266992">
        <ele>638.00000</ele>
        <time>2024-05-10T18:45:26Z</time>
      </trkpt>
      <trkpt lat="42.94273193" lon="13.36269398">
        <ele>638.00000</ele>
        <time>2024-05-10T18:45:26Z</time>
      </trkpt>
      <trkpt lat="42.94272095" lon="13.36272097">
        <ele>638.00000</ele>
        <time>2024-05-10T18:45:26Z</time>
      </trkpt>
      <trkpt lat="42.94270897" lon="13.36274997">
        <ele>639.00000</ele>
        <time>2024-05-10T18:45:27Z</time>
      </trkpt>
      <trkpt lat="42.94269598" lon="13.36277796">
        <ele>639.00000</ele>
        <time>2024-05-10T18:45:27Z</time>
      </trkpt>
      <trkpt lat="42.94268592" lon="13.36281099">
        <ele>640.00000</ele>
        <time>2024-05-10T18:45:28Z</time>
      </trkpt>
      <trkpt lat="42.94267795" lon="13.36284292">
        <ele>641.00000</ele>
        <time>2024-05-10T18:45:28Z</time>
      </trkpt>
      <trkpt lat="42.94266496" lon="13.36287193">
        <ele>641.00000</ele>
        <time>2024-05-10T18:45:29Z</time>
      </trkpt>
      <trkpt lat="42.94264996" lon="13.36290394">
        <ele>642.00000</ele>
        <time>2024-05-10T18:45:30Z</time>
      </trkpt>
      <trkpt lat="42.94263395" lon="13.36292599">
        <ele>642.00000</ele>
        <time>2024-05-10T18:45:30Z</time>
      </trkpt>
      <trkpt lat="42.94262196" lon="13.36295398">
        <ele>643.00000</ele>
        <time>2024-05-10T18:45:30Z</time>
      </trkpt>
      <trkpt lat="42.94260595" lon="13.36298097">
        <ele>643.00000</ele>
        <time>2024-05-10T18:45:31Z</time>
      </trkpt>
      <trkpt lat="42.94258693" lon="13.36300997">
        <ele>644.00000</ele>
        <time>2024-05-10T18:45:32Z</time>
      </trkpt>
      <trkpt lat="42.94256798" lon="13.36303696">
        <ele>645.00000</ele>
        <time>2024-05-10T18:45:32Z</time>
      </trkpt>
      <trkpt lat="42.94255097" lon="13.36306597">
        <ele>645.00000</ele>
        <time>2024-05-10T18:45:33Z</time>
      </trkpt>
      <trkpt lat="42.94253496" lon="13.36309396">
        <ele>646.00000</ele>
        <time>2024-05-10T18:45:33Z</time>
      </trkpt>
      <trkpt lat="42.94251794" lon="13.36311995">
        <ele>646.00000</ele>
        <time>2024-05-10T18:45:34Z</time>
      </trkpt>
      <trkpt lat="42.94250495" lon="13.36314199">
        <ele>646.00000</ele>
        <time>2024-05-10T18:45:34Z</time>
      </trkpt>
      <trkpt lat="42.94249196" lon="13.36316496">
        <ele>647.00000</ele>
        <time>2024-05-10T18:45:34Z</time>
      </trkpt>
      <trkpt lat="42.94247293" lon="13.36318893">
        <ele>647.00000</ele>
        <time>2024-05-10T18:45:35Z</time>
      </trkpt>
      <trkpt lat="42.94245298" lon="13.36321399">
        <ele>648.00000</ele>
        <time>2024-05-10T18:45:36Z</time>
      </trkpt>
      <trkpt lat="42.94243698" lon="13.36323595">
        <ele>648.00000</ele>
        <time>2024-05-10T18:45:36Z</time>
      </trkpt>
      <trkpt lat="42.94242298" lon="13.36325892">
        <ele>648.00000</ele>
        <time>2024-05-10T18:45:36Z</time>
      </trkpt>
      <trkpt lat="42.94240395" lon="13.36327996">
        <ele>649.00000</ele>
        <time>2024-05-10T18:45:37Z</time>
      </trkpt>
      <trkpt lat="42.94238794" lon="13.36329798">
        <ele>649.00000</ele>
        <time>2024-05-10T18:45:37Z</time>
      </trkpt>
      <trkpt lat="42.94236992" lon="13.36331793">
        <ele>649.00000</ele>
        <time>2024-05-10T18:45:38Z</time>
      </trkpt>
      <trkpt lat="42.94235299" lon="13.36333695">
        <ele>650.00000</ele>
        <time>2024-05-10T18:45:38Z</time>
      </trkpt>
      <trkpt lat="42.94233597" lon="13.36335799">
        <ele>650.00000</ele>
        <time>2024-05-10T18:45:39Z</time>
      </trkpt>
      <trkpt lat="42.94232097" lon="13.36337392">
        <ele>650.00000</ele>
        <time>2024-05-10T18:45:39Z</time>
      </trkpt>
      <trkpt lat="42.94230697" lon="13.36339093">
        <ele>650.00000</ele>
        <time>2024-05-10T18:45:39Z</time>
      </trkpt>
      <trkpt lat="42.94229398" lon="13.36340694">
        <ele>650.00000</ele>
        <time>2024-05-10T18:45:40Z</time>
      </trkpt>
      <trkpt lat="42.94227797" lon="13.36342396">
        <ele>650.00000</ele>
        <time>2024-05-10T18:45:40Z</time>
      </trkpt>
      <trkpt lat="42.94226397" lon="13.36343997">
        <ele>650.00000</ele>
        <time>2024-05-10T18:45:41Z</time>
      </trkpt>
      <trkpt lat="42.94224997" lon="13.36345598">
        <ele>650.00000</ele>
        <time>2024-05-10T18:45:41Z</time>
      </trkpt>
      <trkpt lat="42.94223195" lon="13.36346293">
        <ele>650.00000</ele>
        <time>2024-05-10T18:45:41Z</time>
      </trkpt>
      <trkpt lat="42.94221092" lon="13.36347391">
        <ele>650.00000</ele>
        <time>2024-05-10T18:45:42Z</time>
      </trkpt>
      <trkpt lat="42.94219298" lon="13.36349093">
        <ele>650.00000</ele>
        <time>2024-05-10T18:45:42Z</time>
      </trkpt>
      <trkpt lat="42.94217596" lon="13.36349998">
        <ele>650.00000</ele>
        <time>2024-05-10T18:45:43Z</time>
      </trkpt>
      <trkpt lat="42.94215895" lon="13.36350593">
        <ele>650.00000</ele>
        <time>2024-05-10T18:45:43Z</time>
      </trkpt>
      <trkpt lat="42.94214495" lon="13.36350895">
        <ele>650.00000</ele>
        <time>2024-05-10T18:45:43Z</time>
      </trkpt>
      <trkpt lat="42.94212894" lon="13.36351498">
        <ele>650.00000</ele>
        <time>2024-05-10T18:45:44Z</time>
      </trkpt>
      <trkpt lat="42.94210991" lon="13.36352395">
        <ele>650.00000</ele>
        <time>2024-05-10T18:45:44Z</time>
      </trkpt>
      <trkpt lat="42.94208795" lon="13.36353192">
        <ele>651.00000</ele>
        <time>2024-05-10T18:45:44Z</time>
      </trkpt>
      <trkpt lat="42.94206197" lon="13.36353695">
        <ele>651.00000</ele>
        <time>2024-05-10T18:45:45Z</time>
      </trkpt>
      <trkpt lat="42.94203699" lon="13.36353695">
        <ele>651.00000</ele>
        <time>2024-05-10T18:45:45Z</time>
      </trkpt>
      <trkpt lat="42.94201495" lon="13.36353795">
        <ele>651.00000</ele>
        <time>2024-05-10T18:45:46Z</time>
      </trkpt>
      <trkpt lat="42.94199299" lon="13.36353594">
        <ele>651.00000</ele>
        <time>2024-05-10T18:45:46Z</time>
      </trkpt>
      <trkpt lat="42.94196692" lon="13.36353594">
        <ele>651.00000</ele>
        <time>2024-05-10T18:45:47Z</time>
      </trkpt>
      <trkpt lat="42.94193792" lon="13.36353896">
        <ele>651.00000</ele>
        <time>2024-05-10T18:45:47Z</time>
      </trkpt>
      <trkpt lat="42.94190892" lon="13.36353292">
        <ele>651.00000</ele>
        <time>2024-05-10T18:45:48Z</time>
      </trkpt>
      <trkpt lat="42.94188193" lon="13.36352395">
        <ele>650.00000</ele>
        <time>2024-05-10T18:45:49Z</time>
      </trkpt>
      <trkpt lat="42.94185594" lon="13.36351197">
        <ele>650.00000</ele>
        <time>2024-05-10T18:45:49Z</time>
      </trkpt>
      <trkpt lat="42.94183197" lon="13.36349093">
        <ele>650.00000</ele>
        <time>2024-05-10T18:45:50Z</time>
      </trkpt>
      <trkpt lat="42.94180892" lon="13.36347199">
        <ele>650.00000</ele>
        <time>2024-05-10T18:45:50Z</time>
      </trkpt>
      <trkpt lat="42.94178294" lon="13.36345095">
        <ele>650.00000</ele>
        <time>2024-05-10T18:45:51Z</time>
      </trkpt>
      <trkpt lat="42.94176299" lon="13.36342496">
        <ele>651.00000</ele>
        <time>2024-05-10T18:45:51Z</time>
      </trkpt>
      <trkpt lat="42.94174497" lon="13.36339496">
        <ele>651.00000</ele>
        <time>2024-05-10T18:45:52Z</time>
      </trkpt>
      <trkpt lat="42.94172493" lon="13.36337199">
        <ele>652.00000</ele>
        <time>2024-05-10T18:45:52Z</time>
      </trkpt>
      <trkpt lat="42.94170498" lon="13.36334592">
        <ele>652.00000</ele>
        <time>2024-05-10T18:45:53Z</time>
      </trkpt>
      <trkpt lat="42.94168495" lon="13.36331893">
        <ele>653.00000</ele>
        <time>2024-05-10T18:45:54Z</time>
      </trkpt>
      <trkpt lat="42.94166794" lon="13.36328892">
        <ele>653.00000</ele>
        <time>2024-05-10T18:45:54Z</time>
      </trkpt>
      <trkpt lat="42.94164899" lon="13.36326193">
        <ele>653.00000</ele>
        <time>2024-05-10T18:45:55Z</time>
      </trkpt>
      <trkpt lat="42.94162896" lon="13.36323595">
        <ele>654.00000</ele>
        <time>2024-05-10T18:45:55Z</time>
      </trkpt>
      <trkpt lat="42.94161396" lon="13.36320594">
        <ele>654.00000</ele>
        <time>2024-05-10T18:45:56Z</time>
      </trkpt>
      <trkpt lat="42.94160096" lon="13.36317996">
        <ele>654.00000</ele>
        <time>2024-05-10T18:45:56Z</time>
      </trkpt>
      <trkpt lat="42.94158898" lon="13.36315498">
        <ele>655.00000</ele>
        <time>2024-05-10T18:45:57Z</time>
      </trkpt>
      <trkpt lat="42.94157297" lon="13.36313093">
        <ele>655.00000</ele>
        <time>2024-05-10T18:45:57Z</time>
      </trkpt>
      <trkpt lat="42.94155394" lon="13.36310796">
        <ele>655.00000</ele>
        <time>2024-05-10T18:45:58Z</time>
      </trkpt>
      <trkpt lat="42.94153198" lon="13.36308692">
        <ele>656.00000</ele>
        <time>2024-05-10T18:45:58Z</time>
      </trkpt>
      <trkpt lat="42.94150499" lon="13.36306999">
        <ele>656.00000</ele>
        <time>2024-05-10T18:45:59Z</time>
      </trkpt>
      <trkpt lat="42.94148295" lon="13.36305499">
        <ele>656.00000</ele>
        <time>2024-05-10T18:45:59Z</time>
      </trkpt>
      <trkpt lat="42.94145495" lon="13.36304292">
        <ele>656.00000</ele>
        <time>2024-05-10T18:46:00Z</time>
      </trkpt>
      <trkpt lat="42.94142897" lon="13.36302699">
        <ele>656.00000</ele>
        <time>2024-05-10T18:46:00Z</time>
      </trkpt>
      <trkpt lat="42.94140399" lon="13.36301199">
        <ele>656.00000</ele>
        <time>2024-05-10T18:46:01Z</time>
      </trkpt>
      <trkpt lat="42.94137993" lon="13.36299992">
        <ele>656.00000</ele>
        <time>2024-05-10T18:46:01Z</time>
      </trkpt>
      <trkpt lat="42.94135294" lon="13.36298399">
        <ele>657.00000</ele>
        <time>2024-05-10T18:46:02Z</time>
      </trkpt>
      <trkpt lat="42.94132294" lon="13.36297393">
        <ele>657.00000</ele>
        <time>2024-05-10T18:46:03Z</time>
      </trkpt>
      <trkpt lat="42.94129293" lon="13.36296496">
        <ele>657.00000</ele>
        <time>2024-05-10T18:46:03Z</time>
      </trkpt>
      <trkpt lat="42.94126594" lon="13.36295398">
        <ele>658.00000</ele>
        <time>2024-05-10T18:46:04Z</time>
      </trkpt>
      <trkpt lat="42.94123895" lon="13.36293999">
        <ele>658.00000</ele>
        <time>2024-05-10T18:46:04Z</time>
      </trkpt>
      <trkpt lat="42.94121297" lon="13.36293295">
        <ele>658.00000</ele>
        <time>2024-05-10T18:46:05Z</time>
      </trkpt>
      <trkpt lat="42.94118698" lon="13.36292096">
        <ele>658.00000</ele>
        <time>2024-05-10T18:46:06Z</time>
      </trkpt>
      <trkpt lat="42.94116293" lon="13.36291098">
        <ele>659.00000</ele>
        <time>2024-05-10T18:46:06Z</time>
      </trkpt>
      <trkpt lat="42.94113895" lon="13.36289799">
        <ele>659.00000</ele>
        <time>2024-05-10T18:46:07Z</time>
      </trkpt>
      <trkpt lat="42.94111498" lon="13.36288693">
        <ele>659.00000</ele>
        <time>2024-05-10T18:46:07Z</time>
      </trkpt>
      <trkpt lat="42.94109294" lon="13.36287193">
        <ele>659.00000</ele>
        <time>2024-05-10T18:46:08Z</time>
      </trkpt>
      <trkpt lat="42.94107198" lon="13.36285994">
        <ele>659.00000</ele>
        <time>2024-05-10T18:46:08Z</time>
      </trkpt>
      <trkpt lat="42.94104994" lon="13.36284695">
        <ele>659.00000</ele>
        <time>2024-05-10T18:46:08Z</time>
      </trkpt>
      <trkpt lat="42.94102597" lon="13.36283798">
        <ele>660.00000</ele>
        <time>2024-05-10T18:46:09Z</time>
      </trkpt>
      <trkpt lat="42.94100292" lon="13.36282792">
        <ele>660.00000</ele>
        <time>2024-05-10T18:46:09Z</time>
      </trkpt>
      <trkpt lat="42.94098297" lon="13.36281795">
        <ele>660.00000</ele>
        <time>2024-05-10T18:46:10Z</time>
      </trkpt>
      <trkpt lat="42.94096293" lon="13.36280395">
        <ele>660.00000</ele>
        <time>2024-05-10T18:46:10Z</time>
      </trkpt>
      <trkpt lat="42.94094592" lon="13.36279297">
        <ele>660.00000</ele>
        <time>2024-05-10T18:46:11Z</time>
      </trkpt>
      <trkpt lat="42.94092496" lon="13.36278098">
        <ele>660.00000</ele>
        <time>2024-05-10T18:46:11Z</time>
      </trkpt>
      <trkpt lat="42.94090996" lon="13.36277495">
        <ele>660.00000</ele>
        <time>2024-05-10T18:46:11Z</time>
      </trkpt>
      <trkpt lat="42.94089093" lon="13.36276397">
        <ele>660.00000</ele>
        <time>2024-05-10T18:46:12Z</time>
      </trkpt>
      <trkpt lat="42.94087098" lon="13.36274997">
        <ele>660.00000</ele>
        <time>2024-05-10T18:46:12Z</time>
      </trkpt>
      <trkpt lat="42.94085397" lon="13.36273597">
        <ele>660.00000</ele>
        <time>2024-05-10T18:46:13Z</time>
      </trkpt>
      <trkpt lat="42.94083394" lon="13.36272692">
        <ele>660.00000</ele>
        <time>2024-05-10T18:46:13Z</time>
      </trkpt>
      <trkpt lat="42.94081692" lon="13.36271594">
        <ele>660.00000</ele>
        <time>2024-05-10T18:46:14Z</time>
      </trkpt>
      <trkpt lat="42.94079798" lon="13.36270697">
        <ele>660.00000</ele>
        <time>2024-05-10T18:46:14Z</time>
      </trkpt>
      <trkpt lat="42.94078197" lon="13.36269892">
        <ele>660.00000</ele>
        <time>2024-05-10T18:46:14Z</time>
      </trkpt>
      <trkpt lat="42.94076294" lon="13.36268895">
        <ele>660.00000</ele>
        <time>2024-05-10T18:46:15Z</time>
      </trkpt>
      <trkpt lat="42.94074593" lon="13.36267596">
        <ele>660.00000</ele>
        <time>2024-05-10T18:46:15Z</time>
      </trkpt>
      <trkpt lat="42.94072698" lon="13.36266397">
        <ele>660.00000</ele>
        <time>2024-05-10T18:46:15Z</time>
      </trkpt>
      <trkpt lat="42.94070796" lon="13.36265995">
        <ele>661.00000</ele>
        <time>2024-05-10T18:46:16Z</time>
      </trkpt>
      <trkpt lat="42.94069195" lon="13.36265098">
        <ele>661.00000</ele>
        <time>2024-05-10T18:46:16Z</time>
      </trkpt>
      <trkpt lat="42.94067393" lon="13.36263991">
        <ele>661.00000</ele>
        <time>2024-05-10T18:46:17Z</time>
      </trkpt>
      <trkpt lat="42.94065498" lon="13.36263095">
        <ele>661.00000</ele>
        <time>2024-05-10T18:46:17Z</time>
      </trkpt>
      <trkpt lat="42.94063596" lon="13.36262793">
        <ele>661.00000</ele>
        <time>2024-05-10T18:46:17Z</time>
      </trkpt>
      <trkpt lat="42.94061492" lon="13.36261695">
        <ele>661.00000</ele>
        <time>2024-05-10T18:46:18Z</time>
      </trkpt>
      <trkpt lat="42.94059396" lon="13.36260798">
        <ele>661.00000</ele>
        <time>2024-05-10T18:46:18Z</time>
      </trkpt>
      <trkpt lat="42.94057494" lon="13.36259792">
        <ele>661.00000</ele>
        <time>2024-05-10T18:46:19Z</time>
      </trkpt>
      <trkpt lat="42.94055499" lon="13.36258895">
        <ele>661.00000</ele>
        <time>2024-05-10T18:46:19Z</time>
      </trkpt>
      <trkpt lat="42.94053395" lon="13.36257998">
        <ele>661.00000</ele>
        <time>2024-05-10T18:46:20Z</time>
      </trkpt>
      <trkpt lat="42.94051392" lon="13.36257395">
        <ele>661.00000</ele>
        <time>2024-05-10T18:46:20Z</time>
      </trkpt>
      <trkpt lat="42.94049195" lon="13.36257194">
        <ele>661.00000</ele>
        <time>2024-05-10T18:46:20Z</time>
      </trkpt>
      <trkpt lat="42.94047393" lon="13.36256599">
        <ele>662.00000</ele>
        <time>2024-05-10T18:46:21Z</time>
      </trkpt>
      <trkpt lat="42.94045398" lon="13.36256397">
        <ele>662.00000</ele>
        <time>2024-05-10T18:46:21Z</time>
      </trkpt>
      <trkpt lat="42.94043093" lon="13.36255894">
        <ele>662.00000</ele>
        <time>2024-05-10T18:46:22Z</time>
      </trkpt>
      <trkpt lat="42.94040696" lon="13.36255593">
        <ele>662.00000</ele>
        <time>2024-05-10T18:46:22Z</time>
      </trkpt>
      <trkpt lat="42.94038592" lon="13.36255492">
        <ele>662.00000</ele>
        <time>2024-05-10T18:46:23Z</time>
      </trkpt>
      <trkpt lat="42.94036497" lon="13.36255492">
        <ele>663.00000</ele>
        <time>2024-05-10T18:46:23Z</time>
      </trkpt>
      <trkpt lat="42.94034695" lon="13.36255492">
        <ele>663.00000</ele>
        <time>2024-05-10T18:46:23Z</time>
      </trkpt>
      <trkpt lat="42.94032398" lon="13.36255794">
        <ele>664.00000</ele>
        <time>2024-05-10T18:46:24Z</time>
      </trkpt>
      <trkpt lat="42.94030093" lon="13.36255693">
        <ele>664.00000</ele>
        <time>2024-05-10T18:46:24Z</time>
      </trkpt>
      <trkpt lat="42.94028299" lon="13.36256096">
        <ele>664.00000</ele>
        <time>2024-05-10T18:46:25Z</time>
      </trkpt>
      <trkpt lat="42.94026296" lon="13.36256699">
        <ele>664.00000</ele>
        <time>2024-05-10T18:46:25Z</time>
      </trkpt>
      <trkpt lat="42.94023899" lon="13.36257294">
        <ele>664.00000</ele>
        <time>2024-05-10T18:46:25Z</time>
      </trkpt>
      <trkpt lat="42.94021493" lon="13.36257495">
        <ele>664.00000</ele>
        <time>2024-05-10T18:46:26Z</time>
      </trkpt>
      <trkpt lat="42.94019096" lon="13.36257596">
        <ele>664.00000</ele>
        <time>2024-05-10T18:46:26Z</time>
      </trkpt>
      <trkpt lat="42.94016699" lon="13.36257898">
        <ele>664.00000</ele>
        <time>2024-05-10T18:46:27Z</time>
      </trkpt>
      <trkpt lat="42.94014293" lon="13.36258199">
        <ele>664.00000</ele>
        <time>2024-05-10T18:46:27Z</time>
      </trkpt>
      <trkpt lat="42.94012298" lon="13.36258392">
        <ele>664.00000</ele>
        <time>2024-05-10T18:46:28Z</time>
      </trkpt>
      <trkpt lat="42.94010496" lon="13.36258199">
        <ele>664.00000</ele>
        <time>2024-05-10T18:46:28Z</time>
      </trkpt>
      <trkpt lat="42.94008099" lon="13.36258493">
        <ele>664.00000</ele>
        <time>2024-05-10T18:46:29Z</time>
      </trkpt>
      <trkpt lat="42.94005995" lon="13.36258493">
        <ele>664.00000</ele>
        <time>2024-05-10T18:46:29Z</time>
      </trkpt>
      <trkpt lat="42.94003799" lon="13.36258694">
        <ele>664.00000</ele>
        <time>2024-05-10T18:46:30Z</time>
      </trkpt>
      <trkpt lat="42.94001796" lon="13.36258895">
        <ele>664.00000</ele>
        <time>2024-05-10T18:46:30Z</time>
      </trkpt>
      <trkpt lat="42.93999692" lon="13.36259197">
        <ele>664.00000</ele>
        <time>2024-05-10T18:46:30Z</time>
      </trkpt>
      <trkpt lat="42.93997395" lon="13.36259298">
        <ele>664.00000</ele>
        <time>2024-05-10T18:46:31Z</time>
      </trkpt>
      <trkpt lat="42.93995493" lon="13.36259499">
        <ele>664.00000</ele>
        <time>2024-05-10T18:46:31Z</time>
      </trkpt>
      <trkpt lat="42.93993297" lon="13.36260295">
        <ele>664.00000</ele>
        <time>2024-05-10T18:46:32Z</time>
      </trkpt>
      <trkpt lat="42.93991193" lon="13.36260898">
        <ele>664.00000</ele>
        <time>2024-05-10T18:46:32Z</time>
      </trkpt>
      <trkpt lat="42.93989198" lon="13.36261695">
        <ele>664.00000</ele>
        <time>2024-05-10T18:46:32Z</time>
      </trkpt>
      <trkpt lat="42.93987094" lon="13.36261494">
        <ele>664.00000</ele>
        <time>2024-05-10T18:46:33Z</time>
      </trkpt>
      <trkpt lat="42.93984697" lon="13.36261996">
        <ele>663.00000</ele>
        <time>2024-05-10T18:46:33Z</time>
      </trkpt>
      <trkpt lat="42.93982492" lon="13.36262893">
        <ele>664.00000</ele>
        <time>2024-05-10T18:46:34Z</time>
      </trkpt>
      <trkpt lat="42.93979793" lon="13.36263195">
        <ele>663.00000</ele>
        <time>2024-05-10T18:46:34Z</time>
      </trkpt>
      <trkpt lat="42.93976793" lon="13.36264193">
        <ele>663.00000</ele>
        <time>2024-05-10T18:46:35Z</time>
      </trkpt>
      <trkpt lat="42.93973892" lon="13.36265198">
        <ele>663.00000</ele>
        <time>2024-05-10T18:46:36Z</time>
      </trkpt>
      <trkpt lat="42.93970892" lon="13.36266296">
        <ele>664.00000</ele>
        <time>2024-05-10T18:46:36Z</time>
      </trkpt>
      <trkpt lat="42.93967195" lon="13.36266498">
        <ele>664.00000</ele>
        <time>2024-05-10T18:46:37Z</time>
      </trkpt>
      <trkpt lat="42.93963599" lon="13.36267394">
        <ele>664.00000</ele>
        <time>2024-05-10T18:46:38Z</time>
      </trkpt>
      <trkpt lat="42.93959392" lon="13.36268593">
        <ele>665.00000</ele>
        <time>2024-05-10T18:46:39Z</time>
      </trkpt>
      <trkpt lat="42.93954991" lon="13.36269699">
        <ele>665.00000</ele>
        <time>2024-05-10T18:46:39Z</time>
      </trkpt>
      <trkpt lat="42.93949593" lon="13.36270697">
        <ele>666.00000</ele>
        <time>2024-05-10T18:46:41Z</time>
      </trkpt>
      <trkpt lat="42.93943592" lon="13.36271191">
        <ele>666.00000</ele>
        <time>2024-05-10T18:46:42Z</time>
      </trkpt>
      <trkpt lat="42.93936895" lon="13.36272298">
        <ele>668.00000</ele>
        <time>2024-05-10T18:46:43Z</time>
      </trkpt>
      <trkpt lat="42.93929795" lon="13.36273698">
        <ele>670.00000</ele>
        <time>2024-05-10T18:46:45Z</time>
      </trkpt>
      <trkpt lat="42.93922495" lon="13.36274896">
        <ele>671.00000</ele>
        <time>2024-05-10T18:46:46Z</time>
      </trkpt>
      <trkpt lat="42.93915697" lon="13.36276992">
        <ele>673.00000</ele>
        <time>2024-05-10T18:46:47Z</time>
      </trkpt>
      <trkpt lat="42.93910793" lon="13.36279297">
        <ele>674.00000</ele>
        <time>2024-05-10T18:46:48Z</time>
      </trkpt>
      <trkpt lat="42.93907994" lon="13.36282993">
        <ele>674.00000</ele>
        <time>2024-05-10T18:46:49Z</time>
      </trkpt>
      <trkpt lat="42.93906795" lon="13.36287394">
        <ele>675.00000</ele>
        <time>2024-05-10T18:46:50Z</time>
      </trkpt>
      <trkpt lat="42.93905898" lon="13.36291694">
        <ele>675.00000</ele>
        <time>2024-05-10T18:46:51Z</time>
      </trkpt>
      <trkpt lat="42.93904893" lon="13.36295398">
        <ele>675.00000</ele>
        <time>2024-05-10T18:46:51Z</time>
      </trkpt>
      <trkpt lat="42.93904096" lon="13.36298994">
        <ele>675.00000</ele>
        <time>2024-05-10T18:46:52Z</time>
      </trkpt>
      <trkpt lat="42.93902294" lon="13.36302699">
        <ele>675.00000</ele>
        <time>2024-05-10T18:46:52Z</time>
      </trkpt>
      <trkpt lat="42.93900593" lon="13.36306295">
        <ele>676.00000</ele>
        <time>2024-05-10T18:46:53Z</time>
      </trkpt>
      <trkpt lat="42.93899193" lon="13.36310394">
        <ele>676.00000</ele>
        <time>2024-05-10T18:46:54Z</time>
      </trkpt>
      <trkpt lat="42.93898296" lon="13.36314895">
        <ele>676.00000</ele>
        <time>2024-05-10T18:46:54Z</time>
      </trkpt>
      <trkpt lat="42.93897894" lon="13.36319195">
        <ele>676.00000</ele>
        <time>2024-05-10T18:46:55Z</time>
      </trkpt>
      <trkpt lat="42.93897994" lon="13.36323495">
        <ele>676.00000</ele>
        <time>2024-05-10T18:46:56Z</time>
      </trkpt>
      <trkpt lat="42.93897894" lon="13.36327694">
        <ele>676.00000</ele>
        <time>2024-05-10T18:46:56Z</time>
      </trkpt>
      <trkpt lat="42.93897198" lon="13.36331591">
        <ele>676.00000</ele>
        <time>2024-05-10T18:46:57Z</time>
      </trkpt>
      <trkpt lat="42.93896595" lon="13.36336394">
        <ele>677.00000</ele>
        <time>2024-05-10T18:46:57Z</time>
      </trkpt>
      <trkpt lat="42.93896293" lon="13.36341398">
        <ele>677.00000</ele>
        <time>2024-05-10T18:46:58Z</time>
      </trkpt>
      <trkpt lat="42.93896092" lon="13.36346394">
        <ele>678.00000</ele>
        <time>2024-05-10T18:46:59Z</time>
      </trkpt>
      <trkpt lat="42.93896092" lon="13.36352194">
        <ele>678.00000</ele>
        <time>2024-05-10T18:47:00Z</time>
      </trkpt>
      <trkpt lat="42.93895999" lon="13.36358196">
        <ele>678.00000</ele>
        <time>2024-05-10T18:47:01Z</time>
      </trkpt>
      <trkpt lat="42.93896092" lon="13.36363895">
        <ele>679.00000</ele>
        <time>2024-05-10T18:47:02Z</time>
      </trkpt>
      <trkpt lat="42.93896494" lon="13.36369997">
        <ele>679.00000</ele>
        <time>2024-05-10T18:47:02Z</time>
      </trkpt>
      <trkpt lat="42.93896997" lon="13.36375798">
        <ele>679.00000</ele>
        <time>2024-05-10T18:47:03Z</time>
      </trkpt>
      <trkpt lat="42.93897994" lon="13.36381196">
        <ele>679.00000</ele>
        <time>2024-05-10T18:47:04Z</time>
      </trkpt>
      <trkpt lat="42.93899092" lon="13.36386694">
        <ele>678.00000</ele>
        <time>2024-05-10T18:47:05Z</time>
      </trkpt>
      <trkpt lat="42.93899998" lon="13.36392595">
        <ele>678.00000</ele>
        <time>2024-05-10T18:47:06Z</time>
      </trkpt>
      <trkpt lat="42.93900693" lon="13.36398395">
        <ele>679.00000</ele>
        <time>2024-05-10T18:47:07Z</time>
      </trkpt>
      <trkpt lat="42.93901297" lon="13.36404497">
        <ele>679.00000</ele>
        <time>2024-05-10T18:47:08Z</time>
      </trkpt>
      <trkpt lat="42.93902093" lon="13.36410398">
        <ele>679.00000</ele>
        <time>2024-05-10T18:47:08Z</time>
      </trkpt>
      <trkpt lat="42.93902797" lon="13.36416198">
        <ele>679.00000</ele>
        <time>2024-05-10T18:47:09Z</time>
      </trkpt>
      <trkpt lat="42.93903392" lon="13.36422393">
        <ele>680.00000</ele>
        <time>2024-05-10T18:47:10Z</time>
      </trkpt>
      <trkpt lat="42.93904096" lon="13.36428394">
        <ele>680.00000</ele>
        <time>2024-05-10T18:47:11Z</time>
      </trkpt>
      <trkpt lat="42.93904993" lon="13.36434194">
        <ele>680.00000</ele>
        <time>2024-05-10T18:47:12Z</time>
      </trkpt>
      <trkpt lat="42.93905798" lon="13.36439894">
        <ele>681.00000</ele>
        <time>2024-05-10T18:47:13Z</time>
      </trkpt>
      <trkpt lat="42.93906896" lon="13.36445795">
        <ele>681.00000</ele>
        <time>2024-05-10T18:47:14Z</time>
      </trkpt>
      <trkpt lat="42.93908497" lon="13.36451897">
        <ele>680.00000</ele>
        <time>2024-05-10T18:47:15Z</time>
      </trkpt>
      <trkpt lat="42.93910098" lon="13.36457697">
        <ele>680.00000</ele>
        <time>2024-05-10T18:47:16Z</time>
      </trkpt>
      <trkpt lat="42.93911992" lon="13.36463095">
        <ele>679.00000</ele>
        <time>2024-05-10T18:47:17Z</time>
      </trkpt>
      <trkpt lat="42.93914096" lon="13.36468191">
        <ele>679.00000</ele>
        <time>2024-05-10T18:47:17Z</time>
      </trkpt>
      <trkpt lat="42.93916292" lon="13.36473698">
        <ele>678.00000</ele>
        <time>2024-05-10T18:47:18Z</time>
      </trkpt>
      <trkpt lat="42.93918396" lon="13.36479599">
        <ele>677.00000</ele>
        <time>2024-05-10T18:47:19Z</time>
      </trkpt>
      <trkpt lat="42.93920399" lon="13.36484695">
        <ele>676.00000</ele>
        <time>2024-05-10T18:47:20Z</time>
      </trkpt>
      <trkpt lat="42.93922495" lon="13.36490194">
        <ele>676.00000</ele>
        <time>2024-05-10T18:47:21Z</time>
      </trkpt>
      <trkpt lat="42.93924196" lon="13.36495491">
        <ele>675.00000</ele>
        <time>2024-05-10T18:47:22Z</time>
      </trkpt>
      <trkpt lat="42.93925998" lon="13.36501099">
        <ele>675.00000</ele>
        <time>2024-05-10T18:47:23Z</time>
      </trkpt>
      <trkpt lat="42.93927893" lon="13.36507092">
        <ele>674.00000</ele>
        <time>2024-05-10T18:47:24Z</time>
      </trkpt>
      <trkpt lat="42.93929795" lon="13.36512699">
        <ele>674.00000</ele>
        <time>2024-05-10T18:47:25Z</time>
      </trkpt>
      <trkpt lat="42.93931899" lon="13.36518198">
        <ele>673.00000</ele>
        <time>2024-05-10T18:47:26Z</time>
      </trkpt>
      <trkpt lat="42.93933793" lon="13.36523998">
        <ele>673.00000</ele>
        <time>2024-05-10T18:47:26Z</time>
      </trkpt>
      <trkpt lat="42.93935797" lon="13.36529597">
        <ele>672.00000</ele>
        <time>2024-05-10T18:47:27Z</time>
      </trkpt>
      <trkpt lat="42.93937993" lon="13.36535196">
        <ele>673.00000</ele>
        <time>2024-05-10T18:47:28Z</time>
      </trkpt>
      <trkpt lat="42.93940097" lon="13.36540594">
        <ele>673.00000</ele>
        <time>2024-05-10T18:47:29Z</time>
      </trkpt>
      <trkpt lat="42.93942192" lon="13.36546193">
        <ele>674.00000</ele>
        <time>2024-05-10T18:47:30Z</time>
      </trkpt>
      <trkpt lat="42.93944195" lon="13.36551893">
        <ele>675.00000</ele>
        <time>2024-05-10T18:47:31Z</time>
      </trkpt>
      <trkpt lat="42.93946299" lon="13.36557794">
        <ele>675.00000</ele>
        <time>2024-05-10T18:47:32Z</time>
      </trkpt>
      <trkpt lat="42.93948294" lon="13.36562798">
        <ele>675.00000</ele>
        <time>2024-05-10T18:47:33Z</time>
      </trkpt>
      <trkpt lat="42.93950297" lon="13.36568196">
        <ele>676.00000</ele>
        <time>2024-05-10T18:47:34Z</time>
      </trkpt>
      <trkpt lat="42.93952493" lon="13.36573694">
        <ele>676.00000</ele>
        <time>2024-05-10T18:47:35Z</time>
      </trkpt>
      <trkpt lat="42.93954991" lon="13.36578992">
        <ele>676.00000</ele>
        <time>2024-05-10T18:47:36Z</time>
      </trkpt>
      <trkpt lat="42.93956995" lon="13.36584297">
        <ele>676.00000</ele>
        <time>2024-05-10T18:47:36Z</time>
      </trkpt>
      <trkpt lat="42.93958294" lon="13.36589997">
        <ele>676.00000</ele>
        <time>2024-05-10T18:47:37Z</time>
      </trkpt>
      <trkpt lat="42.93958595" lon="13.36595898">
        <ele>676.00000</ele>
        <time>2024-05-10T18:47:38Z</time>
      </trkpt>
      <trkpt lat="42.93957598" lon="13.36602092">
        <ele>676.00000</ele>
        <time>2024-05-10T18:47:39Z</time>
      </trkpt>
      <trkpt lat="42.93955796" lon="13.36607599">
        <ele>677.00000</ele>
        <time>2024-05-10T18:47:40Z</time>
      </trkpt>
      <trkpt lat="42.93953399" lon="13.36612494">
        <ele>678.00000</ele>
        <time>2024-05-10T18:47:41Z</time>
      </trkpt>
      <trkpt lat="42.93950599" lon="13.36616895">
        <ele>678.00000</ele>
        <time>2024-05-10T18:47:42Z</time>
      </trkpt>
      <trkpt lat="42.93948194" lon="13.36621396">
        <ele>678.00000</ele>
        <time>2024-05-10T18:47:43Z</time>
      </trkpt>
      <trkpt lat="42.93945696" lon="13.36626098">
        <ele>679.00000</ele>
        <time>2024-05-10T18:47:43Z</time>
      </trkpt>
      <trkpt lat="42.93943298" lon="13.36630892">
        <ele>679.00000</ele>
        <time>2024-05-10T18:47:44Z</time>
      </trkpt>
      <trkpt lat="42.93940792" lon="13.36635494">
        <ele>679.00000</ele>
        <time>2024-05-10T18:47:45Z</time>
      </trkpt>
      <trkpt lat="42.93937993" lon="13.36640096">
        <ele>679.00000</ele>
        <time>2024-05-10T18:47:46Z</time>
      </trkpt>
      <trkpt lat="42.93935495" lon="13.36644597">
        <ele>679.00000</ele>
        <time>2024-05-10T18:47:47Z</time>
      </trkpt>
      <trkpt lat="42.93932997" lon="13.36648796">
        <ele>679.00000</ele>
        <time>2024-05-10T18:47:48Z</time>
      </trkpt>
      <trkpt lat="42.93930399" lon="13.36653691">
        <ele>679.00000</ele>
        <time>2024-05-10T18:47:48Z</time>
      </trkpt>
      <trkpt lat="42.93927792" lon="13.36658192">
        <ele>680.00000</ele>
        <time>2024-05-10T18:47:49Z</time>
      </trkpt>
      <trkpt lat="42.93925194" lon="13.36662392">
        <ele>680.00000</ele>
        <time>2024-05-10T18:47:50Z</time>
      </trkpt>
      <trkpt lat="42.93922897" lon="13.36666792">
        <ele>680.00000</ele>
        <time>2024-05-10T18:47:51Z</time>
      </trkpt>
      <trkpt lat="42.93921195" lon="13.36670899">
        <ele>680.00000</ele>
        <time>2024-05-10T18:47:52Z</time>
      </trkpt>
      <trkpt lat="42.93919896" lon="13.36676096">
        <ele>680.00000</ele>
        <time>2024-05-10T18:47:52Z</time>
      </trkpt>
      <trkpt lat="42.93919997" lon="13.36681293">
        <ele>681.00000</ele>
        <time>2024-05-10T18:47:53Z</time>
      </trkpt>
      <trkpt lat="42.93920793" lon="13.36685995">
        <ele>681.00000</ele>
        <time>2024-05-10T18:47:54Z</time>
      </trkpt>
      <trkpt lat="42.93921992" lon="13.36690898">
        <ele>681.00000</ele>
        <time>2024-05-10T18:47:55Z</time>
      </trkpt>
      <trkpt lat="42.93924297" lon="13.36695299">
        <ele>680.00000</ele>
        <time>2024-05-10T18:47:55Z</time>
      </trkpt>
      <trkpt lat="42.93927096" lon="13.36699297">
        <ele>680.00000</ele>
        <time>2024-05-10T18:47:56Z</time>
      </trkpt>
      <trkpt lat="42.93929896" lon="13.36704092">
        <ele>680.00000</ele>
        <time>2024-05-10T18:47:57Z</time>
      </trkpt>
      <trkpt lat="42.93932796" lon="13.36708492">
        <ele>680.00000</ele>
        <time>2024-05-10T18:47:58Z</time>
      </trkpt>
      <trkpt lat="42.93935495" lon="13.36713496">
        <ele>680.00000</ele>
        <time>2024-05-10T18:47:59Z</time>
      </trkpt>
      <trkpt lat="42.93938093" lon="13.36719296">
        <ele>680.00000</ele>
        <time>2024-05-10T18:48:00Z</time>
      </trkpt>
      <trkpt lat="42.93940398" lon="13.36725097">
        <ele>680.00000</ele>
        <time>2024-05-10T18:48:01Z</time>
      </trkpt>
      <trkpt lat="42.93941999" lon="13.36732297">
        <ele>680.00000</ele>
        <time>2024-05-10T18:48:02Z</time>
      </trkpt>
      <trkpt lat="42.93942695" lon="13.36740092">
        <ele>679.00000</ele>
        <time>2024-05-10T18:48:03Z</time>
      </trkpt>
      <trkpt lat="42.93942796" lon="13.36748197">
        <ele>679.00000</ele>
        <time>2024-05-10T18:48:04Z</time>
      </trkpt>
      <trkpt lat="42.93942192" lon="13.36756495">
        <ele>678.00000</ele>
        <time>2024-05-10T18:48:06Z</time>
      </trkpt>
      <trkpt lat="42.93941396" lon="13.36765095">
        <ele>678.00000</ele>
        <time>2024-05-10T18:48:07Z</time>
      </trkpt>
      <trkpt lat="42.93940398" lon="13.36773293">
        <ele>678.00000</ele>
        <time>2024-05-10T18:48:08Z</time>
      </trkpt>
      <trkpt lat="42.93939594" lon="13.36781599">
        <ele>678.00000</ele>
        <time>2024-05-10T18:48:09Z</time>
      </trkpt>
      <trkpt lat="42.93938898" lon="13.36790098">
        <ele>678.00000</ele>
        <time>2024-05-10T18:48:11Z</time>
      </trkpt>
      <trkpt lat="42.93938596" lon="13.36798698">
        <ele>678.00000</ele>
        <time>2024-05-10T18:48:12Z</time>
      </trkpt>
      <trkpt lat="42.93938496" lon="13.36806996">
        <ele>678.00000</ele>
        <time>2024-05-10T18:48:13Z</time>
      </trkpt>
      <trkpt lat="42.93938596" lon="13.36816099">
        <ele>678.00000</ele>
        <time>2024-05-10T18:48:14Z</time>
      </trkpt>
      <trkpt lat="42.93938999" lon="13.36824799">
        <ele>678.00000</ele>
        <time>2024-05-10T18:48:16Z</time>
      </trkpt>
      <trkpt lat="42.93939795" lon="13.36833198">
        <ele>678.00000</ele>
        <time>2024-05-10T18:48:17Z</time>
      </trkpt>
      <trkpt lat="42.93941094" lon="13.36842091">
        <ele>678.00000</ele>
        <time>2024-05-10T18:48:18Z</time>
      </trkpt>
      <trkpt lat="42.93943399" lon="13.36850599">
        <ele>677.00000</ele>
        <time>2024-05-10T18:48:20Z</time>
      </trkpt>
      <trkpt lat="42.93946593" lon="13.36858293">
        <ele>676.00000</ele>
        <time>2024-05-10T18:48:21Z</time>
      </trkpt>
      <trkpt lat="42.93950892" lon="13.36865292">
        <ele>676.00000</ele>
        <time>2024-05-10T18:48:22Z</time>
      </trkpt>
      <trkpt lat="42.93956299" lon="13.36871495">
        <ele>675.00000</ele>
        <time>2024-05-10T18:48:24Z</time>
      </trkpt>
      <trkpt lat="42.93962099" lon="13.36876398">
        <ele>675.00000</ele>
        <time>2024-05-10T18:48:25Z</time>
      </trkpt>
      <trkpt lat="42.93968293" lon="13.36879894">
        <ele>675.00000</ele>
        <time>2024-05-10T18:48:26Z</time>
      </trkpt>
      <trkpt lat="42.93974999" lon="13.36881897">
        <ele>674.00000</ele>
        <time>2024-05-10T18:48:28Z</time>
      </trkpt>
      <trkpt lat="42.93981897" lon="13.36883096">
        <ele>673.00000</ele>
        <time>2024-05-10T18:48:29Z</time>
      </trkpt>
      <trkpt lat="42.93988997" lon="13.36884797">
        <ele>672.00000</ele>
        <time>2024-05-10T18:48:31Z</time>
      </trkpt>
      <trkpt lat="42.93996197" lon="13.36886792">
        <ele>671.00000</ele>
        <time>2024-05-10T18:48:32Z</time>
      </trkpt>
      <trkpt lat="42.94003799" lon="13.36888493">
        <ele>670.00000</ele>
        <time>2024-05-10T18:48:34Z</time>
      </trkpt>
      <trkpt lat="42.94010999" lon="13.36891092">
        <ele>669.00000</ele>
        <time>2024-05-10T18:48:35Z</time>
      </trkpt>
      <trkpt lat="42.94016296" lon="13.36896892">
        <ele>668.00000</ele>
        <time>2024-05-10T18:48:36Z</time>
      </trkpt>
      <trkpt lat="42.94019096" lon="13.36905492">
        <ele>668.00000</ele>
        <time>2024-05-10T18:48:38Z</time>
      </trkpt>
      <trkpt lat="42.94017998" lon="13.36914595">
        <ele>669.00000</ele>
        <time>2024-05-10T18:48:39Z</time>
      </trkpt>
      <trkpt lat="42.94015098" lon="13.36922298">
        <ele>669.00000</ele>
        <time>2024-05-10T18:48:40Z</time>
      </trkpt>
      <trkpt lat="42.94012097" lon="13.36930696">
        <ele>670.00000</ele>
        <time>2024-05-10T18:48:42Z</time>
      </trkpt>
      <trkpt lat="42.94009792" lon="13.36939891">
        <ele>670.00000</ele>
        <time>2024-05-10T18:48:43Z</time>
      </trkpt>
      <trkpt lat="42.94009599" lon="13.36948692">
        <ele>670.00000</ele>
        <time>2024-05-10T18:48:44Z</time>
      </trkpt>
      <trkpt lat="42.94010194" lon="13.36959497">
        <ele>671.00000</ele>
        <time>2024-05-10T18:48:46Z</time>
      </trkpt>
      <trkpt lat="42.94012399" lon="13.36969396">
        <ele>670.00000</ele>
        <time>2024-05-10T18:48:48Z</time>
      </trkpt>
      <trkpt lat="42.94016196" lon="13.36978892">
        <ele>669.00000</ele>
        <time>2024-05-10T18:48:49Z</time>
      </trkpt>
      <trkpt lat="42.94021393" lon="13.36987199">
        <ele>668.00000</ele>
        <time>2024-05-10T18:48:51Z</time>
      </trkpt>
      <trkpt lat="42.94026497" lon="13.36994793">
        <ele>667.00000</ele>
        <time>2024-05-10T18:48:52Z</time>
      </trkpt>
      <trkpt lat="42.94031895" lon="13.37002395">
        <ele>665.00000</ele>
        <time>2024-05-10T18:48:54Z</time>
      </trkpt>
      <trkpt lat="42.94037293" lon="13.37010794">
        <ele>664.00000</ele>
        <time>2024-05-10T18:48:55Z</time>
      </trkpt>
      <trkpt lat="42.94041593" lon="13.37019796">
        <ele>663.00000</ele>
        <time>2024-05-10T18:48:57Z</time>
      </trkpt>
      <trkpt lat="42.94043999" lon="13.37029594">
        <ele>662.00000</ele>
        <time>2024-05-10T18:48:59Z</time>
      </trkpt>
      <trkpt lat="42.94045792" lon="13.37039795">
        <ele>661.00000</ele>
        <time>2024-05-10T18:49:00Z</time>
      </trkpt>
      <trkpt lat="42.94046899" lon="13.37049099">
        <ele>659.00000</ele>
        <time>2024-05-10T18:49:01Z</time>
      </trkpt>
      <trkpt lat="42.94047494" lon="13.37059292">
        <ele>658.00000</ele>
        <time>2024-05-10T18:49:03Z</time>
      </trkpt>
      <trkpt lat="42.94047494" lon="13.37069098">
        <ele>658.00000</ele>
        <time>2024-05-10T18:49:04Z</time>
      </trkpt>
      <trkpt lat="42.94048198" lon="13.37078696">
        <ele>657.00000</ele>
        <time>2024-05-10T18:49:06Z</time>
      </trkpt>
      <trkpt lat="42.94049095" lon="13.37087597">
        <ele>657.00000</ele>
        <time>2024-05-10T18:49:07Z</time>
      </trkpt>
      <trkpt lat="42.94049397" lon="13.37094697">
        <ele>657.00000</ele>
        <time>2024-05-10T18:49:08Z</time>
      </trkpt>
      <trkpt lat="42.94050595" lon="13.37100598">
        <ele>657.00000</ele>
        <time>2024-05-10T18:49:09Z</time>
      </trkpt>
      <trkpt lat="42.94053495" lon="13.37102894">
        <ele>656.00000</ele>
        <time>2024-05-10T18:49:10Z</time>
      </trkpt>
      <trkpt lat="42.94055792" lon="13.37100991">
        <ele>656.00000</ele>
        <time>2024-05-10T18:49:10Z</time>
      </trkpt>
      <trkpt lat="42.94056697" lon="13.37097899">
        <ele>656.00000</ele>
        <time>2024-05-10T18:49:11Z</time>
      </trkpt>
      <trkpt lat="42.94056697" lon="13.37095996">
        <ele>656.00000</ele>
        <time>2024-05-10T18:49:11Z</time>
      </trkpt>
      <trkpt lat="42.94056295" lon="13.37092995">
        <ele>656.00000</ele>
        <time>2024-05-10T18:49:12Z</time>
      </trkpt>
      <trkpt lat="42.94056094" lon="13.37088595">
        <ele>656.00000</ele>
        <time>2024-05-10T18:49:12Z</time>
      </trkpt>
      <trkpt lat="42.94056496" lon="13.37083691">
        <ele>655.00000</ele>
        <time>2024-05-10T18:49:13Z</time>
      </trkpt>
      <trkpt lat="42.94057594" lon="13.37077598">
        <ele>655.00000</ele>
        <time>2024-05-10T18:49:14Z</time>
      </trkpt>
      <trkpt lat="42.94059094" lon="13.37071697">
        <ele>655.00000</ele>
        <time>2024-05-10T18:49:15Z</time>
      </trkpt>
      <trkpt lat="42.94061592" lon="13.37065092">
        <ele>655.00000</ele>
        <time>2024-05-10T18:49:16Z</time>
      </trkpt>
      <trkpt lat="42.94064392" lon="13.37058696">
        <ele>655.00000</ele>
        <time>2024-05-10T18:49:17Z</time>
      </trkpt>
      <trkpt lat="42.94066797" lon="13.37052695">
        <ele>655.00000</ele>
        <time>2024-05-10T18:49:18Z</time>
      </trkpt>
      <trkpt lat="42.94069496" lon="13.37046794">
        <ele>654.00000</ele>
        <time>2024-05-10T18:49:19Z</time>
      </trkpt>
      <trkpt lat="42.94071793" lon="13.37041597">
        <ele>654.00000</ele>
        <time>2024-05-10T18:49:20Z</time>
      </trkpt>
      <trkpt lat="42.94074794" lon="13.37036996">
        <ele>653.00000</ele>
        <time>2024-05-10T18:49:21Z</time>
      </trkpt>
      <trkpt lat="42.94078792" lon="13.37033199">
        <ele>651.00000</ele>
        <time>2024-05-10T18:49:22Z</time>
      </trkpt>
      <trkpt lat="42.94083192" lon="13.37032495">
        <ele>650.00000</ele>
        <time>2024-05-10T18:49:23Z</time>
      </trkpt>
      <trkpt lat="42.94087392" lon="13.37035294">
        <ele>649.00000</ele>
        <time>2024-05-10T18:49:24Z</time>
      </trkpt>
      <trkpt lat="42.94089697" lon="13.37040399">
        <ele>649.00000</ele>
        <time>2024-05-10T18:49:24Z</time>
      </trkpt>
      <trkpt lat="42.94090292" lon="13.37046694">
        <ele>649.00000</ele>
        <time>2024-05-10T18:49:25Z</time>
      </trkpt>
      <trkpt lat="42.94090099" lon="13.37054497">
        <ele>650.00000</ele>
        <time>2024-05-10T18:49:27Z</time>
      </trkpt>
      <trkpt lat="42.94092295" lon="13.37062896">
        <ele>650.00000</ele>
        <time>2024-05-10T18:49:28Z</time>
      </trkpt>
      <trkpt lat="42.94096696" lon="13.37070297">
        <ele>650.00000</ele>
        <time>2024-05-10T18:49:29Z</time>
      </trkpt>
      <trkpt lat="42.94102395" lon="13.37076692">
        <ele>650.00000</ele>
        <time>2024-05-10T18:49:31Z</time>
      </trkpt>
      <trkpt lat="42.94109495" lon="13.37082392">
        <ele>650.00000</ele>
        <time>2024-05-10T18:49:32Z</time>
      </trkpt>
      <trkpt lat="42.94117399" lon="13.37086399">
        <ele>648.00000</ele>
        <time>2024-05-10T18:49:34Z</time>
      </trkpt>
      <trkpt lat="42.94126099" lon="13.37090497">
        <ele>646.00000</ele>
        <time>2024-05-10T18:49:36Z</time>
      </trkpt>
      <trkpt lat="42.94135596" lon="13.37094093">
        <ele>644.00000</ele>
        <time>2024-05-10T18:49:38Z</time>
      </trkpt>
      <trkpt lat="42.94145797" lon="13.37095895">
        <ele>641.00000</ele>
        <time>2024-05-10T18:49:40Z</time>
      </trkpt>
      <trkpt lat="42.94156693" lon="13.37094797">
        <ele>638.00000</ele>
        <time>2024-05-10T18:49:42Z</time>
      </trkpt>
      <trkpt lat="42.94167598" lon="13.37090397">
        <ele>635.00000</ele>
        <time>2024-05-10T18:49:44Z</time>
      </trkpt>
      <trkpt lat="42.94178092" lon="13.37083993">
        <ele>634.00000</ele>
        <time>2024-05-10T18:49:47Z</time>
      </trkpt>
      <trkpt lat="42.94187597" lon="13.37077095">
        <ele>633.00000</ele>
        <time>2024-05-10T18:49:49Z</time>
      </trkpt>
      <trkpt lat="42.94196893" lon="13.37070699">
        <ele>633.00000</ele>
        <time>2024-05-10T18:49:51Z</time>
      </trkpt>
      <trkpt lat="42.94205199" lon="13.37064396">
        <ele>634.00000</ele>
        <time>2024-05-10T18:49:53Z</time>
      </trkpt>
      <trkpt lat="42.94213498" lon="13.37059099">
        <ele>635.00000</ele>
        <time>2024-05-10T18:49:55Z</time>
      </trkpt>
      <trkpt lat="42.94221393" lon="13.37054497">
        <ele>635.00000</ele>
        <time>2024-05-10T18:49:56Z</time>
      </trkpt>
      <trkpt lat="42.94229691" lon="13.37050692">
        <ele>635.00000</ele>
        <time>2024-05-10T18:49:58Z</time>
      </trkpt>
      <trkpt lat="42.94237998" lon="13.37048797">
        <ele>636.00000</ele>
        <time>2024-05-10T18:50:00Z</time>
      </trkpt>
      <trkpt lat="42.94246195" lon="13.37047196">
        <ele>636.00000</ele>
        <time>2024-05-10T18:50:01Z</time>
      </trkpt>
      <trkpt lat="42.94254292" lon="13.37045897">
        <ele>636.00000</ele>
        <time>2024-05-10T18:50:03Z</time>
      </trkpt>
      <trkpt lat="42.94262196" lon="13.37043793">
        <ele>637.00000</ele>
        <time>2024-05-10T18:50:05Z</time>
      </trkpt>
      <trkpt lat="42.94270494" lon="13.37041698">
        <ele>637.00000</ele>
        <time>2024-05-10T18:50:06Z</time>
      </trkpt>
      <trkpt lat="42.94278893" lon="13.37040793">
        <ele>637.00000</ele>
        <time>2024-05-10T18:50:08Z</time>
      </trkpt>
      <trkpt lat="42.94287191" lon="13.37041195">
        <ele>637.00000</ele>
        <time>2024-05-10T18:50:10Z</time>
      </trkpt>
      <trkpt lat="42.94295196" lon="13.37042092">
        <ele>638.00000</ele>
        <time>2024-05-10T18:50:11Z</time>
      </trkpt>
      <trkpt lat="42.94303796" lon="13.37042796">
        <ele>639.00000</ele>
        <time>2024-05-10T18:50:13Z</time>
      </trkpt>
      <trkpt lat="42.94312396" lon="13.37043894">
        <ele>639.00000</ele>
        <time>2024-05-10T18:50:15Z</time>
      </trkpt>
      <trkpt lat="42.94320593" lon="13.37043299">
        <ele>639.00000</ele>
        <time>2024-05-10T18:50:16Z</time>
      </trkpt>
      <trkpt lat="42.94328992" lon="13.37041798">
        <ele>638.00000</ele>
        <time>2024-05-10T18:50:18Z</time>
      </trkpt>
      <trkpt lat="42.94337793" lon="13.37040399">
        <ele>637.00000</ele>
        <time>2024-05-10T18:50:20Z</time>
      </trkpt>
      <trkpt lat="42.94345999" lon="13.37039795">
        <ele>636.00000</ele>
        <time>2024-05-10T18:50:21Z</time>
      </trkpt>
      <trkpt lat="42.94354598" lon="13.37040994">
        <ele>636.00000</ele>
        <time>2024-05-10T18:50:23Z</time>
      </trkpt>
      <trkpt lat="42.94363693" lon="13.37043198">
        <ele>635.00000</ele>
        <time>2024-05-10T18:50:25Z</time>
      </trkpt>
      <trkpt lat="42.94372896" lon="13.37047096">
        <ele>634.00000</ele>
        <time>2024-05-10T18:50:27Z</time>
      </trkpt>
      <trkpt lat="42.94382099" lon="13.37050692">
        <ele>633.00000</ele>
        <time>2024-05-10T18:50:29Z</time>
      </trkpt>
      <trkpt lat="42.94389895" lon="13.37053198">
        <ele>632.00000</ele>
        <time>2024-05-10T18:50:31Z</time>
      </trkpt>
      <trkpt lat="42.94397195" lon="13.37057196">
        <ele>630.00000</ele>
        <time>2024-05-10T18:50:32Z</time>
      </trkpt>
      <trkpt lat="42.94402199" lon="13.37062996">
        <ele>629.00000</ele>
        <time>2024-05-10T18:50:33Z</time>
      </trkpt>
      <trkpt lat="42.94405493" lon="13.37070297">
        <ele>630.00000</ele>
        <time>2024-05-10T18:50:35Z</time>
      </trkpt>
      <trkpt lat="42.94408394" lon="13.37079492">
        <ele>631.00000</ele>
        <time>2024-05-10T18:50:36Z</time>
      </trkpt>
      <trkpt lat="42.94411897" lon="13.37088997">
        <ele>632.00000</ele>
        <time>2024-05-10T18:50:38Z</time>
      </trkpt>
      <trkpt lat="42.94417295" lon="13.37096599">
        <ele>632.00000</ele>
        <time>2024-05-10T18:50:39Z</time>
      </trkpt>
      <trkpt lat="42.94424797" lon="13.37102894">
        <ele>631.00000</ele>
        <time>2024-05-10T18:50:41Z</time>
      </trkpt>
      <trkpt lat="42.94432894" lon="13.37106498">
        <ele>630.00000</ele>
        <time>2024-05-10T18:50:43Z</time>
      </trkpt>
      <trkpt lat="42.94441393" lon="13.37106792">
        <ele>628.00000</ele>
        <time>2024-05-10T18:50:44Z</time>
      </trkpt>
      <trkpt lat="42.94449398" lon="13.37105392">
        <ele>625.00000</ele>
        <time>2024-05-10T18:50:46Z</time>
      </trkpt>
      <trkpt lat="42.94456598" lon="13.37104495">
        <ele>624.00000</ele>
        <time>2024-05-10T18:50:47Z</time>
      </trkpt>
      <trkpt lat="42.94461996" lon="13.37106398">
        <ele>623.00000</ele>
        <time>2024-05-10T18:50:49Z</time>
      </trkpt>
      <trkpt lat="42.94466497" lon="13.37111494">
        <ele>623.00000</ele>
        <time>2024-05-10T18:50:50Z</time>
      </trkpt>
      <trkpt lat="42.94467595" lon="13.37119692">
        <ele>623.00000</ele>
        <time>2024-05-10T18:50:51Z</time>
      </trkpt>
      <trkpt lat="42.94467796" lon="13.37129297">
        <ele>623.00000</ele>
        <time>2024-05-10T18:50:52Z</time>
      </trkpt>
      <trkpt lat="42.94467394" lon="13.37139498">
        <ele>624.00000</ele>
        <time>2024-05-10T18:50:54Z</time>
      </trkpt>
      <trkpt lat="42.94466991" lon="13.37150596">
        <ele>624.00000</ele>
        <time>2024-05-10T18:50:56Z</time>
      </trkpt>
      <trkpt lat="42.94467595" lon="13.37162598">
        <ele>624.00000</ele>
        <time>2024-05-10T18:50:57Z</time>
      </trkpt>
      <trkpt lat="42.94468894" lon="13.37174995">
        <ele>622.00000</ele>
        <time>2024-05-10T18:50:59Z</time>
      </trkpt>
      <trkpt lat="42.94471995" lon="13.37187292">
        <ele>620.00000</ele>
        <time>2024-05-10T18:51:01Z</time>
      </trkpt>
      <trkpt lat="42.94476195" lon="13.37199496">
        <ele>619.00000</ele>
        <time>2024-05-10T18:51:03Z</time>
      </trkpt>
      <trkpt lat="42.94481098" lon="13.37210895">
        <ele>617.00000</ele>
        <time>2024-05-10T18:51:05Z</time>
      </trkpt>
      <trkpt lat="42.94486396" lon="13.37220794">
        <ele>616.00000</ele>
        <time>2024-05-10T18:51:07Z</time>
      </trkpt>
      <trkpt lat="42.94491894" lon="13.37229394">
        <ele>615.00000</ele>
        <time>2024-05-10T18:51:08Z</time>
      </trkpt>
      <trkpt lat="42.94498298" lon="13.37235999">
        <ele>614.00000</ele>
        <time>2024-05-10T18:51:10Z</time>
      </trkpt>
      <trkpt lat="42.94505397" lon="13.37242294">
        <ele>613.00000</ele>
        <time>2024-05-10T18:51:12Z</time>
      </trkpt>
      <trkpt lat="42.94512698" lon="13.37247499">
        <ele>612.00000</ele>
        <time>2024-05-10T18:51:13Z</time>
      </trkpt>
      <trkpt lat="42.94520292" lon="13.37252193">
        <ele>611.00000</ele>
        <time>2024-05-10T18:51:15Z</time>
      </trkpt>
      <trkpt lat="42.94528297" lon="13.37255696">
        <ele>610.00000</ele>
        <time>2024-05-10T18:51:17Z</time>
      </trkpt>
      <trkpt lat="42.94537098" lon="13.37259694">
        <ele>610.00000</ele>
        <time>2024-05-10T18:51:19Z</time>
      </trkpt>
      <trkpt lat="42.94546192" lon="13.37261999">
        <ele>610.00000</ele>
        <time>2024-05-10T18:51:20Z</time>
      </trkpt>
      <trkpt lat="42.94554792" lon="13.37261698">
        <ele>609.00000</ele>
        <time>2024-05-10T18:51:22Z</time>
      </trkpt>
      <trkpt lat="42.94564791" lon="13.37261698">
        <ele>608.00000</ele>
        <time>2024-05-10T18:51:24Z</time>
      </trkpt>
      <trkpt lat="42.94574799" lon="13.37260893">
        <ele>607.00000</ele>
        <time>2024-05-10T18:51:26Z</time>
      </trkpt>
      <trkpt lat="42.94585394" lon="13.37259694">
        <ele>606.00000</ele>
        <time>2024-05-10T18:51:28Z</time>
      </trkpt>
      <trkpt lat="42.94596299" lon="13.37258898">
        <ele>604.00000</ele>
        <time>2024-05-10T18:51:30Z</time>
      </trkpt>
      <trkpt lat="42.94607095" lon="13.37257892">
        <ele>603.00000</ele>
        <time>2024-05-10T18:51:33Z</time>
      </trkpt>
      <trkpt lat="42.94617698" lon="13.37255797">
        <ele>602.00000</ele>
        <time>2024-05-10T18:51:35Z</time>
      </trkpt>
      <trkpt lat="42.94628293" lon="13.37254397">
        <ele>602.00000</ele>
        <time>2024-05-10T18:51:37Z</time>
      </trkpt>
      <trkpt lat="42.94638896" lon="13.37251991">
        <ele>601.00000</ele>
        <time>2024-05-10T18:51:39Z</time>
      </trkpt>
      <trkpt lat="42.94649398" lon="13.37249795">
        <ele>601.00000</ele>
        <time>2024-05-10T18:51:41Z</time>
      </trkpt>
      <trkpt lat="42.94659792" lon="13.37247096">
        <ele>601.00000</ele>
        <time>2024-05-10T18:51:43Z</time>
      </trkpt>
      <trkpt lat="42.94670496" lon="13.37245194">
        <ele>600.00000</ele>
        <time>2024-05-10T18:51:45Z</time>
      </trkpt>
      <trkpt lat="42.94680294" lon="13.37242897">
        <ele>600.00000</ele>
        <time>2024-05-10T18:51:47Z</time>
      </trkpt>
      <trkpt lat="42.94689497" lon="13.37238798">
        <ele>599.00000</ele>
        <time>2024-05-10T18:51:49Z</time>
      </trkpt>
      <trkpt lat="42.94698298" lon="13.37233392">
        <ele>597.00000</ele>
        <time>2024-05-10T18:51:51Z</time>
      </trkpt>
      <trkpt lat="42.94706295" lon="13.37229293">
        <ele>596.00000</ele>
        <time>2024-05-10T18:51:53Z</time>
      </trkpt>
      <trkpt lat="42.94714098" lon="13.37225396">
        <ele>596.00000</ele>
        <time>2024-05-10T18:51:55Z</time>
      </trkpt>
      <trkpt lat="42.94722497" lon="13.37221993">
        <ele>595.00000</ele>
        <time>2024-05-10T18:51:56Z</time>
      </trkpt>
      <trkpt lat="42.94730292" lon="13.37222898">
        <ele>595.00000</ele>
        <time>2024-05-10T18:51:58Z</time>
      </trkpt>
      <trkpt lat="42.94736294" lon="13.37226997">
        <ele>594.00000</ele>
        <time>2024-05-10T18:51:59Z</time>
      </trkpt>
      <trkpt lat="42.94742295" lon="13.37230592">
        <ele>594.00000</ele>
        <time>2024-05-10T18:52:01Z</time>
      </trkpt>
      <trkpt lat="42.94748196" lon="13.37233996">
        <ele>594.00000</ele>
        <time>2024-05-10T18:52:02Z</time>
      </trkpt>
      <trkpt lat="42.94753694" lon="13.37236694">
        <ele>595.00000</ele>
        <time>2024-05-10T18:52:03Z</time>
      </trkpt>
      <trkpt lat="42.94758598" lon="13.37238899">
        <ele>595.00000</ele>
        <time>2024-05-10T18:52:04Z</time>
      </trkpt>
      <trkpt lat="42.94762998" lon="13.37241891">
        <ele>595.00000</ele>
        <time>2024-05-10T18:52:05Z</time>
      </trkpt>
      <trkpt lat="42.94767399" lon="13.37244599">
        <ele>595.00000</ele>
        <time>2024-05-10T18:52:06Z</time>
      </trkpt>
      <trkpt lat="42.94771699" lon="13.37247993">
        <ele>595.00000</ele>
        <time>2024-05-10T18:52:07Z</time>
      </trkpt>
      <trkpt lat="42.94776191" lon="13.37251396">
        <ele>595.00000</ele>
        <time>2024-05-10T18:52:08Z</time>
      </trkpt>
      <trkpt lat="42.94780198" lon="13.37255093">
        <ele>596.00000</ele>
        <time>2024-05-10T18:52:09Z</time>
      </trkpt>
      <trkpt lat="42.94784297" lon="13.37258596">
        <ele>596.00000</ele>
        <time>2024-05-10T18:52:10Z</time>
      </trkpt>
      <trkpt lat="42.94788496" lon="13.37262092">
        <ele>597.00000</ele>
        <time>2024-05-10T18:52:11Z</time>
      </trkpt>
      <trkpt lat="42.94792796" lon="13.37266199">
        <ele>597.00000</ele>
        <time>2024-05-10T18:52:12Z</time>
      </trkpt>
      <trkpt lat="42.94796995" lon="13.37270197">
        <ele>597.00000</ele>
        <time>2024-05-10T18:52:13Z</time>
      </trkpt>
      <trkpt lat="42.94801396" lon="13.37275092">
        <ele>598.00000</ele>
        <time>2024-05-10T18:52:14Z</time>
      </trkpt>
      <trkpt lat="42.94806995" lon="13.37280197">
        <ele>597.00000</ele>
        <time>2024-05-10T18:52:16Z</time>
      </trkpt>
      <trkpt lat="42.94812795" lon="13.37284798">
        <ele>597.00000</ele>
        <time>2024-05-10T18:52:17Z</time>
      </trkpt>
      <trkpt lat="42.94819098" lon="13.37288595">
        <ele>595.00000</ele>
        <time>2024-05-10T18:52:18Z</time>
      </trkpt>
      <trkpt lat="42.94825393" lon="13.37292996">
        <ele>594.00000</ele>
        <time>2024-05-10T18:52:20Z</time>
      </trkpt>
      <trkpt lat="42.94831193" lon="13.37298796">
        <ele>593.00000</ele>
        <time>2024-05-10T18:52:21Z</time>
      </trkpt>
      <trkpt lat="42.94836591" lon="13.37305795">
        <ele>592.00000</ele>
        <time>2024-05-10T18:52:23Z</time>
      </trkpt>
      <trkpt lat="42.94839894" lon="13.37315795">
        <ele>591.00000</ele>
        <time>2024-05-10T18:52:24Z</time>
      </trkpt>
      <trkpt lat="42.94842492" lon="13.37327194">
        <ele>591.00000</ele>
        <time>2024-05-10T18:52:26Z</time>
      </trkpt>
      <trkpt lat="42.94845694" lon="13.37337194">
        <ele>591.00000</ele>
        <time>2024-05-10T18:52:28Z</time>
      </trkpt>
      <trkpt lat="42.94850698" lon="13.37346992">
        <ele>592.00000</ele>
        <time>2024-05-10T18:52:29Z</time>
      </trkpt>
      <trkpt lat="42.94857999" lon="13.37353597">
        <ele>591.00000</ele>
        <time>2024-05-10T18:52:31Z</time>
      </trkpt>
      <trkpt lat="42.94865392" lon="13.37354997">
        <ele>590.00000</ele>
        <time>2024-05-10T18:52:33Z</time>
      </trkpt>
      <trkpt lat="42.94872298" lon="13.37353899">
        <ele>590.00000</ele>
        <time>2024-05-10T18:52:34Z</time>
      </trkpt>
      <trkpt lat="42.94878593" lon="13.37352298">
        <ele>589.00000</ele>
        <time>2024-05-10T18:52:35Z</time>
      </trkpt>
      <trkpt lat="42.94884092" lon="13.37350797">
        <ele>588.00000</ele>
        <time>2024-05-10T18:52:36Z</time>
      </trkpt>
      <trkpt lat="42.94888693" lon="13.37350194">
        <ele>588.00000</ele>
        <time>2024-05-10T18:52:37Z</time>
      </trkpt>
      <trkpt lat="42.94892298" lon="13.37349792">
        <ele>587.00000</ele>
        <time>2024-05-10T18:52:38Z</time>
      </trkpt>
      <trkpt lat="42.94896799" lon="13.37349599">
        <ele>586.00000</ele>
        <time>2024-05-10T18:52:39Z</time>
      </trkpt>
      <trkpt lat="42.94901794" lon="13.37349792">
        <ele>585.00000</ele>
        <time>2024-05-10T18:52:40Z</time>
      </trkpt>
      <trkpt lat="42.94906597" lon="13.37350496">
        <ele>585.00000</ele>
        <time>2024-05-10T18:52:41Z</time>
      </trkpt>
      <trkpt lat="42.94911299" lon="13.37351292">
        <ele>584.00000</ele>
        <time>2024-05-10T18:52:42Z</time>
      </trkpt>
      <trkpt lat="42.94915691" lon="13.37352499">
        <ele>584.00000</ele>
        <time>2024-05-10T18:52:43Z</time>
      </trkpt>
      <trkpt lat="42.94919396" lon="13.37353496">
        <ele>583.00000</ele>
        <time>2024-05-10T18:52:43Z</time>
      </trkpt>
      <trkpt lat="42.94923394" lon="13.37355198">
        <ele>583.00000</ele>
        <time>2024-05-10T18:52:44Z</time>
      </trkpt>
      <trkpt lat="42.94927099" lon="13.37357193">
        <ele>583.00000</ele>
        <time>2024-05-10T18:52:45Z</time>
      </trkpt>
      <trkpt lat="42.94930594" lon="13.37359397">
        <ele>583.00000</ele>
        <time>2024-05-10T18:52:46Z</time>
      </trkpt>
      <trkpt lat="42.94934199" lon="13.37362398">
        <ele>583.00000</ele>
        <time>2024-05-10T18:52:47Z</time>
      </trkpt>
      <trkpt lat="42.94938096" lon="13.37365893">
        <ele>583.00000</ele>
        <time>2024-05-10T18:52:48Z</time>
      </trkpt>
      <trkpt lat="42.94942195" lon="13.37370495">
        <ele>583.00000</ele>
        <time>2024-05-10T18:52:49Z</time>
      </trkpt>
      <trkpt lat="42.94946495" lon="13.37376195">
        <ele>583.00000</ele>
        <time>2024-05-10T18:52:50Z</time>
      </trkpt>
      <trkpt lat="42.94950292" lon="13.37383395">
        <ele>583.00000</ele>
        <time>2024-05-10T18:52:51Z</time>
      </trkpt>
      <trkpt lat="42.94952999" lon="13.37391592">
        <ele>584.00000</ele>
        <time>2024-05-10T18:52:53Z</time>
      </trkpt>
      <trkpt lat="42.94954894" lon="13.37400695">
        <ele>585.00000</ele>
        <time>2024-05-10T18:52:54Z</time>
      </trkpt>
      <trkpt lat="42.94956696" lon="13.37409999">
        <ele>586.00000</ele>
        <time>2024-05-10T18:52:55Z</time>
      </trkpt>
      <trkpt lat="42.94958196" lon="13.37419596">
        <ele>587.00000</ele>
        <time>2024-05-10T18:52:57Z</time>
      </trkpt>
      <trkpt lat="42.94960392" lon="13.37428799">
        <ele>587.00000</ele>
        <time>2024-05-10T18:52:58Z</time>
      </trkpt>
      <trkpt lat="42.94963896" lon="13.37437491">
        <ele>586.00000</ele>
        <time>2024-05-10T18:53:00Z</time>
      </trkpt>
      <trkpt lat="42.94969595" lon="13.37445496">
        <ele>584.00000</ele>
        <time>2024-05-10T18:53:01Z</time>
      </trkpt>
      <trkpt lat="42.94975899" lon="13.37450793">
        <ele>583.00000</ele>
        <time>2024-05-10T18:53:03Z</time>
      </trkpt>
      <trkpt lat="42.94983099" lon="13.37453492">
        <ele>581.00000</ele>
        <time>2024-05-10T18:53:04Z</time>
      </trkpt>
      <trkpt lat="42.94990299" lon="13.37454892">
        <ele>580.00000</ele>
        <time>2024-05-10T18:53:06Z</time>
      </trkpt>
      <trkpt lat="42.94997792" lon="13.37455999">
        <ele>579.00000</ele>
        <time>2024-05-10T18:53:07Z</time>
      </trkpt>
      <trkpt lat="42.95004598" lon="13.37457591">
        <ele>578.00000</ele>
        <time>2024-05-10T18:53:09Z</time>
      </trkpt>
      <trkpt lat="42.95011597" lon="13.37459293">
        <ele>577.00000</ele>
        <time>2024-05-10T18:53:10Z</time>
      </trkpt>
      <trkpt lat="42.95018294" lon="13.37461095">
        <ele>577.00000</ele>
        <time>2024-05-10T18:53:11Z</time>
      </trkpt>
      <trkpt lat="42.95024991" lon="13.37463098">
        <ele>577.00000</ele>
        <time>2024-05-10T18:53:13Z</time>
      </trkpt>
      <trkpt lat="42.95032192" lon="13.37465294">
        <ele>576.00000</ele>
        <time>2024-05-10T18:53:14Z</time>
      </trkpt>
      <trkpt lat="42.95039995" lon="13.37467893">
        <ele>576.00000</ele>
        <time>2024-05-10T18:53:16Z</time>
      </trkpt>
      <trkpt lat="42.95048193" lon="13.37470298">
        <ele>576.00000</ele>
        <time>2024-05-10T18:53:18Z</time>
      </trkpt>
      <trkpt lat="42.95055694" lon="13.37472092">
        <ele>576.00000</ele>
        <time>2024-05-10T18:53:19Z</time>
      </trkpt>
      <trkpt lat="42.95063498" lon="13.37474196">
        <ele>576.00000</ele>
        <time>2024-05-10T18:53:21Z</time>
      </trkpt>
      <trkpt lat="42.95070991" lon="13.37474397">
        <ele>575.00000</ele>
        <time>2024-05-10T18:53:22Z</time>
      </trkpt>
      <trkpt lat="42.95078493" lon="13.37475495">
        <ele>575.00000</ele>
        <time>2024-05-10T18:53:24Z</time>
      </trkpt>
      <trkpt lat="42.95087596" lon="13.37475495">
        <ele>574.00000</ele>
        <time>2024-05-10T18:53:25Z</time>
      </trkpt>
      <trkpt lat="42.95095492" lon="13.37473492">
        <ele>573.00000</ele>
        <time>2024-05-10T18:53:27Z</time>
      </trkpt>
      <trkpt lat="42.95102499" lon="13.37470499">
        <ele>572.00000</ele>
        <time>2024-05-10T18:53:29Z</time>
      </trkpt>
      <trkpt lat="42.95109598" lon="13.37467792">
        <ele>571.00000</ele>
        <time>2024-05-10T18:53:30Z</time>
      </trkpt>
      <trkpt lat="42.95116597" lon="13.37466099">
        <ele>571.00000</ele>
        <time>2024-05-10T18:53:31Z</time>
      </trkpt>
      <trkpt lat="42.95123294" lon="13.37466794">
        <ele>571.00000</ele>
        <time>2024-05-10T18:53:33Z</time>
      </trkpt>
      <trkpt lat="42.95128894" lon="13.37468697">
        <ele>571.00000</ele>
        <time>2024-05-10T18:53:34Z</time>
      </trkpt>
      <trkpt lat="42.95134291" lon="13.37470399">
        <ele>571.00000</ele>
        <time>2024-05-10T18:53:35Z</time>
      </trkpt>
      <trkpt lat="42.95140092" lon="13.37472494">
        <ele>571.00000</ele>
        <time>2024-05-10T18:53:36Z</time>
      </trkpt>
      <trkpt lat="42.95145196" lon="13.37476098">
        <ele>571.00000</ele>
        <time>2024-05-10T18:53:37Z</time>
      </trkpt>
      <trkpt lat="42.95149798" lon="13.37479594">
        <ele>571.00000</ele>
        <time>2024-05-10T18:53:38Z</time>
      </trkpt>
      <trkpt lat="42.95154894" lon="13.37483097">
        <ele>571.00000</ele>
        <time>2024-05-10T18:53:40Z</time>
      </trkpt>
      <trkpt lat="42.95161298" lon="13.37484195">
        <ele>570.00000</ele>
        <time>2024-05-10T18:53:41Z</time>
      </trkpt>
      <trkpt lat="42.95168096" lon="13.37482594">
        <ele>569.00000</ele>
        <time>2024-05-10T18:53:42Z</time>
      </trkpt>
      <trkpt lat="42.95174298" lon="13.37480097">
        <ele>567.00000</ele>
        <time>2024-05-10T18:53:44Z</time>
      </trkpt>
      <trkpt lat="42.95180392" lon="13.37477498">
        <ele>565.00000</ele>
        <time>2024-05-10T18:53:45Z</time>
      </trkpt>
      <trkpt lat="42.95186092" lon="13.37476895">
        <ele>563.00000</ele>
        <time>2024-05-10T18:53:46Z</time>
      </trkpt>
      <trkpt lat="42.95191699" lon="13.37476995">
        <ele>562.00000</ele>
        <time>2024-05-10T18:53:47Z</time>
      </trkpt>
      <trkpt lat="42.95198195" lon="13.37477699">
        <ele>560.00000</ele>
        <time>2024-05-10T18:53:48Z</time>
      </trkpt>
      <trkpt lat="42.95204792" lon="13.37480893">
        <ele>559.00000</ele>
        <time>2024-05-10T18:53:50Z</time>
      </trkpt>
      <trkpt lat="42.95211497" lon="13.37486391">
        <ele>558.00000</ele>
        <time>2024-05-10T18:53:51Z</time>
      </trkpt>
      <trkpt lat="42.95217893" lon="13.37493298">
        <ele>558.00000</ele>
        <time>2024-05-10T18:53:53Z</time>
      </trkpt>
      <trkpt lat="42.95223693" lon="13.37501395">
        <ele>559.00000</ele>
        <time>2024-05-10T18:53:55Z</time>
      </trkpt>
      <trkpt lat="42.95228395" lon="13.37510598">
        <ele>559.00000</ele>
        <time>2024-05-10T18:53:56Z</time>
      </trkpt>
      <trkpt lat="42.95231698" lon="13.37520699">
        <ele>560.00000</ele>
        <time>2024-05-10T18:53:58Z</time>
      </trkpt>
      <trkpt lat="42.95233994" lon="13.37531092">
        <ele>560.00000</ele>
        <time>2024-05-10T18:54:00Z</time>
      </trkpt>
      <trkpt lat="42.95236391" lon="13.37540798">
        <ele>559.00000</ele>
        <time>2024-05-10T18:54:01Z</time>
      </trkpt>
      <trkpt lat="42.95238898" lon="13.37550496">
        <ele>558.00000</ele>
        <time>2024-05-10T18:54:03Z</time>
      </trkpt>
      <trkpt lat="42.95240599" lon="13.37559398">
        <ele>557.00000</ele>
        <time>2024-05-10T18:54:04Z</time>
      </trkpt>
      <trkpt lat="42.95243592" lon="13.37568299">
        <ele>555.00000</ele>
        <time>2024-05-10T18:54:05Z</time>
      </trkpt>
      <trkpt lat="42.95247799" lon="13.37577796">
        <ele>552.00000</ele>
        <time>2024-05-10T18:54:07Z</time>
      </trkpt>
      <trkpt lat="42.95252795" lon="13.37586195">
        <ele>549.00000</ele>
        <time>2024-05-10T18:54:09Z</time>
      </trkpt>
      <trkpt lat="42.95258293" lon="13.37594996">
        <ele>547.00000</ele>
        <time>2024-05-10T18:54:10Z</time>
      </trkpt>
      <trkpt lat="42.95264597" lon="13.37603394">
        <ele>544.00000</ele>
        <time>2024-05-10T18:54:12Z</time>
      </trkpt>
      <trkpt lat="42.95271998" lon="13.37609496">
        <ele>542.00000</ele>
        <time>2024-05-10T18:54:14Z</time>
      </trkpt>
      <trkpt lat="42.95280095" lon="13.37613394">
        <ele>540.00000</ele>
        <time>2024-05-10T18:54:15Z</time>
      </trkpt>
      <trkpt lat="42.95288795" lon="13.37614593">
        <ele>538.00000</ele>
        <time>2024-05-10T18:54:17Z</time>
      </trkpt>
      <trkpt lat="42.95298099" lon="13.37614299">
        <ele>538.00000</ele>
        <time>2024-05-10T18:54:19Z</time>
      </trkpt>
      <trkpt lat="42.95308199" lon="13.37613092">
        <ele>537.00000</ele>
        <time>2024-05-10T18:54:21Z</time>
      </trkpt>
      <trkpt lat="42.95318593" lon="13.37612497">
        <ele>536.00000</ele>
        <time>2024-05-10T18:54:23Z</time>
      </trkpt>
      <trkpt lat="42.95329296" lon="13.37611692">
        <ele>535.00000</ele>
        <time>2024-05-10T18:54:25Z</time>
      </trkpt>
      <trkpt lat="42.95339891" lon="13.37610997">
        <ele>534.00000</ele>
        <time>2024-05-10T18:54:27Z</time>
      </trkpt>
      <trkpt lat="42.95350293" lon="13.37609698">
        <ele>534.00000</ele>
        <time>2024-05-10T18:54:30Z</time>
      </trkpt>
      <trkpt lat="42.95359999" lon="13.37607594">
        <ele>533.00000</ele>
        <time>2024-05-10T18:54:31Z</time>
      </trkpt>
      <trkpt lat="42.95369295" lon="13.37605096">
        <ele>532.00000</ele>
        <time>2024-05-10T18:54:33Z</time>
      </trkpt>
      <trkpt lat="42.95378196" lon="13.37601793">
        <ele>532.00000</ele>
        <time>2024-05-10T18:54:35Z</time>
      </trkpt>
      <trkpt lat="42.95386495" lon="13.37597292">
        <ele>532.00000</ele>
        <time>2024-05-10T18:54:37Z</time>
      </trkpt>
      <trkpt lat="42.95394591" lon="13.37592699">
        <ele>532.00000</ele>
        <time>2024-05-10T18:54:39Z</time>
      </trkpt>
      <trkpt lat="42.95402294" lon="13.37587192">
        <ele>532.00000</ele>
        <time>2024-05-10T18:54:40Z</time>
      </trkpt>
      <trkpt lat="42.95409696" lon="13.37581392">
        <ele>532.00000</ele>
        <time>2024-05-10T18:54:42Z</time>
      </trkpt>
      <trkpt lat="42.95416896" lon="13.37575592">
        <ele>532.00000</ele>
        <time>2024-05-10T18:54:44Z</time>
      </trkpt>
      <trkpt lat="42.95423098" lon="13.37569791">
        <ele>532.00000</ele>
        <time>2024-05-10T18:54:45Z</time>
      </trkpt>
      <trkpt lat="42.95428798" lon="13.37563094">
        <ele>532.00000</ele>
        <time>2024-05-10T18:54:47Z</time>
      </trkpt>
      <trkpt lat="42.95434598" lon="13.37556598">
        <ele>533.00000</ele>
        <time>2024-05-10T18:54:48Z</time>
      </trkpt>
      <trkpt lat="42.95440197" lon="13.37550496">
        <ele>533.00000</ele>
        <time>2024-05-10T18:54:50Z</time>
      </trkpt>
      <trkpt lat="42.95445193" lon="13.37544897">
        <ele>533.00000</ele>
        <time>2024-05-10T18:54:51Z</time>
      </trkpt>
      <trkpt lat="42.95450993" lon="13.37539893">
        <ele>532.00000</ele>
        <time>2024-05-10T18:54:52Z</time>
      </trkpt>
      <trkpt lat="42.95457095" lon="13.37534998">
        <ele>531.00000</ele>
        <time>2024-05-10T18:54:54Z</time>
      </trkpt>
      <trkpt lat="42.95464195" lon="13.37532299">
        <ele>531.00000</ele>
        <time>2024-05-10T18:54:55Z</time>
      </trkpt>
      <trkpt lat="42.95471697" lon="13.37531796">
        <ele>532.00000</ele>
        <time>2024-05-10T18:54:57Z</time>
      </trkpt>
      <trkpt lat="42.95479098" lon="13.37533297">
        <ele>532.00000</ele>
        <time>2024-05-10T18:54:58Z</time>
      </trkpt>
      <trkpt lat="42.95486499" lon="13.37536892">
        <ele>531.00000</ele>
        <time>2024-05-10T18:55:00Z</time>
      </trkpt>
      <trkpt lat="42.95493397" lon="13.37541494">
        <ele>531.00000</ele>
        <time>2024-05-10T18:55:01Z</time>
      </trkpt>
      <trkpt lat="42.95499793" lon="13.37546498">
        <ele>530.00000</ele>
        <time>2024-05-10T18:55:03Z</time>
      </trkpt>
      <trkpt lat="42.95504897" lon="13.37552298">
        <ele>529.00000</ele>
        <time>2024-05-10T18:55:04Z</time>
      </trkpt>
      <trkpt lat="42.95509591" lon="13.37558593">
        <ele>528.00000</ele>
        <time>2024-05-10T18:55:06Z</time>
      </trkpt>
      <trkpt lat="42.95513992" lon="13.37564293">
        <ele>527.00000</ele>
        <time>2024-05-10T18:55:07Z</time>
      </trkpt>
      <trkpt lat="42.95518392" lon="13.37569196">
        <ele>526.00000</ele>
        <time>2024-05-10T18:55:08Z</time>
      </trkpt>
      <trkpt lat="42.95523899" lon="13.37571392">
        <ele>525.00000</ele>
        <time>2024-05-10T18:55:09Z</time>
      </trkpt>
      <trkpt lat="42.95530395" lon="13.37569992">
        <ele>523.00000</ele>
        <time>2024-05-10T18:55:10Z</time>
      </trkpt>
      <trkpt lat="42.95537092" lon="13.37566598">
        <ele>522.00000</ele>
        <time>2024-05-10T18:55:12Z</time>
      </trkpt>
      <trkpt lat="42.95543999" lon="13.37560395">
        <ele>521.00000</ele>
        <time>2024-05-10T18:55:13Z</time>
      </trkpt>
      <trkpt lat="42.95551392" lon="13.37552994">
        <ele>520.00000</ele>
        <time>2024-05-10T18:55:15Z</time>
      </trkpt>
      <trkpt lat="42.95559095" lon="13.37544796">
        <ele>519.00000</ele>
        <time>2024-05-10T18:55:17Z</time>
      </trkpt>
      <trkpt lat="42.95566798" lon="13.37536792">
        <ele>518.00000</ele>
        <time>2024-05-10T18:55:19Z</time>
      </trkpt>
      <trkpt lat="42.95574392" lon="13.37528393">
        <ele>517.00000</ele>
        <time>2024-05-10T18:55:21Z</time>
      </trkpt>
      <trkpt lat="42.95582899" lon="13.37520196">
        <ele>515.00000</ele>
        <time>2024-05-10T18:55:23Z</time>
      </trkpt>
      <trkpt lat="42.95591399" lon="13.37512291">
        <ele>514.00000</ele>
        <time>2024-05-10T18:55:25Z</time>
      </trkpt>
      <trkpt lat="42.95599697" lon="13.37503499">
        <ele>513.00000</ele>
        <time>2024-05-10T18:55:27Z</time>
      </trkpt>
      <trkpt lat="42.95607995" lon="13.37493399">
        <ele>511.00000</ele>
        <time>2024-05-10T18:55:30Z</time>
      </trkpt>
      <trkpt lat="42.95616192" lon="13.37481798">
        <ele>510.00000</ele>
        <time>2024-05-10T18:55:32Z</time>
      </trkpt>
      <trkpt lat="42.95624096" lon="13.37469695">
        <ele>508.00000</ele>
        <time>2024-05-10T18:55:34Z</time>
      </trkpt>
      <trkpt lat="42.95631892" lon="13.37457398">
        <ele>506.00000</ele>
        <time>2024-05-10T18:55:37Z</time>
      </trkpt>
      <trkpt lat="42.95639796" lon="13.37444893">
        <ele>504.00000</ele>
        <time>2024-05-10T18:55:39Z</time>
      </trkpt>
      <trkpt lat="42.95648194" lon="13.37431892">
        <ele>504.00000</ele>
        <time>2024-05-10T18:55:42Z</time>
      </trkpt>
      <trkpt lat="42.95655093" lon="13.37418892">
        <ele>503.00000</ele>
        <time>2024-05-10T18:55:44Z</time>
      </trkpt>
      <trkpt lat="42.95660591" lon="13.37404794">
        <ele>503.00000</ele>
        <time>2024-05-10T18:55:46Z</time>
      </trkpt>
      <trkpt lat="42.95664397" lon="13.37391098">
        <ele>503.00000</ele>
        <time>2024-05-10T18:55:49Z</time>
      </trkpt>
      <trkpt lat="42.95667196" lon="13.37379799">
        <ele>502.00000</ele>
        <time>2024-05-10T18:55:50Z</time>
      </trkpt>
      <trkpt lat="42.95669996" lon="13.37369891">
        <ele>501.00000</ele>
        <time>2024-05-10T18:55:52Z</time>
      </trkpt>
      <trkpt lat="42.95674991" lon="13.37362096">
        <ele>501.00000</ele>
        <time>2024-05-10T18:55:53Z</time>
      </trkpt>
      <trkpt lat="42.95680498" lon="13.37355692">
        <ele>500.00000</ele>
        <time>2024-05-10T18:55:55Z</time>
      </trkpt>
      <trkpt lat="42.95687698" lon="13.37349498">
        <ele>499.00000</ele>
        <time>2024-05-10T18:55:57Z</time>
      </trkpt>
      <trkpt lat="42.95695795" lon="13.37343497">
        <ele>498.00000</ele>
        <time>2024-05-10T18:55:58Z</time>
      </trkpt>
      <trkpt lat="42.95704093" lon="13.37336992">
        <ele>497.00000</ele>
        <time>2024-05-10T18:56:00Z</time>
      </trkpt>
      <trkpt lat="42.95712593" lon="13.37330597">
        <ele>495.00000</ele>
        <time>2024-05-10T18:56:02Z</time>
      </trkpt>
      <trkpt lat="42.95721394" lon="13.37324495">
        <ele>494.00000</ele>
        <time>2024-05-10T18:56:04Z</time>
      </trkpt>
      <trkpt lat="42.95730597" lon="13.37319592">
        <ele>492.00000</ele>
        <time>2024-05-10T18:56:06Z</time>
      </trkpt>
      <trkpt lat="42.95739892" lon="13.37315795">
        <ele>490.00000</ele>
        <time>2024-05-10T18:56:08Z</time>
      </trkpt>
      <trkpt lat="42.95748693" lon="13.37312894">
        <ele>488.00000</ele>
        <time>2024-05-10T18:56:10Z</time>
      </trkpt>
      <trkpt lat="42.95756799" lon="13.37310296">
        <ele>487.00000</ele>
        <time>2024-05-10T18:56:12Z</time>
      </trkpt>
      <trkpt lat="42.95764594" lon="13.37308494">
        <ele>486.00000</ele>
        <time>2024-05-10T18:56:13Z</time>
      </trkpt>
      <trkpt lat="42.95771693" lon="13.37306298">
        <ele>485.00000</ele>
        <time>2024-05-10T18:56:15Z</time>
      </trkpt>
      <trkpt lat="42.95777997" lon="13.37304295">
        <ele>484.00000</ele>
        <time>2024-05-10T18:56:16Z</time>
      </trkpt>
      <trkpt lat="42.95783596" lon="13.37300891">
        <ele>483.00000</ele>
        <time>2024-05-10T18:56:17Z</time>
      </trkpt>
      <trkpt lat="42.95788097" lon="13.37296198">
        <ele>482.00000</ele>
        <time>2024-05-10T18:56:18Z</time>
      </trkpt>
      <trkpt lat="42.95792891" lon="13.37289593">
        <ele>481.00000</ele>
        <time>2024-05-10T18:56:20Z</time>
      </trkpt>
      <trkpt lat="42.95796495" lon="13.37281194">
        <ele>480.00000</ele>
        <time>2024-05-10T18:56:21Z</time>
      </trkpt>
      <trkpt lat="42.95798691" lon="13.37271597">
        <ele>480.00000</ele>
        <time>2024-05-10T18:56:23Z</time>
      </trkpt>
      <trkpt lat="42.95799194" lon="13.37260591">
        <ele>480.00000</ele>
        <time>2024-05-10T18:56:24Z</time>
      </trkpt>
      <trkpt lat="42.95798297" lon="13.37248597">
        <ele>481.00000</ele>
        <time>2024-05-10T18:56:26Z</time>
      </trkpt>
      <trkpt lat="42.95796093" lon="13.37235999">
        <ele>480.00000</ele>
        <time>2024-05-10T18:56:28Z</time>
      </trkpt>
      <trkpt lat="42.95793696" lon="13.37222496">
        <ele>479.00000</ele>
        <time>2024-05-10T18:56:30Z</time>
      </trkpt>
      <trkpt lat="42.95791793" lon="13.37208598">
        <ele>478.00000</ele>
        <time>2024-05-10T18:56:32Z</time>
      </trkpt>
      <trkpt lat="42.95789295" lon="13.37194492">
        <ele>477.00000</ele>
        <time>2024-05-10T18:56:34Z</time>
      </trkpt>
      <trkpt lat="42.95787393" lon="13.37180192">
        <ele>475.00000</ele>
        <time>2024-05-10T18:56:36Z</time>
      </trkpt>
      <trkpt lat="42.95784995" lon="13.37167091">
        <ele>474.00000</ele>
        <time>2024-05-10T18:56:38Z</time>
      </trkpt>
      <trkpt lat="42.95782397" lon="13.37154292">
        <ele>473.00000</ele>
        <time>2024-05-10T18:56:40Z</time>
      </trkpt>
      <trkpt lat="42.95781592" lon="13.37143697">
        <ele>473.00000</ele>
        <time>2024-05-10T18:56:42Z</time>
      </trkpt>
      <trkpt lat="42.95781894" lon="13.37135592">
        <ele>473.00000</ele>
        <time>2024-05-10T18:56:43Z</time>
      </trkpt>
      <trkpt lat="42.95783193" lon="13.37129599">
        <ele>473.00000</ele>
        <time>2024-05-10T18:56:44Z</time>
      </trkpt>
      <trkpt lat="42.95786395" lon="13.37125391">
        <ele>474.00000</ele>
        <time>2024-05-10T18:56:45Z</time>
      </trkpt>
      <trkpt lat="42.95789798" lon="13.37122198">
        <ele>474.00000</ele>
        <time>2024-05-10T18:56:46Z</time>
      </trkpt>
      <trkpt lat="42.95793796" lon="13.37119692">
        <ele>474.00000</ele>
        <time>2024-05-10T18:56:46Z</time>
      </trkpt>
      <trkpt lat="42.95798096" lon="13.37118191">
        <ele>474.00000</ele>
        <time>2024-05-10T18:56:47Z</time>
      </trkpt>
      <trkpt lat="42.95802698" lon="13.37117194">
        <ele>474.00000</ele>
        <time>2024-05-10T18:56:48Z</time>
      </trkpt>
      <trkpt lat="42.95807492" lon="13.37116993">
        <ele>474.00000</ele>
        <time>2024-05-10T18:56:49Z</time>
      </trkpt>
      <trkpt lat="42.95812396" lon="13.37117797">
        <ele>473.00000</ele>
        <time>2024-05-10T18:56:50Z</time>
      </trkpt>
      <trkpt lat="42.95817299" lon="13.37118694">
        <ele>473.00000</ele>
        <time>2024-05-10T18:56:51Z</time>
      </trkpt>
      <trkpt lat="42.95822194" lon="13.37120396">
        <ele>472.00000</ele>
        <time>2024-05-10T18:56:52Z</time>
      </trkpt>
      <trkpt lat="42.95827299" lon="13.37121494">
        <ele>472.00000</ele>
        <time>2024-05-10T18:56:53Z</time>
      </trkpt>
      <trkpt lat="42.95832999" lon="13.37122097">
        <ele>471.00000</ele>
        <time>2024-05-10T18:56:54Z</time>
      </trkpt>
      <trkpt lat="42.95839394" lon="13.37122399">
        <ele>471.00000</ele>
        <time>2024-05-10T18:56:56Z</time>
      </trkpt>
      <trkpt lat="42.95845798" lon="13.37123497">
        <ele>471.00000</ele>
        <time>2024-05-10T18:56:57Z</time>
      </trkpt>
      <trkpt lat="42.95852595" lon="13.37124897">
        <ele>471.00000</ele>
        <time>2024-05-10T18:56:58Z</time>
      </trkpt>
      <trkpt lat="42.95859293" lon="13.37127193">
        <ele>470.00000</ele>
        <time>2024-05-10T18:57:00Z</time>
      </trkpt>
      <trkpt lat="42.95865797" lon="13.37130697">
        <ele>470.00000</ele>
        <time>2024-05-10T18:57:01Z</time>
      </trkpt>
      <trkpt lat="42.95871991" lon="13.37134997">
        <ele>470.00000</ele>
        <time>2024-05-10T18:57:02Z</time>
      </trkpt>
      <trkpt lat="42.95877892" lon="13.37140294">
        <ele>470.00000</ele>
        <time>2024-05-10T18:57:04Z</time>
      </trkpt>
      <trkpt lat="42.95884497" lon="13.37145499">
        <ele>470.00000</ele>
        <time>2024-05-10T18:57:05Z</time>
      </trkpt>
      <trkpt lat="42.95890792" lon="13.37149699">
        <ele>469.00000</ele>
        <time>2024-05-10T18:57:07Z</time>
      </trkpt>
      <trkpt lat="42.95897598" lon="13.37151492">
        <ele>468.00000</ele>
        <time>2024-05-10T18:57:08Z</time>
      </trkpt>
      <trkpt lat="42.95905192" lon="13.37150394">
        <ele>467.00000</ele>
        <time>2024-05-10T18:57:10Z</time>
      </trkpt>
      <trkpt lat="42.95914093" lon="13.37147293">
        <ele>467.00000</ele>
        <time>2024-05-10T18:57:12Z</time>
      </trkpt>
      <trkpt lat="42.95923096" lon="13.37144695">
        <ele>465.00000</ele>
        <time>2024-05-10T18:57:13Z</time>
      </trkpt>
      <trkpt lat="42.95932299" lon="13.37141795">
        <ele>463.00000</ele>
        <time>2024-05-10T18:57:15Z</time>
      </trkpt>
      <trkpt lat="42.95942097" lon="13.37137796">
        <ele>461.00000</ele>
        <time>2024-05-10T18:57:17Z</time>
      </trkpt>
      <trkpt lat="42.95952198" lon="13.37132994">
        <ele>460.00000</ele>
        <time>2024-05-10T18:57:19Z</time>
      </trkpt>
      <trkpt lat="42.95962993" lon="13.37126892">
        <ele>458.00000</ele>
        <time>2024-05-10T18:57:22Z</time>
      </trkpt>
      <trkpt lat="42.95973898" lon="13.37120295">
        <ele>457.00000</ele>
        <time>2024-05-10T18:57:24Z</time>
      </trkpt>
      <trkpt lat="42.95985599" lon="13.37113598">
        <ele>456.00000</ele>
        <time>2024-05-10T18:57:27Z</time>
      </trkpt>
      <trkpt lat="42.95996898" lon="13.37105694">
        <ele>454.00000</ele>
        <time>2024-05-10T18:57:29Z</time>
      </trkpt>
      <trkpt lat="42.96007795" lon="13.37097396">
        <ele>453.00000</ele>
        <time>2024-05-10T18:57:32Z</time>
      </trkpt>
      <trkpt lat="42.96019194" lon="13.37091696">
        <ele>452.00000</ele>
        <time>2024-05-10T18:57:34Z</time>
      </trkpt>
      <trkpt lat="42.96029898" lon="13.37088494">
        <ele>451.00000</ele>
        <time>2024-05-10T18:57:36Z</time>
      </trkpt>
      <trkpt lat="42.96040199" lon="13.37088192">
        <ele>451.00000</ele>
        <time>2024-05-10T18:57:38Z</time>
      </trkpt>
      <trkpt lat="42.96049897" lon="13.37090497">
        <ele>451.00000</ele>
        <time>2024-05-10T18:57:40Z</time>
      </trkpt>
      <trkpt lat="42.96058899" lon="13.37094294">
        <ele>451.00000</ele>
        <time>2024-05-10T18:57:42Z</time>
      </trkpt>
      <trkpt lat="42.96067298" lon="13.37099692">
        <ele>450.00000</ele>
        <time>2024-05-10T18:57:44Z</time>
      </trkpt>
      <trkpt lat="42.96074791" lon="13.37106691">
        <ele>450.00000</ele>
        <time>2024-05-10T18:57:46Z</time>
      </trkpt>
      <trkpt lat="42.96082394" lon="13.37114092">
        <ele>450.00000</ele>
        <time>2024-05-10T18:57:48Z</time>
      </trkpt>
      <trkpt lat="42.96090097" lon="13.37121594">
        <ele>450.00000</ele>
        <time>2024-05-10T18:57:50Z</time>
      </trkpt>
      <trkpt lat="42.96097397" lon="13.37128291">
        <ele>450.00000</ele>
        <time>2024-05-10T18:57:52Z</time>
      </trkpt>
      <trkpt lat="42.96104899" lon="13.37133094">
        <ele>450.00000</ele>
        <time>2024-05-10T18:57:53Z</time>
      </trkpt>
      <trkpt lat="42.96112895" lon="13.37133999">
        <ele>449.00000</ele>
        <time>2024-05-10T18:57:55Z</time>
      </trkpt>
      <trkpt lat="42.96120297" lon="13.37130697">
        <ele>449.00000</ele>
        <time>2024-05-10T18:57:56Z</time>
      </trkpt>
      <trkpt lat="42.96125896" lon="13.37124796">
        <ele>449.00000</ele>
        <time>2024-05-10T18:57:58Z</time>
      </trkpt>
      <trkpt lat="42.96129793" lon="13.37116599">
        <ele>449.00000</ele>
        <time>2024-05-10T18:57:59Z</time>
      </trkpt>
      <trkpt lat="42.96132794" lon="13.37107898">
        <ele>448.00000</ele>
        <time>2024-05-10T18:58:01Z</time>
      </trkpt>
      <trkpt lat="42.96135795" lon="13.37099491">
        <ele>448.00000</ele>
        <time>2024-05-10T18:58:02Z</time>
      </trkpt>
      <trkpt lat="42.96139491" lon="13.37091092">
        <ele>448.00000</ele>
        <time>2024-05-10T18:58:03Z</time>
      </trkpt>
      <trkpt lat="42.96143498" lon="13.37083691">
        <ele>448.00000</ele>
        <time>2024-05-10T18:58:05Z</time>
      </trkpt>
      <trkpt lat="42.96148192" lon="13.37077095">
        <ele>449.00000</ele>
        <time>2024-05-10T18:58:06Z</time>
      </trkpt>
      <trkpt lat="42.96152994" lon="13.37071898">
        <ele>451.00000</ele>
        <time>2024-05-10T18:58:07Z</time>
      </trkpt>
      <trkpt lat="42.96157797" lon="13.37067397">
        <ele>452.00000</ele>
        <time>2024-05-10T18:58:08Z</time>
      </trkpt>
      <trkpt lat="42.96162692" lon="13.37063097">
        <ele>452.00000</ele>
        <time>2024-05-10T18:58:10Z</time>
      </trkpt>
      <trkpt lat="42.96166799" lon="13.37058898">
        <ele>453.00000</ele>
        <time>2024-05-10T18:58:11Z</time>
      </trkpt>
      <trkpt lat="42.96170697" lon="13.37054396">
        <ele>454.00000</ele>
        <time>2024-05-10T18:58:12Z</time>
      </trkpt>
      <trkpt lat="42.96173991" lon="13.37050298">
        <ele>454.00000</ele>
        <time>2024-05-10T18:58:13Z</time>
      </trkpt>
      <trkpt lat="42.96177696" lon="13.37045998">
        <ele>454.00000</ele>
        <time>2024-05-10T18:58:14Z</time>
      </trkpt>
      <trkpt lat="42.96181191" lon="13.37042897">
        <ele>455.00000</ele>
        <time>2024-05-10T18:58:14Z</time>
      </trkpt>
      <trkpt lat="42.96184695" lon="13.37040298">
        <ele>455.00000</ele>
        <time>2024-05-10T18:58:15Z</time>
      </trkpt>
      <trkpt lat="42.96188098" lon="13.37037398">
        <ele>455.00000</ele>
        <time>2024-05-10T18:58:16Z</time>
      </trkpt>
      <trkpt lat="42.96190897" lon="13.37034498">
        <ele>456.00000</ele>
        <time>2024-05-10T18:58:17Z</time>
      </trkpt>
      <trkpt lat="42.96193295" lon="13.37031296">
        <ele>456.00000</ele>
        <time>2024-05-10T18:58:17Z</time>
      </trkpt>
      <trkpt lat="42.96195994" lon="13.37028094">
        <ele>456.00000</ele>
        <time>2024-05-10T18:58:18Z</time>
      </trkpt>
      <trkpt lat="42.96198198" lon="13.37025697">
        <ele>456.00000</ele>
        <time>2024-05-10T18:58:19Z</time>
      </trkpt>
      <trkpt lat="42.96200394" lon="13.37023593">
        <ele>456.00000</ele>
        <time>2024-05-10T18:58:19Z</time>
      </trkpt>
      <trkpt lat="42.96202791" lon="13.37023098">
        <ele>456.00000</ele>
        <time>2024-05-10T18:58:20Z</time>
      </trkpt>
      <trkpt lat="42.96204593" lon="13.37024599">
        <ele>456.00000</ele>
        <time>2024-05-10T18:58:20Z</time>
      </trkpt>
      <trkpt lat="42.96205298" lon="13.37027197">
        <ele>456.00000</ele>
        <time>2024-05-10T18:58:21Z</time>
      </trkpt>
      <trkpt lat="42.96204392" lon="13.37031698">
        <ele>456.00000</ele>
        <time>2024-05-10T18:58:21Z</time>
      </trkpt>
      <trkpt lat="42.96202397" lon="13.37036694">
        <ele>455.00000</ele>
        <time>2024-05-10T18:58:22Z</time>
      </trkpt>
      <trkpt lat="42.96199992" lon="13.37042192">
        <ele>455.00000</ele>
        <time>2024-05-10T18:58:23Z</time>
      </trkpt>
      <trkpt lat="42.96197997" lon="13.37048093">
        <ele>455.00000</ele>
        <time>2024-05-10T18:58:24Z</time>
      </trkpt>
      <trkpt lat="42.96195792" lon="13.37055394">
        <ele>454.00000</ele>
        <time>2024-05-10T18:58:25Z</time>
      </trkpt>
      <trkpt lat="42.96193496" lon="13.37062393">
        <ele>454.00000</ele>
        <time>2024-05-10T18:58:26Z</time>
      </trkpt>
      <trkpt lat="42.96191099" lon="13.37069895">
        <ele>454.00000</ele>
        <time>2024-05-10T18:58:27Z</time>
      </trkpt>
      <trkpt lat="42.96188995" lon="13.37076793">
        <ele>453.00000</ele>
        <time>2024-05-10T18:58:29Z</time>
      </trkpt>
      <trkpt lat="42.96186598" lon="13.37084094">
        <ele>453.00000</ele>
        <time>2024-05-10T18:58:30Z</time>
      </trkpt>
      <trkpt lat="42.96184192" lon="13.37091696">
        <ele>452.00000</ele>
        <time>2024-05-10T18:58:31Z</time>
      </trkpt>
      <trkpt lat="42.96181795" lon="13.37099399">
        <ele>452.00000</ele>
        <time>2024-05-10T18:58:32Z</time>
      </trkpt>
      <trkpt lat="42.96179297" lon="13.37107395">
        <ele>451.00000</ele>
        <time>2024-05-10T18:58:33Z</time>
      </trkpt>
      <trkpt lat="42.96177495" lon="13.37115492">
        <ele>451.00000</ele>
        <time>2024-05-10T18:58:35Z</time>
      </trkpt>
      <trkpt lat="42.96175994" lon="13.37123799">
        <ele>451.00000</ele>
        <time>2024-05-10T18:58:36Z</time>
      </trkpt>
      <trkpt lat="42.96173597" lon="13.37131694">
        <ele>452.00000</ele>
        <time>2024-05-10T18:58:37Z</time>
      </trkpt>
      <trkpt lat="42.96170999" lon="13.37139297">
        <ele>452.00000</ele>
        <time>2024-05-10T18:58:38Z</time>
      </trkpt>
      <trkpt lat="42.96168199" lon="13.37147092">
        <ele>453.00000</ele>
        <time>2024-05-10T18:58:40Z</time>
      </trkpt>
      <trkpt lat="42.96167093" lon="13.37154996">
        <ele>453.00000</ele>
        <time>2024-05-10T18:58:41Z</time>
      </trkpt>
      <trkpt lat="42.96168392" lon="13.37162892">
        <ele>454.00000</ele>
        <time>2024-05-10T18:58:42Z</time>
      </trkpt>
      <trkpt lat="42.96170496" lon="13.37170494">
        <ele>456.00000</ele>
        <time>2024-05-10T18:58:43Z</time>
      </trkpt>
      <trkpt lat="42.96172499" lon="13.37177694">
        <ele>457.00000</ele>
        <time>2024-05-10T18:58:44Z</time>
      </trkpt>
      <trkpt lat="42.96174192" lon="13.37184299">
        <ele>458.00000</ele>
        <time>2024-05-10T18:58:45Z</time>
      </trkpt>
      <trkpt lat="42.96175793" lon="13.37190393">
        <ele>459.00000</ele>
        <time>2024-05-10T18:58:46Z</time>
      </trkpt>
      <trkpt lat="42.96177495" lon="13.37196093">
        <ele>461.00000</ele>
        <time>2024-05-10T18:58:47Z</time>
      </trkpt>
      <trkpt lat="42.96178895" lon="13.37201097">
        <ele>461.00000</ele>
        <time>2024-05-10T18:58:48Z</time>
      </trkpt>
      <trkpt lat="42.96180395" lon="13.37206193">
        <ele>462.00000</ele>
        <time>2024-05-10T18:58:49Z</time>
      </trkpt>
      <trkpt lat="42.96181493" lon="13.37210593">
        <ele>463.00000</ele>
        <time>2024-05-10T18:58:49Z</time>
      </trkpt>
      <trkpt lat="42.96182893" lon="13.37215295">
        <ele>463.00000</ele>
        <time>2024-05-10T18:58:50Z</time>
      </trkpt>
      <trkpt lat="42.96184695" lon="13.37219495">
        <ele>464.00000</ele>
        <time>2024-05-10T18:58:51Z</time>
      </trkpt>
      <trkpt lat="42.96186899" lon="13.37223493">
        <ele>464.00000</ele>
        <time>2024-05-10T18:58:52Z</time>
      </trkpt>
      <trkpt lat="42.96189598" lon="13.37226594">
        <ele>464.00000</ele>
        <time>2024-05-10T18:58:52Z</time>
      </trkpt>
      <trkpt lat="42.96192398" lon="13.37229394">
        <ele>465.00000</ele>
        <time>2024-05-10T18:58:53Z</time>
      </trkpt>
      <trkpt lat="42.96195792" lon="13.37232596">
        <ele>465.00000</ele>
        <time>2024-05-10T18:58:54Z</time>
      </trkpt>
      <trkpt lat="42.96199397" lon="13.37235094">
        <ele>466.00000</ele>
        <time>2024-05-10T18:58:55Z</time>
      </trkpt>
      <trkpt lat="42.96203093" lon="13.37236393">
        <ele>466.00000</ele>
        <time>2024-05-10T18:58:55Z</time>
      </trkpt>
      <trkpt lat="42.96206798" lon="13.37235798">
        <ele>467.00000</ele>
        <time>2024-05-10T18:58:56Z</time>
      </trkpt>
      <trkpt lat="42.96210796" lon="13.37235596">
        <ele>467.00000</ele>
        <time>2024-05-10T18:58:57Z</time>
      </trkpt>
      <trkpt lat="42.96214291" lon="13.37235898">
        <ele>467.00000</ele>
        <time>2024-05-10T18:58:58Z</time>
      </trkpt>
      <trkpt lat="42.96217996" lon="13.37236896">
        <ele>468.00000</ele>
        <time>2024-05-10T18:58:58Z</time>
      </trkpt>
      <trkpt lat="42.96221097" lon="13.37237197">
        <ele>468.00000</ele>
        <time>2024-05-10T18:58:59Z</time>
      </trkpt>
      <trkpt lat="42.96224299" lon="13.37237692">
        <ele>468.00000</ele>
        <time>2024-05-10T18:59:00Z</time>
      </trkpt>
      <trkpt lat="42.96227392" lon="13.37237399">
        <ele>468.00000</ele>
        <time>2024-05-10T18:59:00Z</time>
      </trkpt>
      <trkpt lat="42.96230795" lon="13.37236896">
        <ele>468.00000</ele>
        <time>2024-05-10T18:59:01Z</time>
      </trkpt>
      <trkpt lat="42.96233796" lon="13.37236896">
        <ele>468.00000</ele>
        <time>2024-05-10T18:59:02Z</time>
      </trkpt>
      <trkpt lat="42.96236495" lon="13.37237499">
        <ele>468.00000</ele>
        <time>2024-05-10T18:59:02Z</time>
      </trkpt>
      <trkpt lat="42.96239395" lon="13.37237692">
        <ele>468.00000</ele>
        <time>2024-05-10T18:59:03Z</time>
      </trkpt>
      <trkpt lat="42.96242295" lon="13.37238195">
        <ele>469.00000</ele>
        <time>2024-05-10T18:59:03Z</time>
      </trkpt>
      <trkpt lat="42.96245397" lon="13.37238698">
        <ele>469.00000</ele>
        <time>2024-05-10T18:59:04Z</time>
      </trkpt>
      <trkpt lat="42.96247995" lon="13.37239695">
        <ele>469.00000</ele>
        <time>2024-05-10T18:59:05Z</time>
      </trkpt>
      <trkpt lat="42.96250292" lon="13.37240098">
        <ele>469.00000</ele>
        <time>2024-05-10T18:59:05Z</time>
      </trkpt>
      <trkpt lat="42.96252898" lon="13.37240994">
        <ele>469.00000</ele>
        <time>2024-05-10T18:59:06Z</time>
      </trkpt>
      <trkpt lat="42.96255296" lon="13.37241698">
        <ele>469.00000</ele>
        <time>2024-05-10T18:59:06Z</time>
      </trkpt>
      <trkpt lat="42.96257793" lon="13.37242897">
        <ele>469.00000</ele>
        <time>2024-05-10T18:59:07Z</time>
      </trkpt>
      <trkpt lat="42.96259998" lon="13.37244196">
        <ele>469.00000</ele>
        <time>2024-05-10T18:59:07Z</time>
      </trkpt>
      <trkpt lat="42.96262697" lon="13.37245093">
        <ele>469.00000</ele>
        <time>2024-05-10T18:59:08Z</time>
      </trkpt>
      <trkpt lat="42.96265094" lon="13.37246191">
        <ele>469.00000</ele>
        <time>2024-05-10T18:59:08Z</time>
      </trkpt>
      <trkpt lat="42.96267298" lon="13.37247692">
        <ele>469.00000</ele>
        <time>2024-05-10T18:59:09Z</time>
      </trkpt>
      <trkpt lat="42.96269293" lon="13.37249896">
        <ele>469.00000</ele>
        <time>2024-05-10T18:59:09Z</time>
      </trkpt>
      <trkpt lat="42.96270894" lon="13.37252293">
        <ele>469.00000</ele>
        <time>2024-05-10T18:59:10Z</time>
      </trkpt>
      <trkpt lat="42.96273199" lon="13.37254196">
        <ele>469.00000</ele>
        <time>2024-05-10T18:59:10Z</time>
      </trkpt>
      <trkpt lat="42.96275395" lon="13.37255696">
        <ele>469.00000</ele>
        <time>2024-05-10T18:59:11Z</time>
      </trkpt>
      <trkpt lat="42.96277499" lon="13.37256694">
        <ele>469.00000</ele>
        <time>2024-05-10T18:59:11Z</time>
      </trkpt>
      <trkpt lat="42.96279695" lon="13.37257892">
        <ele>469.00000</ele>
        <time>2024-05-10T18:59:12Z</time>
      </trkpt>
      <trkpt lat="42.96281699" lon="13.37259292">
        <ele>470.00000</ele>
        <time>2024-05-10T18:59:12Z</time>
      </trkpt>
      <trkpt lat="42.96283291" lon="13.37260893">
        <ele>470.00000</ele>
        <time>2024-05-10T18:59:12Z</time>
      </trkpt>
      <trkpt lat="42.96284993" lon="13.37261999">
        <ele>470.00000</ele>
        <time>2024-05-10T18:59:13Z</time>
      </trkpt>
      <trkpt lat="42.96286795" lon="13.37262595">
        <ele>470.00000</ele>
        <time>2024-05-10T18:59:13Z</time>
      </trkpt>
      <trkpt lat="42.96288697" lon="13.37264095">
        <ele>471.00000</ele>
        <time>2024-05-10T18:59:14Z</time>
      </trkpt>
      <trkpt lat="42.96290198" lon="13.37265998">
        <ele>471.00000</ele>
        <time>2024-05-10T18:59:14Z</time>
      </trkpt>
      <trkpt lat="42.96291698" lon="13.37267699">
        <ele>471.00000</ele>
        <time>2024-05-10T18:59:14Z</time>
      </trkpt>
      <trkpt lat="42.96293391" lon="13.37268898">
        <ele>471.00000</ele>
        <time>2024-05-10T18:59:15Z</time>
      </trkpt>
      <trkpt lat="42.96295294" lon="13.37269795">
        <ele>471.00000</ele>
        <time>2024-05-10T18:59:15Z</time>
      </trkpt>
      <trkpt lat="42.96297197" lon="13.37270197">
        <ele>471.00000</ele>
        <time>2024-05-10T18:59:16Z</time>
      </trkpt>
      <trkpt lat="42.96299099" lon="13.37270298">
        <ele>471.00000</ele>
        <time>2024-05-10T18:59:16Z</time>
      </trkpt>
      <trkpt lat="42.96300793" lon="13.37270691">
        <ele>471.00000</ele>
        <time>2024-05-10T18:59:16Z</time>
      </trkpt>
      <trkpt lat="42.96302595" lon="13.37271697">
        <ele>471.00000</ele>
        <time>2024-05-10T18:59:17Z</time>
      </trkpt>
      <trkpt lat="42.96303793" lon="13.37273097">
        <ele>471.00000</ele>
        <time>2024-05-10T18:59:17Z</time>
      </trkpt>
      <trkpt lat="42.96305092" lon="13.37274991">
        <ele>471.00000</ele>
        <time>2024-05-10T18:59:17Z</time>
      </trkpt>
      <trkpt lat="42.96306593" lon="13.37277196">
        <ele>472.00000</ele>
        <time>2024-05-10T18:59:18Z</time>
      </trkpt>
      <trkpt lat="42.96308395" lon="13.37278596">
        <ele>472.00000</ele>
        <time>2024-05-10T18:59:18Z</time>
      </trkpt>
      <trkpt lat="42.96310096" lon="13.37278897">
        <ele>472.00000</ele>
        <time>2024-05-10T18:59:19Z</time>
      </trkpt>
      <trkpt lat="42.96312393" lon="13.37279492">
        <ele>472.00000</ele>
        <time>2024-05-10T18:59:19Z</time>
      </trkpt>
      <trkpt lat="42.96314497" lon="13.37279995">
        <ele>472.00000</ele>
        <time>2024-05-10T18:59:19Z</time>
      </trkpt>
      <trkpt lat="42.96316592" lon="13.37280699">
        <ele>472.00000</ele>
        <time>2024-05-10T18:59:20Z</time>
      </trkpt>
      <trkpt lat="42.96318093" lon="13.37282292">
        <ele>473.00000</ele>
        <time>2024-05-10T18:59:20Z</time>
      </trkpt>
      <trkpt lat="42.96319392" lon="13.37284094">
        <ele>473.00000</ele>
        <time>2024-05-10T18:59:21Z</time>
      </trkpt>
      <trkpt lat="42.96320993" lon="13.37286399">
        <ele>473.00000</ele>
        <time>2024-05-10T18:59:21Z</time>
      </trkpt>
      <trkpt lat="42.96322795" lon="13.37287296">
        <ele>473.00000</ele>
        <time>2024-05-10T18:59:21Z</time>
      </trkpt>
      <trkpt lat="42.96324698" lon="13.37287891">
        <ele>473.00000</ele>
        <time>2024-05-10T18:59:22Z</time>
      </trkpt>
      <trkpt lat="42.96326693" lon="13.37288394">
        <ele>473.00000</ele>
        <time>2024-05-10T18:59:22Z</time>
      </trkpt>
      <trkpt lat="42.96328495" lon="13.37289492">
        <ele>473.00000</ele>
        <time>2024-05-10T18:59:23Z</time>
      </trkpt>
      <trkpt lat="42.96329895" lon="13.37291093">
        <ele>473.00000</ele>
        <time>2024-05-10T18:59:23Z</time>
      </trkpt>
      <trkpt lat="42.96331194" lon="13.37293197">
        <ele>473.00000</ele>
        <time>2024-05-10T18:59:23Z</time>
      </trkpt>
      <trkpt lat="42.96332594" lon="13.37295192">
        <ele>473.00000</ele>
        <time>2024-05-10T18:59:24Z</time>
      </trkpt>
      <trkpt lat="42.96334496" lon="13.37296994">
        <ele>474.00000</ele>
        <time>2024-05-10T18:59:24Z</time>
      </trkpt>
      <trkpt lat="42.96336499" lon="13.37298595">
        <ele>474.00000</ele>
        <time>2024-05-10T18:59:25Z</time>
      </trkpt>
      <trkpt lat="42.96338494" lon="13.37299492">
        <ele>474.00000</ele>
        <time>2024-05-10T18:59:25Z</time>
      </trkpt>
      <trkpt lat="42.96340598" lon="13.37300498">
        <ele>474.00000</ele>
        <time>2024-05-10T18:59:26Z</time>
      </trkpt>
      <trkpt lat="42.96342895" lon="13.37301897">
        <ele>474.00000</ele>
        <time>2024-05-10T18:59:26Z</time>
      </trkpt>
      <trkpt lat="42.96344697" lon="13.37303498">
        <ele>474.00000</ele>
        <time>2024-05-10T18:59:27Z</time>
      </trkpt>
      <trkpt lat="42.96346298" lon="13.37305493">
        <ele>474.00000</ele>
        <time>2024-05-10T18:59:27Z</time>
      </trkpt>
      <trkpt lat="42.96348192" lon="13.37306994">
        <ele>475.00000</ele>
        <time>2024-05-10T18:59:27Z</time>
      </trkpt>
      <trkpt lat="42.96349994" lon="13.37308192">
        <ele>475.00000</ele>
        <time>2024-05-10T18:59:28Z</time>
      </trkpt>
      <trkpt lat="42.96351796" lon="13.37308896">
        <ele>475.00000</ele>
        <time>2024-05-10T18:59:28Z</time>
      </trkpt>
      <trkpt lat="42.96353498" lon="13.37309299">
        <ele>475.00000</ele>
        <time>2024-05-10T18:59:29Z</time>
      </trkpt>
      <trkpt lat="42.96355292" lon="13.37309793">
        <ele>475.00000</ele>
        <time>2024-05-10T18:59:29Z</time>
      </trkpt>
      <trkpt lat="42.96357597" lon="13.37310195">
        <ele>475.00000</ele>
        <time>2024-05-10T18:59:29Z</time>
      </trkpt>
      <trkpt lat="42.96359893" lon="13.37311092">
        <ele>475.00000</ele>
        <time>2024-05-10T18:59:30Z</time>
      </trkpt>
      <trkpt lat="42.96361997" lon="13.37312593">
        <ele>475.00000</ele>
        <time>2024-05-10T18:59:30Z</time>
      </trkpt>
      <trkpt lat="42.96364294" lon="13.37314194">
        <ele>475.00000</ele>
        <time>2024-05-10T18:59:31Z</time>
      </trkpt>
      <trkpt lat="42.96366498" lon="13.37315694">
        <ele>475.00000</ele>
        <time>2024-05-10T18:59:31Z</time>
      </trkpt>
      <trkpt lat="42.96368393" lon="13.37317597">
        <ele>475.00000</ele>
        <time>2024-05-10T18:59:32Z</time>
      </trkpt>
      <trkpt lat="42.96370396" lon="13.37319499">
        <ele>475.00000</ele>
        <time>2024-05-10T18:59:32Z</time>
      </trkpt>
      <trkpt lat="42.96372198" lon="13.37321394">
        <ele>475.00000</ele>
        <time>2024-05-10T18:59:33Z</time>
      </trkpt>
      <trkpt lat="42.96374293" lon="13.37323699">
        <ele>475.00000</ele>
        <time>2024-05-10T18:59:33Z</time>
      </trkpt>
      <trkpt lat="42.96376498" lon="13.37326096">
        <ele>475.00000</ele>
        <time>2024-05-10T18:59:34Z</time>
      </trkpt>
      <trkpt lat="42.96378199" lon="13.37328493">
        <ele>475.00000</ele>
        <time>2024-05-10T18:59:34Z</time>
      </trkpt>
      <trkpt lat="42.96380094" lon="13.37330396">
        <ele>475.00000</ele>
        <time>2024-05-10T18:59:35Z</time>
      </trkpt>
      <trkpt lat="42.96381393" lon="13.37332592">
        <ele>475.00000</ele>
        <time>2024-05-10T18:59:35Z</time>
      </trkpt>
      <trkpt lat="42.96382994" lon="13.37334897">
        <ele>476.00000</ele>
        <time>2024-05-10T18:59:36Z</time>
      </trkpt>
      <trkpt lat="42.96384394" lon="13.37337495">
        <ele>476.00000</ele>
        <time>2024-05-10T18:59:36Z</time>
      </trkpt>
      <trkpt lat="42.96385995" lon="13.37339691">
        <ele>476.00000</ele>
        <time>2024-05-10T18:59:37Z</time>
      </trkpt>
      <trkpt lat="42.96387998" lon="13.37341594">
        <ele>476.00000</ele>
        <time>2024-05-10T18:59:37Z</time>
      </trkpt>
      <trkpt lat="42.96390093" lon="13.37343094">
        <ele>476.00000</ele>
        <time>2024-05-10T18:59:38Z</time>
      </trkpt>
      <trkpt lat="42.96392097" lon="13.37344997">
        <ele>476.00000</ele>
        <time>2024-05-10T18:59:38Z</time>
      </trkpt>
      <trkpt lat="42.96394293" lon="13.37346799">
        <ele>476.00000</ele>
        <time>2024-05-10T18:59:39Z</time>
      </trkpt>
      <trkpt lat="42.96396296" lon="13.37348492">
        <ele>477.00000</ele>
        <time>2024-05-10T18:59:39Z</time>
      </trkpt>
      <trkpt lat="42.96398492" lon="13.37349892">
        <ele>477.00000</ele>
        <time>2024-05-10T18:59:40Z</time>
      </trkpt>
      <trkpt lat="42.96400898" lon="13.37350496">
        <ele>477.00000</ele>
        <time>2024-05-10T18:59:40Z</time>
      </trkpt>
      <trkpt lat="42.96403395" lon="13.37350496">
        <ele>477.00000</ele>
        <time>2024-05-10T18:59:40Z</time>
      </trkpt>
      <trkpt lat="42.96405298" lon="13.37351292">
        <ele>478.00000</ele>
        <time>2024-05-10T18:59:41Z</time>
      </trkpt>
      <trkpt lat="42.96407394" lon="13.37352097">
        <ele>478.00000</ele>
        <time>2024-05-10T18:59:41Z</time>
      </trkpt>
      <trkpt lat="42.96409497" lon="13.37352692">
        <ele>478.00000</ele>
        <time>2024-05-10T18:59:42Z</time>
      </trkpt>
      <trkpt lat="42.96411794" lon="13.37353496">
        <ele>478.00000</ele>
        <time>2024-05-10T18:59:42Z</time>
      </trkpt>
      <trkpt lat="42.96413898" lon="13.37354494">
        <ele>479.00000</ele>
        <time>2024-05-10T18:59:43Z</time>
      </trkpt>
      <trkpt lat="42.96415792" lon="13.37355692">
        <ele>479.00000</ele>
        <time>2024-05-10T18:59:43Z</time>
      </trkpt>
      <trkpt lat="42.96418097" lon="13.37357092">
        <ele>479.00000</ele>
        <time>2024-05-10T18:59:44Z</time>
      </trkpt>
      <trkpt lat="42.96420092" lon="13.37357696">
        <ele>480.00000</ele>
        <time>2024-05-10T18:59:44Z</time>
      </trkpt>
      <trkpt lat="42.96422196" lon="13.37358693">
        <ele>480.00000</ele>
        <time>2024-05-10T18:59:44Z</time>
      </trkpt>
      <trkpt lat="42.96424493" lon="13.37359791">
        <ele>481.00000</ele>
        <time>2024-05-10T18:59:45Z</time>
      </trkpt>
      <trkpt lat="42.96426898" lon="13.37360998">
        <ele>481.00000</ele>
        <time>2024-05-10T18:59:45Z</time>
      </trkpt>
      <trkpt lat="42.96429296" lon="13.37361794">
        <ele>481.00000</ele>
        <time>2024-05-10T18:59:46Z</time>
      </trkpt>
      <trkpt lat="42.96431299" lon="13.37362892">
        <ele>482.00000</ele>
        <time>2024-05-10T18:59:46Z</time>
      </trkpt>
      <trkpt lat="42.96433294" lon="13.37364192">
        <ele>482.00000</ele>
        <time>2024-05-10T18:59:47Z</time>
      </trkpt>
      <trkpt lat="42.96435096" lon="13.37365197">
        <ele>482.00000</ele>
        <time>2024-05-10T18:59:47Z</time>
      </trkpt>
      <trkpt lat="42.96436998" lon="13.37366597">
        <ele>483.00000</ele>
        <time>2024-05-10T18:59:48Z</time>
      </trkpt>
      <trkpt lat="42.96438993" lon="13.37367896">
        <ele>483.00000</ele>
        <time>2024-05-10T18:59:48Z</time>
      </trkpt>
      <trkpt lat="42.96440795" lon="13.37369699">
        <ele>483.00000</ele>
        <time>2024-05-10T18:59:49Z</time>
      </trkpt>
      <trkpt lat="42.96442497" lon="13.37371199">
        <ele>484.00000</ele>
        <time>2024-05-10T18:59:49Z</time>
      </trkpt>
      <trkpt lat="42.96444199" lon="13.37372892">
        <ele>484.00000</ele>
        <time>2024-05-10T18:59:49Z</time>
      </trkpt>
      <trkpt lat="42.96446294" lon="13.37374493">
        <ele>484.00000</ele>
        <time>2024-05-10T18:59:50Z</time>
      </trkpt>
      <trkpt lat="42.96448498" lon="13.37376496">
        <ele>485.00000</ele>
        <time>2024-05-10T18:59:50Z</time>
      </trkpt>
      <trkpt lat="42.96450795" lon="13.37378298">
        <ele>485.00000</ele>
        <time>2024-05-10T18:59:51Z</time>
      </trkpt>
      <trkpt lat="42.96453192" lon="13.37379899">
        <ele>485.00000</ele>
        <time>2024-05-10T18:59:51Z</time>
      </trkpt>
      <trkpt lat="42.96455397" lon="13.37381794">
        <ele>486.00000</ele>
        <time>2024-05-10T18:59:52Z</time>
      </trkpt>
      <trkpt lat="42.96457492" lon="13.37383696">
        <ele>486.00000</ele>
        <time>2024-05-10T18:59:52Z</time>
      </trkpt>
      <trkpt lat="42.96459496" lon="13.37385892">
        <ele>487.00000</ele>
        <time>2024-05-10T18:59:53Z</time>
      </trkpt>
      <trkpt lat="42.96461599" lon="13.37387795">
        <ele>487.00000</ele>
        <time>2024-05-10T18:59:53Z</time>
      </trkpt>
      <trkpt lat="42.96463192" lon="13.37389497">
        <ele>487.00000</ele>
        <time>2024-05-10T18:59:54Z</time>
      </trkpt>
      <trkpt lat="42.96464893" lon="13.37391994">
        <ele>488.00000</ele>
        <time>2024-05-10T18:59:54Z</time>
      </trkpt>
      <trkpt lat="42.96466293" lon="13.37394098">
        <ele>488.00000</ele>
        <time>2024-05-10T18:59:55Z</time>
      </trkpt>
      <trkpt lat="42.96467794" lon="13.37396898">
        <ele>488.00000</ele>
        <time>2024-05-10T18:59:55Z</time>
      </trkpt>
      <trkpt lat="42.96469495" lon="13.37399295">
        <ele>488.00000</ele>
        <time>2024-05-10T18:59:56Z</time>
      </trkpt>
      <trkpt lat="42.96470995" lon="13.37401692">
        <ele>488.00000</ele>
        <time>2024-05-10T18:59:56Z</time>
      </trkpt>
      <trkpt lat="42.96472395" lon="13.37404391">
        <ele>489.00000</ele>
        <time>2024-05-10T18:59:57Z</time>
      </trkpt>
      <trkpt lat="42.96473896" lon="13.37407493">
        <ele>489.00000</ele>
        <time>2024-05-10T18:59:57Z</time>
      </trkpt>
      <trkpt lat="42.96474994" lon="13.37410493">
        <ele>489.00000</ele>
        <time>2024-05-10T18:59:58Z</time>
      </trkpt>
      <trkpt lat="42.96476393" lon="13.37413293">
        <ele>489.00000</ele>
        <time>2024-05-10T18:59:58Z</time>
      </trkpt>
      <trkpt lat="42.96477793" lon="13.37416193">
        <ele>489.00000</ele>
        <time>2024-05-10T18:59:59Z</time>
      </trkpt>
      <trkpt lat="42.96479394" lon="13.37418993">
        <ele>489.00000</ele>
        <time>2024-05-10T18:59:59Z</time>
      </trkpt>
      <trkpt lat="42.96481096" lon="13.37421197">
        <ele>490.00000</ele>
        <time>2024-05-10T19:00:00Z</time>
      </trkpt>
      <trkpt lat="42.96482998" lon="13.37423192">
        <ele>490.00000</ele>
        <time>2024-05-10T19:00:00Z</time>
      </trkpt>
      <trkpt lat="42.96485094" lon="13.37424994">
        <ele>490.00000</ele>
        <time>2024-05-10T19:00:01Z</time>
      </trkpt>
      <trkpt lat="42.96487692" lon="13.37426695">
        <ele>491.00000</ele>
        <time>2024-05-10T19:00:01Z</time>
      </trkpt>
      <trkpt lat="42.96490391" lon="13.37428598">
        <ele>491.00000</ele>
        <time>2024-05-10T19:00:02Z</time>
      </trkpt>
      <trkpt lat="42.96492897" lon="13.37429897">
        <ele>491.00000</ele>
        <time>2024-05-10T19:00:02Z</time>
      </trkpt>
      <trkpt lat="42.96494993" lon="13.37431096">
        <ele>491.00000</ele>
        <time>2024-05-10T19:00:03Z</time>
      </trkpt>
      <trkpt lat="42.96496996" lon="13.37432395">
        <ele>492.00000</ele>
        <time>2024-05-10T19:00:03Z</time>
      </trkpt>
      <trkpt lat="42.96499192" lon="13.37433099">
        <ele>492.00000</ele>
        <time>2024-05-10T19:00:04Z</time>
      </trkpt>
      <trkpt lat="42.96501296" lon="13.37433795">
        <ele>492.00000</ele>
        <time>2024-05-10T19:00:04Z</time>
      </trkpt>
      <trkpt lat="42.96503392" lon="13.37434994">
        <ele>493.00000</ele>
        <time>2024-05-10T19:00:05Z</time>
      </trkpt>
      <trkpt lat="42.96505697" lon="13.37436092">
        <ele>493.00000</ele>
        <time>2024-05-10T19:00:05Z</time>
      </trkpt>
      <trkpt lat="42.96508396" lon="13.37436595">
        <ele>493.00000</ele>
        <time>2024-05-10T19:00:06Z</time>
      </trkpt>
      <trkpt lat="42.96510793" lon="13.37436896">
        <ele>493.00000</ele>
        <time>2024-05-10T19:00:06Z</time>
      </trkpt>
      <trkpt lat="42.96513693" lon="13.37437198">
        <ele>494.00000</ele>
        <time>2024-05-10T19:00:07Z</time>
      </trkpt>
      <trkpt lat="42.96516291" lon="13.37437491">
        <ele>494.00000</ele>
        <time>2024-05-10T19:00:07Z</time>
      </trkpt>
      <trkpt lat="42.96518697" lon="13.37437994">
        <ele>494.00000</ele>
        <time>2024-05-10T19:00:08Z</time>
      </trkpt>
      <trkpt lat="42.96521195" lon="13.37438397">
        <ele>495.00000</ele>
        <time>2024-05-10T19:00:08Z</time>
      </trkpt>
      <trkpt lat="42.96523299" lon="13.37438698">
        <ele>495.00000</ele>
        <time>2024-05-10T19:00:09Z</time>
      </trkpt>
      <trkpt lat="42.96525394" lon="13.37438992">
        <ele>495.00000</ele>
        <time>2024-05-10T19:00:09Z</time>
      </trkpt>
      <trkpt lat="42.96527699" lon="13.37439394">
        <ele>496.00000</ele>
        <time>2024-05-10T19:00:10Z</time>
      </trkpt>
      <trkpt lat="42.96530096" lon="13.37439998">
        <ele>496.00000</ele>
        <time>2024-05-10T19:00:10Z</time>
      </trkpt>
      <trkpt lat="42.96532795" lon="13.37440995">
        <ele>496.00000</ele>
        <time>2024-05-10T19:00:11Z</time>
      </trkpt>
      <trkpt lat="42.96535695" lon="13.37442495">
        <ele>496.00000</ele>
        <time>2024-05-10T19:00:11Z</time>
      </trkpt>
      <trkpt lat="42.96538696" lon="13.37443694">
        <ele>496.00000</ele>
        <time>2024-05-10T19:00:12Z</time>
      </trkpt>
      <trkpt lat="42.96541194" lon="13.37444792">
        <ele>496.00000</ele>
        <time>2024-05-10T19:00:12Z</time>
      </trkpt>
      <trkpt lat="42.96543692" lon="13.37446091">
        <ele>497.00000</ele>
        <time>2024-05-10T19:00:13Z</time>
      </trkpt>
      <trkpt lat="42.96546592" lon="13.37447893">
        <ele>497.00000</ele>
        <time>2024-05-10T19:00:14Z</time>
      </trkpt>
      <trkpt lat="42.96549199" lon="13.37449796">
        <ele>497.00000</ele>
        <time>2024-05-10T19:00:14Z</time>
      </trkpt>
      <trkpt lat="42.96551596" lon="13.37451992">
        <ele>497.00000</ele>
        <time>2024-05-10T19:00:15Z</time>
      </trkpt>
      <trkpt lat="42.96553691" lon="13.37454498">
        <ele>497.00000</ele>
        <time>2024-05-10T19:00:15Z</time>
      </trkpt>
      <trkpt lat="42.96555896" lon="13.37457197">
        <ele>498.00000</ele>
        <time>2024-05-10T19:00:16Z</time>
      </trkpt>
      <trkpt lat="42.96557991" lon="13.37460198">
        <ele>498.00000</ele>
        <time>2024-05-10T19:00:17Z</time>
      </trkpt>
      <trkpt lat="42.96559894" lon="13.37463391">
        <ele>498.00000</ele>
        <time>2024-05-10T19:00:17Z</time>
      </trkpt>
      <trkpt lat="42.96561696" lon="13.37466199">
        <ele>499.00000</ele>
        <time>2024-05-10T19:00:18Z</time>
      </trkpt>
      <trkpt lat="42.96563699" lon="13.37469091">
        <ele>499.00000</ele>
        <time>2024-05-10T19:00:18Z</time>
      </trkpt>
      <trkpt lat="42.96565694" lon="13.37472293">
        <ele>499.00000</ele>
        <time>2024-05-10T19:00:19Z</time>
      </trkpt>
      <trkpt lat="42.96567999" lon="13.37475394">
        <ele>500.00000</ele>
        <time>2024-05-10T19:00:20Z</time>
      </trkpt>
      <trkpt lat="42.96569592" lon="13.37477993">
        <ele>500.00000</ele>
        <time>2024-05-10T19:00:20Z</time>
      </trkpt>
      <trkpt lat="42.96572299" lon="13.37479996">
        <ele>500.00000</ele>
        <time>2024-05-10T19:00:21Z</time>
      </trkpt>
      <trkpt lat="42.96575199" lon="13.37481597">
        <ele>501.00000</ele>
        <time>2024-05-10T19:00:21Z</time>
      </trkpt>
      <trkpt lat="42.96578393" lon="13.37482293">
        <ele>502.00000</ele>
        <time>2024-05-10T19:00:22Z</time>
      </trkpt>
      <trkpt lat="42.96580798" lon="13.37482091">
        <ele>502.00000</ele>
        <time>2024-05-10T19:00:22Z</time>
      </trkpt>
      <trkpt lat="42.96583799" lon="13.37481094">
        <ele>503.00000</ele>
        <time>2024-05-10T19:00:23Z</time>
      </trkpt>
      <trkpt lat="42.96586297" lon="13.37479292">
        <ele>503.00000</ele>
        <time>2024-05-10T19:00:24Z</time>
      </trkpt>
      <trkpt lat="42.96587998" lon="13.37476492">
        <ele>504.00000</ele>
        <time>2024-05-10T19:00:24Z</time>
      </trkpt>
      <trkpt lat="42.96589197" lon="13.37473399">
        <ele>504.00000</ele>
        <time>2024-05-10T19:00:25Z</time>
      </trkpt>
      <trkpt lat="42.96590295" lon="13.37469996">
        <ele>504.00000</ele>
        <time>2024-05-10T19:00:25Z</time>
      </trkpt>
      <trkpt lat="42.96590295" lon="13.37466099">
        <ele>505.00000</ele>
        <time>2024-05-10T19:00:26Z</time>
      </trkpt>
      <trkpt lat="42.96589893" lon="13.37462897">
        <ele>505.00000</ele>
        <time>2024-05-10T19:00:26Z</time>
      </trkpt>
      <trkpt lat="42.96589197" lon="13.37459393">
        <ele>505.00000</ele>
        <time>2024-05-10T19:00:27Z</time>
      </trkpt>
      <trkpt lat="42.96588493" lon="13.37455797">
        <ele>505.00000</ele>
        <time>2024-05-10T19:00:27Z</time>
      </trkpt>
      <trkpt lat="42.96587496" lon="13.37451992">
        <ele>505.00000</ele>
        <time>2024-05-10T19:00:28Z</time>
      </trkpt>
      <trkpt lat="42.96586196" lon="13.37448698">
        <ele>505.00000</ele>
        <time>2024-05-10T19:00:28Z</time>
      </trkpt>
      <trkpt lat="42.96584394" lon="13.37445295">
        <ele>505.00000</ele>
        <time>2024-05-10T19:00:29Z</time>
      </trkpt>
      <trkpt lat="42.96582994" lon="13.37441598">
        <ele>505.00000</ele>
        <time>2024-05-10T19:00:30Z</time>
      </trkpt>
      <trkpt lat="42.96581595" lon="13.37437299">
        <ele>504.00000</ele>
        <time>2024-05-10T19:00:30Z</time>
      </trkpt>
      <trkpt lat="42.96580497" lon="13.37433594">
        <ele>504.00000</ele>
        <time>2024-05-10T19:00:31Z</time>
      </trkpt>
      <trkpt lat="42.96579097" lon="13.37429495">
        <ele>504.00000</ele>
        <time>2024-05-10T19:00:32Z</time>
      </trkpt>
      <trkpt lat="42.96578099" lon="13.37425991">
        <ele>504.00000</ele>
        <time>2024-05-10T19:00:32Z</time>
      </trkpt>
      <trkpt lat="42.96576691" lon="13.37422396">
        <ele>504.00000</ele>
        <time>2024-05-10T19:00:33Z</time>
      </trkpt>
      <trkpt lat="42.96574998" lon="13.37418699">
        <ele>504.00000</ele>
        <time>2024-05-10T19:00:33Z</time>
      </trkpt>
      <trkpt lat="42.96573397" lon="13.37414299">
        <ele>503.00000</ele>
        <time>2024-05-10T19:00:34Z</time>
      </trkpt>
      <trkpt lat="42.96571997" lon="13.37410795">
        <ele>503.00000</ele>
        <time>2024-05-10T19:00:35Z</time>
      </trkpt>
      <trkpt lat="42.96570396" lon="13.37407199">
        <ele>503.00000</ele>
        <time>2024-05-10T19:00:35Z</time>
      </trkpt>
      <trkpt lat="42.96568695" lon="13.37403796">
        <ele>503.00000</ele>
        <time>2024-05-10T19:00:36Z</time>
      </trkpt>
      <trkpt lat="42.96566993" lon="13.37400393">
        <ele>502.00000</ele>
        <time>2024-05-10T19:00:36Z</time>
      </trkpt>
      <trkpt lat="42.96565191" lon="13.37396898">
        <ele>502.00000</ele>
        <time>2024-05-10T19:00:37Z</time>
      </trkpt>
      <trkpt lat="42.96563498" lon="13.37393696">
        <ele>502.00000</ele>
        <time>2024-05-10T19:00:38Z</time>
      </trkpt>
      <trkpt lat="42.96561998" lon="13.37390595">
        <ele>502.00000</ele>
        <time>2024-05-10T19:00:38Z</time>
      </trkpt>
      <trkpt lat="42.96560598" lon="13.37387493">
        <ele>502.00000</ele>
        <time>2024-05-10T19:00:39Z</time>
      </trkpt>
      <trkpt lat="42.96559492" lon="13.37384199">
        <ele>502.00000</ele>
        <time>2024-05-10T19:00:39Z</time>
      </trkpt>
      <trkpt lat="42.96557798" lon="13.37381391">
        <ele>502.00000</ele>
        <time>2024-05-10T19:00:40Z</time>
      </trkpt>
      <trkpt lat="42.96556097" lon="13.37378491">
        <ele>502.00000</ele>
        <time>2024-05-10T19:00:40Z</time>
      </trkpt>
      <trkpt lat="42.96554295" lon="13.37375893">
        <ele>501.00000</ele>
        <time>2024-05-10T19:00:41Z</time>
      </trkpt>
      <trkpt lat="42.96552493" lon="13.37373395">
        <ele>501.00000</ele>
        <time>2024-05-10T19:00:41Z</time>
      </trkpt>
      <trkpt lat="42.96550892" lon="13.37370696">
        <ele>501.00000</ele>
        <time>2024-05-10T19:00:42Z</time>
      </trkpt>
      <trkpt lat="42.96548796" lon="13.37368299">
        <ele>501.00000</ele>
        <time>2024-05-10T19:00:42Z</time>
      </trkpt>
      <trkpt lat="42.96546491" lon="13.37365591">
        <ele>500.00000</ele>
        <time>2024-05-10T19:00:43Z</time>
      </trkpt>
      <trkpt lat="42.96544698" lon="13.37363496">
        <ele>500.00000</ele>
        <time>2024-05-10T19:00:44Z</time>
      </trkpt>
      <trkpt lat="42.96543591" lon="13.37360898">
        <ele>500.00000</ele>
        <time>2024-05-10T19:00:44Z</time>
      </trkpt>
      <trkpt lat="42.96543499" lon="13.37357494">
        <ele>500.00000</ele>
        <time>2024-05-10T19:00:45Z</time>
      </trkpt>
      <trkpt lat="42.96544496" lon="13.37354091">
        <ele>500.00000</ele>
        <time>2024-05-10T19:00:45Z</time>
      </trkpt>
      <trkpt lat="42.96545594" lon="13.37351493">
        <ele>500.00000</ele>
        <time>2024-05-10T19:00:45Z</time>
      </trkpt>
      <trkpt lat="42.96547195" lon="13.37348593">
        <ele>500.00000</ele>
        <time>2024-05-10T19:00:46Z</time>
      </trkpt>
      <trkpt lat="42.96548696" lon="13.37346095">
        <ele>500.00000</ele>
        <time>2024-05-10T19:00:46Z</time>
      </trkpt>
      <trkpt lat="42.96550196" lon="13.37343094">
        <ele>500.00000</ele>
        <time>2024-05-10T19:00:47Z</time>
      </trkpt>
      <trkpt lat="42.96552292" lon="13.37340898">
        <ele>500.00000</ele>
        <time>2024-05-10T19:00:48Z</time>
      </trkpt>
      <trkpt lat="42.96554697" lon="13.37340295">
        <ele>500.00000</ele>
        <time>2024-05-10T19:00:48Z</time>
      </trkpt>
      <trkpt lat="42.96556692" lon="13.37341099">
        <ele>500.00000</ele>
        <time>2024-05-10T19:00:48Z</time>
      </trkpt>
      <trkpt lat="42.96558796" lon="13.37341393">
        <ele>500.00000</ele>
        <time>2024-05-10T19:00:49Z</time>
      </trkpt>
      <trkpt lat="42.96560799" lon="13.37342399">
        <ele>500.00000</ele>
        <time>2024-05-10T19:00:49Z</time>
      </trkpt>
      <trkpt lat="42.96563096" lon="13.37344192">
        <ele>501.00000</ele>
        <time>2024-05-10T19:00:50Z</time>
      </trkpt>
      <trkpt lat="42.96565099" lon="13.37346497">
        <ele>501.00000</ele>
        <time>2024-05-10T19:00:50Z</time>
      </trkpt>
      <trkpt lat="42.96567396" lon="13.37348392">
        <ele>501.00000</ele>
        <time>2024-05-10T19:00:51Z</time>
      </trkpt>
      <trkpt lat="42.96569793" lon="13.37350294">
        <ele>501.00000</ele>
        <time>2024-05-10T19:00:51Z</time>
      </trkpt>
      <trkpt lat="42.96571997" lon="13.37351594">
        <ele>501.00000</ele>
        <time>2024-05-10T19:00:52Z</time>
      </trkpt>
      <trkpt lat="42.96573892" lon="13.37353094">
        <ele>502.00000</ele>
        <time>2024-05-10T19:00:52Z</time>
      </trkpt>
      <trkpt lat="42.96576197" lon="13.37354393">
        <ele>502.00000</ele>
        <time>2024-05-10T19:00:53Z</time>
      </trkpt>
      <trkpt lat="42.96578292" lon="13.37355994">
        <ele>502.00000</ele>
        <time>2024-05-10T19:00:53Z</time>
      </trkpt>
      <trkpt lat="42.96580497" lon="13.37357293">
        <ele>502.00000</ele>
        <time>2024-05-10T19:00:54Z</time>
      </trkpt>
      <trkpt lat="42.96582592" lon="13.37358593">
        <ele>502.00000</ele>
        <time>2024-05-10T19:00:54Z</time>
      </trkpt>
      <trkpt lat="42.96584797" lon="13.37359699">
        <ele>503.00000</ele>
        <time>2024-05-10T19:00:55Z</time>
      </trkpt>
      <trkpt lat="42.96587294" lon="13.37360193">
        <ele>503.00000</ele>
        <time>2024-05-10T19:00:55Z</time>
      </trkpt>
      <trkpt lat="42.96589792" lon="13.37360495">
        <ele>503.00000</ele>
        <time>2024-05-10T19:00:56Z</time>
      </trkpt>
      <trkpt lat="42.96592491" lon="13.37360495">
        <ele>504.00000</ele>
        <time>2024-05-10T19:00:56Z</time>
      </trkpt>
      <trkpt lat="42.96594997" lon="13.37359992">
        <ele>504.00000</ele>
        <time>2024-05-10T19:00:57Z</time>
      </trkpt>
      <trkpt lat="42.96597596" lon="13.37360495">
        <ele>504.00000</ele>
        <time>2024-05-10T19:00:57Z</time>
      </trkpt>
      <trkpt lat="42.96600094" lon="13.37361593">
        <ele>505.00000</ele>
        <time>2024-05-10T19:00:58Z</time>
      </trkpt>
      <trkpt lat="42.96602893" lon="13.37362892">
        <ele>505.00000</ele>
        <time>2024-05-10T19:00:58Z</time>
      </trkpt>
      <trkpt lat="42.96605693" lon="13.37363999">
        <ele>506.00000</ele>
        <time>2024-05-10T19:00:59Z</time>
      </trkpt>
      <trkpt lat="42.96608693" lon="13.37365298">
        <ele>506.00000</ele>
        <time>2024-05-10T19:01:00Z</time>
      </trkpt>
      <trkpt lat="42.96611795" lon="13.37366597">
        <ele>507.00000</ele>
        <time>2024-05-10T19:01:00Z</time>
      </trkpt>
      <trkpt lat="42.96614594" lon="13.37367394">
        <ele>507.00000</ele>
        <time>2024-05-10T19:01:01Z</time>
      </trkpt>
      <trkpt lat="42.96617595" lon="13.37368399">
        <ele>508.00000</ele>
        <time>2024-05-10T19:01:01Z</time>
      </trkpt>
      <trkpt lat="42.96620294" lon="13.37369497">
        <ele>508.00000</ele>
        <time>2024-05-10T19:01:02Z</time>
      </trkpt>
      <trkpt lat="42.96622691" lon="13.37370193">
        <ele>508.00000</ele>
        <time>2024-05-10T19:01:03Z</time>
      </trkpt>
      <trkpt lat="42.96625399" lon="13.37370394">
        <ele>509.00000</ele>
        <time>2024-05-10T19:01:03Z</time>
      </trkpt>
      <trkpt lat="42.96628098" lon="13.37370092">
        <ele>509.00000</ele>
        <time>2024-05-10T19:01:04Z</time>
      </trkpt>
      <trkpt lat="42.96631098" lon="13.37369799">
        <ele>509.00000</ele>
        <time>2024-05-10T19:01:04Z</time>
      </trkpt>
      <trkpt lat="42.96633797" lon="13.37369598">
        <ele>510.00000</ele>
        <time>2024-05-10T19:01:05Z</time>
      </trkpt>
      <trkpt lat="42.96636496" lon="13.37368994">
        <ele>510.00000</ele>
        <time>2024-05-10T19:01:05Z</time>
      </trkpt>
      <trkpt lat="42.96638893" lon="13.37367997">
        <ele>510.00000</ele>
        <time>2024-05-10T19:01:06Z</time>
      </trkpt>
      <trkpt lat="42.96641492" lon="13.37366396">
        <ele>510.00000</ele>
        <time>2024-05-10T19:01:06Z</time>
      </trkpt>
      <trkpt lat="42.96644291" lon="13.37364896">
        <ele>510.00000</ele>
        <time>2024-05-10T19:01:07Z</time>
      </trkpt>
      <trkpt lat="42.96647099" lon="13.37363194">
        <ele>510.00000</ele>
        <time>2024-05-10T19:01:08Z</time>
      </trkpt>
      <trkpt lat="42.96649899" lon="13.37361291">
        <ele>510.00000</ele>
        <time>2024-05-10T19:01:08Z</time>
      </trkpt>
      <trkpt lat="42.96652698" lon="13.37359791">
        <ele>510.00000</ele>
        <time>2024-05-10T19:01:09Z</time>
      </trkpt>
      <trkpt lat="42.96655397" lon="13.37358199">
        <ele>510.00000</ele>
        <time>2024-05-10T19:01:09Z</time>
      </trkpt>
      <trkpt lat="42.96658096" lon="13.37356396">
        <ele>510.00000</ele>
        <time>2024-05-10T19:01:10Z</time>
      </trkpt>
      <trkpt lat="42.96660996" lon="13.37354494">
        <ele>510.00000</ele>
        <time>2024-05-10T19:01:11Z</time>
      </trkpt>
      <trkpt lat="42.96663796" lon="13.37352692">
        <ele>510.00000</ele>
        <time>2024-05-10T19:01:11Z</time>
      </trkpt>
      <trkpt lat="42.96666998" lon="13.37350496">
        <ele>510.00000</ele>
        <time>2024-05-10T19:01:12Z</time>
      </trkpt>
      <trkpt lat="42.96669999" lon="13.37348593">
        <ele>510.00000</ele>
        <time>2024-05-10T19:01:13Z</time>
      </trkpt>
      <trkpt lat="42.96672899" lon="13.37346397">
        <ele>510.00000</ele>
        <time>2024-05-10T19:01:13Z</time>
      </trkpt>
      <trkpt lat="42.96675899" lon="13.37343899">
        <ele>510.00000</ele>
        <time>2024-05-10T19:01:14Z</time>
      </trkpt>
      <trkpt lat="42.96678791" lon="13.37341795">
        <ele>510.00000</ele>
        <time>2024-05-10T19:01:15Z</time>
      </trkpt>
      <trkpt lat="42.96681691" lon="13.37339599">
        <ele>510.00000</ele>
        <time>2024-05-10T19:01:15Z</time>
      </trkpt>
      <trkpt lat="42.96684793" lon="13.37337495">
        <ele>510.00000</ele>
        <time>2024-05-10T19:01:16Z</time>
      </trkpt>
      <trkpt lat="42.96687793" lon="13.37335492">
        <ele>510.00000</ele>
        <time>2024-05-10T19:01:17Z</time>
      </trkpt>
      <trkpt lat="42.96691096" lon="13.37333698">
        <ele>510.00000</ele>
        <time>2024-05-10T19:01:17Z</time>
      </trkpt>
      <trkpt lat="42.96694792" lon="13.37332491">
        <ele>510.00000</ele>
        <time>2024-05-10T19:01:18Z</time>
      </trkpt>
      <trkpt lat="42.96698598" lon="13.37331796">
        <ele>510.00000</ele>
        <time>2024-05-10T19:01:19Z</time>
      </trkpt>
      <trkpt lat="42.96702495" lon="13.37330999">
        <ele>511.00000</ele>
        <time>2024-05-10T19:01:20Z</time>
      </trkpt>
      <trkpt lat="42.96706393" lon="13.37330496">
        <ele>511.00000</ele>
        <time>2024-05-10T19:01:20Z</time>
      </trkpt>
      <trkpt lat="42.96710198" lon="13.37330496">
        <ele>511.00000</ele>
        <time>2024-05-10T19:01:21Z</time>
      </trkpt>
      <trkpt lat="42.96713995" lon="13.37330999">
        <ele>511.00000</ele>
        <time>2024-05-10T19:01:22Z</time>
      </trkpt>
      <trkpt lat="42.96717599" lon="13.37331494">
        <ele>511.00000</ele>
        <time>2024-05-10T19:01:23Z</time>
      </trkpt>
      <trkpt lat="42.96720894" lon="13.37332399">
        <ele>511.00000</ele>
        <time>2024-05-10T19:01:23Z</time>
      </trkpt>
      <trkpt lat="42.96723894" lon="13.37333095">
        <ele>511.00000</ele>
        <time>2024-05-10T19:01:24Z</time>
      </trkpt>
      <trkpt lat="42.96726794" lon="13.37333799">
        <ele>512.00000</ele>
        <time>2024-05-10T19:01:25Z</time>
      </trkpt>
      <trkpt lat="42.96729695" lon="13.37334293">
        <ele>512.00000</ele>
        <time>2024-05-10T19:01:25Z</time>
      </trkpt>
      <trkpt lat="42.96732595" lon="13.37334495">
        <ele>512.00000</ele>
        <time>2024-05-10T19:01:26Z</time>
      </trkpt>
      <trkpt lat="42.96735696" lon="13.37334897">
        <ele>512.00000</ele>
        <time>2024-05-10T19:01:26Z</time>
      </trkpt>
      <trkpt lat="42.96739191" lon="13.37335299">
        <ele>512.00000</ele>
        <time>2024-05-10T19:01:27Z</time>
      </trkpt>
      <trkpt lat="42.96742393" lon="13.37336196">
        <ele>512.00000</ele>
        <time>2024-05-10T19:01:28Z</time>
      </trkpt>
      <trkpt lat="42.96745394" lon="13.37336791">
        <ele>512.00000</ele>
        <time>2024-05-10T19:01:28Z</time>
      </trkpt>
      <trkpt lat="42.96748395" lon="13.37337696">
        <ele>512.00000</ele>
        <time>2024-05-10T19:01:29Z</time>
      </trkpt>
      <trkpt lat="42.96751194" lon="13.37338392">
        <ele>512.00000</ele>
        <time>2024-05-10T19:01:30Z</time>
      </trkpt>
      <trkpt lat="42.96754195" lon="13.37338895">
        <ele>512.00000</ele>
        <time>2024-05-10T19:01:30Z</time>
      </trkpt>
      <trkpt lat="42.96757095" lon="13.37339197">
        <ele>513.00000</ele>
        <time>2024-05-10T19:01:31Z</time>
      </trkpt>
      <trkpt lat="42.96759895" lon="13.37339993">
        <ele>513.00000</ele>
        <time>2024-05-10T19:01:31Z</time>
      </trkpt>
      <trkpt lat="42.96762795" lon="13.37340999">
        <ele>514.00000</ele>
        <time>2024-05-10T19:01:32Z</time>
      </trkpt>
      <trkpt lat="42.96765795" lon="13.37342298">
        <ele>514.00000</ele>
        <time>2024-05-10T19:01:33Z</time>
      </trkpt>
      <trkpt lat="42.96768696" lon="13.37343798">
        <ele>514.00000</ele>
        <time>2024-05-10T19:01:33Z</time>
      </trkpt>
      <trkpt lat="42.96771696" lon="13.37344896">
        <ele>515.00000</ele>
        <time>2024-05-10T19:01:34Z</time>
      </trkpt>
      <trkpt lat="42.96774395" lon="13.37345793">
        <ele>515.00000</ele>
        <time>2024-05-10T19:01:34Z</time>
      </trkpt>
      <trkpt lat="42.96777396" lon="13.37346891">
        <ele>516.00000</ele>
        <time>2024-05-10T19:01:35Z</time>
      </trkpt>
      <trkpt lat="42.96780196" lon="13.37347696">
        <ele>516.00000</ele>
        <time>2024-05-10T19:01:36Z</time>
      </trkpt>
      <trkpt lat="42.96782995" lon="13.37348895">
        <ele>517.00000</ele>
        <time>2024-05-10T19:01:36Z</time>
      </trkpt>
      <trkpt lat="42.96785493" lon="13.37350194">
        <ele>517.00000</ele>
        <time>2024-05-10T19:01:37Z</time>
      </trkpt>
      <trkpt lat="42.96787999" lon="13.37351594">
        <ele>517.00000</ele>
        <time>2024-05-10T19:01:37Z</time>
      </trkpt>
      <trkpt lat="42.96790497" lon="13.37352692">
        <ele>518.00000</ele>
        <time>2024-05-10T19:01:38Z</time>
      </trkpt>
      <trkpt lat="42.96793196" lon="13.37353396">
        <ele>518.00000</ele>
        <time>2024-05-10T19:01:38Z</time>
      </trkpt>
      <trkpt lat="42.96795794" lon="13.37354393">
        <ele>518.00000</ele>
        <time>2024-05-10T19:01:39Z</time>
      </trkpt>
      <trkpt lat="42.96798292" lon="13.37355491">
        <ele>518.00000</ele>
        <time>2024-05-10T19:01:39Z</time>
      </trkpt>
      <trkpt lat="42.96800899" lon="13.37356095">
        <ele>519.00000</ele>
        <time>2024-05-10T19:01:40Z</time>
      </trkpt>
      <trkpt lat="42.96803397" lon="13.37356899">
        <ele>519.00000</ele>
        <time>2024-05-10T19:01:40Z</time>
      </trkpt>
      <trkpt lat="42.96805995" lon="13.37357796">
        <ele>519.00000</ele>
        <time>2024-05-10T19:01:41Z</time>
      </trkpt>
      <trkpt lat="42.96808795" lon="13.37358492">
        <ele>519.00000</ele>
        <time>2024-05-10T19:01:41Z</time>
      </trkpt>
      <trkpt lat="42.96811292" lon="13.37358794">
        <ele>520.00000</ele>
        <time>2024-05-10T19:01:42Z</time>
      </trkpt>
      <trkpt lat="42.96813991" lon="13.37358995">
        <ele>520.00000</ele>
        <time>2024-05-10T19:01:42Z</time>
      </trkpt>
      <trkpt lat="42.96816799" lon="13.37359892">
        <ele>520.00000</ele>
        <time>2024-05-10T19:01:43Z</time>
      </trkpt>
      <trkpt lat="42.96819096" lon="13.37360495">
        <ele>520.00000</ele>
        <time>2024-05-10T19:01:44Z</time>
      </trkpt>
      <trkpt lat="42.96822197" lon="13.37361199">
        <ele>521.00000</ele>
        <time>2024-05-10T19:01:44Z</time>
      </trkpt>
      <trkpt lat="42.96825198" lon="13.37362197">
        <ele>521.00000</ele>
        <time>2024-05-10T19:01:45Z</time>
      </trkpt>
      <trkpt lat="42.96828492" lon="13.37364493">
        <ele>522.00000</ele>
        <time>2024-05-10T19:01:46Z</time>
      </trkpt>
      <trkpt lat="42.96830294" lon="13.37367997">
        <ele>522.00000</ele>
        <time>2024-05-10T19:01:46Z</time>
      </trkpt>
      <trkpt lat="42.96830998" lon="13.37371895">
        <ele>523.00000</ele>
        <time>2024-05-10T19:01:47Z</time>
      </trkpt>
      <trkpt lat="42.96830395" lon="13.37374996">
        <ele>523.00000</ele>
        <time>2024-05-10T19:01:47Z</time>
      </trkpt>
      <trkpt lat="42.96829397" lon="13.37378097">
        <ele>524.00000</ele>
        <time>2024-05-10T19:01:48Z</time>
      </trkpt>
      <trkpt lat="42.96828391" lon="13.37381693">
        <ele>524.00000</ele>
        <time>2024-05-10T19:01:48Z</time>
      </trkpt>
      <trkpt lat="42.96826799" lon="13.37384593">
        <ele>525.00000</ele>
        <time>2024-05-10T19:01:49Z</time>
      </trkpt>
      <trkpt lat="42.96824796" lon="13.37387292">
        <ele>525.00000</ele>
        <time>2024-05-10T19:01:49Z</time>
      </trkpt>
      <trkpt lat="42.96822994" lon="13.37389798">
        <ele>525.00000</ele>
        <time>2024-05-10T19:01:50Z</time>
      </trkpt>
      <trkpt lat="42.96820898" lon="13.37392397">
        <ele>526.00000</ele>
        <time>2024-05-10T19:01:50Z</time>
      </trkpt>
      <trkpt lat="42.96818794" lon="13.37395196">
        <ele>526.00000</ele>
        <time>2024-05-10T19:01:51Z</time>
      </trkpt>
      <trkpt lat="42.96816891" lon="13.37398096">
        <ele>526.00000</ele>
        <time>2024-05-10T19:01:52Z</time>
      </trkpt>
      <trkpt lat="42.96814897" lon="13.37400896">
        <ele>527.00000</ele>
        <time>2024-05-10T19:01:52Z</time>
      </trkpt>
      <trkpt lat="42.96812499" lon="13.37403696">
        <ele>527.00000</ele>
        <time>2024-05-10T19:01:53Z</time>
      </trkpt>
      <trkpt lat="42.96810094" lon="13.37406797">
        <ele>527.00000</ele>
        <time>2024-05-10T19:01:53Z</time>
      </trkpt>
      <trkpt lat="42.96808199" lon="13.37409697">
        <ele>528.00000</ele>
        <time>2024-05-10T19:01:54Z</time>
      </trkpt>
      <trkpt lat="42.96806599" lon="13.37412295">
        <ele>528.00000</ele>
        <time>2024-05-10T19:01:55Z</time>
      </trkpt>
      <trkpt lat="42.96804897" lon="13.37414994">
        <ele>528.00000</ele>
        <time>2024-05-10T19:01:55Z</time>
      </trkpt>
      <trkpt lat="42.96802693" lon="13.37417593">
        <ele>528.00000</ele>
        <time>2024-05-10T19:01:56Z</time>
      </trkpt>
      <trkpt lat="42.96800698" lon="13.37420593">
        <ele>529.00000</ele>
        <time>2024-05-10T19:01:56Z</time>
      </trkpt>
      <trkpt lat="42.96798493" lon="13.37423292">
        <ele>529.00000</ele>
        <time>2024-05-10T19:01:57Z</time>
      </trkpt>
      <trkpt lat="42.96796197" lon="13.37426092">
        <ele>529.00000</ele>
        <time>2024-05-10T19:01:57Z</time>
      </trkpt>
      <trkpt lat="42.96794495" lon="13.37428892">
        <ele>529.00000</ele>
        <time>2024-05-10T19:01:58Z</time>
      </trkpt>
      <trkpt lat="42.96793296" lon="13.37431792">
        <ele>529.00000</ele>
        <time>2024-05-10T19:01:58Z</time>
      </trkpt>
      <trkpt lat="42.96791897" lon="13.37434591">
        <ele>530.00000</ele>
        <time>2024-05-10T19:01:59Z</time>
      </trkpt>
      <trkpt lat="42.96790597" lon="13.37437793">
        <ele>530.00000</ele>
        <time>2024-05-10T19:02:00Z</time>
      </trkpt>
      <trkpt lat="42.96789499" lon="13.37440693">
        <ele>530.00000</ele>
        <time>2024-05-10T19:02:00Z</time>
      </trkpt>
      <trkpt lat="42.96788192" lon="13.37442998">
        <ele>530.00000</ele>
        <time>2024-05-10T19:02:00Z</time>
      </trkpt>
      <trkpt lat="42.96787094" lon="13.37445395">
        <ele>530.00000</ele>
        <time>2024-05-10T19:02:01Z</time>
      </trkpt>
      <trkpt lat="42.96786499" lon="13.37448296">
        <ele>530.00000</ele>
        <time>2024-05-10T19:02:01Z</time>
      </trkpt>
      <trkpt lat="42.96786499" lon="13.37451397">
        <ele>531.00000</ele>
        <time>2024-05-10T19:02:02Z</time>
      </trkpt>
      <trkpt lat="42.96786499" lon="13.37454599">
        <ele>531.00000</ele>
        <time>2024-05-10T19:02:02Z</time>
      </trkpt>
      <trkpt lat="42.96786298" lon="13.37458094">
        <ele>531.00000</ele>
        <time>2024-05-10T19:02:03Z</time>
      </trkpt>
      <trkpt lat="42.96786096" lon="13.37461095">
        <ele>532.00000</ele>
        <time>2024-05-10T19:02:03Z</time>
      </trkpt>
      <trkpt lat="42.96785694" lon="13.37463995">
        <ele>532.00000</ele>
        <time>2024-05-10T19:02:04Z</time>
      </trkpt>
      <trkpt lat="42.96785493" lon="13.37466593">
        <ele>532.00000</ele>
        <time>2024-05-10T19:02:04Z</time>
      </trkpt>
      <trkpt lat="42.96785694" lon="13.37469795">
        <ele>532.00000</ele>
        <time>2024-05-10T19:02:04Z</time>
      </trkpt>
      <trkpt lat="42.96786197" lon="13.37472394">
        <ele>533.00000</ele>
        <time>2024-05-10T19:02:05Z</time>
      </trkpt>
      <trkpt lat="42.96786893" lon="13.37475595">
        <ele>533.00000</ele>
        <time>2024-05-10T19:02:05Z</time>
      </trkpt>
      <trkpt lat="42.96787396" lon="13.37479191">
        <ele>533.00000</ele>
        <time>2024-05-10T19:02:06Z</time>
      </trkpt>
      <trkpt lat="42.96787597" lon="13.37482494">
        <ele>534.00000</ele>
        <time>2024-05-10T19:02:06Z</time>
      </trkpt>
      <trkpt lat="42.96787697" lon="13.37486199">
        <ele>534.00000</ele>
        <time>2024-05-10T19:02:07Z</time>
      </trkpt>
      <trkpt lat="42.96787999" lon="13.37489895">
        <ele>534.00000</ele>
        <time>2024-05-10T19:02:07Z</time>
      </trkpt>
      <trkpt lat="42.96787697" lon="13.37492896">
        <ele>535.00000</ele>
        <time>2024-05-10T19:02:08Z</time>
      </trkpt>
      <trkpt lat="42.96787798" lon="13.37495796">
        <ele>535.00000</ele>
        <time>2024-05-10T19:02:08Z</time>
      </trkpt>
      <trkpt lat="42.96787295" lon="13.37499098">
        <ele>535.00000</ele>
        <time>2024-05-10T19:02:09Z</time>
      </trkpt>
      <trkpt lat="42.96787295" lon="13.37501998">
        <ele>535.00000</ele>
        <time>2024-05-10T19:02:09Z</time>
      </trkpt>
      <trkpt lat="42.96786893" lon="13.37505192">
        <ele>536.00000</ele>
        <time>2024-05-10T19:02:10Z</time>
      </trkpt>
      <trkpt lat="42.96786893" lon="13.37508092">
        <ele>536.00000</ele>
        <time>2024-05-10T19:02:10Z</time>
      </trkpt>
      <trkpt lat="42.96787194" lon="13.37510892">
        <ele>536.00000</ele>
        <time>2024-05-10T19:02:11Z</time>
      </trkpt>
      <trkpt lat="42.96787094" lon="13.37514094">
        <ele>536.00000</ele>
        <time>2024-05-10T19:02:11Z</time>
      </trkpt>
      <trkpt lat="42.96787396" lon="13.37516994">
        <ele>536.00000</ele>
        <time>2024-05-10T19:02:11Z</time>
      </trkpt>
      <trkpt lat="42.96786792" lon="13.37519793">
        <ele>537.00000</ele>
        <time>2024-05-10T19:02:12Z</time>
      </trkpt>
      <trkpt lat="42.96786096" lon="13.37522098">
        <ele>537.00000</ele>
        <time>2024-05-10T19:02:12Z</time>
      </trkpt>
      <trkpt lat="42.96786197" lon="13.37524998">
        <ele>537.00000</ele>
        <time>2024-05-10T19:02:13Z</time>
      </trkpt>
      <trkpt lat="42.96786096" lon="13.37527194">
        <ele>537.00000</ele>
        <time>2024-05-10T19:02:13Z</time>
      </trkpt>
      <trkpt lat="42.96786691" lon="13.37529592">
        <ele>537.00000</ele>
        <time>2024-05-10T19:02:13Z</time>
      </trkpt>
      <trkpt lat="42.96786792" lon="13.37532198">
        <ele>538.00000</ele>
        <time>2024-05-10T19:02:14Z</time>
      </trkpt>
      <trkpt lat="42.96786893" lon="13.37534294">
        <ele>538.00000</ele>
        <time>2024-05-10T19:02:14Z</time>
      </trkpt>
      <trkpt lat="42.96787194" lon="13.37537194">
        <ele>538.00000</ele>
        <time>2024-05-10T19:02:14Z</time>
      </trkpt>
      <trkpt lat="42.96786893" lon="13.37539499">
        <ele>538.00000</ele>
        <time>2024-05-10T19:02:15Z</time>
      </trkpt>
      <trkpt lat="42.96786792" lon="13.37542098">
        <ele>538.00000</ele>
        <time>2024-05-10T19:02:15Z</time>
      </trkpt>
      <trkpt lat="42.96786398" lon="13.37544796">
        <ele>538.00000</ele>
        <time>2024-05-10T19:02:16Z</time>
      </trkpt>
      <trkpt lat="42.96785895" lon="13.37547294">
        <ele>539.00000</ele>
        <time>2024-05-10T19:02:16Z</time>
      </trkpt>
      <trkpt lat="42.96785795" lon="13.37549692">
        <ele>539.00000</ele>
        <time>2024-05-10T19:02:16Z</time>
      </trkpt>
      <trkpt lat="42.96786096" lon="13.37551795">
        <ele>539.00000</ele>
        <time>2024-05-10T19:02:17Z</time>
      </trkpt>
      <trkpt lat="42.96786298" lon="13.37554394">
        <ele>539.00000</ele>
        <time>2024-05-10T19:02:17Z</time>
      </trkpt>
      <trkpt lat="42.96786499" lon="13.37556498">
        <ele>539.00000</ele>
        <time>2024-05-10T19:02:17Z</time>
      </trkpt>
      <trkpt lat="42.96786691" lon="13.37558593">
        <ele>540.00000</ele>
        <time>2024-05-10T19:02:18Z</time>
      </trkpt>
      <trkpt lat="42.96786691" lon="13.37560798">
        <ele>540.00000</ele>
        <time>2024-05-10T19:02:18Z</time>
      </trkpt>
      <trkpt lat="42.96786691" lon="13.37563899">
        <ele>540.00000</ele>
        <time>2024-05-10T19:02:18Z</time>
      </trkpt>
      <trkpt lat="42.96786599" lon="13.37566397">
        <ele>541.00000</ele>
        <time>2024-05-10T19:02:19Z</time>
      </trkpt>
      <trkpt lat="42.96786792" lon="13.37569397">
        <ele>541.00000</ele>
        <time>2024-05-10T19:02:19Z</time>
      </trkpt>
      <trkpt lat="42.96786893" lon="13.37571996">
        <ele>541.00000</ele>
        <time>2024-05-10T19:02:20Z</time>
      </trkpt>
      <trkpt lat="42.96787295" lon="13.37574695">
        <ele>542.00000</ele>
        <time>2024-05-10T19:02:20Z</time>
      </trkpt>
      <trkpt lat="42.96787597" lon="13.37577494">
        <ele>542.00000</ele>
        <time>2024-05-10T19:02:20Z</time>
      </trkpt>
      <trkpt lat="42.96787898" lon="13.37580294">
        <ele>542.00000</ele>
        <time>2024-05-10T19:02:21Z</time>
      </trkpt>
      <trkpt lat="42.96788192" lon="13.37583496">
        <ele>543.00000</ele>
        <time>2024-05-10T19:02:21Z</time>
      </trkpt>
      <trkpt lat="42.96788393" lon="13.37585692">
        <ele>543.00000</ele>
        <time>2024-05-10T19:02:22Z</time>
      </trkpt>
      <trkpt lat="42.96788594" lon="13.37588299">
        <ele>543.00000</ele>
        <time>2024-05-10T19:02:22Z</time>
      </trkpt>
      <trkpt lat="42.96788896" lon="13.37590998">
        <ele>543.00000</ele>
        <time>2024-05-10T19:02:22Z</time>
      </trkpt>
      <trkpt lat="42.96788896" lon="13.37594199">
        <ele>543.00000</ele>
        <time>2024-05-10T19:02:23Z</time>
      </trkpt>
      <trkpt lat="42.96789298" lon="13.37597192">
        <ele>543.00000</ele>
        <time>2024-05-10T19:02:23Z</time>
      </trkpt>
      <trkpt lat="42.96789592" lon="13.37600695">
        <ele>543.00000</ele>
        <time>2024-05-10T19:02:24Z</time>
      </trkpt>
      <trkpt lat="42.96789994" lon="13.37604593">
        <ele>544.00000</ele>
        <time>2024-05-10T19:02:24Z</time>
      </trkpt>
      <trkpt lat="42.96790396" lon="13.37608993">
        <ele>544.00000</ele>
        <time>2024-05-10T19:02:25Z</time>
      </trkpt>
      <trkpt lat="42.96790899" lon="13.37613495">
        <ele>544.00000</ele>
        <time>2024-05-10T19:02:26Z</time>
      </trkpt>
      <trkpt lat="42.96791193" lon="13.37617996">
        <ele>545.00000</ele>
        <time>2024-05-10T19:02:26Z</time>
      </trkpt>
      <trkpt lat="42.96791595" lon="13.37623796">
        <ele>545.00000</ele>
        <time>2024-05-10T19:02:27Z</time>
      </trkpt>
      <trkpt lat="42.96792098" lon="13.37628699">
        <ele>545.00000</ele>
        <time>2024-05-10T19:02:28Z</time>
      </trkpt>
      <trkpt lat="42.96792894" lon="13.37634592">
        <ele>546.00000</ele>
        <time>2024-05-10T19:02:29Z</time>
      </trkpt>
      <trkpt lat="42.96793498" lon="13.37640593">
        <ele>546.00000</ele>
        <time>2024-05-10T19:02:30Z</time>
      </trkpt>
      <trkpt lat="42.96794294" lon="13.37647399">
        <ele>546.00000</ele>
        <time>2024-05-10T19:02:31Z</time>
      </trkpt>
      <trkpt lat="42.96795099" lon="13.37653392">
        <ele>547.00000</ele>
        <time>2024-05-10T19:02:32Z</time>
      </trkpt>
      <trkpt lat="42.96795895" lon="13.37659997">
        <ele>547.00000</ele>
        <time>2024-05-10T19:02:33Z</time>
      </trkpt>
      <trkpt lat="42.96796498" lon="13.37666292">
        <ele>547.00000</ele>
        <time>2024-05-10T19:02:34Z</time>
      </trkpt>
      <trkpt lat="42.96797093" lon="13.37672998">
        <ele>547.00000</ele>
        <time>2024-05-10T19:02:35Z</time>
      </trkpt>
      <trkpt lat="42.96797395" lon="13.37679494">
        <ele>547.00000</ele>
        <time>2024-05-10T19:02:36Z</time>
      </trkpt>
      <trkpt lat="42.96798099" lon="13.37686794">
        <ele>547.00000</ele>
        <time>2024-05-10T19:02:37Z</time>
      </trkpt>
      <trkpt lat="42.96798896" lon="13.37694397">
        <ele>547.00000</ele>
        <time>2024-05-10T19:02:38Z</time>
      </trkpt>
      <trkpt lat="42.96799591" lon="13.37702695">
        <ele>546.00000</ele>
        <time>2024-05-10T19:02:39Z</time>
      </trkpt>
      <trkpt lat="42.96800195" lon="13.37709794">
        <ele>545.00000</ele>
        <time>2024-05-10T19:02:40Z</time>
      </trkpt>
      <trkpt lat="42.96800999" lon="13.37716793">
        <ele>545.00000</ele>
        <time>2024-05-10T19:02:41Z</time>
      </trkpt>
      <trkpt lat="42.96802399" lon="13.37724295">
        <ele>544.00000</ele>
        <time>2024-05-10T19:02:42Z</time>
      </trkpt>
      <trkpt lat="42.96803598" lon="13.37731797">
        <ele>544.00000</ele>
        <time>2024-05-10T19:02:43Z</time>
      </trkpt>
      <trkpt lat="42.96804394" lon="13.37739399">
        <ele>543.00000</ele>
        <time>2024-05-10T19:02:44Z</time>
      </trkpt>
      <trkpt lat="42.96804595" lon="13.37747194">
        <ele>543.00000</ele>
        <time>2024-05-10T19:02:46Z</time>
      </trkpt>
      <trkpt lat="42.96803598" lon="13.37754495">
        <ele>542.00000</ele>
        <time>2024-05-10T19:02:47Z</time>
      </trkpt>
      <trkpt lat="42.96801092" lon="13.37760999">
        <ele>543.00000</ele>
        <time>2024-05-10T19:02:48Z</time>
      </trkpt>
      <trkpt lat="42.96797395" lon="13.37765894">
        <ele>542.00000</ele>
        <time>2024-05-10T19:02:49Z</time>
      </trkpt>
      <trkpt lat="42.96792995" lon="13.37768694">
        <ele>542.00000</ele>
        <time>2024-05-10T19:02:50Z</time>
      </trkpt>
      <trkpt lat="42.96788393" lon="13.37769792">
        <ele>541.00000</ele>
        <time>2024-05-10T19:02:51Z</time>
      </trkpt>
      <trkpt lat="42.96784093" lon="13.37769096">
        <ele>541.00000</ele>
        <time>2024-05-10T19:02:52Z</time>
      </trkpt>
      <trkpt lat="42.96780598" lon="13.37767495">
        <ele>540.00000</ele>
        <time>2024-05-10T19:02:52Z</time>
      </trkpt>
      <trkpt lat="42.96778092" lon="13.37765199">
        <ele>539.00000</ele>
        <time>2024-05-10T19:02:53Z</time>
      </trkpt>
      <trkpt lat="42.96776097" lon="13.37762692">
        <ele>539.00000</ele>
        <time>2024-05-10T19:02:53Z</time>
      </trkpt>
      <trkpt lat="42.96774798" lon="13.37760396">
        <ele>539.00000</ele>
        <time>2024-05-10T19:02:54Z</time>
      </trkpt>
      <trkpt lat="42.96773197" lon="13.37758393">
        <ele>539.00000</ele>
        <time>2024-05-10T19:02:54Z</time>
      </trkpt>
      <trkpt lat="42.96771596" lon="13.37757395">
        <ele>539.00000</ele>
        <time>2024-05-10T19:02:55Z</time>
      </trkpt>
      <trkpt lat="42.96769995" lon="13.37755794">
        <ele>538.00000</ele>
        <time>2024-05-10T19:02:55Z</time>
      </trkpt>
      <trkpt lat="42.96768092" lon="13.37754696">
        <ele>538.00000</ele>
        <time>2024-05-10T19:02:55Z</time>
      </trkpt>
      <trkpt lat="42.96765795" lon="13.37753196">
        <ele>538.00000</ele>
        <time>2024-05-10T19:02:56Z</time>
      </trkpt>
      <trkpt lat="42.96763692" lon="13.37751192">
        <ele>538.00000</ele>
        <time>2024-05-10T19:02:56Z</time>
      </trkpt>
      <trkpt lat="42.96761294" lon="13.37749198">
        <ele>538.00000</ele>
        <time>2024-05-10T19:02:57Z</time>
      </trkpt>
      <trkpt lat="42.96758998" lon="13.37747798">
        <ele>538.00000</ele>
        <time>2024-05-10T19:02:58Z</time>
      </trkpt>
      <trkpt lat="42.96756592" lon="13.37746792">
        <ele>538.00000</ele>
        <time>2024-05-10T19:02:58Z</time>
      </trkpt>
      <trkpt lat="42.96754094" lon="13.37746297">
        <ele>538.00000</ele>
        <time>2024-05-10T19:02:59Z</time>
      </trkpt>
      <trkpt lat="42.96751496" lon="13.37745795">
        <ele>538.00000</ele>
        <time>2024-05-10T19:02:59Z</time>
      </trkpt>
      <trkpt lat="42.96749099" lon="13.37745392">
        <ele>538.00000</ele>
        <time>2024-05-10T19:03:00Z</time>
      </trkpt>
      <trkpt lat="42.96746391" lon="13.37745292">
        <ele>537.00000</ele>
        <time>2024-05-10T19:03:00Z</time>
      </trkpt>
      <trkpt lat="42.96743491" lon="13.37744998">
        <ele>537.00000</ele>
        <time>2024-05-10T19:03:01Z</time>
      </trkpt>
      <trkpt lat="42.96740599" lon="13.37744898">
        <ele>537.00000</ele>
        <time>2024-05-10T19:03:01Z</time>
      </trkpt>
      <trkpt lat="42.96737699" lon="13.37744696">
        <ele>536.00000</ele>
        <time>2024-05-10T19:03:02Z</time>
      </trkpt>
      <trkpt lat="42.96734891" lon="13.37744395">
        <ele>536.00000</ele>
        <time>2024-05-10T19:03:02Z</time>
      </trkpt>
      <trkpt lat="42.96732092" lon="13.37744596">
        <ele>536.00000</ele>
        <time>2024-05-10T19:03:03Z</time>
      </trkpt>
      <trkpt lat="42.96729695" lon="13.37745493">
        <ele>536.00000</ele>
        <time>2024-05-10T19:03:03Z</time>
      </trkpt>
      <trkpt lat="42.96727498" lon="13.37746792">
        <ele>536.00000</ele>
        <time>2024-05-10T19:03:04Z</time>
      </trkpt>
      <trkpt lat="42.96725294" lon="13.37748896">
        <ele>536.00000</ele>
        <time>2024-05-10T19:03:04Z</time>
      </trkpt>
      <trkpt lat="42.96723794" lon="13.37751595">
        <ele>536.00000</ele>
        <time>2024-05-10T19:03:05Z</time>
      </trkpt>
      <trkpt lat="42.96723693" lon="13.37754897">
        <ele>537.00000</ele>
        <time>2024-05-10T19:03:05Z</time>
      </trkpt>
      <trkpt lat="42.96724791" lon="13.37758393">
        <ele>537.00000</ele>
        <time>2024-05-10T19:03:06Z</time>
      </trkpt>
      <trkpt lat="42.96726493" lon="13.37760698">
        <ele>538.00000</ele>
        <time>2024-05-10T19:03:07Z</time>
      </trkpt>
      <trkpt lat="42.96728597" lon="13.37762198">
        <ele>538.00000</ele>
        <time>2024-05-10T19:03:07Z</time>
      </trkpt>
      <trkpt lat="42.96730591" lon="13.37763598">
        <ele>539.00000</ele>
        <time>2024-05-10T19:03:07Z</time>
      </trkpt>
      <trkpt lat="42.96732092" lon="13.37765995">
        <ele>539.00000</ele>
        <time>2024-05-10T19:03:08Z</time>
      </trkpt>
      <trkpt lat="42.96733793" lon="13.37768996">
        <ele>540.00000</ele>
        <time>2024-05-10T19:03:08Z</time>
      </trkpt>
      <trkpt lat="42.96735294" lon="13.37771896">
        <ele>540.00000</ele>
        <time>2024-05-10T19:03:09Z</time>
      </trkpt>
      <trkpt lat="42.96736895" lon="13.37774595">
        <ele>541.00000</ele>
        <time>2024-05-10T19:03:09Z</time>
      </trkpt>
      <trkpt lat="42.96738496" lon="13.37776799">
        <ele>541.00000</ele>
        <time>2024-05-10T19:03:10Z</time>
      </trkpt>
      <trkpt lat="42.96739099" lon="13.37779196">
        <ele>541.00000</ele>
        <time>2024-05-10T19:03:10Z</time>
      </trkpt>
      <trkpt lat="42.96739392" lon="13.37781895">
        <ele>542.00000</ele>
        <time>2024-05-10T19:03:11Z</time>
      </trkpt>
      <trkpt lat="42.96739392" lon="13.37784091">
        <ele>542.00000</ele>
        <time>2024-05-10T19:03:11Z</time>
      </trkpt>
      <trkpt lat="42.96738797" lon="13.37786396">
        <ele>542.00000</ele>
        <time>2024-05-10T19:03:11Z</time>
      </trkpt>
      <trkpt lat="42.96737993" lon="13.37789498">
        <ele>543.00000</ele>
        <time>2024-05-10T19:03:12Z</time>
      </trkpt>
      <trkpt lat="42.96738093" lon="13.37792691">
        <ele>543.00000</ele>
        <time>2024-05-10T19:03:12Z</time>
      </trkpt>
      <trkpt lat="42.96737993" lon="13.37795994">
        <ele>544.00000</ele>
        <time>2024-05-10T19:03:13Z</time>
      </trkpt>
      <trkpt lat="42.96737791" lon="13.37798894">
        <ele>544.00000</ele>
        <time>2024-05-10T19:03:13Z</time>
      </trkpt>
      <trkpt lat="42.96737398" lon="13.37801794">
        <ele>545.00000</ele>
        <time>2024-05-10T19:03:14Z</time>
      </trkpt>
      <trkpt lat="42.96736895" lon="13.37804493">
        <ele>545.00000</ele>
        <time>2024-05-10T19:03:14Z</time>
      </trkpt>
      <trkpt lat="42.96736098" lon="13.37807091">
        <ele>545.00000</ele>
        <time>2024-05-10T19:03:14Z</time>
      </trkpt>
      <trkpt lat="42.96734891" lon="13.37809095">
        <ele>545.00000</ele>
        <time>2024-05-10T19:03:15Z</time>
      </trkpt>
      <trkpt lat="42.96733492" lon="13.37811199">
        <ele>546.00000</ele>
        <time>2024-05-10T19:03:15Z</time>
      </trkpt>
      <trkpt lat="42.96731991" lon="13.37813495">
        <ele>546.00000</ele>
        <time>2024-05-10T19:03:16Z</time>
      </trkpt>
      <trkpt lat="42.96730994" lon="13.37815792">
        <ele>546.00000</ele>
        <time>2024-05-10T19:03:16Z</time>
      </trkpt>
      <trkpt lat="42.96729594" lon="13.37818591">
        <ele>547.00000</ele>
        <time>2024-05-10T19:03:17Z</time>
      </trkpt>
      <trkpt lat="42.96728395" lon="13.37821098">
        <ele>547.00000</ele>
        <time>2024-05-10T19:03:17Z</time>
      </trkpt>
      <trkpt lat="42.96726996" lon="13.37823797">
        <ele>547.00000</ele>
        <time>2024-05-10T19:03:18Z</time>
      </trkpt>
      <trkpt lat="42.96725898" lon="13.37826596">
        <ele>548.00000</ele>
        <time>2024-05-10T19:03:18Z</time>
      </trkpt>
      <trkpt lat="42.96724699" lon="13.37829295">
        <ele>548.00000</ele>
        <time>2024-05-10T19:03:18Z</time>
      </trkpt>
      <trkpt lat="42.96723492" lon="13.37831793">
        <ele>548.00000</ele>
        <time>2024-05-10T19:03:19Z</time>
      </trkpt>
      <trkpt lat="42.96722193" lon="13.37834794">
        <ele>549.00000</ele>
        <time>2024-05-10T19:03:19Z</time>
      </trkpt>
      <trkpt lat="42.96721195" lon="13.37837895">
        <ele>549.00000</ele>
        <time>2024-05-10T19:03:20Z</time>
      </trkpt>
      <trkpt lat="42.96720298" lon="13.37840493">
        <ele>550.00000</ele>
        <time>2024-05-10T19:03:20Z</time>
      </trkpt>
      <trkpt lat="42.96719393" lon="13.37843595">
        <ele>550.00000</ele>
        <time>2024-05-10T19:03:21Z</time>
      </trkpt>
      <trkpt lat="42.96718295" lon="13.37846696">
        <ele>551.00000</ele>
        <time>2024-05-10T19:03:21Z</time>
      </trkpt>
      <trkpt lat="42.96717097" lon="13.37849697">
        <ele>551.00000</ele>
        <time>2024-05-10T19:03:22Z</time>
      </trkpt>
      <trkpt lat="42.96715797" lon="13.37852194">
        <ele>551.00000</ele>
        <time>2024-05-10T19:03:22Z</time>
      </trkpt>
      <trkpt lat="42.96714892" lon="13.37854198">
        <ele>552.00000</ele>
        <time>2024-05-10T19:03:23Z</time>
      </trkpt>
      <trkpt lat="42.96713693" lon="13.37856997">
        <ele>552.00000</ele>
        <time>2024-05-10T19:03:23Z</time>
      </trkpt>
      <trkpt lat="42.96712193" lon="13.37859696">
        <ele>552.00000</ele>
        <time>2024-05-10T19:03:24Z</time>
      </trkpt>
      <trkpt lat="42.96710995" lon="13.37862395">
        <ele>552.00000</ele>
        <time>2024-05-10T19:03:24Z</time>
      </trkpt>
      <trkpt lat="42.96709896" lon="13.37865094">
        <ele>553.00000</ele>
        <time>2024-05-10T19:03:25Z</time>
      </trkpt>
      <trkpt lat="42.96708698" lon="13.37867592">
        <ele>553.00000</ele>
        <time>2024-05-10T19:03:25Z</time>
      </trkpt>
      <trkpt lat="42.96707591" lon="13.37870392">
        <ele>553.00000</ele>
        <time>2024-05-10T19:03:25Z</time>
      </trkpt>
      <trkpt lat="42.96706594" lon="13.37872898">
        <ele>554.00000</ele>
        <time>2024-05-10T19:03:26Z</time>
      </trkpt>
      <trkpt lat="42.96705597" lon="13.37875295">
        <ele>554.00000</ele>
        <time>2024-05-10T19:03:26Z</time>
      </trkpt>
      <trkpt lat="42.96704893" lon="13.37877793">
        <ele>554.00000</ele>
        <time>2024-05-10T19:03:27Z</time>
      </trkpt>
      <trkpt lat="42.96704297" lon="13.37880098">
        <ele>555.00000</ele>
        <time>2024-05-10T19:03:27Z</time>
      </trkpt>
      <trkpt lat="42.96703694" lon="13.37881699">
        <ele>555.00000</ele>
        <time>2024-05-10T19:03:27Z</time>
      </trkpt>
      <trkpt lat="42.96702797" lon="13.37883995">
        <ele>555.00000</ele>
        <time>2024-05-10T19:03:28Z</time>
      </trkpt>
      <trkpt lat="42.96701992" lon="13.37885999">
        <ele>555.00000</ele>
        <time>2024-05-10T19:03:28Z</time>
      </trkpt>
      <trkpt lat="42.96701498" lon="13.37888094">
        <ele>556.00000</ele>
        <time>2024-05-10T19:03:28Z</time>
      </trkpt>
      <trkpt lat="42.96700794" lon="13.37889796">
        <ele>556.00000</ele>
        <time>2024-05-10T19:03:29Z</time>
      </trkpt>
      <trkpt lat="42.96700391" lon="13.37891899">
        <ele>556.00000</ele>
        <time>2024-05-10T19:03:29Z</time>
      </trkpt>
      <trkpt lat="42.96699997" lon="13.37893794">
        <ele>557.00000</ele>
        <time>2024-05-10T19:03:29Z</time>
      </trkpt>
      <trkpt lat="42.96699293" lon="13.37895596">
        <ele>557.00000</ele>
        <time>2024-05-10T19:03:30Z</time>
      </trkpt>
      <trkpt lat="42.96698598" lon="13.37897792">
        <ele>558.00000</ele>
        <time>2024-05-10T19:03:30Z</time>
      </trkpt>
      <trkpt lat="42.96697894" lon="13.37899695">
        <ele>558.00000</ele>
        <time>2024-05-10T19:03:30Z</time>
      </trkpt>
      <trkpt lat="42.96697198" lon="13.37901597">
        <ele>558.00000</ele>
        <time>2024-05-10T19:03:30Z</time>
      </trkpt>
      <trkpt lat="42.96696594" lon="13.37903793">
        <ele>559.00000</ele>
        <time>2024-05-10T19:03:31Z</time>
      </trkpt>
      <trkpt lat="42.96695798" lon="13.37906098">
        <ele>559.00000</ele>
        <time>2024-05-10T19:03:31Z</time>
      </trkpt>
      <trkpt lat="42.96695295" lon="13.37908194">
        <ele>560.00000</ele>
        <time>2024-05-10T19:03:32Z</time>
      </trkpt>
      <trkpt lat="42.96694692" lon="13.37909694">
        <ele>560.00000</ele>
        <time>2024-05-10T19:03:32Z</time>
      </trkpt>
      <trkpt lat="42.96694298" lon="13.37911698">
        <ele>560.00000</ele>
        <time>2024-05-10T19:03:32Z</time>
      </trkpt>
      <trkpt lat="42.96694298" lon="13.37914296">
        <ele>561.00000</ele>
        <time>2024-05-10T19:03:32Z</time>
      </trkpt>
      <trkpt lat="42.96694298" lon="13.37916199">
        <ele>561.00000</ele>
        <time>2024-05-10T19:03:33Z</time>
      </trkpt>
      <trkpt lat="42.96693594" lon="13.37918093">
        <ele>562.00000</ele>
        <time>2024-05-10T19:03:33Z</time>
      </trkpt>
      <trkpt lat="42.96692797" lon="13.37919996">
        <ele>562.00000</ele>
        <time>2024-05-10T19:03:33Z</time>
      </trkpt>
      <trkpt lat="42.96692194" lon="13.37921697">
        <ele>563.00000</ele>
        <time>2024-05-10T19:03:34Z</time>
      </trkpt>
      <trkpt lat="42.96691599" lon="13.37923298">
        <ele>563.00000</ele>
        <time>2024-05-10T19:03:34Z</time>
      </trkpt>
      <trkpt lat="42.96690995" lon="13.37925293">
        <ele>563.00000</ele>
        <time>2024-05-10T19:03:34Z</time>
      </trkpt>
      <trkpt lat="42.96690199" lon="13.37926492">
        <ele>563.00000</ele>
        <time>2024-05-10T19:03:34Z</time>
      </trkpt>
      <trkpt lat="42.96689394" lon="13.37927992">
        <ele>564.00000</ele>
        <time>2024-05-10T19:03:35Z</time>
      </trkpt>
      <trkpt lat="42.96688891" lon="13.37930096">
        <ele>564.00000</ele>
        <time>2024-05-10T19:03:35Z</time>
      </trkpt>
      <trkpt lat="42.96688095" lon="13.37932191">
        <ele>565.00000</ele>
        <time>2024-05-10T19:03:35Z</time>
      </trkpt>
      <trkpt lat="42.96687492" lon="13.37933993">
        <ele>565.00000</ele>
        <time>2024-05-10T19:03:36Z</time>
      </trkpt>
      <trkpt lat="42.96686695" lon="13.37935494">
        <ele>565.00000</ele>
        <time>2024-05-10T19:03:36Z</time>
      </trkpt>
      <trkpt lat="42.96685899" lon="13.37937095">
        <ele>565.00000</ele>
        <time>2024-05-10T19:03:36Z</time>
      </trkpt>
      <trkpt lat="42.96685195" lon="13.37938696">
        <ele>566.00000</ele>
        <time>2024-05-10T19:03:37Z</time>
      </trkpt>
      <trkpt lat="42.96684198" lon="13.37940699">
        <ele>566.00000</ele>
        <time>2024-05-10T19:03:37Z</time>
      </trkpt>
      <trkpt lat="42.96683192" lon="13.37942493">
        <ele>566.00000</ele>
        <time>2024-05-10T19:03:37Z</time>
      </trkpt>
      <trkpt lat="42.96682295" lon="13.37944898">
        <ele>567.00000</ele>
        <time>2024-05-10T19:03:38Z</time>
      </trkpt>
      <trkpt lat="42.96681297" lon="13.37946893">
        <ele>567.00000</ele>
        <time>2024-05-10T19:03:38Z</time>
      </trkpt>
      <trkpt lat="42.96680292" lon="13.37948494">
        <ele>567.00000</ele>
        <time>2024-05-10T19:03:38Z</time>
      </trkpt>
      <trkpt lat="42.96679194" lon="13.37949994">
        <ele>567.00000</ele>
        <time>2024-05-10T19:03:39Z</time>
      </trkpt>
      <trkpt lat="42.96678096" lon="13.37951193">
        <ele>567.00000</ele>
        <time>2024-05-10T19:03:39Z</time>
      </trkpt>
      <trkpt lat="42.96676998" lon="13.37952199">
        <ele>567.00000</ele>
        <time>2024-05-10T19:03:39Z</time>
      </trkpt>
      <trkpt lat="42.96675899" lon="13.37953398">
        <ele>568.00000</ele>
        <time>2024-05-10T19:03:39Z</time>
      </trkpt>
      <trkpt lat="42.96674894" lon="13.37954697">
        <ele>568.00000</ele>
        <time>2024-05-10T19:03:40Z</time>
      </trkpt>
      <trkpt lat="42.96674198" lon="13.37955895">
        <ele>568.00000</ele>
        <time>2024-05-10T19:03:40Z</time>
      </trkpt>
      <trkpt lat="42.96672899" lon="13.37957195">
        <ele>568.00000</ele>
        <time>2024-05-10T19:03:40Z</time>
      </trkpt>
      <trkpt lat="42.96671692" lon="13.37958393">
        <ele>568.00000</ele>
        <time>2024-05-10T19:03:41Z</time>
      </trkpt>
      <trkpt lat="42.96670795" lon="13.37960095">
        <ele>568.00000</ele>
        <time>2024-05-10T19:03:41Z</time>
      </trkpt>
      <trkpt lat="42.96669596" lon="13.37960698">
        <ele>568.00000</ele>
        <time>2024-05-10T19:03:41Z</time>
      </trkpt>
      <trkpt lat="42.96668197" lon="13.37961595">
        <ele>568.00000</ele>
        <time>2024-05-10T19:03:41Z</time>
      </trkpt>
      <trkpt lat="42.96667392" lon="13.37962894">
        <ele>568.00000</ele>
        <time>2024-05-10T19:03:42Z</time>
      </trkpt>
      <trkpt lat="42.96665699" lon="13.37964395">
        <ele>568.00000</ele>
        <time>2024-05-10T19:03:42Z</time>
      </trkpt>
      <trkpt lat="42.96663897" lon="13.37965291">
        <ele>568.00000</ele>
        <time>2024-05-10T19:03:42Z</time>
      </trkpt>
      <trkpt lat="42.96662296" lon="13.37966599">
        <ele>568.00000</ele>
        <time>2024-05-10T19:03:43Z</time>
      </trkpt>
      <trkpt lat="42.96660192" lon="13.37967295">
        <ele>568.00000</ele>
        <time>2024-05-10T19:03:43Z</time>
      </trkpt>
      <trkpt lat="42.96658499" lon="13.37968493">
        <ele>568.00000</ele>
        <time>2024-05-10T19:03:44Z</time>
      </trkpt>
      <trkpt lat="42.96657292" lon="13.37969097">
        <ele>568.00000</ele>
        <time>2024-05-10T19:03:44Z</time>
      </trkpt>
      <trkpt lat="42.96656194" lon="13.37970396">
        <ele>568.00000</ele>
        <time>2024-05-10T19:03:44Z</time>
      </trkpt>
      <trkpt lat="42.96655096" lon="13.37971595">
        <ele>568.00000</ele>
        <time>2024-05-10T19:03:44Z</time>
      </trkpt>
      <trkpt lat="42.96653897" lon="13.37972994">
        <ele>568.00000</ele>
        <time>2024-05-10T19:03:45Z</time>
      </trkpt>
      <trkpt lat="42.96652296" lon="13.37973992">
        <ele>568.00000</ele>
        <time>2024-05-10T19:03:45Z</time>
      </trkpt>
      <trkpt lat="42.96650896" lon="13.37975492">
        <ele>568.00000</ele>
        <time>2024-05-10T19:03:45Z</time>
      </trkpt>
      <trkpt lat="42.96649899" lon="13.37976993">
        <ele>569.00000</ele>
        <time>2024-05-10T19:03:46Z</time>
      </trkpt>
      <trkpt lat="42.96648893" lon="13.37978795">
        <ele>569.00000</ele>
        <time>2024-05-10T19:03:46Z</time>
      </trkpt>
      <trkpt lat="42.96647694" lon="13.37980496">
        <ele>569.00000</ele>
        <time>2024-05-10T19:03:46Z</time>
      </trkpt>
      <trkpt lat="42.96646596" lon="13.37981695">
        <ele>569.00000</ele>
        <time>2024-05-10T19:03:47Z</time>
      </trkpt>
      <trkpt lat="42.96645297" lon="13.37983497">
        <ele>569.00000</ele>
        <time>2024-05-10T19:03:47Z</time>
      </trkpt>
      <trkpt lat="42.96643696" lon="13.37985198">
        <ele>569.00000</ele>
        <time>2024-05-10T19:03:47Z</time>
      </trkpt>
      <trkpt lat="42.96642095" lon="13.37986992">
        <ele>569.00000</ele>
        <time>2024-05-10T19:03:48Z</time>
      </trkpt>
      <trkpt lat="42.96640595" lon="13.37989297">
        <ele>570.00000</ele>
        <time>2024-05-10T19:03:48Z</time>
      </trkpt>
      <trkpt lat="42.96638994" lon="13.37991393">
        <ele>570.00000</ele>
        <time>2024-05-10T19:03:49Z</time>
      </trkpt>
      <trkpt lat="42.96637795" lon="13.37993195">
        <ele>570.00000</ele>
        <time>2024-05-10T19:03:49Z</time>
      </trkpt>
      <trkpt lat="42.96636396" lon="13.37995399">
        <ele>570.00000</ele>
        <time>2024-05-10T19:03:50Z</time>
      </trkpt>
      <trkpt lat="42.96635993" lon="13.37998199">
        <ele>571.00000</ele>
        <time>2024-05-10T19:03:50Z</time>
      </trkpt>
      <trkpt lat="42.96634996" lon="13.38000797">
        <ele>571.00000</ele>
        <time>2024-05-10T19:03:50Z</time>
      </trkpt>
      <trkpt lat="42.96634292" lon="13.38003194">
        <ele>571.00000</ele>
        <time>2024-05-10T19:03:51Z</time>
      </trkpt>
      <trkpt lat="42.96633194" lon="13.38005097">
        <ele>571.00000</ele>
        <time>2024-05-10T19:03:51Z</time>
      </trkpt>
      <trkpt lat="42.96632196" lon="13.38007494">
        <ele>572.00000</ele>
        <time>2024-05-10T19:03:52Z</time>
      </trkpt>
      <trkpt lat="42.96630998" lon="13.38010294">
        <ele>572.00000</ele>
        <time>2024-05-10T19:03:52Z</time>
      </trkpt>
      <trkpt lat="42.96630092" lon="13.38012699">
        <ele>572.00000</ele>
        <time>2024-05-10T19:03:52Z</time>
      </trkpt>
      <trkpt lat="42.96629891" lon="13.38015197">
        <ele>572.00000</ele>
        <time>2024-05-10T19:03:53Z</time>
      </trkpt>
      <trkpt lat="42.96629891" lon="13.38017695">
        <ele>572.00000</ele>
        <time>2024-05-10T19:03:53Z</time>
      </trkpt>
      <trkpt lat="42.96630595" lon="13.38020394">
        <ele>573.00000</ele>
        <time>2024-05-10T19:03:54Z</time>
      </trkpt>
      <trkpt lat="42.96631199" lon="13.38023596">
        <ele>573.00000</ele>
        <time>2024-05-10T19:03:54Z</time>
      </trkpt>
      <trkpt lat="42.96631199" lon="13.38026798">
        <ele>574.00000</ele>
        <time>2024-05-10T19:03:55Z</time>
      </trkpt>
      <trkpt lat="42.96631199" lon="13.38029296">
        <ele>574.00000</ele>
        <time>2024-05-10T19:03:55Z</time>
      </trkpt>
      <trkpt lat="42.96631098" lon="13.38031793">
        <ele>574.00000</ele>
        <time>2024-05-10T19:03:55Z</time>
      </trkpt>
      <trkpt lat="42.96630796" lon="13.38034199">
        <ele>574.00000</ele>
        <time>2024-05-10T19:03:56Z</time>
      </trkpt>
      <trkpt lat="42.96630595" lon="13.38036295">
        <ele>575.00000</ele>
        <time>2024-05-10T19:03:56Z</time>
      </trkpt>
      <trkpt lat="42.96630495" lon="13.38038792">
        <ele>575.00000</ele>
        <time>2024-05-10T19:03:56Z</time>
      </trkpt>
      <trkpt lat="42.96630796" lon="13.38040796">
        <ele>575.00000</ele>
        <time>2024-05-10T19:03:57Z</time>
      </trkpt>
      <trkpt lat="42.96630193" lon="13.38042397">
        <ele>575.00000</ele>
        <time>2024-05-10T19:03:57Z</time>
      </trkpt>
      <trkpt lat="42.96629891" lon="13.38044593">
        <ele>575.00000</ele>
        <time>2024-05-10T19:03:57Z</time>
      </trkpt>
      <trkpt lat="42.96629698" lon="13.38046294">
        <ele>576.00000</ele>
        <time>2024-05-10T19:03:57Z</time>
      </trkpt>
      <trkpt lat="42.96629296" lon="13.38048297">
        <ele>576.00000</ele>
        <time>2024-05-10T19:03:58Z</time>
      </trkpt>
      <trkpt lat="42.96629296" lon="13.38050292">
        <ele>576.00000</ele>
        <time>2024-05-10T19:03:58Z</time>
      </trkpt>
      <trkpt lat="42.96629799" lon="13.38052296">
        <ele>576.00000</ele>
        <time>2024-05-10T19:03:58Z</time>
      </trkpt>
      <trkpt lat="42.96629497" lon="13.38054995">
        <ele>576.00000</ele>
        <time>2024-05-10T19:03:59Z</time>
      </trkpt>
      <trkpt lat="42.96629598" lon="13.38057291">
        <ele>577.00000</ele>
        <time>2024-05-10T19:03:59Z</time>
      </trkpt>
      <trkpt lat="42.96629698" lon="13.38059797">
        <ele>577.00000</ele>
        <time>2024-05-10T19:03:59Z</time>
      </trkpt>
      <trkpt lat="42.96629598" lon="13.38062798">
        <ele>577.00000</ele>
        <time>2024-05-10T19:04:00Z</time>
      </trkpt>
      <trkpt lat="42.96629296" lon="13.38065598">
        <ele>578.00000</ele>
        <time>2024-05-10T19:04:00Z</time>
      </trkpt>
      <trkpt lat="42.96628894" lon="13.38068297">
        <ele>578.00000</ele>
        <time>2024-05-10T19:04:01Z</time>
      </trkpt>
      <trkpt lat="42.96628592" lon="13.38070996">
        <ele>578.00000</ele>
        <time>2024-05-10T19:04:01Z</time>
      </trkpt>
      <trkpt lat="42.96628198" lon="13.38073896">
        <ele>578.00000</ele>
        <time>2024-05-10T19:04:02Z</time>
      </trkpt>
      <trkpt lat="42.96627997" lon="13.38076394">
        <ele>578.00000</ele>
        <time>2024-05-10T19:04:02Z</time>
      </trkpt>
      <trkpt lat="42.96627896" lon="13.38078397">
        <ele>579.00000</ele>
        <time>2024-05-10T19:04:02Z</time>
      </trkpt>
      <trkpt lat="42.96627796" lon="13.38080693">
        <ele>579.00000</ele>
        <time>2024-05-10T19:04:03Z</time>
      </trkpt>
      <trkpt lat="42.96627393" lon="13.38082697">
        <ele>579.00000</ele>
        <time>2024-05-10T19:04:03Z</time>
      </trkpt>
      <trkpt lat="42.96627092" lon="13.38085094">
        <ele>579.00000</ele>
        <time>2024-05-10T19:04:03Z</time>
      </trkpt>
      <trkpt lat="42.96626899" lon="13.38087592">
        <ele>579.00000</ele>
        <time>2024-05-10T19:04:04Z</time>
      </trkpt>
      <trkpt lat="42.96626396" lon="13.38090299">
        <ele>579.00000</ele>
        <time>2024-05-10T19:04:04Z</time>
      </trkpt>
      <trkpt lat="42.96625994" lon="13.38092998">
        <ele>580.00000</ele>
        <time>2024-05-10T19:04:04Z</time>
      </trkpt>
      <trkpt lat="42.96625499" lon="13.38095295">
        <ele>580.00000</ele>
        <time>2024-05-10T19:04:05Z</time>
      </trkpt>
      <trkpt lat="42.96625097" lon="13.38097399">
        <ele>580.00000</ele>
        <time>2024-05-10T19:04:05Z</time>
      </trkpt>
      <trkpt lat="42.96624996" lon="13.38099796">
        <ele>580.00000</ele>
        <time>2024-05-10T19:04:05Z</time>
      </trkpt>
      <trkpt lat="42.96625197" lon="13.38101699">
        <ele>580.00000</ele>
        <time>2024-05-10T19:04:06Z</time>
      </trkpt>
      <trkpt lat="42.96624594" lon="13.38103794">
        <ele>580.00000</ele>
        <time>2024-05-10T19:04:06Z</time>
      </trkpt>
      <trkpt lat="42.96623798" lon="13.38106292">
        <ele>580.00000</ele>
        <time>2024-05-10T19:04:06Z</time>
      </trkpt>
      <trkpt lat="42.96622792" lon="13.38109293">
        <ele>580.00000</ele>
        <time>2024-05-10T19:04:07Z</time>
      </trkpt>
      <trkpt lat="42.96621694" lon="13.38111396">
        <ele>580.00000</ele>
        <time>2024-05-10T19:04:07Z</time>
      </trkpt>
      <trkpt lat="42.96620495" lon="13.38113492">
        <ele>580.00000</ele>
        <time>2024-05-10T19:04:08Z</time>
      </trkpt>
      <trkpt lat="42.96619598" lon="13.38115093">
        <ele>580.00000</ele>
        <time>2024-05-10T19:04:08Z</time>
      </trkpt>
      <trkpt lat="42.96618794" lon="13.38116995">
        <ele>580.00000</ele>
        <time>2024-05-10T19:04:08Z</time>
      </trkpt>
      <trkpt lat="42.96617796" lon="13.38118798">
        <ele>580.00000</ele>
        <time>2024-05-10T19:04:09Z</time>
      </trkpt>
      <trkpt lat="42.96617092" lon="13.38120298">
        <ele>580.00000</ele>
        <time>2024-05-10T19:04:09Z</time>
      </trkpt>
      <trkpt lat="42.96615994" lon="13.38122092">
        <ele>580.00000</ele>
        <time>2024-05-10T19:04:09Z</time>
      </trkpt>
      <trkpt lat="42.96614795" lon="13.38123491">
        <ele>580.00000</ele>
        <time>2024-05-10T19:04:10Z</time>
      </trkpt>
      <trkpt lat="42.96613496" lon="13.38124598">
        <ele>580.00000</ele>
        <time>2024-05-10T19:04:10Z</time>
      </trkpt>
      <trkpt lat="42.96612096" lon="13.38125294">
        <ele>579.00000</ele>
        <time>2024-05-10T19:04:10Z</time>
      </trkpt>
      <trkpt lat="42.96610496" lon="13.38125595">
        <ele>579.00000</ele>
        <time>2024-05-10T19:04:10Z</time>
      </trkpt>
      <trkpt lat="42.96608593" lon="13.38126098">
        <ele>579.00000</ele>
        <time>2024-05-10T19:04:11Z</time>
      </trkpt>
      <trkpt lat="42.96606497" lon="13.38126392">
        <ele>579.00000</ele>
        <time>2024-05-10T19:04:11Z</time>
      </trkpt>
      <trkpt lat="42.96603991" lon="13.38126794">
        <ele>579.00000</ele>
        <time>2024-05-10T19:04:12Z</time>
      </trkpt>
      <trkpt lat="42.96601996" lon="13.38127699">
        <ele>579.00000</ele>
        <time>2024-05-10T19:04:12Z</time>
      </trkpt>
      <trkpt lat="42.96600496" lon="13.38128294">
        <ele>579.00000</ele>
        <time>2024-05-10T19:04:13Z</time>
      </trkpt>
      <trkpt lat="42.96598895" lon="13.38128797">
        <ele>579.00000</ele>
        <time>2024-05-10T19:04:13Z</time>
      </trkpt>
      <trkpt lat="42.96597294" lon="13.38129593">
        <ele>579.00000</ele>
        <time>2024-05-10T19:04:13Z</time>
      </trkpt>
      <trkpt lat="42.96595693" lon="13.38130499">
        <ele>579.00000</ele>
        <time>2024-05-10T19:04:14Z</time>
      </trkpt>
      <trkpt lat="42.96594092" lon="13.38131194">
        <ele>579.00000</ele>
        <time>2024-05-10T19:04:14Z</time>
      </trkpt>
      <trkpt lat="42.96591896" lon="13.38132091">
        <ele>579.00000</ele>
        <time>2024-05-10T19:04:14Z</time>
      </trkpt>
      <trkpt lat="42.96589599" lon="13.38133893">
        <ele>579.00000</ele>
        <time>2024-05-10T19:04:15Z</time>
      </trkpt>
      <trkpt lat="42.96587596" lon="13.38136098">
        <ele>579.00000</ele>
        <time>2024-05-10T19:04:15Z</time>
      </trkpt>
      <trkpt lat="42.96585492" lon="13.38138696">
        <ele>580.00000</ele>
        <time>2024-05-10T19:04:16Z</time>
      </trkpt>
      <trkpt lat="42.96583699" lon="13.38141999">
        <ele>580.00000</ele>
        <time>2024-05-10T19:04:17Z</time>
      </trkpt>
      <trkpt lat="42.96582198" lon="13.38146299">
        <ele>579.00000</ele>
        <time>2024-05-10T19:04:17Z</time>
      </trkpt>
      <trkpt lat="42.96580899" lon="13.38150992">
        <ele>579.00000</ele>
        <time>2024-05-10T19:04:18Z</time>
      </trkpt>
      <trkpt lat="42.96579298" lon="13.38155795">
        <ele>579.00000</ele>
        <time>2024-05-10T19:04:19Z</time>
      </trkpt>
      <trkpt lat="42.96576993" lon="13.38161193">
        <ele>579.00000</ele>
        <time>2024-05-10T19:04:20Z</time>
      </trkpt>
      <trkpt lat="42.96573892" lon="13.38165996">
        <ele>579.00000</ele>
        <time>2024-05-10T19:04:21Z</time>
      </trkpt>
      <trkpt lat="42.96570698" lon="13.38171092">
        <ele>579.00000</ele>
        <time>2024-05-10T19:04:22Z</time>
      </trkpt>
      <trkpt lat="42.96566993" lon="13.38177697">
        <ele>579.00000</ele>
        <time>2024-05-10T19:04:23Z</time>
      </trkpt>
      <trkpt lat="42.96563892" lon="13.38184998">
        <ele>579.00000</ele>
        <time>2024-05-10T19:04:24Z</time>
      </trkpt>
      <trkpt lat="42.96560095" lon="13.38191695">
        <ele>579.00000</ele>
        <time>2024-05-10T19:04:25Z</time>
      </trkpt>
      <trkpt lat="42.96554999" lon="13.38197696">
        <ele>579.00000</ele>
        <time>2024-05-10T19:04:27Z</time>
      </trkpt>
      <trkpt lat="42.96549995" lon="13.38202499">
        <ele>579.00000</ele>
        <time>2024-05-10T19:04:28Z</time>
      </trkpt>
      <trkpt lat="42.96545997" lon="13.38207294">
        <ele>579.00000</ele>
        <time>2024-05-10T19:04:29Z</time>
      </trkpt>
      <trkpt lat="42.96542292" lon="13.38212298">
        <ele>579.00000</ele>
        <time>2024-05-10T19:04:30Z</time>
      </trkpt>
      <trkpt lat="42.96539199" lon="13.38216095">
        <ele>579.00000</ele>
        <time>2024-05-10T19:04:31Z</time>
      </trkpt>
      <trkpt lat="42.96536592" lon="13.38219397">
        <ele>578.00000</ele>
        <time>2024-05-10T19:04:32Z</time>
      </trkpt>
      <trkpt lat="42.96534497" lon="13.38222398">
        <ele>578.00000</ele>
        <time>2024-05-10T19:04:32Z</time>
      </trkpt>
      <trkpt lat="42.96533097" lon="13.38224996">
        <ele>579.00000</ele>
        <time>2024-05-10T19:04:33Z</time>
      </trkpt>
      <trkpt lat="42.96531597" lon="13.38226698">
        <ele>579.00000</ele>
        <time>2024-05-10T19:04:33Z</time>
      </trkpt>
      <trkpt lat="42.96530691" lon="13.38228592">
        <ele>579.00000</ele>
        <time>2024-05-10T19:04:33Z</time>
      </trkpt>
      <trkpt lat="42.96529895" lon="13.38229598">
        <ele>579.00000</ele>
        <time>2024-05-10T19:04:34Z</time>
      </trkpt>
      <trkpt lat="42.96529996" lon="13.38229992">
        <ele>579.00000</ele>
        <time>2024-05-10T19:04:34Z</time>
      </trkpt>
      <trkpt lat="42.96529895" lon="13.38230495">
        <ele>579.00000</ele>
        <time>2024-05-10T19:04:34Z</time>
      </trkpt>
      <trkpt lat="42.96527598" lon="13.38234996">
        <ele>579.00000</ele>
        <time>2024-05-10T19:04:34Z</time>
      </trkpt>
      <trkpt lat="42.96526098" lon="13.38236597">
        <ele>579.00000</ele>
        <time>2024-05-10T19:04:35Z</time>
      </trkpt>
      <trkpt lat="42.96525394" lon="13.38238894">
        <ele>579.00000</ele>
        <time>2024-05-10T19:04:35Z</time>
      </trkpt>
      <trkpt lat="42.96523994" lon="13.38241592">
        <ele>579.00000</ele>
        <time>2024-05-10T19:04:36Z</time>
      </trkpt>
      <trkpt lat="42.96522695" lon="13.38245197">
        <ele>579.00000</ele>
        <time>2024-05-10T19:04:36Z</time>
      </trkpt>
      <trkpt lat="42.96521094" lon="13.38249094">
        <ele>579.00000</ele>
        <time>2024-05-10T19:04:37Z</time>
      </trkpt>
      <trkpt lat="42.96519795" lon="13.38252992">
        <ele>579.00000</ele>
        <time>2024-05-10T19:04:38Z</time>
      </trkpt>
      <trkpt lat="42.96518697" lon="13.38257099">
        <ele>580.00000</ele>
        <time>2024-05-10T19:04:38Z</time>
      </trkpt>
      <trkpt lat="42.96517599" lon="13.38260896">
        <ele>580.00000</ele>
        <time>2024-05-10T19:04:39Z</time>
      </trkpt>
      <trkpt lat="42.96516392" lon="13.38265397">
        <ele>580.00000</ele>
        <time>2024-05-10T19:04:40Z</time>
      </trkpt>
      <trkpt lat="42.96515193" lon="13.38269596">
        <ele>580.00000</ele>
        <time>2024-05-10T19:04:40Z</time>
      </trkpt>
      <trkpt lat="42.96513793" lon="13.38274299">
        <ele>580.00000</ele>
        <time>2024-05-10T19:04:41Z</time>
      </trkpt>
      <trkpt lat="42.96512092" lon="13.38279194">
        <ele>580.00000</ele>
        <time>2024-05-10T19:04:42Z</time>
      </trkpt>
      <trkpt lat="42.96510399" lon="13.38283997">
        <ele>580.00000</ele>
        <time>2024-05-10T19:04:43Z</time>
      </trkpt>
      <trkpt lat="42.96509091" lon="13.38288397">
        <ele>580.00000</ele>
        <time>2024-05-10T19:04:43Z</time>
      </trkpt>
      <trkpt lat="42.96508194" lon="13.38293292">
        <ele>580.00000</ele>
        <time>2024-05-10T19:04:44Z</time>
      </trkpt>
      <trkpt lat="42.96507096" lon="13.38298497">
        <ele>581.00000</ele>
        <time>2024-05-10T19:04:45Z</time>
      </trkpt>
      <trkpt lat="42.96506199" lon="13.38304499">
        <ele>581.00000</ele>
        <time>2024-05-10T19:04:46Z</time>
      </trkpt>
      <trkpt lat="42.96506099" lon="13.38311095">
        <ele>581.00000</ele>
        <time>2024-05-10T19:04:47Z</time>
      </trkpt>
      <trkpt lat="42.96506694" lon="13.38318295">
        <ele>582.00000</ele>
        <time>2024-05-10T19:04:48Z</time>
      </trkpt>
      <trkpt lat="42.96507893" lon="13.38324699">
        <ele>582.00000</ele>
        <time>2024-05-10T19:04:49Z</time>
      </trkpt>
      <trkpt lat="42.96509192" lon="13.38330793">
        <ele>583.00000</ele>
        <time>2024-05-10T19:04:50Z</time>
      </trkpt>
      <trkpt lat="42.96510097" lon="13.38336593">
        <ele>583.00000</ele>
        <time>2024-05-10T19:04:50Z</time>
      </trkpt>
      <trkpt lat="42.96510499" lon="13.38343097">
        <ele>584.00000</ele>
        <time>2024-05-10T19:04:51Z</time>
      </trkpt>
      <trkpt lat="42.96509695" lon="13.38349099">
        <ele>584.00000</ele>
        <time>2024-05-10T19:04:52Z</time>
      </trkpt>
      <trkpt lat="42.96508396" lon="13.38354597">
        <ele>584.00000</ele>
        <time>2024-05-10T19:04:53Z</time>
      </trkpt>
      <trkpt lat="42.96507499" lon="13.38359794">
        <ele>584.00000</ele>
        <time>2024-05-10T19:04:54Z</time>
      </trkpt>
      <trkpt lat="42.96506593" lon="13.38365091">
        <ele>584.00000</ele>
        <time>2024-05-10T19:04:55Z</time>
      </trkpt>
      <trkpt lat="42.96506199" lon="13.38370095">
        <ele>584.00000</ele>
        <time>2024-05-10T19:04:55Z</time>
      </trkpt>
      <trkpt lat="42.96505898" lon="13.38374798">
        <ele>584.00000</ele>
        <time>2024-05-10T19:04:56Z</time>
      </trkpt>
      <trkpt lat="42.96505697" lon="13.38379793">
        <ele>584.00000</ele>
        <time>2024-05-10T19:04:57Z</time>
      </trkpt>
      <trkpt lat="42.96505395" lon="13.38384697">
        <ele>584.00000</ele>
        <time>2024-05-10T19:04:58Z</time>
      </trkpt>
      <trkpt lat="42.96504892" lon="13.38389692">
        <ele>584.00000</ele>
        <time>2024-05-10T19:04:58Z</time>
      </trkpt>
      <trkpt lat="42.96504196" lon="13.38394797">
        <ele>584.00000</ele>
        <time>2024-05-10T19:04:59Z</time>
      </trkpt>
      <trkpt lat="42.96503492" lon="13.38399793">
        <ele>583.00000</ele>
        <time>2024-05-10T19:05:00Z</time>
      </trkpt>
      <trkpt lat="42.96502394" lon="13.38405299">
        <ele>583.00000</ele>
        <time>2024-05-10T19:05:01Z</time>
      </trkpt>
      <trkpt lat="42.96501296" lon="13.38410697">
        <ele>582.00000</ele>
        <time>2024-05-10T19:05:02Z</time>
      </trkpt>
      <trkpt lat="42.96500198" lon="13.38415894">
        <ele>582.00000</ele>
        <time>2024-05-10T19:05:02Z</time>
      </trkpt>
      <trkpt lat="42.96499092" lon="13.38421192">
        <ele>581.00000</ele>
        <time>2024-05-10T19:05:03Z</time>
      </trkpt>
      <trkpt lat="42.96497893" lon="13.38426397">
        <ele>581.00000</ele>
        <time>2024-05-10T19:05:04Z</time>
      </trkpt>
      <trkpt lat="42.96496996" lon="13.38431099">
        <ele>581.00000</ele>
        <time>2024-05-10T19:05:05Z</time>
      </trkpt>
      <trkpt lat="42.96495798" lon="13.38436396">
        <ele>580.00000</ele>
        <time>2024-05-10T19:05:05Z</time>
      </trkpt>
      <trkpt lat="42.96494297" lon="13.38441392">
        <ele>580.00000</ele>
        <time>2024-05-10T19:05:06Z</time>
      </trkpt>
      <trkpt lat="42.96492495" lon="13.38446798">
        <ele>579.00000</ele>
        <time>2024-05-10T19:05:07Z</time>
      </trkpt>
      <trkpt lat="42.96490592" lon="13.38452599">
        <ele>579.00000</ele>
        <time>2024-05-10T19:05:08Z</time>
      </trkpt>
      <trkpt lat="42.96488991" lon="13.38459698">
        <ele>579.00000</ele>
        <time>2024-05-10T19:05:09Z</time>
      </trkpt>
      <trkpt lat="42.96488095" lon="13.38467895">
        <ele>580.00000</ele>
        <time>2024-05-10T19:05:10Z</time>
      </trkpt>
      <trkpt lat="42.96487499" lon="13.38476294">
        <ele>580.00000</ele>
        <time>2024-05-10T19:05:12Z</time>
      </trkpt>
      <trkpt lat="42.96485999" lon="13.38485497">
        <ele>581.00000</ele>
        <time>2024-05-10T19:05:13Z</time>
      </trkpt>
      <trkpt lat="42.96484692" lon="13.38495095">
        <ele>582.00000</ele>
        <time>2024-05-10T19:05:14Z</time>
      </trkpt>
      <trkpt lat="42.96484499" lon="13.38505094">
        <ele>582.00000</ele>
        <time>2024-05-10T19:05:16Z</time>
      </trkpt>
      <trkpt lat="42.96484993" lon="13.38514993">
        <ele>582.00000</ele>
        <time>2024-05-10T19:05:17Z</time>
      </trkpt>
      <trkpt lat="42.96485999" lon="13.38525395">
        <ele>582.00000</ele>
        <time>2024-05-10T19:05:19Z</time>
      </trkpt>
      <trkpt lat="42.96486997" lon="13.38535596">
        <ele>581.00000</ele>
        <time>2024-05-10T19:05:20Z</time>
      </trkpt>
      <trkpt lat="42.96488296" lon="13.38545998">
        <ele>580.00000</ele>
        <time>2024-05-10T19:05:22Z</time>
      </trkpt>
      <trkpt lat="42.96488899" lon="13.38557096">
        <ele>579.00000</ele>
        <time>2024-05-10T19:05:24Z</time>
      </trkpt>
      <trkpt lat="42.96489494" lon="13.38568696">
        <ele>578.00000</ele>
        <time>2024-05-10T19:05:25Z</time>
      </trkpt>
      <trkpt lat="42.96491799" lon="13.38580993">
        <ele>577.00000</ele>
        <time>2024-05-10T19:05:27Z</time>
      </trkpt>
      <trkpt lat="42.96494398" lon="13.38594093">
        <ele>576.00000</ele>
        <time>2024-05-10T19:05:29Z</time>
      </trkpt>
      <trkpt lat="42.96496393" lon="13.38608494">
        <ele>576.00000</ele>
        <time>2024-05-10T19:05:31Z</time>
      </trkpt>
      <trkpt lat="42.96497893" lon="13.38623899">
        <ele>575.00000</ele>
        <time>2024-05-10T19:05:34Z</time>
      </trkpt>
      <trkpt lat="42.96497591" lon="13.38639699">
        <ele>574.00000</ele>
        <time>2024-05-10T19:05:36Z</time>
      </trkpt>
      <trkpt lat="42.96496594" lon="13.38655197">
        <ele>572.00000</ele>
        <time>2024-05-10T19:05:38Z</time>
      </trkpt>
      <trkpt lat="42.96496191" lon="13.38670293">
        <ele>570.00000</ele>
        <time>2024-05-10T19:05:40Z</time>
      </trkpt>
      <trkpt lat="42.96496493" lon="13.38685699">
        <ele>568.00000</ele>
        <time>2024-05-10T19:05:43Z</time>
      </trkpt>
      <trkpt lat="42.96498396" lon="13.38701591">
        <ele>566.00000</ele>
        <time>2024-05-10T19:05:45Z</time>
      </trkpt>
      <trkpt lat="42.96500793" lon="13.38717592">
        <ele>564.00000</ele>
        <time>2024-05-10T19:05:47Z</time>
      </trkpt>
      <trkpt lat="42.96503299" lon="13.38733593">
        <ele>564.00000</ele>
        <time>2024-05-10T19:05:50Z</time>
      </trkpt>
      <trkpt lat="42.96506895" lon="13.38749695">
        <ele>564.00000</ele>
        <time>2024-05-10T19:05:52Z</time>
      </trkpt>
      <trkpt lat="42.96509795" lon="13.38766199">
        <ele>564.00000</ele>
        <time>2024-05-10T19:05:55Z</time>
      </trkpt>
      <trkpt lat="42.96512394" lon="13.38781999">
        <ele>564.00000</ele>
        <time>2024-05-10T19:05:57Z</time>
      </trkpt>
      <trkpt lat="42.96515294" lon="13.38797497">
        <ele>564.00000</ele>
        <time>2024-05-10T19:06:00Z</time>
      </trkpt>
      <trkpt lat="42.96518295" lon="13.38812098">
        <ele>564.00000</ele>
        <time>2024-05-10T19:06:02Z</time>
      </trkpt>
      <trkpt lat="42.96520298" lon="13.38825694">
        <ele>563.00000</ele>
        <time>2024-05-10T19:06:04Z</time>
      </trkpt>
      <trkpt lat="42.96519694" lon="13.38839993">
        <ele>563.00000</ele>
        <time>2024-05-10T19:06:06Z</time>
      </trkpt>
      <trkpt lat="42.96518093" lon="13.38853999">
        <ele>562.00000</ele>
        <time>2024-05-10T19:06:08Z</time>
      </trkpt>
      <trkpt lat="42.96515294" lon="13.38867494">
        <ele>561.00000</ele>
        <time>2024-05-10T19:06:10Z</time>
      </trkpt>
      <trkpt lat="42.96512695" lon="13.38881299">
        <ele>560.00000</ele>
        <time>2024-05-10T19:06:12Z</time>
      </trkpt>
      <trkpt lat="42.96509292" lon="13.38895498">
        <ele>559.00000</ele>
        <time>2024-05-10T19:06:14Z</time>
      </trkpt>
      <trkpt lat="42.96503794" lon="13.38909395">
        <ele>558.00000</ele>
        <time>2024-05-10T19:06:17Z</time>
      </trkpt>
      <trkpt lat="42.96497197" lon="13.38920694">
        <ele>557.00000</ele>
        <time>2024-05-10T19:06:19Z</time>
      </trkpt>
      <trkpt lat="42.96490492" lon="13.38929998">
        <ele>557.00000</ele>
        <time>2024-05-10T19:06:21Z</time>
      </trkpt>
      <trkpt lat="42.96484298" lon="13.38938799">
        <ele>556.00000</ele>
        <time>2024-05-10T19:06:22Z</time>
      </trkpt>
      <trkpt lat="42.96478891" lon="13.38947994">
        <ele>556.00000</ele>
        <time>2024-05-10T19:06:24Z</time>
      </trkpt>
      <trkpt lat="42.96474298" lon="13.38957499">
        <ele>555.00000</ele>
        <time>2024-05-10T19:06:26Z</time>
      </trkpt>
      <trkpt lat="42.96470199" lon="13.38966996">
        <ele>555.00000</ele>
        <time>2024-05-10T19:06:27Z</time>
      </trkpt>
      <trkpt lat="42.96466394" lon="13.38975193">
        <ele>555.00000</ele>
        <time>2024-05-10T19:06:29Z</time>
      </trkpt>
      <trkpt lat="42.96462899" lon="13.38982595">
        <ele>556.00000</ele>
        <time>2024-05-10T19:06:30Z</time>
      </trkpt>
      <trkpt lat="42.96459697" lon="13.38989493">
        <ele>556.00000</ele>
        <time>2024-05-10T19:06:31Z</time>
      </trkpt>
      <trkpt lat="42.96456998" lon="13.38996894">
        <ele>556.00000</ele>
        <time>2024-05-10T19:06:33Z</time>
      </trkpt>
      <trkpt lat="42.96454592" lon="13.39003792">
        <ele>557.00000</ele>
        <time>2024-05-10T19:06:34Z</time>
      </trkpt>
      <trkpt lat="42.96451994" lon="13.39010699">
        <ele>557.00000</ele>
        <time>2024-05-10T19:06:35Z</time>
      </trkpt>
      <trkpt lat="42.96449094" lon="13.39017396">
        <ele>558.00000</ele>
        <time>2024-05-10T19:06:36Z</time>
      </trkpt>
      <trkpt lat="42.96446093" lon="13.39023699">
        <ele>558.00000</ele>
        <time>2024-05-10T19:06:37Z</time>
      </trkpt>
      <trkpt lat="42.96443696" lon="13.39029693">
        <ele>559.00000</ele>
        <time>2024-05-10T19:06:38Z</time>
      </trkpt>
      <trkpt lat="42.96442195" lon="13.39035099">
        <ele>559.00000</ele>
        <time>2024-05-10T19:06:39Z</time>
      </trkpt>
      <trkpt lat="42.96442396" lon="13.39040296">
        <ele>559.00000</ele>
        <time>2024-05-10T19:06:40Z</time>
      </trkpt>
      <trkpt lat="42.96443897" lon="13.39044596">
        <ele>559.00000</ele>
        <time>2024-05-10T19:06:40Z</time>
      </trkpt>
      <trkpt lat="42.96447099" lon="13.39045199">
        <ele>559.00000</ele>
        <time>2024-05-10T19:06:41Z</time>
      </trkpt>
      <trkpt lat="42.96450594" lon="13.39044897">
        <ele>559.00000</ele>
        <time>2024-05-10T19:06:42Z</time>
      </trkpt>
      <trkpt lat="42.96454299" lon="13.39043891">
        <ele>559.00000</ele>
        <time>2024-05-10T19:06:43Z</time>
      </trkpt>
      <trkpt lat="42.96457794" lon="13.39043498">
        <ele>559.00000</ele>
        <time>2024-05-10T19:06:43Z</time>
      </trkpt>
      <trkpt lat="42.96461599" lon="13.39042894">
        <ele>559.00000</ele>
        <time>2024-05-10T19:06:44Z</time>
      </trkpt>
      <trkpt lat="42.96465296" lon="13.39041997">
        <ele>559.00000</ele>
        <time>2024-05-10T19:06:45Z</time>
      </trkpt>
      <trkpt lat="42.96469294" lon="13.39040899">
        <ele>559.00000</ele>
        <time>2024-05-10T19:06:46Z</time>
      </trkpt>
      <trkpt lat="42.96472898" lon="13.39040094">
        <ele>559.00000</ele>
        <time>2024-05-10T19:06:46Z</time>
      </trkpt>
      <trkpt lat="42.96476494" lon="13.39039399">
        <ele>560.00000</ele>
        <time>2024-05-10T19:06:47Z</time>
      </trkpt>
      <trkpt lat="42.96480098" lon="13.39038192">
        <ele>560.00000</ele>
        <time>2024-05-10T19:06:48Z</time>
      </trkpt>
      <trkpt lat="42.96483493" lon="13.39037094">
        <ele>561.00000</ele>
        <time>2024-05-10T19:06:48Z</time>
      </trkpt>
      <trkpt lat="42.96486896" lon="13.39036197">
        <ele>561.00000</ele>
        <time>2024-05-10T19:06:49Z</time>
      </trkpt>
      <trkpt lat="42.96490391" lon="13.39035493">
        <ele>561.00000</ele>
        <time>2024-05-10T19:06:50Z</time>
      </trkpt>
      <trkpt lat="42.96494096" lon="13.39034797">
        <ele>562.00000</ele>
        <time>2024-05-10T19:06:51Z</time>
      </trkpt>
      <trkpt lat="42.96497298" lon="13.39033791">
        <ele>562.00000</ele>
        <time>2024-05-10T19:06:51Z</time>
      </trkpt>
      <trkpt lat="42.96500491" lon="13.39033096">
        <ele>563.00000</ele>
        <time>2024-05-10T19:06:52Z</time>
      </trkpt>
      <trkpt lat="42.96503492" lon="13.39031897">
        <ele>563.00000</ele>
        <time>2024-05-10T19:06:53Z</time>
      </trkpt>
      <trkpt lat="42.96506493" lon="13.39030799">
        <ele>563.00000</ele>
        <time>2024-05-10T19:06:53Z</time>
      </trkpt>
      <trkpt lat="42.96509494" lon="13.39029994">
        <ele>564.00000</ele>
        <time>2024-05-10T19:06:54Z</time>
      </trkpt>
      <trkpt lat="42.96512394" lon="13.39029693">
        <ele>564.00000</ele>
        <time>2024-05-10T19:06:54Z</time>
      </trkpt>
      <trkpt lat="42.96514892" lon="13.39028997">
        <ele>564.00000</ele>
        <time>2024-05-10T19:06:55Z</time>
      </trkpt>
      <trkpt lat="42.96517398" lon="13.39027899">
        <ele>564.00000</ele>
        <time>2024-05-10T19:06:55Z</time>
      </trkpt>
      <trkpt lat="42.96519594" lon="13.39027094">
        <ele>565.00000</ele>
        <time>2024-05-10T19:06:56Z</time>
      </trkpt>
      <trkpt lat="42.96521999" lon="13.39025996">
        <ele>565.00000</ele>
        <time>2024-05-10T19:06:56Z</time>
      </trkpt>
      <trkpt lat="42.96524296" lon="13.39025694">
        <ele>565.00000</ele>
        <time>2024-05-10T19:06:57Z</time>
      </trkpt>
      <trkpt lat="42.96526492" lon="13.39025191">
        <ele>565.00000</ele>
        <time>2024-05-10T19:06:57Z</time>
      </trkpt>
      <trkpt lat="42.96528697" lon="13.39024496">
        <ele>565.00000</ele>
        <time>2024-05-10T19:06:58Z</time>
      </trkpt>
      <trkpt lat="42.96530691" lon="13.39024295">
        <ele>565.00000</ele>
        <time>2024-05-10T19:06:58Z</time>
      </trkpt>
      <trkpt lat="42.96532795" lon="13.39023892">
        <ele>566.00000</ele>
        <time>2024-05-10T19:06:59Z</time>
      </trkpt>
      <trkpt lat="42.96534991" lon="13.39022995">
        <ele>566.00000</ele>
        <time>2024-05-10T19:06:59Z</time>
      </trkpt>
      <trkpt lat="42.96537296" lon="13.39022392">
        <ele>566.00000</ele>
        <time>2024-05-10T19:06:59Z</time>
      </trkpt>
      <trkpt lat="42.96539291" lon="13.39022492">
        <ele>566.00000</ele>
        <time>2024-05-10T19:07:00Z</time>
      </trkpt>
      <trkpt lat="42.96541496" lon="13.39022492">
        <ele>566.00000</ele>
        <time>2024-05-10T19:07:00Z</time>
      </trkpt>
      <trkpt lat="42.96543792" lon="13.39022392">
        <ele>566.00000</ele>
        <time>2024-05-10T19:07:01Z</time>
      </trkpt>
      <trkpt lat="42.96545997" lon="13.39022593">
        <ele>566.00000</ele>
        <time>2024-05-10T19:07:01Z</time>
      </trkpt>
      <trkpt lat="42.96548293" lon="13.39022694">
        <ele>567.00000</ele>
        <time>2024-05-10T19:07:02Z</time>
      </trkpt>
      <trkpt lat="42.96549794" lon="13.39022995">
        <ele>567.00000</ele>
        <time>2024-05-10T19:07:02Z</time>
      </trkpt>
      <trkpt lat="42.96551395" lon="13.39023398">
        <ele>567.00000</ele>
        <time>2024-05-10T19:07:02Z</time>
      </trkpt>
      <trkpt lat="42.96552694" lon="13.39022995">
        <ele>567.00000</ele>
        <time>2024-05-10T19:07:03Z</time>
      </trkpt>
      <trkpt lat="42.96554295" lon="13.39022694">
        <ele>567.00000</ele>
        <time>2024-05-10T19:07:03Z</time>
      </trkpt>
      <trkpt lat="42.96556198" lon="13.39022794">
        <ele>567.00000</ele>
        <time>2024-05-10T19:07:03Z</time>
      </trkpt>
      <trkpt lat="42.96558092" lon="13.39023197">
        <ele>567.00000</ele>
        <time>2024-05-10T19:07:04Z</time>
      </trkpt>
      <trkpt lat="42.96559693" lon="13.39024596">
        <ele>568.00000</ele>
        <time>2024-05-10T19:07:04Z</time>
      </trkpt>
      <trkpt lat="42.96561193" lon="13.39025393">
        <ele>568.00000</ele>
        <time>2024-05-10T19:07:04Z</time>
      </trkpt>
      <trkpt lat="42.96563498" lon="13.39025795">
        <ele>568.00000</ele>
        <time>2024-05-10T19:07:05Z</time>
      </trkpt>
      <trkpt lat="42.96565795" lon="13.39025996">
        <ele>568.00000</ele>
        <time>2024-05-10T19:07:05Z</time>
      </trkpt>
      <trkpt lat="42.96567798" lon="13.39026298">
        <ele>568.00000</ele>
        <time>2024-05-10T19:07:06Z</time>
      </trkpt>
      <trkpt lat="42.96570095" lon="13.39027295">
        <ele>569.00000</ele>
        <time>2024-05-10T19:07:06Z</time>
      </trkpt>
      <trkpt lat="42.96571796" lon="13.39028293">
        <ele>569.00000</ele>
        <time>2024-05-10T19:07:06Z</time>
      </trkpt>
      <trkpt lat="42.96573992" lon="13.39029693">
        <ele>569.00000</ele>
        <time>2024-05-10T19:07:07Z</time>
      </trkpt>
      <trkpt lat="42.96576792" lon="13.39030598">
        <ele>569.00000</ele>
        <time>2024-05-10T19:07:08Z</time>
      </trkpt>
      <trkpt lat="42.96579499" lon="13.39031293">
        <ele>569.00000</ele>
        <time>2024-05-10T19:07:08Z</time>
      </trkpt>
      <trkpt lat="42.96581997" lon="13.39032199">
        <ele>570.00000</ele>
        <time>2024-05-10T19:07:09Z</time>
      </trkpt>
      <trkpt lat="42.96584294" lon="13.39033096">
        <ele>570.00000</ele>
        <time>2024-05-10T19:07:09Z</time>
      </trkpt>
      <trkpt lat="42.96586599" lon="13.39034093">
        <ele>570.00000</ele>
        <time>2024-05-10T19:07:10Z</time>
      </trkpt>
      <trkpt lat="42.96588392" lon="13.39035199">
        <ele>570.00000</ele>
        <time>2024-05-10T19:07:10Z</time>
      </trkpt>
      <trkpt lat="42.96590195" lon="13.39035996">
        <ele>570.00000</ele>
        <time>2024-05-10T19:07:10Z</time>
      </trkpt>
      <trkpt lat="42.96591695" lon="13.39036893">
        <ele>571.00000</ele>
        <time>2024-05-10T19:07:11Z</time>
      </trkpt>
      <trkpt lat="42.96593598" lon="13.39037697">
        <ele>571.00000</ele>
        <time>2024-05-10T19:07:11Z</time>
      </trkpt>
      <trkpt lat="42.96595894" lon="13.39038494">
        <ele>571.00000</ele>
        <time>2024-05-10T19:07:12Z</time>
      </trkpt>
      <trkpt lat="42.96597998" lon="13.39039399">
        <ele>571.00000</ele>
        <time>2024-05-10T19:07:12Z</time>
      </trkpt>
      <trkpt lat="42.96600596" lon="13.39040799">
        <ele>572.00000</ele>
        <time>2024-05-10T19:07:13Z</time>
      </trkpt>
      <trkpt lat="42.96602692" lon="13.39042299">
        <ele>572.00000</ele>
        <time>2024-05-10T19:07:13Z</time>
      </trkpt>
      <trkpt lat="42.96604896" lon="13.39044093">
        <ele>572.00000</ele>
        <time>2024-05-10T19:07:14Z</time>
      </trkpt>
      <trkpt lat="42.96607193" lon="13.39045098">
        <ele>572.00000</ele>
        <time>2024-05-10T19:07:14Z</time>
      </trkpt>
      <trkpt lat="42.96609397" lon="13.39046197">
        <ele>572.00000</ele>
        <time>2024-05-10T19:07:14Z</time>
      </trkpt>
      <trkpt lat="42.96611594" lon="13.39047496">
        <ele>573.00000</ele>
        <time>2024-05-10T19:07:15Z</time>
      </trkpt>
      <trkpt lat="42.96613899" lon="13.39048895">
        <ele>573.00000</ele>
        <time>2024-05-10T19:07:15Z</time>
      </trkpt>
      <trkpt lat="42.96616396" lon="13.39050496">
        <ele>573.00000</ele>
        <time>2024-05-10T19:07:16Z</time>
      </trkpt>
      <trkpt lat="42.96618894" lon="13.39052299">
        <ele>573.00000</ele>
        <time>2024-05-10T19:07:17Z</time>
      </trkpt>
      <trkpt lat="42.96621392" lon="13.39053397">
        <ele>573.00000</ele>
        <time>2024-05-10T19:07:17Z</time>
      </trkpt>
      <trkpt lat="42.96623496" lon="13.39054796">
        <ele>573.00000</ele>
        <time>2024-05-10T19:07:18Z</time>
      </trkpt>
      <trkpt lat="42.96625792" lon="13.39056196">
        <ele>573.00000</ele>
        <time>2024-05-10T19:07:18Z</time>
      </trkpt>
      <trkpt lat="42.96627997" lon="13.39057294">
        <ele>573.00000</ele>
        <time>2024-05-10T19:07:19Z</time>
      </trkpt>
      <trkpt lat="42.96630394" lon="13.39058392">
        <ele>573.00000</ele>
        <time>2024-05-10T19:07:19Z</time>
      </trkpt>
      <trkpt lat="42.96632993" lon="13.39059297">
        <ele>573.00000</ele>
        <time>2024-05-10T19:07:20Z</time>
      </trkpt>
      <trkpt lat="42.96635893" lon="13.39060295">
        <ele>573.00000</ele>
        <time>2024-05-10T19:07:20Z</time>
      </trkpt>
      <trkpt lat="42.96638692" lon="13.39060999">
        <ele>573.00000</ele>
        <time>2024-05-10T19:07:21Z</time>
      </trkpt>
      <trkpt lat="42.96641391" lon="13.39061393">
        <ele>573.00000</ele>
        <time>2024-05-10T19:07:21Z</time>
      </trkpt>
      <trkpt lat="42.96644291" lon="13.39061594">
        <ele>573.00000</ele>
        <time>2024-05-10T19:07:22Z</time>
      </trkpt>
      <trkpt lat="42.96647393" lon="13.39062097">
        <ele>573.00000</ele>
        <time>2024-05-10T19:07:22Z</time>
      </trkpt>
      <trkpt lat="42.96650695" lon="13.39062198">
        <ele>573.00000</ele>
        <time>2024-05-10T19:07:23Z</time>
      </trkpt>
      <trkpt lat="42.96653998" lon="13.39061695">
        <ele>573.00000</ele>
        <time>2024-05-10T19:07:24Z</time>
      </trkpt>
      <trkpt lat="42.96656898" lon="13.39060697">
        <ele>573.00000</ele>
        <time>2024-05-10T19:07:24Z</time>
      </trkpt>
      <trkpt lat="42.96660192" lon="13.39060597">
        <ele>573.00000</ele>
        <time>2024-05-10T19:07:25Z</time>
      </trkpt>
      <trkpt lat="42.96663394" lon="13.39060194">
        <ele>573.00000</ele>
        <time>2024-05-10T19:07:26Z</time>
      </trkpt>
      <trkpt lat="42.96666897" lon="13.39059398">
        <ele>573.00000</ele>
        <time>2024-05-10T19:07:26Z</time>
      </trkpt>
      <trkpt lat="42.96670292" lon="13.39059096">
        <ele>573.00000</ele>
        <time>2024-05-10T19:07:27Z</time>
      </trkpt>
      <trkpt lat="42.96673393" lon="13.39057596">
        <ele>573.00000</ele>
        <time>2024-05-10T19:07:28Z</time>
      </trkpt>
      <trkpt lat="42.96676595" lon="13.39056196">
        <ele>573.00000</ele>
        <time>2024-05-10T19:07:28Z</time>
      </trkpt>
      <trkpt lat="42.96680099" lon="13.39055995">
        <ele>573.00000</ele>
        <time>2024-05-10T19:07:29Z</time>
      </trkpt>
      <trkpt lat="42.96683594" lon="13.39055492">
        <ele>573.00000</ele>
        <time>2024-05-10T19:07:30Z</time>
      </trkpt>
      <trkpt lat="42.96686997" lon="13.39054394">
        <ele>573.00000</ele>
        <time>2024-05-10T19:07:31Z</time>
      </trkpt>
      <trkpt lat="42.96689998" lon="13.39052793">
        <ele>573.00000</ele>
        <time>2024-05-10T19:07:31Z</time>
      </trkpt>
      <trkpt lat="42.96692898" lon="13.39050899">
        <ele>573.00000</ele>
        <time>2024-05-10T19:07:32Z</time>
      </trkpt>
      <trkpt lat="42.96696092" lon="13.39050698">
        <ele>573.00000</ele>
        <time>2024-05-10T19:07:32Z</time>
      </trkpt>
      <trkpt lat="42.96699495" lon="13.39050798">
        <ele>572.00000</ele>
        <time>2024-05-10T19:07:33Z</time>
      </trkpt>
      <trkpt lat="42.96702797" lon="13.39050597">
        <ele>572.00000</ele>
        <time>2024-05-10T19:07:34Z</time>
      </trkpt>
      <trkpt lat="42.96706695" lon="13.39049994">
        <ele>572.00000</ele>
        <time>2024-05-10T19:07:35Z</time>
      </trkpt>
      <trkpt lat="42.96710793" lon="13.39049398">
        <ele>572.00000</ele>
        <time>2024-05-10T19:07:35Z</time>
      </trkpt>
      <trkpt lat="42.96714892" lon="13.39048594">
        <ele>572.00000</ele>
        <time>2024-05-10T19:07:36Z</time>
      </trkpt>
      <trkpt lat="42.96718798" lon="13.39047898">
        <ele>571.00000</ele>
        <time>2024-05-10T19:07:37Z</time>
      </trkpt>
      <trkpt lat="42.96722796" lon="13.39047093">
        <ele>571.00000</ele>
        <time>2024-05-10T19:07:38Z</time>
      </trkpt>
      <trkpt lat="42.96726996" lon="13.39046599">
        <ele>572.00000</ele>
        <time>2024-05-10T19:07:39Z</time>
      </trkpt>
      <trkpt lat="42.96730893" lon="13.39045694">
        <ele>572.00000</ele>
        <time>2024-05-10T19:07:39Z</time>
      </trkpt>
      <trkpt lat="42.96735092" lon="13.39044998">
        <ele>573.00000</ele>
        <time>2024-05-10T19:07:40Z</time>
      </trkpt>
      <trkpt lat="42.96738898" lon="13.39044394">
        <ele>573.00000</ele>
        <time>2024-05-10T19:07:41Z</time>
      </trkpt>
      <trkpt lat="42.96742795" lon="13.39043699">
        <ele>574.00000</ele>
        <time>2024-05-10T19:07:42Z</time>
      </trkpt>
      <trkpt lat="42.96746794" lon="13.39043196">
        <ele>574.00000</ele>
        <time>2024-05-10T19:07:43Z</time>
      </trkpt>
      <trkpt lat="42.96750691" lon="13.39042693">
        <ele>574.00000</ele>
        <time>2024-05-10T19:07:43Z</time>
      </trkpt>
      <trkpt lat="42.96754698" lon="13.39041997">
        <ele>575.00000</ele>
        <time>2024-05-10T19:07:44Z</time>
      </trkpt>
      <trkpt lat="42.96758495" lon="13.39041494">
        <ele>575.00000</ele>
        <time>2024-05-10T19:07:45Z</time>
      </trkpt>
      <trkpt lat="42.96762292" lon="13.39040991">
        <ele>576.00000</ele>
        <time>2024-05-10T19:07:46Z</time>
      </trkpt>
      <trkpt lat="42.96766097" lon="13.39039893">
        <ele>576.00000</ele>
        <time>2024-05-10T19:07:47Z</time>
      </trkpt>
      <trkpt lat="42.96769592" lon="13.39039198">
        <ele>577.00000</ele>
        <time>2024-05-10T19:07:47Z</time>
      </trkpt>
      <trkpt lat="42.96773096" lon="13.39038494">
        <ele>577.00000</ele>
        <time>2024-05-10T19:07:48Z</time>
      </trkpt>
      <trkpt lat="42.96776591" lon="13.39037396">
        <ele>578.00000</ele>
        <time>2024-05-10T19:07:49Z</time>
      </trkpt>
      <trkpt lat="42.96780095" lon="13.39036197">
        <ele>578.00000</ele>
        <time>2024-05-10T19:07:49Z</time>
      </trkpt>
      <trkpt lat="42.96783498" lon="13.39034697">
        <ele>578.00000</ele>
        <time>2024-05-10T19:07:50Z</time>
      </trkpt>
      <trkpt lat="42.96786893" lon="13.39033498">
        <ele>578.00000</ele>
        <time>2024-05-10T19:07:51Z</time>
      </trkpt>
      <trkpt lat="42.96790296" lon="13.39032199">
        <ele>578.00000</ele>
        <time>2024-05-10T19:07:52Z</time>
      </trkpt>
      <trkpt lat="42.96793699" lon="13.39030799">
        <ele>578.00000</ele>
        <time>2024-05-10T19:07:52Z</time>
      </trkpt>
      <trkpt lat="42.96796892" lon="13.39029399">
        <ele>578.00000</ele>
        <time>2024-05-10T19:07:53Z</time>
      </trkpt>
      <trkpt lat="42.96800295" lon="13.39027899">
        <ele>578.00000</ele>
        <time>2024-05-10T19:07:54Z</time>
      </trkpt>
      <trkpt lat="42.96803698" lon="13.39025896">
        <ele>578.00000</ele>
        <time>2024-05-10T19:07:54Z</time>
      </trkpt>
      <trkpt lat="42.96807294" lon="13.39023699">
        <ele>578.00000</ele>
        <time>2024-05-10T19:07:55Z</time>
      </trkpt>
      <trkpt lat="42.96810496" lon="13.39021495">
        <ele>578.00000</ele>
        <time>2024-05-10T19:07:56Z</time>
      </trkpt>
      <trkpt lat="42.96813698" lon="13.39019391">
        <ele>578.00000</ele>
        <time>2024-05-10T19:07:57Z</time>
      </trkpt>
      <trkpt lat="42.96816598" lon="13.39017095">
        <ele>578.00000</ele>
        <time>2024-05-10T19:07:57Z</time>
      </trkpt>
      <trkpt lat="42.96819599" lon="13.39014898">
        <ele>578.00000</ele>
        <time>2024-05-10T19:07:58Z</time>
      </trkpt>
      <trkpt lat="42.96823094" lon="13.39012191">
        <ele>578.00000</ele>
        <time>2024-05-10T19:07:59Z</time>
      </trkpt>
      <trkpt lat="42.96826296" lon="13.39009392">
        <ele>578.00000</ele>
        <time>2024-05-10T19:07:59Z</time>
      </trkpt>
      <trkpt lat="42.96829096" lon="13.39006793">
        <ele>578.00000</ele>
        <time>2024-05-10T19:08:00Z</time>
      </trkpt>
      <trkpt lat="42.96831795" lon="13.39003692">
        <ele>578.00000</ele>
        <time>2024-05-10T19:08:01Z</time>
      </trkpt>
      <trkpt lat="42.96834896" lon="13.39000498">
        <ele>578.00000</ele>
        <time>2024-05-10T19:08:02Z</time>
      </trkpt>
      <trkpt lat="42.96838198" lon="13.38997397">
        <ele>579.00000</ele>
        <time>2024-05-10T19:08:02Z</time>
      </trkpt>
      <trkpt lat="42.96841291" lon="13.38994698">
        <ele>579.00000</ele>
        <time>2024-05-10T19:08:03Z</time>
      </trkpt>
      <trkpt lat="42.96844191" lon="13.38992091">
        <ele>579.00000</ele>
        <time>2024-05-10T19:08:04Z</time>
      </trkpt>
      <trkpt lat="42.96847091" lon="13.38989594">
        <ele>580.00000</ele>
        <time>2024-05-10T19:08:05Z</time>
      </trkpt>
      <trkpt lat="42.96850092" lon="13.38986995">
        <ele>580.00000</ele>
        <time>2024-05-10T19:08:05Z</time>
      </trkpt>
      <trkpt lat="42.96853294" lon="13.38984397">
        <ele>580.00000</ele>
        <time>2024-05-10T19:08:06Z</time>
      </trkpt>
      <trkpt lat="42.96856295" lon="13.38981899">
        <ele>581.00000</ele>
        <time>2024-05-10T19:08:07Z</time>
      </trkpt>
      <trkpt lat="42.96859698" lon="13.38979393">
        <ele>581.00000</ele>
        <time>2024-05-10T19:08:08Z</time>
      </trkpt>
      <trkpt lat="42.96863696" lon="13.38977297">
        <ele>581.00000</ele>
        <time>2024-05-10T19:08:08Z</time>
      </trkpt>
      <trkpt lat="42.96867594" lon="13.38975596">
        <ele>581.00000</ele>
        <time>2024-05-10T19:08:09Z</time>
      </trkpt>
      <trkpt lat="42.96871692" lon="13.38974498">
        <ele>581.00000</ele>
        <time>2024-05-10T19:08:10Z</time>
      </trkpt>
      <trkpt lat="42.96876294" lon="13.38974498">
        <ele>580.00000</ele>
        <time>2024-05-10T19:08:11Z</time>
      </trkpt>
      <trkpt lat="42.96880896" lon="13.38975596">
        <ele>580.00000</ele>
        <time>2024-05-10T19:08:12Z</time>
      </trkpt>
      <trkpt lat="42.96884994" lon="13.38977792">
        <ele>579.00000</ele>
        <time>2024-05-10T19:08:13Z</time>
      </trkpt>
      <trkpt lat="42.96888599" lon="13.38980097">
        <ele>578.00000</ele>
        <time>2024-05-10T19:08:14Z</time>
      </trkpt>
      <trkpt lat="42.96892295" lon="13.38982393">
        <ele>578.00000</ele>
        <time>2024-05-10T19:08:14Z</time>
      </trkpt>
      <trkpt lat="42.96895899" lon="13.38984397">
        <ele>578.00000</ele>
        <time>2024-05-10T19:08:15Z</time>
      </trkpt>
      <trkpt lat="42.96899495" lon="13.38986995">
        <ele>577.00000</ele>
        <time>2024-05-10T19:08:16Z</time>
      </trkpt>
      <trkpt lat="42.96903594" lon="13.38989493">
        <ele>577.00000</ele>
        <time>2024-05-10T19:08:17Z</time>
      </trkpt>
      <trkpt lat="42.96907299" lon="13.38991798">
        <ele>578.00000</ele>
        <time>2024-05-10T19:08:18Z</time>
      </trkpt>
      <trkpt lat="42.96910995" lon="13.38993298">
        <ele>578.00000</ele>
        <time>2024-05-10T19:08:18Z</time>
      </trkpt>
      <trkpt lat="42.96915094" lon="13.38994396">
        <ele>578.00000</ele>
        <time>2024-05-10T19:08:19Z</time>
      </trkpt>
      <trkpt lat="42.96919092" lon="13.38994799">
        <ele>579.00000</ele>
        <time>2024-05-10T19:08:20Z</time>
      </trkpt>
      <trkpt lat="42.96922897" lon="13.38995092">
        <ele>579.00000</ele>
        <time>2024-05-10T19:08:21Z</time>
      </trkpt>
      <trkpt lat="42.96926896" lon="13.38995394">
        <ele>579.00000</ele>
        <time>2024-05-10T19:08:22Z</time>
      </trkpt>
      <trkpt lat="42.96930894" lon="13.38995394">
        <ele>580.00000</ele>
        <time>2024-05-10T19:08:22Z</time>
      </trkpt>
      <trkpt lat="42.96934892" lon="13.38994799">
        <ele>580.00000</ele>
        <time>2024-05-10T19:08:23Z</time>
      </trkpt>
      <trkpt lat="42.96938999" lon="13.38994095">
        <ele>581.00000</ele>
        <time>2024-05-10T19:08:24Z</time>
      </trkpt>
      <trkpt lat="42.96942997" lon="13.38992292">
        <ele>581.00000</ele>
        <time>2024-05-10T19:08:25Z</time>
      </trkpt>
      <trkpt lat="42.96946895" lon="13.38990499">
        <ele>582.00000</ele>
        <time>2024-05-10T19:08:26Z</time>
      </trkpt>
      <trkpt lat="42.96950591" lon="13.38987993">
        <ele>583.00000</ele>
        <time>2024-05-10T19:08:27Z</time>
      </trkpt>
      <trkpt lat="42.96954195" lon="13.38985394">
        <ele>583.00000</ele>
        <time>2024-05-10T19:08:27Z</time>
      </trkpt>
      <trkpt lat="42.96958093" lon="13.38982393">
        <ele>584.00000</ele>
        <time>2024-05-10T19:08:28Z</time>
      </trkpt>
      <trkpt lat="42.96961496" lon="13.38979896">
        <ele>585.00000</ele>
        <time>2024-05-10T19:08:29Z</time>
      </trkpt>
      <trkpt lat="42.96964991" lon="13.38977498">
        <ele>585.00000</ele>
        <time>2024-05-10T19:08:30Z</time>
      </trkpt>
      <trkpt lat="42.96969098" lon="13.38975395">
        <ele>586.00000</ele>
        <time>2024-05-10T19:08:31Z</time>
      </trkpt>
      <trkpt lat="42.96973591" lon="13.38974598">
        <ele>586.00000</ele>
        <time>2024-05-10T19:08:32Z</time>
      </trkpt>
      <trkpt lat="42.96978495" lon="13.38976291">
        <ele>587.00000</ele>
        <time>2024-05-10T19:08:33Z</time>
      </trkpt>
      <trkpt lat="42.96982795" lon="13.38980893">
        <ele>587.00000</ele>
        <time>2024-05-10T19:08:34Z</time>
      </trkpt>
      <trkpt lat="42.96984798" lon="13.38986995">
        <ele>587.00000</ele>
        <time>2024-05-10T19:08:35Z</time>
      </trkpt>
      <trkpt lat="42.96985594" lon="13.38993893">
        <ele>587.00000</ele>
        <time>2024-05-10T19:08:36Z</time>
      </trkpt>
      <trkpt lat="42.96985192" lon="13.39000297">
        <ele>586.00000</ele>
        <time>2024-05-10T19:08:37Z</time>
      </trkpt>
      <trkpt lat="42.96983398" lon="13.39006793">
        <ele>586.00000</ele>
        <time>2024-05-10T19:08:38Z</time>
      </trkpt>
      <trkpt lat="42.96981596" lon="13.39012493">
        <ele>585.00000</ele>
        <time>2024-05-10T19:08:39Z</time>
      </trkpt>
      <trkpt lat="42.96979492" lon="13.39017899">
        <ele>585.00000</ele>
        <time>2024-05-10T19:08:39Z</time>
      </trkpt>
      <trkpt lat="42.96976994" lon="13.39023197">
        <ele>584.00000</ele>
        <time>2024-05-10T19:08:40Z</time>
      </trkpt>
      <trkpt lat="42.96974295" lon="13.39028595">
        <ele>583.00000</ele>
        <time>2024-05-10T19:08:41Z</time>
      </trkpt>
      <trkpt lat="42.96971496" lon="13.39033992">
        <ele>582.00000</ele>
        <time>2024-05-10T19:08:42Z</time>
      </trkpt>
      <trkpt lat="42.96968596" lon="13.39039893">
        <ele>581.00000</ele>
        <time>2024-05-10T19:08:43Z</time>
      </trkpt>
      <trkpt lat="42.96965796" lon="13.39045593">
        <ele>580.00000</ele>
        <time>2024-05-10T19:08:44Z</time>
      </trkpt>
      <trkpt lat="42.96962695" lon="13.39052198">
        <ele>579.00000</ele>
        <time>2024-05-10T19:08:46Z</time>
      </trkpt>
      <trkpt lat="42.96959795" lon="13.39058392">
        <ele>578.00000</ele>
        <time>2024-05-10T19:08:47Z</time>
      </trkpt>
      <trkpt lat="42.96956894" lon="13.39064293">
        <ele>578.00000</ele>
        <time>2024-05-10T19:08:48Z</time>
      </trkpt>
      <trkpt lat="42.96954698" lon="13.39070496">
        <ele>577.00000</ele>
        <time>2024-05-10T19:08:49Z</time>
      </trkpt>
      <trkpt lat="42.96952695" lon="13.39076497">
        <ele>576.00000</ele>
        <time>2024-05-10T19:08:50Z</time>
      </trkpt>
      <trkpt lat="42.96951295" lon="13.39082691">
        <ele>576.00000</ele>
        <time>2024-05-10T19:08:51Z</time>
      </trkpt>
      <trkpt lat="42.96950197" lon="13.39089598">
        <ele>576.00000</ele>
        <time>2024-05-10T19:08:52Z</time>
      </trkpt>
      <trkpt lat="42.96950197" lon="13.39096798">
        <ele>576.00000</ele>
        <time>2024-05-10T19:08:53Z</time>
      </trkpt>
      <trkpt lat="42.96951195" lon="13.39103898">
        <ele>576.00000</ele>
        <time>2024-05-10T19:08:54Z</time>
      </trkpt>
      <trkpt lat="42.96952595" lon="13.39111098">
        <ele>576.00000</ele>
        <time>2024-05-10T19:08:55Z</time>
      </trkpt>
      <trkpt lat="42.96954891" lon="13.39117895">
        <ele>576.00000</ele>
        <time>2024-05-10T19:08:56Z</time>
      </trkpt>
      <trkpt lat="42.96957699" lon="13.39124391">
        <ele>577.00000</ele>
        <time>2024-05-10T19:08:57Z</time>
      </trkpt>
      <trkpt lat="42.96960893" lon="13.39130594">
        <ele>577.00000</ele>
        <time>2024-05-10T19:08:58Z</time>
      </trkpt>
      <trkpt lat="42.96964991" lon="13.39136193">
        <ele>577.00000</ele>
        <time>2024-05-10T19:08:59Z</time>
      </trkpt>
      <trkpt lat="42.96969291" lon="13.39141792">
        <ele>578.00000</ele>
        <time>2024-05-10T19:09:00Z</time>
      </trkpt>
      <trkpt lat="42.96973893" lon="13.39146696">
        <ele>578.00000</ele>
        <time>2024-05-10T19:09:02Z</time>
      </trkpt>
      <trkpt lat="42.96978796" lon="13.39151096">
        <ele>578.00000</ele>
        <time>2024-05-10T19:09:03Z</time>
      </trkpt>
      <trkpt lat="42.96983691" lon="13.39154893">
        <ele>578.00000</ele>
        <time>2024-05-10T19:09:04Z</time>
      </trkpt>
      <trkpt lat="42.96988796" lon="13.39158891">
        <ele>578.00000</ele>
        <time>2024-05-10T19:09:05Z</time>
      </trkpt>
      <trkpt lat="42.96993599" lon="13.39162294">
        <ele>579.00000</ele>
        <time>2024-05-10T19:09:06Z</time>
      </trkpt>
      <trkpt lat="42.96998594" lon="13.39165496">
        <ele>579.00000</ele>
        <time>2024-05-10T19:09:07Z</time>
      </trkpt>
      <trkpt lat="42.97003498" lon="13.39168799">
        <ele>579.00000</ele>
        <time>2024-05-10T19:09:08Z</time>
      </trkpt>
      <trkpt lat="42.97008594" lon="13.39172394">
        <ele>579.00000</ele>
        <time>2024-05-10T19:09:10Z</time>
      </trkpt>
      <trkpt lat="42.97013497" lon="13.39176099">
        <ele>579.00000</ele>
        <time>2024-05-10T19:09:11Z</time>
      </trkpt>
      <trkpt lat="42.97018099" lon="13.39179393">
        <ele>579.00000</ele>
        <time>2024-05-10T19:09:12Z</time>
      </trkpt>
      <trkpt lat="42.97022793" lon="13.39182595">
        <ele>580.00000</ele>
        <time>2024-05-10T19:09:13Z</time>
      </trkpt>
      <trkpt lat="42.97027495" lon="13.39184992">
        <ele>580.00000</ele>
        <time>2024-05-10T19:09:14Z</time>
      </trkpt>
      <trkpt lat="42.97031795" lon="13.39187197">
        <ele>580.00000</ele>
        <time>2024-05-10T19:09:15Z</time>
      </trkpt>
      <trkpt lat="42.97036598" lon="13.39189494">
        <ele>580.00000</ele>
        <time>2024-05-10T19:09:16Z</time>
      </trkpt>
      <trkpt lat="42.97041099" lon="13.39191899">
        <ele>580.00000</ele>
        <time>2024-05-10T19:09:17Z</time>
      </trkpt>
      <trkpt lat="42.97045298" lon="13.39194397">
        <ele>580.00000</ele>
        <time>2024-05-10T19:09:18Z</time>
      </trkpt>
      <trkpt lat="42.97049397" lon="13.39196593">
        <ele>579.00000</ele>
        <time>2024-05-10T19:09:18Z</time>
      </trkpt>
      <trkpt lat="42.97053395" lon="13.39198697">
        <ele>579.00000</ele>
        <time>2024-05-10T19:09:19Z</time>
      </trkpt>
      <trkpt lat="42.97057494" lon="13.39200792">
        <ele>579.00000</ele>
        <time>2024-05-10T19:09:20Z</time>
      </trkpt>
      <trkpt lat="42.97061895" lon="13.39202494">
        <ele>579.00000</ele>
        <time>2024-05-10T19:09:21Z</time>
      </trkpt>
      <trkpt lat="42.97066194" lon="13.39203994">
        <ele>579.00000</ele>
        <time>2024-05-10T19:09:22Z</time>
      </trkpt>
      <trkpt lat="42.97070293" lon="13.39205293">
        <ele>579.00000</ele>
        <time>2024-05-10T19:09:23Z</time>
      </trkpt>
      <trkpt lat="42.97074291" lon="13.39206391">
        <ele>579.00000</ele>
        <time>2024-05-10T19:09:24Z</time>
      </trkpt>
      <trkpt lat="42.97078499" lon="13.39206794">
        <ele>579.00000</ele>
        <time>2024-05-10T19:09:25Z</time>
      </trkpt>
      <trkpt lat="42.97082698" lon="13.39207096">
        <ele>579.00000</ele>
        <time>2024-05-10T19:09:25Z</time>
      </trkpt>
      <trkpt lat="42.97087099" lon="13.39206995">
        <ele>579.00000</ele>
        <time>2024-05-10T19:09:26Z</time>
      </trkpt>
      <trkpt lat="42.97091399" lon="13.39206391">
        <ele>580.00000</ele>
        <time>2024-05-10T19:09:27Z</time>
      </trkpt>
      <trkpt lat="42.97095699" lon="13.39204992">
        <ele>580.00000</ele>
        <time>2024-05-10T19:09:28Z</time>
      </trkpt>
      <trkpt lat="42.97099797" lon="13.39203097">
        <ele>581.00000</ele>
        <time>2024-05-10T19:09:29Z</time>
      </trkpt>
      <trkpt lat="42.97103494" lon="13.39201094">
        <ele>582.00000</ele>
        <time>2024-05-10T19:09:30Z</time>
      </trkpt>
      <trkpt lat="42.97106998" lon="13.39198999">
        <ele>582.00000</ele>
        <time>2024-05-10T19:09:30Z</time>
      </trkpt>
      <trkpt lat="42.97110099" lon="13.39196098">
        <ele>583.00000</ele>
        <time>2024-05-10T19:09:31Z</time>
      </trkpt>
      <trkpt lat="42.97113494" lon="13.39192394">
        <ele>584.00000</ele>
        <time>2024-05-10T19:09:32Z</time>
      </trkpt>
      <trkpt lat="42.97116796" lon="13.39188597">
        <ele>585.00000</ele>
        <time>2024-05-10T19:09:33Z</time>
      </trkpt>
      <trkpt lat="42.97119797" lon="13.39184699">
        <ele>586.00000</ele>
        <time>2024-05-10T19:09:34Z</time>
      </trkpt>
      <trkpt lat="42.97122395" lon="13.39180693">
        <ele>587.00000</ele>
        <time>2024-05-10T19:09:34Z</time>
      </trkpt>
      <trkpt lat="42.97125396" lon="13.39176795">
        <ele>588.00000</ele>
        <time>2024-05-10T19:09:35Z</time>
      </trkpt>
      <trkpt lat="42.97128296" lon="13.39172495">
        <ele>589.00000</ele>
        <time>2024-05-10T19:09:36Z</time>
      </trkpt>
      <trkpt lat="42.97131498" lon="13.39168497">
        <ele>590.00000</ele>
        <time>2024-05-10T19:09:37Z</time>
      </trkpt>
      <trkpt lat="42.97134792" lon="13.39164298">
        <ele>591.00000</ele>
        <time>2024-05-10T19:09:38Z</time>
      </trkpt>
      <trkpt lat="42.97137692" lon="13.39160299">
        <ele>593.00000</ele>
        <time>2024-05-10T19:09:39Z</time>
      </trkpt>
      <trkpt lat="42.97140592" lon="13.39156092">
        <ele>594.00000</ele>
        <time>2024-05-10T19:09:40Z</time>
      </trkpt>
      <trkpt lat="42.97143593" lon="13.39152697">
        <ele>594.00000</ele>
        <time>2024-05-10T19:09:40Z</time>
      </trkpt>
      <trkpt lat="42.97146594" lon="13.39149395">
        <ele>594.00000</ele>
        <time>2024-05-10T19:09:41Z</time>
      </trkpt>
      <trkpt lat="42.97149393" lon="13.39145899">
        <ele>595.00000</ele>
        <time>2024-05-10T19:09:42Z</time>
      </trkpt>
      <trkpt lat="42.97152193" lon="13.39142094">
        <ele>595.00000</ele>
        <time>2024-05-10T19:09:43Z</time>
      </trkpt>
      <trkpt lat="42.97155294" lon="13.39137693">
        <ele>595.00000</ele>
        <time>2024-05-10T19:09:44Z</time>
      </trkpt>
      <trkpt lat="42.97158496" lon="13.39134098">
        <ele>595.00000</ele>
        <time>2024-05-10T19:09:44Z</time>
      </trkpt>
      <trkpt lat="42.97161698" lon="13.39131298">
        <ele>595.00000</ele>
        <time>2024-05-10T19:09:45Z</time>
      </trkpt>
      <trkpt lat="42.97164992" lon="13.39128498">
        <ele>595.00000</ele>
        <time>2024-05-10T19:09:46Z</time>
      </trkpt>
      <trkpt lat="42.97168294" lon="13.39126193">
        <ele>595.00000</ele>
        <time>2024-05-10T19:09:47Z</time>
      </trkpt>
      <trkpt lat="42.97171597" lon="13.39123595">
        <ele>595.00000</ele>
        <time>2024-05-10T19:09:47Z</time>
      </trkpt>
      <trkpt lat="42.97174899" lon="13.39121399">
        <ele>595.00000</ele>
        <time>2024-05-10T19:09:48Z</time>
      </trkpt>
      <trkpt lat="42.97178294" lon="13.39119195">
        <ele>595.00000</ele>
        <time>2024-05-10T19:09:49Z</time>
      </trkpt>
      <trkpt lat="42.97181898" lon="13.39117493">
        <ele>595.00000</ele>
        <time>2024-05-10T19:09:50Z</time>
      </trkpt>
      <trkpt lat="42.97185494" lon="13.39115892">
        <ele>594.00000</ele>
        <time>2024-05-10T19:09:50Z</time>
      </trkpt>
      <trkpt lat="42.97189199" lon="13.39114593">
        <ele>594.00000</ele>
        <time>2024-05-10T19:09:51Z</time>
      </trkpt>
      <trkpt lat="42.97192694" lon="13.39113797">
        <ele>593.00000</ele>
        <time>2024-05-10T19:09:52Z</time>
      </trkpt>
      <trkpt lat="42.97196097" lon="13.39113495">
        <ele>593.00000</ele>
        <time>2024-05-10T19:09:53Z</time>
      </trkpt>
      <trkpt lat="42.97199098" lon="13.39113897">
        <ele>593.00000</ele>
        <time>2024-05-10T19:09:53Z</time>
      </trkpt>
      <trkpt lat="42.97202392" lon="13.39114593">
        <ele>593.00000</ele>
        <time>2024-05-10T19:09:54Z</time>
      </trkpt>
      <trkpt lat="42.97205694" lon="13.39115096">
        <ele>593.00000</ele>
        <time>2024-05-10T19:09:55Z</time>
      </trkpt>
      <trkpt lat="42.97209299" lon="13.39115993">
        <ele>593.00000</ele>
        <time>2024-05-10T19:09:55Z</time>
      </trkpt>
      <trkpt lat="42.97212794" lon="13.39117392">
        <ele>593.00000</ele>
        <time>2024-05-10T19:09:56Z</time>
      </trkpt>
      <trkpt lat="42.97216499" lon="13.39119195">
        <ele>593.00000</ele>
        <time>2024-05-10T19:09:57Z</time>
      </trkpt>
      <trkpt lat="42.97219793" lon="13.39120896">
        <ele>593.00000</ele>
        <time>2024-05-10T19:09:58Z</time>
      </trkpt>
      <trkpt lat="42.97223095" lon="13.39123696">
        <ele>594.00000</ele>
        <time>2024-05-10T19:09:58Z</time>
      </trkpt>
      <trkpt lat="42.97225995" lon="13.39127199">
        <ele>594.00000</ele>
        <time>2024-05-10T19:09:59Z</time>
      </trkpt>
      <trkpt lat="42.97227999" lon="13.39131399">
        <ele>595.00000</ele>
        <time>2024-05-10T19:10:00Z</time>
      </trkpt>
      <trkpt lat="42.97229591" lon="13.39136092">
        <ele>595.00000</ele>
        <time>2024-05-10T19:10:01Z</time>
      </trkpt>
      <trkpt lat="42.97230497" lon="13.39140895">
        <ele>595.00000</ele>
        <time>2024-05-10T19:10:01Z</time>
      </trkpt>
      <trkpt lat="42.97230597" lon="13.39145195">
        <ele>595.00000</ele>
        <time>2024-05-10T19:10:02Z</time>
      </trkpt>
      <trkpt lat="42.97229994" lon="13.39149897">
        <ele>595.00000</ele>
        <time>2024-05-10T19:10:03Z</time>
      </trkpt>
      <trkpt lat="42.97228996" lon="13.39154197">
        <ele>595.00000</ele>
        <time>2024-05-10T19:10:03Z</time>
      </trkpt>
      <trkpt lat="42.97228393" lon="13.39158196">
        <ele>595.00000</ele>
        <time>2024-05-10T19:10:04Z</time>
      </trkpt>
      <trkpt lat="42.97227798" lon="13.39161993">
        <ele>595.00000</ele>
        <time>2024-05-10T19:10:04Z</time>
      </trkpt>
      <trkpt lat="42.97227395" lon="13.39164893">
        <ele>595.00000</ele>
        <time>2024-05-10T19:10:05Z</time>
      </trkpt>
      <trkpt lat="42.97226892" lon="13.39167994">
        <ele>595.00000</ele>
        <time>2024-05-10T19:10:05Z</time>
      </trkpt>
      <trkpt lat="42.97226792" lon="13.39171095">
        <ele>595.00000</ele>
        <time>2024-05-10T19:10:06Z</time>
      </trkpt>
      <trkpt lat="42.97226297" lon="13.39174398">
        <ele>595.00000</ele>
        <time>2024-05-10T19:10:06Z</time>
      </trkpt>
      <trkpt lat="42.97225392" lon="13.39178396">
        <ele>595.00000</ele>
        <time>2024-05-10T19:10:07Z</time>
      </trkpt>
      <trkpt lat="42.97224797" lon="13.39182193">
        <ele>595.00000</ele>
        <time>2024-05-10T19:10:07Z</time>
      </trkpt>
      <trkpt lat="42.97224193" lon="13.39186392">
        <ele>595.00000</ele>
        <time>2024-05-10T19:10:08Z</time>
      </trkpt>
      <trkpt lat="42.97223992" lon="13.39190097">
        <ele>595.00000</ele>
        <time>2024-05-10T19:10:09Z</time>
      </trkpt>
      <trkpt lat="42.97223992" lon="13.39193995">
        <ele>595.00000</ele>
        <time>2024-05-10T19:10:09Z</time>
      </trkpt>
      <trkpt lat="42.97224193" lon="13.39197792">
        <ele>595.00000</ele>
        <time>2024-05-10T19:10:10Z</time>
      </trkpt>
      <trkpt lat="42.97224495" lon="13.39200993">
        <ele>596.00000</ele>
        <time>2024-05-10T19:10:10Z</time>
      </trkpt>
      <trkpt lat="42.97225493" lon="13.39203793">
        <ele>596.00000</ele>
        <time>2024-05-10T19:10:11Z</time>
      </trkpt>
      <trkpt lat="42.97226398" lon="13.39207297">
        <ele>597.00000</ele>
        <time>2024-05-10T19:10:11Z</time>
      </trkpt>
      <trkpt lat="42.97226691" lon="13.39210599">
        <ele>597.00000</ele>
        <time>2024-05-10T19:10:12Z</time>
      </trkpt>
      <trkpt lat="42.97227798" lon="13.39213793">
        <ele>598.00000</ele>
        <time>2024-05-10T19:10:12Z</time>
      </trkpt>
      <trkpt lat="42.97228795" lon="13.39216894">
        <ele>598.00000</ele>
        <time>2024-05-10T19:10:13Z</time>
      </trkpt>
      <trkpt lat="42.97230195" lon="13.39219895">
        <ele>599.00000</ele>
        <time>2024-05-10T19:10:13Z</time>
      </trkpt>
      <trkpt lat="42.97232097" lon="13.39222594">
        <ele>599.00000</ele>
        <time>2024-05-10T19:10:14Z</time>
      </trkpt>
      <trkpt lat="42.97233891" lon="13.39225796">
        <ele>600.00000</ele>
        <time>2024-05-10T19:10:14Z</time>
      </trkpt>
      <trkpt lat="42.97234998" lon="13.39229199">
        <ele>600.00000</ele>
        <time>2024-05-10T19:10:15Z</time>
      </trkpt>
      <trkpt lat="42.97235894" lon="13.39232099">
        <ele>600.00000</ele>
        <time>2024-05-10T19:10:15Z</time>
      </trkpt>
      <trkpt lat="42.97236498" lon="13.39234697">
        <ele>600.00000</ele>
        <time>2024-05-10T19:10:16Z</time>
      </trkpt>
      <trkpt lat="42.97237194" lon="13.39237296">
        <ele>600.00000</ele>
        <time>2024-05-10T19:10:16Z</time>
      </trkpt>
      <trkpt lat="42.97237898" lon="13.39239894">
        <ele>600.00000</ele>
        <time>2024-05-10T19:10:17Z</time>
      </trkpt>
      <trkpt lat="42.97238694" lon="13.39242794">
        <ele>600.00000</ele>
        <time>2024-05-10T19:10:17Z</time>
      </trkpt>
      <trkpt lat="42.97239398" lon="13.39245895">
        <ele>600.00000</ele>
        <time>2024-05-10T19:10:18Z</time>
      </trkpt>
      <trkpt lat="42.97240396" lon="13.39248997">
        <ele>600.00000</ele>
        <time>2024-05-10T19:10:18Z</time>
      </trkpt>
      <trkpt lat="42.97241393" lon="13.39252199">
        <ele>600.00000</ele>
        <time>2024-05-10T19:10:19Z</time>
      </trkpt>
      <trkpt lat="42.97242298" lon="13.39255895">
        <ele>600.00000</ele>
        <time>2024-05-10T19:10:19Z</time>
      </trkpt>
      <trkpt lat="42.97242893" lon="13.39260094">
        <ele>600.00000</ele>
        <time>2024-05-10T19:10:20Z</time>
      </trkpt>
      <trkpt lat="42.97243698" lon="13.39264897">
        <ele>600.00000</ele>
        <time>2024-05-10T19:10:21Z</time>
      </trkpt>
      <trkpt lat="42.97244897" lon="13.39269893">
        <ele>600.00000</ele>
        <time>2024-05-10T19:10:21Z</time>
      </trkpt>
      <trkpt lat="42.97245995" lon="13.39275299">
        <ele>600.00000</ele>
        <time>2024-05-10T19:10:22Z</time>
      </trkpt>
      <trkpt lat="42.97247696" lon="13.39280999">
        <ele>599.00000</ele>
        <time>2024-05-10T19:10:23Z</time>
      </trkpt>
      <trkpt lat="42.97249699" lon="13.39287394">
        <ele>599.00000</ele>
        <time>2024-05-10T19:10:24Z</time>
      </trkpt>
      <trkpt lat="42.97251795" lon="13.39293798">
        <ele>598.00000</ele>
        <time>2024-05-10T19:10:25Z</time>
      </trkpt>
      <trkpt lat="42.97254393" lon="13.39299892">
        <ele>598.00000</ele>
        <time>2024-05-10T19:10:26Z</time>
      </trkpt>
      <trkpt lat="42.97257495" lon="13.39305298">
        <ele>597.00000</ele>
        <time>2024-05-10T19:10:27Z</time>
      </trkpt>
      <trkpt lat="42.97261493" lon="13.39309891">
        <ele>597.00000</ele>
        <time>2024-05-10T19:10:28Z</time>
      </trkpt>
      <trkpt lat="42.97266094" lon="13.39313697">
        <ele>598.00000</ele>
        <time>2024-05-10T19:10:29Z</time>
      </trkpt>
      <trkpt lat="42.97271098" lon="13.39317393">
        <ele>598.00000</ele>
        <time>2024-05-10T19:10:30Z</time>
      </trkpt>
      <trkpt lat="42.97275993" lon="13.39320293">
        <ele>598.00000</ele>
        <time>2024-05-10T19:10:31Z</time>
      </trkpt>
      <trkpt lat="42.97281391" lon="13.39322598">
        <ele>598.00000</ele>
        <time>2024-05-10T19:10:33Z</time>
      </trkpt>
      <trkpt lat="42.97286697" lon="13.39324794">
        <ele>598.00000</ele>
        <time>2024-05-10T19:10:34Z</time>
      </trkpt>
      <trkpt lat="42.97292397" lon="13.39326999">
        <ele>598.00000</ele>
        <time>2024-05-10T19:10:35Z</time>
      </trkpt>
      <trkpt lat="42.97298197" lon="13.39328893">
        <ele>597.00000</ele>
        <time>2024-05-10T19:10:36Z</time>
      </trkpt>
      <trkpt lat="42.97303897" lon="13.39331198">
        <ele>597.00000</ele>
        <time>2024-05-10T19:10:37Z</time>
      </trkpt>
      <trkpt lat="42.97309395" lon="13.39333595">
        <ele>596.00000</ele>
        <time>2024-05-10T19:10:38Z</time>
      </trkpt>
      <trkpt lat="42.97315095" lon="13.39335196">
        <ele>596.00000</ele>
        <time>2024-05-10T19:10:40Z</time>
      </trkpt>
      <trkpt lat="42.97320292" lon="13.39336898">
        <ele>596.00000</ele>
        <time>2024-05-10T19:10:41Z</time>
      </trkpt>
      <trkpt lat="42.97325396" lon="13.39338297">
        <ele>596.00000</ele>
        <time>2024-05-10T19:10:42Z</time>
      </trkpt>
      <trkpt lat="42.97330593" lon="13.39339898">
        <ele>596.00000</ele>
        <time>2024-05-10T19:10:43Z</time>
      </trkpt>
      <trkpt lat="42.97336393" lon="13.39341298">
        <ele>596.00000</ele>
        <time>2024-05-10T19:10:44Z</time>
      </trkpt>
      <trkpt lat="42.97341791" lon="13.39342296">
        <ele>596.00000</ele>
        <time>2024-05-10T19:10:45Z</time>
      </trkpt>
      <trkpt lat="42.97346795" lon="13.39343394">
        <ele>596.00000</ele>
        <time>2024-05-10T19:10:46Z</time>
      </trkpt>
      <trkpt lat="42.97352193" lon="13.39344693">
        <ele>596.00000</ele>
        <time>2024-05-10T19:10:47Z</time>
      </trkpt>
      <trkpt lat="42.97357399" lon="13.39345891">
        <ele>596.00000</ele>
        <time>2024-05-10T19:10:48Z</time>
      </trkpt>
      <trkpt lat="42.97362796" lon="13.39347199">
        <ele>596.00000</ele>
        <time>2024-05-10T19:10:49Z</time>
      </trkpt>
      <trkpt lat="42.97367993" lon="13.39347593">
        <ele>596.00000</ele>
        <time>2024-05-10T19:10:50Z</time>
      </trkpt>
      <trkpt lat="42.97372897" lon="13.39347995">
        <ele>597.00000</ele>
        <time>2024-05-10T19:10:51Z</time>
      </trkpt>
      <trkpt lat="42.97377398" lon="13.39348892">
        <ele>597.00000</ele>
        <time>2024-05-10T19:10:52Z</time>
      </trkpt>
      <trkpt lat="42.97381999" lon="13.39349898">
        <ele>597.00000</ele>
        <time>2024-05-10T19:10:53Z</time>
      </trkpt>
      <trkpt lat="42.97386593" lon="13.39350895">
        <ele>598.00000</ele>
        <time>2024-05-10T19:10:54Z</time>
      </trkpt>
      <trkpt lat="42.97390893" lon="13.39351499">
        <ele>598.00000</ele>
        <time>2024-05-10T19:10:55Z</time>
      </trkpt>
      <trkpt lat="42.97394799" lon="13.39351792">
        <ele>599.00000</ele>
        <time>2024-05-10T19:10:56Z</time>
      </trkpt>
      <trkpt lat="42.97398294" lon="13.39352295">
        <ele>599.00000</ele>
        <time>2024-05-10T19:10:56Z</time>
      </trkpt>
      <trkpt lat="42.97401697" lon="13.39353192">
        <ele>599.00000</ele>
        <time>2024-05-10T19:10:57Z</time>
      </trkpt>
      <trkpt lat="42.97405192" lon="13.39353997">
        <ele>600.00000</ele>
        <time>2024-05-10T19:10:58Z</time>
      </trkpt>
      <trkpt lat="42.97408897" lon="13.39354198">
        <ele>600.00000</ele>
        <time>2024-05-10T19:10:59Z</time>
      </trkpt>
      <trkpt lat="42.97412694" lon="13.39354399">
        <ele>601.00000</ele>
        <time>2024-05-10T19:10:59Z</time>
      </trkpt>
      <trkpt lat="42.97415896" lon="13.39355296">
        <ele>601.00000</ele>
        <time>2024-05-10T19:11:00Z</time>
      </trkpt>
      <trkpt lat="42.97418897" lon="13.39356193">
        <ele>601.00000</ele>
        <time>2024-05-10T19:11:01Z</time>
      </trkpt>
      <trkpt lat="42.97421696" lon="13.39356696">
        <ele>602.00000</ele>
        <time>2024-05-10T19:11:01Z</time>
      </trkpt>
      <trkpt lat="42.97424496" lon="13.39357299">
        <ele>602.00000</ele>
        <time>2024-05-10T19:11:02Z</time>
      </trkpt>
      <trkpt lat="42.97427597" lon="13.39357492">
        <ele>603.00000</ele>
        <time>2024-05-10T19:11:02Z</time>
      </trkpt>
      <trkpt lat="42.97430598" lon="13.39357593">
        <ele>603.00000</ele>
        <time>2024-05-10T19:11:03Z</time>
      </trkpt>
      <trkpt lat="42.97434093" lon="13.39358096">
        <ele>604.00000</ele>
        <time>2024-05-10T19:11:04Z</time>
      </trkpt>
      <trkpt lat="42.97437395" lon="13.39358699">
        <ele>605.00000</ele>
        <time>2024-05-10T19:11:04Z</time>
      </trkpt>
      <trkpt lat="42.97440698" lon="13.39359093">
        <ele>605.00000</ele>
        <time>2024-05-10T19:11:05Z</time>
      </trkpt>
      <trkpt lat="42.97444093" lon="13.39359395">
        <ele>606.00000</ele>
        <time>2024-05-10T19:11:06Z</time>
      </trkpt>
      <trkpt lat="42.97447395" lon="13.39359797">
        <ele>606.00000</ele>
        <time>2024-05-10T19:11:06Z</time>
      </trkpt>
      <trkpt lat="42.97450295" lon="13.39359596">
        <ele>606.00000</ele>
        <time>2024-05-10T19:11:07Z</time>
      </trkpt>
      <trkpt lat="42.97453095" lon="13.39359294">
        <ele>606.00000</ele>
        <time>2024-05-10T19:11:07Z</time>
      </trkpt>
      <trkpt lat="42.97455693" lon="13.39358992">
        <ele>606.00000</ele>
        <time>2024-05-10T19:11:08Z</time>
      </trkpt>
      <trkpt lat="42.97458694" lon="13.39358397">
        <ele>606.00000</ele>
        <time>2024-05-10T19:11:09Z</time>
      </trkpt>
      <trkpt lat="42.97461695" lon="13.39357693">
        <ele>606.00000</ele>
        <time>2024-05-10T19:11:09Z</time>
      </trkpt>
      <trkpt lat="42.97464394" lon="13.39356595">
        <ele>606.00000</ele>
        <time>2024-05-10T19:11:10Z</time>
      </trkpt>
      <trkpt lat="42.97467394" lon="13.39354894">
        <ele>606.00000</ele>
        <time>2024-05-10T19:11:10Z</time>
      </trkpt>
      <trkpt lat="42.97470194" lon="13.39353393">
        <ele>607.00000</ele>
        <time>2024-05-10T19:11:11Z</time>
      </trkpt>
      <trkpt lat="42.97472692" lon="13.39351692">
        <ele>607.00000</ele>
        <time>2024-05-10T19:11:12Z</time>
      </trkpt>
      <trkpt lat="42.97475298" lon="13.39350292">
        <ele>607.00000</ele>
        <time>2024-05-10T19:11:12Z</time>
      </trkpt>
      <trkpt lat="42.97477696" lon="13.39348398">
        <ele>607.00000</ele>
        <time>2024-05-10T19:11:13Z</time>
      </trkpt>
      <trkpt lat="42.97480294" lon="13.39346193">
        <ele>608.00000</ele>
        <time>2024-05-10T19:11:13Z</time>
      </trkpt>
      <trkpt lat="42.97482691" lon="13.39343695">
        <ele>608.00000</ele>
        <time>2024-05-10T19:11:14Z</time>
      </trkpt>
      <trkpt lat="42.97484996" lon="13.39341198">
        <ele>609.00000</ele>
        <time>2024-05-10T19:11:14Z</time>
      </trkpt>
      <trkpt lat="42.97487192" lon="13.39338499">
        <ele>610.00000</ele>
        <time>2024-05-10T19:11:15Z</time>
      </trkpt>
      <trkpt lat="42.97489296" lon="13.39335196">
        <ele>611.00000</ele>
        <time>2024-05-10T19:11:16Z</time>
      </trkpt>
      <trkpt lat="42.97491098" lon="13.39332095">
        <ele>612.00000</ele>
        <time>2024-05-10T19:11:16Z</time>
      </trkpt>
      <trkpt lat="42.97492892" lon="13.39328692">
        <ele>613.00000</ele>
        <time>2024-05-10T19:11:17Z</time>
      </trkpt>
      <trkpt lat="42.97494694" lon="13.39325297">
        <ele>614.00000</ele>
        <time>2024-05-10T19:11:17Z</time>
      </trkpt>
      <trkpt lat="42.97497091" lon="13.39321894">
        <ele>616.00000</ele>
        <time>2024-05-10T19:11:18Z</time>
      </trkpt>
      <trkpt lat="42.97499991" lon="13.39319396">
        <ele>617.00000</ele>
        <time>2024-05-10T19:11:19Z</time>
      </trkpt>
      <trkpt lat="42.97503093" lon="13.39317494">
        <ele>618.00000</ele>
        <time>2024-05-10T19:11:20Z</time>
      </trkpt>
      <trkpt lat="42.97506798" lon="13.39316898">
        <ele>618.00000</ele>
        <time>2024-05-10T19:11:20Z</time>
      </trkpt>
      <trkpt lat="42.97509597" lon="13.39318097">
        <ele>618.00000</ele>
        <time>2024-05-10T19:11:21Z</time>
      </trkpt>
      <trkpt lat="42.97512497" lon="13.39320394">
        <ele>618.00000</ele>
        <time>2024-05-10T19:11:22Z</time>
      </trkpt>
      <trkpt lat="42.97514693" lon="13.39322892">
        <ele>617.00000</ele>
        <time>2024-05-10T19:11:22Z</time>
      </trkpt>
      <trkpt lat="42.97516596" lon="13.39326093">
        <ele>616.00000</ele>
        <time>2024-05-10T19:11:23Z</time>
      </trkpt>
      <trkpt lat="42.97518499" lon="13.39329094">
        <ele>615.00000</ele>
        <time>2024-05-10T19:11:23Z</time>
      </trkpt>
      <trkpt lat="42.97520494" lon="13.39331592">
        <ele>614.00000</ele>
        <time>2024-05-10T19:11:24Z</time>
      </trkpt>
      <trkpt lat="42.97522597" lon="13.39334492">
        <ele>614.00000</ele>
        <time>2024-05-10T19:11:24Z</time>
      </trkpt>
      <trkpt lat="42.97524794" lon="13.39337199">
        <ele>613.00000</ele>
        <time>2024-05-10T19:11:25Z</time>
      </trkpt>
      <trkpt lat="42.97526897" lon="13.39340494">
        <ele>612.00000</ele>
        <time>2024-05-10T19:11:26Z</time>
      </trkpt>
      <trkpt lat="42.97528892" lon="13.39343695">
        <ele>611.00000</ele>
        <time>2024-05-10T19:11:26Z</time>
      </trkpt>
      <trkpt lat="42.97530694" lon="13.39346294">
        <ele>611.00000</ele>
        <time>2024-05-10T19:11:27Z</time>
      </trkpt>
      <trkpt lat="42.97532798" lon="13.39348297">
        <ele>611.00000</ele>
        <time>2024-05-10T19:11:27Z</time>
      </trkpt>
      <trkpt lat="42.97535296" lon="13.39349797">
        <ele>611.00000</ele>
        <time>2024-05-10T19:11:28Z</time>
      </trkpt>
      <trkpt lat="42.97538096" lon="13.39350191">
        <ele>611.00000</ele>
        <time>2024-05-10T19:11:28Z</time>
      </trkpt>
      <trkpt lat="42.97540795" lon="13.39350996">
        <ele>612.00000</ele>
        <time>2024-05-10T19:11:29Z</time>
      </trkpt>
      <trkpt lat="42.97543192" lon="13.39352798">
        <ele>612.00000</ele>
        <time>2024-05-10T19:11:30Z</time>
      </trkpt>
      <trkpt lat="42.97545799" lon="13.39354592">
        <ele>611.00000</ele>
        <time>2024-05-10T19:11:30Z</time>
      </trkpt>
      <trkpt lat="42.97548891" lon="13.39355698">
        <ele>612.00000</ele>
        <time>2024-05-10T19:11:31Z</time>
      </trkpt>
      <trkpt lat="42.97551993" lon="13.39356595">
        <ele>612.00000</ele>
        <time>2024-05-10T19:11:31Z</time>
      </trkpt>
      <trkpt lat="42.97555496" lon="13.39357299">
        <ele>613.00000</ele>
        <time>2024-05-10T19:11:32Z</time>
      </trkpt>
      <trkpt lat="42.97558992" lon="13.39358598">
        <ele>613.00000</ele>
        <time>2024-05-10T19:11:33Z</time>
      </trkpt>
      <trkpt lat="42.97562898" lon="13.39359898">
        <ele>613.00000</ele>
        <time>2024-05-10T19:11:34Z</time>
      </trkpt>
      <trkpt lat="42.97566493" lon="13.39361398">
        <ele>613.00000</ele>
        <time>2024-05-10T19:11:34Z</time>
      </trkpt>
      <trkpt lat="42.97570198" lon="13.39363091">
        <ele>614.00000</ele>
        <time>2024-05-10T19:11:35Z</time>
      </trkpt>
      <trkpt lat="42.97574196" lon="13.39364298">
        <ele>614.00000</ele>
        <time>2024-05-10T19:11:36Z</time>
      </trkpt>
      <trkpt lat="42.97577993" lon="13.39365698">
        <ele>614.00000</ele>
        <time>2024-05-10T19:11:37Z</time>
      </trkpt>
      <trkpt lat="42.97581296" lon="13.39367399">
        <ele>615.00000</ele>
        <time>2024-05-10T19:11:37Z</time>
      </trkpt>
      <trkpt lat="42.97584791" lon="13.39369595">
        <ele>615.00000</ele>
        <time>2024-05-10T19:11:38Z</time>
      </trkpt>
      <trkpt lat="42.97588395" lon="13.39371599">
        <ele>615.00000</ele>
        <time>2024-05-10T19:11:39Z</time>
      </trkpt>
      <trkpt lat="42.97592293" lon="13.39373594">
        <ele>615.00000</ele>
        <time>2024-05-10T19:11:40Z</time>
      </trkpt>
      <trkpt lat="42.97596098" lon="13.39375899">
        <ele>615.00000</ele>
        <time>2024-05-10T19:11:41Z</time>
      </trkpt>
      <trkpt lat="42.97599392" lon="13.39377994">
        <ele>615.00000</ele>
        <time>2024-05-10T19:11:41Z</time>
      </trkpt>
      <trkpt lat="42.97602997" lon="13.39380391">
        <ele>615.00000</ele>
        <time>2024-05-10T19:11:42Z</time>
      </trkpt>
      <trkpt lat="42.97606592" lon="13.39382696">
        <ele>615.00000</ele>
        <time>2024-05-10T19:11:43Z</time>
      </trkpt>
      <trkpt lat="42.97610096" lon="13.39385094">
        <ele>614.00000</ele>
        <time>2024-05-10T19:11:44Z</time>
      </trkpt>
      <trkpt lat="42.97613893" lon="13.39387793">
        <ele>614.00000</ele>
        <time>2024-05-10T19:11:45Z</time>
      </trkpt>
      <trkpt lat="42.97617296" lon="13.39390492">
        <ele>613.00000</ele>
        <time>2024-05-10T19:11:45Z</time>
      </trkpt>
      <trkpt lat="42.97620791" lon="13.39392394">
        <ele>613.00000</ele>
        <time>2024-05-10T19:11:46Z</time>
      </trkpt>
      <trkpt lat="42.97624597" lon="13.39394498">
        <ele>613.00000</ele>
        <time>2024-05-10T19:11:47Z</time>
      </trkpt>
      <trkpt lat="42.97628193" lon="13.39396694">
        <ele>612.00000</ele>
        <time>2024-05-10T19:11:48Z</time>
      </trkpt>
      <trkpt lat="42.97631998" lon="13.39398899">
        <ele>612.00000</ele>
        <time>2024-05-10T19:11:49Z</time>
      </trkpt>
      <trkpt lat="42.97635896" lon="13.39400894">
        <ele>612.00000</ele>
        <time>2024-05-10T19:11:49Z</time>
      </trkpt>
      <trkpt lat="42.97639793" lon="13.39402696">
        <ele>612.00000</ele>
        <time>2024-05-10T19:11:50Z</time>
      </trkpt>
      <trkpt lat="42.97643599" lon="13.39404699">
        <ele>612.00000</ele>
        <time>2024-05-10T19:11:51Z</time>
      </trkpt>
      <trkpt lat="42.97647798" lon="13.39406996">
        <ele>612.00000</ele>
        <time>2024-05-10T19:11:52Z</time>
      </trkpt>
      <trkpt lat="42.97652198" lon="13.39409695">
        <ele>612.00000</ele>
        <time>2024-05-10T19:11:53Z</time>
      </trkpt>
      <trkpt lat="42.97656691" lon="13.39413198">
        <ele>612.00000</ele>
        <time>2024-05-10T19:11:54Z</time>
      </trkpt>
      <trkpt lat="42.97660899" lon="13.39417599">
        <ele>612.00000</ele>
        <time>2024-05-10T19:11:55Z</time>
      </trkpt>
      <trkpt lat="42.97664595" lon="13.39423893">
        <ele>614.00000</ele>
        <time>2024-05-10T19:11:56Z</time>
      </trkpt>
      <trkpt lat="42.97665995" lon="13.39431798">
        <ele>614.00000</ele>
        <time>2024-05-10T19:11:57Z</time>
      </trkpt>
      <trkpt lat="42.97664193" lon="13.39439693">
        <ele>614.00000</ele>
        <time>2024-05-10T19:11:59Z</time>
      </trkpt>
      <trkpt lat="42.97660497" lon="13.39446994">
        <ele>614.00000</ele>
        <time>2024-05-10T19:12:00Z</time>
      </trkpt>
      <trkpt lat="42.97657194" lon="13.39453699">
        <ele>614.00000</ele>
        <time>2024-05-10T19:12:01Z</time>
      </trkpt>
      <trkpt lat="42.97652995" lon="13.39460698">
        <ele>613.00000</ele>
        <time>2024-05-10T19:12:02Z</time>
      </trkpt>
      <trkpt lat="42.97647597" lon="13.39466297">
        <ele>612.00000</ele>
        <time>2024-05-10T19:12:04Z</time>
      </trkpt>
      <trkpt lat="42.97641294" lon="13.39470195">
        <ele>609.00000</ele>
        <time>2024-05-10T19:12:05Z</time>
      </trkpt>
      <trkpt lat="42.97635192" lon="13.39473799">
        <ele>608.00000</ele>
        <time>2024-05-10T19:12:07Z</time>
      </trkpt>
      <trkpt lat="42.97628293" lon="13.39477596">
        <ele>607.00000</ele>
        <time>2024-05-10T19:12:08Z</time>
      </trkpt>
      <trkpt lat="42.97621697" lon="13.39482592">
        <ele>607.00000</ele>
        <time>2024-05-10T19:12:10Z</time>
      </trkpt>
      <trkpt lat="42.97615695" lon="13.39488996">
        <ele>606.00000</ele>
        <time>2024-05-10T19:12:11Z</time>
      </trkpt>
      <trkpt lat="42.97609694" lon="13.39494997">
        <ele>605.00000</ele>
        <time>2024-05-10T19:12:13Z</time>
      </trkpt>
      <trkpt lat="42.97604598" lon="13.39501493">
        <ele>604.00000</ele>
        <time>2024-05-10T19:12:14Z</time>
      </trkpt>
      <trkpt lat="42.97600097" lon="13.39509498">
        <ele>604.00000</ele>
        <time>2024-05-10T19:12:15Z</time>
      </trkpt>
      <trkpt lat="42.97596291" lon="13.39519196">
        <ele>604.00000</ele>
        <time>2024-05-10T19:12:17Z</time>
      </trkpt>
      <trkpt lat="42.97592494" lon="13.39528491">
        <ele>604.00000</ele>
        <time>2024-05-10T19:12:19Z</time>
      </trkpt>
      <trkpt lat="42.97588798" lon="13.39537493">
        <ele>604.00000</ele>
        <time>2024-05-10T19:12:20Z</time>
      </trkpt>
      <trkpt lat="42.97586199" lon="13.39546697">
        <ele>605.00000</ele>
        <time>2024-05-10T19:12:22Z</time>
      </trkpt>
      <trkpt lat="42.97583299" lon="13.39555892">
        <ele>606.00000</ele>
        <time>2024-05-10T19:12:23Z</time>
      </trkpt>
      <trkpt lat="42.97580097" lon="13.39565497">
        <ele>605.00000</ele>
        <time>2024-05-10T19:12:25Z</time>
      </trkpt>
      <trkpt lat="42.97576694" lon="13.39574994">
        <ele>605.00000</ele>
        <time>2024-05-10T19:12:26Z</time>
      </trkpt>
      <trkpt lat="42.97574599" lon="13.39584994">
        <ele>606.00000</ele>
        <time>2024-05-10T19:12:28Z</time>
      </trkpt>
      <trkpt lat="42.97571891" lon="13.39594993">
        <ele>606.00000</ele>
        <time>2024-05-10T19:12:29Z</time>
      </trkpt>
      <trkpt lat="42.97569192" lon="13.39604599">
        <ele>606.00000</ele>
        <time>2024-05-10T19:12:31Z</time>
      </trkpt>
      <trkpt lat="42.97565898" lon="13.39613593">
        <ele>606.00000</ele>
        <time>2024-05-10T19:12:32Z</time>
      </trkpt>
      <trkpt lat="42.97561699" lon="13.39622595">
        <ele>606.00000</ele>
        <time>2024-05-10T19:12:34Z</time>
      </trkpt>
      <trkpt lat="42.97557399" lon="13.39631295">
        <ele>606.00000</ele>
        <time>2024-05-10T19:12:35Z</time>
      </trkpt>
      <trkpt lat="42.97552596" lon="13.39640096">
        <ele>606.00000</ele>
        <time>2024-05-10T19:12:37Z</time>
      </trkpt>
      <trkpt lat="42.97547198" lon="13.39648193">
        <ele>605.00000</ele>
        <time>2024-05-10T19:12:39Z</time>
      </trkpt>
      <trkpt lat="42.97541096" lon="13.39654496">
        <ele>604.00000</ele>
        <time>2024-05-10T19:12:40Z</time>
      </trkpt>
      <trkpt lat="42.97534793" lon="13.39661395">
        <ele>603.00000</ele>
        <time>2024-05-10T19:12:42Z</time>
      </trkpt>
      <trkpt lat="42.97528792" lon="13.39669399">
        <ele>602.00000</ele>
        <time>2024-05-10T19:12:43Z</time>
      </trkpt>
      <trkpt lat="42.97523394" lon="13.39678594">
        <ele>602.00000</ele>
        <time>2024-05-10T19:12:45Z</time>
      </trkpt>
      <trkpt lat="42.97518197" lon="13.39688594">
        <ele>602.00000</ele>
        <time>2024-05-10T19:12:47Z</time>
      </trkpt>
      <trkpt lat="42.97512799" lon="13.39698493">
        <ele>601.00000</ele>
        <time>2024-05-10T19:12:49Z</time>
      </trkpt>
      <trkpt lat="42.97508399" lon="13.39709297">
        <ele>600.00000</ele>
        <time>2024-05-10T19:12:50Z</time>
      </trkpt>
      <trkpt lat="42.97504694" lon="13.39720998">
        <ele>599.00000</ele>
        <time>2024-05-10T19:12:52Z</time>
      </trkpt>
      <trkpt lat="42.97503093" lon="13.39734192">
        <ele>599.00000</ele>
        <time>2024-05-10T19:12:54Z</time>
      </trkpt>
      <trkpt lat="42.97502498" lon="13.39747494">
        <ele>599.00000</ele>
        <time>2024-05-10T19:12:56Z</time>
      </trkpt>
      <trkpt lat="42.97502699" lon="13.39761198">
        <ele>598.00000</ele>
        <time>2024-05-10T19:12:58Z</time>
      </trkpt>
      <trkpt lat="42.97504199" lon="13.39775598">
        <ele>598.00000</ele>
        <time>2024-05-10T19:13:00Z</time>
      </trkpt>
      <trkpt lat="42.97505792" lon="13.39790794">
        <ele>597.00000</ele>
        <time>2024-05-10T19:13:03Z</time>
      </trkpt>
      <trkpt lat="42.97506798" lon="13.39805798">
        <ele>596.00000</ele>
        <time>2024-05-10T19:13:05Z</time>
      </trkpt>
      <trkpt lat="42.97507694" lon="13.39820399">
        <ele>595.00000</ele>
        <time>2024-05-10T19:13:07Z</time>
      </trkpt>
      <trkpt lat="42.97508499" lon="13.39834799">
        <ele>593.00000</ele>
        <time>2024-05-10T19:13:09Z</time>
      </trkpt>
      <trkpt lat="42.97509295" lon="13.39849694">
        <ele>593.00000</ele>
        <time>2024-05-10T19:13:11Z</time>
      </trkpt>
      <trkpt lat="42.97509999" lon="13.39864798">
        <ele>592.00000</ele>
        <time>2024-05-10T19:13:14Z</time>
      </trkpt>
      <trkpt lat="42.97511399" lon="13.39879492">
        <ele>591.00000</ele>
        <time>2024-05-10T19:13:16Z</time>
      </trkpt>
      <trkpt lat="42.97511994" lon="13.39894596">
        <ele>590.00000</ele>
        <time>2024-05-10T19:13:18Z</time>
      </trkpt>
      <trkpt lat="42.97512296" lon="13.39909792">
        <ele>590.00000</ele>
        <time>2024-05-10T19:13:20Z</time>
      </trkpt>
      <trkpt lat="42.97511894" lon="13.39923296">
        <ele>590.00000</ele>
        <time>2024-05-10T19:13:22Z</time>
      </trkpt>
      <trkpt lat="42.97512095" lon="13.39936296">
        <ele>590.00000</ele>
        <time>2024-05-10T19:13:24Z</time>
      </trkpt>
      <trkpt lat="42.97514098" lon="13.39949296">
        <ele>590.00000</ele>
        <time>2024-05-10T19:13:26Z</time>
      </trkpt>
      <trkpt lat="42.97517392" lon="13.39962196">
        <ele>589.00000</ele>
        <time>2024-05-10T19:13:28Z</time>
      </trkpt>
      <trkpt lat="42.97521592" lon="13.39974593">
        <ele>588.00000</ele>
        <time>2024-05-10T19:13:30Z</time>
      </trkpt>
      <trkpt lat="42.97526897" lon="13.39986294">
        <ele>586.00000</ele>
        <time>2024-05-10T19:13:32Z</time>
      </trkpt>
      <trkpt lat="42.97533293" lon="13.39998196">
        <ele>584.00000</ele>
        <time>2024-05-10T19:13:34Z</time>
      </trkpt>
      <trkpt lat="42.97541096" lon="13.40009495">
        <ele>582.00000</ele>
        <time>2024-05-10T19:13:37Z</time>
      </trkpt>
      <trkpt lat="42.97549093" lon="13.40020895">
        <ele>580.00000</ele>
        <time>2024-05-10T19:13:39Z</time>
      </trkpt>
      <trkpt lat="42.97557198" lon="13.40032495">
        <ele>579.00000</ele>
        <time>2024-05-10T19:13:41Z</time>
      </trkpt>
      <trkpt lat="42.97564993" lon="13.40043392">
        <ele>578.00000</ele>
        <time>2024-05-10T19:13:43Z</time>
      </trkpt>
      <trkpt lat="42.97571799" lon="13.40053098">
        <ele>578.00000</ele>
        <time>2024-05-10T19:13:45Z</time>
      </trkpt>
      <trkpt lat="42.97577893" lon="13.40062192">
        <ele>577.00000</ele>
        <time>2024-05-10T19:13:47Z</time>
      </trkpt>
      <trkpt lat="42.97585495" lon="13.40068998">
        <ele>577.00000</ele>
        <time>2024-05-10T19:13:49Z</time>
      </trkpt>
      <trkpt lat="42.97593793" lon="13.40072292">
        <ele>577.00000</ele>
        <time>2024-05-10T19:13:51Z</time>
      </trkpt>
      <trkpt lat="42.97602997" lon="13.40071194">
        <ele>577.00000</ele>
        <time>2024-05-10T19:13:53Z</time>
      </trkpt>
      <trkpt lat="42.97611697" lon="13.40067598">
        <ele>577.00000</ele>
        <time>2024-05-10T19:13:54Z</time>
      </trkpt>
      <trkpt lat="42.97619392" lon="13.40064799">
        <ele>578.00000</ele>
        <time>2024-05-10T19:13:56Z</time>
      </trkpt>
      <trkpt lat="42.97626298" lon="13.40062997">
        <ele>578.00000</ele>
        <time>2024-05-10T19:13:57Z</time>
      </trkpt>
      <trkpt lat="42.97632099" lon="13.40065193">
        <ele>578.00000</ele>
        <time>2024-05-10T19:13:59Z</time>
      </trkpt>
      <trkpt lat="42.97636197" lon="13.40070691">
        <ele>577.00000</ele>
        <time>2024-05-10T19:14:00Z</time>
      </trkpt>
      <trkpt lat="42.97637497" lon="13.40077992">
        <ele>576.00000</ele>
        <time>2024-05-10T19:14:01Z</time>
      </trkpt>
      <trkpt lat="42.97636792" lon="13.40085997">
        <ele>575.00000</ele>
        <time>2024-05-10T19:14:02Z</time>
      </trkpt>
      <trkpt lat="42.97634999" lon="13.40094194">
        <ele>575.00000</ele>
        <time>2024-05-10T19:14:03Z</time>
      </trkpt>
      <trkpt lat="42.97632493" lon="13.40102291">
        <ele>574.00000</ele>
        <time>2024-05-10T19:14:05Z</time>
      </trkpt>
      <trkpt lat="42.97628494" lon="13.40110698">
        <ele>573.00000</ele>
        <time>2024-05-10T19:14:06Z</time>
      </trkpt>
      <trkpt lat="42.97623096" lon="13.40119197">
        <ele>572.00000</ele>
        <time>2024-05-10T19:14:08Z</time>
      </trkpt>
      <trkpt lat="42.97617397" lon="13.40127998">
        <ele>571.00000</ele>
        <time>2024-05-10T19:14:09Z</time>
      </trkpt>
      <trkpt lat="42.97611094" lon="13.40136892">
        <ele>570.00000</ele>
        <time>2024-05-10T19:14:11Z</time>
      </trkpt>
      <trkpt lat="42.97604296" lon="13.40145098">
        <ele>569.00000</ele>
        <time>2024-05-10T19:14:13Z</time>
      </trkpt>
      <trkpt lat="42.97596693" lon="13.40153697">
        <ele>568.00000</ele>
        <time>2024-05-10T19:14:15Z</time>
      </trkpt>
      <trkpt lat="42.97588194" lon="13.40160093">
        <ele>566.00000</ele>
        <time>2024-05-10T19:14:17Z</time>
      </trkpt>
      <trkpt lat="42.97578295" lon="13.40163798">
        <ele>565.00000</ele>
        <time>2024-05-10T19:14:19Z</time>
      </trkpt>
      <trkpt lat="42.97567893" lon="13.40165097">
        <ele>563.00000</ele>
        <time>2024-05-10T19:14:21Z</time>
      </trkpt>
      <trkpt lat="42.97557894" lon="13.40166396">
        <ele>562.00000</ele>
        <time>2024-05-10T19:14:23Z</time>
      </trkpt>
      <trkpt lat="42.97548699" lon="13.40170696">
        <ele>561.00000</ele>
        <time>2024-05-10T19:14:25Z</time>
      </trkpt>
      <trkpt lat="42.97540292" lon="13.40176697">
        <ele>560.00000</ele>
        <time>2024-05-10T19:14:27Z</time>
      </trkpt>
      <trkpt lat="42.97532798" lon="13.40183998">
        <ele>559.00000</ele>
        <time>2024-05-10T19:14:29Z</time>
      </trkpt>
      <trkpt lat="42.97525598" lon="13.40191592">
        <ele>559.00000</ele>
        <time>2024-05-10T19:14:31Z</time>
      </trkpt>
      <trkpt lat="42.97519597" lon="13.40200192">
        <ele>558.00000</ele>
        <time>2024-05-10T19:14:32Z</time>
      </trkpt>
      <trkpt lat="42.97515297" lon="13.40209898">
        <ele>557.00000</ele>
        <time>2024-05-10T19:14:34Z</time>
      </trkpt>
      <trkpt lat="42.97512799" lon="13.40220199">
        <ele>557.00000</ele>
        <time>2024-05-10T19:14:36Z</time>
      </trkpt>
      <trkpt lat="42.97511198" lon="13.40229897">
        <ele>557.00000</ele>
        <time>2024-05-10T19:14:37Z</time>
      </trkpt>
      <trkpt lat="42.97509899" lon="13.40238899">
        <ele>557.00000</ele>
        <time>2024-05-10T19:14:38Z</time>
      </trkpt>
      <trkpt lat="42.97509195" lon="13.40247399">
        <ele>558.00000</ele>
        <time>2024-05-10T19:14:40Z</time>
      </trkpt>
      <trkpt lat="42.97507896" lon="13.40255596">
        <ele>558.00000</ele>
        <time>2024-05-10T19:14:41Z</time>
      </trkpt>
      <trkpt lat="42.97506295" lon="13.40264196">
        <ele>559.00000</ele>
        <time>2024-05-10T19:14:42Z</time>
      </trkpt>
      <trkpt lat="42.97504794" lon="13.40272494">
        <ele>560.00000</ele>
        <time>2024-05-10T19:14:43Z</time>
      </trkpt>
      <trkpt lat="42.97503495" lon="13.40279996">
        <ele>561.00000</ele>
        <time>2024-05-10T19:14:45Z</time>
      </trkpt>
      <trkpt lat="42.97502095" lon="13.40287699">
        <ele>561.00000</ele>
        <time>2024-05-10T19:14:46Z</time>
      </trkpt>
      <trkpt lat="42.97500494" lon="13.40295293">
        <ele>562.00000</ele>
        <time>2024-05-10T19:14:47Z</time>
      </trkpt>
      <trkpt lat="42.97498893" lon="13.40302099">
        <ele>562.00000</ele>
        <time>2024-05-10T19:14:48Z</time>
      </trkpt>
      <trkpt lat="42.97497192" lon="13.40308696">
        <ele>562.00000</ele>
        <time>2024-05-10T19:14:49Z</time>
      </trkpt>
      <trkpt lat="42.97495692" lon="13.40314898">
        <ele>562.00000</ele>
        <time>2024-05-10T19:14:50Z</time>
      </trkpt>
      <trkpt lat="42.97494292" lon="13.40321092">
        <ele>563.00000</ele>
        <time>2024-05-10T19:14:51Z</time>
      </trkpt>
      <trkpt lat="42.97492892" lon="13.40326691">
        <ele>563.00000</ele>
        <time>2024-05-10T19:14:52Z</time>
      </trkpt>
      <trkpt lat="42.97491693" lon="13.40332492">
        <ele>563.00000</ele>
        <time>2024-05-10T19:14:53Z</time>
      </trkpt>
      <trkpt lat="42.97490394" lon="13.40338694">
        <ele>563.00000</ele>
        <time>2024-05-10T19:14:54Z</time>
      </trkpt>
      <trkpt lat="42.97488994" lon="13.40344394">
        <ele>563.00000</ele>
        <time>2024-05-10T19:14:54Z</time>
      </trkpt>
      <trkpt lat="42.97487494" lon="13.40349792">
        <ele>564.00000</ele>
        <time>2024-05-10T19:14:55Z</time>
      </trkpt>
      <trkpt lat="42.97485793" lon="13.40355098">
        <ele>563.00000</ele>
        <time>2024-05-10T19:14:56Z</time>
      </trkpt>
      <trkpt lat="42.97483999" lon="13.40360797">
        <ele>564.00000</ele>
        <time>2024-05-10T19:14:57Z</time>
      </trkpt>
      <trkpt lat="42.97482398" lon="13.40366497">
        <ele>564.00000</ele>
        <time>2024-05-10T19:14:58Z</time>
      </trkpt>
      <trkpt lat="42.97480193" lon="13.40372398">
        <ele>564.00000</ele>
        <time>2024-05-10T19:14:59Z</time>
      </trkpt>
      <trkpt lat="42.97477595" lon="13.40378098">
        <ele>564.00000</ele>
        <time>2024-05-10T19:15:00Z</time>
      </trkpt>
      <trkpt lat="42.97475399" lon="13.40383898">
        <ele>564.00000</ele>
        <time>2024-05-10T19:15:01Z</time>
      </trkpt>
      <trkpt lat="42.97472792" lon="13.40388994">
        <ele>564.00000</ele>
        <time>2024-05-10T19:15:02Z</time>
      </trkpt>
      <trkpt lat="42.97469892" lon="13.40395197">
        <ele>563.00000</ele>
        <time>2024-05-10T19:15:03Z</time>
      </trkpt>
      <trkpt lat="42.97468299" lon="13.40401894">
        <ele>563.00000</ele>
        <time>2024-05-10T19:15:04Z</time>
      </trkpt>
      <trkpt lat="42.97467897" lon="13.40407292">
        <ele>564.00000</ele>
        <time>2024-05-10T19:15:05Z</time>
      </trkpt>
      <trkpt lat="42.97468593" lon="13.40411894">
        <ele>564.00000</ele>
        <time>2024-05-10T19:15:05Z</time>
      </trkpt>
      <trkpt lat="42.97469892" lon="13.40416193">
        <ele>564.00000</ele>
        <time>2024-05-10T19:15:06Z</time>
      </trkpt>
      <trkpt lat="42.97472096" lon="13.40419798">
        <ele>564.00000</ele>
        <time>2024-05-10T19:15:07Z</time>
      </trkpt>
      <trkpt lat="42.97474393" lon="13.40422195">
        <ele>565.00000</ele>
        <time>2024-05-10T19:15:07Z</time>
      </trkpt>
      <trkpt lat="42.97476095" lon="13.40424098">
        <ele>565.00000</ele>
        <time>2024-05-10T19:15:08Z</time>
      </trkpt>
      <trkpt lat="42.97476497" lon="13.40425799">
        <ele>565.00000</ele>
        <time>2024-05-10T19:15:08Z</time>
      </trkpt>
      <trkpt lat="42.97476598" lon="13.40428699">
        <ele>565.00000</ele>
        <time>2024-05-10T19:15:08Z</time>
      </trkpt>
      <trkpt lat="42.97476195" lon="13.40430099">
        <ele>565.00000</ele>
        <time>2024-05-10T19:15:09Z</time>
      </trkpt>
      <trkpt lat="42.97476799" lon="13.40430594">
        <ele>565.00000</ele>
        <time>2024-05-10T19:15:09Z</time>
      </trkpt>
      <trkpt lat="42.97476598" lon="13.40430392">
        <ele>565.00000</ele>
        <time>2024-05-10T19:15:09Z</time>
      </trkpt>
      <trkpt lat="42.97478199" lon="13.40428599">
        <ele>565.00000</ele>
        <time>2024-05-10T19:15:09Z</time>
      </trkpt>
      <trkpt lat="42.97480294" lon="13.40427593">
        <ele>565.00000</ele>
        <time>2024-05-10T19:15:10Z</time>
      </trkpt>
      <trkpt lat="42.97482096" lon="13.40428599">
        <ele>565.00000</ele>
        <time>2024-05-10T19:15:10Z</time>
      </trkpt>
      <trkpt lat="42.97483697" lon="13.40431096">
        <ele>566.00000</ele>
        <time>2024-05-10T19:15:11Z</time>
      </trkpt>
      <trkpt lat="42.97485793" lon="13.40434692">
        <ele>566.00000</ele>
        <time>2024-05-10T19:15:11Z</time>
      </trkpt>
      <trkpt lat="42.97488098" lon="13.40439093">
        <ele>565.00000</ele>
        <time>2024-05-10T19:15:12Z</time>
      </trkpt>
      <trkpt lat="42.97489698" lon="13.40444893">
        <ele>565.00000</ele>
        <time>2024-05-10T19:15:13Z</time>
      </trkpt>
      <trkpt lat="42.97490394" lon="13.40451297">
        <ele>564.00000</ele>
        <time>2024-05-10T19:15:14Z</time>
      </trkpt>
      <trkpt lat="42.97490294" lon="13.40458095">
        <ele>563.00000</ele>
        <time>2024-05-10T19:15:15Z</time>
      </trkpt>
      <trkpt lat="42.97488994" lon="13.40466191">
        <ele>562.00000</ele>
        <time>2024-05-10T19:15:16Z</time>
      </trkpt>
      <trkpt lat="42.97487695" lon="13.40474791">
        <ele>561.00000</ele>
        <time>2024-05-10T19:15:17Z</time>
      </trkpt>
      <trkpt lat="42.97486698" lon="13.40483793">
        <ele>559.00000</ele>
        <time>2024-05-10T19:15:19Z</time>
      </trkpt>
      <trkpt lat="42.97485591" lon="13.40492393">
        <ele>558.00000</ele>
        <time>2024-05-10T19:15:20Z</time>
      </trkpt>
      <trkpt lat="42.97484795" lon="13.40501295">
        <ele>557.00000</ele>
        <time>2024-05-10T19:15:21Z</time>
      </trkpt>
      <trkpt lat="42.97483194" lon="13.40509392">
        <ele>557.00000</ele>
        <time>2024-05-10T19:15:23Z</time>
      </trkpt>
      <trkpt lat="42.97481694" lon="13.40518193">
        <ele>557.00000</ele>
        <time>2024-05-10T19:15:24Z</time>
      </trkpt>
      <trkpt lat="42.97479992" lon="13.40527597">
        <ele>557.00000</ele>
        <time>2024-05-10T19:15:25Z</time>
      </trkpt>
      <trkpt lat="42.97478098" lon="13.40536993">
        <ele>557.00000</ele>
        <time>2024-05-10T19:15:27Z</time>
      </trkpt>
      <trkpt lat="42.97476497" lon="13.40546599">
        <ele>557.00000</ele>
        <time>2024-05-10T19:15:28Z</time>
      </trkpt>
      <trkpt lat="42.97474997" lon="13.40557395">
        <ele>557.00000</ele>
        <time>2024-05-10T19:15:30Z</time>
      </trkpt>
      <trkpt lat="42.97473295" lon="13.40568392">
        <ele>557.00000</ele>
        <time>2024-05-10T19:15:32Z</time>
      </trkpt>
      <trkpt lat="42.97471099" lon="13.40579196">
        <ele>556.00000</ele>
        <time>2024-05-10T19:15:33Z</time>
      </trkpt>
      <trkpt lat="42.97468098" lon="13.40589297">
        <ele>556.00000</ele>
        <time>2024-05-10T19:15:35Z</time>
      </trkpt>
      <trkpt lat="42.97464394" lon="13.40598592">
        <ele>555.00000</ele>
        <time>2024-05-10T19:15:36Z</time>
      </trkpt>
      <trkpt lat="42.97458199" lon="13.40605599">
        <ele>555.00000</ele>
        <time>2024-05-10T19:15:38Z</time>
      </trkpt>
      <trkpt lat="42.97450697" lon="13.40609991">
        <ele>556.00000</ele>
        <time>2024-05-10T19:15:40Z</time>
      </trkpt>
      <trkpt lat="42.97443397" lon="13.40611894">
        <ele>556.00000</ele>
        <time>2024-05-10T19:15:41Z</time>
      </trkpt>
      <trkpt lat="42.97436197" lon="13.40612799">
        <ele>556.00000</ele>
        <time>2024-05-10T19:15:42Z</time>
      </trkpt>
      <trkpt lat="42.97428594" lon="13.40612397">
        <ele>557.00000</ele>
        <time>2024-05-10T19:15:44Z</time>
      </trkpt>
      <trkpt lat="42.97421797" lon="13.40611794">
        <ele>557.00000</ele>
        <time>2024-05-10T19:15:45Z</time>
      </trkpt>
      <trkpt lat="42.97415091" lon="13.40610494">
        <ele>557.00000</ele>
        <time>2024-05-10T19:15:47Z</time>
      </trkpt>
      <trkpt lat="42.97408495" lon="13.40608692">
        <ele>557.00000</ele>
        <time>2024-05-10T19:15:48Z</time>
      </trkpt>
      <trkpt lat="42.97401898" lon="13.40607393">
        <ele>556.00000</ele>
        <time>2024-05-10T19:15:49Z</time>
      </trkpt>
      <trkpt lat="42.97396391" lon="13.40605499">
        <ele>556.00000</ele>
        <time>2024-05-10T19:15:51Z</time>
      </trkpt>
      <trkpt lat="42.97389694" lon="13.40603495">
        <ele>555.00000</ele>
        <time>2024-05-10T19:15:52Z</time>
      </trkpt>
      <trkpt lat="42.97383592" lon="13.40600796">
        <ele>556.00000</ele>
        <time>2024-05-10T19:15:53Z</time>
      </trkpt>
      <trkpt lat="42.97376593" lon="13.40597192">
        <ele>556.00000</ele>
        <time>2024-05-10T19:15:55Z</time>
      </trkpt>
      <trkpt lat="42.97369997" lon="13.40594594">
        <ele>556.00000</ele>
        <time>2024-05-10T19:15:56Z</time>
      </trkpt>
      <trkpt lat="42.97363593" lon="13.40593697">
        <ele>555.00000</ele>
        <time>2024-05-10T19:15:57Z</time>
      </trkpt>
      <trkpt lat="42.97357692" lon="13.40595499">
        <ele>554.00000</ele>
        <time>2024-05-10T19:15:59Z</time>
      </trkpt>
      <trkpt lat="42.97353099" lon="13.40599296">
        <ele>553.00000</ele>
        <time>2024-05-10T19:16:00Z</time>
      </trkpt>
      <trkpt lat="42.97350299" lon="13.40606094">
        <ele>551.00000</ele>
        <time>2024-05-10T19:16:01Z</time>
      </trkpt>
      <trkpt lat="42.97350894" lon="13.40613193">
        <ele>550.00000</ele>
        <time>2024-05-10T19:16:02Z</time>
      </trkpt>
      <trkpt lat="42.97353895" lon="13.40618398">
        <ele>549.00000</ele>
        <time>2024-05-10T19:16:03Z</time>
      </trkpt>
      <trkpt lat="42.97359192" lon="13.40621894">
        <ele>549.00000</ele>
        <time>2024-05-10T19:16:04Z</time>
      </trkpt>
      <trkpt lat="42.97365294" lon="13.40624894">
        <ele>549.00000</ele>
        <time>2024-05-10T19:16:05Z</time>
      </trkpt>
      <trkpt lat="42.97372193" lon="13.40628197">
        <ele>549.00000</ele>
        <time>2024-05-10T19:16:07Z</time>
      </trkpt>
      <trkpt lat="42.97379393" lon="13.40631692">
        <ele>549.00000</ele>
        <time>2024-05-10T19:16:08Z</time>
      </trkpt>
      <trkpt lat="42.97386392" lon="13.40635892">
        <ele>549.00000</ele>
        <time>2024-05-10T19:16:10Z</time>
      </trkpt>
      <trkpt lat="42.97394296" lon="13.40640191">
        <ele>549.00000</ele>
        <time>2024-05-10T19:16:11Z</time>
      </trkpt>
      <trkpt lat="42.97402099" lon="13.40644491">
        <ele>548.00000</ele>
        <time>2024-05-10T19:16:13Z</time>
      </trkpt>
      <trkpt lat="42.97408696" lon="13.40648196">
        <ele>547.00000</ele>
        <time>2024-05-10T19:16:15Z</time>
      </trkpt>
      <trkpt lat="42.97415192" lon="13.40651691">
        <ele>547.00000</ele>
        <time>2024-05-10T19:16:16Z</time>
      </trkpt>
      <trkpt lat="42.97420699" lon="13.40655094">
        <ele>546.00000</ele>
        <time>2024-05-10T19:16:17Z</time>
      </trkpt>
      <trkpt lat="42.97424496" lon="13.40660794">
        <ele>544.00000</ele>
        <time>2024-05-10T19:16:18Z</time>
      </trkpt>
      <trkpt lat="42.97424496" lon="13.40667894">
        <ele>542.00000</ele>
        <time>2024-05-10T19:16:19Z</time>
      </trkpt>
      <trkpt lat="42.97421193" lon="13.40674792">
        <ele>540.00000</ele>
        <time>2024-05-10T19:16:21Z</time>
      </trkpt>
      <trkpt lat="42.97415393" lon="13.40678396">
        <ele>539.00000</ele>
        <time>2024-05-10T19:16:22Z</time>
      </trkpt>
      <trkpt lat="42.97408495" lon="13.40678497">
        <ele>539.00000</ele>
        <time>2024-05-10T19:16:23Z</time>
      </trkpt>
      <trkpt lat="42.97401295" lon="13.40677399">
        <ele>539.00000</ele>
        <time>2024-05-10T19:16:25Z</time>
      </trkpt>
      <trkpt lat="42.97393893" lon="13.40675395">
        <ele>540.00000</ele>
        <time>2024-05-10T19:16:26Z</time>
      </trkpt>
      <trkpt lat="42.97386098" lon="13.40672294">
        <ele>540.00000</ele>
        <time>2024-05-10T19:16:28Z</time>
      </trkpt>
      <trkpt lat="42.97378093" lon="13.40668992">
        <ele>540.00000</ele>
        <time>2024-05-10T19:16:29Z</time>
      </trkpt>
      <trkpt lat="42.97369997" lon="13.40665496">
        <ele>540.00000</ele>
        <time>2024-05-10T19:16:31Z</time>
      </trkpt>
      <trkpt lat="42.97361598" lon="13.40661398">
        <ele>540.00000</ele>
        <time>2024-05-10T19:16:33Z</time>
      </trkpt>
      <trkpt lat="42.97353291" lon="13.40657995">
        <ele>539.00000</ele>
        <time>2024-05-10T19:16:35Z</time>
      </trkpt>
      <trkpt lat="42.97344792" lon="13.40654499">
        <ele>539.00000</ele>
        <time>2024-05-10T19:16:36Z</time>
      </trkpt>
      <trkpt lat="42.97335497" lon="13.40650996">
        <ele>538.00000</ele>
        <time>2024-05-10T19:16:38Z</time>
      </trkpt>
      <trkpt lat="42.97326092" lon="13.40647894">
        <ele>538.00000</ele>
        <time>2024-05-10T19:16:40Z</time>
      </trkpt>
      <trkpt lat="42.97316696" lon="13.40644299">
        <ele>538.00000</ele>
        <time>2024-05-10T19:16:42Z</time>
      </trkpt>
      <trkpt lat="42.97307493" lon="13.40640594">
        <ele>537.00000</ele>
        <time>2024-05-10T19:16:44Z</time>
      </trkpt>
      <trkpt lat="42.97298599" lon="13.40637291">
        <ele>537.00000</ele>
        <time>2024-05-10T19:16:46Z</time>
      </trkpt>
      <trkpt lat="42.97289396" lon="13.40633695">
        <ele>538.00000</ele>
        <time>2024-05-10T19:16:48Z</time>
      </trkpt>
      <trkpt lat="42.97280293" lon="13.40630996">
        <ele>538.00000</ele>
        <time>2024-05-10T19:16:50Z</time>
      </trkpt>
      <trkpt lat="42.97270897" lon="13.40628993">
        <ele>539.00000</ele>
        <time>2024-05-10T19:16:52Z</time>
      </trkpt>
      <trkpt lat="42.97260998" lon="13.40628297">
        <ele>539.00000</ele>
        <time>2024-05-10T19:16:54Z</time>
      </trkpt>
      <trkpt lat="42.97250898" lon="13.40628993">
        <ele>539.00000</ele>
        <time>2024-05-10T19:16:56Z</time>
      </trkpt>
      <trkpt lat="42.97242097" lon="13.40631592">
        <ele>539.00000</ele>
        <time>2024-05-10T19:16:58Z</time>
      </trkpt>
      <trkpt lat="42.97233195" lon="13.40636797">
        <ele>537.00000</ele>
        <time>2024-05-10T19:16:59Z</time>
      </trkpt>
      <trkpt lat="42.97224797" lon="13.40643997">
        <ele>535.00000</ele>
        <time>2024-05-10T19:17:01Z</time>
      </trkpt>
      <trkpt lat="42.97217094" lon="13.40653192">
        <ele>531.00000</ele>
        <time>2024-05-10T19:17:03Z</time>
      </trkpt>
      <trkpt lat="42.97209793" lon="13.40662294">
        <ele>528.00000</ele>
        <time>2024-05-10T19:17:05Z</time>
      </trkpt>
      <trkpt lat="42.97202493" lon="13.40670391">
        <ele>526.00000</ele>
        <time>2024-05-10T19:17:07Z</time>
      </trkpt>
      <trkpt lat="42.97194597" lon="13.40678698">
        <ele>525.00000</ele>
        <time>2024-05-10T19:17:09Z</time>
      </trkpt>
      <trkpt lat="42.97187598" lon="13.40686292">
        <ele>524.00000</ele>
        <time>2024-05-10T19:17:11Z</time>
      </trkpt>
      <trkpt lat="42.97180691" lon="13.40692595">
        <ele>524.00000</ele>
        <time>2024-05-10T19:17:13Z</time>
      </trkpt>
      <trkpt lat="42.97172795" lon="13.40696895">
        <ele>524.00000</ele>
        <time>2024-05-10T19:17:15Z</time>
      </trkpt>
      <trkpt lat="42.97163894" lon="13.40698395">
        <ele>524.00000</ele>
        <time>2024-05-10T19:17:16Z</time>
      </trkpt>
      <trkpt lat="42.97155093" lon="13.40697297">
        <ele>525.00000</ele>
        <time>2024-05-10T19:17:18Z</time>
      </trkpt>
      <trkpt lat="42.97146493" lon="13.40694791">
        <ele>525.00000</ele>
        <time>2024-05-10T19:17:20Z</time>
      </trkpt>
      <trkpt lat="42.97137591" lon="13.40691899">
        <ele>526.00000</ele>
        <time>2024-05-10T19:17:22Z</time>
      </trkpt>
      <trkpt lat="42.97128698" lon="13.40689594">
        <ele>526.00000</ele>
        <time>2024-05-10T19:17:23Z</time>
      </trkpt>
      <trkpt lat="42.97120199" lon="13.40686694">
        <ele>525.00000</ele>
        <time>2024-05-10T19:17:25Z</time>
      </trkpt>
      <trkpt lat="42.97112094" lon="13.40683895">
        <ele>525.00000</ele>
        <time>2024-05-10T19:17:27Z</time>
      </trkpt>
      <trkpt lat="42.97103695" lon="13.40680995">
        <ele>525.00000</ele>
        <time>2024-05-10T19:17:29Z</time>
      </trkpt>
      <trkpt lat="42.97095296" lon="13.40678094">
        <ele>524.00000</ele>
        <time>2024-05-10T19:17:30Z</time>
      </trkpt>
      <trkpt lat="42.97086596" lon="13.40674792">
        <ele>523.00000</ele>
        <time>2024-05-10T19:17:32Z</time>
      </trkpt>
      <trkpt lat="42.97077896" lon="13.40671397">
        <ele>522.00000</ele>
        <time>2024-05-10T19:17:34Z</time>
      </trkpt>
      <trkpt lat="42.97068692" lon="13.40667894">
        <ele>522.00000</ele>
        <time>2024-05-10T19:17:36Z</time>
      </trkpt>
      <trkpt lat="42.97059698" lon="13.40664692">
        <ele>521.00000</ele>
        <time>2024-05-10T19:17:38Z</time>
      </trkpt>
      <trkpt lat="42.97050294" lon="13.40660593">
        <ele>521.00000</ele>
        <time>2024-05-10T19:17:40Z</time>
      </trkpt>
      <trkpt lat="42.97042096" lon="13.40655597">
        <ele>521.00000</ele>
        <time>2024-05-10T19:17:42Z</time>
      </trkpt>
      <trkpt lat="42.97033396" lon="13.40649998">
        <ele>520.00000</ele>
        <time>2024-05-10T19:17:43Z</time>
      </trkpt>
      <trkpt lat="42.97025098" lon="13.40644793">
        <ele>520.00000</ele>
        <time>2024-05-10T19:17:45Z</time>
      </trkpt>
      <trkpt lat="42.97016196" lon="13.40640594">
        <ele>519.00000</ele>
        <time>2024-05-10T19:17:47Z</time>
      </trkpt>
      <trkpt lat="42.97007395" lon="13.40637199">
        <ele>517.00000</ele>
        <time>2024-05-10T19:17:49Z</time>
      </trkpt>
      <trkpt lat="42.96997999" lon="13.40633897">
        <ele>516.00000</ele>
        <time>2024-05-10T19:17:51Z</time>
      </trkpt>
      <trkpt lat="42.96988595" lon="13.40630393">
        <ele>515.00000</ele>
        <time>2024-05-10T19:17:53Z</time>
      </trkpt>
      <trkpt lat="42.96979199" lon="13.40626194">
        <ele>514.00000</ele>
        <time>2024-05-10T19:17:55Z</time>
      </trkpt>
      <trkpt lat="42.96970498" lon="13.40620595">
        <ele>513.00000</ele>
        <time>2024-05-10T19:17:57Z</time>
      </trkpt>
      <trkpt lat="42.96963198" lon="13.40613294">
        <ele>513.00000</ele>
        <time>2024-05-10T19:17:59Z</time>
      </trkpt>
      <trkpt lat="42.96957498" lon="13.40604795">
        <ele>513.00000</ele>
        <time>2024-05-10T19:18:00Z</time>
      </trkpt>
      <trkpt lat="42.96952695" lon="13.40594996">
        <ele>514.00000</ele>
        <time>2024-05-10T19:18:02Z</time>
      </trkpt>
      <trkpt lat="42.96947297" lon="13.40586296">
        <ele>514.00000</ele>
        <time>2024-05-10T19:18:04Z</time>
      </trkpt>
      <trkpt lat="42.96942193" lon="13.40577294">
        <ele>514.00000</ele>
        <time>2024-05-10T19:18:05Z</time>
      </trkpt>
      <trkpt lat="42.96936694" lon="13.40568099">
        <ele>513.00000</ele>
        <time>2024-05-10T19:18:07Z</time>
      </trkpt>
      <trkpt lat="42.96931296" lon="13.40559097">
        <ele>513.00000</ele>
        <time>2024-05-10T19:18:09Z</time>
      </trkpt>
      <trkpt lat="42.96925798" lon="13.40550195">
        <ele>513.00000</ele>
        <time>2024-05-10T19:18:10Z</time>
      </trkpt>
      <trkpt lat="42.96920299" lon="13.40541293">
        <ele>514.00000</ele>
        <time>2024-05-10T19:18:12Z</time>
      </trkpt>
      <trkpt lat="42.96914499" lon="13.40532593">
        <ele>514.00000</ele>
        <time>2024-05-10T19:18:14Z</time>
      </trkpt>
      <trkpt lat="42.96908296" lon="13.40524597">
        <ele>514.00000</ele>
        <time>2024-05-10T19:18:16Z</time>
      </trkpt>
      <trkpt lat="42.96901892" lon="13.40517296">
        <ele>514.00000</ele>
        <time>2024-05-10T19:18:17Z</time>
      </trkpt>
      <trkpt lat="42.96895899" lon="13.40510498">
        <ele>514.00000</ele>
        <time>2024-05-10T19:18:19Z</time>
      </trkpt>
      <trkpt lat="42.96889998" lon="13.40503893">
        <ele>514.00000</ele>
        <time>2024-05-10T19:18:20Z</time>
      </trkpt>
      <trkpt lat="42.96883695" lon="13.40497598">
        <ele>514.00000</ele>
        <time>2024-05-10T19:18:22Z</time>
      </trkpt>
      <trkpt lat="42.96877493" lon="13.40491195">
        <ele>513.00000</ele>
        <time>2024-05-10T19:18:23Z</time>
      </trkpt>
      <trkpt lat="42.96872296" lon="13.40484598">
        <ele>513.00000</ele>
        <time>2024-05-10T19:18:25Z</time>
      </trkpt>
      <trkpt lat="42.96867191" lon="13.40477298">
        <ele>513.00000</ele>
        <time>2024-05-10T19:18:26Z</time>
      </trkpt>
      <trkpt lat="42.96861693" lon="13.40469796">
        <ele>513.00000</ele>
        <time>2024-05-10T19:18:28Z</time>
      </trkpt>
      <trkpt lat="42.96856194" lon="13.40461892">
        <ele>512.00000</ele>
        <time>2024-05-10T19:18:30Z</time>
      </trkpt>
      <trkpt lat="42.96851299" lon="13.40454096">
        <ele>512.00000</ele>
        <time>2024-05-10T19:18:31Z</time>
      </trkpt>
      <trkpt lat="42.96846899" lon="13.40445497">
        <ele>511.00000</ele>
        <time>2024-05-10T19:18:33Z</time>
      </trkpt>
      <trkpt lat="42.96842096" lon="13.40436595">
        <ele>511.00000</ele>
        <time>2024-05-10T19:18:34Z</time>
      </trkpt>
      <trkpt lat="42.96837695" lon="13.40427693">
        <ele>510.00000</ele>
        <time>2024-05-10T19:18:36Z</time>
      </trkpt>
      <trkpt lat="42.96834192" lon="13.40418197">
        <ele>510.00000</ele>
        <time>2024-05-10T19:18:37Z</time>
      </trkpt>
      <trkpt lat="42.96830898" lon="13.40408398">
        <ele>509.00000</ele>
        <time>2024-05-10T19:18:39Z</time>
      </trkpt>
      <trkpt lat="42.96827595" lon="13.40398298">
        <ele>509.00000</ele>
        <time>2024-05-10T19:18:41Z</time>
      </trkpt>
      <trkpt lat="42.96824695" lon="13.40388994">
        <ele>509.00000</ele>
        <time>2024-05-10T19:18:42Z</time>
      </trkpt>
      <trkpt lat="42.96821191" lon="13.40378592">
        <ele>507.00000</ele>
        <time>2024-05-10T19:18:44Z</time>
      </trkpt>
      <trkpt lat="42.96819096" lon="13.40367595">
        <ele>507.00000</ele>
        <time>2024-05-10T19:18:45Z</time>
      </trkpt>
      <trkpt lat="42.96819197" lon="13.40357093">
        <ele>506.00000</ele>
        <time>2024-05-10T19:18:47Z</time>
      </trkpt>
      <trkpt lat="42.96821895" lon="13.40347194">
        <ele>507.00000</ele>
        <time>2024-05-10T19:18:48Z</time>
      </trkpt>
      <trkpt lat="42.96824192" lon="13.40338493">
        <ele>507.00000</ele>
        <time>2024-05-10T19:18:50Z</time>
      </trkpt>
      <trkpt lat="42.96825097" lon="13.40329399">
        <ele>507.00000</ele>
        <time>2024-05-10T19:18:51Z</time>
      </trkpt>
      <trkpt lat="42.96824092" lon="13.40319693">
        <ele>507.00000</ele>
        <time>2024-05-10T19:18:53Z</time>
      </trkpt>
      <trkpt lat="42.96820194" lon="13.40310992">
        <ele>506.00000</ele>
        <time>2024-05-10T19:18:54Z</time>
      </trkpt>
      <trkpt lat="42.96814695" lon="13.40303993">
        <ele>506.00000</ele>
        <time>2024-05-10T19:18:56Z</time>
      </trkpt>
      <trkpt lat="42.96808593" lon="13.40296592">
        <ele>506.00000</ele>
        <time>2024-05-10T19:18:57Z</time>
      </trkpt>
      <trkpt lat="42.96801393" lon="13.40289493">
        <ele>505.00000</ele>
        <time>2024-05-10T19:18:59Z</time>
      </trkpt>
      <trkpt lat="42.96792693" lon="13.40285595">
        <ele>504.00000</ele>
        <time>2024-05-10T19:19:01Z</time>
      </trkpt>
      <trkpt lat="42.96784395" lon="13.40286492">
        <ele>502.00000</ele>
        <time>2024-05-10T19:19:03Z</time>
      </trkpt>
      <trkpt lat="42.96775393" lon="13.40290297">
        <ele>501.00000</ele>
        <time>2024-05-10T19:19:04Z</time>
      </trkpt>
      <trkpt lat="42.96766692" lon="13.40296299">
        <ele>500.00000</ele>
        <time>2024-05-10T19:19:06Z</time>
      </trkpt>
      <trkpt lat="42.96757891" lon="13.40302493">
        <ele>499.00000</ele>
        <time>2024-05-10T19:19:08Z</time>
      </trkpt>
      <trkpt lat="42.96749291" lon="13.40308897">
        <ele>497.00000</ele>
        <time>2024-05-10T19:19:10Z</time>
      </trkpt>
      <trkpt lat="42.96740792" lon="13.40314395">
        <ele>497.00000</ele>
        <time>2024-05-10T19:19:12Z</time>
      </trkpt>
      <trkpt lat="42.96731991" lon="13.40319491">
        <ele>496.00000</ele>
        <time>2024-05-10T19:19:14Z</time>
      </trkpt>
      <trkpt lat="42.96723593" lon="13.40323892">
        <ele>496.00000</ele>
        <time>2024-05-10T19:19:16Z</time>
      </trkpt>
      <trkpt lat="42.96715697" lon="13.40328896">
        <ele>496.00000</ele>
        <time>2024-05-10T19:19:18Z</time>
      </trkpt>
      <trkpt lat="42.96708497" lon="13.40333799">
        <ele>496.00000</ele>
        <time>2024-05-10T19:19:19Z</time>
      </trkpt>
      <trkpt lat="42.96701095" lon="13.40337999">
        <ele>496.00000</ele>
        <time>2024-05-10T19:19:21Z</time>
      </trkpt>
      <trkpt lat="42.96693895" lon="13.40341393">
        <ele>496.00000</ele>
        <time>2024-05-10T19:19:22Z</time>
      </trkpt>
      <trkpt lat="42.96686796" lon="13.40343397">
        <ele>497.00000</ele>
        <time>2024-05-10T19:19:24Z</time>
      </trkpt>
      <trkpt lat="42.96680099" lon="13.40344595">
        <ele>498.00000</ele>
        <time>2024-05-10T19:19:25Z</time>
      </trkpt>
      <trkpt lat="42.96674097" lon="13.40344897">
        <ele>499.00000</ele>
        <time>2024-05-10T19:19:26Z</time>
      </trkpt>
      <trkpt lat="42.96668993" lon="13.40343799">
        <ele>499.00000</ele>
        <time>2024-05-10T19:19:27Z</time>
      </trkpt>
      <trkpt lat="42.96665095" lon="13.40341092">
        <ele>500.00000</ele>
        <time>2024-05-10T19:19:28Z</time>
      </trkpt>
      <trkpt lat="42.96661692" lon="13.40338795">
        <ele>500.00000</ele>
        <time>2024-05-10T19:19:29Z</time>
      </trkpt>
      <trkpt lat="42.96658893" lon="13.40336398">
        <ele>500.00000</ele>
        <time>2024-05-10T19:19:30Z</time>
      </trkpt>
      <trkpt lat="42.96656797" lon="13.40334093">
        <ele>500.00000</ele>
        <time>2024-05-10T19:19:30Z</time>
      </trkpt>
      <trkpt lat="42.96654995" lon="13.40331595">
        <ele>500.00000</ele>
        <time>2024-05-10T19:19:31Z</time>
      </trkpt>
      <trkpt lat="42.96653193" lon="13.40329692">
        <ele>500.00000</ele>
        <time>2024-05-10T19:19:31Z</time>
      </trkpt>
      <trkpt lat="42.96650796" lon="13.40327697">
        <ele>500.00000</ele>
        <time>2024-05-10T19:19:32Z</time>
      </trkpt>
      <trkpt lat="42.96648398" lon="13.40326298">
        <ele>500.00000</ele>
        <time>2024-05-10T19:19:32Z</time>
      </trkpt>
      <trkpt lat="42.96645398" lon="13.40324998">
        <ele>501.00000</ele>
        <time>2024-05-10T19:19:33Z</time>
      </trkpt>
      <trkpt lat="42.96642598" lon="13.40323892">
        <ele>501.00000</ele>
        <time>2024-05-10T19:19:34Z</time>
      </trkpt>
      <trkpt lat="42.96639799" lon="13.40322693">
        <ele>501.00000</ele>
        <time>2024-05-10T19:19:34Z</time>
      </trkpt>
      <trkpt lat="42.96636999" lon="13.40321796">
        <ele>501.00000</ele>
        <time>2024-05-10T19:19:35Z</time>
      </trkpt>
      <trkpt lat="42.96634694" lon="13.40321294">
        <ele>501.00000</ele>
        <time>2024-05-10T19:19:35Z</time>
      </trkpt>
      <trkpt lat="42.96632096" lon="13.40320598">
        <ele>502.00000</ele>
        <time>2024-05-10T19:19:36Z</time>
      </trkpt>
      <trkpt lat="42.96629397" lon="13.40319793">
        <ele>502.00000</ele>
        <time>2024-05-10T19:19:36Z</time>
      </trkpt>
      <trkpt lat="42.96626597" lon="13.40319097">
        <ele>502.00000</ele>
        <time>2024-05-10T19:19:37Z</time>
      </trkpt>
      <trkpt lat="42.96623898" lon="13.40318192">
        <ele>502.00000</ele>
        <time>2024-05-10T19:19:37Z</time>
      </trkpt>
      <trkpt lat="42.96621199" lon="13.40317295">
        <ele>502.00000</ele>
        <time>2024-05-10T19:19:38Z</time>
      </trkpt>
      <trkpt lat="42.96618693" lon="13.40317195">
        <ele>502.00000</ele>
        <time>2024-05-10T19:19:38Z</time>
      </trkpt>
      <trkpt lat="42.96616296" lon="13.40316994">
        <ele>502.00000</ele>
        <time>2024-05-10T19:19:39Z</time>
      </trkpt>
      <trkpt lat="42.96613999" lon="13.40316994">
        <ele>502.00000</ele>
        <time>2024-05-10T19:19:39Z</time>
      </trkpt>
      <trkpt lat="42.96611795" lon="13.40316399">
        <ele>502.00000</ele>
        <time>2024-05-10T19:19:40Z</time>
      </trkpt>
      <trkpt lat="42.96609993" lon="13.40315694">
        <ele>502.00000</ele>
        <time>2024-05-10T19:19:40Z</time>
      </trkpt>
      <trkpt lat="42.96607897" lon="13.40315099">
        <ele>502.00000</ele>
        <time>2024-05-10T19:19:41Z</time>
      </trkpt>
      <trkpt lat="42.96605994" lon="13.40314194">
        <ele>502.00000</ele>
        <time>2024-05-10T19:19:41Z</time>
      </trkpt>
      <trkpt lat="42.96603899" lon="13.40313297">
        <ele>502.00000</ele>
        <time>2024-05-10T19:19:41Z</time>
      </trkpt>
      <trkpt lat="42.96601896" lon="13.40312895">
        <ele>502.00000</ele>
        <time>2024-05-10T19:19:42Z</time>
      </trkpt>
      <trkpt lat="42.96599892" lon="13.40312199">
        <ele>502.00000</ele>
        <time>2024-05-10T19:19:42Z</time>
      </trkpt>
      <trkpt lat="42.96597898" lon="13.40311596">
        <ele>503.00000</ele>
        <time>2024-05-10T19:19:43Z</time>
      </trkpt>
      <trkpt lat="42.96595995" lon="13.40310892">
        <ele>503.00000</ele>
        <time>2024-05-10T19:19:43Z</time>
      </trkpt>
      <trkpt lat="42.96593992" lon="13.40310498">
        <ele>503.00000</ele>
        <time>2024-05-10T19:19:43Z</time>
      </trkpt>
      <trkpt lat="42.96591795" lon="13.40309592">
        <ele>503.00000</ele>
        <time>2024-05-10T19:19:44Z</time>
      </trkpt>
      <trkpt lat="42.96589599" lon="13.40308897">
        <ele>503.00000</ele>
        <time>2024-05-10T19:19:44Z</time>
      </trkpt>
      <trkpt lat="42.96587496" lon="13.40308293">
        <ele>503.00000</ele>
        <time>2024-05-10T19:19:45Z</time>
      </trkpt>
      <trkpt lat="42.96585291" lon="13.40307899">
        <ele>503.00000</ele>
        <time>2024-05-10T19:19:45Z</time>
      </trkpt>
      <trkpt lat="42.96583497" lon="13.40307095">
        <ele>503.00000</ele>
        <time>2024-05-10T19:19:46Z</time>
      </trkpt>
      <trkpt lat="42.96581595" lon="13.40305997">
        <ele>503.00000</ele>
        <time>2024-05-10T19:19:46Z</time>
      </trkpt>
      <trkpt lat="42.96579499" lon="13.40305292">
        <ele>503.00000</ele>
        <time>2024-05-10T19:19:46Z</time>
      </trkpt>
      <trkpt lat="42.96577496" lon="13.40304396">
        <ele>503.00000</ele>
        <time>2024-05-10T19:19:47Z</time>
      </trkpt>
      <trkpt lat="42.96575593" lon="13.40303499">
        <ele>504.00000</ele>
        <time>2024-05-10T19:19:47Z</time>
      </trkpt>
      <trkpt lat="42.96573397" lon="13.40302694">
        <ele>504.00000</ele>
        <time>2024-05-10T19:19:48Z</time>
      </trkpt>
      <trkpt lat="42.96571394" lon="13.40302191">
        <ele>504.00000</ele>
        <time>2024-05-10T19:19:48Z</time>
      </trkpt>
      <trkpt lat="42.96569399" lon="13.40302099">
        <ele>505.00000</ele>
        <time>2024-05-10T19:19:49Z</time>
      </trkpt>
      <trkpt lat="42.96567094" lon="13.40301395">
        <ele>505.00000</ele>
        <time>2024-05-10T19:19:49Z</time>
      </trkpt>
      <trkpt lat="42.96564999" lon="13.40301697">
        <ele>506.00000</ele>
        <time>2024-05-10T19:19:49Z</time>
      </trkpt>
      <trkpt lat="42.96562895" lon="13.40302594">
        <ele>506.00000</ele>
        <time>2024-05-10T19:19:50Z</time>
      </trkpt>
      <trkpt lat="42.96560992" lon="13.40303792">
        <ele>507.00000</ele>
        <time>2024-05-10T19:19:50Z</time>
      </trkpt>
      <trkpt lat="42.96559793" lon="13.40305997">
        <ele>508.00000</ele>
        <time>2024-05-10T19:19:51Z</time>
      </trkpt>
      <trkpt lat="42.96559592" lon="13.40308193">
        <ele>508.00000</ele>
        <time>2024-05-10T19:19:51Z</time>
      </trkpt>
      <trkpt lat="42.96560095" lon="13.40310498">
        <ele>509.00000</ele>
        <time>2024-05-10T19:19:51Z</time>
      </trkpt>
      <trkpt lat="42.96561696" lon="13.40312392">
        <ele>509.00000</ele>
        <time>2024-05-10T19:19:52Z</time>
      </trkpt>
      <trkpt lat="42.96563498" lon="13.40314496">
        <ele>509.00000</ele>
        <time>2024-05-10T19:19:52Z</time>
      </trkpt>
      <trkpt lat="42.96564898" lon="13.40316692">
        <ele>509.00000</ele>
        <time>2024-05-10T19:19:53Z</time>
      </trkpt>
      <trkpt lat="42.96565895" lon="13.40318796">
        <ele>509.00000</ele>
        <time>2024-05-10T19:19:53Z</time>
      </trkpt>
      <trkpt lat="42.96566893" lon="13.40321092">
        <ele>509.00000</ele>
        <time>2024-05-10T19:19:53Z</time>
      </trkpt>
      <trkpt lat="42.96567999" lon="13.40322794">
        <ele>510.00000</ele>
        <time>2024-05-10T19:19:54Z</time>
      </trkpt>
      <trkpt lat="42.96569097" lon="13.40324495">
        <ele>510.00000</ele>
        <time>2024-05-10T19:19:54Z</time>
      </trkpt>
      <trkpt lat="42.96569793" lon="13.40326792">
        <ele>510.00000</ele>
        <time>2024-05-10T19:19:54Z</time>
      </trkpt>
      <trkpt lat="42.96570698" lon="13.40329097">
        <ele>510.00000</ele>
        <time>2024-05-10T19:19:55Z</time>
      </trkpt>
      <trkpt lat="42.96571394" lon="13.40331796">
        <ele>511.00000</ele>
        <time>2024-05-10T19:19:55Z</time>
      </trkpt>
      <trkpt lat="42.96571796" lon="13.40334294">
        <ele>511.00000</ele>
        <time>2024-05-10T19:19:56Z</time>
      </trkpt>
      <trkpt lat="42.96572693" lon="13.40336599">
        <ele>511.00000</ele>
        <time>2024-05-10T19:19:56Z</time>
      </trkpt>
      <trkpt lat="42.96573196" lon="13.40338896">
        <ele>511.00000</ele>
        <time>2024-05-10T19:19:56Z</time>
      </trkpt>
      <trkpt lat="42.96573598" lon="13.40341293">
        <ele>512.00000</ele>
        <time>2024-05-10T19:19:57Z</time>
      </trkpt>
      <trkpt lat="42.96574093" lon="13.40343891">
        <ele>512.00000</ele>
        <time>2024-05-10T19:19:57Z</time>
      </trkpt>
      <trkpt lat="42.96574395" lon="13.40346397">
        <ele>512.00000</ele>
        <time>2024-05-10T19:19:58Z</time>
      </trkpt>
      <trkpt lat="42.96574495" lon="13.40348996">
        <ele>512.00000</ele>
        <time>2024-05-10T19:19:58Z</time>
      </trkpt>
      <trkpt lat="42.96574495" lon="13.40351292">
        <ele>513.00000</ele>
        <time>2024-05-10T19:19:58Z</time>
      </trkpt>
      <trkpt lat="42.96574696" lon="13.40353899">
        <ele>513.00000</ele>
        <time>2024-05-10T19:19:59Z</time>
      </trkpt>
      <trkpt lat="42.96574898" lon="13.40356699">
        <ele>513.00000</ele>
        <time>2024-05-10T19:19:59Z</time>
      </trkpt>
      <trkpt lat="42.96574395" lon="13.40359297">
        <ele>514.00000</ele>
        <time>2024-05-10T19:19:59Z</time>
      </trkpt>
      <trkpt lat="42.96574395" lon="13.40361895">
        <ele>514.00000</ele>
        <time>2024-05-10T19:20:00Z</time>
      </trkpt>
      <trkpt lat="42.96574294" lon="13.40364192">
        <ele>514.00000</ele>
        <time>2024-05-10T19:20:00Z</time>
      </trkpt>
      <trkpt lat="42.96573992" lon="13.40366992">
        <ele>514.00000</ele>
        <time>2024-05-10T19:20:01Z</time>
      </trkpt>
      <trkpt lat="42.96573992" lon="13.40369598">
        <ele>515.00000</ele>
        <time>2024-05-10T19:20:01Z</time>
      </trkpt>
      <trkpt lat="42.96573892" lon="13.40372096">
        <ele>515.00000</ele>
        <time>2024-05-10T19:20:01Z</time>
      </trkpt>
      <trkpt lat="42.96573699" lon="13.40374695">
        <ele>515.00000</ele>
        <time>2024-05-10T19:20:02Z</time>
      </trkpt>
      <trkpt lat="42.96573598" lon="13.40377494">
        <ele>515.00000</ele>
        <time>2024-05-10T19:20:02Z</time>
      </trkpt>
      <trkpt lat="42.96573699" lon="13.40380595">
        <ele>516.00000</ele>
        <time>2024-05-10T19:20:03Z</time>
      </trkpt>
      <trkpt lat="42.96573598" lon="13.40382993">
        <ele>516.00000</ele>
        <time>2024-05-10T19:20:03Z</time>
      </trkpt>
      <trkpt lat="42.96573397" lon="13.40385599">
        <ele>516.00000</ele>
        <time>2024-05-10T19:20:03Z</time>
      </trkpt>
      <trkpt lat="42.96573196" lon="13.40388491">
        <ele>516.00000</ele>
        <time>2024-05-10T19:20:04Z</time>
      </trkpt>
      <trkpt lat="42.96572995" lon="13.40390796">
        <ele>516.00000</ele>
        <time>2024-05-10T19:20:04Z</time>
      </trkpt>
      <trkpt lat="42.96572995" lon="13.40393596">
        <ele>517.00000</ele>
        <time>2024-05-10T19:20:04Z</time>
      </trkpt>
      <trkpt lat="42.96573095" lon="13.40395993">
        <ele>517.00000</ele>
        <time>2024-05-10T19:20:05Z</time>
      </trkpt>
      <trkpt lat="42.96573397" lon="13.40398591">
        <ele>517.00000</ele>
        <time>2024-05-10T19:20:05Z</time>
      </trkpt>
      <trkpt lat="42.96573297" lon="13.40400997">
        <ele>517.00000</ele>
        <time>2024-05-10T19:20:06Z</time>
      </trkpt>
      <trkpt lat="42.96573498" lon="13.40403394">
        <ele>517.00000</ele>
        <time>2024-05-10T19:20:06Z</time>
      </trkpt>
      <trkpt lat="42.96573791" lon="13.40405993">
        <ele>517.00000</ele>
        <time>2024-05-10T19:20:06Z</time>
      </trkpt>
      <trkpt lat="42.96573992" lon="13.40408398">
        <ele>517.00000</ele>
        <time>2024-05-10T19:20:07Z</time>
      </trkpt>
      <trkpt lat="42.96574193" lon="13.40411491">
        <ele>518.00000</ele>
        <time>2024-05-10T19:20:07Z</time>
      </trkpt>
      <trkpt lat="42.96574294" lon="13.40414592">
        <ele>518.00000</ele>
        <time>2024-05-10T19:20:08Z</time>
      </trkpt>
      <trkpt lat="42.96574294" lon="13.40417291">
        <ele>518.00000</ele>
        <time>2024-05-10T19:20:08Z</time>
      </trkpt>
      <trkpt lat="42.96574193" lon="13.40420099">
        <ele>518.00000</ele>
        <time>2024-05-10T19:20:08Z</time>
      </trkpt>
      <trkpt lat="42.96573791" lon="13.40422698">
        <ele>518.00000</ele>
        <time>2024-05-10T19:20:09Z</time>
      </trkpt>
      <trkpt lat="42.96573791" lon="13.40425196">
        <ele>518.00000</ele>
        <time>2024-05-10T19:20:09Z</time>
      </trkpt>
      <trkpt lat="42.96573892" lon="13.40427794">
        <ele>519.00000</ele>
        <time>2024-05-10T19:20:10Z</time>
      </trkpt>
      <trkpt lat="42.96573892" lon="13.40430594">
        <ele>519.00000</ele>
        <time>2024-05-10T19:20:10Z</time>
      </trkpt>
      <trkpt lat="42.96574193" lon="13.40433594">
        <ele>519.00000</ele>
        <time>2024-05-10T19:20:10Z</time>
      </trkpt>
      <trkpt lat="42.96573791" lon="13.40435991">
        <ele>519.00000</ele>
        <time>2024-05-10T19:20:11Z</time>
      </trkpt>
      <trkpt lat="42.96572995" lon="13.40438598">
        <ele>519.00000</ele>
        <time>2024-05-10T19:20:11Z</time>
      </trkpt>
      <trkpt lat="42.96572299" lon="13.40441096">
        <ele>519.00000</ele>
        <time>2024-05-10T19:20:12Z</time>
      </trkpt>
      <trkpt lat="42.96571696" lon="13.40443896">
        <ele>519.00000</ele>
        <time>2024-05-10T19:20:12Z</time>
      </trkpt>
      <trkpt lat="42.96571193" lon="13.40446595">
        <ele>520.00000</ele>
        <time>2024-05-10T19:20:12Z</time>
      </trkpt>
      <trkpt lat="42.96570698" lon="13.40449193">
        <ele>520.00000</ele>
        <time>2024-05-10T19:20:13Z</time>
      </trkpt>
      <trkpt lat="42.96570095" lon="13.40451892">
        <ele>520.00000</ele>
        <time>2024-05-10T19:20:13Z</time>
      </trkpt>
      <trkpt lat="42.96569491" lon="13.40454893">
        <ele>520.00000</ele>
        <time>2024-05-10T19:20:14Z</time>
      </trkpt>
      <trkpt lat="42.96568997" lon="13.40457499">
        <ele>520.00000</ele>
        <time>2024-05-10T19:20:14Z</time>
      </trkpt>
      <trkpt lat="42.96568091" lon="13.40460492">
        <ele>520.00000</ele>
        <time>2024-05-10T19:20:14Z</time>
      </trkpt>
      <trkpt lat="42.96567496" lon="13.40463199">
        <ele>521.00000</ele>
        <time>2024-05-10T19:20:15Z</time>
      </trkpt>
      <trkpt lat="42.96566792" lon="13.40465898">
        <ele>521.00000</ele>
        <time>2024-05-10T19:20:15Z</time>
      </trkpt>
      <trkpt lat="42.96565895" lon="13.40468497">
        <ele>521.00000</ele>
        <time>2024-05-10T19:20:16Z</time>
      </trkpt>
      <trkpt lat="42.96565292" lon="13.40471598">
        <ele>521.00000</ele>
        <time>2024-05-10T19:20:16Z</time>
      </trkpt>
      <trkpt lat="42.96564596" lon="13.40474498">
        <ele>521.00000</ele>
        <time>2024-05-10T19:20:17Z</time>
      </trkpt>
      <trkpt lat="42.96563892" lon="13.40477499">
        <ele>522.00000</ele>
        <time>2024-05-10T19:20:17Z</time>
      </trkpt>
      <trkpt lat="42.96563196" lon="13.40480298">
        <ele>522.00000</ele>
        <time>2024-05-10T19:20:18Z</time>
      </trkpt>
      <trkpt lat="42.96562794" lon="13.40483198">
        <ele>522.00000</ele>
        <time>2024-05-10T19:20:18Z</time>
      </trkpt>
      <trkpt lat="42.96562291" lon="13.40486291">
        <ele>523.00000</ele>
        <time>2024-05-10T19:20:18Z</time>
      </trkpt>
      <trkpt lat="42.96561998" lon="13.40489694">
        <ele>523.00000</ele>
        <time>2024-05-10T19:20:19Z</time>
      </trkpt>
      <trkpt lat="42.96561595" lon="13.40493399">
        <ele>524.00000</ele>
        <time>2024-05-10T19:20:20Z</time>
      </trkpt>
      <trkpt lat="42.96561394" lon="13.40496794">
        <ele>524.00000</ele>
        <time>2024-05-10T19:20:20Z</time>
      </trkpt>
      <trkpt lat="42.96561394" lon="13.40500993">
        <ele>525.00000</ele>
        <time>2024-05-10T19:20:21Z</time>
      </trkpt>
      <trkpt lat="42.96561495" lon="13.40504497">
        <ele>525.00000</ele>
        <time>2024-05-10T19:20:21Z</time>
      </trkpt>
      <trkpt lat="42.96561797" lon="13.40507699">
        <ele>525.00000</ele>
        <time>2024-05-10T19:20:22Z</time>
      </trkpt>
      <trkpt lat="42.96562098" lon="13.40510993">
        <ele>526.00000</ele>
        <time>2024-05-10T19:20:22Z</time>
      </trkpt>
      <trkpt lat="42.96562694" lon="13.40514798">
        <ele>526.00000</ele>
        <time>2024-05-10T19:20:23Z</time>
      </trkpt>
      <trkpt lat="42.96563297" lon="13.40518495">
        <ele>526.00000</ele>
        <time>2024-05-10T19:20:23Z</time>
      </trkpt>
      <trkpt lat="42.96564093" lon="13.40522292">
        <ele>527.00000</ele>
        <time>2024-05-10T19:20:24Z</time>
      </trkpt>
      <trkpt lat="42.96565099" lon="13.40525996">
        <ele>527.00000</ele>
        <time>2024-05-10T19:20:24Z</time>
      </trkpt>
      <trkpt lat="42.96565996" lon="13.40529299">
        <ele>528.00000</ele>
        <time>2024-05-10T19:20:25Z</time>
      </trkpt>
      <trkpt lat="42.96567094" lon="13.40532694">
        <ele>529.00000</ele>
        <time>2024-05-10T19:20:25Z</time>
      </trkpt>
      <trkpt lat="42.96568594" lon="13.40536097">
        <ele>529.00000</ele>
        <time>2024-05-10T19:20:26Z</time>
      </trkpt>
      <trkpt lat="42.96570195" lon="13.40539198">
        <ele>530.00000</ele>
        <time>2024-05-10T19:20:27Z</time>
      </trkpt>
      <trkpt lat="42.96571696" lon="13.40541997">
        <ele>531.00000</ele>
        <time>2024-05-10T19:20:27Z</time>
      </trkpt>
      <trkpt lat="42.96573196" lon="13.40545099">
        <ele>531.00000</ele>
        <time>2024-05-10T19:20:28Z</time>
      </trkpt>
      <trkpt lat="42.96574495" lon="13.40547798">
        <ele>532.00000</ele>
        <time>2024-05-10T19:20:28Z</time>
      </trkpt>
      <trkpt lat="42.96575794" lon="13.40550497">
        <ele>533.00000</ele>
        <time>2024-05-10T19:20:29Z</time>
      </trkpt>
      <trkpt lat="42.96577094" lon="13.40553699">
        <ele>533.00000</ele>
        <time>2024-05-10T19:20:29Z</time>
      </trkpt>
      <trkpt lat="42.96578292" lon="13.40557093">
        <ele>534.00000</ele>
        <time>2024-05-10T19:20:30Z</time>
      </trkpt>
      <trkpt lat="42.96579692" lon="13.40559893">
        <ele>535.00000</ele>
        <time>2024-05-10T19:20:30Z</time>
      </trkpt>
      <trkpt lat="42.96580991" lon="13.40562692">
        <ele>535.00000</ele>
        <time>2024-05-10T19:20:31Z</time>
      </trkpt>
      <trkpt lat="42.96582198" lon="13.40565995">
        <ele>536.00000</ele>
        <time>2024-05-10T19:20:31Z</time>
      </trkpt>
      <trkpt lat="42.96583598" lon="13.40568694">
        <ele>536.00000</ele>
        <time>2024-05-10T19:20:32Z</time>
      </trkpt>
      <trkpt lat="42.96584897" lon="13.40571393">
        <ele>536.00000</ele>
        <time>2024-05-10T19:20:32Z</time>
      </trkpt>
      <trkpt lat="42.96585995" lon="13.40574092">
        <ele>536.00000</ele>
        <time>2024-05-10T19:20:33Z</time>
      </trkpt>
      <trkpt lat="42.96587194" lon="13.40577193">
        <ele>536.00000</ele>
        <time>2024-05-10T19:20:33Z</time>
      </trkpt>
      <trkpt lat="42.96588191" lon="13.40579699">
        <ele>536.00000</ele>
        <time>2024-05-10T19:20:34Z</time>
      </trkpt>
      <trkpt lat="42.96589499" lon="13.40582499">
        <ele>536.00000</ele>
        <time>2024-05-10T19:20:34Z</time>
      </trkpt>
      <trkpt lat="42.96590496" lon="13.40585793">
        <ele>536.00000</ele>
        <time>2024-05-10T19:20:35Z</time>
      </trkpt>
      <trkpt lat="42.96591695" lon="13.40588894">
        <ele>536.00000</ele>
        <time>2024-05-10T19:20:35Z</time>
      </trkpt>
      <trkpt lat="42.96592491" lon="13.40591199">
        <ele>536.00000</ele>
        <time>2024-05-10T19:20:35Z</time>
      </trkpt>
      <trkpt lat="42.96593497" lon="13.40593395">
        <ele>536.00000</ele>
        <time>2024-05-10T19:20:36Z</time>
      </trkpt>
      <trkpt lat="42.96594394" lon="13.40596094">
        <ele>536.00000</ele>
        <time>2024-05-10T19:20:36Z</time>
      </trkpt>
      <trkpt lat="42.96595199" lon="13.40598198">
        <ele>535.00000</ele>
        <time>2024-05-10T19:20:37Z</time>
      </trkpt>
      <trkpt lat="42.96596095" lon="13.40601098">
        <ele>535.00000</ele>
        <time>2024-05-10T19:20:37Z</time>
      </trkpt>
      <trkpt lat="42.96596892" lon="13.40603797">
        <ele>535.00000</ele>
        <time>2024-05-10T19:20:38Z</time>
      </trkpt>
      <trkpt lat="42.96597395" lon="13.40606396">
        <ele>535.00000</ele>
        <time>2024-05-10T19:20:38Z</time>
      </trkpt>
      <trkpt lat="42.96597696" lon="13.40609296">
        <ele>535.00000</ele>
        <time>2024-05-10T19:20:38Z</time>
      </trkpt>
      <trkpt lat="42.96597898" lon="13.40612296">
        <ele>534.00000</ele>
        <time>2024-05-10T19:20:39Z</time>
      </trkpt>
      <trkpt lat="42.96598099" lon="13.40615599">
        <ele>534.00000</ele>
        <time>2024-05-10T19:20:39Z</time>
      </trkpt>
      <trkpt lat="42.96598099" lon="13.40618499">
        <ele>534.00000</ele>
        <time>2024-05-10T19:20:40Z</time>
      </trkpt>
      <trkpt lat="42.96597797" lon="13.40621299">
        <ele>534.00000</ele>
        <time>2024-05-10T19:20:40Z</time>
      </trkpt>
      <trkpt lat="42.96597495" lon="13.40624299">
        <ele>534.00000</ele>
        <time>2024-05-10T19:20:41Z</time>
      </trkpt>
      <trkpt lat="42.96597193" lon="13.40626898">
        <ele>534.00000</ele>
        <time>2024-05-10T19:20:41Z</time>
      </trkpt>
      <trkpt lat="42.96596699" lon="13.40629396">
        <ele>535.00000</ele>
        <time>2024-05-10T19:20:41Z</time>
      </trkpt>
      <trkpt lat="42.96596095" lon="13.40632095">
        <ele>535.00000</ele>
        <time>2024-05-10T19:20:42Z</time>
      </trkpt>
      <trkpt lat="42.96595592" lon="13.40634592">
        <ele>535.00000</ele>
        <time>2024-05-10T19:20:42Z</time>
      </trkpt>
      <trkpt lat="42.96594897" lon="13.40637392">
        <ele>535.00000</ele>
        <time>2024-05-10T19:20:43Z</time>
      </trkpt>
      <trkpt lat="42.96594193" lon="13.40640694">
        <ele>535.00000</ele>
        <time>2024-05-10T19:20:43Z</time>
      </trkpt>
      <trkpt lat="42.96593497" lon="13.40643393">
        <ele>536.00000</ele>
        <time>2024-05-10T19:20:43Z</time>
      </trkpt>
      <trkpt lat="42.96592198" lon="13.40646092">
        <ele>536.00000</ele>
        <time>2024-05-10T19:20:44Z</time>
      </trkpt>
      <trkpt lat="42.96591494" lon="13.40648699">
        <ele>537.00000</ele>
        <time>2024-05-10T19:20:44Z</time>
      </trkpt>
      <trkpt lat="42.96590697" lon="13.40651599">
        <ele>537.00000</ele>
        <time>2024-05-10T19:20:45Z</time>
      </trkpt>
      <trkpt lat="42.96590295" lon="13.40654097">
        <ele>538.00000</ele>
        <time>2024-05-10T19:20:45Z</time>
      </trkpt>
      <trkpt lat="42.96589893" lon="13.40656796">
        <ele>538.00000</ele>
        <time>2024-05-10T19:20:46Z</time>
      </trkpt>
      <trkpt lat="42.96589599" lon="13.40659495">
        <ele>538.00000</ele>
        <time>2024-05-10T19:20:46Z</time>
      </trkpt>
      <trkpt lat="42.96589398" lon="13.40662194">
        <ele>539.00000</ele>
        <time>2024-05-10T19:20:46Z</time>
      </trkpt>
      <trkpt lat="42.96588996" lon="13.40664993">
        <ele>539.00000</ele>
        <time>2024-05-10T19:20:47Z</time>
      </trkpt>
      <trkpt lat="42.96588694" lon="13.40667894">
        <ele>540.00000</ele>
        <time>2024-05-10T19:20:47Z</time>
      </trkpt>
      <trkpt lat="42.96588795" lon="13.40671095">
        <ele>540.00000</ele>
        <time>2024-05-10T19:20:48Z</time>
      </trkpt>
      <trkpt lat="42.96588895" lon="13.40673996">
        <ele>540.00000</ele>
        <time>2024-05-10T19:20:48Z</time>
      </trkpt>
      <trkpt lat="42.96588895" lon="13.40676695">
        <ele>541.00000</ele>
        <time>2024-05-10T19:20:49Z</time>
      </trkpt>
      <trkpt lat="42.96589097" lon="13.40679695">
        <ele>541.00000</ele>
        <time>2024-05-10T19:20:49Z</time>
      </trkpt>
      <trkpt lat="42.96589398" lon="13.40682696">
        <ele>541.00000</ele>
        <time>2024-05-10T19:20:49Z</time>
      </trkpt>
      <trkpt lat="42.96589792" lon="13.40685999">
        <ele>541.00000</ele>
        <time>2024-05-10T19:20:50Z</time>
      </trkpt>
      <trkpt lat="42.96589893" lon="13.40689091">
        <ele>542.00000</ele>
        <time>2024-05-10T19:20:50Z</time>
      </trkpt>
      <trkpt lat="42.96589792" lon="13.40692193">
        <ele>542.00000</ele>
        <time>2024-05-10T19:20:51Z</time>
      </trkpt>
      <trkpt lat="42.96589792" lon="13.40695998">
        <ele>543.00000</ele>
        <time>2024-05-10T19:20:51Z</time>
      </trkpt>
      <trkpt lat="42.96589993" lon="13.40699292">
        <ele>543.00000</ele>
        <time>2024-05-10T19:20:52Z</time>
      </trkpt>
      <trkpt lat="42.96590295" lon="13.40702896">
        <ele>544.00000</ele>
        <time>2024-05-10T19:20:52Z</time>
      </trkpt>
      <trkpt lat="42.96590597" lon="13.40706098">
        <ele>544.00000</ele>
        <time>2024-05-10T19:20:53Z</time>
      </trkpt>
      <trkpt lat="42.96590798" lon="13.40709392">
        <ele>544.00000</ele>
        <time>2024-05-10T19:20:53Z</time>
      </trkpt>
      <trkpt lat="42.96591091" lon="13.40712393">
        <ele>545.00000</ele>
        <time>2024-05-10T19:20:54Z</time>
      </trkpt>
      <trkpt lat="42.96591091" lon="13.40716098">
        <ele>545.00000</ele>
        <time>2024-05-10T19:20:54Z</time>
      </trkpt>
      <trkpt lat="42.96590999" lon="13.40719593">
        <ele>546.00000</ele>
        <time>2024-05-10T19:20:55Z</time>
      </trkpt>
      <trkpt lat="42.96591091" lon="13.40722099">
        <ele>546.00000</ele>
        <time>2024-05-10T19:20:55Z</time>
      </trkpt>
      <trkpt lat="42.96590899" lon="13.40725695">
        <ele>547.00000</ele>
        <time>2024-05-10T19:20:56Z</time>
      </trkpt>
      <trkpt lat="42.96590798" lon="13.40728696">
        <ele>547.00000</ele>
        <time>2024-05-10T19:20:56Z</time>
      </trkpt>
      <trkpt lat="42.96590697" lon="13.40731898">
        <ele>547.00000</ele>
        <time>2024-05-10T19:20:57Z</time>
      </trkpt>
      <trkpt lat="42.96590697" lon="13.40735393">
        <ele>547.00000</ele>
        <time>2024-05-10T19:20:57Z</time>
      </trkpt>
      <trkpt lat="42.96590798" lon="13.40738696">
        <ele>547.00000</ele>
        <time>2024-05-10T19:20:58Z</time>
      </trkpt>
      <trkpt lat="42.96590597" lon="13.40742199">
        <ele>548.00000</ele>
        <time>2024-05-10T19:20:58Z</time>
      </trkpt>
      <trkpt lat="42.96590396" lon="13.40745493">
        <ele>548.00000</ele>
        <time>2024-05-10T19:20:59Z</time>
      </trkpt>
      <trkpt lat="42.96590295" lon="13.40748695">
        <ele>548.00000</ele>
        <time>2024-05-10T19:20:59Z</time>
      </trkpt>
      <trkpt lat="42.96590295" lon="13.40751998">
        <ele>548.00000</ele>
        <time>2024-05-10T19:21:00Z</time>
      </trkpt>
      <trkpt lat="42.96590597" lon="13.40754697">
        <ele>548.00000</ele>
        <time>2024-05-10T19:21:00Z</time>
      </trkpt>
      <trkpt lat="42.96591091" lon="13.40757898">
        <ele>548.00000</ele>
        <time>2024-05-10T19:21:00Z</time>
      </trkpt>
      <trkpt lat="42.96591594" lon="13.40761293">
        <ele>548.00000</ele>
        <time>2024-05-10T19:21:01Z</time>
      </trkpt>
      <trkpt lat="42.96591896" lon="13.40764696">
        <ele>548.00000</ele>
        <time>2024-05-10T19:21:01Z</time>
      </trkpt>
      <trkpt lat="42.96592399" lon="13.40768292">
        <ele>548.00000</ele>
        <time>2024-05-10T19:21:02Z</time>
      </trkpt>
      <trkpt lat="42.96592793" lon="13.40772299">
        <ele>548.00000</ele>
        <time>2024-05-10T19:21:03Z</time>
      </trkpt>
      <trkpt lat="42.96593095" lon="13.40775794">
        <ele>548.00000</ele>
        <time>2024-05-10T19:21:03Z</time>
      </trkpt>
      <trkpt lat="42.96593497" lon="13.40779599">
        <ele>548.00000</ele>
        <time>2024-05-10T19:21:04Z</time>
      </trkpt>
      <trkpt lat="42.96594293" lon="13.40783698">
        <ele>547.00000</ele>
        <time>2024-05-10T19:21:04Z</time>
      </trkpt>
      <trkpt lat="42.96595199" lon="13.40787797">
        <ele>547.00000</ele>
        <time>2024-05-10T19:21:05Z</time>
      </trkpt>
      <trkpt lat="42.96596397" lon="13.40792097">
        <ele>547.00000</ele>
        <time>2024-05-10T19:21:06Z</time>
      </trkpt>
      <trkpt lat="42.96598099" lon="13.40796296">
        <ele>546.00000</ele>
        <time>2024-05-10T19:21:06Z</time>
      </trkpt>
      <trkpt lat="42.96599993" lon="13.40800395">
        <ele>546.00000</ele>
        <time>2024-05-10T19:21:07Z</time>
      </trkpt>
      <trkpt lat="42.96602298" lon="13.40804695">
        <ele>545.00000</ele>
        <time>2024-05-10T19:21:08Z</time>
      </trkpt>
      <trkpt lat="42.96604896" lon="13.40808299">
        <ele>545.00000</ele>
        <time>2024-05-10T19:21:09Z</time>
      </trkpt>
      <trkpt lat="42.96607897" lon="13.40811291">
        <ele>544.00000</ele>
        <time>2024-05-10T19:21:09Z</time>
      </trkpt>
      <trkpt lat="42.96611099" lon="13.40814393">
        <ele>543.00000</ele>
        <time>2024-05-10T19:21:10Z</time>
      </trkpt>
      <trkpt lat="42.96613697" lon="13.40816798">
        <ele>543.00000</ele>
        <time>2024-05-10T19:21:11Z</time>
      </trkpt>
      <trkpt lat="42.96616497" lon="13.40819095">
        <ele>542.00000</ele>
        <time>2024-05-10T19:21:11Z</time>
      </trkpt>
      <trkpt lat="42.96619297" lon="13.40820495">
        <ele>542.00000</ele>
        <time>2024-05-10T19:21:12Z</time>
      </trkpt>
      <trkpt lat="42.96621895" lon="13.40822397">
        <ele>542.00000</ele>
        <time>2024-05-10T19:21:13Z</time>
      </trkpt>
      <trkpt lat="42.96624896" lon="13.40824493">
        <ele>542.00000</ele>
        <time>2024-05-10T19:21:13Z</time>
      </trkpt>
      <trkpt lat="42.96627695" lon="13.40826898">
        <ele>542.00000</ele>
        <time>2024-05-10T19:21:14Z</time>
      </trkpt>
      <trkpt lat="42.96630495" lon="13.40828994">
        <ele>542.00000</ele>
        <time>2024-05-10T19:21:15Z</time>
      </trkpt>
      <trkpt lat="42.96633495" lon="13.40831098">
        <ele>542.00000</ele>
        <time>2024-05-10T19:21:15Z</time>
      </trkpt>
      <trkpt lat="42.96636496" lon="13.40834098">
        <ele>541.00000</ele>
        <time>2024-05-10T19:21:16Z</time>
      </trkpt>
      <trkpt lat="42.96638692" lon="13.40837493">
        <ele>541.00000</ele>
        <time>2024-05-10T19:21:17Z</time>
      </trkpt>
      <trkpt lat="42.96640193" lon="13.40842095">
        <ele>542.00000</ele>
        <time>2024-05-10T19:21:17Z</time>
      </trkpt>
      <trkpt lat="42.96640595" lon="13.40846898">
        <ele>542.00000</ele>
        <time>2024-05-10T19:21:18Z</time>
      </trkpt>
      <trkpt lat="42.96640595" lon="13.40851499">
        <ele>542.00000</ele>
        <time>2024-05-10T19:21:19Z</time>
      </trkpt>
      <trkpt lat="42.96640897" lon="13.40856998">
        <ele>542.00000</ele>
        <time>2024-05-10T19:21:20Z</time>
      </trkpt>
      <trkpt lat="42.96641894" lon="13.40861993">
        <ele>542.00000</ele>
        <time>2024-05-10T19:21:20Z</time>
      </trkpt>
      <trkpt lat="42.96642992" lon="13.40866997">
        <ele>542.00000</ele>
        <time>2024-05-10T19:21:21Z</time>
      </trkpt>
      <trkpt lat="42.96644099" lon="13.40872295">
        <ele>542.00000</ele>
        <time>2024-05-10T19:21:22Z</time>
      </trkpt>
      <trkpt lat="42.96645197" lon="13.40877098">
        <ele>542.00000</ele>
        <time>2024-05-10T19:21:23Z</time>
      </trkpt>
      <trkpt lat="42.96646395" lon="13.40881599">
        <ele>542.00000</ele>
        <time>2024-05-10T19:21:23Z</time>
      </trkpt>
      <trkpt lat="42.96647594" lon="13.40886594">
        <ele>542.00000</ele>
        <time>2024-05-10T19:21:24Z</time>
      </trkpt>
      <trkpt lat="42.96648398" lon="13.40891296">
        <ele>541.00000</ele>
        <time>2024-05-10T19:21:25Z</time>
      </trkpt>
      <trkpt lat="42.96649698" lon="13.40896795">
        <ele>541.00000</ele>
        <time>2024-05-10T19:21:26Z</time>
      </trkpt>
      <trkpt lat="42.96651693" lon="13.40902998">
        <ele>540.00000</ele>
        <time>2024-05-10T19:21:27Z</time>
      </trkpt>
      <trkpt lat="42.96655096" lon="13.40909292">
        <ele>540.00000</ele>
        <time>2024-05-10T19:21:28Z</time>
      </trkpt>
      <trkpt lat="42.96660393" lon="13.40915294">
        <ele>540.00000</ele>
        <time>2024-05-10T19:21:29Z</time>
      </trkpt>
      <trkpt lat="42.96666998" lon="13.40919694">
        <ele>539.00000</ele>
        <time>2024-05-10T19:21:31Z</time>
      </trkpt>
      <trkpt lat="42.96674198" lon="13.40923198">
        <ele>539.00000</ele>
        <time>2024-05-10T19:21:32Z</time>
      </trkpt>
      <trkpt lat="42.96682194" lon="13.40928194">
        <ele>539.00000</ele>
        <time>2024-05-10T19:21:34Z</time>
      </trkpt>
      <trkpt lat="42.96689696" lon="13.40933893">
        <ele>538.00000</ele>
        <time>2024-05-10T19:21:36Z</time>
      </trkpt>
      <trkpt lat="42.96696594" lon="13.40941898">
        <ele>538.00000</ele>
        <time>2024-05-10T19:21:37Z</time>
      </trkpt>
      <trkpt lat="42.96702194" lon="13.40950892">
        <ele>539.00000</ele>
        <time>2024-05-10T19:21:39Z</time>
      </trkpt>
      <trkpt lat="42.96705194" lon="13.40960891">
        <ele>539.00000</ele>
        <time>2024-05-10T19:21:41Z</time>
      </trkpt>
      <trkpt lat="42.96704893" lon="13.40970497">
        <ele>540.00000</ele>
        <time>2024-05-10T19:21:42Z</time>
      </trkpt>
      <trkpt lat="42.96702194" lon="13.40978393">
        <ele>540.00000</ele>
        <time>2024-05-10T19:21:43Z</time>
      </trkpt>
      <trkpt lat="42.96698799" lon="13.40984093">
        <ele>540.00000</ele>
        <time>2024-05-10T19:21:45Z</time>
      </trkpt>
      <trkpt lat="42.96695195" lon="13.40989692">
        <ele>540.00000</ele>
        <time>2024-05-10T19:21:46Z</time>
      </trkpt>
      <trkpt lat="42.96691599" lon="13.40995693">
        <ele>539.00000</ele>
        <time>2024-05-10T19:21:47Z</time>
      </trkpt>
      <trkpt lat="42.96687995" lon="13.41000798">
        <ele>538.00000</ele>
        <time>2024-05-10T19:21:48Z</time>
      </trkpt>
      <trkpt lat="42.96684692" lon="13.41005492">
        <ele>538.00000</ele>
        <time>2024-05-10T19:21:49Z</time>
      </trkpt>
      <trkpt lat="42.96681398" lon="13.41010496">
        <ele>537.00000</ele>
        <time>2024-05-10T19:21:50Z</time>
      </trkpt>
      <trkpt lat="42.96679395" lon="13.41016195">
        <ele>537.00000</ele>
        <time>2024-05-10T19:21:51Z</time>
      </trkpt>
      <trkpt lat="42.96678699" lon="13.41022398">
        <ele>537.00000</ele>
        <time>2024-05-10T19:21:52Z</time>
      </trkpt>
      <trkpt lat="42.96679898" lon="13.41028793">
        <ele>537.00000</ele>
        <time>2024-05-10T19:21:53Z</time>
      </trkpt>
      <trkpt lat="42.96682999" lon="13.41034895">
        <ele>538.00000</ele>
        <time>2024-05-10T19:21:54Z</time>
      </trkpt>
      <trkpt lat="42.96686897" lon="13.41040796">
        <ele>539.00000</ele>
        <time>2024-05-10T19:21:55Z</time>
      </trkpt>
      <trkpt lat="42.96690995" lon="13.41047594">
        <ele>539.00000</ele>
        <time>2024-05-10T19:21:56Z</time>
      </trkpt>
      <trkpt lat="42.96694591" lon="13.41054492">
        <ele>540.00000</ele>
        <time>2024-05-10T19:21:57Z</time>
      </trkpt>
      <trkpt lat="42.96698497" lon="13.41061592">
        <ele>540.00000</ele>
        <time>2024-05-10T19:21:59Z</time>
      </trkpt>
      <trkpt lat="42.96702395" lon="13.41068498">
        <ele>540.00000</ele>
        <time>2024-05-10T19:22:00Z</time>
      </trkpt>
      <trkpt lat="42.96706292" lon="13.41076193">
        <ele>540.00000</ele>
        <time>2024-05-10T19:22:01Z</time>
      </trkpt>
      <trkpt lat="42.96710299" lon="13.41085296">
        <ele>540.00000</ele>
        <time>2024-05-10T19:22:03Z</time>
      </trkpt>
      <trkpt lat="42.96714196" lon="13.41094591">
        <ele>540.00000</ele>
        <time>2024-05-10T19:22:04Z</time>
      </trkpt>
      <trkpt lat="42.96717499" lon="13.41104599">
        <ele>540.00000</ele>
        <time>2024-05-10T19:22:06Z</time>
      </trkpt>
      <trkpt lat="42.96720298" lon="13.41115496">
        <ele>540.00000</ele>
        <time>2024-05-10T19:22:08Z</time>
      </trkpt>
      <trkpt lat="42.96722997" lon="13.41127197">
        <ele>540.00000</ele>
        <time>2024-05-10T19:22:10Z</time>
      </trkpt>
      <trkpt lat="42.96725797" lon="13.41138697">
        <ele>539.00000</ele>
        <time>2024-05-10T19:22:11Z</time>
      </trkpt>
      <trkpt lat="42.96729099" lon="13.41150297">
        <ele>539.00000</ele>
        <time>2024-05-10T19:22:13Z</time>
      </trkpt>
      <trkpt lat="42.96733492" lon="13.41160791">
        <ele>538.00000</ele>
        <time>2024-05-10T19:22:15Z</time>
      </trkpt>
      <trkpt lat="42.96739191" lon="13.41170095">
        <ele>536.00000</ele>
        <time>2024-05-10T19:22:17Z</time>
      </trkpt>
      <trkpt lat="42.96746894" lon="13.41177597">
        <ele>535.00000</ele>
        <time>2024-05-10T19:22:19Z</time>
      </trkpt>
      <trkpt lat="42.96754991" lon="13.41184596">
        <ele>534.00000</ele>
        <time>2024-05-10T19:22:20Z</time>
      </trkpt>
      <trkpt lat="42.96761495" lon="13.41191897">
        <ele>533.00000</ele>
        <time>2024-05-10T19:22:22Z</time>
      </trkpt>
      <trkpt lat="42.96766097" lon="13.41200798">
        <ele>533.00000</ele>
        <time>2024-05-10T19:22:24Z</time>
      </trkpt>
      <trkpt lat="42.96767598" lon="13.41210898">
        <ele>535.00000</ele>
        <time>2024-05-10T19:22:25Z</time>
      </trkpt>
      <trkpt lat="42.96768696" lon="13.41220395">
        <ele>536.00000</ele>
        <time>2024-05-10T19:22:27Z</time>
      </trkpt>
      <trkpt lat="42.96771897" lon="13.41229892">
        <ele>536.00000</ele>
        <time>2024-05-10T19:22:28Z</time>
      </trkpt>
      <trkpt lat="42.96776692" lon="13.41237595">
        <ele>536.00000</ele>
        <time>2024-05-10T19:22:30Z</time>
      </trkpt>
      <trkpt lat="42.96782794" lon="13.41242993">
        <ele>536.00000</ele>
        <time>2024-05-10T19:22:31Z</time>
      </trkpt>
      <trkpt lat="42.96789399" lon="13.41247092">
        <ele>535.00000</ele>
        <time>2024-05-10T19:22:33Z</time>
      </trkpt>
      <trkpt lat="42.96795995" lon="13.41251098">
        <ele>535.00000</ele>
        <time>2024-05-10T19:22:34Z</time>
      </trkpt>
      <trkpt lat="42.96802592" lon="13.41254199">
        <ele>535.00000</ele>
        <time>2024-05-10T19:22:35Z</time>
      </trkpt>
      <trkpt lat="42.96808996" lon="13.41256597">
        <ele>535.00000</ele>
        <time>2024-05-10T19:22:37Z</time>
      </trkpt>
      <trkpt lat="42.96815198" lon="13.41259094">
        <ele>535.00000</ele>
        <time>2024-05-10T19:22:38Z</time>
      </trkpt>
      <trkpt lat="42.96820898" lon="13.41261299">
        <ele>535.00000</ele>
        <time>2024-05-10T19:22:39Z</time>
      </trkpt>
      <trkpt lat="42.96826296" lon="13.41263495">
        <ele>535.00000</ele>
        <time>2024-05-10T19:22:40Z</time>
      </trkpt>
      <trkpt lat="42.96831392" lon="13.41265398">
        <ele>535.00000</ele>
        <time>2024-05-10T19:22:41Z</time>
      </trkpt>
      <trkpt lat="42.96836396" lon="13.41267099">
        <ele>535.00000</ele>
        <time>2024-05-10T19:22:42Z</time>
      </trkpt>
      <trkpt lat="42.96841098" lon="13.41268692">
        <ele>535.00000</ele>
        <time>2024-05-10T19:22:43Z</time>
      </trkpt>
      <trkpt lat="42.96846396" lon="13.41270997">
        <ele>535.00000</ele>
        <time>2024-05-10T19:22:45Z</time>
      </trkpt>
      <trkpt lat="42.96852397" lon="13.41273293">
        <ele>535.00000</ele>
        <time>2024-05-10T19:22:46Z</time>
      </trkpt>
      <trkpt lat="42.96859396" lon="13.41275397">
        <ele>536.00000</ele>
        <time>2024-05-10T19:22:47Z</time>
      </trkpt>
      <trkpt lat="42.96866697" lon="13.41277694">
        <ele>536.00000</ele>
        <time>2024-05-10T19:22:49Z</time>
      </trkpt>
      <trkpt lat="42.96874593" lon="13.41281692">
        <ele>535.00000</ele>
        <time>2024-05-10T19:22:50Z</time>
      </trkpt>
      <trkpt lat="42.96882295" lon="13.41287492">
        <ele>534.00000</ele>
        <time>2024-05-10T19:22:52Z</time>
      </trkpt>
      <trkpt lat="42.96889395" lon="13.41293795">
        <ele>533.00000</ele>
        <time>2024-05-10T19:22:54Z</time>
      </trkpt>
      <trkpt lat="42.96895598" lon="13.41299897">
        <ele>532.00000</ele>
        <time>2024-05-10T19:22:55Z</time>
      </trkpt>
      <trkpt lat="42.96900794" lon="13.41305396">
        <ele>532.00000</ele>
        <time>2024-05-10T19:22:57Z</time>
      </trkpt>
      <trkpt lat="42.96904399" lon="13.41311297">
        <ele>531.00000</ele>
        <time>2024-05-10T19:22:58Z</time>
      </trkpt>
      <trkpt lat="42.96905094" lon="13.41317198">
        <ele>531.00000</ele>
        <time>2024-05-10T19:22:59Z</time>
      </trkpt>
      <trkpt lat="42.96900996" lon="13.41321397">
        <ele>530.00000</ele>
        <time>2024-05-10T19:23:00Z</time>
      </trkpt>
      <trkpt lat="42.96894994" lon="13.41320391">
        <ele>529.00000</ele>
        <time>2024-05-10T19:23:01Z</time>
      </trkpt>
      <trkpt lat="42.96889697" lon="13.41314993">
        <ele>530.00000</ele>
        <time>2024-05-10T19:23:02Z</time>
      </trkpt>
      <trkpt lat="42.96883092" lon="13.41310895">
        <ele>530.00000</ele>
        <time>2024-05-10T19:23:04Z</time>
      </trkpt>
      <trkpt lat="42.96874894" lon="13.41309797">
        <ele>530.00000</ele>
        <time>2024-05-10T19:23:05Z</time>
      </trkpt>
      <trkpt lat="42.96867191" lon="13.41313795">
        <ele>530.00000</ele>
        <time>2024-05-10T19:23:07Z</time>
      </trkpt>
      <trkpt lat="42.96860494" lon="13.41320693">
        <ele>529.00000</ele>
        <time>2024-05-10T19:23:09Z</time>
      </trkpt>
      <trkpt lat="42.96855398" lon="13.41329796">
        <ele>528.00000</ele>
        <time>2024-05-10T19:23:10Z</time>
      </trkpt>
      <trkpt lat="42.96849799" lon="13.41339292">
        <ele>528.00000</ele>
        <time>2024-05-10T19:23:12Z</time>
      </trkpt>
      <trkpt lat="42.96842699" lon="13.41347498">
        <ele>526.00000</ele>
        <time>2024-05-10T19:23:14Z</time>
      </trkpt>
      <trkpt lat="42.96833295" lon="13.41354397">
        <ele>525.00000</ele>
        <time>2024-05-10T19:23:16Z</time>
      </trkpt>
      <trkpt lat="42.96823798" lon="13.41359795">
        <ele>526.00000</ele>
        <time>2024-05-10T19:23:18Z</time>
      </trkpt>
      <trkpt lat="42.96815693" lon="13.41365595">
        <ele>526.00000</ele>
        <time>2024-05-10T19:23:20Z</time>
      </trkpt>
      <trkpt lat="42.96809691" lon="13.41374396">
        <ele>526.00000</ele>
        <time>2024-05-10T19:23:22Z</time>
      </trkpt>
      <trkpt lat="42.96807194" lon="13.41386893">
        <ele>524.00000</ele>
        <time>2024-05-10T19:23:24Z</time>
      </trkpt>
      <trkpt lat="42.96807596" lon="13.41399692">
        <ele>523.00000</ele>
        <time>2024-05-10T19:23:26Z</time>
      </trkpt>
      <trkpt lat="42.96807797" lon="13.41413699">
        <ele>522.00000</ele>
        <time>2024-05-10T19:23:28Z</time>
      </trkpt>
      <trkpt lat="42.96806992" lon="13.41425693">
        <ele>520.00000</ele>
        <time>2024-05-10T19:23:29Z</time>
      </trkpt>
      <trkpt lat="42.96806297" lon="13.41435894">
        <ele>518.00000</ele>
        <time>2024-05-10T19:23:31Z</time>
      </trkpt>
      <trkpt lat="42.96805894" lon="13.41444695">
        <ele>516.00000</ele>
        <time>2024-05-10T19:23:32Z</time>
      </trkpt>
      <trkpt lat="42.96809398" lon="13.41451392">
        <ele>512.00000</ele>
        <time>2024-05-10T19:23:33Z</time>
      </trkpt>
      <trkpt lat="42.96814897" lon="13.41452297">
        <ele>510.00000</ele>
        <time>2024-05-10T19:23:35Z</time>
      </trkpt>
      <trkpt lat="42.96821996" lon="13.41450495">
        <ele>507.00000</ele>
        <time>2024-05-10T19:23:36Z</time>
      </trkpt>
      <trkpt lat="42.96829699" lon="13.41445793">
        <ele>504.00000</ele>
        <time>2024-05-10T19:23:38Z</time>
      </trkpt>
      <trkpt lat="42.96837897" lon="13.41440496">
        <ele>503.00000</ele>
        <time>2024-05-10T19:23:39Z</time>
      </trkpt>
      <trkpt lat="42.96847594" lon="13.41436095">
        <ele>503.00000</ele>
        <time>2024-05-10T19:23:42Z</time>
      </trkpt>
      <trkpt lat="42.96857996" lon="13.41431493">
        <ele>503.00000</ele>
        <time>2024-05-10T19:23:44Z</time>
      </trkpt>
      <trkpt lat="42.96868197" lon="13.41427294">
        <ele>504.00000</ele>
        <time>2024-05-10T19:23:46Z</time>
      </trkpt>
      <trkpt lat="42.96878197" lon="13.41426095">
        <ele>505.00000</ele>
        <time>2024-05-10T19:23:48Z</time>
      </trkpt>
      <trkpt lat="42.96887693" lon="13.41427797">
        <ele>504.00000</ele>
        <time>2024-05-10T19:23:50Z</time>
      </trkpt>
      <trkpt lat="42.96895698" lon="13.41430395">
        <ele>504.00000</ele>
        <time>2024-05-10T19:23:51Z</time>
      </trkpt>
      <trkpt lat="42.96902295" lon="13.41432399">
        <ele>503.00000</ele>
        <time>2024-05-10T19:23:53Z</time>
      </trkpt>
      <trkpt lat="42.96907399" lon="13.41433798">
        <ele>503.00000</ele>
        <time>2024-05-10T19:23:54Z</time>
      </trkpt>
      <trkpt lat="42.96910693" lon="13.41436799">
        <ele>502.00000</ele>
        <time>2024-05-10T19:23:55Z</time>
      </trkpt>
      <trkpt lat="42.96911599" lon="13.41441191">
        <ele>501.00000</ele>
        <time>2024-05-10T19:23:55Z</time>
      </trkpt>
      <trkpt lat="42.96909294" lon="13.41445592">
        <ele>499.00000</ele>
        <time>2024-05-10T19:23:56Z</time>
      </trkpt>
      <trkpt lat="42.96904591" lon="13.41447997">
        <ele>499.00000</ele>
        <time>2024-05-10T19:23:57Z</time>
      </trkpt>
      <trkpt lat="42.96899998" lon="13.41449598">
        <ele>499.00000</ele>
        <time>2024-05-10T19:23:58Z</time>
      </trkpt>
      <trkpt lat="42.96894793" lon="13.41452498">
        <ele>498.00000</ele>
        <time>2024-05-10T19:23:59Z</time>
      </trkpt>
      <trkpt lat="42.96889395" lon="13.41456396">
        <ele>497.00000</ele>
        <time>2024-05-10T19:24:00Z</time>
      </trkpt>
      <trkpt lat="42.96883896" lon="13.41460696">
        <ele>496.00000</ele>
        <time>2024-05-10T19:24:02Z</time>
      </trkpt>
      <trkpt lat="42.96878498" lon="13.41465197">
        <ele>495.00000</ele>
        <time>2024-05-10T19:24:03Z</time>
      </trkpt>
      <trkpt lat="42.96872899" lon="13.41471198">
        <ele>493.00000</ele>
        <time>2024-05-10T19:24:04Z</time>
      </trkpt>
      <trkpt lat="42.96867191" lon="13.41477493">
        <ele>492.00000</ele>
        <time>2024-05-10T19:24:06Z</time>
      </trkpt>
      <trkpt lat="42.96860997" lon="13.41484199">
        <ele>491.00000</ele>
        <time>2024-05-10T19:24:07Z</time>
      </trkpt>
      <trkpt lat="42.96854794" lon="13.41491097">
        <ele>491.00000</ele>
        <time>2024-05-10T19:24:09Z</time>
      </trkpt>
      <trkpt lat="42.96848399" lon="13.41498096">
        <ele>490.00000</ele>
        <time>2024-05-10T19:24:11Z</time>
      </trkpt>
      <trkpt lat="42.96841995" lon="13.41505698">
        <ele>489.00000</ele>
        <time>2024-05-10T19:24:12Z</time>
      </trkpt>
      <trkpt lat="42.96835298" lon="13.41513896">
        <ele>488.00000</ele>
        <time>2024-05-10T19:24:14Z</time>
      </trkpt>
      <trkpt lat="42.96828492" lon="13.41521892">
        <ele>488.00000</ele>
        <time>2024-05-10T19:24:16Z</time>
      </trkpt>
      <trkpt lat="42.96821191" lon="13.41530199">
        <ele>487.00000</ele>
        <time>2024-05-10T19:24:18Z</time>
      </trkpt>
      <trkpt lat="42.96814193" lon="13.41538497">
        <ele>486.00000</ele>
        <time>2024-05-10T19:24:20Z</time>
      </trkpt>
      <trkpt lat="42.96807194" lon="13.41547499">
        <ele>485.00000</ele>
        <time>2024-05-10T19:24:22Z</time>
      </trkpt>
      <trkpt lat="42.96798996" lon="13.41554498">
        <ele>483.00000</ele>
        <time>2024-05-10T19:24:24Z</time>
      </trkpt>
      <trkpt lat="42.96789592" lon="13.41560994">
        <ele>482.00000</ele>
        <time>2024-05-10T19:24:26Z</time>
      </trkpt>
      <trkpt lat="42.96779097" lon="13.41564992">
        <ele>482.00000</ele>
        <time>2024-05-10T19:24:28Z</time>
      </trkpt>
      <trkpt lat="42.96768595" lon="13.41566098">
        <ele>482.00000</ele>
        <time>2024-05-10T19:24:30Z</time>
      </trkpt>
      <trkpt lat="42.96757992" lon="13.41566199">
        <ele>483.00000</ele>
        <time>2024-05-10T19:24:32Z</time>
      </trkpt>
      <trkpt lat="42.96747699" lon="13.41565998">
        <ele>484.00000</ele>
        <time>2024-05-10T19:24:34Z</time>
      </trkpt>
      <trkpt lat="42.96737196" lon="13.41566199">
        <ele>486.00000</ele>
        <time>2024-05-10T19:24:36Z</time>
      </trkpt>
      <trkpt lat="42.96726895" lon="13.41568294">
        <ele>488.00000</ele>
        <time>2024-05-10T19:24:38Z</time>
      </trkpt>
      <trkpt lat="42.96716795" lon="13.41572494">
        <ele>488.00000</ele>
        <time>2024-05-10T19:24:40Z</time>
      </trkpt>
      <trkpt lat="42.96707399" lon="13.41576693">
        <ele>488.00000</ele>
        <time>2024-05-10T19:24:42Z</time>
      </trkpt>
      <trkpt lat="42.96698296" lon="13.41580892">
        <ele>488.00000</ele>
        <time>2024-05-10T19:24:44Z</time>
      </trkpt>
      <trkpt lat="42.96688598" lon="13.41584899">
        <ele>488.00000</ele>
        <time>2024-05-10T19:24:46Z</time>
      </trkpt>
      <trkpt lat="42.96678791" lon="13.41587196">
        <ele>488.00000</ele>
        <time>2024-05-10T19:24:48Z</time>
      </trkpt>
      <trkpt lat="42.96668792" lon="13.41588797">
        <ele>488.00000</ele>
        <time>2024-05-10T19:24:50Z</time>
      </trkpt>
      <trkpt lat="42.96659094" lon="13.41590791">
        <ele>488.00000</ele>
        <time>2024-05-10T19:24:52Z</time>
      </trkpt>
      <trkpt lat="42.96649698" lon="13.41592594">
        <ele>488.00000</ele>
        <time>2024-05-10T19:24:54Z</time>
      </trkpt>
      <trkpt lat="42.96640394" lon="13.41594798">
        <ele>487.00000</ele>
        <time>2024-05-10T19:24:56Z</time>
      </trkpt>
      <trkpt lat="42.96631492" lon="13.41599198">
        <ele>486.00000</ele>
        <time>2024-05-10T19:24:58Z</time>
      </trkpt>
      <trkpt lat="42.96623194" lon="13.41603993">
        <ele>485.00000</ele>
        <time>2024-05-10T19:25:00Z</time>
      </trkpt>
      <trkpt lat="42.96615692" lon="13.41610497">
        <ele>484.00000</ele>
        <time>2024-05-10T19:25:02Z</time>
      </trkpt>
      <trkpt lat="42.96608199" lon="13.41617194">
        <ele>482.00000</ele>
        <time>2024-05-10T19:25:03Z</time>
      </trkpt>
      <trkpt lat="42.96600798" lon="13.41622894">
        <ele>481.00000</ele>
        <time>2024-05-10T19:25:05Z</time>
      </trkpt>
      <trkpt lat="42.96593296" lon="13.41628694">
        <ele>480.00000</ele>
        <time>2024-05-10T19:25:07Z</time>
      </trkpt>
      <trkpt lat="42.96585895" lon="13.41634696">
        <ele>478.00000</ele>
        <time>2024-05-10T19:25:08Z</time>
      </trkpt>
      <trkpt lat="42.96578292" lon="13.41640697">
        <ele>477.00000</ele>
        <time>2024-05-10T19:25:10Z</time>
      </trkpt>
      <trkpt lat="42.96570296" lon="13.41645995">
        <ele>476.00000</ele>
        <time>2024-05-10T19:25:12Z</time>
      </trkpt>
      <trkpt lat="42.96561696" lon="13.41650596">
        <ele>475.00000</ele>
        <time>2024-05-10T19:25:14Z</time>
      </trkpt>
      <trkpt lat="42.96552895" lon="13.41653295">
        <ele>475.00000</ele>
        <time>2024-05-10T19:25:16Z</time>
      </trkpt>
      <trkpt lat="42.96544094" lon="13.41655097">
        <ele>477.00000</ele>
        <time>2024-05-10T19:25:17Z</time>
      </trkpt>
      <trkpt lat="42.96535796" lon="13.41656799">
        <ele>478.00000</ele>
        <time>2024-05-10T19:25:19Z</time>
      </trkpt>
      <trkpt lat="42.96527699" lon="13.41659498">
        <ele>478.00000</ele>
        <time>2024-05-10T19:25:21Z</time>
      </trkpt>
      <trkpt lat="42.96519795" lon="13.41663194">
        <ele>478.00000</ele>
        <time>2024-05-10T19:25:22Z</time>
      </trkpt>
      <trkpt lat="42.96512092" lon="13.41667595">
        <ele>477.00000</ele>
        <time>2024-05-10T19:25:24Z</time>
      </trkpt>
      <trkpt lat="42.96504297" lon="13.41672096">
        <ele>476.00000</ele>
        <time>2024-05-10T19:25:26Z</time>
      </trkpt>
      <trkpt lat="42.96496493" lon="13.41676899">
        <ele>476.00000</ele>
        <time>2024-05-10T19:25:28Z</time>
      </trkpt>
      <trkpt lat="42.96488597" lon="13.41682397">
        <ele>475.00000</ele>
        <time>2024-05-10T19:25:29Z</time>
      </trkpt>
      <trkpt lat="42.96479998" lon="13.41687594">
        <ele>474.00000</ele>
        <time>2024-05-10T19:25:31Z</time>
      </trkpt>
      <trkpt lat="42.96471691" lon="13.41693696">
        <ele>473.00000</ele>
        <time>2024-05-10T19:25:33Z</time>
      </trkpt>
      <trkpt lat="42.96463393" lon="13.41699396">
        <ele>473.00000</ele>
        <time>2024-05-10T19:25:35Z</time>
      </trkpt>
      <trkpt lat="42.96455799" lon="13.41707392">
        <ele>472.00000</ele>
        <time>2024-05-10T19:25:37Z</time>
      </trkpt>
      <trkpt lat="42.96449395" lon="13.41716998">
        <ele>470.00000</ele>
        <time>2024-05-10T19:25:39Z</time>
      </trkpt>
      <trkpt lat="42.96442799" lon="13.41726193">
        <ele>469.00000</ele>
        <time>2024-05-10T19:25:41Z</time>
      </trkpt>
      <trkpt lat="42.96436395" lon="13.41735497">
        <ele>468.00000</ele>
        <time>2024-05-10T19:25:42Z</time>
      </trkpt>
      <trkpt lat="42.96429597" lon="13.41744298">
        <ele>467.00000</ele>
        <time>2024-05-10T19:25:44Z</time>
      </trkpt>
      <trkpt lat="42.96422095" lon="13.41752193">
        <ele>467.00000</ele>
        <time>2024-05-10T19:25:46Z</time>
      </trkpt>
      <trkpt lat="42.96414393" lon="13.41758899">
        <ele>467.00000</ele>
        <time>2024-05-10T19:25:48Z</time>
      </trkpt>
      <trkpt lat="42.96406396" lon="13.41765395">
        <ele>466.00000</ele>
        <time>2024-05-10T19:25:50Z</time>
      </trkpt>
      <trkpt lat="42.96398391" lon="13.41771195">
        <ele>465.00000</ele>
        <time>2024-05-10T19:25:52Z</time>
      </trkpt>
      <trkpt lat="42.96389892" lon="13.41776493">
        <ele>464.00000</ele>
        <time>2024-05-10T19:25:54Z</time>
      </trkpt>
      <trkpt lat="42.96380697" lon="13.41779099">
        <ele>462.00000</ele>
        <time>2024-05-10T19:25:56Z</time>
      </trkpt>
      <trkpt lat="42.96371494" lon="13.41777096">
        <ele>460.00000</ele>
        <time>2024-05-10T19:25:57Z</time>
      </trkpt>
      <trkpt lat="42.96363196" lon="13.41770097">
        <ele>459.00000</ele>
        <time>2024-05-10T19:25:59Z</time>
      </trkpt>
      <trkpt lat="42.96357194" lon="13.41759997">
        <ele>460.00000</ele>
        <time>2024-05-10T19:26:01Z</time>
      </trkpt>
      <trkpt lat="42.96352593" lon="13.41747893">
        <ele>461.00000</ele>
        <time>2024-05-10T19:26:03Z</time>
      </trkpt>
      <trkpt lat="42.96347899" lon="13.41735295">
        <ele>462.00000</ele>
        <time>2024-05-10T19:26:05Z</time>
      </trkpt>
      <trkpt lat="42.96341998" lon="13.41724198">
        <ele>463.00000</ele>
        <time>2024-05-10T19:26:07Z</time>
      </trkpt>
      <trkpt lat="42.96335192" lon="13.41713896">
        <ele>464.00000</ele>
        <time>2024-05-10T19:26:09Z</time>
      </trkpt>
      <trkpt lat="42.96327497" lon="13.41704593">
        <ele>463.00000</ele>
        <time>2024-05-10T19:26:11Z</time>
      </trkpt>
      <trkpt lat="42.96318395" lon="13.41696999">
        <ele>462.00000</ele>
        <time>2024-05-10T19:26:14Z</time>
      </trkpt>
      <trkpt lat="42.96308194" lon="13.41691492">
        <ele>460.00000</ele>
        <time>2024-05-10T19:26:16Z</time>
      </trkpt>
      <trkpt lat="42.96297599" lon="13.41688591">
        <ele>458.00000</ele>
        <time>2024-05-10T19:26:18Z</time>
      </trkpt>
      <trkpt lat="42.96286694" lon="13.41688298">
        <ele>457.00000</ele>
        <time>2024-05-10T19:26:20Z</time>
      </trkpt>
      <trkpt lat="42.96275697" lon="13.41690192">
        <ele>455.00000</ele>
        <time>2024-05-10T19:26:22Z</time>
      </trkpt>
      <trkpt lat="42.96265396" lon="13.41693797">
        <ele>455.00000</ele>
        <time>2024-05-10T19:26:24Z</time>
      </trkpt>
      <trkpt lat="42.96255698" lon="13.41697694">
        <ele>456.00000</ele>
        <time>2024-05-10T19:26:26Z</time>
      </trkpt>
      <trkpt lat="42.96246696" lon="13.41701491">
        <ele>456.00000</ele>
        <time>2024-05-10T19:26:28Z</time>
      </trkpt>
      <trkpt lat="42.96238398" lon="13.41704794">
        <ele>456.00000</ele>
        <time>2024-05-10T19:26:30Z</time>
      </trkpt>
      <trkpt lat="42.96229798" lon="13.41708096">
        <ele>456.00000</ele>
        <time>2024-05-10T19:26:32Z</time>
      </trkpt>
      <trkpt lat="42.96221592" lon="13.41711399">
        <ele>457.00000</ele>
        <time>2024-05-10T19:26:34Z</time>
      </trkpt>
      <trkpt lat="42.96213696" lon="13.41714994">
        <ele>457.00000</ele>
        <time>2024-05-10T19:26:35Z</time>
      </trkpt>
      <trkpt lat="42.96205993" lon="13.41718398">
        <ele>458.00000</ele>
        <time>2024-05-10T19:26:37Z</time>
      </trkpt>
      <trkpt lat="42.96199095" lon="13.41721097">
        <ele>458.00000</ele>
        <time>2024-05-10T19:26:38Z</time>
      </trkpt>
      <trkpt lat="42.96192599" lon="13.41723695">
        <ele>458.00000</ele>
        <time>2024-05-10T19:26:40Z</time>
      </trkpt>
      <trkpt lat="42.96184997" lon="13.41725799">
        <ele>458.00000</ele>
        <time>2024-05-10T19:26:41Z</time>
      </trkpt>
      <trkpt lat="42.96178492" lon="13.41728297">
        <ele>458.00000</ele>
        <time>2024-05-10T19:26:43Z</time>
      </trkpt>
      <trkpt lat="42.96172399" lon="13.41731096">
        <ele>458.00000</ele>
        <time>2024-05-10T19:26:44Z</time>
      </trkpt>
      <trkpt lat="42.96166297" lon="13.41734197">
        <ele>458.00000</ele>
        <time>2024-05-10T19:26:45Z</time>
      </trkpt>
      <trkpt lat="42.96160295" lon="13.41736896">
        <ele>458.00000</ele>
        <time>2024-05-10T19:26:46Z</time>
      </trkpt>
      <trkpt lat="42.96154092" lon="13.41739595">
        <ele>458.00000</ele>
        <time>2024-05-10T19:26:48Z</time>
      </trkpt>
      <trkpt lat="42.96147898" lon="13.41742797">
        <ele>458.00000</ele>
        <time>2024-05-10T19:26:49Z</time>
      </trkpt>
      <trkpt lat="42.96141997" lon="13.41745094">
        <ele>458.00000</ele>
        <time>2024-05-10T19:26:50Z</time>
      </trkpt>
      <trkpt lat="42.96136097" lon="13.41747491">
        <ele>458.00000</ele>
        <time>2024-05-10T19:26:51Z</time>
      </trkpt>
      <trkpt lat="42.96129299" lon="13.41749595">
        <ele>458.00000</ele>
        <time>2024-05-10T19:26:53Z</time>
      </trkpt>
      <trkpt lat="42.96122392" lon="13.41751397">
        <ele>457.00000</ele>
        <time>2024-05-10T19:26:54Z</time>
      </trkpt>
      <trkpt lat="42.96115695" lon="13.41753099">
        <ele>457.00000</ele>
        <time>2024-05-10T19:26:56Z</time>
      </trkpt>
      <trkpt lat="42.96109794" lon="13.41753199">
        <ele>456.00000</ele>
        <time>2024-05-10T19:26:57Z</time>
      </trkpt>
      <trkpt lat="42.96103198" lon="13.41752596">
        <ele>456.00000</ele>
        <time>2024-05-10T19:26:58Z</time>
      </trkpt>
      <trkpt lat="42.96096492" lon="13.41752093">
        <ele>456.00000</ele>
        <time>2024-05-10T19:26:59Z</time>
      </trkpt>
      <trkpt lat="42.96089493" lon="13.41751498">
        <ele>456.00000</ele>
        <time>2024-05-10T19:27:01Z</time>
      </trkpt>
      <trkpt lat="42.96082293" lon="13.41750995">
        <ele>455.00000</ele>
        <time>2024-05-10T19:27:02Z</time>
      </trkpt>
      <trkpt lat="42.96075294" lon="13.41750198">
        <ele>455.00000</ele>
        <time>2024-05-10T19:27:04Z</time>
      </trkpt>
      <trkpt lat="42.96068698" lon="13.41749092">
        <ele>454.00000</ele>
        <time>2024-05-10T19:27:05Z</time>
      </trkpt>
      <trkpt lat="42.96061992" lon="13.41748296">
        <ele>454.00000</ele>
        <time>2024-05-10T19:27:06Z</time>
      </trkpt>
      <trkpt lat="42.96055798" lon="13.41746997">
        <ele>454.00000</ele>
        <time>2024-05-10T19:27:08Z</time>
      </trkpt>
      <trkpt lat="42.96049595" lon="13.41745295">
        <ele>453.00000</ele>
        <time>2024-05-10T19:27:09Z</time>
      </trkpt>
      <trkpt lat="42.96043292" lon="13.41743996">
        <ele>453.00000</ele>
        <time>2024-05-10T19:27:10Z</time>
      </trkpt>
      <trkpt lat="42.96036696" lon="13.41743099">
        <ele>452.00000</ele>
        <time>2024-05-10T19:27:12Z</time>
      </trkpt>
      <trkpt lat="42.96030795" lon="13.41742194">
        <ele>452.00000</ele>
        <time>2024-05-10T19:27:13Z</time>
      </trkpt>
      <trkpt lat="42.96024693" lon="13.41740593">
        <ele>451.00000</ele>
        <time>2024-05-10T19:27:14Z</time>
      </trkpt>
      <trkpt lat="42.96018792" lon="13.41737994">
        <ele>451.00000</ele>
        <time>2024-05-10T19:27:15Z</time>
      </trkpt>
      <trkpt lat="42.96013092" lon="13.41733192">
        <ele>451.00000</ele>
        <time>2024-05-10T19:27:17Z</time>
      </trkpt>
      <trkpt lat="42.96008599" lon="13.41726595">
        <ele>452.00000</ele>
        <time>2024-05-10T19:27:18Z</time>
      </trkpt>
      <trkpt lat="42.96005398" lon="13.41718196">
        <ele>452.00000</ele>
        <time>2024-05-10T19:27:19Z</time>
      </trkpt>
      <trkpt lat="42.96003495" lon="13.41709496">
        <ele>453.00000</ele>
        <time>2024-05-10T19:27:21Z</time>
      </trkpt>
      <trkpt lat="42.96001793" lon="13.41700695">
        <ele>453.00000</ele>
        <time>2024-05-10T19:27:22Z</time>
      </trkpt>
      <trkpt lat="42.95999698" lon="13.41691198">
        <ele>453.00000</ele>
        <time>2024-05-10T19:27:23Z</time>
      </trkpt>
      <trkpt lat="42.95997393" lon="13.41681794">
        <ele>453.00000</ele>
        <time>2024-05-10T19:27:25Z</time>
      </trkpt>
      <trkpt lat="42.95995197" lon="13.41672498">
        <ele>453.00000</ele>
        <time>2024-05-10T19:27:26Z</time>
      </trkpt>
      <trkpt lat="42.95993193" lon="13.41663194">
        <ele>453.00000</ele>
        <time>2024-05-10T19:27:28Z</time>
      </trkpt>
      <trkpt lat="42.95991199" lon="13.41653798">
        <ele>453.00000</ele>
        <time>2024-05-10T19:27:29Z</time>
      </trkpt>
      <trkpt lat="42.95989095" lon="13.41644293">
        <ele>454.00000</ele>
        <time>2024-05-10T19:27:31Z</time>
      </trkpt>
      <trkpt lat="42.95987091" lon="13.41634193">
        <ele>454.00000</ele>
        <time>2024-05-10T19:27:32Z</time>
      </trkpt>
      <trkpt lat="42.95985197" lon="13.41624596">
        <ele>454.00000</ele>
        <time>2024-05-10T19:27:34Z</time>
      </trkpt>
      <trkpt lat="42.95983294" lon="13.41615392">
        <ele>453.00000</ele>
        <time>2024-05-10T19:27:35Z</time>
      </trkpt>
      <trkpt lat="42.95981291" lon="13.41605795">
        <ele>453.00000</ele>
        <time>2024-05-10T19:27:36Z</time>
      </trkpt>
      <trkpt lat="42.95979196" lon="13.41596793">
        <ele>453.00000</ele>
        <time>2024-05-10T19:27:38Z</time>
      </trkpt>
      <trkpt lat="42.95976899" lon="13.41587497">
        <ele>452.00000</ele>
        <time>2024-05-10T19:27:39Z</time>
      </trkpt>
      <trkpt lat="42.95974493" lon="13.41577992">
        <ele>452.00000</ele>
        <time>2024-05-10T19:27:41Z</time>
      </trkpt>
      <trkpt lat="42.95972197" lon="13.41567791">
        <ele>451.00000</ele>
        <time>2024-05-10T19:27:42Z</time>
      </trkpt>
      <trkpt lat="42.95970194" lon="13.41557499">
        <ele>451.00000</ele>
        <time>2024-05-10T19:27:44Z</time>
      </trkpt>
      <trkpt lat="42.95968098" lon="13.41547097">
        <ele>451.00000</ele>
        <time>2024-05-10T19:27:45Z</time>
      </trkpt>
      <trkpt lat="42.95965692" lon="13.41537198">
        <ele>451.00000</ele>
        <time>2024-05-10T19:27:47Z</time>
      </trkpt>
      <trkpt lat="42.95963195" lon="13.41526594">
        <ele>451.00000</ele>
        <time>2024-05-10T19:27:49Z</time>
      </trkpt>
      <trkpt lat="42.95960295" lon="13.41515991">
        <ele>451.00000</ele>
        <time>2024-05-10T19:27:50Z</time>
      </trkpt>
      <trkpt lat="42.95957797" lon="13.41505992">
        <ele>450.00000</ele>
        <time>2024-05-10T19:27:52Z</time>
      </trkpt>
      <trkpt lat="42.95954695" lon="13.41495992">
        <ele>450.00000</ele>
        <time>2024-05-10T19:27:53Z</time>
      </trkpt>
      <trkpt lat="42.95951091" lon="13.41486093">
        <ele>449.00000</ele>
        <time>2024-05-10T19:27:55Z</time>
      </trkpt>
      <trkpt lat="42.95947697" lon="13.41475599">
        <ele>449.00000</ele>
        <time>2024-05-10T19:27:57Z</time>
      </trkpt>
      <trkpt lat="42.95944495" lon="13.41466295">
        <ele>449.00000</ele>
        <time>2024-05-10T19:27:58Z</time>
      </trkpt>
      <trkpt lat="42.95941896" lon="13.41458198">
        <ele>449.00000</ele>
        <time>2024-05-10T19:28:00Z</time>
      </trkpt>
      <trkpt lat="42.95939398" lon="13.41450897">
        <ele>449.00000</ele>
        <time>2024-05-10T19:28:01Z</time>
      </trkpt>
      <trkpt lat="42.95937697" lon="13.41443195">
        <ele>450.00000</ele>
        <time>2024-05-10T19:28:02Z</time>
      </trkpt>
      <trkpt lat="42.95936197" lon="13.41434896">
        <ele>449.00000</ele>
        <time>2024-05-10T19:28:03Z</time>
      </trkpt>
      <trkpt lat="42.95934897" lon="13.41426095">
        <ele>449.00000</ele>
        <time>2024-05-10T19:28:04Z</time>
      </trkpt>
      <trkpt lat="42.95935593" lon="13.41417294">
        <ele>450.00000</ele>
        <time>2024-05-10T19:28:06Z</time>
      </trkpt>
      <trkpt lat="42.95936792" lon="13.41409198">
        <ele>449.00000</ele>
        <time>2024-05-10T19:28:07Z</time>
      </trkpt>
      <trkpt lat="42.95936398" lon="13.41400799">
        <ele>449.00000</ele>
        <time>2024-05-10T19:28:08Z</time>
      </trkpt>
      <trkpt lat="42.95933397" lon="13.41393792">
        <ele>449.00000</ele>
        <time>2024-05-10T19:28:09Z</time>
      </trkpt>
      <trkpt lat="42.95927999" lon="13.41390497">
        <ele>448.00000</ele>
        <time>2024-05-10T19:28:11Z</time>
      </trkpt>
      <trkpt lat="42.95921998" lon="13.41390992">
        <ele>448.00000</ele>
        <time>2024-05-10T19:28:12Z</time>
      </trkpt>
      <trkpt lat="42.95916197" lon="13.41391495">
        <ele>447.00000</ele>
        <time>2024-05-10T19:28:13Z</time>
      </trkpt>
      <trkpt lat="42.95909894" lon="13.41391093">
        <ele>447.00000</ele>
        <time>2024-05-10T19:28:14Z</time>
      </trkpt>
      <trkpt lat="42.95903499" lon="13.41389399">
        <ele>447.00000</ele>
        <time>2024-05-10T19:28:16Z</time>
      </trkpt>
      <trkpt lat="42.95897992" lon="13.41388192">
        <ele>446.00000</ele>
        <time>2024-05-10T19:28:17Z</time>
      </trkpt>
      <trkpt lat="42.95892896" lon="13.41387497">
        <ele>446.00000</ele>
        <time>2024-05-10T19:28:18Z</time>
      </trkpt>
      <trkpt lat="42.95887095" lon="13.41386298">
        <ele>446.00000</ele>
        <time>2024-05-10T19:28:19Z</time>
      </trkpt>
      <trkpt lat="42.95880993" lon="13.41384798">
        <ele>447.00000</ele>
        <time>2024-05-10T19:28:20Z</time>
      </trkpt>
      <trkpt lat="42.95874891" lon="13.41383792">
        <ele>447.00000</ele>
        <time>2024-05-10T19:28:21Z</time>
      </trkpt>
      <trkpt lat="42.95868898" lon="13.41383398">
        <ele>448.00000</ele>
        <time>2024-05-10T19:28:22Z</time>
      </trkpt>
      <trkpt lat="42.95862796" lon="13.41383197">
        <ele>448.00000</ele>
        <time>2024-05-10T19:28:24Z</time>
      </trkpt>
      <trkpt lat="42.95856392" lon="13.41382694">
        <ele>449.00000</ele>
        <time>2024-05-10T19:28:25Z</time>
      </trkpt>
      <trkpt lat="42.95850098" lon="13.41382099">
        <ele>449.00000</ele>
        <time>2024-05-10T19:28:26Z</time>
      </trkpt>
      <trkpt lat="42.95843895" lon="13.41380992">
        <ele>450.00000</ele>
        <time>2024-05-10T19:28:28Z</time>
      </trkpt>
      <trkpt lat="42.95837592" lon="13.41379492">
        <ele>451.00000</ele>
        <time>2024-05-10T19:28:29Z</time>
      </trkpt>
      <trkpt lat="42.95831498" lon="13.41378595">
        <ele>451.00000</ele>
        <time>2024-05-10T19:28:30Z</time>
      </trkpt>
      <trkpt lat="42.95825497" lon="13.41378092">
        <ele>451.00000</ele>
        <time>2024-05-10T19:28:31Z</time>
      </trkpt>
      <trkpt lat="42.95819596" lon="13.41377497">
        <ele>451.00000</ele>
        <time>2024-05-10T19:28:32Z</time>
      </trkpt>
      <trkpt lat="42.95813494" lon="13.41376994">
        <ele>451.00000</ele>
        <time>2024-05-10T19:28:34Z</time>
      </trkpt>
      <trkpt lat="42.95807392" lon="13.41376592">
        <ele>451.00000</ele>
        <time>2024-05-10T19:28:35Z</time>
      </trkpt>
      <trkpt lat="42.95801298" lon="13.41375896">
        <ele>451.00000</ele>
        <time>2024-05-10T19:28:36Z</time>
      </trkpt>
      <trkpt lat="42.95795196" lon="13.41374698">
        <ele>451.00000</ele>
        <time>2024-05-10T19:28:37Z</time>
      </trkpt>
      <trkpt lat="42.95788994" lon="13.41373398">
        <ele>451.00000</ele>
        <time>2024-05-10T19:28:39Z</time>
      </trkpt>
      <trkpt lat="42.95782992" lon="13.41371898">
        <ele>452.00000</ele>
        <time>2024-05-10T19:28:40Z</time>
      </trkpt>
      <trkpt lat="42.95777292" lon="13.41370599">
        <ele>452.00000</ele>
        <time>2024-05-10T19:28:41Z</time>
      </trkpt>
      <trkpt lat="42.95772196" lon="13.41368797">
        <ele>452.00000</ele>
        <time>2024-05-10T19:28:42Z</time>
      </trkpt>
      <trkpt lat="42.95766899" lon="13.41367891">
        <ele>452.00000</ele>
        <time>2024-05-10T19:28:43Z</time>
      </trkpt>
      <trkpt lat="42.95762096" lon="13.41367891">
        <ele>452.00000</ele>
        <time>2024-05-10T19:28:44Z</time>
      </trkpt>
      <trkpt lat="42.95757293" lon="13.41368797">
        <ele>452.00000</ele>
        <time>2024-05-10T19:28:45Z</time>
      </trkpt>
      <trkpt lat="42.95752692" lon="13.41369895">
        <ele>452.00000</ele>
        <time>2024-05-10T19:28:46Z</time>
      </trkpt>
      <trkpt lat="42.95748895" lon="13.41370498">
        <ele>452.00000</ele>
        <time>2024-05-10T19:28:47Z</time>
      </trkpt>
      <trkpt lat="42.95745894" lon="13.41369694">
        <ele>452.00000</ele>
        <time>2024-05-10T19:28:47Z</time>
      </trkpt>
      <trkpt lat="42.95743597" lon="13.41369199">
        <ele>452.00000</ele>
        <time>2024-05-10T19:28:48Z</time>
      </trkpt>
      <trkpt lat="42.95742097" lon="13.41368797">
        <ele>452.00000</ele>
        <time>2024-05-10T19:28:48Z</time>
      </trkpt>
      <trkpt lat="42.95742197" lon="13.41369199">
        <ele>452.00000</ele>
        <time>2024-05-10T19:28:48Z</time>
      </trkpt>
      <trkpt lat="42.95744997" lon="13.41372694">
        <ele>452.00000</ele>
        <time>2024-05-10T19:28:49Z</time>
      </trkpt>
      <trkpt lat="42.95745592" lon="13.41376692">
        <ele>451.00000</ele>
        <time>2024-05-10T19:28:49Z</time>
      </trkpt>
      <trkpt lat="42.95744192" lon="13.41380196">
        <ele>451.00000</ele>
        <time>2024-05-10T19:28:50Z</time>
      </trkpt>
      <trkpt lat="42.95742097" lon="13.41380699">
        <ele>451.00000</ele>
        <time>2024-05-10T19:28:50Z</time>
      </trkpt>
      <trkpt lat="42.95739498" lon="13.41381395">
        <ele>451.00000</ele>
        <time>2024-05-10T19:28:51Z</time>
      </trkpt>
      <trkpt lat="42.95737495" lon="13.41382895">
        <ele>451.00000</ele>
        <time>2024-05-10T19:28:51Z</time>
      </trkpt>
      <trkpt lat="42.95734897" lon="13.41383599">
        <ele>451.00000</ele>
        <time>2024-05-10T19:28:52Z</time>
      </trkpt>
      <trkpt lat="42.95732198" lon="13.41384194">
        <ele>451.00000</ele>
        <time>2024-05-10T19:28:53Z</time>
      </trkpt>
      <trkpt lat="42.95728996" lon="13.41387195">
        <ele>451.00000</ele>
        <time>2024-05-10T19:28:53Z</time>
      </trkpt>
      <trkpt lat="42.95726398" lon="13.41391294">
        <ele>450.00000</ele>
        <time>2024-05-10T19:28:54Z</time>
      </trkpt>
      <trkpt lat="42.95724394" lon="13.41396097">
        <ele>450.00000</ele>
        <time>2024-05-10T19:28:55Z</time>
      </trkpt>
      <trkpt lat="42.95723397" lon="13.41400698">
        <ele>450.00000</ele>
        <time>2024-05-10T19:28:56Z</time>
      </trkpt>
      <trkpt lat="42.95722492" lon="13.41405794">
        <ele>450.00000</ele>
        <time>2024-05-10T19:28:56Z</time>
      </trkpt>
      <trkpt lat="42.95721394" lon="13.41411192">
        <ele>450.00000</ele>
        <time>2024-05-10T19:28:57Z</time>
      </trkpt>
      <trkpt lat="42.95720497" lon="13.41416398">
        <ele>450.00000</ele>
        <time>2024-05-10T19:28:58Z</time>
      </trkpt>
      <trkpt lat="42.95719893" lon="13.41420496">
        <ele>450.00000</ele>
        <time>2024-05-10T19:28:59Z</time>
      </trkpt>
      <trkpt lat="42.95719793" lon="13.41424696">
        <ele>450.00000</ele>
        <time>2024-05-10T19:28:59Z</time>
      </trkpt>
      <trkpt lat="42.95720195" lon="13.41429398">
        <ele>450.00000</ele>
        <time>2024-05-10T19:29:00Z</time>
      </trkpt>
      <trkpt lat="42.95721192" lon="13.41432692">
        <ele>450.00000</ele>
        <time>2024-05-10T19:29:00Z</time>
      </trkpt>
      <trkpt lat="42.95720899" lon="13.41436799">
        <ele>450.00000</ele>
        <time>2024-05-10T19:29:01Z</time>
      </trkpt>
      <trkpt lat="42.95720899" lon="13.41441392">
        <ele>450.00000</ele>
        <time>2024-05-10T19:29:02Z</time>
      </trkpt>
      <trkpt lat="42.95720899" lon="13.41444795">
        <ele>450.00000</ele>
        <time>2024-05-10T19:29:02Z</time>
      </trkpt>
      <trkpt lat="42.95721192" lon="13.41447394">
        <ele>451.00000</ele>
        <time>2024-05-10T19:29:03Z</time>
      </trkpt>
      <trkpt lat="42.95721896" lon="13.41450897">
        <ele>451.00000</ele>
        <time>2024-05-10T19:29:03Z</time>
      </trkpt>
      <trkpt lat="42.95722098" lon="13.41453999">
        <ele>451.00000</ele>
        <time>2024-05-10T19:29:04Z</time>
      </trkpt>
      <trkpt lat="42.95721896" lon="13.41457595">
        <ele>451.00000</ele>
        <time>2024-05-10T19:29:04Z</time>
      </trkpt>
      <trkpt lat="42.95722299" lon="13.41460998">
        <ele>452.00000</ele>
        <time>2024-05-10T19:29:05Z</time>
      </trkpt>
      <trkpt lat="42.95722894" lon="13.41464392">
        <ele>452.00000</ele>
        <time>2024-05-10T19:29:05Z</time>
      </trkpt>
      <trkpt lat="42.95723699" lon="13.41466798">
        <ele>452.00000</ele>
        <time>2024-05-10T19:29:06Z</time>
      </trkpt>
      <trkpt lat="42.95724696" lon="13.41470394">
        <ele>452.00000</ele>
        <time>2024-05-10T19:29:06Z</time>
      </trkpt>
      <trkpt lat="42.95726096" lon="13.41472992">
        <ele>453.00000</ele>
        <time>2024-05-10T19:29:07Z</time>
      </trkpt>
      <trkpt lat="42.95726498" lon="13.41475197">
        <ele>453.00000</ele>
        <time>2024-05-10T19:29:07Z</time>
      </trkpt>
      <trkpt lat="42.95726892" lon="13.41477896">
        <ele>453.00000</ele>
        <time>2024-05-10T19:29:07Z</time>
      </trkpt>
      <trkpt lat="42.95728292" lon="13.41479798">
        <ele>453.00000</ele>
        <time>2024-05-10T19:29:08Z</time>
      </trkpt>
      <trkpt lat="42.95729993" lon="13.41481592">
        <ele>453.00000</ele>
        <time>2024-05-10T19:29:08Z</time>
      </trkpt>
      <trkpt lat="42.95732692" lon="13.41483193">
        <ele>453.00000</ele>
        <time>2024-05-10T19:29:09Z</time>
      </trkpt>
      <trkpt lat="42.95735894" lon="13.41484593">
        <ele>453.00000</ele>
        <time>2024-05-10T19:29:09Z</time>
      </trkpt>
      <trkpt lat="42.95739297" lon="13.41485993">
        <ele>453.00000</ele>
        <time>2024-05-10T19:29:10Z</time>
      </trkpt>
      <trkpt lat="42.95747294" lon="13.41488993">
        <ele>453.00000</ele>
        <time>2024-05-10T19:29:12Z</time>
      </trkpt>
      <trkpt lat="42.95750998" lon="13.41492095">
        <ele>453.00000</ele>
        <time>2024-05-10T19:29:13Z</time>
      </trkpt>
      <trkpt lat="42.95754594" lon="13.41496294">
        <ele>453.00000</ele>
        <time>2024-05-10T19:29:14Z</time>
      </trkpt>
      <trkpt lat="42.95758098" lon="13.41499898">
        <ele>452.00000</ele>
        <time>2024-05-10T19:29:14Z</time>
      </trkpt>
      <trkpt lat="42.95761493" lon="13.41503293">
        <ele>452.00000</ele>
        <time>2024-05-10T19:29:15Z</time>
      </trkpt>
      <trkpt lat="42.95763999" lon="13.41507492">
        <ele>452.00000</ele>
        <time>2024-05-10T19:29:16Z</time>
      </trkpt>
      <trkpt lat="42.95763295" lon="13.41513091">
        <ele>452.00000</ele>
        <time>2024-05-10T19:29:17Z</time>
      </trkpt>
      <trkpt lat="42.95761199" lon="13.41521993">
        <ele>452.00000</ele>
        <time>2024-05-10T19:29:18Z</time>
      </trkpt>
      <trkpt lat="42.95758995" lon="13.41527592">
        <ele>453.00000</ele>
        <time>2024-05-10T19:29:19Z</time>
      </trkpt>
      <trkpt lat="42.95757696" lon="13.41531196">
        <ele>453.00000</ele>
        <time>2024-05-10T19:29:20Z</time>
      </trkpt>
      <trkpt lat="42.95756698" lon="13.41533794">
        <ele>453.00000</ele>
        <time>2024-05-10T19:29:20Z</time>
      </trkpt>
      <trkpt lat="42.95756296" lon="13.41536192">
        <ele>453.00000</ele>
        <time>2024-05-10T19:29:21Z</time>
      </trkpt>
      <trkpt lat="42.95757092" lon="13.41539897">
        <ele>453.00000</ele>
        <time>2024-05-10T19:29:21Z</time>
      </trkpt>
      <trkpt lat="42.95759296" lon="13.41542595">
        <ele>453.00000</ele>
        <time>2024-05-10T19:29:22Z</time>
      </trkpt>
      <trkpt lat="42.95762096" lon="13.41545898">
        <ele>453.00000</ele>
        <time>2024-05-10T19:29:23Z</time>
      </trkpt>
      <trkpt lat="42.95765399" lon="13.41549192">
        <ele>453.00000</ele>
        <time>2024-05-10T19:29:23Z</time>
      </trkpt>
      <trkpt lat="42.95769095" lon="13.41552696">
        <ele>452.00000</ele>
        <time>2024-05-10T19:29:24Z</time>
      </trkpt>
      <trkpt lat="42.95773093" lon="13.41556392">
        <ele>451.00000</ele>
        <time>2024-05-10T19:29:25Z</time>
      </trkpt>
      <trkpt lat="42.95776898" lon="13.41560994">
        <ele>451.00000</ele>
        <time>2024-05-10T19:29:26Z</time>
      </trkpt>
      <trkpt lat="42.95780796" lon="13.41565897">
        <ele>451.00000</ele>
        <time>2024-05-10T19:29:27Z</time>
      </trkpt>
      <trkpt lat="42.95784895" lon="13.41571195">
        <ele>450.00000</ele>
        <time>2024-05-10T19:29:28Z</time>
      </trkpt>
      <trkpt lat="42.95788994" lon="13.41577598">
        <ele>450.00000</ele>
        <time>2024-05-10T19:29:30Z</time>
      </trkpt>
      <trkpt lat="42.95792497" lon="13.41584597">
        <ele>449.00000</ele>
        <time>2024-05-10T19:29:31Z</time>
      </trkpt>
      <trkpt lat="42.95794995" lon="13.41592594">
        <ele>448.00000</ele>
        <time>2024-05-10T19:29:32Z</time>
      </trkpt>
      <trkpt lat="42.95797099" lon="13.41602291">
        <ele>447.00000</ele>
        <time>2024-05-10T19:29:34Z</time>
      </trkpt>
      <trkpt lat="42.95799094" lon="13.41610891">
        <ele>446.00000</ele>
        <time>2024-05-10T19:29:35Z</time>
      </trkpt>
      <trkpt lat="42.95801298" lon="13.41619592">
        <ele>446.00000</ele>
        <time>2024-05-10T19:29:36Z</time>
      </trkpt>
      <trkpt lat="42.95803293" lon="13.41628191">
        <ele>446.00000</ele>
        <time>2024-05-10T19:29:38Z</time>
      </trkpt>
      <trkpt lat="42.95805296" lon="13.41636791">
        <ele>445.00000</ele>
        <time>2024-05-10T19:29:39Z</time>
      </trkpt>
      <trkpt lat="42.95807199" lon="13.41644997">
        <ele>446.00000</ele>
        <time>2024-05-10T19:29:40Z</time>
      </trkpt>
      <trkpt lat="42.95809496" lon="13.41653195">
        <ele>448.00000</ele>
        <time>2024-05-10T19:29:42Z</time>
      </trkpt>
      <trkpt lat="42.95811792" lon="13.41661593">
        <ele>449.00000</ele>
        <time>2024-05-10T19:29:43Z</time>
      </trkpt>
      <trkpt lat="42.95814399" lon="13.41669799">
        <ele>450.00000</ele>
        <time>2024-05-10T19:29:44Z</time>
      </trkpt>
      <trkpt lat="42.95817199" lon="13.41677796">
        <ele>451.00000</ele>
        <time>2024-05-10T19:29:45Z</time>
      </trkpt>
      <trkpt lat="42.95820099" lon="13.41686798">
        <ele>452.00000</ele>
        <time>2024-05-10T19:29:47Z</time>
      </trkpt>
      <trkpt lat="42.95823091" lon="13.41696093">
        <ele>453.00000</ele>
        <time>2024-05-10T19:29:48Z</time>
      </trkpt>
      <trkpt lat="42.95826595" lon="13.41704894">
        <ele>452.00000</ele>
        <time>2024-05-10T19:29:50Z</time>
      </trkpt>
      <trkpt lat="42.95830098" lon="13.41713695">
        <ele>452.00000</ele>
        <time>2024-05-10T19:29:51Z</time>
      </trkpt>
      <trkpt lat="42.95833996" lon="13.41722798">
        <ele>451.00000</ele>
        <time>2024-05-10T19:29:53Z</time>
      </trkpt>
      <trkpt lat="42.95837793" lon="13.41731498">
        <ele>451.00000</ele>
        <time>2024-05-10T19:29:54Z</time>
      </trkpt>
      <trkpt lat="42.95841095" lon="13.41740299">
        <ele>451.00000</ele>
        <time>2024-05-10T19:29:56Z</time>
      </trkpt>
      <trkpt lat="42.95844792" lon="13.41749293">
        <ele>450.00000</ele>
        <time>2024-05-10T19:29:57Z</time>
      </trkpt>
      <trkpt lat="42.95848195" lon="13.41758195">
        <ele>449.00000</ele>
        <time>2024-05-10T19:29:59Z</time>
      </trkpt>
      <trkpt lat="42.95851799" lon="13.41767792">
        <ele>447.00000</ele>
        <time>2024-05-10T19:30:00Z</time>
      </trkpt>
      <trkpt lat="42.95854892" lon="13.41776895">
        <ele>446.00000</ele>
        <time>2024-05-10T19:30:02Z</time>
      </trkpt>
      <trkpt lat="42.95857398" lon="13.41786593">
        <ele>446.00000</ele>
        <time>2024-05-10T19:30:03Z</time>
      </trkpt>
      <trkpt lat="42.95859091" lon="13.41796299">
        <ele>446.00000</ele>
        <time>2024-05-10T19:30:05Z</time>
      </trkpt>
      <trkpt lat="42.95860198" lon="13.41804999">
        <ele>447.00000</ele>
        <time>2024-05-10T19:30:06Z</time>
      </trkpt>
      <trkpt lat="42.95861698" lon="13.41813893">
        <ele>447.00000</ele>
        <time>2024-05-10T19:30:07Z</time>
      </trkpt>
      <trkpt lat="42.95863299" lon="13.41823297">
        <ele>448.00000</ele>
        <time>2024-05-10T19:30:09Z</time>
      </trkpt>
      <trkpt lat="42.95864992" lon="13.41832391">
        <ele>449.00000</ele>
        <time>2024-05-10T19:30:10Z</time>
      </trkpt>
      <trkpt lat="42.95867197" lon="13.41841293">
        <ele>449.00000</ele>
        <time>2024-05-10T19:30:12Z</time>
      </trkpt>
      <trkpt lat="42.95869795" lon="13.41848996">
        <ele>450.00000</ele>
        <time>2024-05-10T19:30:13Z</time>
      </trkpt>
      <trkpt lat="42.95872796" lon="13.41856397">
        <ele>450.00000</ele>
        <time>2024-05-10T19:30:14Z</time>
      </trkpt>
      <trkpt lat="42.95876199" lon="13.41863698">
        <ele>449.00000</ele>
        <time>2024-05-10T19:30:15Z</time>
      </trkpt>
      <trkpt lat="42.95879099" lon="13.41870496">
        <ele>449.00000</ele>
        <time>2024-05-10T19:30:17Z</time>
      </trkpt>
      <trkpt lat="42.95882091" lon="13.41876992">
        <ele>449.00000</ele>
        <time>2024-05-10T19:30:18Z</time>
      </trkpt>
      <trkpt lat="42.95885092" lon="13.41882993">
        <ele>448.00000</ele>
        <time>2024-05-10T19:30:19Z</time>
      </trkpt>
      <trkpt lat="42.95888093" lon="13.41890092">
        <ele>448.00000</ele>
        <time>2024-05-10T19:30:20Z</time>
      </trkpt>
      <trkpt lat="42.95890792" lon="13.41897292">
        <ele>449.00000</ele>
        <time>2024-05-10T19:30:21Z</time>
      </trkpt>
      <trkpt lat="42.95893399" lon="13.41903797">
        <ele>449.00000</ele>
        <time>2024-05-10T19:30:22Z</time>
      </trkpt>
      <trkpt lat="42.95895796" lon="13.41910896">
        <ele>450.00000</ele>
        <time>2024-05-10T19:30:23Z</time>
      </trkpt>
      <trkpt lat="42.95897698" lon="13.41917996">
        <ele>450.00000</ele>
        <time>2024-05-10T19:30:24Z</time>
      </trkpt>
      <trkpt lat="42.95898897" lon="13.41924693">
        <ele>451.00000</ele>
        <time>2024-05-10T19:30:25Z</time>
      </trkpt>
      <trkpt lat="42.95899492" lon="13.41931197">
        <ele>451.00000</ele>
        <time>2024-05-10T19:30:26Z</time>
      </trkpt>
      <trkpt lat="42.95899492" lon="13.41937392">
        <ele>452.00000</ele>
        <time>2024-05-10T19:30:27Z</time>
      </trkpt>
      <trkpt lat="42.95899693" lon="13.41944097">
        <ele>453.00000</ele>
        <time>2024-05-10T19:30:28Z</time>
      </trkpt>
      <trkpt lat="42.95899492" lon="13.41950895">
        <ele>453.00000</ele>
        <time>2024-05-10T19:30:29Z</time>
      </trkpt>
      <trkpt lat="42.95898796" lon="13.41957491">
        <ele>453.00000</ele>
        <time>2024-05-10T19:30:30Z</time>
      </trkpt>
      <trkpt lat="42.95898294" lon="13.41963694">
        <ele>454.00000</ele>
        <time>2024-05-10T19:30:31Z</time>
      </trkpt>
      <trkpt lat="42.95897992" lon="13.41969394">
        <ele>454.00000</ele>
        <time>2024-05-10T19:30:32Z</time>
      </trkpt>
      <trkpt lat="42.95898294" lon="13.41976191">
        <ele>454.00000</ele>
        <time>2024-05-10T19:30:33Z</time>
      </trkpt>
      <trkpt lat="42.95898394" lon="13.41982595">
        <ele>454.00000</ele>
        <time>2024-05-10T19:30:34Z</time>
      </trkpt>
      <trkpt lat="42.95898495" lon="13.41987599">
        <ele>454.00000</ele>
        <time>2024-05-10T19:30:35Z</time>
      </trkpt>
      <trkpt lat="42.95897992" lon="13.41992494">
        <ele>454.00000</ele>
        <time>2024-05-10T19:30:35Z</time>
      </trkpt>
      <trkpt lat="42.95897891" lon="13.41997599">
        <ele>454.00000</ele>
        <time>2024-05-10T19:30:36Z</time>
      </trkpt>
      <trkpt lat="42.95898092" lon="13.42002293">
        <ele>454.00000</ele>
        <time>2024-05-10T19:30:37Z</time>
      </trkpt>
      <trkpt lat="42.95898294" lon="13.42007297">
        <ele>454.00000</ele>
        <time>2024-05-10T19:30:38Z</time>
      </trkpt>
      <trkpt lat="42.95898193" lon="13.42012099">
        <ele>455.00000</ele>
        <time>2024-05-10T19:30:38Z</time>
      </trkpt>
      <trkpt lat="42.95898092" lon="13.42016894">
        <ele>455.00000</ele>
        <time>2024-05-10T19:30:39Z</time>
      </trkpt>
      <trkpt lat="42.95898193" lon="13.42021697">
        <ele>455.00000</ele>
        <time>2024-05-10T19:30:40Z</time>
      </trkpt>
      <trkpt lat="42.95898294" lon="13.42026692">
        <ele>456.00000</ele>
        <time>2024-05-10T19:30:40Z</time>
      </trkpt>
      <trkpt lat="42.95898394" lon="13.42031294">
        <ele>456.00000</ele>
        <time>2024-05-10T19:30:41Z</time>
      </trkpt>
      <trkpt lat="42.95898495" lon="13.42035393">
        <ele>456.00000</ele>
        <time>2024-05-10T19:30:42Z</time>
      </trkpt>
      <trkpt lat="42.95898696" lon="13.42040095">
        <ele>456.00000</ele>
        <time>2024-05-10T19:30:42Z</time>
      </trkpt>
      <trkpt lat="42.95898897" lon="13.42044495">
        <ele>457.00000</ele>
        <time>2024-05-10T19:30:43Z</time>
      </trkpt>
      <trkpt lat="42.95898897" lon="13.42048997">
        <ele>457.00000</ele>
        <time>2024-05-10T19:30:44Z</time>
      </trkpt>
      <trkpt lat="42.95898796" lon="13.42053892">
        <ele>457.00000</ele>
        <time>2024-05-10T19:30:44Z</time>
      </trkpt>
      <trkpt lat="42.95898394" lon="13.42058493">
        <ele>458.00000</ele>
        <time>2024-05-10T19:30:45Z</time>
      </trkpt>
      <trkpt lat="42.95898092" lon="13.42062894">
        <ele>458.00000</ele>
        <time>2024-05-10T19:30:46Z</time>
      </trkpt>
      <trkpt lat="42.95897891" lon="13.42067395">
        <ele>458.00000</ele>
        <time>2024-05-10T19:30:46Z</time>
      </trkpt>
      <trkpt lat="42.95897497" lon="13.42071997">
        <ele>458.00000</ele>
        <time>2024-05-10T19:30:47Z</time>
      </trkpt>
      <trkpt lat="42.95896894" lon="13.42076598">
        <ele>458.00000</ele>
        <time>2024-05-10T19:30:48Z</time>
      </trkpt>
      <trkpt lat="42.95895695" lon="13.42080798">
        <ele>459.00000</ele>
        <time>2024-05-10T19:30:49Z</time>
      </trkpt>
      <trkpt lat="42.95895192" lon="13.42085693">
        <ele>459.00000</ele>
        <time>2024-05-10T19:30:49Z</time>
      </trkpt>
      <trkpt lat="42.95894295" lon="13.42090093">
        <ele>459.00000</ele>
        <time>2024-05-10T19:30:50Z</time>
      </trkpt>
      <trkpt lat="42.95893197" lon="13.42094594">
        <ele>459.00000</ele>
        <time>2024-05-10T19:30:51Z</time>
      </trkpt>
      <trkpt lat="42.95892099" lon="13.42098995">
        <ele>460.00000</ele>
        <time>2024-05-10T19:30:51Z</time>
      </trkpt>
      <trkpt lat="42.95890892" lon="13.42103596">
        <ele>460.00000</ele>
        <time>2024-05-10T19:30:52Z</time>
      </trkpt>
      <trkpt lat="42.95889493" lon="13.42107997">
        <ele>460.00000</ele>
        <time>2024-05-10T19:30:53Z</time>
      </trkpt>
      <trkpt lat="42.95887892" lon="13.42113093">
        <ele>461.00000</ele>
        <time>2024-05-10T19:30:54Z</time>
      </trkpt>
      <trkpt lat="42.95886794" lon="13.42117393">
        <ele>461.00000</ele>
        <time>2024-05-10T19:30:54Z</time>
      </trkpt>
      <trkpt lat="42.95885494" lon="13.42121793">
        <ele>460.00000</ele>
        <time>2024-05-10T19:30:55Z</time>
      </trkpt>
      <trkpt lat="42.95884296" lon="13.42125892">
        <ele>460.00000</ele>
        <time>2024-05-10T19:30:56Z</time>
      </trkpt>
      <trkpt lat="42.95883097" lon="13.42129999">
        <ele>460.00000</ele>
        <time>2024-05-10T19:30:56Z</time>
      </trkpt>
      <trkpt lat="42.95881597" lon="13.42134492">
        <ele>460.00000</ele>
        <time>2024-05-10T19:30:57Z</time>
      </trkpt>
      <trkpt lat="42.95880197" lon="13.42139094">
        <ele>460.00000</ele>
        <time>2024-05-10T19:30:58Z</time>
      </trkpt>
      <trkpt lat="42.95879099" lon="13.42143595">
        <ele>460.00000</ele>
        <time>2024-05-10T19:30:58Z</time>
      </trkpt>
      <trkpt lat="42.95878194" lon="13.42147794">
        <ele>460.00000</ele>
        <time>2024-05-10T19:30:59Z</time>
      </trkpt>
      <trkpt lat="42.95876995" lon="13.42152195">
        <ele>460.00000</ele>
        <time>2024-05-10T19:31:00Z</time>
      </trkpt>
      <trkpt lat="42.95875595" lon="13.42156696">
        <ele>460.00000</ele>
        <time>2024-05-10T19:31:00Z</time>
      </trkpt>
      <trkpt lat="42.95874397" lon="13.42161197">
        <ele>460.00000</ele>
        <time>2024-05-10T19:31:01Z</time>
      </trkpt>
      <trkpt lat="42.95873492" lon="13.42165195">
        <ele>460.00000</ele>
        <time>2024-05-10T19:31:02Z</time>
      </trkpt>
      <trkpt lat="42.95872293" lon="13.42169193">
        <ele>460.00000</ele>
        <time>2024-05-10T19:31:02Z</time>
      </trkpt>
      <trkpt lat="42.95871094" lon="13.42173392">
        <ele>460.00000</ele>
        <time>2024-05-10T19:31:03Z</time>
      </trkpt>
      <trkpt lat="42.95869896" lon="13.42177298">
        <ele>460.00000</ele>
        <time>2024-05-10T19:31:04Z</time>
      </trkpt>
      <trkpt lat="42.95868798" lon="13.42181095">
        <ele>460.00000</ele>
        <time>2024-05-10T19:31:04Z</time>
      </trkpt>
      <trkpt lat="42.95868094" lon="13.42185194">
        <ele>460.00000</ele>
        <time>2024-05-10T19:31:05Z</time>
      </trkpt>
      <trkpt lat="42.95867197" lon="13.42189092">
        <ele>460.00000</ele>
        <time>2024-05-10T19:31:05Z</time>
      </trkpt>
      <trkpt lat="42.95866199" lon="13.42192595">
        <ele>460.00000</ele>
        <time>2024-05-10T19:31:06Z</time>
      </trkpt>
      <trkpt lat="42.95864799" lon="13.42196292">
        <ele>460.00000</ele>
        <time>2024-05-10T19:31:07Z</time>
      </trkpt>
      <trkpt lat="42.95863391" lon="13.42200793">
        <ele>460.00000</ele>
        <time>2024-05-10T19:31:07Z</time>
      </trkpt>
      <trkpt lat="42.95862193" lon="13.42204992">
        <ele>460.00000</ele>
        <time>2024-05-10T19:31:08Z</time>
      </trkpt>
      <trkpt lat="42.95861095" lon="13.42208697">
        <ele>460.00000</ele>
        <time>2024-05-10T19:31:09Z</time>
      </trkpt>
      <trkpt lat="42.95859997" lon="13.42212595">
        <ele>461.00000</ele>
        <time>2024-05-10T19:31:09Z</time>
      </trkpt>
      <trkpt lat="42.95858798" lon="13.42216894">
        <ele>460.00000</ele>
        <time>2024-05-10T19:31:10Z</time>
      </trkpt>
      <trkpt lat="42.95857499" lon="13.42220993">
        <ele>460.00000</ele>
        <time>2024-05-10T19:31:10Z</time>
      </trkpt>
      <trkpt lat="42.95856392" lon="13.42224991">
        <ele>461.00000</ele>
        <time>2024-05-10T19:31:11Z</time>
      </trkpt>
      <trkpt lat="42.95855194" lon="13.42229099">
        <ele>461.00000</ele>
        <time>2024-05-10T19:31:12Z</time>
      </trkpt>
      <trkpt lat="42.95854196" lon="13.42232996">
        <ele>461.00000</ele>
        <time>2024-05-10T19:31:12Z</time>
      </trkpt>
      <trkpt lat="42.95852897" lon="13.42237497">
        <ele>461.00000</ele>
        <time>2024-05-10T19:31:13Z</time>
      </trkpt>
      <trkpt lat="42.95851799" lon="13.42241697">
        <ele>461.00000</ele>
        <time>2024-05-10T19:31:14Z</time>
      </trkpt>
      <trkpt lat="42.95850894" lon="13.42245996">
        <ele>461.00000</ele>
        <time>2024-05-10T19:31:14Z</time>
      </trkpt>
      <trkpt lat="42.95850198" lon="13.42249793">
        <ele>461.00000</ele>
        <time>2024-05-10T19:31:15Z</time>
      </trkpt>
      <trkpt lat="42.95849494" lon="13.42254295">
        <ele>461.00000</ele>
        <time>2024-05-10T19:31:16Z</time>
      </trkpt>
      <trkpt lat="42.95848798" lon="13.42258192">
        <ele>462.00000</ele>
        <time>2024-05-10T19:31:16Z</time>
      </trkpt>
      <trkpt lat="42.95847994" lon="13.42262391">
        <ele>462.00000</ele>
        <time>2024-05-10T19:31:17Z</time>
      </trkpt>
      <trkpt lat="42.95847197" lon="13.42266792">
        <ele>462.00000</ele>
        <time>2024-05-10T19:31:18Z</time>
      </trkpt>
      <trkpt lat="42.95846493" lon="13.42270798">
        <ele>463.00000</ele>
        <time>2024-05-10T19:31:18Z</time>
      </trkpt>
      <trkpt lat="42.95845798" lon="13.42274998">
        <ele>463.00000</ele>
        <time>2024-05-10T19:31:19Z</time>
      </trkpt>
      <trkpt lat="42.95844499" lon="13.42279097">
        <ele>463.00000</ele>
        <time>2024-05-10T19:31:19Z</time>
      </trkpt>
      <trkpt lat="42.95842898" lon="13.42282994">
        <ele>464.00000</ele>
        <time>2024-05-10T19:31:20Z</time>
      </trkpt>
      <trkpt lat="42.95841297" lon="13.42287294">
        <ele>465.00000</ele>
        <time>2024-05-10T19:31:21Z</time>
      </trkpt>
      <trkpt lat="42.95840098" lon="13.42291292">
        <ele>465.00000</ele>
        <time>2024-05-10T19:31:21Z</time>
      </trkpt>
      <trkpt lat="42.95839193" lon="13.42295793">
        <ele>466.00000</ele>
        <time>2024-05-10T19:31:22Z</time>
      </trkpt>
      <trkpt lat="42.95837994" lon="13.42299993">
        <ele>467.00000</ele>
        <time>2024-05-10T19:31:23Z</time>
      </trkpt>
      <trkpt lat="42.95836695" lon="13.42303496">
        <ele>467.00000</ele>
        <time>2024-05-10T19:31:23Z</time>
      </trkpt>
      <trkpt lat="42.95835195" lon="13.42307394">
        <ele>468.00000</ele>
        <time>2024-05-10T19:31:24Z</time>
      </trkpt>
      <trkpt lat="42.95834197" lon="13.42311099">
        <ele>469.00000</ele>
        <time>2024-05-10T19:31:25Z</time>
      </trkpt>
      <trkpt lat="42.95833191" lon="13.42314996">
        <ele>469.00000</ele>
        <time>2024-05-10T19:31:25Z</time>
      </trkpt>
      <trkpt lat="42.95832194" lon="13.42318592">
        <ele>470.00000</ele>
        <time>2024-05-10T19:31:26Z</time>
      </trkpt>
      <trkpt lat="42.95830995" lon="13.42322699">
        <ele>471.00000</ele>
        <time>2024-05-10T19:31:26Z</time>
      </trkpt>
      <trkpt lat="42.95829897" lon="13.42326999">
        <ele>472.00000</ele>
        <time>2024-05-10T19:31:27Z</time>
      </trkpt>
      <trkpt lat="42.95828992" lon="13.42330796">
        <ele>473.00000</ele>
        <time>2024-05-10T19:31:28Z</time>
      </trkpt>
      <trkpt lat="42.95827793" lon="13.42334694">
        <ele>474.00000</ele>
        <time>2024-05-10T19:31:28Z</time>
      </trkpt>
      <trkpt lat="42.95826293" lon="13.42338097">
        <ele>475.00000</ele>
        <time>2024-05-10T19:31:29Z</time>
      </trkpt>
      <trkpt lat="42.95825195" lon="13.42342095">
        <ele>475.00000</ele>
        <time>2024-05-10T19:31:29Z</time>
      </trkpt>
      <trkpt lat="42.95824298" lon="13.42345699">
        <ele>475.00000</ele>
        <time>2024-05-10T19:31:30Z</time>
      </trkpt>
      <trkpt lat="42.95823493" lon="13.42349597">
        <ele>475.00000</ele>
        <time>2024-05-10T19:31:31Z</time>
      </trkpt>
      <trkpt lat="42.95822697" lon="13.42353394">
        <ele>476.00000</ele>
        <time>2024-05-10T19:31:31Z</time>
      </trkpt>
      <trkpt lat="42.95821792" lon="13.42356998">
        <ele>476.00000</ele>
        <time>2024-05-10T19:31:32Z</time>
      </trkpt>
      <trkpt lat="42.95820694" lon="13.42360896">
        <ele>476.00000</ele>
        <time>2024-05-10T19:31:32Z</time>
      </trkpt>
      <trkpt lat="42.95819596" lon="13.42364592">
        <ele>476.00000</ele>
        <time>2024-05-10T19:31:33Z</time>
      </trkpt>
      <trkpt lat="42.95818598" lon="13.42367995">
        <ele>476.00000</ele>
        <time>2024-05-10T19:31:34Z</time>
      </trkpt>
      <trkpt lat="42.95817693" lon="13.42371197">
        <ele>476.00000</ele>
        <time>2024-05-10T19:31:34Z</time>
      </trkpt>
      <trkpt lat="42.95816394" lon="13.42374399">
        <ele>476.00000</ele>
        <time>2024-05-10T19:31:35Z</time>
      </trkpt>
      <trkpt lat="42.95815397" lon="13.42377693">
        <ele>476.00000</ele>
        <time>2024-05-10T19:31:35Z</time>
      </trkpt>
      <trkpt lat="42.95814198" lon="13.42381096">
        <ele>475.00000</ele>
        <time>2024-05-10T19:31:36Z</time>
      </trkpt>
      <trkpt lat="42.95812999" lon="13.42384591">
        <ele>475.00000</ele>
        <time>2024-05-10T19:31:36Z</time>
      </trkpt>
      <trkpt lat="42.95811994" lon="13.42387399">
        <ele>475.00000</ele>
        <time>2024-05-10T19:31:37Z</time>
      </trkpt>
      <trkpt lat="42.95810694" lon="13.42390199">
        <ele>474.00000</ele>
        <time>2024-05-10T19:31:37Z</time>
      </trkpt>
      <trkpt lat="42.95809395" lon="13.42393199">
        <ele>474.00000</ele>
        <time>2024-05-10T19:31:38Z</time>
      </trkpt>
      <trkpt lat="42.95807995" lon="13.42396292">
        <ele>474.00000</ele>
        <time>2024-05-10T19:31:38Z</time>
      </trkpt>
      <trkpt lat="42.95806193" lon="13.42399092">
        <ele>474.00000</ele>
        <time>2024-05-10T19:31:39Z</time>
      </trkpt>
      <trkpt lat="42.95804592" lon="13.42401196">
        <ele>475.00000</ele>
        <time>2024-05-10T19:31:39Z</time>
      </trkpt>
      <trkpt lat="42.95802698" lon="13.42403593">
        <ele>475.00000</ele>
        <time>2024-05-10T19:31:40Z</time>
      </trkpt>
      <trkpt lat="42.95800896" lon="13.42405697">
        <ele>475.00000</ele>
        <time>2024-05-10T19:31:40Z</time>
      </trkpt>
      <trkpt lat="42.95798993" lon="13.42407692">
        <ele>476.00000</ele>
        <time>2024-05-10T19:31:41Z</time>
      </trkpt>
      <trkpt lat="42.95796797" lon="13.42409997">
        <ele>476.00000</ele>
        <time>2024-05-10T19:31:41Z</time>
      </trkpt>
      <trkpt lat="42.95794894" lon="13.42412092">
        <ele>477.00000</ele>
        <time>2024-05-10T19:31:42Z</time>
      </trkpt>
      <trkpt lat="42.95792296" lon="13.42414196">
        <ele>477.00000</ele>
        <time>2024-05-10T19:31:42Z</time>
      </trkpt>
      <trkpt lat="42.95789899" lon="13.42415797">
        <ele>478.00000</ele>
        <time>2024-05-10T19:31:43Z</time>
      </trkpt>
      <trkpt lat="42.95787594" lon="13.42417599">
        <ele>479.00000</ele>
        <time>2024-05-10T19:31:43Z</time>
      </trkpt>
      <trkpt lat="42.95785498" lon="13.42419695">
        <ele>479.00000</ele>
        <time>2024-05-10T19:31:44Z</time>
      </trkpt>
      <trkpt lat="42.95783696" lon="13.42421296">
        <ele>480.00000</ele>
        <time>2024-05-10T19:31:44Z</time>
      </trkpt>
      <trkpt lat="42.95781198" lon="13.42422896">
        <ele>480.00000</ele>
        <time>2024-05-10T19:31:45Z</time>
      </trkpt>
      <trkpt lat="42.95778893" lon="13.42424397">
        <ele>481.00000</ele>
        <time>2024-05-10T19:31:45Z</time>
      </trkpt>
      <trkpt lat="42.95776396" lon="13.42425394">
        <ele>481.00000</ele>
        <time>2024-05-10T19:31:46Z</time>
      </trkpt>
      <trkpt lat="42.95773395" lon="13.42426392">
        <ele>482.00000</ele>
        <time>2024-05-10T19:31:46Z</time>
      </trkpt>
      <trkpt lat="42.95770796" lon="13.42426291">
        <ele>482.00000</ele>
        <time>2024-05-10T19:31:47Z</time>
      </trkpt>
      <trkpt lat="42.95768399" lon="13.42425797">
        <ele>483.00000</ele>
        <time>2024-05-10T19:31:47Z</time>
      </trkpt>
      <trkpt lat="42.95765994" lon="13.42425193">
        <ele>483.00000</ele>
        <time>2024-05-10T19:31:48Z</time>
      </trkpt>
      <trkpt lat="42.95763194" lon="13.42423894">
        <ele>484.00000</ele>
        <time>2024-05-10T19:31:49Z</time>
      </trkpt>
      <trkpt lat="42.95760395" lon="13.42423098">
        <ele>485.00000</ele>
        <time>2024-05-10T19:31:49Z</time>
      </trkpt>
      <trkpt lat="42.95757796" lon="13.42422192">
        <ele>485.00000</ele>
        <time>2024-05-10T19:31:50Z</time>
      </trkpt>
      <trkpt lat="42.95755298" lon="13.42421195">
        <ele>486.00000</ele>
        <time>2024-05-10T19:31:50Z</time>
      </trkpt>
      <trkpt lat="42.95753094" lon="13.42419292">
        <ele>486.00000</ele>
        <time>2024-05-10T19:31:51Z</time>
      </trkpt>
      <trkpt lat="42.95750898" lon="13.42417599">
        <ele>487.00000</ele>
        <time>2024-05-10T19:31:51Z</time>
      </trkpt>
      <trkpt lat="42.95748693" lon="13.42416099">
        <ele>488.00000</ele>
        <time>2024-05-10T19:31:52Z</time>
      </trkpt>
      <trkpt lat="42.95746296" lon="13.42414791">
        <ele>488.00000</ele>
        <time>2024-05-10T19:31:52Z</time>
      </trkpt>
      <trkpt lat="42.95744092" lon="13.42413299">
        <ele>488.00000</ele>
        <time>2024-05-10T19:31:53Z</time>
      </trkpt>
      <trkpt lat="42.95742399" lon="13.42411095">
        <ele>489.00000</ele>
        <time>2024-05-10T19:31:53Z</time>
      </trkpt>
      <trkpt lat="42.95740395" lon="13.42408798">
        <ele>489.00000</ele>
        <time>2024-05-10T19:31:54Z</time>
      </trkpt>
      <trkpt lat="42.95738199" lon="13.42407097">
        <ele>490.00000</ele>
        <time>2024-05-10T19:31:54Z</time>
      </trkpt>
      <trkpt lat="42.95736397" lon="13.42405194">
        <ele>490.00000</ele>
        <time>2024-05-10T19:31:55Z</time>
      </trkpt>
      <trkpt lat="42.95734394" lon="13.42403199">
        <ele>490.00000</ele>
        <time>2024-05-10T19:31:55Z</time>
      </trkpt>
      <trkpt lat="42.95732399" lon="13.42401992">
        <ele>491.00000</ele>
        <time>2024-05-10T19:31:56Z</time>
      </trkpt>
      <trkpt lat="42.95730597" lon="13.42400592">
        <ele>491.00000</ele>
        <time>2024-05-10T19:31:56Z</time>
      </trkpt>
      <trkpt lat="42.95728392" lon="13.42398597">
        <ele>491.00000</ele>
        <time>2024-05-10T19:31:57Z</time>
      </trkpt>
      <trkpt lat="42.95726599" lon="13.42396594">
        <ele>492.00000</ele>
        <time>2024-05-10T19:31:57Z</time>
      </trkpt>
      <trkpt lat="42.95724797" lon="13.42395194">
        <ele>492.00000</ele>
        <time>2024-05-10T19:31:57Z</time>
      </trkpt>
      <trkpt lat="42.95722492" lon="13.42393099">
        <ele>492.00000</ele>
        <time>2024-05-10T19:31:58Z</time>
      </trkpt>
      <trkpt lat="42.95720094" lon="13.42390894">
        <ele>493.00000</ele>
        <time>2024-05-10T19:31:59Z</time>
      </trkpt>
      <trkpt lat="42.95718192" lon="13.42388397">
        <ele>493.00000</ele>
        <time>2024-05-10T19:31:59Z</time>
      </trkpt>
      <trkpt lat="42.95716297" lon="13.42386092">
        <ele>494.00000</ele>
        <time>2024-05-10T19:32:00Z</time>
      </trkpt>
      <trkpt lat="42.95714294" lon="13.42383099">
        <ele>494.00000</ele>
        <time>2024-05-10T19:32:00Z</time>
      </trkpt>
      <trkpt lat="42.95712693" lon="13.42379696">
        <ele>495.00000</ele>
        <time>2024-05-10T19:32:01Z</time>
      </trkpt>
      <trkpt lat="42.95711293" lon="13.42376293">
        <ele>495.00000</ele>
        <time>2024-05-10T19:32:01Z</time>
      </trkpt>
      <trkpt lat="42.95709793" lon="13.42372697">
        <ele>496.00000</ele>
        <time>2024-05-10T19:32:02Z</time>
      </trkpt>
      <trkpt lat="42.95707798" lon="13.42370099">
        <ele>496.00000</ele>
        <time>2024-05-10T19:32:03Z</time>
      </trkpt>
      <trkpt lat="42.95705694" lon="13.42367693">
        <ele>497.00000</ele>
        <time>2024-05-10T19:32:03Z</time>
      </trkpt>
      <trkpt lat="42.95703699" lon="13.42365296">
        <ele>497.00000</ele>
        <time>2024-05-10T19:32:04Z</time>
      </trkpt>
      <trkpt lat="42.95701595" lon="13.42362798">
        <ele>498.00000</ele>
        <time>2024-05-10T19:32:04Z</time>
      </trkpt>
      <trkpt lat="42.95699492" lon="13.42360099">
        <ele>498.00000</ele>
        <time>2024-05-10T19:32:05Z</time>
      </trkpt>
      <trkpt lat="42.95697698" lon="13.42358096">
        <ele>499.00000</ele>
        <time>2024-05-10T19:32:05Z</time>
      </trkpt>
      <trkpt lat="42.95695795" lon="13.42356093">
        <ele>500.00000</ele>
        <time>2024-05-10T19:32:06Z</time>
      </trkpt>
      <trkpt lat="42.95694094" lon="13.42354391">
        <ele>500.00000</ele>
        <time>2024-05-10T19:32:06Z</time>
      </trkpt>
      <trkpt lat="42.95692493" lon="13.42352497">
        <ele>501.00000</ele>
        <time>2024-05-10T19:32:07Z</time>
      </trkpt>
      <trkpt lat="42.95690598" lon="13.42350192">
        <ele>502.00000</ele>
        <time>2024-05-10T19:32:07Z</time>
      </trkpt>
      <trkpt lat="42.95688595" lon="13.42347392">
        <ele>503.00000</ele>
        <time>2024-05-10T19:32:08Z</time>
      </trkpt>
      <trkpt lat="42.95686399" lon="13.42344995">
        <ele>503.00000</ele>
        <time>2024-05-10T19:32:08Z</time>
      </trkpt>
      <trkpt lat="42.95684094" lon="13.42342698">
        <ele>504.00000</ele>
        <time>2024-05-10T19:32:09Z</time>
      </trkpt>
      <trkpt lat="42.95682099" lon="13.42340796">
        <ele>504.00000</ele>
        <time>2024-05-10T19:32:09Z</time>
      </trkpt>
      <trkpt lat="42.95679794" lon="13.42338591">
        <ele>505.00000</ele>
        <time>2024-05-10T19:32:10Z</time>
      </trkpt>
      <trkpt lat="42.95677497" lon="13.42336194">
        <ele>505.00000</ele>
        <time>2024-05-10T19:32:10Z</time>
      </trkpt>
      <trkpt lat="42.95675394" lon="13.42334099">
        <ele>505.00000</ele>
        <time>2024-05-10T19:32:11Z</time>
      </trkpt>
      <trkpt lat="42.95673298" lon="13.42331894">
        <ele>506.00000</ele>
        <time>2024-05-10T19:32:11Z</time>
      </trkpt>
      <trkpt lat="42.95671395" lon="13.42329396">
        <ele>506.00000</ele>
        <time>2024-05-10T19:32:12Z</time>
      </trkpt>
      <trkpt lat="42.95669694" lon="13.42327192">
        <ele>507.00000</ele>
        <time>2024-05-10T19:32:12Z</time>
      </trkpt>
      <trkpt lat="42.95667892" lon="13.42324996">
        <ele>507.00000</ele>
        <time>2024-05-10T19:32:13Z</time>
      </trkpt>
      <trkpt lat="42.95665796" lon="13.42323093">
        <ele>507.00000</ele>
        <time>2024-05-10T19:32:13Z</time>
      </trkpt>
      <trkpt lat="42.95663399" lon="13.42321593">
        <ele>508.00000</ele>
        <time>2024-05-10T19:32:14Z</time>
      </trkpt>
      <trkpt lat="42.95660994" lon="13.42320294">
        <ele>508.00000</ele>
        <time>2024-05-10T19:32:14Z</time>
      </trkpt>
      <trkpt lat="42.95658496" lon="13.42319497">
        <ele>509.00000</ele>
        <time>2024-05-10T19:32:15Z</time>
      </trkpt>
      <trkpt lat="42.95656694" lon="13.42319095">
        <ele>509.00000</ele>
        <time>2024-05-10T19:32:15Z</time>
      </trkpt>
      <trkpt lat="42.95654397" lon="13.42318894">
        <ele>509.00000</ele>
        <time>2024-05-10T19:32:16Z</time>
      </trkpt>
      <trkpt lat="42.95651497" lon="13.42319296">
        <ele>509.00000</ele>
        <time>2024-05-10T19:32:16Z</time>
      </trkpt>
      <trkpt lat="42.95648898" lon="13.42320394">
        <ele>510.00000</ele>
        <time>2024-05-10T19:32:17Z</time>
      </trkpt>
      <trkpt lat="42.95646493" lon="13.42322599">
        <ele>510.00000</ele>
        <time>2024-05-10T19:32:17Z</time>
      </trkpt>
      <trkpt lat="42.95645194" lon="13.42325893">
        <ele>510.00000</ele>
        <time>2024-05-10T19:32:18Z</time>
      </trkpt>
      <trkpt lat="42.95645194" lon="13.42328592">
        <ele>510.00000</ele>
        <time>2024-05-10T19:32:18Z</time>
      </trkpt>
      <trkpt lat="42.95645797" lon="13.42330997">
        <ele>509.00000</ele>
        <time>2024-05-10T19:32:19Z</time>
      </trkpt>
      <trkpt lat="42.95646593" lon="13.42333797">
        <ele>509.00000</ele>
        <time>2024-05-10T19:32:19Z</time>
      </trkpt>
      <trkpt lat="42.95646996" lon="13.42335498">
        <ele>509.00000</ele>
        <time>2024-05-10T19:32:20Z</time>
      </trkpt>
      <trkpt lat="42.95648396" lon="13.42337795">
        <ele>509.00000</ele>
        <time>2024-05-10T19:32:20Z</time>
      </trkpt>
      <trkpt lat="42.95650198" lon="13.42339899">
        <ele>509.00000</ele>
        <time>2024-05-10T19:32:20Z</time>
      </trkpt>
      <trkpt lat="42.95651698" lon="13.42341894">
        <ele>508.00000</ele>
        <time>2024-05-10T19:32:21Z</time>
      </trkpt>
      <trkpt lat="42.95653592" lon="13.42344693">
        <ele>508.00000</ele>
        <time>2024-05-10T19:32:21Z</time>
      </trkpt>
      <trkpt lat="42.95655294" lon="13.42348398">
        <ele>508.00000</ele>
        <time>2024-05-10T19:32:22Z</time>
      </trkpt>
      <trkpt lat="42.95656895" lon="13.42351499">
        <ele>507.00000</ele>
        <time>2024-05-10T19:32:23Z</time>
      </trkpt>
      <trkpt lat="42.95658596" lon="13.42354299">
        <ele>507.00000</ele>
        <time>2024-05-10T19:32:23Z</time>
      </trkpt>
      <trkpt lat="42.95659895" lon="13.42356897">
        <ele>506.00000</ele>
        <time>2024-05-10T19:32:24Z</time>
      </trkpt>
      <trkpt lat="42.95661496" lon="13.42359596">
        <ele>506.00000</ele>
        <time>2024-05-10T19:32:24Z</time>
      </trkpt>
      <trkpt lat="42.95663299" lon="13.42362094">
        <ele>505.00000</ele>
        <time>2024-05-10T19:32:25Z</time>
      </trkpt>
      <trkpt lat="42.95665394" lon="13.42363997">
        <ele>505.00000</ele>
        <time>2024-05-10T19:32:25Z</time>
      </trkpt>
      <trkpt lat="42.95667297" lon="13.42366394">
        <ele>505.00000</ele>
        <time>2024-05-10T19:32:26Z</time>
      </trkpt>
      <trkpt lat="42.95669199" lon="13.42368498">
        <ele>504.00000</ele>
        <time>2024-05-10T19:32:26Z</time>
      </trkpt>
      <trkpt lat="42.95670993" lon="13.42370895">
        <ele>504.00000</ele>
        <time>2024-05-10T19:32:27Z</time>
      </trkpt>
      <trkpt lat="42.95672695" lon="13.42373695">
        <ele>503.00000</ele>
        <time>2024-05-10T19:32:27Z</time>
      </trkpt>
      <trkpt lat="42.95674296" lon="13.42376394">
        <ele>503.00000</ele>
        <time>2024-05-10T19:32:28Z</time>
      </trkpt>
      <trkpt lat="42.95675494" lon="13.42378799">
        <ele>502.00000</ele>
        <time>2024-05-10T19:32:28Z</time>
      </trkpt>
      <trkpt lat="42.95676299" lon="13.42381892">
        <ele>502.00000</ele>
        <time>2024-05-10T19:32:29Z</time>
      </trkpt>
      <trkpt lat="42.95676299" lon="13.42385798">
        <ele>502.00000</ele>
        <time>2024-05-10T19:32:29Z</time>
      </trkpt>
      <trkpt lat="42.95676492" lon="13.42390199">
        <ele>502.00000</ele>
        <time>2024-05-10T19:32:30Z</time>
      </trkpt>
      <trkpt lat="42.95676399" lon="13.42394297">
        <ele>503.00000</ele>
        <time>2024-05-10T19:32:30Z</time>
      </trkpt>
      <trkpt lat="42.95676492" lon="13.42399092">
        <ele>503.00000</ele>
        <time>2024-05-10T19:32:31Z</time>
      </trkpt>
      <trkpt lat="42.95676399" lon="13.42402998">
        <ele>504.00000</ele>
        <time>2024-05-10T19:32:32Z</time>
      </trkpt>
      <trkpt lat="42.95676492" lon="13.42407197">
        <ele>504.00000</ele>
        <time>2024-05-10T19:32:32Z</time>
      </trkpt>
      <trkpt lat="42.95676894" lon="13.42411195">
        <ele>505.00000</ele>
        <time>2024-05-10T19:32:33Z</time>
      </trkpt>
      <trkpt lat="42.95677497" lon="13.42415194">
        <ele>505.00000</ele>
        <time>2024-05-10T19:32:33Z</time>
      </trkpt>
      <trkpt lat="42.95678394" lon="13.42418194">
        <ele>505.00000</ele>
        <time>2024-05-10T19:32:34Z</time>
      </trkpt>
      <trkpt lat="42.95679291" lon="13.42421597">
        <ele>504.00000</ele>
        <time>2024-05-10T19:32:34Z</time>
      </trkpt>
      <trkpt lat="42.95680196" lon="13.42425495">
        <ele>504.00000</ele>
        <time>2024-05-10T19:32:35Z</time>
      </trkpt>
      <trkpt lat="42.95680892" lon="13.42429099">
        <ele>504.00000</ele>
        <time>2024-05-10T19:32:36Z</time>
      </trkpt>
      <trkpt lat="42.95681797" lon="13.42432594">
        <ele>504.00000</ele>
        <time>2024-05-10T19:32:36Z</time>
      </trkpt>
      <trkpt lat="42.95682996" lon="13.42435897">
        <ele>504.00000</ele>
        <time>2024-05-10T19:32:37Z</time>
      </trkpt>
      <trkpt lat="42.95684195" lon="13.42439099">
        <ele>503.00000</ele>
        <time>2024-05-10T19:32:37Z</time>
      </trkpt>
      <trkpt lat="42.95685091" lon="13.42442099">
        <ele>503.00000</ele>
        <time>2024-05-10T19:32:38Z</time>
      </trkpt>
      <trkpt lat="42.95686491" lon="13.42445192">
        <ele>503.00000</ele>
        <time>2024-05-10T19:32:38Z</time>
      </trkpt>
      <trkpt lat="42.95687992" lon="13.42448092">
        <ele>502.00000</ele>
        <time>2024-05-10T19:32:39Z</time>
      </trkpt>
      <trkpt lat="42.95689794" lon="13.42450993">
        <ele>501.00000</ele>
        <time>2024-05-10T19:32:39Z</time>
      </trkpt>
      <trkpt lat="42.95691998" lon="13.42453692">
        <ele>500.00000</ele>
        <time>2024-05-10T19:32:40Z</time>
      </trkpt>
      <trkpt lat="42.95693892" lon="13.42456491">
        <ele>500.00000</ele>
        <time>2024-05-10T19:32:40Z</time>
      </trkpt>
      <trkpt lat="42.95695795" lon="13.42458796">
        <ele>499.00000</ele>
        <time>2024-05-10T19:32:41Z</time>
      </trkpt>
      <trkpt lat="42.95697195" lon="13.42461495">
        <ele>499.00000</ele>
        <time>2024-05-10T19:32:41Z</time>
      </trkpt>
      <trkpt lat="42.95698092" lon="13.42464094">
        <ele>498.00000</ele>
        <time>2024-05-10T19:32:42Z</time>
      </trkpt>
      <trkpt lat="42.95698595" lon="13.42467396">
        <ele>498.00000</ele>
        <time>2024-05-10T19:32:42Z</time>
      </trkpt>
      <trkpt lat="42.95699098" lon="13.42470397">
        <ele>498.00000</ele>
        <time>2024-05-10T19:32:43Z</time>
      </trkpt>
      <trkpt lat="42.95699492" lon="13.42474194">
        <ele>498.00000</ele>
        <time>2024-05-10T19:32:43Z</time>
      </trkpt>
      <trkpt lat="42.95699492" lon="13.42477697">
        <ele>499.00000</ele>
        <time>2024-05-10T19:32:44Z</time>
      </trkpt>
      <trkpt lat="42.95699894" lon="13.42481595">
        <ele>498.00000</ele>
        <time>2024-05-10T19:32:44Z</time>
      </trkpt>
      <trkpt lat="42.95699894" lon="13.42485291">
        <ele>499.00000</ele>
        <time>2024-05-10T19:32:45Z</time>
      </trkpt>
      <trkpt lat="42.95699793" lon="13.42489097">
        <ele>499.00000</ele>
        <time>2024-05-10T19:32:46Z</time>
      </trkpt>
      <trkpt lat="42.95699492" lon="13.42492491">
        <ele>499.00000</ele>
        <time>2024-05-10T19:32:46Z</time>
      </trkpt>
      <trkpt lat="42.95698796" lon="13.42496397">
        <ele>500.00000</ele>
        <time>2024-05-10T19:32:47Z</time>
      </trkpt>
      <trkpt lat="42.95698595" lon="13.42500496">
        <ele>500.00000</ele>
        <time>2024-05-10T19:32:47Z</time>
      </trkpt>
      <trkpt lat="42.95697798" lon="13.42504695">
        <ele>501.00000</ele>
        <time>2024-05-10T19:32:48Z</time>
      </trkpt>
      <trkpt lat="42.95697396" lon="13.42508291">
        <ele>501.00000</ele>
        <time>2024-05-10T19:32:48Z</time>
      </trkpt>
      <trkpt lat="42.95696692" lon="13.42511393">
        <ele>501.00000</ele>
        <time>2024-05-10T19:32:49Z</time>
      </trkpt>
      <trkpt lat="42.95695996" lon="13.42515198">
        <ele>502.00000</ele>
        <time>2024-05-10T19:32:50Z</time>
      </trkpt>
      <trkpt lat="42.95695393" lon="13.42518593">
        <ele>502.00000</ele>
        <time>2024-05-10T19:32:50Z</time>
      </trkpt>
      <trkpt lat="42.95695795" lon="13.42521199">
        <ele>502.00000</ele>
        <time>2024-05-10T19:32:50Z</time>
      </trkpt>
      <trkpt lat="42.95696591" lon="13.42524292">
        <ele>502.00000</ele>
        <time>2024-05-10T19:32:51Z</time>
      </trkpt>
      <trkpt lat="42.95697195" lon="13.42527695">
        <ele>502.00000</ele>
        <time>2024-05-10T19:32:51Z</time>
      </trkpt>
      <trkpt lat="42.95697497" lon="13.42531895">
        <ele>502.00000</ele>
        <time>2024-05-10T19:32:52Z</time>
      </trkpt>
      <trkpt lat="42.95697798" lon="13.42535893">
        <ele>502.00000</ele>
        <time>2024-05-10T19:32:53Z</time>
      </trkpt>
      <trkpt lat="42.95698092" lon="13.42539992">
        <ele>502.00000</ele>
        <time>2024-05-10T19:32:53Z</time>
      </trkpt>
      <trkpt lat="42.95698796" lon="13.42543797">
        <ele>502.00000</ele>
        <time>2024-05-10T19:32:54Z</time>
      </trkpt>
      <trkpt lat="42.95699299" lon="13.42547393">
        <ele>502.00000</ele>
        <time>2024-05-10T19:32:54Z</time>
      </trkpt>
      <trkpt lat="42.95699592" lon="13.42551198">
        <ele>502.00000</ele>
        <time>2024-05-10T19:32:55Z</time>
      </trkpt>
      <trkpt lat="42.95699399" lon="13.42555297">
        <ele>503.00000</ele>
        <time>2024-05-10T19:32:56Z</time>
      </trkpt>
      <trkpt lat="42.95699098" lon="13.42558893">
        <ele>503.00000</ele>
        <time>2024-05-10T19:32:56Z</time>
      </trkpt>
      <trkpt lat="42.95698293" lon="13.42562698">
        <ele>503.00000</ele>
        <time>2024-05-10T19:32:57Z</time>
      </trkpt>
      <trkpt lat="42.95697195" lon="13.42565992">
        <ele>504.00000</ele>
        <time>2024-05-10T19:32:57Z</time>
      </trkpt>
      <trkpt lat="42.95695594" lon="13.42568691">
        <ele>505.00000</ele>
        <time>2024-05-10T19:32:58Z</time>
      </trkpt>
      <trkpt lat="42.95693792" lon="13.42571097">
        <ele>505.00000</ele>
        <time>2024-05-10T19:32:58Z</time>
      </trkpt>
      <trkpt lat="42.95692199" lon="13.42572798">
        <ele>506.00000</ele>
        <time>2024-05-10T19:32:59Z</time>
      </trkpt>
      <trkpt lat="42.95690095" lon="13.42574693">
        <ele>506.00000</ele>
        <time>2024-05-10T19:32:59Z</time>
      </trkpt>
      <trkpt lat="42.95688092" lon="13.42576294">
        <ele>507.00000</ele>
        <time>2024-05-10T19:33:00Z</time>
      </trkpt>
      <trkpt lat="42.95686399" lon="13.42578196">
        <ele>508.00000</ele>
        <time>2024-05-10T19:33:00Z</time>
      </trkpt>
      <trkpt lat="42.95684999" lon="13.42580795">
        <ele>508.00000</ele>
        <time>2024-05-10T19:33:00Z</time>
      </trkpt>
      <trkpt lat="42.95683499" lon="13.42582999">
        <ele>509.00000</ele>
        <time>2024-05-10T19:33:01Z</time>
      </trkpt>
      <trkpt lat="42.95681797" lon="13.42584994">
        <ele>509.00000</ele>
        <time>2024-05-10T19:33:01Z</time>
      </trkpt>
      <trkpt lat="42.95679593" lon="13.42586394">
        <ele>510.00000</ele>
        <time>2024-05-10T19:33:02Z</time>
      </trkpt>
      <trkpt lat="42.95677891" lon="13.42587199">
        <ele>510.00000</ele>
        <time>2024-05-10T19:33:02Z</time>
      </trkpt>
      <trkpt lat="42.95675494" lon="13.42588397">
        <ele>511.00000</ele>
        <time>2024-05-10T19:33:03Z</time>
      </trkpt>
      <trkpt lat="42.95673399" lon="13.42589596">
        <ele>511.00000</ele>
        <time>2024-05-10T19:33:03Z</time>
      </trkpt>
      <trkpt lat="42.95671295" lon="13.42591498">
        <ele>512.00000</ele>
        <time>2024-05-10T19:33:04Z</time>
      </trkpt>
      <trkpt lat="42.95669593" lon="13.42593594">
        <ele>512.00000</ele>
        <time>2024-05-10T19:33:04Z</time>
      </trkpt>
      <trkpt lat="42.95668194" lon="13.42595899">
        <ele>513.00000</ele>
        <time>2024-05-10T19:33:05Z</time>
      </trkpt>
      <trkpt lat="42.95667096" lon="13.42598799">
        <ele>513.00000</ele>
        <time>2024-05-10T19:33:05Z</time>
      </trkpt>
      <trkpt lat="42.95666098" lon="13.42601498">
        <ele>513.00000</ele>
        <time>2024-05-10T19:33:05Z</time>
      </trkpt>
      <trkpt lat="42.95664799" lon="13.42603594">
        <ele>513.00000</ele>
        <time>2024-05-10T19:33:06Z</time>
      </trkpt>
      <trkpt lat="42.95663491" lon="13.42605697">
        <ele>514.00000</ele>
        <time>2024-05-10T19:33:06Z</time>
      </trkpt>
      <trkpt lat="42.95661999" lon="13.42607491">
        <ele>515.00000</ele>
        <time>2024-05-10T19:33:07Z</time>
      </trkpt>
      <trkpt lat="42.95660692" lon="13.42610199">
        <ele>515.00000</ele>
        <time>2024-05-10T19:33:07Z</time>
      </trkpt>
      <trkpt lat="42.95659393" lon="13.42613291">
        <ele>516.00000</ele>
        <time>2024-05-10T19:33:08Z</time>
      </trkpt>
      <trkpt lat="42.95658395" lon="13.42615898">
        <ele>516.00000</ele>
        <time>2024-05-10T19:33:08Z</time>
      </trkpt>
      <trkpt lat="42.95657297" lon="13.42618597">
        <ele>516.00000</ele>
        <time>2024-05-10T19:33:09Z</time>
      </trkpt>
      <trkpt lat="42.95655897" lon="13.42621497">
        <ele>517.00000</ele>
        <time>2024-05-10T19:33:09Z</time>
      </trkpt>
      <trkpt lat="42.95654891" lon="13.42623995">
        <ele>518.00000</ele>
        <time>2024-05-10T19:33:09Z</time>
      </trkpt>
      <trkpt lat="42.95654196" lon="13.42627096">
        <ele>518.00000</ele>
        <time>2024-05-10T19:33:10Z</time>
      </trkpt>
      <trkpt lat="42.95653793" lon="13.42630592">
        <ele>518.00000</ele>
        <time>2024-05-10T19:33:10Z</time>
      </trkpt>
      <trkpt lat="42.95653693" lon="13.42633098">
        <ele>518.00000</ele>
        <time>2024-05-10T19:33:11Z</time>
      </trkpt>
      <trkpt lat="42.95653995" lon="13.42636099">
        <ele>518.00000</ele>
        <time>2024-05-10T19:33:11Z</time>
      </trkpt>
      <trkpt lat="42.95653793" lon="13.42639192">
        <ele>519.00000</ele>
        <time>2024-05-10T19:33:12Z</time>
      </trkpt>
      <trkpt lat="42.95653793" lon="13.42642494">
        <ele>519.00000</ele>
        <time>2024-05-10T19:33:12Z</time>
      </trkpt>
      <trkpt lat="42.95653693" lon="13.42646098">
        <ele>519.00000</ele>
        <time>2024-05-10T19:33:13Z</time>
      </trkpt>
      <trkpt lat="42.95654397" lon="13.42649292">
        <ele>520.00000</ele>
        <time>2024-05-10T19:33:13Z</time>
      </trkpt>
      <trkpt lat="42.95655495" lon="13.42652192">
        <ele>519.00000</ele>
        <time>2024-05-10T19:33:14Z</time>
      </trkpt>
      <trkpt lat="42.95656995" lon="13.42654991">
        <ele>519.00000</ele>
        <time>2024-05-10T19:33:14Z</time>
      </trkpt>
      <trkpt lat="42.95658295" lon="13.42657598">
        <ele>519.00000</ele>
        <time>2024-05-10T19:33:15Z</time>
      </trkpt>
      <trkpt lat="42.95660097" lon="13.42660297">
        <ele>519.00000</ele>
        <time>2024-05-10T19:33:15Z</time>
      </trkpt>
      <trkpt lat="42.95661295" lon="13.42662795">
        <ele>519.00000</ele>
        <time>2024-05-10T19:33:16Z</time>
      </trkpt>
      <trkpt lat="42.95662393" lon="13.42666097">
        <ele>519.00000</ele>
        <time>2024-05-10T19:33:16Z</time>
      </trkpt>
      <trkpt lat="42.95663793" lon="13.42669199">
        <ele>519.00000</ele>
        <time>2024-05-10T19:33:17Z</time>
      </trkpt>
      <trkpt lat="42.95665495" lon="13.42671596">
        <ele>518.00000</ele>
        <time>2024-05-10T19:33:17Z</time>
      </trkpt>
      <trkpt lat="42.95667498" lon="13.42673297">
        <ele>518.00000</ele>
        <time>2024-05-10T19:33:18Z</time>
      </trkpt>
      <trkpt lat="42.95669493" lon="13.42675091">
        <ele>517.00000</ele>
        <time>2024-05-10T19:33:18Z</time>
      </trkpt>
      <trkpt lat="42.95671094" lon="13.42676994">
        <ele>517.00000</ele>
        <time>2024-05-10T19:33:19Z</time>
      </trkpt>
      <trkpt lat="42.95672996" lon="13.42678897">
        <ele>517.00000</ele>
        <time>2024-05-10T19:33:19Z</time>
      </trkpt>
      <trkpt lat="42.95674799" lon="13.42680699">
        <ele>516.00000</ele>
        <time>2024-05-10T19:33:20Z</time>
      </trkpt>
      <trkpt lat="42.95676592" lon="13.42682593">
        <ele>516.00000</ele>
        <time>2024-05-10T19:33:20Z</time>
      </trkpt>
      <trkpt lat="42.95678394" lon="13.42684295">
        <ele>516.00000</ele>
        <time>2024-05-10T19:33:20Z</time>
      </trkpt>
      <trkpt lat="42.95679492" lon="13.42686398">
        <ele>516.00000</ele>
        <time>2024-05-10T19:33:21Z</time>
      </trkpt>
      <trkpt lat="42.95679995" lon="13.42689097">
        <ele>516.00000</ele>
        <time>2024-05-10T19:33:21Z</time>
      </trkpt>
      <trkpt lat="42.95680599" lon="13.42692199">
        <ele>516.00000</ele>
        <time>2024-05-10T19:33:22Z</time>
      </trkpt>
      <trkpt lat="42.95681294" lon="13.42695292">
        <ele>516.00000</ele>
        <time>2024-05-10T19:33:22Z</time>
      </trkpt>
      <trkpt lat="42.95681797" lon="13.42698393">
        <ele>516.00000</ele>
        <time>2024-05-10T19:33:23Z</time>
      </trkpt>
      <trkpt lat="42.95681898" lon="13.42701595">
        <ele>516.00000</ele>
        <time>2024-05-10T19:33:23Z</time>
      </trkpt>
      <trkpt lat="42.95681797" lon="13.42704797">
        <ele>517.00000</ele>
        <time>2024-05-10T19:33:24Z</time>
      </trkpt>
      <trkpt lat="42.95681194" lon="13.42707496">
        <ele>517.00000</ele>
        <time>2024-05-10T19:33:24Z</time>
      </trkpt>
      <trkpt lat="42.95680196" lon="13.42709792">
        <ele>518.00000</ele>
        <time>2024-05-10T19:33:24Z</time>
      </trkpt>
      <trkpt lat="42.95679291" lon="13.42712399">
        <ele>518.00000</ele>
        <time>2024-05-10T19:33:25Z</time>
      </trkpt>
      <trkpt lat="42.95677992" lon="13.42715199">
        <ele>519.00000</ele>
        <time>2024-05-10T19:33:25Z</time>
      </trkpt>
      <trkpt lat="42.95675595" lon="13.42717797">
        <ele>520.00000</ele>
        <time>2024-05-10T19:33:26Z</time>
      </trkpt>
      <trkpt lat="42.95673097" lon="13.42718996">
        <ele>521.00000</ele>
        <time>2024-05-10T19:33:26Z</time>
      </trkpt>
      <trkpt lat="42.95670599" lon="13.42719197">
        <ele>521.00000</ele>
        <time>2024-05-10T19:33:27Z</time>
      </trkpt>
      <trkpt lat="42.95668294" lon="13.42719993">
        <ele>522.00000</ele>
        <time>2024-05-10T19:33:27Z</time>
      </trkpt>
      <trkpt lat="42.95666299" lon="13.42721594">
        <ele>523.00000</ele>
        <time>2024-05-10T19:33:28Z</time>
      </trkpt>
      <trkpt lat="42.95664397" lon="13.42722994">
        <ele>524.00000</ele>
        <time>2024-05-10T19:33:28Z</time>
      </trkpt>
      <trkpt lat="42.95663299" lon="13.42725198">
        <ele>524.00000</ele>
        <time>2024-05-10T19:33:29Z</time>
      </trkpt>
      <trkpt lat="42.95661698" lon="13.42727193">
        <ele>525.00000</ele>
        <time>2024-05-10T19:33:29Z</time>
      </trkpt>
      <trkpt lat="42.95659895" lon="13.42728895">
        <ele>526.00000</ele>
        <time>2024-05-10T19:33:30Z</time>
      </trkpt>
      <trkpt lat="42.95657699" lon="13.42729599">
        <ele>527.00000</ele>
        <time>2024-05-10T19:33:30Z</time>
      </trkpt>
      <trkpt lat="42.95655696" lon="13.42730395">
        <ele>528.00000</ele>
        <time>2024-05-10T19:33:30Z</time>
      </trkpt>
      <trkpt lat="42.95653492" lon="13.42732298">
        <ele>529.00000</ele>
        <time>2024-05-10T19:33:31Z</time>
      </trkpt>
      <trkpt lat="42.95651396" lon="13.42734091">
        <ele>530.00000</ele>
        <time>2024-05-10T19:33:31Z</time>
      </trkpt>
      <trkpt lat="42.95649594" lon="13.42735994">
        <ele>531.00000</ele>
        <time>2024-05-10T19:33:32Z</time>
      </trkpt>
      <trkpt lat="42.95647993" lon="13.42738199">
        <ele>532.00000</ele>
        <time>2024-05-10T19:33:32Z</time>
      </trkpt>
      <trkpt lat="42.95646795" lon="13.42741099">
        <ele>532.00000</ele>
        <time>2024-05-10T19:33:33Z</time>
      </trkpt>
      <trkpt lat="42.95645697" lon="13.42743798">
        <ele>533.00000</ele>
        <time>2024-05-10T19:33:33Z</time>
      </trkpt>
      <trkpt lat="42.95644498" lon="13.42746396">
        <ele>534.00000</ele>
        <time>2024-05-10T19:33:34Z</time>
      </trkpt>
      <trkpt lat="42.95643392" lon="13.42749397">
        <ele>535.00000</ele>
        <time>2024-05-10T19:33:34Z</time>
      </trkpt>
      <trkpt lat="42.95643098" lon="13.42751995">
        <ele>535.00000</ele>
        <time>2024-05-10T19:33:35Z</time>
      </trkpt>
      <trkpt lat="42.95642897" lon="13.42754895">
        <ele>535.00000</ele>
        <time>2024-05-10T19:33:35Z</time>
      </trkpt>
      <trkpt lat="42.95643299" lon="13.42757594">
        <ele>535.00000</ele>
        <time>2024-05-10T19:33:35Z</time>
      </trkpt>
      <trkpt lat="42.95644297" lon="13.42759497">
        <ele>535.00000</ele>
        <time>2024-05-10T19:33:36Z</time>
      </trkpt>
      <trkpt lat="42.95645797" lon="13.42761098">
        <ele>534.00000</ele>
        <time>2024-05-10T19:33:36Z</time>
      </trkpt>
      <trkpt lat="42.95647398" lon="13.42763193">
        <ele>534.00000</ele>
        <time>2024-05-10T19:33:37Z</time>
      </trkpt>
      <trkpt lat="42.95648697" lon="13.42765599">
        <ele>533.00000</ele>
        <time>2024-05-10T19:33:37Z</time>
      </trkpt>
      <trkpt lat="42.95649594" lon="13.42768499">
        <ele>533.00000</ele>
        <time>2024-05-10T19:33:37Z</time>
      </trkpt>
      <trkpt lat="42.95650793" lon="13.42771299">
        <ele>533.00000</ele>
        <time>2024-05-10T19:33:38Z</time>
      </trkpt>
      <trkpt lat="42.95652193" lon="13.42773897">
        <ele>533.00000</ele>
        <time>2024-05-10T19:33:38Z</time>
      </trkpt>
      <trkpt lat="42.95653793" lon="13.42775699">
        <ele>532.00000</ele>
        <time>2024-05-10T19:33:39Z</time>
      </trkpt>
      <trkpt lat="42.95655294" lon="13.42777292">
        <ele>532.00000</ele>
        <time>2024-05-10T19:33:39Z</time>
      </trkpt>
      <trkpt lat="42.95657398" lon="13.42779295">
        <ele>532.00000</ele>
        <time>2024-05-10T19:33:40Z</time>
      </trkpt>
      <trkpt lat="42.95659191" lon="13.42781298">
        <ele>531.00000</ele>
        <time>2024-05-10T19:33:40Z</time>
      </trkpt>
      <trkpt lat="42.95660591" lon="13.42782991">
        <ele>530.00000</ele>
        <time>2024-05-10T19:33:41Z</time>
      </trkpt>
      <trkpt lat="42.95662393" lon="13.42784693">
        <ele>530.00000</ele>
        <time>2024-05-10T19:33:41Z</time>
      </trkpt>
      <trkpt lat="42.95664497" lon="13.42786193">
        <ele>529.00000</ele>
        <time>2024-05-10T19:33:42Z</time>
      </trkpt>
      <trkpt lat="42.95666199" lon="13.42788096">
        <ele>529.00000</ele>
        <time>2024-05-10T19:33:42Z</time>
      </trkpt>
      <trkpt lat="42.95668395" lon="13.42789898">
        <ele>528.00000</ele>
        <time>2024-05-10T19:33:42Z</time>
      </trkpt>
      <trkpt lat="42.95670197" lon="13.42792295">
        <ele>527.00000</ele>
        <time>2024-05-10T19:33:43Z</time>
      </trkpt>
      <trkpt lat="42.95671798" lon="13.42794693">
        <ele>527.00000</ele>
        <time>2024-05-10T19:33:43Z</time>
      </trkpt>
      <trkpt lat="42.95673592" lon="13.42797492">
        <ele>526.00000</ele>
        <time>2024-05-10T19:33:44Z</time>
      </trkpt>
      <trkpt lat="42.95675192" lon="13.42800996">
        <ele>526.00000</ele>
        <time>2024-05-10T19:33:45Z</time>
      </trkpt>
      <trkpt lat="42.95676198" lon="13.42804692">
        <ele>525.00000</ele>
        <time>2024-05-10T19:33:45Z</time>
      </trkpt>
      <trkpt lat="42.95676492" lon="13.42808498">
        <ele>525.00000</ele>
        <time>2024-05-10T19:33:46Z</time>
      </trkpt>
      <trkpt lat="42.95676399" lon="13.42812295">
        <ele>525.00000</ele>
        <time>2024-05-10T19:33:46Z</time>
      </trkpt>
      <trkpt lat="42.95675595" lon="13.42815999">
        <ele>526.00000</ele>
        <time>2024-05-10T19:33:47Z</time>
      </trkpt>
      <trkpt lat="42.95674497" lon="13.42819495">
        <ele>526.00000</ele>
        <time>2024-05-10T19:33:47Z</time>
      </trkpt>
      <trkpt lat="42.95673198" lon="13.42822697">
        <ele>526.00000</ele>
        <time>2024-05-10T19:33:48Z</time>
      </trkpt>
      <trkpt lat="42.95671597" lon="13.42825295">
        <ele>527.00000</ele>
        <time>2024-05-10T19:33:48Z</time>
      </trkpt>
      <trkpt lat="42.95669795" lon="13.42827793">
        <ele>527.00000</ele>
        <time>2024-05-10T19:33:49Z</time>
      </trkpt>
      <trkpt lat="42.95667397" lon="13.42829192">
        <ele>528.00000</ele>
        <time>2024-05-10T19:33:49Z</time>
      </trkpt>
      <trkpt lat="42.95664992" lon="13.42829897">
        <ele>529.00000</ele>
        <time>2024-05-10T19:33:50Z</time>
      </trkpt>
      <trkpt lat="42.95662695" lon="13.42830995">
        <ele>530.00000</ele>
        <time>2024-05-10T19:33:50Z</time>
      </trkpt>
      <trkpt lat="42.95660398" lon="13.42830492">
        <ele>530.00000</ele>
        <time>2024-05-10T19:33:51Z</time>
      </trkpt>
      <trkpt lat="42.95658295" lon="13.42828799">
        <ele>531.00000</ele>
        <time>2024-05-10T19:33:51Z</time>
      </trkpt>
      <trkpt lat="42.95655998" lon="13.42827893">
        <ele>531.00000</ele>
        <time>2024-05-10T19:33:52Z</time>
      </trkpt>
      <trkpt lat="42.95653391" lon="13.42827198">
        <ele>532.00000</ele>
        <time>2024-05-10T19:33:52Z</time>
      </trkpt>
      <trkpt lat="42.95651094" lon="13.42827592">
        <ele>533.00000</ele>
        <time>2024-05-10T19:33:53Z</time>
      </trkpt>
      <trkpt lat="42.95648798" lon="13.42827592">
        <ele>533.00000</ele>
        <time>2024-05-10T19:33:53Z</time>
      </trkpt>
      <trkpt lat="42.95646593" lon="13.42827692">
        <ele>534.00000</ele>
        <time>2024-05-10T19:33:54Z</time>
      </trkpt>
      <trkpt lat="42.95644096" lon="13.42827692">
        <ele>535.00000</ele>
        <time>2024-05-10T19:33:54Z</time>
      </trkpt>
      <trkpt lat="42.95641992" lon="13.42828396">
        <ele>535.00000</ele>
        <time>2024-05-10T19:33:55Z</time>
      </trkpt>
      <trkpt lat="42.95639997" lon="13.42829494">
        <ele>536.00000</ele>
        <time>2024-05-10T19:33:55Z</time>
      </trkpt>
      <trkpt lat="42.95637994" lon="13.42830299">
        <ele>536.00000</ele>
        <time>2024-05-10T19:33:56Z</time>
      </trkpt>
      <trkpt lat="42.95635898" lon="13.42831498">
        <ele>537.00000</ele>
        <time>2024-05-10T19:33:56Z</time>
      </trkpt>
      <trkpt lat="42.95633593" lon="13.42832394">
        <ele>538.00000</ele>
        <time>2024-05-10T19:33:56Z</time>
      </trkpt>
      <trkpt lat="42.95631397" lon="13.42833694">
        <ele>538.00000</ele>
        <time>2024-05-10T19:33:57Z</time>
      </trkpt>
      <trkpt lat="42.95629293" lon="13.42834993">
        <ele>539.00000</ele>
        <time>2024-05-10T19:33:57Z</time>
      </trkpt>
      <trkpt lat="42.95627198" lon="13.42836694">
        <ele>539.00000</ele>
        <time>2024-05-10T19:33:58Z</time>
      </trkpt>
      <trkpt lat="42.95625094" lon="13.42838396">
        <ele>540.00000</ele>
        <time>2024-05-10T19:33:58Z</time>
      </trkpt>
      <trkpt lat="42.95623099" lon="13.42840491">
        <ele>540.00000</ele>
        <time>2024-05-10T19:33:59Z</time>
      </trkpt>
      <trkpt lat="42.95620995" lon="13.42842193">
        <ele>540.00000</ele>
        <time>2024-05-10T19:33:59Z</time>
      </trkpt>
      <trkpt lat="42.95619193" lon="13.42843794">
        <ele>540.00000</ele>
        <time>2024-05-10T19:34:00Z</time>
      </trkpt>
      <trkpt lat="42.95617399" lon="13.42845495">
        <ele>541.00000</ele>
        <time>2024-05-10T19:34:00Z</time>
      </trkpt>
      <trkpt lat="42.95615396" lon="13.42847398">
        <ele>541.00000</ele>
        <time>2024-05-10T19:34:01Z</time>
      </trkpt>
      <trkpt lat="42.95613795" lon="13.42849192">
        <ele>541.00000</ele>
        <time>2024-05-10T19:34:01Z</time>
      </trkpt>
      <trkpt lat="42.95611993" lon="13.42850591">
        <ele>542.00000</ele>
        <time>2024-05-10T19:34:02Z</time>
      </trkpt>
      <trkpt lat="42.95609998" lon="13.42852092">
        <ele>542.00000</ele>
        <time>2024-05-10T19:34:02Z</time>
      </trkpt>
      <trkpt lat="42.95607995" lon="13.42853995">
        <ele>543.00000</ele>
        <time>2024-05-10T19:34:03Z</time>
      </trkpt>
      <trkpt lat="42.95605991" lon="13.42855998">
        <ele>544.00000</ele>
        <time>2024-05-10T19:34:03Z</time>
      </trkpt>
      <trkpt lat="42.95603795" lon="13.42857699">
        <ele>544.00000</ele>
        <time>2024-05-10T19:34:04Z</time>
      </trkpt>
      <trkpt lat="42.95601792" lon="13.42859594">
        <ele>545.00000</ele>
        <time>2024-05-10T19:34:04Z</time>
      </trkpt>
      <trkpt lat="42.95599797" lon="13.42861396">
        <ele>546.00000</ele>
        <time>2024-05-10T19:34:04Z</time>
      </trkpt>
      <trkpt lat="42.95597593" lon="13.42863399">
        <ele>546.00000</ele>
        <time>2024-05-10T19:34:05Z</time>
      </trkpt>
      <trkpt lat="42.95595598" lon="13.42865495">
        <ele>546.00000</ele>
        <time>2024-05-10T19:34:06Z</time>
      </trkpt>
      <trkpt lat="42.95593595" lon="13.42867699">
        <ele>547.00000</ele>
        <time>2024-05-10T19:34:06Z</time>
      </trkpt>
      <trkpt lat="42.95591399" lon="13.42870297">
        <ele>547.00000</ele>
        <time>2024-05-10T19:34:07Z</time>
      </trkpt>
      <trkpt lat="42.95589395" lon="13.42872393">
        <ele>547.00000</ele>
        <time>2024-05-10T19:34:07Z</time>
      </trkpt>
      <trkpt lat="42.95587199" lon="13.42874698">
        <ele>547.00000</ele>
        <time>2024-05-10T19:34:08Z</time>
      </trkpt>
      <trkpt lat="42.95585196" lon="13.42877095">
        <ele>547.00000</ele>
        <time>2024-05-10T19:34:08Z</time>
      </trkpt>
      <trkpt lat="42.95582899" lon="13.42879593">
        <ele>547.00000</ele>
        <time>2024-05-10T19:34:09Z</time>
      </trkpt>
      <trkpt lat="42.95580896" lon="13.42881898">
        <ele>547.00000</ele>
        <time>2024-05-10T19:34:09Z</time>
      </trkpt>
      <trkpt lat="42.95578893" lon="13.42884195">
        <ele>547.00000</ele>
        <time>2024-05-10T19:34:10Z</time>
      </trkpt>
      <trkpt lat="42.95576898" lon="13.42886793">
        <ele>547.00000</ele>
        <time>2024-05-10T19:34:10Z</time>
      </trkpt>
      <trkpt lat="42.95575096" lon="13.42889391">
        <ele>547.00000</ele>
        <time>2024-05-10T19:34:11Z</time>
      </trkpt>
      <trkpt lat="42.95573394" lon="13.42891596">
        <ele>547.00000</ele>
        <time>2024-05-10T19:34:11Z</time>
      </trkpt>
      <trkpt lat="42.95571693" lon="13.42894596">
        <ele>547.00000</ele>
        <time>2024-05-10T19:34:12Z</time>
      </trkpt>
      <trkpt lat="42.95569597" lon="13.42897195">
        <ele>547.00000</ele>
        <time>2024-05-10T19:34:13Z</time>
      </trkpt>
      <trkpt lat="42.95567393" lon="13.42899994">
        <ele>547.00000</ele>
        <time>2024-05-10T19:34:13Z</time>
      </trkpt>
      <trkpt lat="42.95564895" lon="13.42902794">
        <ele>547.00000</ele>
        <time>2024-05-10T19:34:14Z</time>
      </trkpt>
      <trkpt lat="42.95562791" lon="13.42904898">
        <ele>548.00000</ele>
        <time>2024-05-10T19:34:14Z</time>
      </trkpt>
      <trkpt lat="42.95560696" lon="13.42907496">
        <ele>548.00000</ele>
        <time>2024-05-10T19:34:15Z</time>
      </trkpt>
      <trkpt lat="42.95558793" lon="13.42909893">
        <ele>548.00000</ele>
        <time>2024-05-10T19:34:15Z</time>
      </trkpt>
      <trkpt lat="42.95556899" lon="13.42912391">
        <ele>548.00000</ele>
        <time>2024-05-10T19:34:16Z</time>
      </trkpt>
      <trkpt lat="42.95555097" lon="13.42914998">
        <ele>547.00000</ele>
        <time>2024-05-10T19:34:16Z</time>
      </trkpt>
      <trkpt lat="42.95553395" lon="13.42917395">
        <ele>547.00000</ele>
        <time>2024-05-10T19:34:17Z</time>
      </trkpt>
      <trkpt lat="42.95551392" lon="13.42919792">
        <ele>547.00000</ele>
        <time>2024-05-10T19:34:17Z</time>
      </trkpt>
      <trkpt lat="42.95549095" lon="13.42921997">
        <ele>547.00000</ele>
        <time>2024-05-10T19:34:18Z</time>
      </trkpt>
      <trkpt lat="42.95546991" lon="13.42923992">
        <ele>547.00000</ele>
        <time>2024-05-10T19:34:19Z</time>
      </trkpt>
      <trkpt lat="42.95544896" lon="13.42926196">
        <ele>547.00000</ele>
        <time>2024-05-10T19:34:19Z</time>
      </trkpt>
      <trkpt lat="42.95542599" lon="13.42928593">
        <ele>548.00000</ele>
        <time>2024-05-10T19:34:20Z</time>
      </trkpt>
      <trkpt lat="42.95540194" lon="13.42930496">
        <ele>548.00000</ele>
        <time>2024-05-10T19:34:20Z</time>
      </trkpt>
      <trkpt lat="42.95537997" lon="13.42932692">
        <ele>548.00000</ele>
        <time>2024-05-10T19:34:21Z</time>
      </trkpt>
      <trkpt lat="42.95535592" lon="13.42934293">
        <ele>549.00000</ele>
        <time>2024-05-10T19:34:21Z</time>
      </trkpt>
      <trkpt lat="42.95533295" lon="13.42935492">
        <ele>549.00000</ele>
        <time>2024-05-10T19:34:22Z</time>
      </trkpt>
      <trkpt lat="42.95530596" lon="13.42936598">
        <ele>550.00000</ele>
        <time>2024-05-10T19:34:22Z</time>
      </trkpt>
      <trkpt lat="42.95527797" lon="13.42937495">
        <ele>552.00000</ele>
        <time>2024-05-10T19:34:23Z</time>
      </trkpt>
      <trkpt lat="42.95525299" lon="13.42938392">
        <ele>551.00000</ele>
        <time>2024-05-10T19:34:23Z</time>
      </trkpt>
      <trkpt lat="42.95523195" lon="13.42939892">
        <ele>551.00000</ele>
        <time>2024-05-10T19:34:24Z</time>
      </trkpt>
      <trkpt lat="42.95521091" lon="13.42941795">
        <ele>550.00000</ele>
        <time>2024-05-10T19:34:24Z</time>
      </trkpt>
      <trkpt lat="42.95519096" lon="13.42943497">
        <ele>550.00000</ele>
        <time>2024-05-10T19:34:25Z</time>
      </trkpt>
      <trkpt lat="42.95516992" lon="13.42944997">
        <ele>549.00000</ele>
        <time>2024-05-10T19:34:25Z</time>
      </trkpt>
      <trkpt lat="42.95514495" lon="13.42945994">
        <ele>549.00000</ele>
        <time>2024-05-10T19:34:26Z</time>
      </trkpt>
      <trkpt lat="42.95511896" lon="13.42947294">
        <ele>548.00000</ele>
        <time>2024-05-10T19:34:26Z</time>
      </trkpt>
      <trkpt lat="42.95509097" lon="13.42947696">
        <ele>548.00000</ele>
        <time>2024-05-10T19:34:27Z</time>
      </trkpt>
      <trkpt lat="42.95506892" lon="13.42948894">
        <ele>548.00000</ele>
        <time>2024-05-10T19:34:27Z</time>
      </trkpt>
      <trkpt lat="42.95504294" lon="13.42949699">
        <ele>548.00000</ele>
        <time>2024-05-10T19:34:28Z</time>
      </trkpt>
      <trkpt lat="42.95501595" lon="13.42950898">
        <ele>547.00000</ele>
        <time>2024-05-10T19:34:29Z</time>
      </trkpt>
      <trkpt lat="42.95499097" lon="13.42951795">
        <ele>547.00000</ele>
        <time>2024-05-10T19:34:29Z</time>
      </trkpt>
      <trkpt lat="42.95496893" lon="13.42953396">
        <ele>548.00000</ele>
        <time>2024-05-10T19:34:30Z</time>
      </trkpt>
      <trkpt lat="42.95494495" lon="13.42954695">
        <ele>548.00000</ele>
        <time>2024-05-10T19:34:30Z</time>
      </trkpt>
      <trkpt lat="42.95491897" lon="13.42955793">
        <ele>549.00000</ele>
        <time>2024-05-10T19:34:31Z</time>
      </trkpt>
      <trkpt lat="42.95489491" lon="13.42956799">
        <ele>549.00000</ele>
        <time>2024-05-10T19:34:31Z</time>
      </trkpt>
      <trkpt lat="42.95487094" lon="13.42957695">
        <ele>549.00000</ele>
        <time>2024-05-10T19:34:32Z</time>
      </trkpt>
      <trkpt lat="42.95484798" lon="13.42958693">
        <ele>549.00000</ele>
        <time>2024-05-10T19:34:32Z</time>
      </trkpt>
      <trkpt lat="42.95482593" lon="13.42959892">
        <ele>550.00000</ele>
        <time>2024-05-10T19:34:33Z</time>
      </trkpt>
      <trkpt lat="42.95480397" lon="13.42961291">
        <ele>550.00000</ele>
        <time>2024-05-10T19:34:33Z</time>
      </trkpt>
      <trkpt lat="42.95478293" lon="13.42962498">
        <ele>549.00000</ele>
        <time>2024-05-10T19:34:33Z</time>
      </trkpt>
      <trkpt lat="42.95476198" lon="13.42963496">
        <ele>550.00000</ele>
        <time>2024-05-10T19:34:34Z</time>
      </trkpt>
      <trkpt lat="42.95473893" lon="13.42964694">
        <ele>549.00000</ele>
        <time>2024-05-10T19:34:34Z</time>
      </trkpt>
      <trkpt lat="42.95471495" lon="13.42965692">
        <ele>550.00000</ele>
        <time>2024-05-10T19:34:35Z</time>
      </trkpt>
      <trkpt lat="42.95468998" lon="13.42967192">
        <ele>550.00000</ele>
        <time>2024-05-10T19:34:35Z</time>
      </trkpt>
      <trkpt lat="42.95466299" lon="13.42968299">
        <ele>550.00000</ele>
        <time>2024-05-10T19:34:36Z</time>
      </trkpt>
      <trkpt lat="42.95463792" lon="13.42968793">
        <ele>551.00000</ele>
        <time>2024-05-10T19:34:37Z</time>
      </trkpt>
      <trkpt lat="42.95461496" lon="13.42969598">
        <ele>551.00000</ele>
        <time>2024-05-10T19:34:37Z</time>
      </trkpt>
      <trkpt lat="42.95459199" lon="13.42970092">
        <ele>552.00000</ele>
        <time>2024-05-10T19:34:37Z</time>
      </trkpt>
      <trkpt lat="42.95456693" lon="13.42970293">
        <ele>553.00000</ele>
        <time>2024-05-10T19:34:38Z</time>
      </trkpt>
      <trkpt lat="42.95454095" lon="13.42969899">
        <ele>555.00000</ele>
        <time>2024-05-10T19:34:39Z</time>
      </trkpt>
      <trkpt lat="42.95451396" lon="13.42970092">
        <ele>556.00000</ele>
        <time>2024-05-10T19:34:39Z</time>
      </trkpt>
      <trkpt lat="42.95448898" lon="13.42969899">
        <ele>557.00000</ele>
        <time>2024-05-10T19:34:40Z</time>
      </trkpt>
      <trkpt lat="42.95446299" lon="13.42969899">
        <ele>558.00000</ele>
        <time>2024-05-10T19:34:40Z</time>
      </trkpt>
      <trkpt lat="42.95443592" lon="13.42969598">
        <ele>559.00000</ele>
        <time>2024-05-10T19:34:41Z</time>
      </trkpt>
      <trkpt lat="42.95440994" lon="13.42969992">
        <ele>559.00000</ele>
        <time>2024-05-10T19:34:41Z</time>
      </trkpt>
      <trkpt lat="42.95438798" lon="13.42970394">
        <ele>559.00000</ele>
        <time>2024-05-10T19:34:42Z</time>
      </trkpt>
      <trkpt lat="42.95436291" lon="13.42970595">
        <ele>559.00000</ele>
        <time>2024-05-10T19:34:42Z</time>
      </trkpt>
      <trkpt lat="42.95434095" lon="13.42971299">
        <ele>559.00000</ele>
        <time>2024-05-10T19:34:43Z</time>
      </trkpt>
      <trkpt lat="42.95432092" lon="13.42972498">
        <ele>559.00000</ele>
        <time>2024-05-10T19:34:43Z</time>
      </trkpt>
      <trkpt lat="42.95429695" lon="13.42973696">
        <ele>558.00000</ele>
        <time>2024-05-10T19:34:43Z</time>
      </trkpt>
      <trkpt lat="42.95427298" lon="13.42975599">
        <ele>558.00000</ele>
        <time>2024-05-10T19:34:44Z</time>
      </trkpt>
      <trkpt lat="42.95424699" lon="13.42976999">
        <ele>557.00000</ele>
        <time>2024-05-10T19:34:45Z</time>
      </trkpt>
      <trkpt lat="42.95421891" lon="13.42978198">
        <ele>557.00000</ele>
        <time>2024-05-10T19:34:45Z</time>
      </trkpt>
      <trkpt lat="42.95419394" lon="13.42979396">
        <ele>557.00000</ele>
        <time>2024-05-10T19:34:46Z</time>
      </trkpt>
      <trkpt lat="42.95416695" lon="13.42980494">
        <ele>557.00000</ele>
        <time>2024-05-10T19:34:46Z</time>
      </trkpt>
      <trkpt lat="42.95414297" lon="13.42981592">
        <ele>556.00000</ele>
        <time>2024-05-10T19:34:47Z</time>
      </trkpt>
      <trkpt lat="42.95411397" lon="13.42982196">
        <ele>556.00000</ele>
        <time>2024-05-10T19:34:47Z</time>
      </trkpt>
      <trkpt lat="42.95407994" lon="13.42982799">
        <ele>555.00000</ele>
        <time>2024-05-10T19:34:48Z</time>
      </trkpt>
      <trkpt lat="42.95404692" lon="13.42982598">
        <ele>555.00000</ele>
        <time>2024-05-10T19:34:49Z</time>
      </trkpt>
      <trkpt lat="42.95401599" lon="13.42981995">
        <ele>555.00000</ele>
        <time>2024-05-10T19:34:49Z</time>
      </trkpt>
      <trkpt lat="42.95398799" lon="13.42980695">
        <ele>556.00000</ele>
        <time>2024-05-10T19:34:50Z</time>
      </trkpt>
      <trkpt lat="42.95396192" lon="13.42978793">
        <ele>556.00000</ele>
        <time>2024-05-10T19:34:51Z</time>
      </trkpt>
      <trkpt lat="42.95393493" lon="13.42977091">
        <ele>557.00000</ele>
        <time>2024-05-10T19:34:51Z</time>
      </trkpt>
      <trkpt lat="42.95391096" lon="13.42975096">
        <ele>558.00000</ele>
        <time>2024-05-10T19:34:52Z</time>
      </trkpt>
      <trkpt lat="42.95389395" lon="13.42973093">
        <ele>558.00000</ele>
        <time>2024-05-10T19:34:52Z</time>
      </trkpt>
      <trkpt lat="42.95387693" lon="13.42970394">
        <ele>560.00000</ele>
        <time>2024-05-10T19:34:53Z</time>
      </trkpt>
      <trkpt lat="42.95385598" lon="13.42967796">
        <ele>561.00000</ele>
        <time>2024-05-10T19:34:53Z</time>
      </trkpt>
      <trkpt lat="42.95383293" lon="13.42965298">
        <ele>562.00000</ele>
        <time>2024-05-10T19:34:54Z</time>
      </trkpt>
      <trkpt lat="42.95381499" lon="13.42963395">
        <ele>563.00000</ele>
        <time>2024-05-10T19:34:54Z</time>
      </trkpt>
      <trkpt lat="42.95379797" lon="13.42961392">
        <ele>565.00000</ele>
        <time>2024-05-10T19:34:55Z</time>
      </trkpt>
      <trkpt lat="42.95378096" lon="13.42959598">
        <ele>566.00000</ele>
        <time>2024-05-10T19:34:55Z</time>
      </trkpt>
      <trkpt lat="42.95375891" lon="13.42958198">
        <ele>566.00000</ele>
        <time>2024-05-10T19:34:56Z</time>
      </trkpt>
      <trkpt lat="42.95373897" lon="13.42956799">
        <ele>567.00000</ele>
        <time>2024-05-10T19:34:56Z</time>
      </trkpt>
      <trkpt lat="42.95371592" lon="13.42956095">
        <ele>567.00000</ele>
        <time>2024-05-10T19:34:57Z</time>
      </trkpt>
      <trkpt lat="42.95368792" lon="13.42955499">
        <ele>568.00000</ele>
        <time>2024-05-10T19:34:57Z</time>
      </trkpt>
      <trkpt lat="42.95365892" lon="13.42955298">
        <ele>568.00000</ele>
        <time>2024-05-10T19:34:58Z</time>
      </trkpt>
      <trkpt lat="42.95362296" lon="13.42955893">
        <ele>568.00000</ele>
        <time>2024-05-10T19:34:58Z</time>
      </trkpt>
      <trkpt lat="42.95359094" lon="13.42957293">
        <ele>568.00000</ele>
        <time>2024-05-10T19:34:59Z</time>
      </trkpt>
      <trkpt lat="42.95356194" lon="13.42958894">
        <ele>568.00000</ele>
        <time>2024-05-10T19:35:00Z</time>
      </trkpt>
      <trkpt lat="42.95353596" lon="13.42960797">
        <ele>567.00000</ele>
        <time>2024-05-10T19:35:00Z</time>
      </trkpt>
      <trkpt lat="42.95351299" lon="13.42962599">
        <ele>567.00000</ele>
        <time>2024-05-10T19:35:01Z</time>
      </trkpt>
      <trkpt lat="42.95348994" lon="13.42964896">
        <ele>567.00000</ele>
        <time>2024-05-10T19:35:01Z</time>
      </trkpt>
      <trkpt lat="42.95346295" lon="13.42966899">
        <ele>566.00000</ele>
        <time>2024-05-10T19:35:02Z</time>
      </trkpt>
      <trkpt lat="42.95343697" lon="13.42968793">
        <ele>566.00000</ele>
        <time>2024-05-10T19:35:03Z</time>
      </trkpt>
      <trkpt lat="42.95341894" lon="13.42971098">
        <ele>566.00000</ele>
        <time>2024-05-10T19:35:03Z</time>
      </trkpt>
      <trkpt lat="42.95340394" lon="13.42973294">
        <ele>565.00000</ele>
        <time>2024-05-10T19:35:04Z</time>
      </trkpt>
      <trkpt lat="42.95338793" lon="13.42975993">
        <ele>565.00000</ele>
        <time>2024-05-10T19:35:04Z</time>
      </trkpt>
      <trkpt lat="42.95337494" lon="13.42978399">
        <ele>565.00000</ele>
        <time>2024-05-10T19:35:04Z</time>
      </trkpt>
      <trkpt lat="42.95335893" lon="13.42980595">
        <ele>564.00000</ele>
        <time>2024-05-10T19:35:05Z</time>
      </trkpt>
      <trkpt lat="42.95334191" lon="13.42982891">
        <ele>564.00000</ele>
        <time>2024-05-10T19:35:05Z</time>
      </trkpt>
      <trkpt lat="42.95331995" lon="13.42985096">
        <ele>564.00000</ele>
        <time>2024-05-10T19:35:06Z</time>
      </trkpt>
      <trkpt lat="42.95329498" lon="13.42987099">
        <ele>564.00000</ele>
        <time>2024-05-10T19:35:07Z</time>
      </trkpt>
      <trkpt lat="42.95326991" lon="13.42988893">
        <ele>564.00000</ele>
        <time>2024-05-10T19:35:07Z</time>
      </trkpt>
      <trkpt lat="42.95324292" lon="13.42990092">
        <ele>565.00000</ele>
        <time>2024-05-10T19:35:08Z</time>
      </trkpt>
      <trkpt lat="42.95321292" lon="13.42990796">
        <ele>565.00000</ele>
        <time>2024-05-10T19:35:08Z</time>
      </trkpt>
      <trkpt lat="42.95318693" lon="13.42990997">
        <ele>566.00000</ele>
        <time>2024-05-10T19:35:09Z</time>
      </trkpt>
      <trkpt lat="42.95316196" lon="13.42990796">
        <ele>566.00000</ele>
        <time>2024-05-10T19:35:09Z</time>
      </trkpt>
      <trkpt lat="42.95313899" lon="13.42990092">
        <ele>567.00000</ele>
        <time>2024-05-10T19:35:10Z</time>
      </trkpt>
      <trkpt lat="42.95311393" lon="13.42989496">
        <ele>568.00000</ele>
        <time>2024-05-10T19:35:10Z</time>
      </trkpt>
      <trkpt lat="42.95308995" lon="13.42988893">
        <ele>569.00000</ele>
        <time>2024-05-10T19:35:11Z</time>
      </trkpt>
      <trkpt lat="42.95306498" lon="13.42988398">
        <ele>570.00000</ele>
        <time>2024-05-10T19:35:11Z</time>
      </trkpt>
      <trkpt lat="42.95304293" lon="13.42988398">
        <ele>571.00000</ele>
        <time>2024-05-10T19:35:12Z</time>
      </trkpt>
      <trkpt lat="42.95301594" lon="13.42988591">
        <ele>571.00000</ele>
        <time>2024-05-10T19:35:12Z</time>
      </trkpt>
      <trkpt lat="42.95299096" lon="13.42989597">
        <ele>571.00000</ele>
        <time>2024-05-10T19:35:13Z</time>
      </trkpt>
      <trkpt lat="42.95296498" lon="13.42990494">
        <ele>571.00000</ele>
        <time>2024-05-10T19:35:13Z</time>
      </trkpt>
      <trkpt lat="42.95293598" lon="13.42991097">
        <ele>572.00000</ele>
        <time>2024-05-10T19:35:14Z</time>
      </trkpt>
      <trkpt lat="42.95291293" lon="13.42992296">
        <ele>572.00000</ele>
        <time>2024-05-10T19:35:14Z</time>
      </trkpt>
      <trkpt lat="42.95288393" lon="13.42992497">
        <ele>572.00000</ele>
        <time>2024-05-10T19:35:15Z</time>
      </trkpt>
      <trkpt lat="42.95285996" lon="13.42993394">
        <ele>572.00000</ele>
        <time>2024-05-10T19:35:15Z</time>
      </trkpt>
      <trkpt lat="42.95283598" lon="13.42994693">
        <ele>572.00000</ele>
        <time>2024-05-10T19:35:16Z</time>
      </trkpt>
      <trkpt lat="42.95281595" lon="13.42995598">
        <ele>572.00000</ele>
        <time>2024-05-10T19:35:16Z</time>
      </trkpt>
      <trkpt lat="42.95279298" lon="13.42996495">
        <ele>572.00000</ele>
        <time>2024-05-10T19:35:17Z</time>
      </trkpt>
      <trkpt lat="42.95276792" lon="13.42997694">
        <ele>571.00000</ele>
        <time>2024-05-10T19:35:17Z</time>
      </trkpt>
      <trkpt lat="42.95274194" lon="13.42998499">
        <ele>571.00000</ele>
        <time>2024-05-10T19:35:18Z</time>
      </trkpt>
      <trkpt lat="42.95271897" lon="13.42999496">
        <ele>570.00000</ele>
        <time>2024-05-10T19:35:18Z</time>
      </trkpt>
      <trkpt lat="42.95269793" lon="13.43000493">
        <ele>570.00000</ele>
        <time>2024-05-10T19:35:19Z</time>
      </trkpt>
      <trkpt lat="42.95267396" lon="13.43001499">
        <ele>569.00000</ele>
        <time>2024-05-10T19:35:19Z</time>
      </trkpt>
      <trkpt lat="42.95265493" lon="13.43002396">
        <ele>569.00000</ele>
        <time>2024-05-10T19:35:20Z</time>
      </trkpt>
      <trkpt lat="42.95263197" lon="13.43003192">
        <ele>569.00000</ele>
        <time>2024-05-10T19:35:20Z</time>
      </trkpt>
      <trkpt lat="42.95260892" lon="13.43003695">
        <ele>569.00000</ele>
        <time>2024-05-10T19:35:21Z</time>
      </trkpt>
      <trkpt lat="42.95258193" lon="13.43003896">
        <ele>569.00000</ele>
        <time>2024-05-10T19:35:21Z</time>
      </trkpt>
      <trkpt lat="42.95255293" lon="13.43004299">
        <ele>569.00000</ele>
        <time>2024-05-10T19:35:22Z</time>
      </trkpt>
      <trkpt lat="42.95252392" lon="13.43005296">
        <ele>569.00000</ele>
        <time>2024-05-10T19:35:22Z</time>
      </trkpt>
      <trkpt lat="42.95249794" lon="13.43006093">
        <ele>569.00000</ele>
        <time>2024-05-10T19:35:23Z</time>
      </trkpt>
      <trkpt lat="42.95247397" lon="13.43006495">
        <ele>569.00000</ele>
        <time>2024-05-10T19:35:23Z</time>
      </trkpt>
      <trkpt lat="42.95244698" lon="13.43006998">
        <ele>569.00000</ele>
        <time>2024-05-10T19:35:24Z</time>
      </trkpt>
      <trkpt lat="42.95242292" lon="13.43006696">
        <ele>569.00000</ele>
        <time>2024-05-10T19:35:24Z</time>
      </trkpt>
      <trkpt lat="42.95239794" lon="13.43005891">
        <ele>569.00000</ele>
        <time>2024-05-10T19:35:25Z</time>
      </trkpt>
      <trkpt lat="42.95237196" lon="13.43005095">
        <ele>570.00000</ele>
        <time>2024-05-10T19:35:26Z</time>
      </trkpt>
      <trkpt lat="42.95234799" lon="13.43003997">
        <ele>570.00000</ele>
        <time>2024-05-10T19:35:26Z</time>
      </trkpt>
      <trkpt lat="42.95232393" lon="13.43002497">
        <ele>571.00000</ele>
        <time>2024-05-10T19:35:27Z</time>
      </trkpt>
      <trkpt lat="42.95230197" lon="13.43000996">
        <ele>572.00000</ele>
        <time>2024-05-10T19:35:27Z</time>
      </trkpt>
      <trkpt lat="42.95228194" lon="13.42999597">
        <ele>573.00000</ele>
        <time>2024-05-10T19:35:27Z</time>
      </trkpt>
      <trkpt lat="42.95225897" lon="13.42998398">
        <ele>573.00000</ele>
        <time>2024-05-10T19:35:28Z</time>
      </trkpt>
      <trkpt lat="42.95223592" lon="13.42997292">
        <ele>574.00000</ele>
        <time>2024-05-10T19:35:28Z</time>
      </trkpt>
      <trkpt lat="42.95221296" lon="13.42996797">
        <ele>574.00000</ele>
        <time>2024-05-10T19:35:29Z</time>
      </trkpt>
      <trkpt lat="42.95219594" lon="13.42995992">
        <ele>575.00000</ele>
        <time>2024-05-10T19:35:29Z</time>
      </trkpt>
      <trkpt lat="42.95217893" lon="13.42994894">
        <ele>576.00000</ele>
        <time>2024-05-10T19:35:30Z</time>
      </trkpt>
      <trkpt lat="42.95216392" lon="13.42993595">
        <ele>576.00000</ele>
        <time>2024-05-10T19:35:30Z</time>
      </trkpt>
      <trkpt lat="42.95214791" lon="13.42992698">
        <ele>577.00000</ele>
        <time>2024-05-10T19:35:30Z</time>
      </trkpt>
      <trkpt lat="42.95212998" lon="13.42992296">
        <ele>578.00000</ele>
        <time>2024-05-10T19:35:31Z</time>
      </trkpt>
      <trkpt lat="42.95210592" lon="13.42991994">
        <ele>578.00000</ele>
        <time>2024-05-10T19:35:31Z</time>
      </trkpt>
      <trkpt lat="42.95207994" lon="13.42991592">
        <ele>579.00000</ele>
        <time>2024-05-10T19:35:32Z</time>
      </trkpt>
      <trkpt lat="42.95205898" lon="13.42991198">
        <ele>579.00000</ele>
        <time>2024-05-10T19:35:32Z</time>
      </trkpt>
      <trkpt lat="42.95203199" lon="13.42991399">
        <ele>579.00000</ele>
        <time>2024-05-10T19:35:33Z</time>
      </trkpt>
      <trkpt lat="42.95199796" lon="13.42991793">
        <ele>580.00000</ele>
        <time>2024-05-10T19:35:33Z</time>
      </trkpt>
      <trkpt lat="42.95196494" lon="13.42992195">
        <ele>580.00000</ele>
        <time>2024-05-10T19:35:34Z</time>
      </trkpt>
      <trkpt lat="42.95192898" lon="13.42992497">
        <ele>580.00000</ele>
        <time>2024-05-10T19:35:35Z</time>
      </trkpt>
      <trkpt lat="42.95188891" lon="13.42993394">
        <ele>580.00000</ele>
        <time>2024-05-10T19:35:36Z</time>
      </trkpt>
      <trkpt lat="42.95184994" lon="13.42994098">
        <ele>580.00000</ele>
        <time>2024-05-10T19:35:36Z</time>
      </trkpt>
      <trkpt lat="42.95181599" lon="13.42994693">
        <ele>581.00000</ele>
        <time>2024-05-10T19:35:37Z</time>
      </trkpt>
      <trkpt lat="42.95178699" lon="13.42995498">
        <ele>581.00000</ele>
        <time>2024-05-10T19:35:38Z</time>
      </trkpt>
      <trkpt lat="42.95176394" lon="13.42995397">
        <ele>581.00000</ele>
        <time>2024-05-10T19:35:38Z</time>
      </trkpt>
      <trkpt lat="42.95174793" lon="13.42995196">
        <ele>581.00000</ele>
        <time>2024-05-10T19:35:38Z</time>
      </trkpt>
      <trkpt lat="42.95173292" lon="13.42995196">
        <ele>582.00000</ele>
        <time>2024-05-10T19:35:39Z</time>
      </trkpt>
      <trkpt lat="42.95171792" lon="13.42995791">
        <ele>581.00000</ele>
        <time>2024-05-10T19:35:39Z</time>
      </trkpt>
      <trkpt lat="42.95169797" lon="13.42996998">
        <ele>581.00000</ele>
        <time>2024-05-10T19:35:39Z</time>
      </trkpt>
      <trkpt lat="42.95168096" lon="13.42998499">
        <ele>581.00000</ele>
        <time>2024-05-10T19:35:40Z</time>
      </trkpt>
      <trkpt lat="42.95165698" lon="13.42999496">
        <ele>581.00000</ele>
        <time>2024-05-10T19:35:40Z</time>
      </trkpt>
      <trkpt lat="42.95163595" lon="13.43000594">
        <ele>581.00000</ele>
        <time>2024-05-10T19:35:41Z</time>
      </trkpt>
      <trkpt lat="42.95161298" lon="13.43001499">
        <ele>582.00000</ele>
        <time>2024-05-10T19:35:41Z</time>
      </trkpt>
      <trkpt lat="42.95159094" lon="13.43001994">
        <ele>582.00000</ele>
        <time>2024-05-10T19:35:42Z</time>
      </trkpt>
      <trkpt lat="42.95156696" lon="13.43002991">
        <ele>583.00000</ele>
        <time>2024-05-10T19:35:42Z</time>
      </trkpt>
      <trkpt lat="42.95154693" lon="13.43003796">
        <ele>583.00000</ele>
        <time>2024-05-10T19:35:43Z</time>
      </trkpt>
      <trkpt lat="42.95152396" lon="13.43004299">
        <ele>584.00000</ele>
        <time>2024-05-10T19:35:43Z</time>
      </trkpt>
      <trkpt lat="42.95150293" lon="13.43004894">
        <ele>584.00000</ele>
        <time>2024-05-10T19:35:44Z</time>
      </trkpt>
      <trkpt lat="42.95148298" lon="13.43005891">
        <ele>584.00000</ele>
        <time>2024-05-10T19:35:44Z</time>
      </trkpt>
      <trkpt lat="42.95146194" lon="13.43006495">
        <ele>585.00000</ele>
        <time>2024-05-10T19:35:44Z</time>
      </trkpt>
      <trkpt lat="42.95144098" lon="13.43007995">
        <ele>585.00000</ele>
        <time>2024-05-10T19:35:45Z</time>
      </trkpt>
      <trkpt lat="42.95142196" lon="13.43010292">
        <ele>585.00000</ele>
        <time>2024-05-10T19:35:45Z</time>
      </trkpt>
      <trkpt lat="42.95140394" lon="13.43012899">
        <ele>585.00000</ele>
        <time>2024-05-10T19:35:46Z</time>
      </trkpt>
      <trkpt lat="42.95138298" lon="13.43015195">
        <ele>585.00000</ele>
        <time>2024-05-10T19:35:46Z</time>
      </trkpt>
      <trkpt lat="42.95136496" lon="13.43017593">
        <ele>585.00000</ele>
        <time>2024-05-10T19:35:47Z</time>
      </trkpt>
      <trkpt lat="42.95134794" lon="13.43019596">
        <ele>586.00000</ele>
        <time>2024-05-10T19:35:47Z</time>
      </trkpt>
      <trkpt lat="42.95133294" lon="13.43021993">
        <ele>586.00000</ele>
        <time>2024-05-10T19:35:48Z</time>
      </trkpt>
      <trkpt lat="42.95131391" lon="13.43024399">
        <ele>586.00000</ele>
        <time>2024-05-10T19:35:48Z</time>
      </trkpt>
      <trkpt lat="42.95129698" lon="13.43027098">
        <ele>586.00000</ele>
        <time>2024-05-10T19:35:49Z</time>
      </trkpt>
      <trkpt lat="42.95127896" lon="13.43029495">
        <ele>587.00000</ele>
        <time>2024-05-10T19:35:49Z</time>
      </trkpt>
      <trkpt lat="42.95125993" lon="13.43031791">
        <ele>587.00000</ele>
        <time>2024-05-10T19:35:50Z</time>
      </trkpt>
      <trkpt lat="42.95124594" lon="13.43034692">
        <ele>588.00000</ele>
        <time>2024-05-10T19:35:50Z</time>
      </trkpt>
      <trkpt lat="42.95123093" lon="13.43037097">
        <ele>588.00000</ele>
        <time>2024-05-10T19:35:51Z</time>
      </trkpt>
      <trkpt lat="42.95122096" lon="13.43039394">
        <ele>588.00000</ele>
        <time>2024-05-10T19:35:51Z</time>
      </trkpt>
      <trkpt lat="42.95121291" lon="13.43042093">
        <ele>588.00000</ele>
        <time>2024-05-10T19:35:52Z</time>
      </trkpt>
      <trkpt lat="42.95120696" lon="13.43044993">
        <ele>588.00000</ele>
        <time>2024-05-10T19:35:52Z</time>
      </trkpt>
      <trkpt lat="42.95120193" lon="13.43047994">
        <ele>588.00000</ele>
        <time>2024-05-10T19:35:53Z</time>
      </trkpt>
      <trkpt lat="42.95119699" lon="13.43051497">
        <ele>587.00000</ele>
        <time>2024-05-10T19:35:53Z</time>
      </trkpt>
      <trkpt lat="42.95119296" lon="13.43055294">
        <ele>587.00000</ele>
        <time>2024-05-10T19:35:54Z</time>
      </trkpt>
      <trkpt lat="42.95119196" lon="13.43059393">
        <ele>586.00000</ele>
        <time>2024-05-10T19:35:54Z</time>
      </trkpt>
      <trkpt lat="42.95118894" lon="13.43063391">
        <ele>586.00000</ele>
        <time>2024-05-10T19:35:55Z</time>
      </trkpt>
      <trkpt lat="42.95118399" lon="13.43067096">
        <ele>585.00000</ele>
        <time>2024-05-10T19:35:55Z</time>
      </trkpt>
      <trkpt lat="42.95118098" lon="13.43070499">
        <ele>584.00000</ele>
        <time>2024-05-10T19:35:56Z</time>
      </trkpt>
      <trkpt lat="42.95117695" lon="13.43073491">
        <ele>584.00000</ele>
        <time>2024-05-10T19:35:56Z</time>
      </trkpt>
      <trkpt lat="42.95117293" lon="13.43076392">
        <ele>583.00000</ele>
        <time>2024-05-10T19:35:57Z</time>
      </trkpt>
      <trkpt lat="42.95117394" lon="13.43078898">
        <ele>583.00000</ele>
        <time>2024-05-10T19:35:57Z</time>
      </trkpt>
      <trkpt lat="42.95117595" lon="13.43081295">
        <ele>582.00000</ele>
        <time>2024-05-10T19:35:58Z</time>
      </trkpt>
      <trkpt lat="42.95117695" lon="13.43084095">
        <ele>582.00000</ele>
        <time>2024-05-10T19:35:58Z</time>
      </trkpt>
      <trkpt lat="42.95117595" lon="13.43086894">
        <ele>581.00000</ele>
        <time>2024-05-10T19:35:58Z</time>
      </trkpt>
      <trkpt lat="42.95117494" lon="13.43089895">
        <ele>580.00000</ele>
        <time>2024-05-10T19:35:59Z</time>
      </trkpt>
      <trkpt lat="42.95117092" lon="13.43092996">
        <ele>580.00000</ele>
        <time>2024-05-10T19:35:59Z</time>
      </trkpt>
      <trkpt lat="42.95116698" lon="13.43096097">
        <ele>579.00000</ele>
        <time>2024-05-10T19:36:00Z</time>
      </trkpt>
      <trkpt lat="42.95115591" lon="13.43099199">
        <ele>579.00000</ele>
        <time>2024-05-10T19:36:00Z</time>
      </trkpt>
      <trkpt lat="42.95113798" lon="13.43102493">
        <ele>578.00000</ele>
        <time>2024-05-10T19:36:01Z</time>
      </trkpt>
      <trkpt lat="42.95112297" lon="13.43105494">
        <ele>578.00000</ele>
        <time>2024-05-10T19:36:01Z</time>
      </trkpt>
      <trkpt lat="42.95110395" lon="13.43107991">
        <ele>578.00000</ele>
        <time>2024-05-10T19:36:02Z</time>
      </trkpt>
      <trkpt lat="42.95108391" lon="13.43110598">
        <ele>577.00000</ele>
        <time>2024-05-10T19:36:02Z</time>
      </trkpt>
      <trkpt lat="42.95105994" lon="13.43112995">
        <ele>577.00000</ele>
        <time>2024-05-10T19:36:03Z</time>
      </trkpt>
      <trkpt lat="42.95103899" lon="13.43114999">
        <ele>577.00000</ele>
        <time>2024-05-10T19:36:04Z</time>
      </trkpt>
      <trkpt lat="42.95101594" lon="13.43115895">
        <ele>578.00000</ele>
        <time>2024-05-10T19:36:04Z</time>
      </trkpt>
      <trkpt lat="42.95099196" lon="13.43117496">
        <ele>578.00000</ele>
        <time>2024-05-10T19:36:05Z</time>
      </trkpt>
      <trkpt lat="42.95097696" lon="13.43119491">
        <ele>578.00000</ele>
        <time>2024-05-10T19:36:05Z</time>
      </trkpt>
      <trkpt lat="42.95095793" lon="13.43120992">
        <ele>578.00000</ele>
        <time>2024-05-10T19:36:05Z</time>
      </trkpt>
      <trkpt lat="42.95093899" lon="13.43122492">
        <ele>578.00000</ele>
        <time>2024-05-10T19:36:06Z</time>
      </trkpt>
      <trkpt lat="42.95091393" lon="13.43123297">
        <ele>578.00000</ele>
        <time>2024-05-10T19:36:06Z</time>
      </trkpt>
      <trkpt lat="42.95088694" lon="13.43124294">
        <ele>579.00000</ele>
        <time>2024-05-10T19:36:07Z</time>
      </trkpt>
      <trkpt lat="42.95086297" lon="13.43125392">
        <ele>579.00000</ele>
        <time>2024-05-10T19:36:07Z</time>
      </trkpt>
      <trkpt lat="42.95083799" lon="13.43126398">
        <ele>579.00000</ele>
        <time>2024-05-10T19:36:08Z</time>
      </trkpt>
      <trkpt lat="42.95081092" lon="13.43127094">
        <ele>580.00000</ele>
        <time>2024-05-10T19:36:09Z</time>
      </trkpt>
      <trkpt lat="42.95078393" lon="13.43127798">
        <ele>581.00000</ele>
        <time>2024-05-10T19:36:09Z</time>
      </trkpt>
      <trkpt lat="42.95075694" lon="13.43128192">
        <ele>581.00000</ele>
        <time>2024-05-10T19:36:10Z</time>
      </trkpt>
      <trkpt lat="42.95072995" lon="13.43128695">
        <ele>582.00000</ele>
        <time>2024-05-10T19:36:10Z</time>
      </trkpt>
      <trkpt lat="42.95070396" lon="13.43129499">
        <ele>583.00000</ele>
        <time>2024-05-10T19:36:11Z</time>
      </trkpt>
      <trkpt lat="42.95067999" lon="13.43129692">
        <ele>584.00000</ele>
        <time>2024-05-10T19:36:11Z</time>
      </trkpt>
      <trkpt lat="42.95065795" lon="13.43129994">
        <ele>584.00000</ele>
        <time>2024-05-10T19:36:12Z</time>
      </trkpt>
      <trkpt lat="42.95063297" lon="13.43129994">
        <ele>585.00000</ele>
        <time>2024-05-10T19:36:12Z</time>
      </trkpt>
      <trkpt lat="42.95060698" lon="13.43130497">
        <ele>586.00000</ele>
        <time>2024-05-10T19:36:13Z</time>
      </trkpt>
      <trkpt lat="42.95058293" lon="13.43131092">
        <ele>586.00000</ele>
        <time>2024-05-10T19:36:13Z</time>
      </trkpt>
      <trkpt lat="42.95055795" lon="13.43131494">
        <ele>587.00000</ele>
        <time>2024-05-10T19:36:14Z</time>
      </trkpt>
      <trkpt lat="42.95053398" lon="13.43131595">
        <ele>588.00000</ele>
        <time>2024-05-10T19:36:14Z</time>
      </trkpt>
      <trkpt lat="42.95050598" lon="13.43131695">
        <ele>589.00000</ele>
        <time>2024-05-10T19:36:15Z</time>
      </trkpt>
      <trkpt lat="42.95047899" lon="13.43131997">
        <ele>590.00000</ele>
        <time>2024-05-10T19:36:15Z</time>
      </trkpt>
      <trkpt lat="42.95045494" lon="13.43132492">
        <ele>591.00000</ele>
        <time>2024-05-10T19:36:16Z</time>
      </trkpt>
      <trkpt lat="42.95043499" lon="13.43132995">
        <ele>592.00000</ele>
        <time>2024-05-10T19:36:16Z</time>
      </trkpt>
      <trkpt lat="42.95041697" lon="13.43133799">
        <ele>592.00000</ele>
        <time>2024-05-10T19:36:16Z</time>
      </trkpt>
      <trkpt lat="42.95039894" lon="13.43134495">
        <ele>593.00000</ele>
        <time>2024-05-10T19:36:17Z</time>
      </trkpt>
      <trkpt lat="42.95037799" lon="13.43135291">
        <ele>594.00000</ele>
        <time>2024-05-10T19:36:17Z</time>
      </trkpt>
      <trkpt lat="42.95035896" lon="13.43136398">
        <ele>594.00000</ele>
        <time>2024-05-10T19:36:18Z</time>
      </trkpt>
      <trkpt lat="42.95033692" lon="13.43137898">
        <ele>595.00000</ele>
        <time>2024-05-10T19:36:18Z</time>
      </trkpt>
      <trkpt lat="42.95031697" lon="13.43138895">
        <ele>595.00000</ele>
        <time>2024-05-10T19:36:19Z</time>
      </trkpt>
      <trkpt lat="42.95029593" lon="13.43140798">
        <ele>596.00000</ele>
        <time>2024-05-10T19:36:19Z</time>
      </trkpt>
      <trkpt lat="42.95027799" lon="13.43142298">
        <ele>596.00000</ele>
        <time>2024-05-10T19:36:20Z</time>
      </trkpt>
      <trkpt lat="42.95025595" lon="13.43144495">
        <ele>597.00000</ele>
        <time>2024-05-10T19:36:20Z</time>
      </trkpt>
      <trkpt lat="42.95023692" lon="13.43146397">
        <ele>597.00000</ele>
        <time>2024-05-10T19:36:21Z</time>
      </trkpt>
      <trkpt lat="42.95021496" lon="13.43148292">
        <ele>598.00000</ele>
        <time>2024-05-10T19:36:21Z</time>
      </trkpt>
      <trkpt lat="42.95019594" lon="13.43149892">
        <ele>598.00000</ele>
        <time>2024-05-10T19:36:22Z</time>
      </trkpt>
      <trkpt lat="42.95017096" lon="13.43150395">
        <ele>599.00000</ele>
        <time>2024-05-10T19:36:22Z</time>
      </trkpt>
      <trkpt lat="42.95014598" lon="13.43151393">
        <ele>599.00000</ele>
        <time>2024-05-10T19:36:23Z</time>
      </trkpt>
      <trkpt lat="42.95011798" lon="13.43152499">
        <ele>600.00000</ele>
        <time>2024-05-10T19:36:23Z</time>
      </trkpt>
      <trkpt lat="42.95008898" lon="13.43153497">
        <ele>601.00000</ele>
        <time>2024-05-10T19:36:24Z</time>
      </trkpt>
      <trkpt lat="42.95006493" lon="13.43153899">
        <ele>601.00000</ele>
        <time>2024-05-10T19:36:24Z</time>
      </trkpt>
      <trkpt lat="42.95003894" lon="13.43154394">
        <ele>602.00000</ele>
        <time>2024-05-10T19:36:25Z</time>
      </trkpt>
      <trkpt lat="42.95001195" lon="13.43154796">
        <ele>603.00000</ele>
        <time>2024-05-10T19:36:25Z</time>
      </trkpt>
      <trkpt lat="42.94998798" lon="13.43154394">
        <ele>603.00000</ele>
        <time>2024-05-10T19:36:26Z</time>
      </trkpt>
      <trkpt lat="42.94996191" lon="13.43154494">
        <ele>604.00000</ele>
        <time>2024-05-10T19:36:26Z</time>
      </trkpt>
      <trkpt lat="42.94993995" lon="13.43154394">
        <ele>604.00000</ele>
        <time>2024-05-10T19:36:27Z</time>
      </trkpt>
      <trkpt lat="42.94991799" lon="13.43154494">
        <ele>605.00000</ele>
        <time>2024-05-10T19:36:27Z</time>
      </trkpt>
      <trkpt lat="42.94989595" lon="13.43154695">
        <ele>605.00000</ele>
        <time>2024-05-10T19:36:28Z</time>
      </trkpt>
      <trkpt lat="42.94987097" lon="13.43155299">
        <ele>606.00000</ele>
        <time>2024-05-10T19:36:28Z</time>
      </trkpt>
      <trkpt lat="42.94984892" lon="13.43156799">
        <ele>606.00000</ele>
        <time>2024-05-10T19:36:29Z</time>
      </trkpt>
      <trkpt lat="42.94983392" lon="13.43158794">
        <ele>607.00000</ele>
        <time>2024-05-10T19:36:29Z</time>
      </trkpt>
      <trkpt lat="42.94981992" lon="13.43161594">
        <ele>607.00000</ele>
        <time>2024-05-10T19:36:29Z</time>
      </trkpt>
      <trkpt lat="42.94981598" lon="13.43163999">
        <ele>607.00000</ele>
        <time>2024-05-10T19:36:30Z</time>
      </trkpt>
      <trkpt lat="42.94982093" lon="13.43166296">
        <ele>607.00000</ele>
        <time>2024-05-10T19:36:30Z</time>
      </trkpt>
      <trkpt lat="42.94983099" lon="13.43168199">
        <ele>607.00000</ele>
        <time>2024-05-10T19:36:31Z</time>
      </trkpt>
      <trkpt lat="42.94984398" lon="13.43169598">
        <ele>607.00000</ele>
        <time>2024-05-10T19:36:31Z</time>
      </trkpt>
      <trkpt lat="42.94986493" lon="13.43170696">
        <ele>607.00000</ele>
        <time>2024-05-10T19:36:31Z</time>
      </trkpt>
      <trkpt lat="42.94988991" lon="13.43171694">
        <ele>606.00000</ele>
        <time>2024-05-10T19:36:32Z</time>
      </trkpt>
      <trkpt lat="42.94991397" lon="13.43172993">
        <ele>606.00000</ele>
        <time>2024-05-10T19:36:32Z</time>
      </trkpt>
      <trkpt lat="42.94993098" lon="13.43174292">
        <ele>605.00000</ele>
        <time>2024-05-10T19:36:33Z</time>
      </trkpt>
      <trkpt lat="42.94994791" lon="13.43175893">
        <ele>605.00000</ele>
        <time>2024-05-10T19:36:33Z</time>
      </trkpt>
      <trkpt lat="42.94996493" lon="13.43177997">
        <ele>605.00000</ele>
        <time>2024-05-10T19:36:34Z</time>
      </trkpt>
      <trkpt lat="42.94998597" lon="13.43180495">
        <ele>604.00000</ele>
        <time>2024-05-10T19:36:34Z</time>
      </trkpt>
      <trkpt lat="42.95000592" lon="13.43182398">
        <ele>604.00000</ele>
        <time>2024-05-10T19:36:35Z</time>
      </trkpt>
      <trkpt lat="42.95002193" lon="13.43185599">
        <ele>604.00000</ele>
        <time>2024-05-10T19:36:35Z</time>
      </trkpt>
      <trkpt lat="42.95003794" lon="13.43188592">
        <ele>604.00000</ele>
        <time>2024-05-10T19:36:36Z</time>
      </trkpt>
      <trkpt lat="42.95005395" lon="13.43191299">
        <ele>603.00000</ele>
        <time>2024-05-10T19:36:36Z</time>
      </trkpt>
      <trkpt lat="42.95006996" lon="13.43193797">
        <ele>603.00000</ele>
        <time>2024-05-10T19:36:37Z</time>
      </trkpt>
      <trkpt lat="42.95008496" lon="13.43195599">
        <ele>603.00000</ele>
        <time>2024-05-10T19:36:37Z</time>
      </trkpt>
      <trkpt lat="42.95010298" lon="13.43197795">
        <ele>603.00000</ele>
        <time>2024-05-10T19:36:38Z</time>
      </trkpt>
      <trkpt lat="42.95012393" lon="13.43199899">
        <ele>603.00000</ele>
        <time>2024-05-10T19:36:38Z</time>
      </trkpt>
      <trkpt lat="42.95014397" lon="13.43201399">
        <ele>602.00000</ele>
        <time>2024-05-10T19:36:39Z</time>
      </trkpt>
      <trkpt lat="42.95015797" lon="13.43202296">
        <ele>602.00000</ele>
        <time>2024-05-10T19:36:39Z</time>
      </trkpt>
      <trkpt lat="42.95018294" lon="13.43202698">
        <ele>601.00000</ele>
        <time>2024-05-10T19:36:39Z</time>
      </trkpt>
      <trkpt lat="42.95020499" lon="13.43202992">
        <ele>601.00000</ele>
        <time>2024-05-10T19:36:40Z</time>
      </trkpt>
      <trkpt lat="42.95022594" lon="13.43203394">
        <ele>600.00000</ele>
        <time>2024-05-10T19:36:40Z</time>
      </trkpt>
      <trkpt lat="42.95025193" lon="13.43203998">
        <ele>599.00000</ele>
        <time>2024-05-10T19:36:41Z</time>
      </trkpt>
      <trkpt lat="42.95027498" lon="13.43205498">
        <ele>599.00000</ele>
        <time>2024-05-10T19:36:41Z</time>
      </trkpt>
      <trkpt lat="42.95029593" lon="13.43207594">
        <ele>599.00000</ele>
        <time>2024-05-10T19:36:42Z</time>
      </trkpt>
      <trkpt lat="42.95031999" lon="13.43210795">
        <ele>599.00000</ele>
        <time>2024-05-10T19:36:43Z</time>
      </trkpt>
      <trkpt lat="42.95033994" lon="13.43214592">
        <ele>599.00000</ele>
        <time>2024-05-10T19:36:43Z</time>
      </trkpt>
      <trkpt lat="42.95035695" lon="13.43218096">
        <ele>600.00000</ele>
        <time>2024-05-10T19:36:44Z</time>
      </trkpt>
      <trkpt lat="42.95037397" lon="13.43221197">
        <ele>600.00000</ele>
        <time>2024-05-10T19:36:44Z</time>
      </trkpt>
      <trkpt lat="42.95038998" lon="13.43224299">
        <ele>601.00000</ele>
        <time>2024-05-10T19:36:45Z</time>
      </trkpt>
      <trkpt lat="42.95040892" lon="13.43227299">
        <ele>601.00000</ele>
        <time>2024-05-10T19:36:46Z</time>
      </trkpt>
      <trkpt lat="42.95043197" lon="13.43230493">
        <ele>602.00000</ele>
        <time>2024-05-10T19:36:46Z</time>
      </trkpt>
      <trkpt lat="42.95046097" lon="13.43233192">
        <ele>602.00000</ele>
        <time>2024-05-10T19:36:47Z</time>
      </trkpt>
      <trkpt lat="42.95049198" lon="13.43235396">
        <ele>602.00000</ele>
        <time>2024-05-10T19:36:48Z</time>
      </trkpt>
      <trkpt lat="42.95051596" lon="13.43235899">
        <ele>602.00000</ele>
        <time>2024-05-10T19:36:48Z</time>
      </trkpt>
      <trkpt lat="42.95054395" lon="13.43236193">
        <ele>602.00000</ele>
        <time>2024-05-10T19:36:49Z</time>
      </trkpt>
      <trkpt lat="42.95057094" lon="13.43235899">
        <ele>601.00000</ele>
        <time>2024-05-10T19:36:49Z</time>
      </trkpt>
      <trkpt lat="42.95059793" lon="13.43234994">
        <ele>600.00000</ele>
        <time>2024-05-10T19:36:50Z</time>
      </trkpt>
      <trkpt lat="42.95063297" lon="13.43234793">
        <ele>599.00000</ele>
        <time>2024-05-10T19:36:50Z</time>
      </trkpt>
      <trkpt lat="42.95066398" lon="13.43234592">
        <ele>599.00000</ele>
        <time>2024-05-10T19:36:51Z</time>
      </trkpt>
      <trkpt lat="42.95070396" lon="13.43235195">
        <ele>598.00000</ele>
        <time>2024-05-10T19:36:52Z</time>
      </trkpt>
      <trkpt lat="42.95074294" lon="13.43235899">
        <ele>598.00000</ele>
        <time>2024-05-10T19:36:53Z</time>
      </trkpt>
      <trkpt lat="42.95078099" lon="13.43236494">
        <ele>597.00000</ele>
        <time>2024-05-10T19:36:53Z</time>
      </trkpt>
      <trkpt lat="42.95081695" lon="13.43237198">
        <ele>597.00000</ele>
        <time>2024-05-10T19:36:54Z</time>
      </trkpt>
      <trkpt lat="42.95085199" lon="13.43237894">
        <ele>596.00000</ele>
        <time>2024-05-10T19:36:55Z</time>
      </trkpt>
      <trkpt lat="42.95088199" lon="13.43238799">
        <ele>596.00000</ele>
        <time>2024-05-10T19:36:55Z</time>
      </trkpt>
      <trkpt lat="42.95091896" lon="13.43239596">
        <ele>596.00000</ele>
        <time>2024-05-10T19:36:56Z</time>
      </trkpt>
      <trkpt lat="42.95095399" lon="13.43241096">
        <ele>596.00000</ele>
        <time>2024-05-10T19:36:57Z</time>
      </trkpt>
      <trkpt lat="42.95098593" lon="13.43242898">
        <ele>596.00000</ele>
        <time>2024-05-10T19:36:58Z</time>
      </trkpt>
      <trkpt lat="42.95101493" lon="13.43245094">
        <ele>597.00000</ele>
        <time>2024-05-10T19:36:58Z</time>
      </trkpt>
      <trkpt lat="42.95104494" lon="13.43246997">
        <ele>597.00000</ele>
        <time>2024-05-10T19:36:59Z</time>
      </trkpt>
      <trkpt lat="42.95107193" lon="13.43248799">
        <ele>598.00000</ele>
        <time>2024-05-10T19:37:00Z</time>
      </trkpt>
      <trkpt lat="42.95109992" lon="13.43250894">
        <ele>598.00000</ele>
        <time>2024-05-10T19:37:00Z</time>
      </trkpt>
      <trkpt lat="42.95113094" lon="13.43253099">
        <ele>599.00000</ele>
        <time>2024-05-10T19:37:01Z</time>
      </trkpt>
      <trkpt lat="42.95116396" lon="13.43254599">
        <ele>599.00000</ele>
        <time>2024-05-10T19:37:02Z</time>
      </trkpt>
      <trkpt lat="42.95119497" lon="13.43255194">
        <ele>599.00000</ele>
        <time>2024-05-10T19:37:02Z</time>
      </trkpt>
      <trkpt lat="42.95122699" lon="13.43254792">
        <ele>599.00000</ele>
        <time>2024-05-10T19:37:03Z</time>
      </trkpt>
      <trkpt lat="42.95126195" lon="13.43253795">
        <ele>598.00000</ele>
        <time>2024-05-10T19:37:04Z</time>
      </trkpt>
      <trkpt lat="42.95129296" lon="13.43252294">
        <ele>597.00000</ele>
        <time>2024-05-10T19:37:04Z</time>
      </trkpt>
      <trkpt lat="42.95132397" lon="13.43250098">
        <ele>596.00000</ele>
        <time>2024-05-10T19:37:05Z</time>
      </trkpt>
      <trkpt lat="42.95135197" lon="13.43247994">
        <ele>595.00000</ele>
        <time>2024-05-10T19:37:06Z</time>
      </trkpt>
      <trkpt lat="42.95137795" lon="13.43245698">
        <ele>594.00000</ele>
        <time>2024-05-10T19:37:06Z</time>
      </trkpt>
      <trkpt lat="42.95140394" lon="13.43243795">
        <ele>593.00000</ele>
        <time>2024-05-10T19:37:07Z</time>
      </trkpt>
      <trkpt lat="42.95142992" lon="13.43241792">
        <ele>593.00000</ele>
        <time>2024-05-10T19:37:07Z</time>
      </trkpt>
      <trkpt lat="42.95145892" lon="13.43239394">
        <ele>592.00000</ele>
        <time>2024-05-10T19:37:08Z</time>
      </trkpt>
      <trkpt lat="42.95149094" lon="13.43238095">
        <ele>592.00000</ele>
        <time>2024-05-10T19:37:09Z</time>
      </trkpt>
      <trkpt lat="42.95152396" lon="13.43236997">
        <ele>592.00000</ele>
        <time>2024-05-10T19:37:09Z</time>
      </trkpt>
      <trkpt lat="42.95155892" lon="13.43236293">
        <ele>593.00000</ele>
        <time>2024-05-10T19:37:10Z</time>
      </trkpt>
      <trkpt lat="42.95159395" lon="13.43236394">
        <ele>593.00000</ele>
        <time>2024-05-10T19:37:11Z</time>
      </trkpt>
      <trkpt lat="42.95162899" lon="13.43236796">
        <ele>594.00000</ele>
        <time>2024-05-10T19:37:12Z</time>
      </trkpt>
      <trkpt lat="42.95166495" lon="13.43237299">
        <ele>595.00000</ele>
        <time>2024-05-10T19:37:12Z</time>
      </trkpt>
      <trkpt lat="42.95169797" lon="13.43237794">
        <ele>596.00000</ele>
        <time>2024-05-10T19:37:13Z</time>
      </trkpt>
      <trkpt lat="42.95173393" lon="13.43238498">
        <ele>598.00000</ele>
        <time>2024-05-10T19:37:14Z</time>
      </trkpt>
      <trkpt lat="42.95176595" lon="13.43238992">
        <ele>599.00000</ele>
        <time>2024-05-10T19:37:14Z</time>
      </trkpt>
      <trkpt lat="42.95179998" lon="13.43239193">
        <ele>601.00000</ele>
        <time>2024-05-10T19:37:15Z</time>
      </trkpt>
      <trkpt lat="42.95182898" lon="13.43239495">
        <ele>602.00000</ele>
        <time>2024-05-10T19:37:16Z</time>
      </trkpt>
      <trkpt lat="42.95186192" lon="13.43239596">
        <ele>603.00000</ele>
        <time>2024-05-10T19:37:16Z</time>
      </trkpt>
      <trkpt lat="42.95189394" lon="13.43239696">
        <ele>604.00000</ele>
        <time>2024-05-10T19:37:17Z</time>
      </trkpt>
      <trkpt lat="42.95191892" lon="13.43239696">
        <ele>605.00000</ele>
        <time>2024-05-10T19:37:17Z</time>
      </trkpt>
      <trkpt lat="42.95194792" lon="13.43239093">
        <ele>606.00000</ele>
        <time>2024-05-10T19:37:18Z</time>
      </trkpt>
      <trkpt lat="42.95197399" lon="13.43238892">
        <ele>606.00000</ele>
        <time>2024-05-10T19:37:18Z</time>
      </trkpt>
      <trkpt lat="42.95200198" lon="13.43237693">
        <ele>605.00000</ele>
        <time>2024-05-10T19:37:19Z</time>
      </trkpt>
      <trkpt lat="42.95203593" lon="13.43236695">
        <ele>605.00000</ele>
        <time>2024-05-10T19:37:20Z</time>
      </trkpt>
      <trkpt lat="42.95207197" lon="13.43235396">
        <ele>604.00000</ele>
        <time>2024-05-10T19:37:20Z</time>
      </trkpt>
      <trkpt lat="42.95210693" lon="13.43233091">
        <ele>604.00000</ele>
        <time>2024-05-10T19:37:21Z</time>
      </trkpt>
      <trkpt lat="42.95213894" lon="13.43230996">
        <ele>603.00000</ele>
        <time>2024-05-10T19:37:22Z</time>
      </trkpt>
      <trkpt lat="42.95217096" lon="13.43228599">
        <ele>602.00000</ele>
        <time>2024-05-10T19:37:23Z</time>
      </trkpt>
      <trkpt lat="42.95220097" lon="13.43225698">
        <ele>601.00000</ele>
        <time>2024-05-10T19:37:23Z</time>
      </trkpt>
      <trkpt lat="42.95222595" lon="13.43223092">
        <ele>600.00000</ele>
        <time>2024-05-10T19:37:24Z</time>
      </trkpt>
      <trkpt lat="42.95224992" lon="13.43220594">
        <ele>598.00000</ele>
        <time>2024-05-10T19:37:25Z</time>
      </trkpt>
      <trkpt lat="42.95228395" lon="13.43218498">
        <ele>596.00000</ele>
        <time>2024-05-10T19:37:25Z</time>
      </trkpt>
      <trkpt lat="42.95231295" lon="13.43216696">
        <ele>595.00000</ele>
        <time>2024-05-10T19:37:26Z</time>
      </trkpt>
      <trkpt lat="42.95234799" lon="13.43216596">
        <ele>594.00000</ele>
        <time>2024-05-10T19:37:27Z</time>
      </trkpt>
      <trkpt lat="42.95238194" lon="13.43217291">
        <ele>594.00000</ele>
        <time>2024-05-10T19:37:27Z</time>
      </trkpt>
      <trkpt lat="42.95241295" lon="13.43218993">
        <ele>594.00000</ele>
        <time>2024-05-10T19:37:28Z</time>
      </trkpt>
      <trkpt lat="42.95244094" lon="13.43221399">
        <ele>594.00000</ele>
        <time>2024-05-10T19:37:29Z</time>
      </trkpt>
      <trkpt lat="42.95246693" lon="13.43223494">
        <ele>595.00000</ele>
        <time>2024-05-10T19:37:29Z</time>
      </trkpt>
      <trkpt lat="42.95249694" lon="13.43225698">
        <ele>595.00000</ele>
        <time>2024-05-10T19:37:30Z</time>
      </trkpt>
      <trkpt lat="42.95252795" lon="13.43227794">
        <ele>594.00000</ele>
        <time>2024-05-10T19:37:31Z</time>
      </trkpt>
      <trkpt lat="42.95255393" lon="13.43230795">
        <ele>594.00000</ele>
        <time>2024-05-10T19:37:31Z</time>
      </trkpt>
      <trkpt lat="42.95257497" lon="13.43233695">
        <ele>594.00000</ele>
        <time>2024-05-10T19:37:32Z</time>
      </trkpt>
      <trkpt lat="42.95259593" lon="13.43237299">
        <ele>595.00000</ele>
        <time>2024-05-10T19:37:33Z</time>
      </trkpt>
      <trkpt lat="42.95261495" lon="13.43241197">
        <ele>595.00000</ele>
        <time>2024-05-10T19:37:33Z</time>
      </trkpt>
      <trkpt lat="42.95262593" lon="13.43245496">
        <ele>596.00000</ele>
        <time>2024-05-10T19:37:34Z</time>
      </trkpt>
      <trkpt lat="42.95263792" lon="13.43249696">
        <ele>597.00000</ele>
        <time>2024-05-10T19:37:35Z</time>
      </trkpt>
      <trkpt lat="42.95264295" lon="13.43254398">
        <ele>598.00000</ele>
        <time>2024-05-10T19:37:35Z</time>
      </trkpt>
      <trkpt lat="42.95264295" lon="13.43258799">
        <ele>599.00000</ele>
        <time>2024-05-10T19:37:36Z</time>
      </trkpt>
      <trkpt lat="42.95263398" lon="13.43262998">
        <ele>600.00000</ele>
        <time>2024-05-10T19:37:37Z</time>
      </trkpt>
      <trkpt lat="42.95262292" lon="13.43267097">
        <ele>601.00000</ele>
        <time>2024-05-10T19:37:37Z</time>
      </trkpt>
      <trkpt lat="42.95260892" lon="13.43270793">
        <ele>603.00000</ele>
        <time>2024-05-10T19:37:38Z</time>
      </trkpt>
      <trkpt lat="42.95259693" lon="13.43274699">
        <ele>604.00000</ele>
        <time>2024-05-10T19:37:39Z</time>
      </trkpt>
      <trkpt lat="42.95258595" lon="13.43278395">
        <ele>605.00000</ele>
        <time>2024-05-10T19:37:39Z</time>
      </trkpt>
      <trkpt lat="42.95257598" lon="13.43281899">
        <ele>606.00000</ele>
        <time>2024-05-10T19:37:40Z</time>
      </trkpt>
      <trkpt lat="42.95256692" lon="13.43285897">
        <ele>607.00000</ele>
        <time>2024-05-10T19:37:40Z</time>
      </trkpt>
      <trkpt lat="42.95255695" lon="13.43289895">
        <ele>608.00000</ele>
        <time>2024-05-10T19:37:41Z</time>
      </trkpt>
      <trkpt lat="42.95254899" lon="13.43294095">
        <ele>609.00000</ele>
        <time>2024-05-10T19:37:42Z</time>
      </trkpt>
      <trkpt lat="42.95253993" lon="13.43298495">
        <ele>610.00000</ele>
        <time>2024-05-10T19:37:42Z</time>
      </trkpt>
      <trkpt lat="42.95253398" lon="13.43302795">
        <ele>611.00000</ele>
        <time>2024-05-10T19:37:43Z</time>
      </trkpt>
      <trkpt lat="42.95253298" lon="13.43307397">
        <ele>612.00000</ele>
        <time>2024-05-10T19:37:44Z</time>
      </trkpt>
      <trkpt lat="42.95253398" lon="13.43311898">
        <ele>613.00000</ele>
        <time>2024-05-10T19:37:44Z</time>
      </trkpt>
      <trkpt lat="42.95253893" lon="13.43316097">
        <ele>613.00000</ele>
        <time>2024-05-10T19:37:45Z</time>
      </trkpt>
      <trkpt lat="42.95254195" lon="13.43319794">
        <ele>613.00000</ele>
        <time>2024-05-10T19:37:45Z</time>
      </trkpt>
      <trkpt lat="42.95254295" lon="13.43323792">
        <ele>614.00000</ele>
        <time>2024-05-10T19:37:46Z</time>
      </trkpt>
      <trkpt lat="42.95254597" lon="13.43327698">
        <ele>614.00000</ele>
        <time>2024-05-10T19:37:47Z</time>
      </trkpt>
      <trkpt lat="42.95255293" lon="13.43331998">
        <ele>614.00000</ele>
        <time>2024-05-10T19:37:47Z</time>
      </trkpt>
      <trkpt lat="42.95256198" lon="13.43336398">
        <ele>614.00000</ele>
        <time>2024-05-10T19:37:48Z</time>
      </trkpt>
      <trkpt lat="42.95256592" lon="13.43340698">
        <ele>614.00000</ele>
        <time>2024-05-10T19:37:48Z</time>
      </trkpt>
      <trkpt lat="42.95257095" lon="13.43344998">
        <ele>614.00000</ele>
        <time>2024-05-10T19:37:49Z</time>
      </trkpt>
      <trkpt lat="42.95257698" lon="13.43349298">
        <ele>615.00000</ele>
        <time>2024-05-10T19:37:50Z</time>
      </trkpt>
      <trkpt lat="42.95258696" lon="13.43353196">
        <ele>614.00000</ele>
        <time>2024-05-10T19:37:50Z</time>
      </trkpt>
      <trkpt lat="42.95259391" lon="13.43357898">
        <ele>614.00000</ele>
        <time>2024-05-10T19:37:51Z</time>
      </trkpt>
      <trkpt lat="42.95260196" lon="13.43362793">
        <ele>614.00000</ele>
        <time>2024-05-10T19:37:52Z</time>
      </trkpt>
      <trkpt lat="42.95260791" lon="13.43367193">
        <ele>614.00000</ele>
        <time>2024-05-10T19:37:52Z</time>
      </trkpt>
      <trkpt lat="42.95261596" lon="13.43371493">
        <ele>614.00000</ele>
        <time>2024-05-10T19:37:53Z</time>
      </trkpt>
      <trkpt lat="42.95261696" lon="13.43375399">
        <ele>614.00000</ele>
        <time>2024-05-10T19:37:54Z</time>
      </trkpt>
      <trkpt lat="42.95262099" lon="13.43379498">
        <ele>614.00000</ele>
        <time>2024-05-10T19:37:54Z</time>
      </trkpt>
      <trkpt lat="42.95262593" lon="13.43383898">
        <ele>614.00000</ele>
        <time>2024-05-10T19:37:55Z</time>
      </trkpt>
      <trkpt lat="42.95263892" lon="13.43388492">
        <ele>614.00000</ele>
        <time>2024-05-10T19:37:56Z</time>
      </trkpt>
      <trkpt lat="42.95264295" lon="13.43392993">
        <ele>613.00000</ele>
        <time>2024-05-10T19:37:56Z</time>
      </trkpt>
      <trkpt lat="42.95264395" lon="13.43397997">
        <ele>613.00000</ele>
        <time>2024-05-10T19:37:57Z</time>
      </trkpt>
      <trkpt lat="42.95263892" lon="13.43402397">
        <ele>613.00000</ele>
        <time>2024-05-10T19:37:58Z</time>
      </trkpt>
      <trkpt lat="42.95263398" lon="13.43407192">
        <ele>613.00000</ele>
        <time>2024-05-10T19:37:58Z</time>
      </trkpt>
      <trkpt lat="42.95262099" lon="13.43411299">
        <ele>613.00000</ele>
        <time>2024-05-10T19:37:59Z</time>
      </trkpt>
      <trkpt lat="42.95260196" lon="13.43415196">
        <ele>613.00000</ele>
        <time>2024-05-10T19:38:00Z</time>
      </trkpt>
      <trkpt lat="42.95257497" lon="13.43418298">
        <ele>614.00000</ele>
        <time>2024-05-10T19:38:01Z</time>
      </trkpt>
      <trkpt lat="42.95254999" lon="13.43420997">
        <ele>615.00000</ele>
        <time>2024-05-10T19:38:01Z</time>
      </trkpt>
      <trkpt lat="42.95252594" lon="13.43423595">
        <ele>615.00000</ele>
        <time>2024-05-10T19:38:02Z</time>
      </trkpt>
      <trkpt lat="42.95250498" lon="13.43425699">
        <ele>616.00000</ele>
        <time>2024-05-10T19:38:02Z</time>
      </trkpt>
      <trkpt lat="42.95248495" lon="13.43428096">
        <ele>616.00000</ele>
        <time>2024-05-10T19:38:03Z</time>
      </trkpt>
      <trkpt lat="42.95246492" lon="13.43430594">
        <ele>617.00000</ele>
        <time>2024-05-10T19:38:03Z</time>
      </trkpt>
      <trkpt lat="42.95244094" lon="13.43433192">
        <ele>617.00000</ele>
        <time>2024-05-10T19:38:04Z</time>
      </trkpt>
      <trkpt lat="42.95241697" lon="13.43435699">
        <ele>618.00000</ele>
        <time>2024-05-10T19:38:05Z</time>
      </trkpt>
      <trkpt lat="42.95239593" lon="13.43438196">
        <ele>619.00000</ele>
        <time>2024-05-10T19:38:05Z</time>
      </trkpt>
      <trkpt lat="42.95237297" lon="13.43440594">
        <ele>619.00000</ele>
        <time>2024-05-10T19:38:06Z</time>
      </trkpt>
      <trkpt lat="42.95235092" lon="13.43442899">
        <ele>620.00000</ele>
        <time>2024-05-10T19:38:06Z</time>
      </trkpt>
      <trkpt lat="42.95232896" lon="13.43445095">
        <ele>620.00000</ele>
        <time>2024-05-10T19:38:07Z</time>
      </trkpt>
      <trkpt lat="42.95230792" lon="13.43447199">
        <ele>620.00000</ele>
        <time>2024-05-10T19:38:07Z</time>
      </trkpt>
      <trkpt lat="42.95228395" lon="13.43449596">
        <ele>621.00000</ele>
        <time>2024-05-10T19:38:08Z</time>
      </trkpt>
      <trkpt lat="42.95225998" lon="13.43451792">
        <ele>621.00000</ele>
        <time>2024-05-10T19:38:08Z</time>
      </trkpt>
      <trkpt lat="42.95223399" lon="13.43454197">
        <ele>621.00000</ele>
        <time>2024-05-10T19:38:09Z</time>
      </trkpt>
      <trkpt lat="42.95220499" lon="13.43456394">
        <ele>622.00000</ele>
        <time>2024-05-10T19:38:10Z</time>
      </trkpt>
      <trkpt lat="42.95218194" lon="13.43458799">
        <ele>622.00000</ele>
        <time>2024-05-10T19:38:10Z</time>
      </trkpt>
      <trkpt lat="42.95215898" lon="13.43461196">
        <ele>622.00000</ele>
        <time>2024-05-10T19:38:11Z</time>
      </trkpt>
      <trkpt lat="42.95213392" lon="13.43464097">
        <ele>622.00000</ele>
        <time>2024-05-10T19:38:12Z</time>
      </trkpt>
      <trkpt lat="42.95210894" lon="13.43466293">
        <ele>622.00000</ele>
        <time>2024-05-10T19:38:12Z</time>
      </trkpt>
      <trkpt lat="42.95207994" lon="13.43468195">
        <ele>622.00000</ele>
        <time>2024-05-10T19:38:13Z</time>
      </trkpt>
      <trkpt lat="42.95204993" lon="13.43470199">
        <ele>623.00000</ele>
        <time>2024-05-10T19:38:14Z</time>
      </trkpt>
      <trkpt lat="42.95201992" lon="13.43472093">
        <ele>623.00000</ele>
        <time>2024-05-10T19:38:14Z</time>
      </trkpt>
      <trkpt lat="42.95199092" lon="13.43474297">
        <ele>623.00000</ele>
        <time>2024-05-10T19:38:15Z</time>
      </trkpt>
      <trkpt lat="42.95195999" lon="13.43476292">
        <ele>624.00000</ele>
        <time>2024-05-10T19:38:16Z</time>
      </trkpt>
      <trkpt lat="42.95193199" lon="13.43478597">
        <ele>624.00000</ele>
        <time>2024-05-10T19:38:16Z</time>
      </trkpt>
      <trkpt lat="42.95190593" lon="13.43480592">
        <ele>624.00000</ele>
        <time>2024-05-10T19:38:17Z</time>
      </trkpt>
      <trkpt lat="42.95187793" lon="13.43482696">
        <ele>625.00000</ele>
        <time>2024-05-10T19:38:17Z</time>
      </trkpt>
      <trkpt lat="42.95184893" lon="13.43485395">
        <ele>625.00000</ele>
        <time>2024-05-10T19:38:18Z</time>
      </trkpt>
      <trkpt lat="42.95182093" lon="13.43488496">
        <ele>625.00000</ele>
        <time>2024-05-10T19:38:19Z</time>
      </trkpt>
      <trkpt lat="42.95179596" lon="13.43491991">
        <ele>625.00000</ele>
        <time>2024-05-10T19:38:20Z</time>
      </trkpt>
      <trkpt lat="42.95177693" lon="13.43496493">
        <ele>625.00000</ele>
        <time>2024-05-10T19:38:20Z</time>
      </trkpt>
      <trkpt lat="42.95176193" lon="13.43501497">
        <ele>625.00000</ele>
        <time>2024-05-10T19:38:21Z</time>
      </trkpt>
      <trkpt lat="42.95175899" lon="13.43506693">
        <ele>626.00000</ele>
        <time>2024-05-10T19:38:22Z</time>
      </trkpt>
      <trkpt lat="42.95176897" lon="13.43511798">
        <ele>626.00000</ele>
        <time>2024-05-10T19:38:23Z</time>
      </trkpt>
      <trkpt lat="42.95178598" lon="13.43516492">
        <ele>626.00000</ele>
        <time>2024-05-10T19:38:23Z</time>
      </trkpt>
      <trkpt lat="42.95181096" lon="13.43520498">
        <ele>625.00000</ele>
        <time>2024-05-10T19:38:24Z</time>
      </trkpt>
      <trkpt lat="42.95183292" lon="13.43524195">
        <ele>625.00000</ele>
        <time>2024-05-10T19:38:25Z</time>
      </trkpt>
      <trkpt lat="42.95185899" lon="13.43527598">
        <ele>625.00000</ele>
        <time>2024-05-10T19:38:26Z</time>
      </trkpt>
      <trkpt lat="42.95188095" lon="13.43530196">
        <ele>625.00000</ele>
        <time>2024-05-10T19:38:26Z</time>
      </trkpt>
      <trkpt lat="42.95191297" lon="13.43532694">
        <ele>625.00000</ele>
        <time>2024-05-10T19:38:27Z</time>
      </trkpt>
      <trkpt lat="42.95194197" lon="13.43534094">
        <ele>624.00000</ele>
        <time>2024-05-10T19:38:28Z</time>
      </trkpt>
      <trkpt lat="42.95197592" lon="13.43535494">
        <ele>624.00000</ele>
        <time>2024-05-10T19:38:28Z</time>
      </trkpt>
      <trkpt lat="42.95201498" lon="13.43537195">
        <ele>623.00000</ele>
        <time>2024-05-10T19:38:29Z</time>
      </trkpt>
      <trkpt lat="42.95205295" lon="13.43539592">
        <ele>623.00000</ele>
        <time>2024-05-10T19:38:30Z</time>
      </trkpt>
      <trkpt lat="42.95208597" lon="13.43541394">
        <ele>622.00000</ele>
        <time>2024-05-10T19:38:31Z</time>
      </trkpt>
      <trkpt lat="42.95212495" lon="13.43543498">
        <ele>621.00000</ele>
        <time>2024-05-10T19:38:31Z</time>
      </trkpt>
      <trkpt lat="42.95215998" lon="13.43545099">
        <ele>621.00000</ele>
        <time>2024-05-10T19:38:32Z</time>
      </trkpt>
      <trkpt lat="42.95219594" lon="13.43546197">
        <ele>620.00000</ele>
        <time>2024-05-10T19:38:33Z</time>
      </trkpt>
      <trkpt lat="42.95223098" lon="13.43547496">
        <ele>619.00000</ele>
        <time>2024-05-10T19:38:34Z</time>
      </trkpt>
      <trkpt lat="42.95226593" lon="13.43549299">
        <ele>619.00000</ele>
        <time>2024-05-10T19:38:34Z</time>
      </trkpt>
      <trkpt lat="42.95229996" lon="13.43550899">
        <ele>619.00000</ele>
        <time>2024-05-10T19:38:35Z</time>
      </trkpt>
      <trkpt lat="42.95233894" lon="13.43551897">
        <ele>618.00000</ele>
        <time>2024-05-10T19:38:36Z</time>
      </trkpt>
      <trkpt lat="42.95238093" lon="13.43553096">
        <ele>618.00000</ele>
        <time>2024-05-10T19:38:37Z</time>
      </trkpt>
      <trkpt lat="42.95242192" lon="13.43553892">
        <ele>617.00000</ele>
        <time>2024-05-10T19:38:38Z</time>
      </trkpt>
      <trkpt lat="42.95246098" lon="13.43554696">
        <ele>617.00000</ele>
        <time>2024-05-10T19:38:38Z</time>
      </trkpt>
      <trkpt lat="42.95249794" lon="13.43555795">
        <ele>617.00000</ele>
        <time>2024-05-10T19:38:39Z</time>
      </trkpt>
      <trkpt lat="42.95253893" lon="13.43556691">
        <ele>616.00000</ele>
        <time>2024-05-10T19:38:40Z</time>
      </trkpt>
      <trkpt lat="42.95258193" lon="13.43557295">
        <ele>616.00000</ele>
        <time>2024-05-10T19:38:41Z</time>
      </trkpt>
      <trkpt lat="42.95262392" lon="13.43558292">
        <ele>615.00000</ele>
        <time>2024-05-10T19:38:42Z</time>
      </trkpt>
      <trkpt lat="42.95265795" lon="13.43559499">
        <ele>615.00000</ele>
        <time>2024-05-10T19:38:42Z</time>
      </trkpt>
      <trkpt lat="42.95268896" lon="13.43560296">
        <ele>615.00000</ele>
        <time>2024-05-10T19:38:43Z</time>
      </trkpt>
      <trkpt lat="42.95272693" lon="13.43562198">
        <ele>614.00000</ele>
        <time>2024-05-10T19:38:44Z</time>
      </trkpt>
      <trkpt lat="42.95276499" lon="13.43565392">
        <ele>614.00000</ele>
        <time>2024-05-10T19:38:45Z</time>
      </trkpt>
      <trkpt lat="42.95279399" lon="13.43569197">
        <ele>614.00000</ele>
        <time>2024-05-10T19:38:46Z</time>
      </trkpt>
      <trkpt lat="42.95282098" lon="13.43572793">
        <ele>614.00000</ele>
        <time>2024-05-10T19:38:46Z</time>
      </trkpt>
      <trkpt lat="42.95284898" lon="13.43576196">
        <ele>613.00000</ele>
        <time>2024-05-10T19:38:47Z</time>
      </trkpt>
      <trkpt lat="42.95287999" lon="13.43579297">
        <ele>613.00000</ele>
        <time>2024-05-10T19:38:48Z</time>
      </trkpt>
      <trkpt lat="42.95291293" lon="13.43582793">
        <ele>613.00000</ele>
        <time>2024-05-10T19:38:49Z</time>
      </trkpt>
      <trkpt lat="42.95294595" lon="13.43586598">
        <ele>612.00000</ele>
        <time>2024-05-10T19:38:49Z</time>
      </trkpt>
      <trkpt lat="42.95297697" lon="13.43591292">
        <ele>612.00000</ele>
        <time>2024-05-10T19:38:50Z</time>
      </trkpt>
      <trkpt lat="42.95300597" lon="13.43596598">
        <ele>611.00000</ele>
        <time>2024-05-10T19:38:51Z</time>
      </trkpt>
      <trkpt lat="42.95302793" lon="13.43602792">
        <ele>611.00000</ele>
        <time>2024-05-10T19:38:52Z</time>
      </trkpt>
      <trkpt lat="42.95303396" lon="13.43609992">
        <ele>612.00000</ele>
        <time>2024-05-10T19:38:53Z</time>
      </trkpt>
      <trkpt lat="42.95301192" lon="13.43615792">
        <ele>612.00000</ele>
        <time>2024-05-10T19:38:54Z</time>
      </trkpt>
      <trkpt lat="42.95297697" lon="13.43620092">
        <ele>613.00000</ele>
        <time>2024-05-10T19:38:55Z</time>
      </trkpt>
      <trkpt lat="42.95293397" lon="13.43623696">
        <ele>613.00000</ele>
        <time>2024-05-10T19:38:56Z</time>
      </trkpt>
      <trkpt lat="42.95289197" lon="13.43627099">
        <ele>614.00000</ele>
        <time>2024-05-10T19:38:57Z</time>
      </trkpt>
      <trkpt lat="42.95284898" lon="13.43629991">
        <ele>615.00000</ele>
        <time>2024-05-10T19:38:58Z</time>
      </trkpt>
      <trkpt lat="42.95280497" lon="13.43632497">
        <ele>616.00000</ele>
        <time>2024-05-10T19:38:59Z</time>
      </trkpt>
      <trkpt lat="42.95276298" lon="13.43636093">
        <ele>616.00000</ele>
        <time>2024-05-10T19:39:00Z</time>
      </trkpt>
      <trkpt lat="42.95272492" lon="13.43639999">
        <ele>617.00000</ele>
        <time>2024-05-10T19:39:01Z</time>
      </trkpt>
      <trkpt lat="42.95268997" lon="13.43644492">
        <ele>617.00000</ele>
        <time>2024-05-10T19:39:02Z</time>
      </trkpt>
      <trkpt lat="42.95265896" lon="13.43648691">
        <ele>618.00000</ele>
        <time>2024-05-10T19:39:03Z</time>
      </trkpt>
      <trkpt lat="42.95263197" lon="13.43653192">
        <ele>618.00000</ele>
        <time>2024-05-10T19:39:04Z</time>
      </trkpt>
      <trkpt lat="42.95260791" lon="13.43657693">
        <ele>618.00000</ele>
        <time>2024-05-10T19:39:05Z</time>
      </trkpt>
      <trkpt lat="42.95258092" lon="13.43661893">
        <ele>617.00000</ele>
        <time>2024-05-10T19:39:06Z</time>
      </trkpt>
      <trkpt lat="42.95255393" lon="13.43666193">
        <ele>617.00000</ele>
        <time>2024-05-10T19:39:06Z</time>
      </trkpt>
      <trkpt lat="42.95252795" lon="13.43669998">
        <ele>617.00000</ele>
        <time>2024-05-10T19:39:07Z</time>
      </trkpt>
      <trkpt lat="42.95250398" lon="13.43674197">
        <ele>616.00000</ele>
        <time>2024-05-10T19:39:08Z</time>
      </trkpt>
      <trkpt lat="42.95248495" lon="13.43677793">
        <ele>616.00000</ele>
        <time>2024-05-10T19:39:09Z</time>
      </trkpt>
      <trkpt lat="42.95246198" lon="13.43680995">
        <ele>616.00000</ele>
        <time>2024-05-10T19:39:09Z</time>
      </trkpt>
      <trkpt lat="42.95244396" lon="13.43684096">
        <ele>615.00000</ele>
        <time>2024-05-10T19:39:10Z</time>
      </trkpt>
      <trkpt lat="42.95242795" lon="13.43687592">
        <ele>615.00000</ele>
        <time>2024-05-10T19:39:10Z</time>
      </trkpt>
      <trkpt lat="42.95241697" lon="13.43691296">
        <ele>614.00000</ele>
        <time>2024-05-10T19:39:11Z</time>
      </trkpt>
      <trkpt lat="42.95240398" lon="13.43695093">
        <ele>613.00000</ele>
        <time>2024-05-10T19:39:12Z</time>
      </trkpt>
      <trkpt lat="42.95238696" lon="13.43699092">
        <ele>613.00000</ele>
        <time>2024-05-10T19:39:12Z</time>
      </trkpt>
      <trkpt lat="42.95236299" lon="13.43703199">
        <ele>613.00000</ele>
        <time>2024-05-10T19:39:13Z</time>
      </trkpt>
      <trkpt lat="42.95233894" lon="13.43706996">
        <ele>613.00000</ele>
        <time>2024-05-10T19:39:14Z</time>
      </trkpt>
      <trkpt lat="42.95230792" lon="13.43710499">
        <ele>613.00000</ele>
        <time>2024-05-10T19:39:15Z</time>
      </trkpt>
      <trkpt lat="42.95227892" lon="13.43713592">
        <ele>613.00000</ele>
        <time>2024-05-10T19:39:15Z</time>
      </trkpt>
      <trkpt lat="42.95224296" lon="13.43716392">
        <ele>613.00000</ele>
        <time>2024-05-10T19:39:16Z</time>
      </trkpt>
      <trkpt lat="42.95220499" lon="13.43718697">
        <ele>614.00000</ele>
        <time>2024-05-10T19:39:17Z</time>
      </trkpt>
      <trkpt lat="42.95216795" lon="13.43720792">
        <ele>614.00000</ele>
        <time>2024-05-10T19:39:18Z</time>
      </trkpt>
      <trkpt lat="42.95213299" lon="13.43722796">
        <ele>614.00000</ele>
        <time>2024-05-10T19:39:19Z</time>
      </trkpt>
      <trkpt lat="42.95209695" lon="13.43725092">
        <ele>614.00000</ele>
        <time>2024-05-10T19:39:19Z</time>
      </trkpt>
      <trkpt lat="42.95206099" lon="13.43727699">
        <ele>614.00000</ele>
        <time>2024-05-10T19:39:20Z</time>
      </trkpt>
      <trkpt lat="42.95202495" lon="13.43730993">
        <ele>614.00000</ele>
        <time>2024-05-10T19:39:21Z</time>
      </trkpt>
      <trkpt lat="42.95198698" lon="13.43734195">
        <ele>613.00000</ele>
        <time>2024-05-10T19:39:22Z</time>
      </trkpt>
      <trkpt lat="42.95195396" lon="13.43736894">
        <ele>613.00000</ele>
        <time>2024-05-10T19:39:23Z</time>
      </trkpt>
      <trkpt lat="42.95191892" lon="13.43739392">
        <ele>613.00000</ele>
        <time>2024-05-10T19:39:23Z</time>
      </trkpt>
      <trkpt lat="42.95188397" lon="13.43741999">
        <ele>613.00000</ele>
        <time>2024-05-10T19:39:24Z</time>
      </trkpt>
      <trkpt lat="42.95185295" lon="13.43744899">
        <ele>613.00000</ele>
        <time>2024-05-10T19:39:25Z</time>
      </trkpt>
      <trkpt lat="42.95181993" lon="13.43747698">
        <ele>613.00000</ele>
        <time>2024-05-10T19:39:26Z</time>
      </trkpt>
      <trkpt lat="42.95178892" lon="13.43750699">
        <ele>613.00000</ele>
        <time>2024-05-10T19:39:27Z</time>
      </trkpt>
      <trkpt lat="42.95175598" lon="13.43754395">
        <ele>613.00000</ele>
        <time>2024-05-10T19:39:27Z</time>
      </trkpt>
      <trkpt lat="42.95172496" lon="13.43758092">
        <ele>613.00000</ele>
        <time>2024-05-10T19:39:28Z</time>
      </trkpt>
      <trkpt lat="42.95169596" lon="13.43761797">
        <ele>613.00000</ele>
        <time>2024-05-10T19:39:29Z</time>
      </trkpt>
      <trkpt lat="42.95166998" lon="13.43765191">
        <ele>613.00000</ele>
        <time>2024-05-10T19:39:30Z</time>
      </trkpt>
      <trkpt lat="42.95164491" lon="13.43768192">
        <ele>614.00000</ele>
        <time>2024-05-10T19:39:30Z</time>
      </trkpt>
      <trkpt lat="42.95161994" lon="13.43771394">
        <ele>614.00000</ele>
        <time>2024-05-10T19:39:31Z</time>
      </trkpt>
      <trkpt lat="42.95159898" lon="13.43774294">
        <ele>614.00000</ele>
        <time>2024-05-10T19:39:32Z</time>
      </trkpt>
      <trkpt lat="42.95157291" lon="13.43777395">
        <ele>615.00000</ele>
        <time>2024-05-10T19:39:32Z</time>
      </trkpt>
      <trkpt lat="42.95154592" lon="13.43780396">
        <ele>615.00000</ele>
        <time>2024-05-10T19:39:33Z</time>
      </trkpt>
      <trkpt lat="42.95151994" lon="13.43783497">
        <ele>615.00000</ele>
        <time>2024-05-10T19:39:34Z</time>
      </trkpt>
      <trkpt lat="42.95149496" lon="13.43786196">
        <ele>615.00000</ele>
        <time>2024-05-10T19:39:34Z</time>
      </trkpt>
      <trkpt lat="42.95146596" lon="13.43789096">
        <ele>615.00000</ele>
        <time>2024-05-10T19:39:35Z</time>
      </trkpt>
      <trkpt lat="42.95143797" lon="13.43791997">
        <ele>616.00000</ele>
        <time>2024-05-10T19:39:36Z</time>
      </trkpt>
      <trkpt lat="42.95140796" lon="13.43794796">
        <ele>616.00000</ele>
        <time>2024-05-10T19:39:37Z</time>
      </trkpt>
      <trkpt lat="42.95137493" lon="13.43797797">
        <ele>616.00000</ele>
        <time>2024-05-10T19:39:37Z</time>
      </trkpt>
      <trkpt lat="42.95133797" lon="13.43799892">
        <ele>615.00000</ele>
        <time>2024-05-10T19:39:38Z</time>
      </trkpt>
      <trkpt lat="42.95129598" lon="13.43801996">
        <ele>615.00000</ele>
        <time>2024-05-10T19:39:39Z</time>
      </trkpt>
      <trkpt lat="42.95124694" lon="13.43802197">
        <ele>615.00000</ele>
        <time>2024-05-10T19:39:40Z</time>
      </trkpt>
      <trkpt lat="42.95119992" lon="13.43801099">
        <ele>616.00000</ele>
        <time>2024-05-10T19:39:41Z</time>
      </trkpt>
      <trkpt lat="42.95115793" lon="13.43798493">
        <ele>617.00000</ele>
        <time>2024-05-10T19:39:42Z</time>
      </trkpt>
      <trkpt lat="42.95112096" lon="13.43795391">
        <ele>618.00000</ele>
        <time>2024-05-10T19:39:43Z</time>
      </trkpt>
      <trkpt lat="42.95108894" lon="13.43791594">
        <ele>618.00000</ele>
        <time>2024-05-10T19:39:44Z</time>
      </trkpt>
      <trkpt lat="42.95106799" lon="13.43787395">
        <ele>619.00000</ele>
        <time>2024-05-10T19:39:44Z</time>
      </trkpt>
      <trkpt lat="42.95106095" lon="13.43783095">
        <ele>620.00000</ele>
        <time>2024-05-10T19:39:45Z</time>
      </trkpt>
      <trkpt lat="42.95105894" lon="13.43778694">
        <ele>621.00000</ele>
        <time>2024-05-10T19:39:46Z</time>
      </trkpt>
      <trkpt lat="42.95105692" lon="13.43774193">
        <ele>622.00000</ele>
        <time>2024-05-10T19:39:46Z</time>
      </trkpt>
      <trkpt lat="42.95105491" lon="13.43769994">
        <ele>623.00000</ele>
        <time>2024-05-10T19:39:47Z</time>
      </trkpt>
      <trkpt lat="42.95105894" lon="13.43765493">
        <ele>624.00000</ele>
        <time>2024-05-10T19:39:48Z</time>
      </trkpt>
      <trkpt lat="42.95106598" lon="13.43761092">
        <ele>625.00000</ele>
        <time>2024-05-10T19:39:48Z</time>
      </trkpt>
      <trkpt lat="42.95106992" lon="13.43756591">
        <ele>626.00000</ele>
        <time>2024-05-10T19:39:49Z</time>
      </trkpt>
      <trkpt lat="42.95107092" lon="13.43751998">
        <ele>627.00000</ele>
        <time>2024-05-10T19:39:50Z</time>
      </trkpt>
      <trkpt lat="42.95107293" lon="13.43747296">
        <ele>627.00000</ele>
        <time>2024-05-10T19:39:50Z</time>
      </trkpt>
      <trkpt lat="42.95107394" lon="13.43742493">
        <ele>628.00000</ele>
        <time>2024-05-10T19:39:51Z</time>
      </trkpt>
      <trkpt lat="42.95107595" lon="13.43737598">
        <ele>628.00000</ele>
        <time>2024-05-10T19:39:52Z</time>
      </trkpt>
      <trkpt lat="42.95107495" lon="13.43733097">
        <ele>628.00000</ele>
        <time>2024-05-10T19:39:52Z</time>
      </trkpt>
      <trkpt lat="42.95106899" lon="13.43728797">
        <ele>629.00000</ele>
        <time>2024-05-10T19:39:53Z</time>
      </trkpt>
      <trkpt lat="42.95105994" lon="13.43724497">
        <ele>629.00000</ele>
        <time>2024-05-10T19:39:54Z</time>
      </trkpt>
      <trkpt lat="42.95104997" lon="13.43720993">
        <ele>629.00000</ele>
        <time>2024-05-10T19:39:54Z</time>
      </trkpt>
      <trkpt lat="42.95103698" lon="13.43717892">
        <ele>629.00000</ele>
        <time>2024-05-10T19:39:55Z</time>
      </trkpt>
      <trkpt lat="42.95102197" lon="13.43714497">
        <ele>629.00000</ele>
        <time>2024-05-10T19:39:55Z</time>
      </trkpt>
      <trkpt lat="42.95100194" lon="13.43711094">
        <ele>630.00000</ele>
        <time>2024-05-10T19:39:56Z</time>
      </trkpt>
      <trkpt lat="42.95097897" lon="13.43708496">
        <ele>630.00000</ele>
        <time>2024-05-10T19:39:57Z</time>
      </trkpt>
      <trkpt lat="42.95094796" lon="13.43706895">
        <ele>630.00000</ele>
        <time>2024-05-10T19:39:57Z</time>
      </trkpt>
      <trkpt lat="42.95091493" lon="13.43705495">
        <ele>630.00000</ele>
        <time>2024-05-10T19:39:58Z</time>
      </trkpt>
      <trkpt lat="42.95088392" lon="13.43703492">
        <ele>630.00000</ele>
        <time>2024-05-10T19:39:59Z</time>
      </trkpt>
      <trkpt lat="42.95085794" lon="13.43701296">
        <ele>630.00000</ele>
        <time>2024-05-10T19:39:59Z</time>
      </trkpt>
      <trkpt lat="42.95083397" lon="13.43699494">
        <ele>630.00000</ele>
        <time>2024-05-10T19:40:00Z</time>
      </trkpt>
      <trkpt lat="42.95080698" lon="13.43697792">
        <ele>630.00000</ele>
        <time>2024-05-10T19:40:00Z</time>
      </trkpt>
      <trkpt lat="42.95077797" lon="13.43696694">
        <ele>629.00000</ele>
        <time>2024-05-10T19:40:01Z</time>
      </trkpt>
      <trkpt lat="42.95074797" lon="13.43695395">
        <ele>629.00000</ele>
        <time>2024-05-10T19:40:02Z</time>
      </trkpt>
      <trkpt lat="42.95072492" lon="13.43693199">
        <ele>629.00000</ele>
        <time>2024-05-10T19:40:02Z</time>
      </trkpt>
      <trkpt lat="42.95070799" lon="13.43689897">
        <ele>630.00000</ele>
        <time>2024-05-10T19:40:03Z</time>
      </trkpt>
      <trkpt lat="42.95069499" lon="13.43685798">
        <ele>632.00000</ele>
        <time>2024-05-10T19:40:03Z</time>
      </trkpt>
      <trkpt lat="42.95067295" lon="13.43681892">
        <ele>633.00000</ele>
        <time>2024-05-10T19:40:04Z</time>
      </trkpt>
      <trkpt lat="42.95065292" lon="13.43678799">
        <ele>634.00000</ele>
        <time>2024-05-10T19:40:05Z</time>
      </trkpt>
      <trkpt lat="42.95063096" lon="13.43676092">
        <ele>635.00000</ele>
        <time>2024-05-10T19:40:05Z</time>
      </trkpt>
      <trkpt lat="42.95060598" lon="13.43673493">
        <ele>636.00000</ele>
        <time>2024-05-10T19:40:06Z</time>
      </trkpt>
      <trkpt lat="42.95058494" lon="13.43670492">
        <ele>638.00000</ele>
        <time>2024-05-10T19:40:07Z</time>
      </trkpt>
      <trkpt lat="42.95056197" lon="13.43667492">
        <ele>639.00000</ele>
        <time>2024-05-10T19:40:07Z</time>
      </trkpt>
      <trkpt lat="42.95053699" lon="13.43665799">
        <ele>640.00000</ele>
        <time>2024-05-10T19:40:08Z</time>
      </trkpt>
      <trkpt lat="42.95051495" lon="13.43663795">
        <ele>640.00000</ele>
        <time>2024-05-10T19:40:08Z</time>
      </trkpt>
      <trkpt lat="42.95049794" lon="13.43662094">
        <ele>641.00000</ele>
        <time>2024-05-10T19:40:09Z</time>
      </trkpt>
      <trkpt lat="42.95047497" lon="13.43661197">
        <ele>641.00000</ele>
        <time>2024-05-10T19:40:09Z</time>
      </trkpt>
      <trkpt lat="42.95045192" lon="13.43660895">
        <ele>640.00000</ele>
        <time>2024-05-10T19:40:10Z</time>
      </trkpt>
      <trkpt lat="42.95042493" lon="13.43660593">
        <ele>640.00000</ele>
        <time>2024-05-10T19:40:10Z</time>
      </trkpt>
      <trkpt lat="42.95039693" lon="13.43660493">
        <ele>640.00000</ele>
        <time>2024-05-10T19:40:11Z</time>
      </trkpt>
      <trkpt lat="42.95036894" lon="13.43659797">
        <ele>640.00000</ele>
        <time>2024-05-10T19:40:11Z</time>
      </trkpt>
      <trkpt lat="42.95034195" lon="13.43659093">
        <ele>640.00000</ele>
        <time>2024-05-10T19:40:12Z</time>
      </trkpt>
      <trkpt lat="42.95031898" lon="13.43658096">
        <ele>640.00000</ele>
        <time>2024-05-10T19:40:12Z</time>
      </trkpt>
      <trkpt lat="42.95029099" lon="13.43656696">
        <ele>641.00000</ele>
        <time>2024-05-10T19:40:13Z</time>
      </trkpt>
      <trkpt lat="42.95026693" lon="13.43656294">
        <ele>641.00000</ele>
        <time>2024-05-10T19:40:13Z</time>
      </trkpt>
      <trkpt lat="42.95023793" lon="13.43656796">
        <ele>640.00000</ele>
        <time>2024-05-10T19:40:14Z</time>
      </trkpt>
      <trkpt lat="42.95021194" lon="13.43656092">
        <ele>640.00000</ele>
        <time>2024-05-10T19:40:15Z</time>
      </trkpt>
      <trkpt lat="42.95018294" lon="13.43656092">
        <ele>640.00000</ele>
        <time>2024-05-10T19:40:15Z</time>
      </trkpt>
      <trkpt lat="42.95015495" lon="13.43655497">
        <ele>640.00000</ele>
        <time>2024-05-10T19:40:16Z</time>
      </trkpt>
      <trkpt lat="42.95012393" lon="13.43655799">
        <ele>640.00000</ele>
        <time>2024-05-10T19:40:16Z</time>
      </trkpt>
      <trkpt lat="42.95009594" lon="13.43656092">
        <ele>640.00000</ele>
        <time>2024-05-10T19:40:17Z</time>
      </trkpt>
      <trkpt lat="42.95006593" lon="13.43656495">
        <ele>639.00000</ele>
        <time>2024-05-10T19:40:17Z</time>
      </trkpt>
      <trkpt lat="42.95003693" lon="13.43656595">
        <ele>639.00000</ele>
        <time>2024-05-10T19:40:18Z</time>
      </trkpt>
      <trkpt lat="42.95001095" lon="13.43656394">
        <ele>639.00000</ele>
        <time>2024-05-10T19:40:19Z</time>
      </trkpt>
      <trkpt lat="42.94998094" lon="13.43656092">
        <ele>639.00000</ele>
        <time>2024-05-10T19:40:19Z</time>
      </trkpt>
      <trkpt lat="42.94995294" lon="13.43656595">
        <ele>639.00000</ele>
        <time>2024-05-10T19:40:20Z</time>
      </trkpt>
      <trkpt lat="42.94992495" lon="13.43656796">
        <ele>639.00000</ele>
        <time>2024-05-10T19:40:20Z</time>
      </trkpt>
      <trkpt lat="42.94989595" lon="13.43657098">
        <ele>639.00000</ele>
        <time>2024-05-10T19:40:21Z</time>
      </trkpt>
      <trkpt lat="42.94986695" lon="13.43657392">
        <ele>639.00000</ele>
        <time>2024-05-10T19:40:21Z</time>
      </trkpt>
      <trkpt lat="42.94983996" lon="13.43657492">
        <ele>639.00000</ele>
        <time>2024-05-10T19:40:22Z</time>
      </trkpt>
      <trkpt lat="42.94980894" lon="13.43657894">
        <ele>639.00000</ele>
        <time>2024-05-10T19:40:23Z</time>
      </trkpt>
      <trkpt lat="42.94977491" lon="13.43658699">
        <ele>639.00000</ele>
        <time>2024-05-10T19:40:23Z</time>
      </trkpt>
      <trkpt lat="42.94974398" lon="13.43659093">
        <ele>639.00000</ele>
        <time>2024-05-10T19:40:24Z</time>
      </trkpt>
      <trkpt lat="42.94971498" lon="13.43659495">
        <ele>640.00000</ele>
        <time>2024-05-10T19:40:25Z</time>
      </trkpt>
      <trkpt lat="42.94968799" lon="13.43660493">
        <ele>640.00000</ele>
        <time>2024-05-10T19:40:25Z</time>
      </trkpt>
      <trkpt lat="42.94966192" lon="13.43661398">
        <ele>640.00000</ele>
        <time>2024-05-10T19:40:26Z</time>
      </trkpt>
      <trkpt lat="42.94963594" lon="13.43662496">
        <ele>640.00000</ele>
        <time>2024-05-10T19:40:26Z</time>
      </trkpt>
      <trkpt lat="42.94960694" lon="13.43663594">
        <ele>640.00000</ele>
        <time>2024-05-10T19:40:27Z</time>
      </trkpt>
      <trkpt lat="42.94957693" lon="13.43664994">
        <ele>640.00000</ele>
        <time>2024-05-10T19:40:27Z</time>
      </trkpt>
      <trkpt lat="42.94954894" lon="13.43666092">
        <ele>640.00000</ele>
        <time>2024-05-10T19:40:28Z</time>
      </trkpt>
      <trkpt lat="42.94952094" lon="13.43667592">
        <ele>640.00000</ele>
        <time>2024-05-10T19:40:29Z</time>
      </trkpt>
      <trkpt lat="42.94948993" lon="13.43669394">
        <ele>640.00000</ele>
        <time>2024-05-10T19:40:29Z</time>
      </trkpt>
      <trkpt lat="42.94946596" lon="13.43670995">
        <ele>640.00000</ele>
        <time>2024-05-10T19:40:30Z</time>
      </trkpt>
      <trkpt lat="42.94943997" lon="13.43672999">
        <ele>639.00000</ele>
        <time>2024-05-10T19:40:30Z</time>
      </trkpt>
      <trkpt lat="42.94941097" lon="13.43674893">
        <ele>639.00000</ele>
        <time>2024-05-10T19:40:31Z</time>
      </trkpt>
      <trkpt lat="42.94938096" lon="13.43676595">
        <ele>638.00000</ele>
        <time>2024-05-10T19:40:32Z</time>
      </trkpt>
      <trkpt lat="42.94934693" lon="13.43677592">
        <ele>638.00000</ele>
        <time>2024-05-10T19:40:32Z</time>
      </trkpt>
      <trkpt lat="42.94931299" lon="13.43678992">
        <ele>638.00000</ele>
        <time>2024-05-10T19:40:33Z</time>
      </trkpt>
      <trkpt lat="42.94927191" lon="13.43679193">
        <ele>639.00000</ele>
        <time>2024-05-10T19:40:34Z</time>
      </trkpt>
      <trkpt lat="42.94924098" lon="13.43678698">
        <ele>640.00000</ele>
        <time>2024-05-10T19:40:35Z</time>
      </trkpt>
      <trkpt lat="42.94920595" lon="13.43679092">
        <ele>640.00000</ele>
        <time>2024-05-10T19:40:35Z</time>
      </trkpt>
      <trkpt lat="42.94917393" lon="13.43678799">
        <ele>641.00000</ele>
        <time>2024-05-10T19:40:36Z</time>
      </trkpt>
      <trkpt lat="42.94914199" lon="13.43677793">
        <ele>642.00000</ele>
        <time>2024-05-10T19:40:37Z</time>
      </trkpt>
      <trkpt lat="42.94911199" lon="13.43677299">
        <ele>642.00000</ele>
        <time>2024-05-10T19:40:37Z</time>
      </trkpt>
      <trkpt lat="42.94907896" lon="13.43676997">
        <ele>641.00000</ele>
        <time>2024-05-10T19:40:38Z</time>
      </trkpt>
      <trkpt lat="42.94904594" lon="13.43676393">
        <ele>641.00000</ele>
        <time>2024-05-10T19:40:38Z</time>
      </trkpt>
      <trkpt lat="42.94901199" lon="13.43675999">
        <ele>641.00000</ele>
        <time>2024-05-10T19:40:39Z</time>
      </trkpt>
      <trkpt lat="42.94897997" lon="13.43675999">
        <ele>641.00000</ele>
        <time>2024-05-10T19:40:40Z</time>
      </trkpt>
      <trkpt lat="42.94894292" lon="13.43675899">
        <ele>640.00000</ele>
        <time>2024-05-10T19:40:41Z</time>
      </trkpt>
      <trkpt lat="42.94890697" lon="13.43675396">
        <ele>640.00000</ele>
        <time>2024-05-10T19:40:41Z</time>
      </trkpt>
      <trkpt lat="42.94887092" lon="13.43674499">
        <ele>640.00000</ele>
        <time>2024-05-10T19:40:42Z</time>
      </trkpt>
      <trkpt lat="42.94883497" lon="13.43672697">
        <ele>639.00000</ele>
        <time>2024-05-10T19:40:43Z</time>
      </trkpt>
      <trkpt lat="42.94880194" lon="13.43670895">
        <ele>638.00000</ele>
        <time>2024-05-10T19:40:43Z</time>
      </trkpt>
      <trkpt lat="42.94877596" lon="13.43669193">
        <ele>638.00000</ele>
        <time>2024-05-10T19:40:44Z</time>
      </trkpt>
      <trkpt lat="42.94874796" lon="13.43666897">
        <ele>638.00000</ele>
        <time>2024-05-10T19:40:45Z</time>
      </trkpt>
      <trkpt lat="42.94871997" lon="13.43664298">
        <ele>638.00000</ele>
        <time>2024-05-10T19:40:45Z</time>
      </trkpt>
      <trkpt lat="42.94869398" lon="13.43661599">
        <ele>637.00000</ele>
        <time>2024-05-10T19:40:46Z</time>
      </trkpt>
      <trkpt lat="42.94866498" lon="13.43658699">
        <ele>637.00000</ele>
        <time>2024-05-10T19:40:47Z</time>
      </trkpt>
      <trkpt lat="42.94864193" lon="13.43655799">
        <ele>638.00000</ele>
        <time>2024-05-10T19:40:47Z</time>
      </trkpt>
      <trkpt lat="42.94861997" lon="13.43653092">
        <ele>638.00000</ele>
        <time>2024-05-10T19:40:48Z</time>
      </trkpt>
      <trkpt lat="42.94860899" lon="13.43650292">
        <ele>638.00000</ele>
        <time>2024-05-10T19:40:48Z</time>
      </trkpt>
      <trkpt lat="42.94859097" lon="13.43646596">
        <ele>639.00000</ele>
        <time>2024-05-10T19:40:49Z</time>
      </trkpt>
      <trkpt lat="42.94857295" lon="13.43642799">
        <ele>640.00000</ele>
        <time>2024-05-10T19:40:50Z</time>
      </trkpt>
      <trkpt lat="42.94856197" lon="13.43639194">
        <ele>641.00000</ele>
        <time>2024-05-10T19:40:50Z</time>
      </trkpt>
      <trkpt lat="42.94854998" lon="13.43635498">
        <ele>642.00000</ele>
        <time>2024-05-10T19:40:51Z</time>
      </trkpt>
      <trkpt lat="42.94853699" lon="13.43631592">
        <ele>643.00000</ele>
        <time>2024-05-10T19:40:52Z</time>
      </trkpt>
      <trkpt lat="42.94851696" lon="13.43628097">
        <ele>643.00000</ele>
        <time>2024-05-10T19:40:52Z</time>
      </trkpt>
      <trkpt lat="42.94850195" lon="13.43624291">
        <ele>645.00000</ele>
        <time>2024-05-10T19:40:53Z</time>
      </trkpt>
      <trkpt lat="42.94848594" lon="13.43620897">
        <ele>645.00000</ele>
        <time>2024-05-10T19:40:53Z</time>
      </trkpt>
      <trkpt lat="42.94846499" lon="13.43617494">
        <ele>646.00000</ele>
        <time>2024-05-10T19:40:54Z</time>
      </trkpt>
      <trkpt lat="42.94843892" lon="13.43614795">
        <ele>647.00000</ele>
        <time>2024-05-10T19:40:55Z</time>
      </trkpt>
      <trkpt lat="42.94840992" lon="13.43612599">
        <ele>647.00000</ele>
        <time>2024-05-10T19:40:55Z</time>
      </trkpt>
      <trkpt lat="42.94838293" lon="13.43610294">
        <ele>648.00000</ele>
        <time>2024-05-10T19:40:56Z</time>
      </trkpt>
      <trkpt lat="42.94835594" lon="13.43607896">
        <ele>649.00000</ele>
        <time>2024-05-10T19:40:57Z</time>
      </trkpt>
      <trkpt lat="42.94833297" lon="13.43605893">
        <ele>650.00000</ele>
        <time>2024-05-10T19:40:57Z</time>
      </trkpt>
      <trkpt lat="42.94830892" lon="13.43604192">
        <ele>650.00000</ele>
        <time>2024-05-10T19:40:58Z</time>
      </trkpt>
      <trkpt lat="42.94827992" lon="13.43602993">
        <ele>651.00000</ele>
        <time>2024-05-10T19:40:58Z</time>
      </trkpt>
      <trkpt lat="42.94825393" lon="13.43602096">
        <ele>651.00000</ele>
        <time>2024-05-10T19:40:59Z</time>
      </trkpt>
      <trkpt lat="42.94822594" lon="13.43601199">
        <ele>651.00000</ele>
        <time>2024-05-10T19:40:59Z</time>
      </trkpt>
      <trkpt lat="42.94819694" lon="13.43600294">
        <ele>651.00000</ele>
        <time>2024-05-10T19:41:00Z</time>
      </trkpt>
      <trkpt lat="42.94816693" lon="13.43600193">
        <ele>651.00000</ele>
        <time>2024-05-10T19:41:01Z</time>
      </trkpt>
      <trkpt lat="42.94813499" lon="13.43600093">
        <ele>651.00000</ele>
        <time>2024-05-10T19:41:01Z</time>
      </trkpt>
      <trkpt lat="42.94810398" lon="13.43600696">
        <ele>650.00000</ele>
        <time>2024-05-10T19:41:02Z</time>
      </trkpt>
      <trkpt lat="42.94807096" lon="13.43601996">
        <ele>649.00000</ele>
        <time>2024-05-10T19:41:03Z</time>
      </trkpt>
      <trkpt lat="42.94804095" lon="13.43602792">
        <ele>649.00000</ele>
        <time>2024-05-10T19:41:03Z</time>
      </trkpt>
      <trkpt lat="42.94801195" lon="13.43603697">
        <ele>648.00000</ele>
        <time>2024-05-10T19:41:04Z</time>
      </trkpt>
      <trkpt lat="42.94798496" lon="13.43604594">
        <ele>648.00000</ele>
        <time>2024-05-10T19:41:04Z</time>
      </trkpt>
      <trkpt lat="42.94795797" lon="13.43605399">
        <ele>647.00000</ele>
        <time>2024-05-10T19:41:05Z</time>
      </trkpt>
      <trkpt lat="42.94792997" lon="13.43605197">
        <ele>647.00000</ele>
        <time>2024-05-10T19:41:05Z</time>
      </trkpt>
      <trkpt lat="42.94790097" lon="13.43605399">
        <ele>647.00000</ele>
        <time>2024-05-10T19:41:06Z</time>
      </trkpt>
      <trkpt lat="42.94786996" lon="13.43605399">
        <ele>647.00000</ele>
        <time>2024-05-10T19:41:07Z</time>
      </trkpt>
      <trkpt lat="42.94784096" lon="13.43605692">
        <ele>647.00000</ele>
        <time>2024-05-10T19:41:07Z</time>
      </trkpt>
      <trkpt lat="42.94781095" lon="13.43605893">
        <ele>647.00000</ele>
        <time>2024-05-10T19:41:08Z</time>
      </trkpt>
      <trkpt lat="42.94778396" lon="13.43605692">
        <ele>647.00000</ele>
        <time>2024-05-10T19:41:08Z</time>
      </trkpt>
      <trkpt lat="42.94775697" lon="13.43605793">
        <ele>647.00000</ele>
        <time>2024-05-10T19:41:09Z</time>
      </trkpt>
      <trkpt lat="42.94772897" lon="13.43604493">
        <ele>647.00000</ele>
        <time>2024-05-10T19:41:10Z</time>
      </trkpt>
      <trkpt lat="42.94770198" lon="13.43603094">
        <ele>647.00000</ele>
        <time>2024-05-10T19:41:10Z</time>
      </trkpt>
      <trkpt lat="42.94767692" lon="13.43601694">
        <ele>647.00000</ele>
        <time>2024-05-10T19:41:11Z</time>
      </trkpt>
      <trkpt lat="42.94765697" lon="13.43599196">
        <ele>647.00000</ele>
        <time>2024-05-10T19:41:11Z</time>
      </trkpt>
      <trkpt lat="42.94763895" lon="13.43596598">
        <ele>648.00000</ele>
        <time>2024-05-10T19:41:12Z</time>
      </trkpt>
      <trkpt lat="42.94761892" lon="13.43594393">
        <ele>648.00000</ele>
        <time>2024-05-10T19:41:12Z</time>
      </trkpt>
      <trkpt lat="42.94759796" lon="13.43592197">
        <ele>649.00000</ele>
        <time>2024-05-10T19:41:13Z</time>
      </trkpt>
      <trkpt lat="42.94757894" lon="13.43589792">
        <ele>649.00000</ele>
        <time>2024-05-10T19:41:13Z</time>
      </trkpt>
      <trkpt lat="42.94755698" lon="13.43587998">
        <ele>649.00000</ele>
        <time>2024-05-10T19:41:14Z</time>
      </trkpt>
      <trkpt lat="42.94753191" lon="13.43585693">
        <ele>649.00000</ele>
        <time>2024-05-10T19:41:14Z</time>
      </trkpt>
      <trkpt lat="42.94750291" lon="13.43583296">
        <ele>650.00000</ele>
        <time>2024-05-10T19:41:15Z</time>
      </trkpt>
      <trkpt lat="42.94747693" lon="13.43581192">
        <ele>650.00000</ele>
        <time>2024-05-10T19:41:16Z</time>
      </trkpt>
      <trkpt lat="42.94745597" lon="13.43578895">
        <ele>650.00000</ele>
        <time>2024-05-10T19:41:16Z</time>
      </trkpt>
      <trkpt lat="42.94743192" lon="13.43576297">
        <ele>651.00000</ele>
        <time>2024-05-10T19:41:17Z</time>
      </trkpt>
      <trkpt lat="42.94741096" lon="13.43573799">
        <ele>651.00000</ele>
        <time>2024-05-10T19:41:17Z</time>
      </trkpt>
      <trkpt lat="42.94738699" lon="13.43570999">
        <ele>652.00000</ele>
        <time>2024-05-10T19:41:18Z</time>
      </trkpt>
      <trkpt lat="42.94736595" lon="13.43567496">
        <ele>652.00000</ele>
        <time>2024-05-10T19:41:19Z</time>
      </trkpt>
      <trkpt lat="42.94735095" lon="13.43564193">
        <ele>653.00000</ele>
        <time>2024-05-10T19:41:19Z</time>
      </trkpt>
      <trkpt lat="42.94733494" lon="13.43560597">
        <ele>654.00000</ele>
        <time>2024-05-10T19:41:20Z</time>
      </trkpt>
      <trkpt lat="42.94731692" lon="13.43557295">
        <ele>655.00000</ele>
        <time>2024-05-10T19:41:20Z</time>
      </trkpt>
      <trkpt lat="42.94729999" lon="13.43554596">
        <ele>656.00000</ele>
        <time>2024-05-10T19:41:21Z</time>
      </trkpt>
      <trkpt lat="42.94727995" lon="13.43551998">
        <ele>656.00000</ele>
        <time>2024-05-10T19:41:22Z</time>
      </trkpt>
      <trkpt lat="42.94725992" lon="13.43549299">
        <ele>657.00000</ele>
        <time>2024-05-10T19:41:22Z</time>
      </trkpt>
      <trkpt lat="42.94723897" lon="13.43546792">
        <ele>657.00000</ele>
        <time>2024-05-10T19:41:23Z</time>
      </trkpt>
      <trkpt lat="42.94721491" lon="13.43544596">
        <ele>657.00000</ele>
        <time>2024-05-10T19:41:23Z</time>
      </trkpt>
      <trkpt lat="42.94719094" lon="13.43542694">
        <ele>657.00000</ele>
        <time>2024-05-10T19:41:24Z</time>
      </trkpt>
      <trkpt lat="42.94716496" lon="13.43541193">
        <ele>657.00000</ele>
        <time>2024-05-10T19:41:24Z</time>
      </trkpt>
      <trkpt lat="42.94713797" lon="13.43539592">
        <ele>657.00000</ele>
        <time>2024-05-10T19:41:25Z</time>
      </trkpt>
      <trkpt lat="42.94710997" lon="13.43538293">
        <ele>657.00000</ele>
        <time>2024-05-10T19:41:26Z</time>
      </trkpt>
      <trkpt lat="42.94707896" lon="13.43537296">
        <ele>657.00000</ele>
        <time>2024-05-10T19:41:26Z</time>
      </trkpt>
      <trkpt lat="42.94704895" lon="13.43538293">
        <ele>657.00000</ele>
        <time>2024-05-10T19:41:27Z</time>
      </trkpt>
      <trkpt lat="42.94701693" lon="13.43538394">
        <ele>656.00000</ele>
        <time>2024-05-10T19:41:27Z</time>
      </trkpt>
      <trkpt lat="42.94698491" lon="13.43538193">
        <ele>656.00000</ele>
        <time>2024-05-10T19:41:28Z</time>
      </trkpt>
      <trkpt lat="42.94695499" lon="13.43537899">
        <ele>655.00000</ele>
        <time>2024-05-10T19:41:29Z</time>
      </trkpt>
      <trkpt lat="42.94692297" lon="13.43538494">
        <ele>655.00000</ele>
        <time>2024-05-10T19:41:29Z</time>
      </trkpt>
      <trkpt lat="42.94689497" lon="13.43539198">
        <ele>654.00000</ele>
        <time>2024-05-10T19:41:30Z</time>
      </trkpt>
      <trkpt lat="42.94685994" lon="13.43539492">
        <ele>654.00000</ele>
        <time>2024-05-10T19:41:31Z</time>
      </trkpt>
      <trkpt lat="42.94682499" lon="13.43539492">
        <ele>653.00000</ele>
        <time>2024-05-10T19:41:31Z</time>
      </trkpt>
      <trkpt lat="42.94678894" lon="13.43538897">
        <ele>653.00000</ele>
        <time>2024-05-10T19:41:32Z</time>
      </trkpt>
      <trkpt lat="42.94675097" lon="13.43537597">
        <ele>653.00000</ele>
        <time>2024-05-10T19:41:33Z</time>
      </trkpt>
      <trkpt lat="42.94671493" lon="13.43536692">
        <ele>653.00000</ele>
        <time>2024-05-10T19:41:34Z</time>
      </trkpt>
      <trkpt lat="42.94667696" lon="13.43535695">
        <ele>654.00000</ele>
        <time>2024-05-10T19:41:34Z</time>
      </trkpt>
      <trkpt lat="42.94663597" lon="13.43533893">
        <ele>654.00000</ele>
        <time>2024-05-10T19:41:35Z</time>
      </trkpt>
      <trkpt lat="42.94659398" lon="13.43532199">
        <ele>655.00000</ele>
        <time>2024-05-10T19:41:36Z</time>
      </trkpt>
      <trkpt lat="42.94654696" lon="13.43530297">
        <ele>656.00000</ele>
        <time>2024-05-10T19:41:37Z</time>
      </trkpt>
      <trkpt lat="42.94649792" lon="13.43527891">
        <ele>657.00000</ele>
        <time>2024-05-10T19:41:38Z</time>
      </trkpt>
      <trkpt lat="42.94644797" lon="13.43525293">
        <ele>659.00000</ele>
        <time>2024-05-10T19:41:39Z</time>
      </trkpt>
      <trkpt lat="42.94639592" lon="13.43524295">
        <ele>659.00000</ele>
        <time>2024-05-10T19:41:40Z</time>
      </trkpt>
      <trkpt lat="42.94634194" lon="13.43525595">
        <ele>659.00000</ele>
        <time>2024-05-10T19:41:41Z</time>
      </trkpt>
      <trkpt lat="42.94628092" lon="13.43526793">
        <ele>660.00000</ele>
        <time>2024-05-10T19:41:42Z</time>
      </trkpt>
      <trkpt lat="42.94622694" lon="13.43529693">
        <ele>660.00000</ele>
        <time>2024-05-10T19:41:44Z</time>
      </trkpt>
      <trkpt lat="42.94617497" lon="13.43533792">
        <ele>659.00000</ele>
        <time>2024-05-10T19:41:45Z</time>
      </trkpt>
      <trkpt lat="42.94612292" lon="13.43538092">
        <ele>658.00000</ele>
        <time>2024-05-10T19:41:46Z</time>
      </trkpt>
      <trkpt lat="42.94607196" lon="13.43542794">
        <ele>656.00000</ele>
        <time>2024-05-10T19:41:47Z</time>
      </trkpt>
      <trkpt lat="42.94600599" lon="13.43544898">
        <ele>656.00000</ele>
        <time>2024-05-10T19:41:49Z</time>
      </trkpt>
      <trkpt lat="42.94593399" lon="13.43545191">
        <ele>658.00000</ele>
        <time>2024-05-10T19:41:50Z</time>
      </trkpt>
      <trkpt lat="42.94586299" lon="13.43544797">
        <ele>659.00000</ele>
        <time>2024-05-10T19:41:52Z</time>
      </trkpt>
      <trkpt lat="42.94578194" lon="13.43544797">
        <ele>660.00000</ele>
        <time>2024-05-10T19:41:53Z</time>
      </trkpt>
      <trkpt lat="42.94569494" lon="13.43547295">
        <ele>659.00000</ele>
        <time>2024-05-10T19:41:55Z</time>
      </trkpt>
      <trkpt lat="42.94560894" lon="13.43550698">
        <ele>657.00000</ele>
        <time>2024-05-10T19:41:57Z</time>
      </trkpt>
      <trkpt lat="42.94552797" lon="13.43554696">
        <ele>655.00000</ele>
        <time>2024-05-10T19:41:58Z</time>
      </trkpt>
      <trkpt lat="42.94546091" lon="13.43561494">
        <ele>652.00000</ele>
        <time>2024-05-10T19:42:00Z</time>
      </trkpt>
      <trkpt lat="42.94540492" lon="13.43569893">
        <ele>649.00000</ele>
        <time>2024-05-10T19:42:02Z</time>
      </trkpt>
      <trkpt lat="42.94534994" lon="13.43577797">
        <ele>647.00000</ele>
        <time>2024-05-10T19:42:03Z</time>
      </trkpt>
      <trkpt lat="42.94531096" lon="13.43586992">
        <ele>644.00000</ele>
        <time>2024-05-10T19:42:05Z</time>
      </trkpt>
      <trkpt lat="42.94527492" lon="13.43596992">
        <ele>642.00000</ele>
        <time>2024-05-10T19:42:07Z</time>
      </trkpt>
      <trkpt lat="42.94524692" lon="13.43607595">
        <ele>640.00000</ele>
        <time>2024-05-10T19:42:08Z</time>
      </trkpt>
      <trkpt lat="42.94524592" lon="13.43617997">
        <ele>637.00000</ele>
        <time>2024-05-10T19:42:10Z</time>
      </trkpt>
      <trkpt lat="42.94525598" lon="13.43628994">
        <ele>635.00000</ele>
        <time>2024-05-10T19:42:11Z</time>
      </trkpt>
      <trkpt lat="42.94527098" lon="13.43639999">
        <ele>633.00000</ele>
        <time>2024-05-10T19:42:13Z</time>
      </trkpt>
      <trkpt lat="42.94527794" lon="13.43650292">
        <ele>631.00000</ele>
        <time>2024-05-10T19:42:15Z</time>
      </trkpt>
      <trkpt lat="42.94529093" lon="13.43660392">
        <ele>629.00000</ele>
        <time>2024-05-10T19:42:16Z</time>
      </trkpt>
      <trkpt lat="42.94530199" lon="13.43670199">
        <ele>627.00000</ele>
        <time>2024-05-10T19:42:17Z</time>
      </trkpt>
      <trkpt lat="42.94529696" lon="13.43679293">
        <ele>626.00000</ele>
        <time>2024-05-10T19:42:19Z</time>
      </trkpt>
      <trkpt lat="42.94527794" lon="13.43687298">
        <ele>626.00000</ele>
        <time>2024-05-10T19:42:20Z</time>
      </trkpt>
      <trkpt lat="42.94523594" lon="13.43694892">
        <ele>625.00000</ele>
        <time>2024-05-10T19:42:21Z</time>
      </trkpt>
      <trkpt lat="42.94518398" lon="13.43701598">
        <ele>625.00000</ele>
        <time>2024-05-10T19:42:23Z</time>
      </trkpt>
      <trkpt lat="42.94512094" lon="13.43707297">
        <ele>625.00000</ele>
        <time>2024-05-10T19:42:24Z</time>
      </trkpt>
      <trkpt lat="42.94505397" lon="13.43711899">
        <ele>626.00000</ele>
        <time>2024-05-10T19:42:26Z</time>
      </trkpt>
      <trkpt lat="42.94497694" lon="13.43713492">
        <ele>626.00000</ele>
        <time>2024-05-10T19:42:27Z</time>
      </trkpt>
      <trkpt lat="42.94490394" lon="13.43712293">
        <ele>626.00000</ele>
        <time>2024-05-10T19:42:29Z</time>
      </trkpt>
      <trkpt lat="42.94483395" lon="13.43710499">
        <ele>626.00000</ele>
        <time>2024-05-10T19:42:30Z</time>
      </trkpt>
      <trkpt lat="42.94476094" lon="13.43708597">
        <ele>627.00000</ele>
        <time>2024-05-10T19:42:32Z</time>
      </trkpt>
      <trkpt lat="42.94468299" lon="13.43707599">
        <ele>627.00000</ele>
        <time>2024-05-10T19:42:33Z</time>
      </trkpt>
      <trkpt lat="42.94460998" lon="13.43706996">
        <ele>628.00000</ele>
        <time>2024-05-10T19:42:35Z</time>
      </trkpt>
      <trkpt lat="42.94453597" lon="13.43706795">
        <ele>629.00000</ele>
        <time>2024-05-10T19:42:36Z</time>
      </trkpt>
      <trkpt lat="42.94446196" lon="13.43706694">
        <ele>629.00000</ele>
        <time>2024-05-10T19:42:38Z</time>
      </trkpt>
      <trkpt lat="42.94438795" lon="13.43708094">
        <ele>630.00000</ele>
        <time>2024-05-10T19:42:39Z</time>
      </trkpt>
      <trkpt lat="42.94431092" lon="13.43709393">
        <ele>630.00000</ele>
        <time>2024-05-10T19:42:41Z</time>
      </trkpt>
      <trkpt lat="42.94422995" lon="13.43711799">
        <ele>630.00000</ele>
        <time>2024-05-10T19:42:43Z</time>
      </trkpt>
      <trkpt lat="42.94414898" lon="13.43715294">
        <ele>630.00000</ele>
        <time>2024-05-10T19:42:44Z</time>
      </trkpt>
      <trkpt lat="42.94406994" lon="13.43719493">
        <ele>629.00000</ele>
        <time>2024-05-10T19:42:46Z</time>
      </trkpt>
      <trkpt lat="42.94398796" lon="13.43722695">
        <ele>628.00000</ele>
        <time>2024-05-10T19:42:48Z</time>
      </trkpt>
      <trkpt lat="42.94390792" lon="13.43725897">
        <ele>626.00000</ele>
        <time>2024-05-10T19:42:49Z</time>
      </trkpt>
      <trkpt lat="42.94382795" lon="13.43727791">
        <ele>625.00000</ele>
        <time>2024-05-10T19:42:51Z</time>
      </trkpt>
      <trkpt lat="42.94374497" lon="13.43730096">
        <ele>624.00000</ele>
        <time>2024-05-10T19:42:53Z</time>
      </trkpt>
      <trkpt lat="42.94366098" lon="13.43732099">
        <ele>622.00000</ele>
        <time>2024-05-10T19:42:54Z</time>
      </trkpt>
      <trkpt lat="42.94356694" lon="13.43733893">
        <ele>621.00000</ele>
        <time>2024-05-10T19:42:56Z</time>
      </trkpt>
      <trkpt lat="42.94347398" lon="13.43732695">
        <ele>621.00000</ele>
        <time>2024-05-10T19:42:58Z</time>
      </trkpt>
      <trkpt lat="42.94336795" lon="13.43732795">
        <ele>620.00000</ele>
        <time>2024-05-10T19:43:00Z</time>
      </trkpt>
      <trkpt lat="42.94326092" lon="13.43733399">
        <ele>618.00000</ele>
        <time>2024-05-10T19:43:02Z</time>
      </trkpt>
      <trkpt lat="42.94315597" lon="13.43735695">
        <ele>615.00000</ele>
        <time>2024-05-10T19:43:04Z</time>
      </trkpt>
      <trkpt lat="42.94305698" lon="13.43737497">
        <ele>612.00000</ele>
        <time>2024-05-10T19:43:06Z</time>
      </trkpt>
      <trkpt lat="42.94297392" lon="13.43739199">
        <ele>610.00000</ele>
        <time>2024-05-10T19:43:08Z</time>
      </trkpt>
      <trkpt lat="42.94290695" lon="13.43739392">
        <ele>608.00000</ele>
        <time>2024-05-10T19:43:09Z</time>
      </trkpt>
      <trkpt lat="42.94284794" lon="13.43739895">
        <ele>607.00000</ele>
        <time>2024-05-10T19:43:11Z</time>
      </trkpt>
      <trkpt lat="42.94280092" lon="13.43739995">
        <ele>605.00000</ele>
        <time>2024-05-10T19:43:12Z</time>
      </trkpt>
      <trkpt lat="42.94275498" lon="13.43736995">
        <ele>604.00000</ele>
        <time>2024-05-10T19:43:13Z</time>
      </trkpt>
      <trkpt lat="42.94272598" lon="13.43731295">
        <ele>604.00000</ele>
        <time>2024-05-10T19:43:14Z</time>
      </trkpt>
      <trkpt lat="42.94271391" lon="13.43724397">
        <ele>604.00000</ele>
        <time>2024-05-10T19:43:15Z</time>
      </trkpt>
      <trkpt lat="42.94272892" lon="13.43717297">
        <ele>604.00000</ele>
        <time>2024-05-10T19:43:16Z</time>
      </trkpt>
      <trkpt lat="42.94274593" lon="13.43708395">
        <ele>603.00000</ele>
        <time>2024-05-10T19:43:17Z</time>
      </trkpt>
      <trkpt lat="42.94276295" lon="13.43698597">
        <ele>603.00000</ele>
        <time>2024-05-10T19:43:19Z</time>
      </trkpt>
      <trkpt lat="42.94277996" lon="13.43688991">
        <ele>602.00000</ele>
        <time>2024-05-10T19:43:20Z</time>
      </trkpt>
      <trkpt lat="42.94280293" lon="13.43679293">
        <ele>601.00000</ele>
        <time>2024-05-10T19:43:22Z</time>
      </trkpt>
      <trkpt lat="42.94282699" lon="13.43668992">
        <ele>600.00000</ele>
        <time>2024-05-10T19:43:23Z</time>
      </trkpt>
      <trkpt lat="42.94284693" lon="13.43656696">
        <ele>600.00000</ele>
        <time>2024-05-10T19:43:25Z</time>
      </trkpt>
      <trkpt lat="42.94286797" lon="13.43645598">
        <ele>599.00000</ele>
        <time>2024-05-10T19:43:27Z</time>
      </trkpt>
      <trkpt lat="42.94288692" lon="13.43633998">
        <ele>598.00000</ele>
        <time>2024-05-10T19:43:28Z</time>
      </trkpt>
      <trkpt lat="42.94290192" lon="13.43622799">
        <ele>597.00000</ele>
        <time>2024-05-10T19:43:30Z</time>
      </trkpt>
      <trkpt lat="42.94291793" lon="13.43611995">
        <ele>596.00000</ele>
        <time>2024-05-10T19:43:32Z</time>
      </trkpt>
      <trkpt lat="42.94294391" lon="13.43602599">
        <ele>596.00000</ele>
        <time>2024-05-10T19:43:33Z</time>
      </trkpt>
      <trkpt lat="42.94297694" lon="13.43594896">
        <ele>596.00000</ele>
        <time>2024-05-10T19:43:34Z</time>
      </trkpt>
      <trkpt lat="42.94300694" lon="13.43588098">
        <ele>597.00000</ele>
        <time>2024-05-10T19:43:36Z</time>
      </trkpt>
      <trkpt lat="42.94303595" lon="13.43582198">
        <ele>597.00000</ele>
        <time>2024-05-10T19:43:37Z</time>
      </trkpt>
      <trkpt lat="42.94304994" lon="13.43576498">
        <ele>597.00000</ele>
        <time>2024-05-10T19:43:38Z</time>
      </trkpt>
      <trkpt lat="42.94303695" lon="13.43570798">
        <ele>597.00000</ele>
        <time>2024-05-10T19:43:38Z</time>
      </trkpt>
      <trkpt lat="42.94300795" lon="13.43565895">
        <ele>596.00000</ele>
        <time>2024-05-10T19:43:39Z</time>
      </trkpt>
      <trkpt lat="42.94296897" lon="13.43565098">
        <ele>596.00000</ele>
        <time>2024-05-10T19:43:40Z</time>
      </trkpt>
      <trkpt lat="42.94292598" lon="13.43565995">
        <ele>595.00000</ele>
        <time>2024-05-10T19:43:41Z</time>
      </trkpt>
      <trkpt lat="42.94288499" lon="13.43567194">
        <ele>595.00000</ele>
        <time>2024-05-10T19:43:42Z</time>
      </trkpt>
      <trkpt lat="42.94283495" lon="13.43566792">
        <ele>594.00000</ele>
        <time>2024-05-10T19:43:43Z</time>
      </trkpt>
      <trkpt lat="42.94277695" lon="13.43567294">
        <ele>593.00000</ele>
        <time>2024-05-10T19:43:44Z</time>
      </trkpt>
      <trkpt lat="42.94271794" lon="13.43567697">
        <ele>592.00000</ele>
        <time>2024-05-10T19:43:45Z</time>
      </trkpt>
      <trkpt lat="42.94265499" lon="13.43566699">
        <ele>592.00000</ele>
        <time>2024-05-10T19:43:46Z</time>
      </trkpt>
      <trkpt lat="42.94259095" lon="13.43564897">
        <ele>592.00000</ele>
        <time>2024-05-10T19:43:48Z</time>
      </trkpt>
      <trkpt lat="42.94252398" lon="13.43563095">
        <ele>592.00000</ele>
        <time>2024-05-10T19:43:49Z</time>
      </trkpt>
      <trkpt lat="42.94245491" lon="13.43564596">
        <ele>592.00000</ele>
        <time>2024-05-10T19:43:51Z</time>
      </trkpt>
      <trkpt lat="42.94239599" lon="13.43569197">
        <ele>591.00000</ele>
        <time>2024-05-10T19:43:52Z</time>
      </trkpt>
      <trkpt lat="42.94234192" lon="13.43575098">
        <ele>589.00000</ele>
        <time>2024-05-10T19:43:53Z</time>
      </trkpt>
      <trkpt lat="42.94229499" lon="13.43583296">
        <ele>586.00000</ele>
        <time>2024-05-10T19:43:55Z</time>
      </trkpt>
      <trkpt lat="42.94224293" lon="13.43591292">
        <ele>584.00000</ele>
        <time>2024-05-10T19:43:56Z</time>
      </trkpt>
      <trkpt lat="42.94218795" lon="13.43598794">
        <ele>583.00000</ele>
        <time>2024-05-10T19:43:58Z</time>
      </trkpt>
      <trkpt lat="42.94213799" lon="13.43605499">
        <ele>582.00000</ele>
        <time>2024-05-10T19:43:59Z</time>
      </trkpt>
      <trkpt lat="42.94207798" lon="13.43609891">
        <ele>583.00000</ele>
        <time>2024-05-10T19:44:01Z</time>
      </trkpt>
      <trkpt lat="42.94200992" lon="13.43612196">
        <ele>585.00000</ele>
        <time>2024-05-10T19:44:02Z</time>
      </trkpt>
      <trkpt lat="42.94193599" lon="13.43613194">
        <ele>587.00000</ele>
        <time>2024-05-10T19:44:04Z</time>
      </trkpt>
      <trkpt lat="42.94186499" lon="13.43612699">
        <ele>588.00000</ele>
        <time>2024-05-10T19:44:05Z</time>
      </trkpt>
      <trkpt lat="42.94178998" lon="13.43612498">
        <ele>590.00000</ele>
        <time>2024-05-10T19:44:07Z</time>
      </trkpt>
      <trkpt lat="42.94170892" lon="13.43614996">
        <ele>590.00000</ele>
        <time>2024-05-10T19:44:08Z</time>
      </trkpt>
      <trkpt lat="42.94163097" lon="13.43620595">
        <ele>588.00000</ele>
        <time>2024-05-10T19:44:10Z</time>
      </trkpt>
      <trkpt lat="42.94155998" lon="13.43628197">
        <ele>584.00000</ele>
        <time>2024-05-10T19:44:12Z</time>
      </trkpt>
      <trkpt lat="42.94148898" lon="13.43636495">
        <ele>579.00000</ele>
        <time>2024-05-10T19:44:14Z</time>
      </trkpt>
      <trkpt lat="42.94141899" lon="13.43643997">
        <ele>574.00000</ele>
        <time>2024-05-10T19:44:15Z</time>
      </trkpt>
      <trkpt lat="42.94134196" lon="13.43649798">
        <ele>571.00000</ele>
        <time>2024-05-10T19:44:17Z</time>
      </trkpt>
      <trkpt lat="42.94126996" lon="13.43654491">
        <ele>569.00000</ele>
        <time>2024-05-10T19:44:19Z</time>
      </trkpt>
      <trkpt lat="42.94119997" lon="13.43656897">
        <ele>569.00000</ele>
        <time>2024-05-10T19:44:20Z</time>
      </trkpt>
      <trkpt lat="42.94113996" lon="13.43656294">
        <ele>569.00000</ele>
        <time>2024-05-10T19:44:21Z</time>
      </trkpt>
      <trkpt lat="42.94107592" lon="13.43654491">
        <ele>569.00000</ele>
        <time>2024-05-10T19:44:23Z</time>
      </trkpt>
      <trkpt lat="42.94102295" lon="13.43650896">
        <ele>571.00000</ele>
        <time>2024-05-10T19:44:24Z</time>
      </trkpt>
      <trkpt lat="42.94097199" lon="13.43646395">
        <ele>572.00000</ele>
        <time>2024-05-10T19:44:25Z</time>
      </trkpt>
      <trkpt lat="42.94091792" lon="13.43643394">
        <ele>574.00000</ele>
        <time>2024-05-10T19:44:26Z</time>
      </trkpt>
      <trkpt lat="42.94085992" lon="13.43642396">
        <ele>574.00000</ele>
        <time>2024-05-10T19:44:27Z</time>
      </trkpt>
      <trkpt lat="42.94080493" lon="13.43645498">
        <ele>574.00000</ele>
        <time>2024-05-10T19:44:29Z</time>
      </trkpt>
      <trkpt lat="42.94075196" lon="13.43650192">
        <ele>572.00000</ele>
        <time>2024-05-10T19:44:30Z</time>
      </trkpt>
      <trkpt lat="42.94071097" lon="13.43656193">
        <ele>570.00000</ele>
        <time>2024-05-10T19:44:31Z</time>
      </trkpt>
      <trkpt lat="42.94066797" lon="13.43662194">
        <ele>568.00000</ele>
        <time>2024-05-10T19:44:32Z</time>
      </trkpt>
      <trkpt lat="42.94063394" lon="13.43668498">
        <ele>566.00000</ele>
        <time>2024-05-10T19:44:33Z</time>
      </trkpt>
      <trkpt lat="42.94060193" lon="13.43675195">
        <ele>564.00000</ele>
        <time>2024-05-10T19:44:35Z</time>
      </trkpt>
      <trkpt lat="42.94056697" lon="13.43680492">
        <ele>562.00000</ele>
        <time>2024-05-10T19:44:36Z</time>
      </trkpt>
      <trkpt lat="42.94051894" lon="13.43683895">
        <ele>560.00000</ele>
        <time>2024-05-10T19:44:37Z</time>
      </trkpt>
      <trkpt lat="42.94046496" lon="13.43684993">
        <ele>558.00000</ele>
        <time>2024-05-10T19:44:38Z</time>
      </trkpt>
      <trkpt lat="42.94040193" lon="13.43683593">
        <ele>558.00000</ele>
        <time>2024-05-10T19:44:39Z</time>
      </trkpt>
      <trkpt lat="42.94033597" lon="13.43680098">
        <ele>558.00000</ele>
        <time>2024-05-10T19:44:41Z</time>
      </trkpt>
      <trkpt lat="42.94026891" lon="13.43675798">
        <ele>558.00000</ele>
        <time>2024-05-10T19:44:42Z</time>
      </trkpt>
      <trkpt lat="42.94020697" lon="13.43671398">
        <ele>559.00000</ele>
        <time>2024-05-10T19:44:43Z</time>
      </trkpt>
      <trkpt lat="42.94013991" lon="13.43667098">
        <ele>560.00000</ele>
        <time>2024-05-10T19:44:45Z</time>
      </trkpt>
      <trkpt lat="42.94006699" lon="13.43662094">
        <ele>561.00000</ele>
        <time>2024-05-10T19:44:47Z</time>
      </trkpt>
      <trkpt lat="42.93999298" lon="13.43656796">
        <ele>563.00000</ele>
        <time>2024-05-10T19:44:48Z</time>
      </trkpt>
      <trkpt lat="42.93991997" lon="13.43650694">
        <ele>564.00000</ele>
        <time>2024-05-10T19:44:50Z</time>
      </trkpt>
      <trkpt lat="42.93984998" lon="13.43644592">
        <ele>565.00000</ele>
        <time>2024-05-10T19:44:52Z</time>
      </trkpt>
      <trkpt lat="42.93978293" lon="13.43638692">
        <ele>565.00000</ele>
        <time>2024-05-10T19:44:53Z</time>
      </trkpt>
      <trkpt lat="42.93972593" lon="13.43633797">
        <ele>565.00000</ele>
        <time>2024-05-10T19:44:55Z</time>
      </trkpt>
      <trkpt lat="42.93967296" lon="13.43630092">
        <ele>567.00000</ele>
        <time>2024-05-10T19:44:56Z</time>
      </trkpt>
      <trkpt lat="42.93962292" lon="13.43629195">
        <ele>567.00000</ele>
        <time>2024-05-10T19:44:57Z</time>
      </trkpt>
      <trkpt lat="42.93957699" lon="13.43631399">
        <ele>566.00000</ele>
        <time>2024-05-10T19:44:58Z</time>
      </trkpt>
      <trkpt lat="42.93955394" lon="13.43635993">
        <ele>565.00000</ele>
        <time>2024-05-10T19:44:59Z</time>
      </trkpt>
      <trkpt lat="42.93954296" lon="13.43640393">
        <ele>565.00000</ele>
        <time>2024-05-10T19:44:59Z</time>
      </trkpt>
      <trkpt lat="42.93954798" lon="13.43644894">
        <ele>565.00000</ele>
        <time>2024-05-10T19:45:00Z</time>
      </trkpt>
      <trkpt lat="42.93955293" lon="13.43649999">
        <ele>565.00000</ele>
        <time>2024-05-10T19:45:01Z</time>
      </trkpt>
      <trkpt lat="42.93955595" lon="13.43655397">
        <ele>565.00000</ele>
        <time>2024-05-10T19:45:01Z</time>
      </trkpt>
      <trkpt lat="42.93955695" lon="13.43659998">
        <ele>565.00000</ele>
        <time>2024-05-10T19:45:02Z</time>
      </trkpt>
      <trkpt lat="42.93955796" lon="13.43664499">
        <ele>565.00000</ele>
        <time>2024-05-10T19:45:03Z</time>
      </trkpt>
      <trkpt lat="42.93956198" lon="13.43669294">
        <ele>565.00000</ele>
        <time>2024-05-10T19:45:03Z</time>
      </trkpt>
      <trkpt lat="42.93957699" lon="13.43673292">
        <ele>565.00000</ele>
        <time>2024-05-10T19:45:04Z</time>
      </trkpt>
      <trkpt lat="42.93960297" lon="13.43676796">
        <ele>564.00000</ele>
        <time>2024-05-10T19:45:05Z</time>
      </trkpt>
      <trkpt lat="42.93963599" lon="13.43679293">
        <ele>563.00000</ele>
        <time>2024-05-10T19:45:06Z</time>
      </trkpt>
      <trkpt lat="42.93966491" lon="13.43681892">
        <ele>563.00000</ele>
        <time>2024-05-10T19:45:06Z</time>
      </trkpt>
      <trkpt lat="42.93969299" lon="13.43684599">
        <ele>562.00000</ele>
        <time>2024-05-10T19:45:07Z</time>
      </trkpt>
      <trkpt lat="42.93972895" lon="13.43686896">
        <ele>561.00000</ele>
        <time>2024-05-10T19:45:08Z</time>
      </trkpt>
      <trkpt lat="42.93975896" lon="13.43689595">
        <ele>560.00000</ele>
        <time>2024-05-10T19:45:09Z</time>
      </trkpt>
      <trkpt lat="42.93978394" lon="13.43692696">
        <ele>559.00000</ele>
        <time>2024-05-10T19:45:09Z</time>
      </trkpt>
      <trkpt lat="42.93980497" lon="13.43695596">
        <ele>559.00000</ele>
        <time>2024-05-10T19:45:10Z</time>
      </trkpt>
      <trkpt lat="42.93982299" lon="13.43698295">
        <ele>559.00000</ele>
        <time>2024-05-10T19:45:10Z</time>
      </trkpt>
      <trkpt lat="42.93983791" lon="13.43701296">
        <ele>558.00000</ele>
        <time>2024-05-10T19:45:11Z</time>
      </trkpt>
      <trkpt lat="42.93984797" lon="13.43704992">
        <ele>558.00000</ele>
        <time>2024-05-10T19:45:11Z</time>
      </trkpt>
      <trkpt lat="42.93985493" lon="13.43709292">
        <ele>558.00000</ele>
        <time>2024-05-10T19:45:12Z</time>
      </trkpt>
      <trkpt lat="42.93986096" lon="13.43712997">
        <ele>558.00000</ele>
        <time>2024-05-10T19:45:13Z</time>
      </trkpt>
      <trkpt lat="42.93986692" lon="13.43716995">
        <ele>557.00000</ele>
        <time>2024-05-10T19:45:13Z</time>
      </trkpt>
      <trkpt lat="42.93987094" lon="13.43720792">
        <ele>557.00000</ele>
        <time>2024-05-10T19:45:14Z</time>
      </trkpt>
      <trkpt lat="42.93987094" lon="13.43724899">
        <ele>557.00000</ele>
        <time>2024-05-10T19:45:14Z</time>
      </trkpt>
      <trkpt lat="42.93987798" lon="13.43729292">
        <ele>556.00000</ele>
        <time>2024-05-10T19:45:15Z</time>
      </trkpt>
      <trkpt lat="42.93987899" lon="13.43733793">
        <ele>556.00000</ele>
        <time>2024-05-10T19:45:16Z</time>
      </trkpt>
      <trkpt lat="42.93987798" lon="13.43737699">
        <ele>556.00000</ele>
        <time>2024-05-10T19:45:16Z</time>
      </trkpt>
      <trkpt lat="42.93987496" lon="13.43741697">
        <ele>556.00000</ele>
        <time>2024-05-10T19:45:17Z</time>
      </trkpt>
      <trkpt lat="42.93986499" lon="13.43745796">
        <ele>556.00000</ele>
        <time>2024-05-10T19:45:18Z</time>
      </trkpt>
      <trkpt lat="42.93985191" lon="13.43750095">
        <ele>556.00000</ele>
        <time>2024-05-10T19:45:18Z</time>
      </trkpt>
      <trkpt lat="42.93984294" lon="13.43753691">
        <ele>557.00000</ele>
        <time>2024-05-10T19:45:19Z</time>
      </trkpt>
      <trkpt lat="42.93983297" lon="13.43757698">
        <ele>557.00000</ele>
        <time>2024-05-10T19:45:19Z</time>
      </trkpt>
      <trkpt lat="42.93982492" lon="13.43761797">
        <ele>558.00000</ele>
        <time>2024-05-10T19:45:20Z</time>
      </trkpt>
      <trkpt lat="42.93981797" lon="13.43765795">
        <ele>558.00000</ele>
        <time>2024-05-10T19:45:21Z</time>
      </trkpt>
      <trkpt lat="42.93981092" lon="13.43769399">
        <ele>559.00000</ele>
        <time>2024-05-10T19:45:21Z</time>
      </trkpt>
      <trkpt lat="42.93980699" lon="13.43774093">
        <ele>559.00000</ele>
        <time>2024-05-10T19:45:22Z</time>
      </trkpt>
      <trkpt lat="42.93980699" lon="13.43779298">
        <ele>559.00000</ele>
        <time>2024-05-10T19:45:23Z</time>
      </trkpt>
      <trkpt lat="42.93981595" lon="13.43783698">
        <ele>559.00000</ele>
        <time>2024-05-10T19:45:23Z</time>
      </trkpt>
      <trkpt lat="42.93982098" lon="13.43788493">
        <ele>559.00000</ele>
        <time>2024-05-10T19:45:24Z</time>
      </trkpt>
      <trkpt lat="42.93982895" lon="13.43793195">
        <ele>559.00000</ele>
        <time>2024-05-10T19:45:25Z</time>
      </trkpt>
      <trkpt lat="42.93983993" lon="13.43797495">
        <ele>559.00000</ele>
        <time>2024-05-10T19:45:25Z</time>
      </trkpt>
      <trkpt lat="42.93984998" lon="13.43801795">
        <ele>559.00000</ele>
        <time>2024-05-10T19:45:26Z</time>
      </trkpt>
      <trkpt lat="42.93985996" lon="13.43806296">
        <ele>559.00000</ele>
        <time>2024-05-10T19:45:27Z</time>
      </trkpt>
      <trkpt lat="42.93987094" lon="13.43810596">
        <ele>558.00000</ele>
        <time>2024-05-10T19:45:27Z</time>
      </trkpt>
      <trkpt lat="42.93988192" lon="13.43815994">
        <ele>558.00000</ele>
        <time>2024-05-10T19:45:28Z</time>
      </trkpt>
      <trkpt lat="42.93988997" lon="13.43822297">
        <ele>558.00000</ele>
        <time>2024-05-10T19:45:29Z</time>
      </trkpt>
      <trkpt lat="42.93989994" lon="13.43828793">
        <ele>558.00000</ele>
        <time>2024-05-10T19:45:30Z</time>
      </trkpt>
      <trkpt lat="42.93991494" lon="13.43834895">
        <ele>557.00000</ele>
        <time>2024-05-10T19:45:31Z</time>
      </trkpt>
      <trkpt lat="42.93993196" lon="13.43840092">
        <ele>556.00000</ele>
        <time>2024-05-10T19:45:32Z</time>
      </trkpt>
      <trkpt lat="42.93994596" lon="13.43846093">
        <ele>555.00000</ele>
        <time>2024-05-10T19:45:33Z</time>
      </trkpt>
      <trkpt lat="42.93995199" lon="13.43852497">
        <ele>554.00000</ele>
        <time>2024-05-10T19:45:34Z</time>
      </trkpt>
      <trkpt lat="42.93994797" lon="13.43858599">
        <ele>554.00000</ele>
        <time>2024-05-10T19:45:35Z</time>
      </trkpt>
      <trkpt lat="42.93992995" lon="13.43864894">
        <ele>555.00000</ele>
        <time>2024-05-10T19:45:36Z</time>
      </trkpt>
      <trkpt lat="42.93990396" lon="13.43871398">
        <ele>556.00000</ele>
        <time>2024-05-10T19:45:37Z</time>
      </trkpt>
      <trkpt lat="42.93987396" lon="13.43877693">
        <ele>557.00000</ele>
        <time>2024-05-10T19:45:38Z</time>
      </trkpt>
      <trkpt lat="42.93983993" lon="13.43884793">
        <ele>558.00000</ele>
        <time>2024-05-10T19:45:39Z</time>
      </trkpt>
      <trkpt lat="42.93980296" lon="13.43892093">
        <ele>560.00000</ele>
        <time>2024-05-10T19:45:40Z</time>
      </trkpt>
      <trkpt lat="42.93976692" lon="13.43899494">
        <ele>563.00000</ele>
        <time>2024-05-10T19:45:42Z</time>
      </trkpt>
      <trkpt lat="42.93972996" lon="13.43906695">
        <ele>565.00000</ele>
        <time>2024-05-10T19:45:43Z</time>
      </trkpt>
      <trkpt lat="42.93969794" lon="13.43913794">
        <ele>567.00000</ele>
        <time>2024-05-10T19:45:44Z</time>
      </trkpt>
      <trkpt lat="42.93967396" lon="13.43922595">
        <ele>566.00000</ele>
        <time>2024-05-10T19:45:46Z</time>
      </trkpt>
      <trkpt lat="42.93965594" lon="13.43931195">
        <ele>566.00000</ele>
        <time>2024-05-10T19:45:47Z</time>
      </trkpt>
      <trkpt lat="42.93964999" lon="13.43938395">
        <ele>565.00000</ele>
        <time>2024-05-10T19:45:48Z</time>
      </trkpt>
      <trkpt lat="42.93964195" lon="13.43944698">
        <ele>565.00000</ele>
        <time>2024-05-10T19:45:49Z</time>
      </trkpt>
      <trkpt lat="42.93963298" lon="13.43949694">
        <ele>565.00000</ele>
        <time>2024-05-10T19:45:50Z</time>
      </trkpt>
      <trkpt lat="42.93962493" lon="13.43954899">
        <ele>565.00000</ele>
        <time>2024-05-10T19:45:50Z</time>
      </trkpt>
      <trkpt lat="42.93961797" lon="13.43959894">
        <ele>565.00000</ele>
        <time>2024-05-10T19:45:51Z</time>
      </trkpt>
      <trkpt lat="42.93960892" lon="13.43964094">
        <ele>566.00000</ele>
        <time>2024-05-10T19:45:52Z</time>
      </trkpt>
      <trkpt lat="42.93960196" lon="13.43968997">
        <ele>566.00000</ele>
        <time>2024-05-10T19:45:53Z</time>
      </trkpt>
      <trkpt lat="42.93959291" lon="13.43973599">
        <ele>566.00000</ele>
        <time>2024-05-10T19:45:53Z</time>
      </trkpt>
      <trkpt lat="42.93958696" lon="13.43977899">
        <ele>566.00000</ele>
        <time>2024-05-10T19:45:54Z</time>
      </trkpt>
      <trkpt lat="42.93957699" lon="13.43982794">
        <ele>567.00000</ele>
        <time>2024-05-10T19:45:55Z</time>
      </trkpt>
      <trkpt lat="42.93956894" lon="13.43987597">
        <ele>567.00000</ele>
        <time>2024-05-10T19:45:55Z</time>
      </trkpt>
      <trkpt lat="42.93956592" lon="13.43991494">
        <ele>566.00000</ele>
        <time>2024-05-10T19:45:56Z</time>
      </trkpt>
      <trkpt lat="42.93956693" lon="13.43995392">
        <ele>566.00000</ele>
        <time>2024-05-10T19:45:57Z</time>
      </trkpt>
      <trkpt lat="42.93956592" lon="13.43999792">
        <ele>566.00000</ele>
        <time>2024-05-10T19:45:57Z</time>
      </trkpt>
      <trkpt lat="42.93956592" lon="13.44004293">
        <ele>565.00000</ele>
        <time>2024-05-10T19:45:58Z</time>
      </trkpt>
      <trkpt lat="42.93957296" lon="13.44008593">
        <ele>565.00000</ele>
        <time>2024-05-10T19:45:58Z</time>
      </trkpt>
      <trkpt lat="42.93958294" lon="13.44012591">
        <ele>564.00000</ele>
        <time>2024-05-10T19:45:59Z</time>
      </trkpt>
      <trkpt lat="42.93958595" lon="13.44017696">
        <ele>563.00000</ele>
        <time>2024-05-10T19:46:00Z</time>
      </trkpt>
      <trkpt lat="42.93959492" lon="13.44021594">
        <ele>563.00000</ele>
        <time>2024-05-10T19:46:00Z</time>
      </trkpt>
      <trkpt lat="42.93960498" lon="13.44025491">
        <ele>562.00000</ele>
        <time>2024-05-10T19:46:01Z</time>
      </trkpt>
      <trkpt lat="42.93961294" lon="13.44029095">
        <ele>561.00000</ele>
        <time>2024-05-10T19:46:02Z</time>
      </trkpt>
      <trkpt lat="42.93962099" lon="13.44032499">
        <ele>560.00000</ele>
        <time>2024-05-10T19:46:02Z</time>
      </trkpt>
      <trkpt lat="42.93962594" lon="13.44035692">
        <ele>560.00000</ele>
        <time>2024-05-10T19:46:03Z</time>
      </trkpt>
      <trkpt lat="42.93963398" lon="13.44039296">
        <ele>559.00000</ele>
        <time>2024-05-10T19:46:03Z</time>
      </trkpt>
      <trkpt lat="42.93964094" lon="13.44042297">
        <ele>559.00000</ele>
        <time>2024-05-10T19:46:04Z</time>
      </trkpt>
      <trkpt lat="42.93964396" lon="13.44045499">
        <ele>558.00000</ele>
        <time>2024-05-10T19:46:04Z</time>
      </trkpt>
      <trkpt lat="42.93964697" lon="13.44048692">
        <ele>558.00000</ele>
        <time>2024-05-10T19:46:05Z</time>
      </trkpt>
      <trkpt lat="42.93965192" lon="13.44051199">
        <ele>557.00000</ele>
        <time>2024-05-10T19:46:05Z</time>
      </trkpt>
      <trkpt lat="42.93965192" lon="13.44054291">
        <ele>557.00000</ele>
        <time>2024-05-10T19:46:05Z</time>
      </trkpt>
      <trkpt lat="42.93964697" lon="13.44057393">
        <ele>558.00000</ele>
        <time>2024-05-10T19:46:06Z</time>
      </trkpt>
      <trkpt lat="42.93964195" lon="13.44059597">
        <ele>558.00000</ele>
        <time>2024-05-10T19:46:06Z</time>
      </trkpt>
      <trkpt lat="42.93963993" lon="13.44062196">
        <ele>558.00000</ele>
        <time>2024-05-10T19:46:07Z</time>
      </trkpt>
      <trkpt lat="42.93963097" lon="13.44064492">
        <ele>558.00000</ele>
        <time>2024-05-10T19:46:07Z</time>
      </trkpt>
      <trkpt lat="42.93961898" lon="13.44067191">
        <ele>559.00000</ele>
        <time>2024-05-10T19:46:07Z</time>
      </trkpt>
      <trkpt lat="42.93960892" lon="13.44069597">
        <ele>560.00000</ele>
        <time>2024-05-10T19:46:08Z</time>
      </trkpt>
      <trkpt lat="42.93960196" lon="13.44072095">
        <ele>560.00000</ele>
        <time>2024-05-10T19:46:08Z</time>
      </trkpt>
      <trkpt lat="42.93959392" lon="13.44074299">
        <ele>561.00000</ele>
        <time>2024-05-10T19:46:09Z</time>
      </trkpt>
      <trkpt lat="42.93957992" lon="13.44076093">
        <ele>562.00000</ele>
        <time>2024-05-10T19:46:09Z</time>
      </trkpt>
      <trkpt lat="42.93956894" lon="13.44078096">
        <ele>563.00000</ele>
        <time>2024-05-10T19:46:09Z</time>
      </trkpt>
      <trkpt lat="42.93955896" lon="13.44080393">
        <ele>563.00000</ele>
        <time>2024-05-10T19:46:10Z</time>
      </trkpt>
      <trkpt lat="42.93954991" lon="13.44082999">
        <ele>564.00000</ele>
        <time>2024-05-10T19:46:10Z</time>
      </trkpt>
      <trkpt lat="42.93954698" lon="13.44085397">
        <ele>564.00000</ele>
        <time>2024-05-10T19:46:11Z</time>
      </trkpt>
      <trkpt lat="42.93953994" lon="13.44087593">
        <ele>565.00000</ele>
        <time>2024-05-10T19:46:11Z</time>
      </trkpt>
      <trkpt lat="42.93953097" lon="13.44089998">
        <ele>566.00000</ele>
        <time>2024-05-10T19:46:11Z</time>
      </trkpt>
      <trkpt lat="42.93952393" lon="13.44092697">
        <ele>566.00000</ele>
        <time>2024-05-10T19:46:12Z</time>
      </trkpt>
      <trkpt lat="42.93951295" lon="13.44094298">
        <ele>567.00000</ele>
        <time>2024-05-10T19:46:12Z</time>
      </trkpt>
      <trkpt lat="42.93950398" lon="13.44096193">
        <ele>568.00000</ele>
        <time>2024-05-10T19:46:12Z</time>
      </trkpt>
      <trkpt lat="42.93949794" lon="13.44098699">
        <ele>569.00000</ele>
        <time>2024-05-10T19:46:13Z</time>
      </trkpt>
      <trkpt lat="42.93949099" lon="13.44100895">
        <ele>570.00000</ele>
        <time>2024-05-10T19:46:13Z</time>
      </trkpt>
      <trkpt lat="42.93947992" lon="13.44103292">
        <ele>571.00000</ele>
        <time>2024-05-10T19:46:14Z</time>
      </trkpt>
      <trkpt lat="42.93947598" lon="13.44106293">
        <ele>571.00000</ele>
        <time>2024-05-10T19:46:14Z</time>
      </trkpt>
      <trkpt lat="42.93946995" lon="13.44108698">
        <ele>572.00000</ele>
        <time>2024-05-10T19:46:14Z</time>
      </trkpt>
      <trkpt lat="42.93945595" lon="13.44110392">
        <ele>573.00000</ele>
        <time>2024-05-10T19:46:15Z</time>
      </trkpt>
      <trkpt lat="42.93944698" lon="13.44112697">
        <ele>574.00000</ele>
        <time>2024-05-10T19:46:15Z</time>
      </trkpt>
      <trkpt lat="42.93943097" lon="13.44114691">
        <ele>575.00000</ele>
        <time>2024-05-10T19:46:16Z</time>
      </trkpt>
      <trkpt lat="42.93941798" lon="13.44116494">
        <ele>576.00000</ele>
        <time>2024-05-10T19:46:16Z</time>
      </trkpt>
      <trkpt lat="42.93940893" lon="13.44118195">
        <ele>577.00000</ele>
        <time>2024-05-10T19:46:16Z</time>
      </trkpt>
      <trkpt lat="42.93940591" lon="13.44120693">
        <ele>577.00000</ele>
        <time>2024-05-10T19:46:17Z</time>
      </trkpt>
      <trkpt lat="42.93940398" lon="13.44123492">
        <ele>577.00000</ele>
        <time>2024-05-10T19:46:17Z</time>
      </trkpt>
      <trkpt lat="42.93940298" lon="13.44126694">
        <ele>577.00000</ele>
        <time>2024-05-10T19:46:17Z</time>
      </trkpt>
      <trkpt lat="42.93940499" lon="13.44129594">
        <ele>577.00000</ele>
        <time>2024-05-10T19:46:18Z</time>
      </trkpt>
      <trkpt lat="42.93941195" lon="13.44132897">
        <ele>576.00000</ele>
        <time>2024-05-10T19:46:18Z</time>
      </trkpt>
      <trkpt lat="42.93941195" lon="13.44135495">
        <ele>576.00000</ele>
        <time>2024-05-10T19:46:19Z</time>
      </trkpt>
      <trkpt lat="42.93941798" lon="13.44137792">
        <ele>575.00000</ele>
        <time>2024-05-10T19:46:19Z</time>
      </trkpt>
      <trkpt lat="42.93941698" lon="13.44140399">
        <ele>575.00000</ele>
        <time>2024-05-10T19:46:19Z</time>
      </trkpt>
      <trkpt lat="42.93941597" lon="13.44143098">
        <ele>574.00000</ele>
        <time>2024-05-10T19:46:20Z</time>
      </trkpt>
      <trkpt lat="42.93941597" lon="13.44145294">
        <ele>573.00000</ele>
        <time>2024-05-10T19:46:20Z</time>
      </trkpt>
      <trkpt lat="42.93941094" lon="13.44148596">
        <ele>572.00000</ele>
        <time>2024-05-10T19:46:21Z</time>
      </trkpt>
      <trkpt lat="42.93940792" lon="13.44151195">
        <ele>571.00000</ele>
        <time>2024-05-10T19:46:21Z</time>
      </trkpt>
      <trkpt lat="42.93940197" lon="13.44153592">
        <ele>571.00000</ele>
        <time>2024-05-10T19:46:21Z</time>
      </trkpt>
      <trkpt lat="42.93938797" lon="13.44156693">
        <ele>571.00000</ele>
        <time>2024-05-10T19:46:22Z</time>
      </trkpt>
      <trkpt lat="42.93936895" lon="13.44159593">
        <ele>571.00000</ele>
        <time>2024-05-10T19:46:23Z</time>
      </trkpt>
      <trkpt lat="42.93935394" lon="13.44162493">
        <ele>570.00000</ele>
        <time>2024-05-10T19:46:23Z</time>
      </trkpt>
      <trkpt lat="42.93933793" lon="13.44165595">
        <ele>570.00000</ele>
        <time>2024-05-10T19:46:24Z</time>
      </trkpt>
      <trkpt lat="42.93932293" lon="13.44168294">
        <ele>570.00000</ele>
        <time>2024-05-10T19:46:24Z</time>
      </trkpt>
      <trkpt lat="42.93930692" lon="13.44171093">
        <ele>570.00000</ele>
        <time>2024-05-10T19:46:25Z</time>
      </trkpt>
      <trkpt lat="42.93928898" lon="13.44173599">
        <ele>570.00000</ele>
        <time>2024-05-10T19:46:25Z</time>
      </trkpt>
      <trkpt lat="42.93927197" lon="13.44175796">
        <ele>570.00000</ele>
        <time>2024-05-10T19:46:26Z</time>
      </trkpt>
      <trkpt lat="42.93925294" lon="13.44178595">
        <ele>570.00000</ele>
        <time>2024-05-10T19:46:26Z</time>
      </trkpt>
      <trkpt lat="42.93923391" lon="13.44180992">
        <ele>570.00000</ele>
        <time>2024-05-10T19:46:27Z</time>
      </trkpt>
      <trkpt lat="42.93921095" lon="13.44183096">
        <ele>571.00000</ele>
        <time>2024-05-10T19:46:27Z</time>
      </trkpt>
      <trkpt lat="42.93918597" lon="13.44185099">
        <ele>571.00000</ele>
        <time>2024-05-10T19:46:28Z</time>
      </trkpt>
      <trkpt lat="42.93916594" lon="13.44187396">
        <ele>571.00000</ele>
        <time>2024-05-10T19:46:28Z</time>
      </trkpt>
      <trkpt lat="42.93914993" lon="13.44189492">
        <ele>571.00000</ele>
        <time>2024-05-10T19:46:29Z</time>
      </trkpt>
      <trkpt lat="42.93913392" lon="13.44190992">
        <ele>571.00000</ele>
        <time>2024-05-10T19:46:29Z</time>
      </trkpt>
      <trkpt lat="42.93910793" lon="13.44192299">
        <ele>571.00000</ele>
        <time>2024-05-10T19:46:30Z</time>
      </trkpt>
      <trkpt lat="42.93908497" lon="13.44193096">
        <ele>572.00000</ele>
        <time>2024-05-10T19:46:30Z</time>
      </trkpt>
      <trkpt lat="42.93906192" lon="13.44194093">
        <ele>572.00000</ele>
        <time>2024-05-10T19:46:31Z</time>
      </trkpt>
      <trkpt lat="42.93903795" lon="13.44195191">
        <ele>572.00000</ele>
        <time>2024-05-10T19:46:31Z</time>
      </trkpt>
      <trkpt lat="42.93901699" lon="13.44196692">
        <ele>572.00000</ele>
        <time>2024-05-10T19:46:32Z</time>
      </trkpt>
      <trkpt lat="42.93899092" lon="13.44197295">
        <ele>572.00000</ele>
        <time>2024-05-10T19:46:32Z</time>
      </trkpt>
      <trkpt lat="42.93896494" lon="13.44198393">
        <ele>573.00000</ele>
        <time>2024-05-10T19:46:33Z</time>
      </trkpt>
      <trkpt lat="42.93893694" lon="13.44198795">
        <ele>573.00000</ele>
        <time>2024-05-10T19:46:33Z</time>
      </trkpt>
      <trkpt lat="42.93890794" lon="13.44200799">
        <ele>573.00000</ele>
        <time>2024-05-10T19:46:34Z</time>
      </trkpt>
      <trkpt lat="42.93888095" lon="13.44202592">
        <ele>573.00000</ele>
        <time>2024-05-10T19:46:35Z</time>
      </trkpt>
      <trkpt lat="42.93885799" lon="13.44204395">
        <ele>572.00000</ele>
        <time>2024-05-10T19:46:35Z</time>
      </trkpt>
      <trkpt lat="42.93883292" lon="13.44205493">
        <ele>571.00000</ele>
        <time>2024-05-10T19:46:36Z</time>
      </trkpt>
      <trkpt lat="42.93880694" lon="13.44206892">
        <ele>571.00000</ele>
        <time>2024-05-10T19:46:36Z</time>
      </trkpt>
      <trkpt lat="42.93877995" lon="13.44208393">
        <ele>570.00000</ele>
        <time>2024-05-10T19:46:37Z</time>
      </trkpt>
      <trkpt lat="42.93874491" lon="13.44209097">
        <ele>570.00000</ele>
        <time>2024-05-10T19:46:37Z</time>
      </trkpt>
      <trkpt lat="42.93871298" lon="13.44209399">
        <ele>569.00000</ele>
        <time>2024-05-10T19:46:38Z</time>
      </trkpt>
      <trkpt lat="42.93868096" lon="13.44208795">
        <ele>570.00000</ele>
        <time>2024-05-10T19:46:39Z</time>
      </trkpt>
      <trkpt lat="42.93865296" lon="13.44207295">
        <ele>571.00000</ele>
        <time>2024-05-10T19:46:39Z</time>
      </trkpt>
      <trkpt lat="42.93862899" lon="13.44205694">
        <ele>572.00000</ele>
        <time>2024-05-10T19:46:40Z</time>
      </trkpt>
      <trkpt lat="42.93860494" lon="13.44203699">
        <ele>573.00000</ele>
        <time>2024-05-10T19:46:40Z</time>
      </trkpt>
      <trkpt lat="42.93858197" lon="13.44200899">
        <ele>574.00000</ele>
        <time>2024-05-10T19:46:41Z</time>
      </trkpt>
      <trkpt lat="42.93855993" lon="13.44198091">
        <ele>576.00000</ele>
        <time>2024-05-10T19:46:42Z</time>
      </trkpt>
      <trkpt lat="42.93854098" lon="13.44195292">
        <ele>577.00000</ele>
        <time>2024-05-10T19:46:42Z</time>
      </trkpt>
      <trkpt lat="42.93851894" lon="13.44193096">
        <ele>578.00000</ele>
        <time>2024-05-10T19:46:43Z</time>
      </trkpt>
      <trkpt lat="42.93849798" lon="13.44191092">
        <ele>579.00000</ele>
        <time>2024-05-10T19:46:43Z</time>
      </trkpt>
      <trkpt lat="42.93847694" lon="13.44188896">
        <ele>580.00000</ele>
        <time>2024-05-10T19:46:44Z</time>
      </trkpt>
      <trkpt lat="42.93845599" lon="13.44186591">
        <ele>581.00000</ele>
        <time>2024-05-10T19:46:44Z</time>
      </trkpt>
      <trkpt lat="42.93843294" lon="13.44184194">
        <ele>582.00000</ele>
        <time>2024-05-10T19:46:45Z</time>
      </trkpt>
      <trkpt lat="42.93841299" lon="13.44181998">
        <ele>583.00000</ele>
        <time>2024-05-10T19:46:45Z</time>
      </trkpt>
      <trkpt lat="42.93838994" lon="13.44180095">
        <ele>584.00000</ele>
        <time>2024-05-10T19:46:46Z</time>
      </trkpt>
      <trkpt lat="42.93836697" lon="13.44178293">
        <ele>584.00000</ele>
        <time>2024-05-10T19:46:47Z</time>
      </trkpt>
      <trkpt lat="42.93834392" lon="13.44176198">
        <ele>585.00000</ele>
        <time>2024-05-10T19:46:47Z</time>
      </trkpt>
      <trkpt lat="42.93832297" lon="13.44174094">
        <ele>586.00000</ele>
        <time>2024-05-10T19:46:48Z</time>
      </trkpt>
      <trkpt lat="42.93830294" lon="13.44172292">
        <ele>586.00000</ele>
        <time>2024-05-10T19:46:48Z</time>
      </trkpt>
      <trkpt lat="42.93828198" lon="13.44170498">
        <ele>587.00000</ele>
        <time>2024-05-10T19:46:49Z</time>
      </trkpt>
      <trkpt lat="42.93825994" lon="13.44168797">
        <ele>587.00000</ele>
        <time>2024-05-10T19:46:49Z</time>
      </trkpt>
      <trkpt lat="42.93823496" lon="13.44167497">
        <ele>588.00000</ele>
        <time>2024-05-10T19:46:50Z</time>
      </trkpt>
      <trkpt lat="42.93821099" lon="13.44165896">
        <ele>588.00000</ele>
        <time>2024-05-10T19:46:50Z</time>
      </trkpt>
      <trkpt lat="42.93818995" lon="13.44164195">
        <ele>588.00000</ele>
        <time>2024-05-10T19:46:51Z</time>
      </trkpt>
      <trkpt lat="42.93816497" lon="13.44162099">
        <ele>588.00000</ele>
        <time>2024-05-10T19:46:51Z</time>
      </trkpt>
      <trkpt lat="42.93814091" lon="13.44160398">
        <ele>588.00000</ele>
        <time>2024-05-10T19:46:52Z</time>
      </trkpt>
      <trkpt lat="42.93811996" lon="13.44158294">
        <ele>588.00000</ele>
        <time>2024-05-10T19:46:52Z</time>
      </trkpt>
      <trkpt lat="42.93809599" lon="13.44156199">
        <ele>588.00000</ele>
        <time>2024-05-10T19:46:53Z</time>
      </trkpt>
      <trkpt lat="42.93807294" lon="13.44153198">
        <ele>589.00000</ele>
        <time>2024-05-10T19:46:54Z</time>
      </trkpt>
      <trkpt lat="42.93805299" lon="13.44150197">
        <ele>589.00000</ele>
        <time>2024-05-10T19:46:54Z</time>
      </trkpt>
      <trkpt lat="42.93802793" lon="13.44147993">
        <ele>590.00000</ele>
        <time>2024-05-10T19:46:55Z</time>
      </trkpt>
      <trkpt lat="42.93800094" lon="13.44145495">
        <ele>591.00000</ele>
        <time>2024-05-10T19:46:55Z</time>
      </trkpt>
      <trkpt lat="42.93797093" lon="13.44143198">
        <ele>592.00000</ele>
        <time>2024-05-10T19:46:56Z</time>
      </trkpt>
      <trkpt lat="42.93794092" lon="13.44141195">
        <ele>593.00000</ele>
        <time>2024-05-10T19:46:57Z</time>
      </trkpt>
      <trkpt lat="42.93791092" lon="13.44140198">
        <ele>594.00000</ele>
        <time>2024-05-10T19:46:57Z</time>
      </trkpt>
      <trkpt lat="42.93787999" lon="13.44140793">
        <ele>594.00000</ele>
        <time>2024-05-10T19:46:58Z</time>
      </trkpt>
      <trkpt lat="42.93784998" lon="13.44142293">
        <ele>593.00000</ele>
        <time>2024-05-10T19:46:59Z</time>
      </trkpt>
      <trkpt lat="42.93782492" lon="13.44143894">
        <ele>593.00000</ele>
        <time>2024-05-10T19:46:59Z</time>
      </trkpt>
      <trkpt lat="42.93779994" lon="13.44146492">
        <ele>592.00000</ele>
        <time>2024-05-10T19:47:00Z</time>
      </trkpt>
      <trkpt lat="42.93777697" lon="13.44147699">
        <ele>591.00000</ele>
        <time>2024-05-10T19:47:00Z</time>
      </trkpt>
      <trkpt lat="42.93775795" lon="13.44149895">
        <ele>590.00000</ele>
        <time>2024-05-10T19:47:01Z</time>
      </trkpt>
      <trkpt lat="42.93773196" lon="13.44151496">
        <ele>590.00000</ele>
        <time>2024-05-10T19:47:01Z</time>
      </trkpt>
      <trkpt lat="42.93770799" lon="13.44152997">
        <ele>590.00000</ele>
        <time>2024-05-10T19:47:02Z</time>
      </trkpt>
      <trkpt lat="42.93767698" lon="13.44153994">
        <ele>591.00000</ele>
        <time>2024-05-10T19:47:02Z</time>
      </trkpt>
      <trkpt lat="42.93763993" lon="13.44154698">
        <ele>591.00000</ele>
        <time>2024-05-10T19:47:03Z</time>
      </trkpt>
      <trkpt lat="42.93760799" lon="13.44154899">
        <ele>592.00000</ele>
        <time>2024-05-10T19:47:04Z</time>
      </trkpt>
      <trkpt lat="42.93757991" lon="13.44154296">
        <ele>593.00000</ele>
        <time>2024-05-10T19:47:04Z</time>
      </trkpt>
      <trkpt lat="42.93755594" lon="13.44153793">
        <ele>594.00000</ele>
        <time>2024-05-10T19:47:05Z</time>
      </trkpt>
      <trkpt lat="42.93753096" lon="13.44153793">
        <ele>595.00000</ele>
        <time>2024-05-10T19:47:05Z</time>
      </trkpt>
      <trkpt lat="42.93750599" lon="13.44154095">
        <ele>596.00000</ele>
        <time>2024-05-10T19:47:06Z</time>
      </trkpt>
      <trkpt lat="42.93748092" lon="13.44154195">
        <ele>597.00000</ele>
        <time>2024-05-10T19:47:06Z</time>
      </trkpt>
      <trkpt lat="42.93745494" lon="13.44154799">
        <ele>597.00000</ele>
        <time>2024-05-10T19:47:07Z</time>
      </trkpt>
      <trkpt lat="42.93742996" lon="13.44156199">
        <ele>598.00000</ele>
        <time>2024-05-10T19:47:07Z</time>
      </trkpt>
      <trkpt lat="42.93740398" lon="13.44158395">
        <ele>598.00000</ele>
        <time>2024-05-10T19:47:08Z</time>
      </trkpt>
      <trkpt lat="42.93738495" lon="13.44160993">
        <ele>597.00000</ele>
        <time>2024-05-10T19:47:09Z</time>
      </trkpt>
      <trkpt lat="42.93737296" lon="13.44163994">
        <ele>596.00000</ele>
        <time>2024-05-10T19:47:09Z</time>
      </trkpt>
      <trkpt lat="42.93735997" lon="13.44167296">
        <ele>595.00000</ele>
        <time>2024-05-10T19:47:10Z</time>
      </trkpt>
      <trkpt lat="42.93735092" lon="13.44169895">
        <ele>595.00000</ele>
        <time>2024-05-10T19:47:10Z</time>
      </trkpt>
      <trkpt lat="42.93734396" lon="13.44172594">
        <ele>594.00000</ele>
        <time>2024-05-10T19:47:11Z</time>
      </trkpt>
      <trkpt lat="42.93733399" lon="13.44175997">
        <ele>594.00000</ele>
        <time>2024-05-10T19:47:11Z</time>
      </trkpt>
      <trkpt lat="42.93732795" lon="13.44179098">
        <ele>593.00000</ele>
        <time>2024-05-10T19:47:12Z</time>
      </trkpt>
      <trkpt lat="42.93731999" lon="13.44182199">
        <ele>592.00000</ele>
        <time>2024-05-10T19:47:12Z</time>
      </trkpt>
      <trkpt lat="42.93731295" lon="13.44185099">
        <ele>591.00000</ele>
        <time>2024-05-10T19:47:12Z</time>
      </trkpt>
      <trkpt lat="42.93730993" lon="13.44187798">
        <ele>591.00000</ele>
        <time>2024-05-10T19:47:13Z</time>
      </trkpt>
      <trkpt lat="42.93730096" lon="13.44190699">
        <ele>590.00000</ele>
        <time>2024-05-10T19:47:13Z</time>
      </trkpt>
      <trkpt lat="42.93728998" lon="13.44194194">
        <ele>589.00000</ele>
        <time>2024-05-10T19:47:14Z</time>
      </trkpt>
      <trkpt lat="42.93728395" lon="13.44197496">
        <ele>589.00000</ele>
        <time>2024-05-10T19:47:14Z</time>
      </trkpt>
      <trkpt lat="42.93727397" lon="13.44200195">
        <ele>589.00000</ele>
        <time>2024-05-10T19:47:15Z</time>
      </trkpt>
      <trkpt lat="42.93726593" lon="13.44203799">
        <ele>589.00000</ele>
        <time>2024-05-10T19:47:15Z</time>
      </trkpt>
      <trkpt lat="42.93725495" lon="13.44206398">
        <ele>589.00000</ele>
        <time>2024-05-10T19:47:16Z</time>
      </trkpt>
      <trkpt lat="42.93723592" lon="13.44209298">
        <ele>589.00000</ele>
        <time>2024-05-10T19:47:16Z</time>
      </trkpt>
      <trkpt lat="42.93722192" lon="13.44211796">
        <ele>590.00000</ele>
        <time>2024-05-10T19:47:17Z</time>
      </trkpt>
      <trkpt lat="42.93720591" lon="13.44214294">
        <ele>590.00000</ele>
        <time>2024-05-10T19:47:17Z</time>
      </trkpt>
      <trkpt lat="42.93718697" lon="13.44216993">
        <ele>591.00000</ele>
        <time>2024-05-10T19:47:18Z</time>
      </trkpt>
      <trkpt lat="42.93716291" lon="13.44218795">
        <ele>592.00000</ele>
        <time>2024-05-10T19:47:18Z</time>
      </trkpt>
      <trkpt lat="42.93713592" lon="13.44220798">
        <ele>593.00000</ele>
        <time>2024-05-10T19:47:19Z</time>
      </trkpt>
      <trkpt lat="42.93711899" lon="13.44223497">
        <ele>594.00000</ele>
        <time>2024-05-10T19:47:20Z</time>
      </trkpt>
      <trkpt lat="42.93710793" lon="13.44226296">
        <ele>594.00000</ele>
        <time>2024-05-10T19:47:20Z</time>
      </trkpt>
      <trkpt lat="42.93709293" lon="13.44229297">
        <ele>594.00000</ele>
        <time>2024-05-10T19:47:21Z</time>
      </trkpt>
      <trkpt lat="42.93707197" lon="13.44230999">
        <ele>594.00000</ele>
        <time>2024-05-10T19:47:21Z</time>
      </trkpt>
      <trkpt lat="42.93705294" lon="13.44233195">
        <ele>595.00000</ele>
        <time>2024-05-10T19:47:22Z</time>
      </trkpt>
      <trkpt lat="42.93703593" lon="13.44236196">
        <ele>595.00000</ele>
        <time>2024-05-10T19:47:22Z</time>
      </trkpt>
      <trkpt lat="42.93702092" lon="13.44238995">
        <ele>596.00000</ele>
        <time>2024-05-10T19:47:23Z</time>
      </trkpt>
      <trkpt lat="42.93701196" lon="13.44241099">
        <ele>595.00000</ele>
        <time>2024-05-10T19:47:23Z</time>
      </trkpt>
      <trkpt lat="42.93700198" lon="13.44243697">
        <ele>596.00000</ele>
        <time>2024-05-10T19:47:23Z</time>
      </trkpt>
      <trkpt lat="42.93699192" lon="13.44246698">
        <ele>595.00000</ele>
        <time>2024-05-10T19:47:24Z</time>
      </trkpt>
      <trkpt lat="42.93697994" lon="13.44250193">
        <ele>595.00000</ele>
        <time>2024-05-10T19:47:24Z</time>
      </trkpt>
      <trkpt lat="42.93696996" lon="13.44253496">
        <ele>595.00000</ele>
        <time>2024-05-10T19:47:25Z</time>
      </trkpt>
      <trkpt lat="42.93696192" lon="13.44256798">
        <ele>595.00000</ele>
        <time>2024-05-10T19:47:26Z</time>
      </trkpt>
      <trkpt lat="42.93694398" lon="13.44259397">
        <ele>595.00000</ele>
        <time>2024-05-10T19:47:26Z</time>
      </trkpt>
      <trkpt lat="42.93693392" lon="13.44262892">
        <ele>594.00000</ele>
        <time>2024-05-10T19:47:27Z</time>
      </trkpt>
      <trkpt lat="42.93692596" lon="13.44265893">
        <ele>594.00000</ele>
        <time>2024-05-10T19:47:27Z</time>
      </trkpt>
      <trkpt lat="42.93691297" lon="13.44268994">
        <ele>593.00000</ele>
        <time>2024-05-10T19:47:28Z</time>
      </trkpt>
      <trkpt lat="42.93690693" lon="13.44272397">
        <ele>592.00000</ele>
        <time>2024-05-10T19:47:28Z</time>
      </trkpt>
      <trkpt lat="42.93690098" lon="13.44275599">
        <ele>591.00000</ele>
        <time>2024-05-10T19:47:29Z</time>
      </trkpt>
      <trkpt lat="42.93689494" lon="13.44279295">
        <ele>591.00000</ele>
        <time>2024-05-10T19:47:29Z</time>
      </trkpt>
      <trkpt lat="42.93688799" lon="13.44282698">
        <ele>590.00000</ele>
        <time>2024-05-10T19:47:30Z</time>
      </trkpt>
      <trkpt lat="42.93687793" lon="13.44285791">
        <ele>590.00000</ele>
        <time>2024-05-10T19:47:30Z</time>
      </trkpt>
      <trkpt lat="42.93686896" lon="13.44289094">
        <ele>589.00000</ele>
        <time>2024-05-10T19:47:31Z</time>
      </trkpt>
      <trkpt lat="42.93685697" lon="13.44292396">
        <ele>589.00000</ele>
        <time>2024-05-10T19:47:31Z</time>
      </trkpt>
      <trkpt lat="42.93684499" lon="13.44296093">
        <ele>588.00000</ele>
        <time>2024-05-10T19:47:32Z</time>
      </trkpt>
      <trkpt lat="42.93683099" lon="13.44299697">
        <ele>588.00000</ele>
        <time>2024-05-10T19:47:32Z</time>
      </trkpt>
      <trkpt lat="42.93680995" lon="13.44302496">
        <ele>587.00000</ele>
        <time>2024-05-10T19:47:33Z</time>
      </trkpt>
      <trkpt lat="42.93678497" lon="13.44305195">
        <ele>587.00000</ele>
        <time>2024-05-10T19:47:34Z</time>
      </trkpt>
      <trkpt lat="42.93675899" lon="13.44306394">
        <ele>587.00000</ele>
        <time>2024-05-10T19:47:34Z</time>
      </trkpt>
      <trkpt lat="42.93671993" lon="13.44305698">
        <ele>587.00000</ele>
        <time>2024-05-10T19:47:35Z</time>
      </trkpt>
      <trkpt lat="42.93668297" lon="13.44303695">
        <ele>587.00000</ele>
        <time>2024-05-10T19:47:36Z</time>
      </trkpt>
      <trkpt lat="42.93664793" lon="13.44300493">
        <ele>587.00000</ele>
        <time>2024-05-10T19:47:37Z</time>
      </trkpt>
      <trkpt lat="42.93662094" lon="13.44296495">
        <ele>587.00000</ele>
        <time>2024-05-10T19:47:37Z</time>
      </trkpt>
      <trkpt lat="42.93659797" lon="13.44292094">
        <ele>587.00000</ele>
        <time>2024-05-10T19:47:38Z</time>
      </trkpt>
      <trkpt lat="42.93658498" lon="13.44286898">
        <ele>588.00000</ele>
        <time>2024-05-10T19:47:39Z</time>
      </trkpt>
      <trkpt lat="42.93657492" lon="13.44281894">
        <ele>589.00000</ele>
        <time>2024-05-10T19:47:40Z</time>
      </trkpt>
      <trkpt lat="42.93656897" lon="13.44276194">
        <ele>590.00000</ele>
        <time>2024-05-10T19:47:41Z</time>
      </trkpt>
      <trkpt lat="42.93656394" lon="13.44270695">
        <ele>591.00000</ele>
        <time>2024-05-10T19:47:41Z</time>
      </trkpt>
      <trkpt lat="42.93655799" lon="13.44264493">
        <ele>592.00000</ele>
        <time>2024-05-10T19:47:42Z</time>
      </trkpt>
      <trkpt lat="42.93655497" lon="13.44258894">
        <ele>593.00000</ele>
        <time>2024-05-10T19:47:43Z</time>
      </trkpt>
      <trkpt lat="42.93654995" lon="13.44253596">
        <ele>594.00000</ele>
        <time>2024-05-10T19:47:44Z</time>
      </trkpt>
      <trkpt lat="42.93654299" lon="13.44247695">
        <ele>595.00000</ele>
        <time>2024-05-10T19:47:45Z</time>
      </trkpt>
      <trkpt lat="42.93653695" lon="13.44242197">
        <ele>597.00000</ele>
        <time>2024-05-10T19:47:46Z</time>
      </trkpt>
      <trkpt lat="42.93652396" lon="13.44237294">
        <ele>597.00000</ele>
        <time>2024-05-10T19:47:46Z</time>
      </trkpt>
      <trkpt lat="42.93650795" lon="13.44232499">
        <ele>598.00000</ele>
        <time>2024-05-10T19:47:47Z</time>
      </trkpt>
      <trkpt lat="42.93647292" lon="13.44226799">
        <ele>599.00000</ele>
        <time>2024-05-10T19:47:48Z</time>
      </trkpt>
      <trkpt lat="42.93643595" lon="13.44222893">
        <ele>599.00000</ele>
        <time>2024-05-10T19:47:49Z</time>
      </trkpt>
      <trkpt lat="42.93638692" lon="13.44219197">
        <ele>599.00000</ele>
        <time>2024-05-10T19:47:50Z</time>
      </trkpt>
      <trkpt lat="42.93634392" lon="13.44216297">
        <ele>600.00000</ele>
        <time>2024-05-10T19:47:51Z</time>
      </trkpt>
      <trkpt lat="42.93630695" lon="13.44214394">
        <ele>600.00000</ele>
        <time>2024-05-10T19:47:52Z</time>
      </trkpt>
      <trkpt lat="42.93626094" lon="13.44213095">
        <ele>600.00000</ele>
        <time>2024-05-10T19:47:53Z</time>
      </trkpt>
      <trkpt lat="42.93621693" lon="13.44213095">
        <ele>600.00000</ele>
        <time>2024-05-10T19:47:54Z</time>
      </trkpt>
      <trkpt lat="42.93617594" lon="13.44213095">
        <ele>600.00000</ele>
        <time>2024-05-10T19:47:55Z</time>
      </trkpt>
      <trkpt lat="42.93613496" lon="13.44213196">
        <ele>600.00000</ele>
        <time>2024-05-10T19:47:56Z</time>
      </trkpt>
      <trkpt lat="42.93608492" lon="13.44212793">
        <ele>599.00000</ele>
        <time>2024-05-10T19:47:57Z</time>
      </trkpt>
      <trkpt lat="42.93603898" lon="13.44213598">
        <ele>599.00000</ele>
        <time>2024-05-10T19:47:57Z</time>
      </trkpt>
      <trkpt lat="42.93598392" lon="13.44214394">
        <ele>598.00000</ele>
        <time>2024-05-10T19:47:59Z</time>
      </trkpt>
      <trkpt lat="42.93593396" lon="13.44215995">
        <ele>597.00000</ele>
        <time>2024-05-10T19:48:00Z</time>
      </trkpt>
      <trkpt lat="42.93588392" lon="13.44219993">
        <ele>595.00000</ele>
        <time>2024-05-10T19:48:01Z</time>
      </trkpt>
      <trkpt lat="42.93584092" lon="13.44223899">
        <ele>593.00000</ele>
        <time>2024-05-10T19:48:02Z</time>
      </trkpt>
      <trkpt lat="42.93579692" lon="13.44227998">
        <ele>591.00000</ele>
        <time>2024-05-10T19:48:03Z</time>
      </trkpt>
      <trkpt lat="42.93574696" lon="13.44232298">
        <ele>589.00000</ele>
        <time>2024-05-10T19:48:04Z</time>
      </trkpt>
      <trkpt lat="42.93569792" lon="13.44236598">
        <ele>587.00000</ele>
        <time>2024-05-10T19:48:05Z</time>
      </trkpt>
      <trkpt lat="42.93563992" lon="13.44240294">
        <ele>585.00000</ele>
        <time>2024-05-10T19:48:06Z</time>
      </trkpt>
      <trkpt lat="42.93557899" lon="13.44242197">
        <ele>584.00000</ele>
        <time>2024-05-10T19:48:08Z</time>
      </trkpt>
      <trkpt lat="42.93551797" lon="13.44243396">
        <ele>582.00000</ele>
        <time>2024-05-10T19:48:09Z</time>
      </trkpt>
      <trkpt lat="42.93544596" lon="13.44242599">
        <ele>581.00000</ele>
        <time>2024-05-10T19:48:10Z</time>
      </trkpt>
      <trkpt lat="42.93538092" lon="13.44239498">
        <ele>581.00000</ele>
        <time>2024-05-10T19:48:12Z</time>
      </trkpt>
      <trkpt lat="42.93532996" lon="13.44233798">
        <ele>581.00000</ele>
        <time>2024-05-10T19:48:13Z</time>
      </trkpt>
      <trkpt lat="42.93529098" lon="13.44226992">
        <ele>582.00000</ele>
        <time>2024-05-10T19:48:14Z</time>
      </trkpt>
      <trkpt lat="42.93524899" lon="13.44219599">
        <ele>582.00000</ele>
        <time>2024-05-10T19:48:16Z</time>
      </trkpt>
      <trkpt lat="42.93519493" lon="13.44212198">
        <ele>583.00000</ele>
        <time>2024-05-10T19:48:17Z</time>
      </trkpt>
      <trkpt lat="42.93513298" lon="13.44204395">
        <ele>583.00000</ele>
        <time>2024-05-10T19:48:19Z</time>
      </trkpt>
      <trkpt lat="42.93507398" lon="13.44196692">
        <ele>583.00000</ele>
        <time>2024-05-10T19:48:21Z</time>
      </trkpt>
      <trkpt lat="42.93502092" lon="13.44188394">
        <ele>583.00000</ele>
        <time>2024-05-10T19:48:22Z</time>
      </trkpt>
      <trkpt lat="42.93497096" lon="13.44180095">
        <ele>584.00000</ele>
        <time>2024-05-10T19:48:24Z</time>
      </trkpt>
      <trkpt lat="42.93491899" lon="13.44171194">
        <ele>585.00000</ele>
        <time>2024-05-10T19:48:25Z</time>
      </trkpt>
      <trkpt lat="42.93485596" lon="13.44163399">
        <ele>584.00000</ele>
        <time>2024-05-10T19:48:27Z</time>
      </trkpt>
      <trkpt lat="42.93478195" lon="13.44157598">
        <ele>582.00000</ele>
        <time>2024-05-10T19:48:29Z</time>
      </trkpt>
      <trkpt lat="42.93470199" lon="13.44154095">
        <ele>580.00000</ele>
        <time>2024-05-10T19:48:31Z</time>
      </trkpt>
      <trkpt lat="42.93461197" lon="13.44151899">
        <ele>578.00000</ele>
        <time>2024-05-10T19:48:32Z</time>
      </trkpt>
      <trkpt lat="42.93452094" lon="13.44150893">
        <ele>575.00000</ele>
        <time>2024-05-10T19:48:34Z</time>
      </trkpt>
      <trkpt lat="42.93444693" lon="13.44149493">
        <ele>572.00000</ele>
        <time>2024-05-10T19:48:36Z</time>
      </trkpt>
      <trkpt lat="42.93439093" lon="13.44146794">
        <ele>571.00000</ele>
        <time>2024-05-10T19:48:37Z</time>
      </trkpt>
      <trkpt lat="42.93436193" lon="13.44141094">
        <ele>571.00000</ele>
        <time>2024-05-10T19:48:38Z</time>
      </trkpt>
      <trkpt lat="42.93436897" lon="13.44135696">
        <ele>571.00000</ele>
        <time>2024-05-10T19:48:39Z</time>
      </trkpt>
      <trkpt lat="42.93439093" lon="13.44131598">
        <ele>571.00000</ele>
        <time>2024-05-10T19:48:39Z</time>
      </trkpt>
      <trkpt lat="42.93441893" lon="13.44128396">
        <ele>571.00000</ele>
        <time>2024-05-10T19:48:40Z</time>
      </trkpt>
      <trkpt lat="42.93445397" lon="13.44125496">
        <ele>572.00000</ele>
        <time>2024-05-10T19:48:41Z</time>
      </trkpt>
      <trkpt lat="42.93449797" lon="13.44122998">
        <ele>573.00000</ele>
        <time>2024-05-10T19:48:42Z</time>
      </trkpt>
      <trkpt lat="42.93454399" lon="13.44120391">
        <ele>575.00000</ele>
        <time>2024-05-10T19:48:43Z</time>
      </trkpt>
      <trkpt lat="42.93459294" lon="13.44117499">
        <ele>576.00000</ele>
        <time>2024-05-10T19:48:44Z</time>
      </trkpt>
      <trkpt lat="42.93463594" lon="13.44113996">
        <ele>577.00000</ele>
        <time>2024-05-10T19:48:45Z</time>
      </trkpt>
      <trkpt lat="42.93468296" lon="13.44110392">
        <ele>579.00000</ele>
        <time>2024-05-10T19:48:46Z</time>
      </trkpt>
      <trkpt lat="42.93472395" lon="13.44105597">
        <ele>580.00000</ele>
        <time>2024-05-10T19:48:47Z</time>
      </trkpt>
      <trkpt lat="42.93475898" lon="13.44099596">
        <ele>580.00000</ele>
        <time>2024-05-10T19:48:48Z</time>
      </trkpt>
      <trkpt lat="42.93478899" lon="13.44092295">
        <ele>580.00000</ele>
        <time>2024-05-10T19:48:50Z</time>
      </trkpt>
      <trkpt lat="42.93481196" lon="13.44084592">
        <ele>580.00000</ele>
        <time>2024-05-10T19:48:51Z</time>
      </trkpt>
      <trkpt lat="42.93483492" lon="13.44076596">
        <ele>581.00000</ele>
        <time>2024-05-10T19:48:52Z</time>
      </trkpt>
      <trkpt lat="42.93485999" lon="13.44069194">
        <ele>581.00000</ele>
        <time>2024-05-10T19:48:53Z</time>
      </trkpt>
      <trkpt lat="42.93489192" lon="13.44061592">
        <ele>582.00000</ele>
        <time>2024-05-10T19:48:54Z</time>
      </trkpt>
      <trkpt lat="42.93493391" lon="13.44054593">
        <ele>584.00000</ele>
        <time>2024-05-10T19:48:56Z</time>
      </trkpt>
      <trkpt lat="42.93497096" lon="13.44047997">
        <ele>585.00000</ele>
        <time>2024-05-10T19:48:57Z</time>
      </trkpt>
      <trkpt lat="42.93501094" lon="13.44041593">
        <ele>586.00000</ele>
        <time>2024-05-10T19:48:58Z</time>
      </trkpt>
      <trkpt lat="42.93504891" lon="13.44034099">
        <ele>586.00000</ele>
        <time>2024-05-10T19:49:00Z</time>
      </trkpt>
      <trkpt lat="42.93508898" lon="13.44026497">
        <ele>586.00000</ele>
        <time>2024-05-10T19:49:01Z</time>
      </trkpt>
      <trkpt lat="42.93511094" lon="13.44017797">
        <ele>587.00000</ele>
        <time>2024-05-10T19:49:02Z</time>
      </trkpt>
      <trkpt lat="42.93511899" lon="13.44010295">
        <ele>586.00000</ele>
        <time>2024-05-10T19:49:03Z</time>
      </trkpt>
      <trkpt lat="42.93511698" lon="13.44003698">
        <ele>586.00000</ele>
        <time>2024-05-10T19:49:04Z</time>
      </trkpt>
      <trkpt lat="42.93509694" lon="13.43998493">
        <ele>586.00000</ele>
        <time>2024-05-10T19:49:05Z</time>
      </trkpt>
      <trkpt lat="42.93506492" lon="13.43994998">
        <ele>586.00000</ele>
        <time>2024-05-10T19:49:06Z</time>
      </trkpt>
      <trkpt lat="42.93503592" lon="13.43992299">
        <ele>586.00000</ele>
        <time>2024-05-10T19:49:07Z</time>
      </trkpt>
      <trkpt lat="42.93500793" lon="13.43990698">
        <ele>586.00000</ele>
        <time>2024-05-10T19:49:07Z</time>
      </trkpt>
      <trkpt lat="42.93497993" lon="13.43990396">
        <ele>586.00000</ele>
        <time>2024-05-10T19:49:08Z</time>
      </trkpt>
      <trkpt lat="42.93495093" lon="13.43990899">
        <ele>586.00000</ele>
        <time>2024-05-10T19:49:09Z</time>
      </trkpt>
      <trkpt lat="42.93492193" lon="13.43990991">
        <ele>586.00000</ele>
        <time>2024-05-10T19:49:09Z</time>
      </trkpt>
      <trkpt lat="42.93489494" lon="13.43991394">
        <ele>586.00000</ele>
        <time>2024-05-10T19:49:10Z</time>
      </trkpt>
      <trkpt lat="42.93486996" lon="13.43992693">
        <ele>585.00000</ele>
        <time>2024-05-10T19:49:10Z</time>
      </trkpt>
      <trkpt lat="42.93484196" lon="13.43993598">
        <ele>585.00000</ele>
        <time>2024-05-10T19:49:11Z</time>
      </trkpt>
      <trkpt lat="42.93481397" lon="13.43994797">
        <ele>585.00000</ele>
        <time>2024-05-10T19:49:11Z</time>
      </trkpt>
      <trkpt lat="42.93478698" lon="13.43995895">
        <ele>585.00000</ele>
        <time>2024-05-10T19:49:12Z</time>
      </trkpt>
      <trkpt lat="42.93475496" lon="13.43996892">
        <ele>584.00000</ele>
        <time>2024-05-10T19:49:13Z</time>
      </trkpt>
      <trkpt lat="42.93472596" lon="13.43997496">
        <ele>584.00000</ele>
        <time>2024-05-10T19:49:13Z</time>
      </trkpt>
      <trkpt lat="42.93468992" lon="13.43997898">
        <ele>583.00000</ele>
        <time>2024-05-10T19:49:14Z</time>
      </trkpt>
      <trkpt lat="42.93464994" lon="13.43998594">
        <ele>582.00000</ele>
        <time>2024-05-10T19:49:15Z</time>
      </trkpt>
      <trkpt lat="42.93461297" lon="13.43998795">
        <ele>581.00000</ele>
        <time>2024-05-10T19:49:15Z</time>
      </trkpt>
      <trkpt lat="42.93458296" lon="13.43998996">
        <ele>581.00000</ele>
        <time>2024-05-10T19:49:16Z</time>
      </trkpt>
      <trkpt lat="42.93454893" lon="13.43998493">
        <ele>580.00000</ele>
        <time>2024-05-10T19:49:17Z</time>
      </trkpt>
      <trkpt lat="42.93451599" lon="13.43998493">
        <ele>579.00000</ele>
        <time>2024-05-10T19:49:17Z</time>
      </trkpt>
      <trkpt lat="42.93447995" lon="13.43998393">
        <ele>579.00000</ele>
        <time>2024-05-10T19:49:18Z</time>
      </trkpt>
      <trkpt lat="42.93444491" lon="13.43996892">
        <ele>578.00000</ele>
        <time>2024-05-10T19:49:19Z</time>
      </trkpt>
      <trkpt lat="42.93441499" lon="13.43995291">
        <ele>578.00000</ele>
        <time>2024-05-10T19:49:19Z</time>
      </trkpt>
      <trkpt lat="42.93438398" lon="13.43993397">
        <ele>577.00000</ele>
        <time>2024-05-10T19:49:20Z</time>
      </trkpt>
      <trkpt lat="42.93434995" lon="13.43991092">
        <ele>577.00000</ele>
        <time>2024-05-10T19:49:21Z</time>
      </trkpt>
      <trkpt lat="42.93432598" lon="13.43986993">
        <ele>577.00000</ele>
        <time>2024-05-10T19:49:22Z</time>
      </trkpt>
      <trkpt lat="42.93430594" lon="13.43981998">
        <ele>577.00000</ele>
        <time>2024-05-10T19:49:23Z</time>
      </trkpt>
      <trkpt lat="42.93428792" lon="13.43976499">
        <ele>578.00000</ele>
        <time>2024-05-10T19:49:23Z</time>
      </trkpt>
      <trkpt lat="42.93427996" lon="13.43970992">
        <ele>578.00000</ele>
        <time>2024-05-10T19:49:24Z</time>
      </trkpt>
      <trkpt lat="42.93428298" lon="13.43965393">
        <ele>578.00000</ele>
        <time>2024-05-10T19:49:25Z</time>
      </trkpt>
      <trkpt lat="42.93428893" lon="13.43959894">
        <ele>579.00000</ele>
        <time>2024-05-10T19:49:26Z</time>
      </trkpt>
      <trkpt lat="42.93429999" lon="13.43953893">
        <ele>579.00000</ele>
        <time>2024-05-10T19:49:27Z</time>
      </trkpt>
      <trkpt lat="42.93431097" lon="13.43947498">
        <ele>580.00000</ele>
        <time>2024-05-10T19:49:28Z</time>
      </trkpt>
      <trkpt lat="42.93432598" lon="13.43940398">
        <ele>579.00000</ele>
        <time>2024-05-10T19:49:29Z</time>
      </trkpt>
      <trkpt lat="42.93433997" lon="13.43932393">
        <ele>579.00000</ele>
        <time>2024-05-10T19:49:30Z</time>
      </trkpt>
      <trkpt lat="42.93435095" lon="13.43923794">
        <ele>577.00000</ele>
        <time>2024-05-10T19:49:31Z</time>
      </trkpt>
      <trkpt lat="42.93437199" lon="13.43915093">
        <ele>576.00000</ele>
        <time>2024-05-10T19:49:33Z</time>
      </trkpt>
      <trkpt lat="42.93440896" lon="13.43907793">
        <ele>576.00000</ele>
        <time>2024-05-10T19:49:34Z</time>
      </trkpt>
      <trkpt lat="42.93446294" lon="13.43900894">
        <ele>576.00000</ele>
        <time>2024-05-10T19:49:35Z</time>
      </trkpt>
      <trkpt lat="42.93453292" lon="13.43896594">
        <ele>576.00000</ele>
        <time>2024-05-10T19:49:37Z</time>
      </trkpt>
      <trkpt lat="42.93460794" lon="13.43893292">
        <ele>577.00000</ele>
        <time>2024-05-10T19:49:39Z</time>
      </trkpt>
      <trkpt lat="42.93469092" lon="13.43890199">
        <ele>577.00000</ele>
        <time>2024-05-10T19:49:40Z</time>
      </trkpt>
      <trkpt lat="42.93475395" lon="13.43886896">
        <ele>578.00000</ele>
        <time>2024-05-10T19:49:42Z</time>
      </trkpt>
      <trkpt lat="42.93479695" lon="13.43881297">
        <ele>578.00000</ele>
        <time>2024-05-10T19:49:43Z</time>
      </trkpt>
      <trkpt lat="42.93483199" lon="13.43874298">
        <ele>578.00000</ele>
        <time>2024-05-10T19:49:44Z</time>
      </trkpt>
      <trkpt lat="42.93484599" lon="13.43868196">
        <ele>578.00000</ele>
        <time>2024-05-10T19:49:45Z</time>
      </trkpt>
      <trkpt lat="42.93484196" lon="13.43860795">
        <ele>577.00000</ele>
        <time>2024-05-10T19:49:46Z</time>
      </trkpt>
      <trkpt lat="42.93482093" lon="13.43854492">
        <ele>577.00000</ele>
        <time>2024-05-10T19:49:47Z</time>
      </trkpt>
      <trkpt lat="42.93477994" lon="13.43850494">
        <ele>576.00000</ele>
        <time>2024-05-10T19:49:48Z</time>
      </trkpt>
      <trkpt lat="42.93472797" lon="13.43846999">
        <ele>576.00000</ele>
        <time>2024-05-10T19:49:49Z</time>
      </trkpt>
      <trkpt lat="42.93466695" lon="13.43844694">
        <ele>575.00000</ele>
        <time>2024-05-10T19:49:51Z</time>
      </trkpt>
      <trkpt lat="42.93459897" lon="13.43842095">
        <ele>573.00000</ele>
        <time>2024-05-10T19:49:52Z</time>
      </trkpt>
      <trkpt lat="42.93452094" lon="13.43839991">
        <ele>572.00000</ele>
        <time>2024-05-10T19:49:54Z</time>
      </trkpt>
      <trkpt lat="42.93445497" lon="13.43837393">
        <ele>571.00000</ele>
        <time>2024-05-10T19:49:55Z</time>
      </trkpt>
      <trkpt lat="42.93439697" lon="13.43834593">
        <ele>569.00000</ele>
        <time>2024-05-10T19:49:56Z</time>
      </trkpt>
      <trkpt lat="42.93435296" lon="13.43830394">
        <ele>566.00000</ele>
        <time>2024-05-10T19:49:57Z</time>
      </trkpt>
      <trkpt lat="42.93434198" lon="13.43824996">
        <ele>565.00000</ele>
        <time>2024-05-10T19:49:58Z</time>
      </trkpt>
      <trkpt lat="42.93434894" lon="13.43818492">
        <ele>565.00000</ele>
        <time>2024-05-10T19:49:59Z</time>
      </trkpt>
      <trkpt lat="42.93436395" lon="13.43811996">
        <ele>565.00000</ele>
        <time>2024-05-10T19:50:00Z</time>
      </trkpt>
      <trkpt lat="42.93438096" lon="13.43805491">
        <ele>565.00000</ele>
        <time>2024-05-10T19:50:01Z</time>
      </trkpt>
      <trkpt lat="42.93440393" lon="13.43798895">
        <ele>566.00000</ele>
        <time>2024-05-10T19:50:02Z</time>
      </trkpt>
      <trkpt lat="42.93443092" lon="13.43791695">
        <ele>566.00000</ele>
        <time>2024-05-10T19:50:03Z</time>
      </trkpt>
      <trkpt lat="42.93445497" lon="13.43782693">
        <ele>567.00000</ele>
        <time>2024-05-10T19:50:05Z</time>
      </trkpt>
      <trkpt lat="42.93447392" lon="13.43774093">
        <ele>567.00000</ele>
        <time>2024-05-10T19:50:06Z</time>
      </trkpt>
      <trkpt lat="42.93447894" lon="13.43764194">
        <ele>567.00000</ele>
        <time>2024-05-10T19:50:07Z</time>
      </trkpt>
      <trkpt lat="42.93447392" lon="13.43755493">
        <ele>567.00000</ele>
        <time>2024-05-10T19:50:09Z</time>
      </trkpt>
      <trkpt lat="42.93445497" lon="13.43747598">
        <ele>566.00000</ele>
        <time>2024-05-10T19:50:10Z</time>
      </trkpt>
      <trkpt lat="42.93441893" lon="13.43741294">
        <ele>566.00000</ele>
        <time>2024-05-10T19:50:11Z</time>
      </trkpt>
      <trkpt lat="42.93438096" lon="13.43735595">
        <ele>566.00000</ele>
        <time>2024-05-10T19:50:12Z</time>
      </trkpt>
      <trkpt lat="42.93432598" lon="13.43730297">
        <ele>564.00000</ele>
        <time>2024-05-10T19:50:14Z</time>
      </trkpt>
      <trkpt lat="42.93425892" lon="13.43725092">
        <ele>563.00000</ele>
        <time>2024-05-10T19:50:15Z</time>
      </trkpt>
      <trkpt lat="42.93420092" lon="13.43720197">
        <ele>561.00000</ele>
        <time>2024-05-10T19:50:17Z</time>
      </trkpt>
      <trkpt lat="42.93415197" lon="13.43715596">
        <ele>560.00000</ele>
        <time>2024-05-10T19:50:18Z</time>
      </trkpt>
      <trkpt lat="42.93411492" lon="13.43711195">
        <ele>560.00000</ele>
        <time>2024-05-10T19:50:19Z</time>
      </trkpt>
      <trkpt lat="42.93407192" lon="13.43707096">
        <ele>560.00000</ele>
        <time>2024-05-10T19:50:20Z</time>
      </trkpt>
      <trkpt lat="42.93403294" lon="13.43706099">
        <ele>559.00000</ele>
        <time>2024-05-10T19:50:21Z</time>
      </trkpt>
      <trkpt lat="42.93400294" lon="13.43709493">
        <ele>558.00000</ele>
        <time>2024-05-10T19:50:21Z</time>
      </trkpt>
      <trkpt lat="42.93400193" lon="13.43714497">
        <ele>557.00000</ele>
        <time>2024-05-10T19:50:22Z</time>
      </trkpt>
      <trkpt lat="42.93401895" lon="13.43719191">
        <ele>557.00000</ele>
        <time>2024-05-10T19:50:23Z</time>
      </trkpt>
      <trkpt lat="42.93404694" lon="13.43723793">
        <ele>557.00000</ele>
        <time>2024-05-10T19:50:24Z</time>
      </trkpt>
      <trkpt lat="42.93406798" lon="13.43729099">
        <ele>556.00000</ele>
        <time>2024-05-10T19:50:25Z</time>
      </trkpt>
      <trkpt lat="42.93408298" lon="13.43734497">
        <ele>556.00000</ele>
        <time>2024-05-10T19:50:25Z</time>
      </trkpt>
      <trkpt lat="42.93410494" lon="13.43740699">
        <ele>556.00000</ele>
        <time>2024-05-10T19:50:26Z</time>
      </trkpt>
      <trkpt lat="42.93412297" lon="13.43748193">
        <ele>555.00000</ele>
        <time>2024-05-10T19:50:28Z</time>
      </trkpt>
      <trkpt lat="42.93412598" lon="13.43756692">
        <ele>555.00000</ele>
        <time>2024-05-10T19:50:29Z</time>
      </trkpt>
      <trkpt lat="42.93410293" lon="13.43765392">
        <ele>555.00000</ele>
        <time>2024-05-10T19:50:30Z</time>
      </trkpt>
      <trkpt lat="42.93406496" lon="13.43773095">
        <ele>555.00000</ele>
        <time>2024-05-10T19:50:32Z</time>
      </trkpt>
      <trkpt lat="42.93401895" lon="13.43779893">
        <ele>554.00000</ele>
        <time>2024-05-10T19:50:33Z</time>
      </trkpt>
      <trkpt lat="42.93396991" lon="13.43787697">
        <ele>553.00000</ele>
        <time>2024-05-10T19:50:34Z</time>
      </trkpt>
      <trkpt lat="42.93391593" lon="13.43795995">
        <ele>552.00000</ele>
        <time>2024-05-10T19:50:36Z</time>
      </trkpt>
      <trkpt lat="42.93386195" lon="13.43805097">
        <ele>552.00000</ele>
        <time>2024-05-10T19:50:38Z</time>
      </trkpt>
      <trkpt lat="42.93382097" lon="13.43815399">
        <ele>551.00000</ele>
        <time>2024-05-10T19:50:39Z</time>
      </trkpt>
      <trkpt lat="42.93378794" lon="13.43827293">
        <ele>551.00000</ele>
        <time>2024-05-10T19:50:41Z</time>
      </trkpt>
      <trkpt lat="42.93376397" lon="13.43839991">
        <ele>551.00000</ele>
        <time>2024-05-10T19:50:43Z</time>
      </trkpt>
      <trkpt lat="42.93372793" lon="13.43851692">
        <ele>552.00000</ele>
        <time>2024-05-10T19:50:45Z</time>
      </trkpt>
      <trkpt lat="42.93368199" lon="13.43863595">
        <ele>552.00000</ele>
        <time>2024-05-10T19:50:47Z</time>
      </trkpt>
      <trkpt lat="42.93362793" lon="13.43874793">
        <ele>551.00000</ele>
        <time>2024-05-10T19:50:49Z</time>
      </trkpt>
      <trkpt lat="42.93357194" lon="13.43885798">
        <ele>550.00000</ele>
        <time>2024-05-10T19:50:51Z</time>
      </trkpt>
      <trkpt lat="42.93348695" lon="13.43894197">
        <ele>550.00000</ele>
        <time>2024-05-10T19:50:53Z</time>
      </trkpt>
      <trkpt lat="42.93340095" lon="13.43902696">
        <ele>549.00000</ele>
        <time>2024-05-10T19:50:55Z</time>
      </trkpt>
      <trkpt lat="42.93332995" lon="13.43911598">
        <ele>548.00000</ele>
        <time>2024-05-10T19:50:57Z</time>
      </trkpt>
      <trkpt lat="42.93326692" lon="13.43919393">
        <ele>548.00000</ele>
        <time>2024-05-10T19:50:59Z</time>
      </trkpt>
      <trkpt lat="42.93321093" lon="13.43925193">
        <ele>548.00000</ele>
        <time>2024-05-10T19:51:00Z</time>
      </trkpt>
      <trkpt lat="42.93315393" lon="13.43929192">
        <ele>548.00000</ele>
        <time>2024-05-10T19:51:02Z</time>
      </trkpt>
      <trkpt lat="42.93309392" lon="13.43929795">
        <ele>548.00000</ele>
        <time>2024-05-10T19:51:03Z</time>
      </trkpt>
      <trkpt lat="42.93305193" lon="13.43928094">
        <ele>549.00000</ele>
        <time>2024-05-10T19:51:04Z</time>
      </trkpt>
      <trkpt lat="42.93302494" lon="13.43925193">
        <ele>550.00000</ele>
        <time>2024-05-10T19:51:04Z</time>
      </trkpt>
      <trkpt lat="42.93299895" lon="13.43922997">
        <ele>551.00000</ele>
        <time>2024-05-10T19:51:05Z</time>
      </trkpt>
      <trkpt lat="42.93298495" lon="13.43920399">
        <ele>552.00000</ele>
        <time>2024-05-10T19:51:05Z</time>
      </trkpt>
      <trkpt lat="42.93297096" lon="13.43918798">
        <ele>552.00000</ele>
        <time>2024-05-10T19:51:06Z</time>
      </trkpt>
      <trkpt lat="42.93295193" lon="13.43916996">
        <ele>553.00000</ele>
        <time>2024-05-10T19:51:06Z</time>
      </trkpt>
      <trkpt lat="42.93293693" lon="13.43914993">
        <ele>554.00000</ele>
        <time>2024-05-10T19:51:07Z</time>
      </trkpt>
      <trkpt lat="42.93292092" lon="13.43913199">
        <ele>554.00000</ele>
        <time>2024-05-10T19:51:07Z</time>
      </trkpt>
      <trkpt lat="42.93290197" lon="13.43910693">
        <ele>555.00000</ele>
        <time>2024-05-10T19:51:08Z</time>
      </trkpt>
      <trkpt lat="42.93288496" lon="13.43909192">
        <ele>556.00000</ele>
        <time>2024-05-10T19:51:08Z</time>
      </trkpt>
      <trkpt lat="42.93286895" lon="13.43907591">
        <ele>557.00000</ele>
        <time>2024-05-10T19:51:08Z</time>
      </trkpt>
      <trkpt lat="42.93285395" lon="13.43905999">
        <ele>558.00000</ele>
        <time>2024-05-10T19:51:09Z</time>
      </trkpt>
      <trkpt lat="42.93283794" lon="13.43904993">
        <ele>558.00000</ele>
        <time>2024-05-10T19:51:09Z</time>
      </trkpt>
      <trkpt lat="42.93281991" lon="13.43904792">
        <ele>559.00000</ele>
        <time>2024-05-10T19:51:10Z</time>
      </trkpt>
      <trkpt lat="42.93280198" lon="13.43904599">
        <ele>560.00000</ele>
        <time>2024-05-10T19:51:10Z</time>
      </trkpt>
      <trkpt lat="42.93278094" lon="13.43904892">
        <ele>560.00000</ele>
        <time>2024-05-10T19:51:10Z</time>
      </trkpt>
      <trkpt lat="42.93275697" lon="13.43905999">
        <ele>561.00000</ele>
        <time>2024-05-10T19:51:11Z</time>
      </trkpt>
      <trkpt lat="42.93274096" lon="13.43907298">
        <ele>561.00000</ele>
        <time>2024-05-10T19:51:11Z</time>
      </trkpt>
      <trkpt lat="42.93272495" lon="13.43908798">
        <ele>561.00000</ele>
        <time>2024-05-10T19:51:12Z</time>
      </trkpt>
      <trkpt lat="42.93270994" lon="13.43910198">
        <ele>561.00000</ele>
        <time>2024-05-10T19:51:12Z</time>
      </trkpt>
      <trkpt lat="42.93269896" lon="13.43912294">
        <ele>561.00000</ele>
        <time>2024-05-10T19:51:12Z</time>
      </trkpt>
      <trkpt lat="42.93269092" lon="13.43914791">
        <ele>561.00000</ele>
        <time>2024-05-10T19:51:13Z</time>
      </trkpt>
      <trkpt lat="42.93268396" lon="13.43917792">
        <ele>561.00000</ele>
        <time>2024-05-10T19:51:13Z</time>
      </trkpt>
      <trkpt lat="42.93268094" lon="13.43920592">
        <ele>561.00000</ele>
        <time>2024-05-10T19:51:14Z</time>
      </trkpt>
      <trkpt lat="42.93268396" lon="13.43923894">
        <ele>561.00000</ele>
        <time>2024-05-10T19:51:14Z</time>
      </trkpt>
      <trkpt lat="42.93268698" lon="13.43926895">
        <ele>560.00000</ele>
        <time>2024-05-10T19:51:15Z</time>
      </trkpt>
      <trkpt lat="42.93269695" lon="13.43929192">
        <ele>560.00000</ele>
        <time>2024-05-10T19:51:15Z</time>
      </trkpt>
      <trkpt lat="42.93270793" lon="13.43930994">
        <ele>559.00000</ele>
        <time>2024-05-10T19:51:15Z</time>
      </trkpt>
      <trkpt lat="42.93271992" lon="13.43933491">
        <ele>559.00000</ele>
        <time>2024-05-10T19:51:16Z</time>
      </trkpt>
      <trkpt lat="42.93272897" lon="13.43936098">
        <ele>558.00000</ele>
        <time>2024-05-10T19:51:16Z</time>
      </trkpt>
      <trkpt lat="42.93273593" lon="13.43938797">
        <ele>558.00000</ele>
        <time>2024-05-10T19:51:17Z</time>
      </trkpt>
      <trkpt lat="42.93274397" lon="13.43941396">
        <ele>557.00000</ele>
        <time>2024-05-10T19:51:17Z</time>
      </trkpt>
      <trkpt lat="42.93275596" lon="13.43944195">
        <ele>556.00000</ele>
        <time>2024-05-10T19:51:17Z</time>
      </trkpt>
      <trkpt lat="42.93276392" lon="13.43946794">
        <ele>556.00000</ele>
        <time>2024-05-10T19:51:18Z</time>
      </trkpt>
      <trkpt lat="42.93277499" lon="13.43949593">
        <ele>555.00000</ele>
        <time>2024-05-10T19:51:18Z</time>
      </trkpt>
      <trkpt lat="42.93278094" lon="13.43952292">
        <ele>555.00000</ele>
        <time>2024-05-10T19:51:19Z</time>
      </trkpt>
      <trkpt lat="42.93278597" lon="13.43955595">
        <ele>554.00000</ele>
        <time>2024-05-10T19:51:19Z</time>
      </trkpt>
      <trkpt lat="42.93278999" lon="13.43958595">
        <ele>554.00000</ele>
        <time>2024-05-10T19:51:20Z</time>
      </trkpt>
      <trkpt lat="42.93278798" lon="13.43962199">
        <ele>554.00000</ele>
        <time>2024-05-10T19:51:20Z</time>
      </trkpt>
      <trkpt lat="42.93278899" lon="13.43965795">
        <ele>554.00000</ele>
        <time>2024-05-10T19:51:21Z</time>
      </trkpt>
      <trkpt lat="42.93278899" lon="13.43968897">
        <ele>553.00000</ele>
        <time>2024-05-10T19:51:21Z</time>
      </trkpt>
      <trkpt lat="42.93278697" lon="13.43971897">
        <ele>553.00000</ele>
        <time>2024-05-10T19:51:22Z</time>
      </trkpt>
      <trkpt lat="42.93277599" lon="13.43975292">
        <ele>553.00000</ele>
        <time>2024-05-10T19:51:22Z</time>
      </trkpt>
      <trkpt lat="42.93276895" lon="13.43978494">
        <ele>553.00000</ele>
        <time>2024-05-10T19:51:23Z</time>
      </trkpt>
      <trkpt lat="42.93275998" lon="13.43981897">
        <ele>553.00000</ele>
        <time>2024-05-10T19:51:23Z</time>
      </trkpt>
      <trkpt lat="42.93274993" lon="13.43985694">
        <ele>553.00000</ele>
        <time>2024-05-10T19:51:24Z</time>
      </trkpt>
      <trkpt lat="42.93273492" lon="13.43989499">
        <ele>553.00000</ele>
        <time>2024-05-10T19:51:24Z</time>
      </trkpt>
      <trkpt lat="42.93272294" lon="13.43993397">
        <ele>553.00000</ele>
        <time>2024-05-10T19:51:25Z</time>
      </trkpt>
      <trkpt lat="42.93271598" lon="13.43997093">
        <ele>553.00000</ele>
        <time>2024-05-10T19:51:26Z</time>
      </trkpt>
      <trkpt lat="42.93270894" lon="13.44000999">
        <ele>553.00000</ele>
        <time>2024-05-10T19:51:26Z</time>
      </trkpt>
      <trkpt lat="42.93269997" lon="13.44004897">
        <ele>553.00000</ele>
        <time>2024-05-10T19:51:27Z</time>
      </trkpt>
      <trkpt lat="42.93269293" lon="13.44008292">
        <ele>553.00000</ele>
        <time>2024-05-10T19:51:27Z</time>
      </trkpt>
      <trkpt lat="42.93268698" lon="13.44012097">
        <ele>552.00000</ele>
        <time>2024-05-10T19:51:28Z</time>
      </trkpt>
      <trkpt lat="42.93268497" lon="13.44015793">
        <ele>552.00000</ele>
        <time>2024-05-10T19:51:28Z</time>
      </trkpt>
      <trkpt lat="42.93267994" lon="13.44019498">
        <ele>552.00000</ele>
        <time>2024-05-10T19:51:29Z</time>
      </trkpt>
      <trkpt lat="42.93267793" lon="13.44023496">
        <ele>551.00000</ele>
        <time>2024-05-10T19:51:30Z</time>
      </trkpt>
      <trkpt lat="42.93267499" lon="13.44027394">
        <ele>551.00000</ele>
        <time>2024-05-10T19:51:30Z</time>
      </trkpt>
      <trkpt lat="42.93266795" lon="13.44031292">
        <ele>551.00000</ele>
        <time>2024-05-10T19:51:31Z</time>
      </trkpt>
      <trkpt lat="42.93265798" lon="13.44036497">
        <ele>551.00000</ele>
        <time>2024-05-10T19:51:32Z</time>
      </trkpt>
      <trkpt lat="42.93264498" lon="13.44041199">
        <ele>551.00000</ele>
        <time>2024-05-10T19:51:32Z</time>
      </trkpt>
      <trkpt lat="42.93262294" lon="13.44046195">
        <ele>551.00000</ele>
        <time>2024-05-10T19:51:33Z</time>
      </trkpt>
      <trkpt lat="42.93259595" lon="13.44050997">
        <ele>552.00000</ele>
        <time>2024-05-10T19:51:34Z</time>
      </trkpt>
      <trkpt lat="42.93255798" lon="13.44055599">
        <ele>553.00000</ele>
        <time>2024-05-10T19:51:35Z</time>
      </trkpt>
      <trkpt lat="42.93251297" lon="13.44059798">
        <ele>553.00000</ele>
        <time>2024-05-10T19:51:36Z</time>
      </trkpt>
      <trkpt lat="42.93245991" lon="13.44064895">
        <ele>554.00000</ele>
        <time>2024-05-10T19:51:37Z</time>
      </trkpt>
      <trkpt lat="42.93240694" lon="13.44070896">
        <ele>554.00000</ele>
        <time>2024-05-10T19:51:39Z</time>
      </trkpt>
      <trkpt lat="42.93235396" lon="13.44075799">
        <ele>554.00000</ele>
        <time>2024-05-10T19:51:40Z</time>
      </trkpt>
      <trkpt lat="42.93229294" lon="13.44080493">
        <ele>554.00000</ele>
        <time>2024-05-10T19:51:41Z</time>
      </trkpt>
      <trkpt lat="42.93222698" lon="13.44084592">
        <ele>554.00000</ele>
        <time>2024-05-10T19:51:43Z</time>
      </trkpt>
      <trkpt lat="42.93216194" lon="13.44089495">
        <ele>555.00000</ele>
        <time>2024-05-10T19:51:44Z</time>
      </trkpt>
      <trkpt lat="42.93209195" lon="13.44094793">
        <ele>555.00000</ele>
        <time>2024-05-10T19:51:46Z</time>
      </trkpt>
      <trkpt lat="42.93202799" lon="13.44100593">
        <ele>555.00000</ele>
        <time>2024-05-10T19:51:48Z</time>
      </trkpt>
      <trkpt lat="42.93197393" lon="13.44106092">
        <ele>554.00000</ele>
        <time>2024-05-10T19:51:49Z</time>
      </trkpt>
      <trkpt lat="42.93193495" lon="13.44112093">
        <ele>553.00000</ele>
        <time>2024-05-10T19:51:50Z</time>
      </trkpt>
      <trkpt lat="42.93192196" lon="13.44119293">
        <ele>554.00000</ele>
        <time>2024-05-10T19:51:51Z</time>
      </trkpt>
      <trkpt lat="42.93194099" lon="13.44125697">
        <ele>555.00000</ele>
        <time>2024-05-10T19:51:52Z</time>
      </trkpt>
      <trkpt lat="42.93196898" lon="13.44128698">
        <ele>555.00000</ele>
        <time>2024-05-10T19:51:53Z</time>
      </trkpt>
      <trkpt lat="42.93200192" lon="13.44129695">
        <ele>554.00000</ele>
        <time>2024-05-10T19:51:54Z</time>
      </trkpt>
      <trkpt lat="42.93203093" lon="13.44131296">
        <ele>554.00000</ele>
        <time>2024-05-10T19:51:54Z</time>
      </trkpt>
      <trkpt lat="42.93205699" lon="13.44133199">
        <ele>553.00000</ele>
        <time>2024-05-10T19:51:55Z</time>
      </trkpt>
      <trkpt lat="42.93208591" lon="13.44134397">
        <ele>553.00000</ele>
        <time>2024-05-10T19:51:55Z</time>
      </trkpt>
      <trkpt lat="42.93211399" lon="13.44135797">
        <ele>552.00000</ele>
        <time>2024-05-10T19:51:56Z</time>
      </trkpt>
      <trkpt lat="42.93213897" lon="13.44137197">
        <ele>551.00000</ele>
        <time>2024-05-10T19:51:57Z</time>
      </trkpt>
      <trkpt lat="42.93216294" lon="13.44138395">
        <ele>551.00000</ele>
        <time>2024-05-10T19:51:57Z</time>
      </trkpt>
      <trkpt lat="42.93218792" lon="13.44139795">
        <ele>551.00000</ele>
        <time>2024-05-10T19:51:58Z</time>
      </trkpt>
      <trkpt lat="42.93220795" lon="13.44142092">
        <ele>550.00000</ele>
        <time>2024-05-10T19:51:58Z</time>
      </trkpt>
      <trkpt lat="42.93223293" lon="13.44144397">
        <ele>550.00000</ele>
        <time>2024-05-10T19:51:59Z</time>
      </trkpt>
      <trkpt lat="42.93225992" lon="13.44146794">
        <ele>550.00000</ele>
        <time>2024-05-10T19:51:59Z</time>
      </trkpt>
      <trkpt lat="42.93228498" lon="13.44149191">
        <ele>549.00000</ele>
        <time>2024-05-10T19:52:00Z</time>
      </trkpt>
      <trkpt lat="42.93230594" lon="13.44152092">
        <ele>549.00000</ele>
        <time>2024-05-10T19:52:01Z</time>
      </trkpt>
      <trkpt lat="42.93232195" lon="13.44154497">
        <ele>548.00000</ele>
        <time>2024-05-10T19:52:01Z</time>
      </trkpt>
      <trkpt lat="42.93233997" lon="13.44158194">
        <ele>548.00000</ele>
        <time>2024-05-10T19:52:02Z</time>
      </trkpt>
      <trkpt lat="42.93235195" lon="13.44162695">
        <ele>547.00000</ele>
        <time>2024-05-10T19:52:02Z</time>
      </trkpt>
      <trkpt lat="42.93235992" lon="13.44167598">
        <ele>547.00000</ele>
        <time>2024-05-10T19:52:03Z</time>
      </trkpt>
      <trkpt lat="42.93236394" lon="13.44173398">
        <ele>547.00000</ele>
        <time>2024-05-10T19:52:04Z</time>
      </trkpt>
      <trkpt lat="42.93235698" lon="13.44179299">
        <ele>548.00000</ele>
        <time>2024-05-10T19:52:05Z</time>
      </trkpt>
      <trkpt lat="42.93234994" lon="13.44185695">
        <ele>549.00000</ele>
        <time>2024-05-10T19:52:06Z</time>
      </trkpt>
      <trkpt lat="42.93234399" lon="13.44192199">
        <ele>550.00000</ele>
        <time>2024-05-10T19:52:07Z</time>
      </trkpt>
      <trkpt lat="42.93234298" lon="13.44199592">
        <ele>551.00000</ele>
        <time>2024-05-10T19:52:08Z</time>
      </trkpt>
      <trkpt lat="42.93235296" lon="13.44207898">
        <ele>552.00000</ele>
        <time>2024-05-10T19:52:09Z</time>
      </trkpt>
      <trkpt lat="42.93236997" lon="13.44216297">
        <ele>552.00000</ele>
        <time>2024-05-10T19:52:10Z</time>
      </trkpt>
      <trkpt lat="42.93238791" lon="13.44223296">
        <ele>551.00000</ele>
        <time>2024-05-10T19:52:11Z</time>
      </trkpt>
      <trkpt lat="42.93240895" lon="13.44229691">
        <ele>551.00000</ele>
        <time>2024-05-10T19:52:12Z</time>
      </trkpt>
      <trkpt lat="42.93241691" lon="13.44237696">
        <ele>550.00000</ele>
        <time>2024-05-10T19:52:14Z</time>
      </trkpt>
      <trkpt lat="42.93240996" lon="13.44246698">
        <ele>551.00000</ele>
        <time>2024-05-10T19:52:15Z</time>
      </trkpt>
      <trkpt lat="42.93239696" lon="13.44255792">
        <ele>552.00000</ele>
        <time>2024-05-10T19:52:16Z</time>
      </trkpt>
      <trkpt lat="42.93240493" lon="13.44265499">
        <ele>551.00000</ele>
        <time>2024-05-10T19:52:18Z</time>
      </trkpt>
      <trkpt lat="42.93242295" lon="13.44274995">
        <ele>550.00000</ele>
        <time>2024-05-10T19:52:19Z</time>
      </trkpt>
      <trkpt lat="42.93245195" lon="13.44284693">
        <ele>547.00000</ele>
        <time>2024-05-10T19:52:21Z</time>
      </trkpt>
      <trkpt lat="42.93249696" lon="13.44293494">
        <ele>545.00000</ele>
        <time>2024-05-10T19:52:22Z</time>
      </trkpt>
      <trkpt lat="42.93254398" lon="13.44301499">
        <ele>542.00000</ele>
        <time>2024-05-10T19:52:24Z</time>
      </trkpt>
      <trkpt lat="42.93258095" lon="13.44308598">
        <ele>541.00000</ele>
        <time>2024-05-10T19:52:25Z</time>
      </trkpt>
      <trkpt lat="42.93259696" lon="13.44316192">
        <ele>540.00000</ele>
        <time>2024-05-10T19:52:26Z</time>
      </trkpt>
      <trkpt lat="42.93260391" lon="13.44323694">
        <ele>540.00000</ele>
        <time>2024-05-10T19:52:27Z</time>
      </trkpt>
      <trkpt lat="42.93259193" lon="13.44330492">
        <ele>540.00000</ele>
        <time>2024-05-10T19:52:28Z</time>
      </trkpt>
      <trkpt lat="42.93257097" lon="13.44336393">
        <ele>541.00000</ele>
        <time>2024-05-10T19:52:29Z</time>
      </trkpt>
      <trkpt lat="42.93254197" lon="13.44340894">
        <ele>542.00000</ele>
        <time>2024-05-10T19:52:30Z</time>
      </trkpt>
      <trkpt lat="42.93250593" lon="13.44345998">
        <ele>542.00000</ele>
        <time>2024-05-10T19:52:31Z</time>
      </trkpt>
      <trkpt lat="42.93246595" lon="13.44352696">
        <ele>543.00000</ele>
        <time>2024-05-10T19:52:33Z</time>
      </trkpt>
      <trkpt lat="42.93241993" lon="13.44360793">
        <ele>544.00000</ele>
        <time>2024-05-10T19:52:34Z</time>
      </trkpt>
      <trkpt lat="42.93237391" lon="13.44370197">
        <ele>544.00000</ele>
        <time>2024-05-10T19:52:36Z</time>
      </trkpt>
      <trkpt lat="42.93232094" lon="13.44380498">
        <ele>544.00000</ele>
        <time>2024-05-10T19:52:38Z</time>
      </trkpt>
      <trkpt lat="42.93227593" lon="13.44391395">
        <ele>543.00000</ele>
        <time>2024-05-10T19:52:39Z</time>
      </trkpt>
      <trkpt lat="42.93223997" lon="13.44401998">
        <ele>541.00000</ele>
        <time>2024-05-10T19:52:41Z</time>
      </trkpt>
      <trkpt lat="42.93220192" lon="13.44412894">
        <ele>539.00000</ele>
        <time>2024-05-10T19:52:43Z</time>
      </trkpt>
      <trkpt lat="42.93214492" lon="13.44422399">
        <ele>540.00000</ele>
        <time>2024-05-10T19:52:45Z</time>
      </trkpt>
      <trkpt lat="42.93206596" lon="13.44430999">
        <ele>542.00000</ele>
        <time>2024-05-10T19:52:47Z</time>
      </trkpt>
      <trkpt lat="42.93198097" lon="13.44438694">
        <ele>544.00000</ele>
        <time>2024-05-10T19:52:49Z</time>
      </trkpt>
      <trkpt lat="42.93189598" lon="13.44446397">
        <ele>546.00000</ele>
        <time>2024-05-10T19:52:51Z</time>
      </trkpt>
      <trkpt lat="42.93181694" lon="13.44454695">
        <ele>547.00000</ele>
        <time>2024-05-10T19:52:53Z</time>
      </trkpt>
      <trkpt lat="42.93174695" lon="13.44462398">
        <ele>548.00000</ele>
        <time>2024-05-10T19:52:55Z</time>
      </trkpt>
      <trkpt lat="42.93167998" lon="13.44468492">
        <ele>548.00000</ele>
        <time>2024-05-10T19:52:56Z</time>
      </trkpt>
      <trkpt lat="42.93162499" lon="13.44472993">
        <ele>548.00000</ele>
        <time>2024-05-10T19:52:58Z</time>
      </trkpt>
      <trkpt lat="42.93157495" lon="13.44477494">
        <ele>548.00000</ele>
        <time>2024-05-10T19:52:59Z</time>
      </trkpt>
      <trkpt lat="42.93152893" lon="13.44482892">
        <ele>548.00000</ele>
        <time>2024-05-10T19:53:00Z</time>
      </trkpt>
      <trkpt lat="42.93148895" lon="13.44488893">
        <ele>548.00000</ele>
        <time>2024-05-10T19:53:01Z</time>
      </trkpt>
      <trkpt lat="42.93145199" lon="13.44493998">
        <ele>548.00000</ele>
        <time>2024-05-10T19:53:02Z</time>
      </trkpt>
      <trkpt lat="42.93141595" lon="13.44498499">
        <ele>547.00000</ele>
        <time>2024-05-10T19:53:03Z</time>
      </trkpt>
      <trkpt lat="42.93138393" lon="13.44502799">
        <ele>547.00000</ele>
        <time>2024-05-10T19:53:04Z</time>
      </trkpt>
      <trkpt lat="42.93134797" lon="13.44506294">
        <ele>548.00000</ele>
        <time>2024-05-10T19:53:05Z</time>
      </trkpt>
      <trkpt lat="42.93131696" lon="13.44508792">
        <ele>548.00000</ele>
        <time>2024-05-10T19:53:06Z</time>
      </trkpt>
      <trkpt lat="42.93128091" lon="13.44510694">
        <ele>549.00000</ele>
        <time>2024-05-10T19:53:06Z</time>
      </trkpt>
      <trkpt lat="42.93124194" lon="13.44512396">
        <ele>550.00000</ele>
        <time>2024-05-10T19:53:07Z</time>
      </trkpt>
      <trkpt lat="42.93120296" lon="13.44513494">
        <ele>550.00000</ele>
        <time>2024-05-10T19:53:08Z</time>
      </trkpt>
      <trkpt lat="42.93116692" lon="13.44514592">
        <ele>551.00000</ele>
        <time>2024-05-10T19:53:09Z</time>
      </trkpt>
      <trkpt lat="42.93113297" lon="13.44515992">
        <ele>552.00000</ele>
        <time>2024-05-10T19:53:09Z</time>
      </trkpt>
      <trkpt lat="42.93109492" lon="13.44516394">
        <ele>552.00000</ele>
        <time>2024-05-10T19:53:10Z</time>
      </trkpt>
      <trkpt lat="42.93106399" lon="13.44516897">
        <ele>552.00000</ele>
        <time>2024-05-10T19:53:11Z</time>
      </trkpt>
      <trkpt lat="42.93103197" lon="13.44517098">
        <ele>552.00000</ele>
        <time>2024-05-10T19:53:11Z</time>
      </trkpt>
      <trkpt lat="42.93099995" lon="13.44518096">
        <ele>552.00000</ele>
        <time>2024-05-10T19:53:12Z</time>
      </trkpt>
      <trkpt lat="42.93096994" lon="13.44518498">
        <ele>552.00000</ele>
        <time>2024-05-10T19:53:13Z</time>
      </trkpt>
      <trkpt lat="42.93094597" lon="13.44519194">
        <ele>552.00000</ele>
        <time>2024-05-10T19:53:13Z</time>
      </trkpt>
      <trkpt lat="42.93092292" lon="13.44519697">
        <ele>552.00000</ele>
        <time>2024-05-10T19:53:14Z</time>
      </trkpt>
      <trkpt lat="42.93089996" lon="13.44520895">
        <ele>552.00000</ele>
        <time>2024-05-10T19:53:14Z</time>
      </trkpt>
      <trkpt lat="42.93086894" lon="13.44521398">
        <ele>552.00000</ele>
        <time>2024-05-10T19:53:15Z</time>
      </trkpt>
      <trkpt lat="42.93084799" lon="13.44520694">
        <ele>553.00000</ele>
        <time>2024-05-10T19:53:15Z</time>
      </trkpt>
      <trkpt lat="42.93082594" lon="13.44520895">
        <ele>553.00000</ele>
        <time>2024-05-10T19:53:16Z</time>
      </trkpt>
      <trkpt lat="42.93080197" lon="13.44521298">
        <ele>553.00000</ele>
        <time>2024-05-10T19:53:16Z</time>
      </trkpt>
      <trkpt lat="42.93077599" lon="13.44521499">
        <ele>554.00000</ele>
        <time>2024-05-10T19:53:17Z</time>
      </trkpt>
      <trkpt lat="42.93074992" lon="13.44522295">
        <ele>554.00000</ele>
        <time>2024-05-10T19:53:17Z</time>
      </trkpt>
      <trkpt lat="42.93072192" lon="13.44523494">
        <ele>554.00000</ele>
        <time>2024-05-10T19:53:18Z</time>
      </trkpt>
      <trkpt lat="42.93069996" lon="13.44524298">
        <ele>554.00000</ele>
        <time>2024-05-10T19:53:18Z</time>
      </trkpt>
      <trkpt lat="42.93067691" lon="13.44525597">
        <ele>555.00000</ele>
        <time>2024-05-10T19:53:19Z</time>
      </trkpt>
      <trkpt lat="42.93066199" lon="13.44527995">
        <ele>555.00000</ele>
        <time>2024-05-10T19:53:19Z</time>
      </trkpt>
      <trkpt lat="42.93064699" lon="13.44531398">
        <ele>555.00000</ele>
        <time>2024-05-10T19:53:20Z</time>
      </trkpt>
      <trkpt lat="42.93063995" lon="13.44534499">
        <ele>555.00000</ele>
        <time>2024-05-10T19:53:20Z</time>
      </trkpt>
      <trkpt lat="42.93063894" lon="13.44537198">
        <ele>556.00000</ele>
        <time>2024-05-10T19:53:21Z</time>
      </trkpt>
      <trkpt lat="42.93064892" lon="13.44540392">
        <ele>556.00000</ele>
        <time>2024-05-10T19:53:21Z</time>
      </trkpt>
      <trkpt lat="42.93065093" lon="13.44543199">
        <ele>556.00000</ele>
        <time>2024-05-10T19:53:22Z</time>
      </trkpt>
      <trkpt lat="42.93064992" lon="13.44546393">
        <ele>556.00000</ele>
        <time>2024-05-10T19:53:22Z</time>
      </trkpt>
      <trkpt lat="42.93065495" lon="13.44548799">
        <ele>556.00000</ele>
        <time>2024-05-10T19:53:22Z</time>
      </trkpt>
      <trkpt lat="42.93065093" lon="13.44551296">
        <ele>556.00000</ele>
        <time>2024-05-10T19:53:23Z</time>
      </trkpt>
      <trkpt lat="42.93063995" lon="13.44553995">
        <ele>556.00000</ele>
        <time>2024-05-10T19:53:23Z</time>
      </trkpt>
      <trkpt lat="42.93062897" lon="13.44556099">
        <ele>557.00000</ele>
        <time>2024-05-10T19:53:24Z</time>
      </trkpt>
      <trkpt lat="42.93061698" lon="13.44558597">
        <ele>557.00000</ele>
        <time>2024-05-10T19:53:24Z</time>
      </trkpt>
      <trkpt lat="42.93061992" lon="13.44561497">
        <ele>558.00000</ele>
        <time>2024-05-10T19:53:25Z</time>
      </trkpt>
      <trkpt lat="42.93061899" lon="13.44564699">
        <ele>558.00000</ele>
        <time>2024-05-10T19:53:25Z</time>
      </trkpt>
      <trkpt lat="42.93062293" lon="13.44567993">
        <ele>558.00000</ele>
        <time>2024-05-10T19:53:25Z</time>
      </trkpt>
      <trkpt lat="42.93063098" lon="13.44570893">
        <ele>559.00000</ele>
        <time>2024-05-10T19:53:26Z</time>
      </trkpt>
      <trkpt lat="42.93064992" lon="13.44573592">
        <ele>559.00000</ele>
        <time>2024-05-10T19:53:26Z</time>
      </trkpt>
      <trkpt lat="42.93067297" lon="13.44574891">
        <ele>559.00000</ele>
        <time>2024-05-10T19:53:27Z</time>
      </trkpt>
      <trkpt lat="42.93069493" lon="13.44576098">
        <ele>559.00000</ele>
        <time>2024-05-10T19:53:27Z</time>
      </trkpt>
      <trkpt lat="42.93072092" lon="13.44575897">
        <ele>559.00000</ele>
        <time>2024-05-10T19:53:28Z</time>
      </trkpt>
      <trkpt lat="42.93074296" lon="13.44574095">
        <ele>558.00000</ele>
        <time>2024-05-10T19:53:28Z</time>
      </trkpt>
      <trkpt lat="42.93075897" lon="13.44571195">
        <ele>558.00000</ele>
        <time>2024-05-10T19:53:29Z</time>
      </trkpt>
      <trkpt lat="42.93078093" lon="13.44568999">
        <ele>557.00000</ele>
        <time>2024-05-10T19:53:30Z</time>
      </trkpt>
      <trkpt lat="42.93080097" lon="13.44567197">
        <ele>557.00000</ele>
        <time>2024-05-10T19:53:30Z</time>
      </trkpt>
      <trkpt lat="42.93082091" lon="13.44566493">
        <ele>557.00000</ele>
        <time>2024-05-10T19:53:30Z</time>
      </trkpt>
      <trkpt lat="42.93084396" lon="13.44565495">
        <ele>556.00000</ele>
        <time>2024-05-10T19:53:31Z</time>
      </trkpt>
      <trkpt lat="42.93086492" lon="13.44563995">
        <ele>556.00000</ele>
        <time>2024-05-10T19:53:31Z</time>
      </trkpt>
      <trkpt lat="42.93088696" lon="13.44562897">
        <ele>555.00000</ele>
        <time>2024-05-10T19:53:32Z</time>
      </trkpt>
      <trkpt lat="42.93090691" lon="13.44562595">
        <ele>555.00000</ele>
        <time>2024-05-10T19:53:32Z</time>
      </trkpt>
      <trkpt lat="42.93092896" lon="13.44562394">
        <ele>555.00000</ele>
        <time>2024-05-10T19:53:33Z</time>
      </trkpt>
      <trkpt lat="42.93095092" lon="13.44562595">
        <ele>555.00000</ele>
        <time>2024-05-10T19:53:33Z</time>
      </trkpt>
      <trkpt lat="42.93097397" lon="13.44562193">
        <ele>554.00000</ele>
        <time>2024-05-10T19:53:34Z</time>
      </trkpt>
      <trkpt lat="42.93099392" lon="13.44561992">
        <ele>554.00000</ele>
        <time>2024-05-10T19:53:34Z</time>
      </trkpt>
      <trkpt lat="42.93101395" lon="13.44561992">
        <ele>554.00000</ele>
        <time>2024-05-10T19:53:34Z</time>
      </trkpt>
      <trkpt lat="42.93103599" lon="13.44561397">
        <ele>553.00000</ele>
        <time>2024-05-10T19:53:35Z</time>
      </trkpt>
      <trkpt lat="42.93106491" lon="13.44561497">
        <ele>553.00000</ele>
        <time>2024-05-10T19:53:35Z</time>
      </trkpt>
      <trkpt lat="42.93109299" lon="13.44561095">
        <ele>553.00000</ele>
        <time>2024-05-10T19:53:36Z</time>
      </trkpt>
      <trkpt lat="42.93111998" lon="13.44560097">
        <ele>552.00000</ele>
        <time>2024-05-10T19:53:37Z</time>
      </trkpt>
      <trkpt lat="42.93114596" lon="13.44558597">
        <ele>551.00000</ele>
        <time>2024-05-10T19:53:37Z</time>
      </trkpt>
      <trkpt lat="42.93117295" lon="13.44557499">
        <ele>551.00000</ele>
        <time>2024-05-10T19:53:38Z</time>
      </trkpt>
      <trkpt lat="42.93119793" lon="13.44556393">
        <ele>550.00000</ele>
        <time>2024-05-10T19:53:38Z</time>
      </trkpt>
      <trkpt lat="42.93121998" lon="13.44556594">
        <ele>550.00000</ele>
        <time>2024-05-10T19:53:39Z</time>
      </trkpt>
      <trkpt lat="42.93124596" lon="13.44556694">
        <ele>550.00000</ele>
        <time>2024-05-10T19:53:39Z</time>
      </trkpt>
      <trkpt lat="42.93126792" lon="13.44556393">
        <ele>550.00000</ele>
        <time>2024-05-10T19:53:40Z</time>
      </trkpt>
      <trkpt lat="42.93129097" lon="13.44556594">
        <ele>550.00000</ele>
        <time>2024-05-10T19:53:40Z</time>
      </trkpt>
      <trkpt lat="42.93131092" lon="13.44557097">
        <ele>550.00000</ele>
        <time>2024-05-10T19:53:41Z</time>
      </trkpt>
      <trkpt lat="42.93132995" lon="13.44556996">
        <ele>549.00000</ele>
        <time>2024-05-10T19:53:41Z</time>
      </trkpt>
      <trkpt lat="42.93135099" lon="13.44557097">
        <ele>549.00000</ele>
        <time>2024-05-10T19:53:41Z</time>
      </trkpt>
      <trkpt lat="42.93137194" lon="13.44556896">
        <ele>549.00000</ele>
        <time>2024-05-10T19:53:42Z</time>
      </trkpt>
      <trkpt lat="42.93140597" lon="13.44557893">
        <ele>549.00000</ele>
        <time>2024-05-10T19:53:42Z</time>
      </trkpt>
      <trkpt lat="42.93143095" lon="13.44559092">
        <ele>550.00000</ele>
        <time>2024-05-10T19:53:43Z</time>
      </trkpt>
      <trkpt lat="42.93145693" lon="13.44559494">
        <ele>550.00000</ele>
        <time>2024-05-10T19:53:43Z</time>
      </trkpt>
      <trkpt lat="42.93148392" lon="13.44560198">
        <ele>551.00000</ele>
        <time>2024-05-10T19:53:44Z</time>
      </trkpt>
      <trkpt lat="42.93150798" lon="13.44560793">
        <ele>551.00000</ele>
        <time>2024-05-10T19:53:45Z</time>
      </trkpt>
      <trkpt lat="42.93153698" lon="13.44561195">
        <ele>551.00000</ele>
        <time>2024-05-10T19:53:45Z</time>
      </trkpt>
      <trkpt lat="42.93156296" lon="13.44560693">
        <ele>551.00000</ele>
        <time>2024-05-10T19:53:46Z</time>
      </trkpt>
      <trkpt lat="42.93158995" lon="13.44560198">
        <ele>551.00000</ele>
        <time>2024-05-10T19:53:46Z</time>
      </trkpt>
      <trkpt lat="42.93161896" lon="13.44559293">
        <ele>551.00000</ele>
        <time>2024-05-10T19:53:47Z</time>
      </trkpt>
      <trkpt lat="42.93164092" lon="13.44558597">
        <ele>551.00000</ele>
        <time>2024-05-10T19:53:47Z</time>
      </trkpt>
      <trkpt lat="42.93166497" lon="13.44557692">
        <ele>550.00000</ele>
        <time>2024-05-10T19:53:48Z</time>
      </trkpt>
      <trkpt lat="42.93168894" lon="13.44556896">
        <ele>550.00000</ele>
        <time>2024-05-10T19:53:48Z</time>
      </trkpt>
      <trkpt lat="42.93170998" lon="13.44555797">
        <ele>550.00000</ele>
        <time>2024-05-10T19:53:49Z</time>
      </trkpt>
      <trkpt lat="42.93173194" lon="13.44554699">
        <ele>549.00000</ele>
        <time>2024-05-10T19:53:49Z</time>
      </trkpt>
      <trkpt lat="42.93175198" lon="13.44553794">
        <ele>549.00000</ele>
        <time>2024-05-10T19:53:50Z</time>
      </trkpt>
      <trkpt lat="42.93177293" lon="13.44552797">
        <ele>549.00000</ele>
        <time>2024-05-10T19:53:50Z</time>
      </trkpt>
      <trkpt lat="42.93179397" lon="13.44551598">
        <ele>548.00000</ele>
        <time>2024-05-10T19:53:50Z</time>
      </trkpt>
      <trkpt lat="42.93181392" lon="13.44550198">
        <ele>548.00000</ele>
        <time>2024-05-10T19:53:51Z</time>
      </trkpt>
      <trkpt lat="42.93183295" lon="13.44548698">
        <ele>547.00000</ele>
        <time>2024-05-10T19:53:51Z</time>
      </trkpt>
      <trkpt lat="42.93185197" lon="13.44547399">
        <ele>546.00000</ele>
        <time>2024-05-10T19:53:52Z</time>
      </trkpt>
      <trkpt lat="42.93186899" lon="13.44545898">
        <ele>546.00000</ele>
        <time>2024-05-10T19:53:52Z</time>
      </trkpt>
      <trkpt lat="42.93188693" lon="13.44544893">
        <ele>545.00000</ele>
        <time>2024-05-10T19:53:53Z</time>
      </trkpt>
      <trkpt lat="42.93190696" lon="13.44544197">
        <ele>545.00000</ele>
        <time>2024-05-10T19:53:53Z</time>
      </trkpt>
      <trkpt lat="42.93192791" lon="13.44543493">
        <ele>545.00000</ele>
        <time>2024-05-10T19:53:53Z</time>
      </trkpt>
      <trkpt lat="42.93194593" lon="13.44542797">
        <ele>544.00000</ele>
        <time>2024-05-10T19:53:54Z</time>
      </trkpt>
      <trkpt lat="42.93196395" lon="13.44541791">
        <ele>544.00000</ele>
        <time>2024-05-10T19:53:54Z</time>
      </trkpt>
      <trkpt lat="42.93197996" lon="13.44541196">
        <ele>544.00000</ele>
        <time>2024-05-10T19:53:54Z</time>
      </trkpt>
      <trkpt lat="42.93199698" lon="13.44541599">
        <ele>544.00000</ele>
        <time>2024-05-10T19:53:55Z</time>
      </trkpt>
      <trkpt lat="42.93201399" lon="13.44541599">
        <ele>544.00000</ele>
        <time>2024-05-10T19:53:55Z</time>
      </trkpt>
      <trkpt lat="42.93203294" lon="13.44542093">
        <ele>544.00000</ele>
        <time>2024-05-10T19:53:56Z</time>
      </trkpt>
      <trkpt lat="42.93205096" lon="13.44542898">
        <ele>545.00000</ele>
        <time>2024-05-10T19:53:56Z</time>
      </trkpt>
      <trkpt lat="42.93207099" lon="13.44544197">
        <ele>545.00000</ele>
        <time>2024-05-10T19:53:56Z</time>
      </trkpt>
      <trkpt lat="42.93209195" lon="13.44546091">
        <ele>546.00000</ele>
        <time>2024-05-10T19:53:57Z</time>
      </trkpt>
      <trkpt lat="42.93211298" lon="13.44547793">
        <ele>547.00000</ele>
        <time>2024-05-10T19:53:57Z</time>
      </trkpt>
      <trkpt lat="42.93212799" lon="13.44549695">
        <ele>548.00000</ele>
        <time>2024-05-10T19:53:58Z</time>
      </trkpt>
      <trkpt lat="42.93214391" lon="13.44550894">
        <ele>548.00000</ele>
        <time>2024-05-10T19:53:58Z</time>
      </trkpt>
      <trkpt lat="42.93215791" lon="13.44552696">
        <ele>549.00000</ele>
        <time>2024-05-10T19:53:59Z</time>
      </trkpt>
      <trkpt lat="42.93217292" lon="13.44553995">
        <ele>550.00000</ele>
        <time>2024-05-10T19:53:59Z</time>
      </trkpt>
      <trkpt lat="42.93218792" lon="13.44555395">
        <ele>550.00000</ele>
        <time>2024-05-10T19:53:59Z</time>
      </trkpt>
      <trkpt lat="42.93219999" lon="13.44556795">
        <ele>551.00000</ele>
        <time>2024-05-10T19:54:00Z</time>
      </trkpt>
      <trkpt lat="42.93221198" lon="13.44558094">
        <ele>552.00000</ele>
        <time>2024-05-10T19:54:00Z</time>
      </trkpt>
      <trkpt lat="42.93221994" lon="13.44559695">
        <ele>553.00000</ele>
        <time>2024-05-10T19:54:00Z</time>
      </trkpt>
      <trkpt lat="42.93222798" lon="13.44561195">
        <ele>554.00000</ele>
        <time>2024-05-10T19:54:00Z</time>
      </trkpt>
      <trkpt lat="42.93224198" lon="13.44562897">
        <ele>555.00000</ele>
        <time>2024-05-10T19:54:01Z</time>
      </trkpt>
      <trkpt lat="42.93224693" lon="13.44564397">
        <ele>555.00000</ele>
        <time>2024-05-10T19:54:01Z</time>
      </trkpt>
      <trkpt lat="42.93224793" lon="13.44565294">
        <ele>556.00000</ele>
        <time>2024-05-10T19:54:01Z</time>
      </trkpt>
      <trkpt lat="42.93225992" lon="13.44566996">
        <ele>557.00000</ele>
        <time>2024-05-10T19:54:02Z</time>
      </trkpt>
      <trkpt lat="42.93226797" lon="13.44568194">
        <ele>557.00000</ele>
        <time>2024-05-10T19:54:02Z</time>
      </trkpt>
      <trkpt lat="42.93228498" lon="13.44570097">
        <ele>558.00000</ele>
        <time>2024-05-10T19:54:02Z</time>
      </trkpt>
      <trkpt lat="42.93229999" lon="13.44571991">
        <ele>559.00000</ele>
        <time>2024-05-10T19:54:03Z</time>
      </trkpt>
      <trkpt lat="42.93231197" lon="13.44574196">
        <ele>560.00000</ele>
        <time>2024-05-10T19:54:03Z</time>
      </trkpt>
      <trkpt lat="42.93232396" lon="13.44576794">
        <ele>562.00000</ele>
        <time>2024-05-10T19:54:03Z</time>
      </trkpt>
      <trkpt lat="42.93233896" lon="13.44579099">
        <ele>563.00000</ele>
        <time>2024-05-10T19:54:04Z</time>
      </trkpt>
      <trkpt lat="42.93235195" lon="13.44581094">
        <ele>564.00000</ele>
        <time>2024-05-10T19:54:04Z</time>
      </trkpt>
      <trkpt lat="42.93236293" lon="13.44582796">
        <ele>564.00000</ele>
        <time>2024-05-10T19:54:05Z</time>
      </trkpt>
      <trkpt lat="42.93237794" lon="13.44584296">
        <ele>565.00000</ele>
        <time>2024-05-10T19:54:05Z</time>
      </trkpt>
      <trkpt lat="42.93238699" lon="13.44586492">
        <ele>566.00000</ele>
        <time>2024-05-10T19:54:05Z</time>
      </trkpt>
      <trkpt lat="42.93238892" lon="13.44588495">
        <ele>567.00000</ele>
        <time>2024-05-10T19:54:06Z</time>
      </trkpt>
      <trkpt lat="42.93239193" lon="13.44590297">
        <ele>568.00000</ele>
        <time>2024-05-10T19:54:06Z</time>
      </trkpt>
      <trkpt lat="42.93238892" lon="13.44592996">
        <ele>569.00000</ele>
        <time>2024-05-10T19:54:06Z</time>
      </trkpt>
      <trkpt lat="42.93238095" lon="13.44594698">
        <ele>570.00000</ele>
        <time>2024-05-10T19:54:07Z</time>
      </trkpt>
      <trkpt lat="42.93236796" lon="13.44596198">
        <ele>571.00000</ele>
        <time>2024-05-10T19:54:07Z</time>
      </trkpt>
      <trkpt lat="42.93235195" lon="13.44597799">
        <ele>572.00000</ele>
        <time>2024-05-10T19:54:07Z</time>
      </trkpt>
      <trkpt lat="42.93233494" lon="13.44598696">
        <ele>573.00000</ele>
        <time>2024-05-10T19:54:08Z</time>
      </trkpt>
      <trkpt lat="42.93232195" lon="13.44598193">
        <ele>573.00000</ele>
        <time>2024-05-10T19:54:08Z</time>
      </trkpt>
      <trkpt lat="42.93230895" lon="13.44597799">
        <ele>573.00000</ele>
        <time>2024-05-10T19:54:08Z</time>
      </trkpt>
      <trkpt lat="42.93229194" lon="13.44597296">
        <ele>573.00000</ele>
        <time>2024-05-10T19:54:09Z</time>
      </trkpt>
      <trkpt lat="42.93227492" lon="13.44596299">
        <ele>572.00000</ele>
        <time>2024-05-10T19:54:09Z</time>
      </trkpt>
      <trkpt lat="42.93226394" lon="13.44594991">
        <ele>572.00000</ele>
        <time>2024-05-10T19:54:09Z</time>
      </trkpt>
      <trkpt lat="42.93225196" lon="13.44593591">
        <ele>571.00000</ele>
        <time>2024-05-10T19:54:10Z</time>
      </trkpt>
      <trkpt lat="42.93223695" lon="13.44591898">
        <ele>570.00000</ele>
        <time>2024-05-10T19:54:10Z</time>
      </trkpt>
      <trkpt lat="42.93222195" lon="13.44591295">
        <ele>570.00000</ele>
        <time>2024-05-10T19:54:10Z</time>
      </trkpt>
      <trkpt lat="42.93220996" lon="13.44590599">
        <ele>570.00000</ele>
        <time>2024-05-10T19:54:11Z</time>
      </trkpt>
      <trkpt lat="42.93219798" lon="13.44589199">
        <ele>569.00000</ele>
        <time>2024-05-10T19:54:11Z</time>
      </trkpt>
      <trkpt lat="42.93218599" lon="13.44587791">
        <ele>568.00000</ele>
        <time>2024-05-10T19:54:11Z</time>
      </trkpt>
      <trkpt lat="42.93216395" lon="13.44587196">
        <ele>568.00000</ele>
        <time>2024-05-10T19:54:12Z</time>
      </trkpt>
      <trkpt lat="42.93214593" lon="13.44586299">
        <ele>567.00000</ele>
        <time>2024-05-10T19:54:12Z</time>
      </trkpt>
      <trkpt lat="42.93212992" lon="13.44585495">
        <ele>567.00000</ele>
        <time>2024-05-10T19:54:12Z</time>
      </trkpt>
      <trkpt lat="42.93211491" lon="13.44584497">
        <ele>566.00000</ele>
        <time>2024-05-10T19:54:13Z</time>
      </trkpt>
      <trkpt lat="42.93210293" lon="13.44583399">
        <ele>566.00000</ele>
        <time>2024-05-10T19:54:13Z</time>
      </trkpt>
      <trkpt lat="42.93208893" lon="13.44583198">
        <ele>565.00000</ele>
        <time>2024-05-10T19:54:13Z</time>
      </trkpt>
      <trkpt lat="42.93207493" lon="13.44583692">
        <ele>566.00000</ele>
        <time>2024-05-10T19:54:14Z</time>
      </trkpt>
      <trkpt lat="42.93206093" lon="13.44583097">
        <ele>565.00000</ele>
        <time>2024-05-10T19:54:14Z</time>
      </trkpt>
      <trkpt lat="42.93204593" lon="13.44581999">
        <ele>565.00000</ele>
        <time>2024-05-10T19:54:14Z</time>
      </trkpt>
      <trkpt lat="42.93203193" lon="13.44581195">
        <ele>564.00000</ele>
        <time>2024-05-10T19:54:14Z</time>
      </trkpt>
      <trkpt lat="42.93201492" lon="13.44580692">
        <ele>564.00000</ele>
        <time>2024-05-10T19:54:15Z</time>
      </trkpt>
      <trkpt lat="42.93199799" lon="13.44580591">
        <ele>564.00000</ele>
        <time>2024-05-10T19:54:15Z</time>
      </trkpt>
      <trkpt lat="42.93198198" lon="13.44580398">
        <ele>564.00000</ele>
        <time>2024-05-10T19:54:15Z</time>
      </trkpt>
      <trkpt lat="42.93196395" lon="13.44580499">
        <ele>564.00000</ele>
        <time>2024-05-10T19:54:16Z</time>
      </trkpt>
      <trkpt lat="42.93194694" lon="13.44580893">
        <ele>564.00000</ele>
        <time>2024-05-10T19:54:16Z</time>
      </trkpt>
      <trkpt lat="42.93192397" lon="13.44582192">
        <ele>565.00000</ele>
        <time>2024-05-10T19:54:17Z</time>
      </trkpt>
      <trkpt lat="42.93190796" lon="13.44582997">
        <ele>565.00000</ele>
        <time>2024-05-10T19:54:17Z</time>
      </trkpt>
      <trkpt lat="42.93188198" lon="13.44584195">
        <ele>565.00000</ele>
        <time>2024-05-10T19:54:18Z</time>
      </trkpt>
      <trkpt lat="42.93186094" lon="13.44585495">
        <ele>565.00000</ele>
        <time>2024-05-10T19:54:18Z</time>
      </trkpt>
      <trkpt lat="42.93184191" lon="13.44587397">
        <ele>566.00000</ele>
        <time>2024-05-10T19:54:19Z</time>
      </trkpt>
      <trkpt lat="42.93182398" lon="13.44588998">
        <ele>567.00000</ele>
        <time>2024-05-10T19:54:19Z</time>
      </trkpt>
      <trkpt lat="42.93180495" lon="13.44590499">
        <ele>567.00000</ele>
        <time>2024-05-10T19:54:19Z</time>
      </trkpt>
      <trkpt lat="42.93178894" lon="13.44591798">
        <ele>567.00000</ele>
        <time>2024-05-10T19:54:20Z</time>
      </trkpt>
      <trkpt lat="42.93177494" lon="13.44593198">
        <ele>568.00000</ele>
        <time>2024-05-10T19:54:20Z</time>
      </trkpt>
      <trkpt lat="42.93176296" lon="13.44595695">
        <ele>569.00000</ele>
        <time>2024-05-10T19:54:21Z</time>
      </trkpt>
      <trkpt lat="42.93174594" lon="13.44596492">
        <ele>569.00000</ele>
        <time>2024-05-10T19:54:21Z</time>
      </trkpt>
      <trkpt lat="42.93172691" lon="13.44598093">
        <ele>569.00000</ele>
        <time>2024-05-10T19:54:21Z</time>
      </trkpt>
      <trkpt lat="42.93170596" lon="13.44599199">
        <ele>569.00000</ele>
        <time>2024-05-10T19:54:22Z</time>
      </trkpt>
      <trkpt lat="42.93168894" lon="13.44600792">
        <ele>570.00000</ele>
        <time>2024-05-10T19:54:22Z</time>
      </trkpt>
      <trkpt lat="42.93167394" lon="13.44602292">
        <ele>570.00000</ele>
        <time>2024-05-10T19:54:23Z</time>
      </trkpt>
      <trkpt lat="42.93165693" lon="13.44602996">
        <ele>570.00000</ele>
        <time>2024-05-10T19:54:23Z</time>
      </trkpt>
      <trkpt lat="42.93163698" lon="13.44603692">
        <ele>570.00000</ele>
        <time>2024-05-10T19:54:23Z</time>
      </trkpt>
      <trkpt lat="42.93161594" lon="13.44604094">
        <ele>570.00000</ele>
        <time>2024-05-10T19:54:24Z</time>
      </trkpt>
      <trkpt lat="42.93159599" lon="13.44604195">
        <ele>570.00000</ele>
        <time>2024-05-10T19:54:24Z</time>
      </trkpt>
      <trkpt lat="42.93156799" lon="13.44604295">
        <ele>570.00000</ele>
        <time>2024-05-10T19:54:25Z</time>
      </trkpt>
      <trkpt lat="42.93154394" lon="13.44603893">
        <ele>569.00000</ele>
        <time>2024-05-10T19:54:25Z</time>
      </trkpt>
      <trkpt lat="42.93151795" lon="13.44603499">
        <ele>569.00000</ele>
        <time>2024-05-10T19:54:26Z</time>
      </trkpt>
      <trkpt lat="42.93149893" lon="13.44602996">
        <ele>569.00000</ele>
        <time>2024-05-10T19:54:26Z</time>
      </trkpt>
      <trkpt lat="42.93148191" lon="13.44602996">
        <ele>568.00000</ele>
        <time>2024-05-10T19:54:26Z</time>
      </trkpt>
      <trkpt lat="42.93146397" lon="13.44603097">
        <ele>568.00000</ele>
        <time>2024-05-10T19:54:27Z</time>
      </trkpt>
      <trkpt lat="42.93144696" lon="13.44603298">
        <ele>568.00000</ele>
        <time>2024-05-10T19:54:27Z</time>
      </trkpt>
      <trkpt lat="42.93142894" lon="13.44603398">
        <ele>568.00000</ele>
        <time>2024-05-10T19:54:28Z</time>
      </trkpt>
      <trkpt lat="42.93140597" lon="13.44604798">
        <ele>569.00000</ele>
        <time>2024-05-10T19:54:28Z</time>
      </trkpt>
      <trkpt lat="42.93138192" lon="13.44606491">
        <ele>569.00000</ele>
        <time>2024-05-10T19:54:29Z</time>
      </trkpt>
      <trkpt lat="42.93136297" lon="13.44608394">
        <ele>570.00000</ele>
        <time>2024-05-10T19:54:29Z</time>
      </trkpt>
      <trkpt lat="42.93134193" lon="13.44610196">
        <ele>571.00000</ele>
        <time>2024-05-10T19:54:30Z</time>
      </trkpt>
      <trkpt lat="42.93131997" lon="13.44611898">
        <ele>572.00000</ele>
        <time>2024-05-10T19:54:30Z</time>
      </trkpt>
      <trkpt lat="42.93129994" lon="13.44612996">
        <ele>572.00000</ele>
        <time>2024-05-10T19:54:30Z</time>
      </trkpt>
      <trkpt lat="42.93127697" lon="13.44613892">
        <ele>573.00000</ele>
        <time>2024-05-10T19:54:31Z</time>
      </trkpt>
      <trkpt lat="42.93125191" lon="13.44615192">
        <ele>573.00000</ele>
        <time>2024-05-10T19:54:31Z</time>
      </trkpt>
      <trkpt lat="42.93123297" lon="13.44616793">
        <ele>574.00000</ele>
        <time>2024-05-10T19:54:32Z</time>
      </trkpt>
      <trkpt lat="42.93121495" lon="13.44618293">
        <ele>574.00000</ele>
        <time>2024-05-10T19:54:32Z</time>
      </trkpt>
      <trkpt lat="42.93119492" lon="13.44619793">
        <ele>575.00000</ele>
        <time>2024-05-10T19:54:33Z</time>
      </trkpt>
      <trkpt lat="42.93117798" lon="13.44621193">
        <ele>575.00000</ele>
        <time>2024-05-10T19:54:33Z</time>
      </trkpt>
      <trkpt lat="42.93115594" lon="13.44621998">
        <ele>575.00000</ele>
        <time>2024-05-10T19:54:34Z</time>
      </trkpt>
      <trkpt lat="42.93113398" lon="13.44622895">
        <ele>576.00000</ele>
        <time>2024-05-10T19:54:34Z</time>
      </trkpt>
      <trkpt lat="42.93111696" lon="13.44624194">
        <ele>576.00000</ele>
        <time>2024-05-10T19:54:34Z</time>
      </trkpt>
      <trkpt lat="42.93109894" lon="13.44625594">
        <ele>577.00000</ele>
        <time>2024-05-10T19:54:35Z</time>
      </trkpt>
      <trkpt lat="42.93107992" lon="13.44627295">
        <ele>577.00000</ele>
        <time>2024-05-10T19:54:35Z</time>
      </trkpt>
      <trkpt lat="42.93106198" lon="13.44628594">
        <ele>577.00000</ele>
        <time>2024-05-10T19:54:36Z</time>
      </trkpt>
      <trkpt lat="42.93104999" lon="13.44630296">
        <ele>578.00000</ele>
        <time>2024-05-10T19:54:36Z</time>
      </trkpt>
      <trkpt lat="42.93103692" lon="13.44631494">
        <ele>578.00000</ele>
        <time>2024-05-10T19:54:36Z</time>
      </trkpt>
      <trkpt lat="42.93101898" lon="13.44632592">
        <ele>578.00000</ele>
        <time>2024-05-10T19:54:37Z</time>
      </trkpt>
      <trkpt lat="42.93099794" lon="13.44633799">
        <ele>579.00000</ele>
        <time>2024-05-10T19:54:37Z</time>
      </trkpt>
      <trkpt lat="42.93097992" lon="13.44636096">
        <ele>579.00000</ele>
        <time>2024-05-10T19:54:38Z</time>
      </trkpt>
      <trkpt lat="42.93095796" lon="13.44637798">
        <ele>579.00000</ele>
        <time>2024-05-10T19:54:38Z</time>
      </trkpt>
      <trkpt lat="42.93094094" lon="13.44639692">
        <ele>580.00000</ele>
        <time>2024-05-10T19:54:39Z</time>
      </trkpt>
      <trkpt lat="42.93092393" lon="13.44640991">
        <ele>580.00000</ele>
        <time>2024-05-10T19:54:39Z</time>
      </trkpt>
      <trkpt lat="42.93090892" lon="13.44642098">
        <ele>580.00000</ele>
        <time>2024-05-10T19:54:39Z</time>
      </trkpt>
      <trkpt lat="42.93089593" lon="13.44643196">
        <ele>580.00000</ele>
        <time>2024-05-10T19:54:40Z</time>
      </trkpt>
      <trkpt lat="42.93088093" lon="13.44644294">
        <ele>581.00000</ele>
        <time>2024-05-10T19:54:40Z</time>
      </trkpt>
      <trkpt lat="42.93085997" lon="13.44645492">
        <ele>581.00000</ele>
        <time>2024-05-10T19:54:41Z</time>
      </trkpt>
      <trkpt lat="42.93084195" lon="13.44646993">
        <ele>581.00000</ele>
        <time>2024-05-10T19:54:41Z</time>
      </trkpt>
      <trkpt lat="42.93082494" lon="13.44648392">
        <ele>581.00000</ele>
        <time>2024-05-10T19:54:41Z</time>
      </trkpt>
      <trkpt lat="42.93080499" lon="13.44649298">
        <ele>581.00000</ele>
        <time>2024-05-10T19:54:42Z</time>
      </trkpt>
      <trkpt lat="42.93078496" lon="13.44650496">
        <ele>581.00000</ele>
        <time>2024-05-10T19:54:42Z</time>
      </trkpt>
      <trkpt lat="42.93076492" lon="13.44651594">
        <ele>581.00000</ele>
        <time>2024-05-10T19:54:43Z</time>
      </trkpt>
      <trkpt lat="42.93074497" lon="13.44653195">
        <ele>581.00000</ele>
        <time>2024-05-10T19:54:43Z</time>
      </trkpt>
      <trkpt lat="42.93072394" lon="13.44653991">
        <ele>581.00000</ele>
        <time>2024-05-10T19:54:44Z</time>
      </trkpt>
      <trkpt lat="42.93070298" lon="13.44654897">
        <ele>581.00000</ele>
        <time>2024-05-10T19:54:44Z</time>
      </trkpt>
      <trkpt lat="42.93067792" lon="13.44655794">
        <ele>581.00000</ele>
        <time>2024-05-10T19:54:45Z</time>
      </trkpt>
      <trkpt lat="42.93065797" lon="13.44656095">
        <ele>580.00000</ele>
        <time>2024-05-10T19:54:45Z</time>
      </trkpt>
      <trkpt lat="42.93063199" lon="13.44657093">
        <ele>580.00000</ele>
        <time>2024-05-10T19:54:45Z</time>
      </trkpt>
      <trkpt lat="42.93060994" lon="13.44657897">
        <ele>580.00000</ele>
        <time>2024-05-10T19:54:46Z</time>
      </trkpt>
      <trkpt lat="42.93058396" lon="13.44658895">
        <ele>580.00000</ele>
        <time>2024-05-10T19:54:46Z</time>
      </trkpt>
      <trkpt lat="42.93056191" lon="13.44659398">
        <ele>580.00000</ele>
        <time>2024-05-10T19:54:47Z</time>
      </trkpt>
      <trkpt lat="42.93054398" lon="13.44659599">
        <ele>580.00000</ele>
        <time>2024-05-10T19:54:47Z</time>
      </trkpt>
      <trkpt lat="42.93051992" lon="13.44660194">
        <ele>580.00000</ele>
        <time>2024-05-10T19:54:48Z</time>
      </trkpt>
      <trkpt lat="42.93049695" lon="13.44660496">
        <ele>580.00000</ele>
        <time>2024-05-10T19:54:48Z</time>
      </trkpt>
      <trkpt lat="42.93047592" lon="13.44660596">
        <ele>580.00000</ele>
        <time>2024-05-10T19:54:49Z</time>
      </trkpt>
      <trkpt lat="42.93045798" lon="13.44660596">
        <ele>581.00000</ele>
        <time>2024-05-10T19:54:49Z</time>
      </trkpt>
      <trkpt lat="42.93043493" lon="13.44661493">
        <ele>581.00000</ele>
        <time>2024-05-10T19:54:49Z</time>
      </trkpt>
      <trkpt lat="42.93041196" lon="13.44662499">
        <ele>581.00000</ele>
        <time>2024-05-10T19:54:50Z</time>
      </trkpt>
      <trkpt lat="42.93038992" lon="13.44662994">
        <ele>582.00000</ele>
        <time>2024-05-10T19:54:50Z</time>
      </trkpt>
      <trkpt lat="42.93036796" lon="13.44663396">
        <ele>582.00000</ele>
        <time>2024-05-10T19:54:51Z</time>
      </trkpt>
      <trkpt lat="42.93035195" lon="13.44663698">
        <ele>582.00000</ele>
        <time>2024-05-10T19:54:51Z</time>
      </trkpt>
      <trkpt lat="42.93033393" lon="13.44663597">
        <ele>582.00000</ele>
        <time>2024-05-10T19:54:52Z</time>
      </trkpt>
      <trkpt lat="42.93031993" lon="13.44663497">
        <ele>582.00000</ele>
        <time>2024-05-10T19:54:52Z</time>
      </trkpt>
      <trkpt lat="42.93029596" lon="13.44663497">
        <ele>583.00000</ele>
        <time>2024-05-10T19:54:52Z</time>
      </trkpt>
      <trkpt lat="42.93026997" lon="13.44663195">
        <ele>583.00000</ele>
        <time>2024-05-10T19:54:53Z</time>
      </trkpt>
      <trkpt lat="42.93024198" lon="13.44662893">
        <ele>583.00000</ele>
        <time>2024-05-10T19:54:53Z</time>
      </trkpt>
      <trkpt lat="42.93021499" lon="13.44662792">
        <ele>583.00000</ele>
        <time>2024-05-10T19:54:54Z</time>
      </trkpt>
      <trkpt lat="42.93019093" lon="13.44662994">
        <ele>584.00000</ele>
        <time>2024-05-10T19:54:54Z</time>
      </trkpt>
      <trkpt lat="42.93017199" lon="13.44662893">
        <ele>584.00000</ele>
        <time>2024-05-10T19:54:55Z</time>
      </trkpt>
      <trkpt lat="42.93015497" lon="13.44662298">
        <ele>584.00000</ele>
        <time>2024-05-10T19:54:55Z</time>
      </trkpt>
      <trkpt lat="42.93013896" lon="13.44661192">
        <ele>584.00000</ele>
        <time>2024-05-10T19:54:55Z</time>
      </trkpt>
      <trkpt lat="42.93011692" lon="13.44659498">
        <ele>584.00000</ele>
        <time>2024-05-10T19:54:56Z</time>
      </trkpt>
      <trkpt lat="42.93008892" lon="13.44657696">
        <ele>584.00000</ele>
        <time>2024-05-10T19:54:57Z</time>
      </trkpt>
      <trkpt lat="42.93005892" lon="13.44655391">
        <ele>585.00000</ele>
        <time>2024-05-10T19:54:57Z</time>
      </trkpt>
      <trkpt lat="42.93002296" lon="13.44652994">
        <ele>585.00000</ele>
        <time>2024-05-10T19:54:58Z</time>
      </trkpt>
      <trkpt lat="42.92998096" lon="13.44651091">
        <ele>585.00000</ele>
        <time>2024-05-10T19:54:59Z</time>
      </trkpt>
      <trkpt lat="42.92993394" lon="13.44648493">
        <ele>585.00000</ele>
        <time>2024-05-10T19:55:00Z</time>
      </trkpt>
      <trkpt lat="42.92988792" lon="13.44645299">
        <ele>585.00000</ele>
        <time>2024-05-10T19:55:01Z</time>
      </trkpt>
      <trkpt lat="42.92983998" lon="13.44642399">
        <ele>586.00000</ele>
        <time>2024-05-10T19:55:02Z</time>
      </trkpt>
      <trkpt lat="42.92978793" lon="13.44639399">
        <ele>586.00000</ele>
        <time>2024-05-10T19:55:03Z</time>
      </trkpt>
      <trkpt lat="42.92973194" lon="13.44636993">
        <ele>587.00000</ele>
        <time>2024-05-10T19:55:04Z</time>
      </trkpt>
      <trkpt lat="42.92967293" lon="13.44635392">
        <ele>587.00000</ele>
        <time>2024-05-10T19:55:06Z</time>
      </trkpt>
      <trkpt lat="42.92961895" lon="13.44634193">
        <ele>588.00000</ele>
        <time>2024-05-10T19:55:07Z</time>
      </trkpt>
      <trkpt lat="42.92956598" lon="13.44632995">
        <ele>588.00000</ele>
        <time>2024-05-10T19:55:08Z</time>
      </trkpt>
      <trkpt lat="42.92951099" lon="13.44631696">
        <ele>589.00000</ele>
        <time>2024-05-10T19:55:09Z</time>
      </trkpt>
      <trkpt lat="42.92945793" lon="13.44630992">
        <ele>590.00000</ele>
        <time>2024-05-10T19:55:10Z</time>
      </trkpt>
      <trkpt lat="42.92940999" lon="13.44630497">
        <ele>590.00000</ele>
        <time>2024-05-10T19:55:11Z</time>
      </trkpt>
      <trkpt lat="42.92936992" lon="13.44629994">
        <ele>590.00000</ele>
        <time>2024-05-10T19:55:12Z</time>
      </trkpt>
      <trkpt lat="42.92933598" lon="13.44629592">
        <ele>589.00000</ele>
        <time>2024-05-10T19:55:12Z</time>
      </trkpt>
      <trkpt lat="42.92929993" lon="13.44628795">
        <ele>589.00000</ele>
        <time>2024-05-10T19:55:13Z</time>
      </trkpt>
      <trkpt lat="42.92925995" lon="13.44628091">
        <ele>589.00000</ele>
        <time>2024-05-10T19:55:14Z</time>
      </trkpt>
      <trkpt lat="42.92922299" lon="13.44626792">
        <ele>589.00000</ele>
        <time>2024-05-10T19:55:15Z</time>
      </trkpt>
      <trkpt lat="42.92918896" lon="13.44625292">
        <ele>589.00000</ele>
        <time>2024-05-10T19:55:15Z</time>
      </trkpt>
      <trkpt lat="42.92915794" lon="13.44623599">
        <ele>589.00000</ele>
        <time>2024-05-10T19:55:16Z</time>
      </trkpt>
      <trkpt lat="42.92912794" lon="13.44622291">
        <ele>588.00000</ele>
        <time>2024-05-10T19:55:17Z</time>
      </trkpt>
      <trkpt lat="42.92910095" lon="13.44620891">
        <ele>588.00000</ele>
        <time>2024-05-10T19:55:17Z</time>
      </trkpt>
      <trkpt lat="42.92907195" lon="13.44619492">
        <ele>587.00000</ele>
        <time>2024-05-10T19:55:18Z</time>
      </trkpt>
      <trkpt lat="42.92904999" lon="13.44617991">
        <ele>587.00000</ele>
        <time>2024-05-10T19:55:18Z</time>
      </trkpt>
      <trkpt lat="42.92902392" lon="13.44616499">
        <ele>587.00000</ele>
        <time>2024-05-10T19:55:19Z</time>
      </trkpt>
      <trkpt lat="42.92899592" lon="13.44615192">
        <ele>586.00000</ele>
        <time>2024-05-10T19:55:20Z</time>
      </trkpt>
      <trkpt lat="42.92896994" lon="13.44613297">
        <ele>586.00000</ele>
        <time>2024-05-10T19:55:20Z</time>
      </trkpt>
      <trkpt lat="42.92894597" lon="13.44611093">
        <ele>585.00000</ele>
        <time>2024-05-10T19:55:21Z</time>
      </trkpt>
      <trkpt lat="42.92892199" lon="13.44608595">
        <ele>585.00000</ele>
        <time>2024-05-10T19:55:21Z</time>
      </trkpt>
      <trkpt lat="42.92890297" lon="13.44605896">
        <ele>585.00000</ele>
        <time>2024-05-10T19:55:22Z</time>
      </trkpt>
      <trkpt lat="42.92888394" lon="13.44602493">
        <ele>586.00000</ele>
        <time>2024-05-10T19:55:22Z</time>
      </trkpt>
      <trkpt lat="42.92887195" lon="13.44599291">
        <ele>586.00000</ele>
        <time>2024-05-10T19:55:23Z</time>
      </trkpt>
      <trkpt lat="42.92886097" lon="13.44595997">
        <ele>587.00000</ele>
        <time>2024-05-10T19:55:24Z</time>
      </trkpt>
      <trkpt lat="42.92884999" lon="13.44592091">
        <ele>587.00000</ele>
        <time>2024-05-10T19:55:24Z</time>
      </trkpt>
      <trkpt lat="42.92884094" lon="13.44587699">
        <ele>588.00000</ele>
        <time>2024-05-10T19:55:25Z</time>
      </trkpt>
      <trkpt lat="42.92883591" lon="13.44583399">
        <ele>589.00000</ele>
        <time>2024-05-10T19:55:25Z</time>
      </trkpt>
      <trkpt lat="42.92883398" lon="13.44579292">
        <ele>590.00000</ele>
        <time>2024-05-10T19:55:26Z</time>
      </trkpt>
      <trkpt lat="42.92883197" lon="13.44574699">
        <ele>591.00000</ele>
        <time>2024-05-10T19:55:27Z</time>
      </trkpt>
      <trkpt lat="42.92883792" lon="13.44570592">
        <ele>592.00000</ele>
        <time>2024-05-10T19:55:27Z</time>
      </trkpt>
      <trkpt lat="42.92884597" lon="13.44566099">
        <ele>593.00000</ele>
        <time>2024-05-10T19:55:28Z</time>
      </trkpt>
      <trkpt lat="42.92885494" lon="13.44561799">
        <ele>594.00000</ele>
        <time>2024-05-10T19:55:29Z</time>
      </trkpt>
      <trkpt lat="42.92886894" lon="13.44557994">
        <ele>595.00000</ele>
        <time>2024-05-10T19:55:29Z</time>
      </trkpt>
      <trkpt lat="42.92888595" lon="13.44554498">
        <ele>597.00000</ele>
        <time>2024-05-10T19:55:30Z</time>
      </trkpt>
      <trkpt lat="42.92890096" lon="13.44550492">
        <ele>598.00000</ele>
        <time>2024-05-10T19:55:31Z</time>
      </trkpt>
      <trkpt lat="42.92891093" lon="13.44547499">
        <ele>598.00000</ele>
        <time>2024-05-10T19:55:31Z</time>
      </trkpt>
      <trkpt lat="42.92891998" lon="13.44543996">
        <ele>599.00000</ele>
        <time>2024-05-10T19:55:32Z</time>
      </trkpt>
      <trkpt lat="42.92892199" lon="13.44539998">
        <ele>600.00000</ele>
        <time>2024-05-10T19:55:32Z</time>
      </trkpt>
      <trkpt lat="42.92891898" lon="13.44535597">
        <ele>601.00000</ele>
        <time>2024-05-10T19:55:33Z</time>
      </trkpt>
      <trkpt lat="42.92891294" lon="13.44531498">
        <ele>601.00000</ele>
        <time>2024-05-10T19:55:33Z</time>
      </trkpt>
      <trkpt lat="42.92890297" lon="13.44527592">
        <ele>602.00000</ele>
        <time>2024-05-10T19:55:34Z</time>
      </trkpt>
      <trkpt lat="42.92888796" lon="13.44524097">
        <ele>602.00000</ele>
        <time>2024-05-10T19:55:35Z</time>
      </trkpt>
      <trkpt lat="42.92886793" lon="13.44521197">
        <ele>602.00000</ele>
        <time>2024-05-10T19:55:35Z</time>
      </trkpt>
      <trkpt lat="42.92884597" lon="13.44518096">
        <ele>602.00000</ele>
        <time>2024-05-10T19:55:36Z</time>
      </trkpt>
      <trkpt lat="42.92881999" lon="13.44515598">
        <ele>602.00000</ele>
        <time>2024-05-10T19:55:36Z</time>
      </trkpt>
      <trkpt lat="42.92879392" lon="13.44513695">
        <ele>601.00000</ele>
        <time>2024-05-10T19:55:37Z</time>
      </trkpt>
      <trkpt lat="42.92876198" lon="13.44512396">
        <ele>601.00000</ele>
        <time>2024-05-10T19:55:38Z</time>
      </trkpt>
      <trkpt lat="42.92872192" lon="13.44511893">
        <ele>600.00000</ele>
        <time>2024-05-10T19:55:39Z</time>
      </trkpt>
      <trkpt lat="42.92868395" lon="13.44511994">
        <ele>599.00000</ele>
        <time>2024-05-10T19:55:39Z</time>
      </trkpt>
      <trkpt lat="42.92864497" lon="13.44512396">
        <ele>597.00000</ele>
        <time>2024-05-10T19:55:40Z</time>
      </trkpt>
      <trkpt lat="42.92861195" lon="13.44513494">
        <ele>596.00000</ele>
        <time>2024-05-10T19:55:41Z</time>
      </trkpt>
      <trkpt lat="42.92857792" lon="13.44514793">
        <ele>595.00000</ele>
        <time>2024-05-10T19:55:41Z</time>
      </trkpt>
      <trkpt lat="42.92854598" lon="13.44515992">
        <ele>594.00000</ele>
        <time>2024-05-10T19:55:42Z</time>
      </trkpt>
      <trkpt lat="42.92851296" lon="13.44517299">
        <ele>592.00000</ele>
        <time>2024-05-10T19:55:43Z</time>
      </trkpt>
      <trkpt lat="42.92848295" lon="13.44518599">
        <ele>591.00000</ele>
        <time>2024-05-10T19:55:43Z</time>
      </trkpt>
      <trkpt lat="42.92845093" lon="13.44519395">
        <ele>590.00000</ele>
        <time>2024-05-10T19:55:44Z</time>
      </trkpt>
      <trkpt lat="42.92841397" lon="13.44518599">
        <ele>589.00000</ele>
        <time>2024-05-10T19:55:45Z</time>
      </trkpt>
      <trkpt lat="42.92838195" lon="13.44517199">
        <ele>589.00000</ele>
        <time>2024-05-10T19:55:46Z</time>
      </trkpt>
      <trkpt lat="42.92835496" lon="13.44514793">
        <ele>588.00000</ele>
        <time>2024-05-10T19:55:46Z</time>
      </trkpt>
      <trkpt lat="42.92833099" lon="13.44511994">
        <ele>588.00000</ele>
        <time>2024-05-10T19:55:47Z</time>
      </trkpt>
      <trkpt lat="42.92830794" lon="13.44508691">
        <ele>588.00000</ele>
        <time>2024-05-10T19:55:47Z</time>
      </trkpt>
      <trkpt lat="42.92828992" lon="13.44504794">
        <ele>589.00000</ele>
        <time>2024-05-10T19:55:48Z</time>
      </trkpt>
      <trkpt lat="42.92827399" lon="13.44500695">
        <ele>589.00000</ele>
        <time>2024-05-10T19:55:49Z</time>
      </trkpt>
      <trkpt lat="42.92825496" lon="13.44496395">
        <ele>589.00000</ele>
        <time>2024-05-10T19:55:50Z</time>
      </trkpt>
      <trkpt lat="42.92823694" lon="13.44492397">
        <ele>590.00000</ele>
        <time>2024-05-10T19:55:50Z</time>
      </trkpt>
      <trkpt lat="42.92821791" lon="13.44488298">
        <ele>590.00000</ele>
        <time>2024-05-10T19:55:51Z</time>
      </trkpt>
      <trkpt lat="42.92820199" lon="13.44484099">
        <ele>591.00000</ele>
        <time>2024-05-10T19:55:52Z</time>
      </trkpt>
      <trkpt lat="42.92819193" lon="13.44479195">
        <ele>592.00000</ele>
        <time>2024-05-10T19:55:52Z</time>
      </trkpt>
      <trkpt lat="42.92818598" lon="13.44473395">
        <ele>593.00000</ele>
        <time>2024-05-10T19:55:53Z</time>
      </trkpt>
      <trkpt lat="42.92818095" lon="13.44466798">
        <ele>595.00000</ele>
        <time>2024-05-10T19:55:54Z</time>
      </trkpt>
      <trkpt lat="42.92817693" lon="13.44460193">
        <ele>597.00000</ele>
        <time>2024-05-10T19:55:55Z</time>
      </trkpt>
      <trkpt lat="42.92816394" lon="13.44453195">
        <ele>599.00000</ele>
        <time>2024-05-10T19:55:56Z</time>
      </trkpt>
      <trkpt lat="42.92814499" lon="13.44446296">
        <ele>601.00000</ele>
        <time>2024-05-10T19:55:57Z</time>
      </trkpt>
      <trkpt lat="42.92811691" lon="13.44439398">
        <ele>602.00000</ele>
        <time>2024-05-10T19:55:59Z</time>
      </trkpt>
      <trkpt lat="42.92807995" lon="13.44433992">
        <ele>603.00000</ele>
        <time>2024-05-10T19:56:00Z</time>
      </trkpt>
      <trkpt lat="42.92802999" lon="13.44430295">
        <ele>602.00000</ele>
        <time>2024-05-10T19:56:01Z</time>
      </trkpt>
      <trkpt lat="42.92797895" lon="13.44427898">
        <ele>601.00000</ele>
        <time>2024-05-10T19:56:02Z</time>
      </trkpt>
      <trkpt lat="42.92792195" lon="13.44426096">
        <ele>599.00000</ele>
        <time>2024-05-10T19:56:03Z</time>
      </trkpt>
      <trkpt lat="42.92786093" lon="13.44425995">
        <ele>596.00000</ele>
        <time>2024-05-10T19:56:04Z</time>
      </trkpt>
      <trkpt lat="42.92779396" lon="13.44426792">
        <ele>593.00000</ele>
        <time>2024-05-10T19:56:06Z</time>
      </trkpt>
      <trkpt lat="42.92773394" lon="13.44426993">
        <ele>591.00000</ele>
        <time>2024-05-10T19:56:07Z</time>
      </trkpt>
      <trkpt lat="42.92767091" lon="13.44424394">
        <ele>590.00000</ele>
        <time>2024-05-10T19:56:08Z</time>
      </trkpt>
      <trkpt lat="42.92761894" lon="13.44419399">
        <ele>589.00000</ele>
        <time>2024-05-10T19:56:09Z</time>
      </trkpt>
      <trkpt lat="42.92756899" lon="13.44412593">
        <ele>588.00000</ele>
        <time>2024-05-10T19:56:11Z</time>
      </trkpt>
      <trkpt lat="42.92751794" lon="13.44405292">
        <ele>587.00000</ele>
        <time>2024-05-10T19:56:12Z</time>
      </trkpt>
      <trkpt lat="42.92748492" lon="13.44397799">
        <ele>586.00000</ele>
        <time>2024-05-10T19:56:14Z</time>
      </trkpt>
      <trkpt lat="42.92746899" lon="13.44388595">
        <ele>587.00000</ele>
        <time>2024-05-10T19:56:15Z</time>
      </trkpt>
      <trkpt lat="42.92746991" lon="13.44379099">
        <ele>587.00000</ele>
        <time>2024-05-10T19:56:16Z</time>
      </trkpt>
      <trkpt lat="42.92747897" lon="13.44370792">
        <ele>588.00000</ele>
        <time>2024-05-10T19:56:18Z</time>
      </trkpt>
      <trkpt lat="42.92750596" lon="13.44364296">
        <ele>590.00000</ele>
        <time>2024-05-10T19:56:19Z</time>
      </trkpt>
      <trkpt lat="42.92753596" lon="13.44357993">
        <ele>591.00000</ele>
        <time>2024-05-10T19:56:20Z</time>
      </trkpt>
      <trkpt lat="42.92757092" lon="13.44352696">
        <ele>593.00000</ele>
        <time>2024-05-10T19:56:21Z</time>
      </trkpt>
      <trkpt lat="42.92760293" lon="13.44348094">
        <ele>595.00000</ele>
        <time>2024-05-10T19:56:22Z</time>
      </trkpt>
      <trkpt lat="42.92763495" lon="13.44343995">
        <ele>597.00000</ele>
        <time>2024-05-10T19:56:23Z</time>
      </trkpt>
      <trkpt lat="42.92766597" lon="13.44340492">
        <ele>598.00000</ele>
        <time>2024-05-10T19:56:23Z</time>
      </trkpt>
      <trkpt lat="42.92769296" lon="13.44335697">
        <ele>600.00000</ele>
        <time>2024-05-10T19:56:24Z</time>
      </trkpt>
      <trkpt lat="42.92771693" lon="13.44331196">
        <ele>601.00000</ele>
        <time>2024-05-10T19:56:25Z</time>
      </trkpt>
      <trkpt lat="42.92771693" lon="13.44325496">
        <ele>601.00000</ele>
        <time>2024-05-10T19:56:26Z</time>
      </trkpt>
      <trkpt lat="42.92770595" lon="13.44319897">
        <ele>601.00000</ele>
        <time>2024-05-10T19:56:27Z</time>
      </trkpt>
      <trkpt lat="42.92767091" lon="13.44315195">
        <ele>599.00000</ele>
        <time>2024-05-10T19:56:28Z</time>
      </trkpt>
      <trkpt lat="42.92762992" lon="13.44312496">
        <ele>598.00000</ele>
        <time>2024-05-10T19:56:29Z</time>
      </trkpt>
      <trkpt lat="42.92758692" lon="13.44310593">
        <ele>596.00000</ele>
        <time>2024-05-10T19:56:30Z</time>
      </trkpt>
      <trkpt lat="42.92754895" lon="13.44309093">
        <ele>595.00000</ele>
        <time>2024-05-10T19:56:30Z</time>
      </trkpt>
      <trkpt lat="42.92751895" lon="13.44307894">
        <ele>594.00000</ele>
        <time>2024-05-10T19:56:31Z</time>
      </trkpt>
      <trkpt lat="42.92748995" lon="13.44305799">
        <ele>593.00000</ele>
        <time>2024-05-10T19:56:32Z</time>
      </trkpt>
      <trkpt lat="42.92746094" lon="13.44302698">
        <ele>593.00000</ele>
        <time>2024-05-10T19:56:32Z</time>
      </trkpt>
      <trkpt lat="42.92743798" lon="13.44299093">
        <ele>593.00000</ele>
        <time>2024-05-10T19:56:33Z</time>
      </trkpt>
      <trkpt lat="42.92742197" lon="13.44294198">
        <ele>593.00000</ele>
        <time>2024-05-10T19:56:34Z</time>
      </trkpt>
      <trkpt lat="42.92741199" lon="13.44288499">
        <ele>593.00000</ele>
        <time>2024-05-10T19:56:35Z</time>
      </trkpt>
      <trkpt lat="42.92740697" lon="13.44282497">
        <ele>593.00000</ele>
        <time>2024-05-10T19:56:36Z</time>
      </trkpt>
      <trkpt lat="42.92740596" lon="13.44276999">
        <ele>594.00000</ele>
        <time>2024-05-10T19:56:36Z</time>
      </trkpt>
      <trkpt lat="42.92739992" lon="13.44271894">
        <ele>594.00000</ele>
        <time>2024-05-10T19:56:37Z</time>
      </trkpt>
      <trkpt lat="42.92738894" lon="13.44267091">
        <ele>594.00000</ele>
        <time>2024-05-10T19:56:38Z</time>
      </trkpt>
      <trkpt lat="42.92737897" lon="13.44261693">
        <ele>593.00000</ele>
        <time>2024-05-10T19:56:39Z</time>
      </trkpt>
      <trkpt lat="42.92737293" lon="13.44256698">
        <ele>593.00000</ele>
        <time>2024-05-10T19:56:39Z</time>
      </trkpt>
      <trkpt lat="42.92736891" lon="13.44252297">
        <ele>593.00000</ele>
        <time>2024-05-10T19:56:40Z</time>
      </trkpt>
      <trkpt lat="42.92736799" lon="13.44248299">
        <ele>593.00000</ele>
        <time>2024-05-10T19:56:41Z</time>
      </trkpt>
      <trkpt lat="42.92737193" lon="13.44243999">
        <ele>593.00000</ele>
        <time>2024-05-10T19:56:41Z</time>
      </trkpt>
      <trkpt lat="42.92738098" lon="13.44240797">
        <ele>594.00000</ele>
        <time>2024-05-10T19:56:42Z</time>
      </trkpt>
      <trkpt lat="42.92738894" lon="13.44237092">
        <ele>594.00000</ele>
        <time>2024-05-10T19:56:42Z</time>
      </trkpt>
      <trkpt lat="42.92739096" lon="13.44232893">
        <ele>594.00000</ele>
        <time>2024-05-10T19:56:43Z</time>
      </trkpt>
      <trkpt lat="42.92739599" lon="13.44228593">
        <ele>594.00000</ele>
        <time>2024-05-10T19:56:44Z</time>
      </trkpt>
      <trkpt lat="42.92739791" lon="13.44223899">
        <ele>594.00000</ele>
        <time>2024-05-10T19:56:44Z</time>
      </trkpt>
      <trkpt lat="42.92740194" lon="13.44218594">
        <ele>595.00000</ele>
        <time>2024-05-10T19:56:45Z</time>
      </trkpt>
      <trkpt lat="42.92740797" lon="13.44213296">
        <ele>595.00000</ele>
        <time>2024-05-10T19:56:46Z</time>
      </trkpt>
      <trkpt lat="42.92741099" lon="13.44207697">
        <ele>596.00000</ele>
        <time>2024-05-10T19:56:47Z</time>
      </trkpt>
      <trkpt lat="42.92740998" lon="13.44202391">
        <ele>596.00000</ele>
        <time>2024-05-10T19:56:48Z</time>
      </trkpt>
      <trkpt lat="42.92740697" lon="13.44197798">
        <ele>597.00000</ele>
        <time>2024-05-10T19:56:48Z</time>
      </trkpt>
      <trkpt lat="42.92740596" lon="13.44192098">
        <ele>597.00000</ele>
        <time>2024-05-10T19:56:49Z</time>
      </trkpt>
      <trkpt lat="42.92741199" lon="13.44185695">
        <ele>598.00000</ele>
        <time>2024-05-10T19:56:50Z</time>
      </trkpt>
      <trkpt lat="42.92741694" lon="13.44177698">
        <ele>598.00000</ele>
        <time>2024-05-10T19:56:51Z</time>
      </trkpt>
      <trkpt lat="42.92741099" lon="13.44169392">
        <ele>599.00000</ele>
        <time>2024-05-10T19:56:52Z</time>
      </trkpt>
      <trkpt lat="42.92740194" lon="13.44160893">
        <ele>599.00000</ele>
        <time>2024-05-10T19:56:54Z</time>
      </trkpt>
      <trkpt lat="42.92739498" lon="13.44152896">
        <ele>599.00000</ele>
        <time>2024-05-10T19:56:55Z</time>
      </trkpt>
      <trkpt lat="42.92737897" lon="13.44146492">
        <ele>599.00000</ele>
        <time>2024-05-10T19:56:56Z</time>
      </trkpt>
      <trkpt lat="42.92734997" lon="13.44140994">
        <ele>598.00000</ele>
        <time>2024-05-10T19:56:57Z</time>
      </trkpt>
      <trkpt lat="42.92730395" lon="13.44136199">
        <ele>597.00000</ele>
        <time>2024-05-10T19:56:58Z</time>
      </trkpt>
      <trkpt lat="42.92725299" lon="13.44136199">
        <ele>596.00000</ele>
        <time>2024-05-10T19:56:59Z</time>
      </trkpt>
      <trkpt lat="42.92720496" lon="13.44138597">
        <ele>595.00000</ele>
        <time>2024-05-10T19:57:00Z</time>
      </trkpt>
      <trkpt lat="42.92717093" lon="13.44143592">
        <ele>595.00000</ele>
        <time>2024-05-10T19:57:01Z</time>
      </trkpt>
      <trkpt lat="42.92714897" lon="13.44149191">
        <ele>595.00000</ele>
        <time>2024-05-10T19:57:02Z</time>
      </trkpt>
      <trkpt lat="42.92713698" lon="13.44154899">
        <ele>595.00000</ele>
        <time>2024-05-10T19:57:03Z</time>
      </trkpt>
      <trkpt lat="42.92712894" lon="13.44159392">
        <ele>595.00000</ele>
        <time>2024-05-10T19:57:04Z</time>
      </trkpt>
      <trkpt lat="42.92712793" lon="13.44164497">
        <ele>595.00000</ele>
        <time>2024-05-10T19:57:04Z</time>
      </trkpt>
      <trkpt lat="42.92711494" lon="13.44168797">
        <ele>595.00000</ele>
        <time>2024-05-10T19:57:05Z</time>
      </trkpt>
      <trkpt lat="42.92709399" lon="13.44173792">
        <ele>595.00000</ele>
        <time>2024-05-10T19:57:06Z</time>
      </trkpt>
      <trkpt lat="42.92706197" lon="13.44178193">
        <ele>595.00000</ele>
        <time>2024-05-10T19:57:07Z</time>
      </trkpt>
      <trkpt lat="42.92702391" lon="13.44181898">
        <ele>595.00000</ele>
        <time>2024-05-10T19:57:08Z</time>
      </trkpt>
      <trkpt lat="42.92697999" lon="13.44185493">
        <ele>595.00000</ele>
        <time>2024-05-10T19:57:09Z</time>
      </trkpt>
      <trkpt lat="42.92693498" lon="13.44187991">
        <ele>597.00000</ele>
        <time>2024-05-10T19:57:10Z</time>
      </trkpt>
      <trkpt lat="42.92688494" lon="13.44190598">
        <ele>599.00000</ele>
        <time>2024-05-10T19:57:11Z</time>
      </trkpt>
      <trkpt lat="42.92683398" lon="13.44193699">
        <ele>602.00000</ele>
        <time>2024-05-10T19:57:12Z</time>
      </trkpt>
      <trkpt lat="42.92679098" lon="13.44198091">
        <ele>603.00000</ele>
        <time>2024-05-10T19:57:13Z</time>
      </trkpt>
      <trkpt lat="42.92675896" lon="13.44202794">
        <ele>604.00000</ele>
        <time>2024-05-10T19:57:14Z</time>
      </trkpt>
      <trkpt lat="42.92674496" lon="13.44207496">
        <ele>604.00000</ele>
        <time>2024-05-10T19:57:15Z</time>
      </trkpt>
      <trkpt lat="42.92673692" lon="13.44213095">
        <ele>603.00000</ele>
        <time>2024-05-10T19:57:15Z</time>
      </trkpt>
      <trkpt lat="42.92673599" lon="13.44219197">
        <ele>602.00000</ele>
        <time>2024-05-10T19:57:16Z</time>
      </trkpt>
      <trkpt lat="42.92674195" lon="13.44225391">
        <ele>600.00000</ele>
        <time>2024-05-10T19:57:17Z</time>
      </trkpt>
      <trkpt lat="42.92675192" lon="13.44231493">
        <ele>599.00000</ele>
        <time>2024-05-10T19:57:18Z</time>
      </trkpt>
      <trkpt lat="42.92676491" lon="13.44236992">
        <ele>598.00000</ele>
        <time>2024-05-10T19:57:19Z</time>
      </trkpt>
      <trkpt lat="42.92678092" lon="13.44243094">
        <ele>597.00000</ele>
        <time>2024-05-10T19:57:20Z</time>
      </trkpt>
      <trkpt lat="42.92679199" lon="13.44249992">
        <ele>595.00000</ele>
        <time>2024-05-10T19:57:21Z</time>
      </trkpt>
      <trkpt lat="42.92680095" lon="13.44256496">
        <ele>595.00000</ele>
        <time>2024-05-10T19:57:22Z</time>
      </trkpt>
      <trkpt lat="42.92680892" lon="13.44263294">
        <ele>595.00000</ele>
        <time>2024-05-10T19:57:23Z</time>
      </trkpt>
      <trkpt lat="42.92681797" lon="13.44271098">
        <ele>595.00000</ele>
        <time>2024-05-10T19:57:24Z</time>
      </trkpt>
      <trkpt lat="42.92681897" lon="13.44278499">
        <ele>595.00000</ele>
        <time>2024-05-10T19:57:25Z</time>
      </trkpt>
      <trkpt lat="42.92681596" lon="13.44285598">
        <ele>595.00000</ele>
        <time>2024-05-10T19:57:26Z</time>
      </trkpt>
      <trkpt lat="42.92680892" lon="13.44293494">
        <ele>595.00000</ele>
        <time>2024-05-10T19:57:27Z</time>
      </trkpt>
      <trkpt lat="42.92679894" lon="13.44303091">
        <ele>594.00000</ele>
        <time>2024-05-10T19:57:29Z</time>
      </trkpt>
      <trkpt lat="42.92678696" lon="13.44313594">
        <ele>592.00000</ele>
        <time>2024-05-10T19:57:30Z</time>
      </trkpt>
      <trkpt lat="42.92678494" lon="13.44324298">
        <ele>590.00000</ele>
        <time>2024-05-10T19:57:32Z</time>
      </trkpt>
      <trkpt lat="42.92678595" lon="13.44332898">
        <ele>587.00000</ele>
        <time>2024-05-10T19:57:33Z</time>
      </trkpt>
      <trkpt lat="42.92677497" lon="13.44341799">
        <ele>585.00000</ele>
        <time>2024-05-10T19:57:35Z</time>
      </trkpt>
      <trkpt lat="42.92675594" lon="13.44349594">
        <ele>584.00000</ele>
        <time>2024-05-10T19:57:36Z</time>
      </trkpt>
      <trkpt lat="42.92670791" lon="13.44355093">
        <ele>584.00000</ele>
        <time>2024-05-10T19:57:37Z</time>
      </trkpt>
      <trkpt lat="42.92664396" lon="13.44357993">
        <ele>584.00000</ele>
        <time>2024-05-10T19:57:38Z</time>
      </trkpt>
      <trkpt lat="42.92656794" lon="13.44359192">
        <ele>587.00000</ele>
        <time>2024-05-10T19:57:40Z</time>
      </trkpt>
      <trkpt lat="42.92650893" lon="13.44359996">
        <ele>589.00000</ele>
        <time>2024-05-10T19:57:41Z</time>
      </trkpt>
      <trkpt lat="42.92644799" lon="13.44362695">
        <ele>592.00000</ele>
        <time>2024-05-10T19:57:42Z</time>
      </trkpt>
      <trkpt lat="42.92641296" lon="13.44369392">
        <ele>593.00000</ele>
        <time>2024-05-10T19:57:44Z</time>
      </trkpt>
      <trkpt lat="42.92638798" lon="13.44378093">
        <ele>593.00000</ele>
        <time>2024-05-10T19:57:45Z</time>
      </trkpt>
      <trkpt lat="42.92638898" lon="13.44385393">
        <ele>593.00000</ele>
        <time>2024-05-10T19:57:46Z</time>
      </trkpt>
      <trkpt lat="42.92640793" lon="13.44389593">
        <ele>592.00000</ele>
        <time>2024-05-10T19:57:47Z</time>
      </trkpt>
      <trkpt lat="42.92642796" lon="13.44391596">
        <ele>591.00000</ele>
        <time>2024-05-10T19:57:47Z</time>
      </trkpt>
      <trkpt lat="42.92644598" lon="13.44394295">
        <ele>591.00000</ele>
        <time>2024-05-10T19:57:48Z</time>
      </trkpt>
      <trkpt lat="42.92645495" lon="13.44397296">
        <ele>590.00000</ele>
        <time>2024-05-10T19:57:48Z</time>
      </trkpt>
      <trkpt lat="42.92646492" lon="13.44399995">
        <ele>590.00000</ele>
        <time>2024-05-10T19:57:49Z</time>
      </trkpt>
      <trkpt lat="42.92647792" lon="13.44402392">
        <ele>590.00000</ele>
        <time>2024-05-10T19:57:49Z</time>
      </trkpt>
      <trkpt lat="42.92649292" lon="13.44404496">
        <ele>589.00000</ele>
        <time>2024-05-10T19:57:50Z</time>
      </trkpt>
      <trkpt lat="42.92650599" lon="13.44406398">
        <ele>589.00000</ele>
        <time>2024-05-10T19:57:50Z</time>
      </trkpt>
      <trkpt lat="42.92651798" lon="13.44408293">
        <ele>588.00000</ele>
        <time>2024-05-10T19:57:50Z</time>
      </trkpt>
      <trkpt lat="42.92652896" lon="13.44410195">
        <ele>588.00000</ele>
        <time>2024-05-10T19:57:51Z</time>
      </trkpt>
      <trkpt lat="42.92653994" lon="13.44412894">
        <ele>588.00000</ele>
        <time>2024-05-10T19:57:51Z</time>
      </trkpt>
      <trkpt lat="42.92654992" lon="13.44414998">
        <ele>587.00000</ele>
        <time>2024-05-10T19:57:52Z</time>
      </trkpt>
      <trkpt lat="42.92655897" lon="13.44417597">
        <ele>587.00000</ele>
        <time>2024-05-10T19:57:52Z</time>
      </trkpt>
      <trkpt lat="42.92656391" lon="13.44419994">
        <ele>587.00000</ele>
        <time>2024-05-10T19:57:52Z</time>
      </trkpt>
      <trkpt lat="42.92656693" lon="13.44422592">
        <ele>586.00000</ele>
        <time>2024-05-10T19:57:53Z</time>
      </trkpt>
      <trkpt lat="42.92656299" lon="13.44426398">
        <ele>586.00000</ele>
        <time>2024-05-10T19:57:53Z</time>
      </trkpt>
      <trkpt lat="42.92656492" lon="13.44429591">
        <ele>586.00000</ele>
        <time>2024-05-10T19:57:54Z</time>
      </trkpt>
      <trkpt lat="42.92656693" lon="13.44432592">
        <ele>586.00000</ele>
        <time>2024-05-10T19:57:54Z</time>
      </trkpt>
      <trkpt lat="42.92656492" lon="13.44435693">
        <ele>586.00000</ele>
        <time>2024-05-10T19:57:55Z</time>
      </trkpt>
      <trkpt lat="42.92656299" lon="13.44438493">
        <ele>586.00000</ele>
        <time>2024-05-10T19:57:55Z</time>
      </trkpt>
      <trkpt lat="42.92656492" lon="13.44440999">
        <ele>586.00000</ele>
        <time>2024-05-10T19:57:55Z</time>
      </trkpt>
      <trkpt lat="42.92656995" lon="13.44443597">
        <ele>586.00000</ele>
        <time>2024-05-10T19:57:56Z</time>
      </trkpt>
      <trkpt lat="42.92656693" lon="13.44446598">
        <ele>586.00000</ele>
        <time>2024-05-10T19:57:56Z</time>
      </trkpt>
      <trkpt lat="42.92656098" lon="13.44449699">
        <ele>586.00000</ele>
        <time>2024-05-10T19:57:57Z</time>
      </trkpt>
      <trkpt lat="42.92655997" lon="13.44452398">
        <ele>587.00000</ele>
        <time>2024-05-10T19:57:57Z</time>
      </trkpt>
      <trkpt lat="42.92655897" lon="13.44455097">
        <ele>587.00000</ele>
        <time>2024-05-10T19:57:58Z</time>
      </trkpt>
      <trkpt lat="42.92655696" lon="13.44457796">
        <ele>587.00000</ele>
        <time>2024-05-10T19:57:58Z</time>
      </trkpt>
      <trkpt lat="42.92655293" lon="13.44460093">
        <ele>587.00000</ele>
        <time>2024-05-10T19:57:58Z</time>
      </trkpt>
      <trkpt lat="42.92653994" lon="13.44462993">
        <ele>588.00000</ele>
        <time>2024-05-10T19:57:59Z</time>
      </trkpt>
      <trkpt lat="42.92652997" lon="13.44465692">
        <ele>589.00000</ele>
        <time>2024-05-10T19:57:59Z</time>
      </trkpt>
      <trkpt lat="42.92651798" lon="13.44468399">
        <ele>590.00000</ele>
        <time>2024-05-10T19:58:00Z</time>
      </trkpt>
      <trkpt lat="42.92650197" lon="13.44470394">
        <ele>590.00000</ele>
        <time>2024-05-10T19:58:00Z</time>
      </trkpt>
      <trkpt lat="42.92648596" lon="13.44472498">
        <ele>591.00000</ele>
        <time>2024-05-10T19:58:01Z</time>
      </trkpt>
      <trkpt lat="42.92646593" lon="13.44474191">
        <ele>592.00000</ele>
        <time>2024-05-10T19:58:01Z</time>
      </trkpt>
      <trkpt lat="42.92644891" lon="13.44476496">
        <ele>593.00000</ele>
        <time>2024-05-10T19:58:01Z</time>
      </trkpt>
      <trkpt lat="42.92643198" lon="13.44477896">
        <ele>594.00000</ele>
        <time>2024-05-10T19:58:02Z</time>
      </trkpt>
      <trkpt lat="42.92641899" lon="13.44479497">
        <ele>594.00000</ele>
        <time>2024-05-10T19:58:02Z</time>
      </trkpt>
      <trkpt lat="42.92640994" lon="13.44481492">
        <ele>595.00000</ele>
        <time>2024-05-10T19:58:03Z</time>
      </trkpt>
      <trkpt lat="42.92640399" lon="13.44483395">
        <ele>595.00000</ele>
        <time>2024-05-10T19:58:03Z</time>
      </trkpt>
      <trkpt lat="42.92640499" lon="13.44485498">
        <ele>595.00000</ele>
        <time>2024-05-10T19:58:03Z</time>
      </trkpt>
      <trkpt lat="42.92640692" lon="13.44487493">
        <ele>595.00000</ele>
        <time>2024-05-10T19:58:03Z</time>
      </trkpt>
      <trkpt lat="42.92641094" lon="13.44490092">
        <ele>595.00000</ele>
        <time>2024-05-10T19:58:04Z</time>
      </trkpt>
      <trkpt lat="42.92640893" lon="13.44492598">
        <ele>595.00000</ele>
        <time>2024-05-10T19:58:04Z</time>
      </trkpt>
      <trkpt lat="42.92641094" lon="13.44493696">
        <ele>595.00000</ele>
        <time>2024-05-10T19:58:04Z</time>
      </trkpt>
      <trkpt lat="42.92642092" lon="13.44495397">
        <ele>594.00000</ele>
        <time>2024-05-10T19:58:05Z</time>
      </trkpt>
      <trkpt lat="42.92643592" lon="13.44497191">
        <ele>594.00000</ele>
        <time>2024-05-10T19:58:05Z</time>
      </trkpt>
      <trkpt lat="42.92644699" lon="13.44498993">
        <ele>593.00000</ele>
        <time>2024-05-10T19:58:05Z</time>
      </trkpt>
      <trkpt lat="42.92645998" lon="13.44500594">
        <ele>593.00000</ele>
        <time>2024-05-10T19:58:06Z</time>
      </trkpt>
      <trkpt lat="42.92647498" lon="13.44502195">
        <ele>593.00000</ele>
        <time>2024-05-10T19:58:06Z</time>
      </trkpt>
      <trkpt lat="42.92648999" lon="13.44504098">
        <ele>592.00000</ele>
        <time>2024-05-10T19:58:07Z</time>
      </trkpt>
      <trkpt lat="42.92650197" lon="13.44505498">
        <ele>592.00000</ele>
        <time>2024-05-10T19:58:07Z</time>
      </trkpt>
      <trkpt lat="42.92651496" lon="13.44507099">
        <ele>592.00000</ele>
        <time>2024-05-10T19:58:07Z</time>
      </trkpt>
      <trkpt lat="42.92652293" lon="13.44508993">
        <ele>592.00000</ele>
        <time>2024-05-10T19:58:08Z</time>
      </trkpt>
      <trkpt lat="42.92653198" lon="13.44510694">
        <ele>592.00000</ele>
        <time>2024-05-10T19:58:08Z</time>
      </trkpt>
      <trkpt lat="42.92654497" lon="13.44512396">
        <ele>592.00000</ele>
        <time>2024-05-10T19:58:08Z</time>
      </trkpt>
      <trkpt lat="42.92655293" lon="13.44514299">
        <ele>592.00000</ele>
        <time>2024-05-10T19:58:09Z</time>
      </trkpt>
      <trkpt lat="42.92656391" lon="13.44516294">
        <ele>592.00000</ele>
        <time>2024-05-10T19:58:09Z</time>
      </trkpt>
      <trkpt lat="42.92656995" lon="13.44518096">
        <ele>592.00000</ele>
        <time>2024-05-10T19:58:09Z</time>
      </trkpt>
      <trkpt lat="42.92658495" lon="13.44520493">
        <ele>592.00000</ele>
        <time>2024-05-10T19:58:10Z</time>
      </trkpt>
      <trkpt lat="42.92659493" lon="13.44523494">
        <ele>593.00000</ele>
        <time>2024-05-10T19:58:10Z</time>
      </trkpt>
      <trkpt lat="42.92660398" lon="13.44525991">
        <ele>593.00000</ele>
        <time>2024-05-10T19:58:11Z</time>
      </trkpt>
      <trkpt lat="42.92660599" lon="13.44528892">
        <ele>593.00000</ele>
        <time>2024-05-10T19:58:11Z</time>
      </trkpt>
      <trkpt lat="42.92661194" lon="13.44532999">
        <ele>594.00000</ele>
        <time>2024-05-10T19:58:12Z</time>
      </trkpt>
      <trkpt lat="42.92661295" lon="13.44536393">
        <ele>595.00000</ele>
        <time>2024-05-10T19:58:12Z</time>
      </trkpt>
      <trkpt lat="42.92661597" lon="13.44539394">
        <ele>596.00000</ele>
        <time>2024-05-10T19:58:13Z</time>
      </trkpt>
      <trkpt lat="42.92662292" lon="13.44542495">
        <ele>596.00000</ele>
        <time>2024-05-10T19:58:13Z</time>
      </trkpt>
      <trkpt lat="42.92662996" lon="13.44545597">
        <ele>597.00000</ele>
        <time>2024-05-10T19:58:14Z</time>
      </trkpt>
      <trkpt lat="42.92663893" lon="13.44548597">
        <ele>598.00000</ele>
        <time>2024-05-10T19:58:14Z</time>
      </trkpt>
      <trkpt lat="42.92665293" lon="13.44550894">
        <ele>598.00000</ele>
        <time>2024-05-10T19:58:14Z</time>
      </trkpt>
      <trkpt lat="42.92666693" lon="13.44553099">
        <ele>598.00000</ele>
        <time>2024-05-10T19:58:15Z</time>
      </trkpt>
      <trkpt lat="42.92668294" lon="13.44555797">
        <ele>598.00000</ele>
        <time>2024-05-10T19:58:15Z</time>
      </trkpt>
      <trkpt lat="42.92669593" lon="13.44558295">
        <ele>598.00000</ele>
        <time>2024-05-10T19:58:16Z</time>
      </trkpt>
      <trkpt lat="42.92670892" lon="13.44560693">
        <ele>598.00000</ele>
        <time>2024-05-10T19:58:16Z</time>
      </trkpt>
      <trkpt lat="42.92672191" lon="13.44562897">
        <ele>598.00000</ele>
        <time>2024-05-10T19:58:17Z</time>
      </trkpt>
      <trkpt lat="42.92673692" lon="13.44565596">
        <ele>598.00000</ele>
        <time>2024-05-10T19:58:17Z</time>
      </trkpt>
      <trkpt lat="42.92675293" lon="13.44567792">
        <ele>598.00000</ele>
        <time>2024-05-10T19:58:18Z</time>
      </trkpt>
      <trkpt lat="42.92677296" lon="13.44569896">
        <ele>597.00000</ele>
        <time>2024-05-10T19:58:18Z</time>
      </trkpt>
      <trkpt lat="42.92679098" lon="13.44571597">
        <ele>597.00000</ele>
        <time>2024-05-10T19:58:19Z</time>
      </trkpt>
      <trkpt lat="42.92680498" lon="13.44574095">
        <ele>597.00000</ele>
        <time>2024-05-10T19:58:19Z</time>
      </trkpt>
      <trkpt lat="42.92682099" lon="13.44577498">
        <ele>597.00000</ele>
        <time>2024-05-10T19:58:20Z</time>
      </trkpt>
      <trkpt lat="42.92682694" lon="13.44580398">
        <ele>597.00000</ele>
        <time>2024-05-10T19:58:20Z</time>
      </trkpt>
      <trkpt lat="42.92682996" lon="13.44583399">
        <ele>597.00000</ele>
        <time>2024-05-10T19:58:21Z</time>
      </trkpt>
      <trkpt lat="42.92683096" lon="13.44586995">
        <ele>598.00000</ele>
        <time>2024-05-10T19:58:21Z</time>
      </trkpt>
      <trkpt lat="42.92682694" lon="13.44590893">
        <ele>599.00000</ele>
        <time>2024-05-10T19:58:22Z</time>
      </trkpt>
      <trkpt lat="42.92682493" lon="13.44594396">
        <ele>599.00000</ele>
        <time>2024-05-10T19:58:22Z</time>
      </trkpt>
      <trkpt lat="42.92682291" lon="13.44598797">
        <ele>600.00000</ele>
        <time>2024-05-10T19:58:23Z</time>
      </trkpt>
      <trkpt lat="42.92682099" lon="13.44603097">
        <ele>601.00000</ele>
        <time>2024-05-10T19:58:23Z</time>
      </trkpt>
      <trkpt lat="42.92681596" lon="13.44607195">
        <ele>602.00000</ele>
        <time>2024-05-10T19:58:24Z</time>
      </trkpt>
      <trkpt lat="42.92680992" lon="13.44611093">
        <ele>602.00000</ele>
        <time>2024-05-10T19:58:25Z</time>
      </trkpt>
      <trkpt lat="42.92680699" lon="13.44614697">
        <ele>603.00000</ele>
        <time>2024-05-10T19:58:25Z</time>
      </trkpt>
      <trkpt lat="42.92680992" lon="13.44617597">
        <ele>602.00000</ele>
        <time>2024-05-10T19:58:26Z</time>
      </trkpt>
      <trkpt lat="42.92681193" lon="13.44620992">
        <ele>603.00000</ele>
        <time>2024-05-10T19:58:26Z</time>
      </trkpt>
      <trkpt lat="42.92681395" lon="13.44625191">
        <ele>603.00000</ele>
        <time>2024-05-10T19:58:27Z</time>
      </trkpt>
      <trkpt lat="42.92682099" lon="13.44628393">
        <ele>602.00000</ele>
        <time>2024-05-10T19:58:27Z</time>
      </trkpt>
      <trkpt lat="42.92682493" lon="13.44631696">
        <ele>602.00000</ele>
        <time>2024-05-10T19:58:28Z</time>
      </trkpt>
      <trkpt lat="42.92683599" lon="13.44634395">
        <ele>602.00000</ele>
        <time>2024-05-10T19:58:28Z</time>
      </trkpt>
      <trkpt lat="42.92685099" lon="13.44637295">
        <ele>602.00000</ele>
        <time>2024-05-10T19:58:29Z</time>
      </trkpt>
      <trkpt lat="42.92686097" lon="13.44640195">
        <ele>601.00000</ele>
        <time>2024-05-10T19:58:29Z</time>
      </trkpt>
      <trkpt lat="42.92686793" lon="13.44643296">
        <ele>601.00000</ele>
        <time>2024-05-10T19:58:30Z</time>
      </trkpt>
      <trkpt lat="42.92687396" lon="13.44645995">
        <ele>601.00000</ele>
        <time>2024-05-10T19:58:30Z</time>
      </trkpt>
      <trkpt lat="42.92688293" lon="13.44648795">
        <ele>601.00000</ele>
        <time>2024-05-10T19:58:30Z</time>
      </trkpt>
      <trkpt lat="42.92689399" lon="13.44651192">
        <ele>600.00000</ele>
        <time>2024-05-10T19:58:31Z</time>
      </trkpt>
      <trkpt lat="42.92689693" lon="13.44653991">
        <ele>600.00000</ele>
        <time>2024-05-10T19:58:31Z</time>
      </trkpt>
      <trkpt lat="42.92690095" lon="13.44656699">
        <ele>600.00000</ele>
        <time>2024-05-10T19:58:32Z</time>
      </trkpt>
      <trkpt lat="42.92690698" lon="13.44659297">
        <ele>600.00000</ele>
        <time>2024-05-10T19:58:32Z</time>
      </trkpt>
      <trkpt lat="42.92691696" lon="13.44661896">
        <ele>600.00000</ele>
        <time>2024-05-10T19:58:33Z</time>
      </trkpt>
      <trkpt lat="42.92691998" lon="13.44665491">
        <ele>600.00000</ele>
        <time>2024-05-10T19:58:33Z</time>
      </trkpt>
      <trkpt lat="42.92692392" lon="13.44668794">
        <ele>600.00000</ele>
        <time>2024-05-10T19:58:34Z</time>
      </trkpt>
      <trkpt lat="42.92692392" lon="13.44671694">
        <ele>600.00000</ele>
        <time>2024-05-10T19:58:34Z</time>
      </trkpt>
      <trkpt lat="42.92691998" lon="13.44674192">
        <ele>600.00000</ele>
        <time>2024-05-10T19:58:34Z</time>
      </trkpt>
      <trkpt lat="42.92691998" lon="13.44676799">
        <ele>600.00000</ele>
        <time>2024-05-10T19:58:35Z</time>
      </trkpt>
      <trkpt lat="42.92691998" lon="13.44679699">
        <ele>600.00000</ele>
        <time>2024-05-10T19:58:35Z</time>
      </trkpt>
      <trkpt lat="42.92691998" lon="13.44682892">
        <ele>600.00000</ele>
        <time>2024-05-10T19:58:36Z</time>
      </trkpt>
      <trkpt lat="42.92692098" lon="13.44685792">
        <ele>600.00000</ele>
        <time>2024-05-10T19:58:36Z</time>
      </trkpt>
      <trkpt lat="42.92691797" lon="13.44689397">
        <ele>600.00000</ele>
        <time>2024-05-10T19:58:37Z</time>
      </trkpt>
      <trkpt lat="42.92691193" lon="13.44692699">
        <ele>600.00000</ele>
        <time>2024-05-10T19:58:37Z</time>
      </trkpt>
      <trkpt lat="42.92690598" lon="13.44696295">
        <ele>600.00000</ele>
        <time>2024-05-10T19:58:38Z</time>
      </trkpt>
      <trkpt lat="42.92689491" lon="13.44699396">
        <ele>600.00000</ele>
        <time>2024-05-10T19:58:38Z</time>
      </trkpt>
      <trkpt lat="42.92688393" lon="13.44701492">
        <ele>600.00000</ele>
        <time>2024-05-10T19:58:39Z</time>
      </trkpt>
      <trkpt lat="42.92687295" lon="13.44703998">
        <ele>600.00000</ele>
        <time>2024-05-10T19:58:39Z</time>
      </trkpt>
      <trkpt lat="42.92686298" lon="13.44706797">
        <ele>600.00000</ele>
        <time>2024-05-10T19:58:39Z</time>
      </trkpt>
      <trkpt lat="42.92684295" lon="13.44709597">
        <ele>600.00000</ele>
        <time>2024-05-10T19:58:40Z</time>
      </trkpt>
      <trkpt lat="42.92681797" lon="13.44711994">
        <ele>600.00000</ele>
        <time>2024-05-10T19:58:41Z</time>
      </trkpt>
      <trkpt lat="42.92677899" lon="13.44713696">
        <ele>599.00000</ele>
        <time>2024-05-10T19:58:41Z</time>
      </trkpt>
      <trkpt lat="42.92672694" lon="13.44714693">
        <ele>599.00000</ele>
        <time>2024-05-10T19:58:42Z</time>
      </trkpt>
      <trkpt lat="42.92666299" lon="13.44714593">
        <ele>599.00000</ele>
        <time>2024-05-10T19:58:44Z</time>
      </trkpt>
      <trkpt lat="42.92659099" lon="13.44713696">
        <ele>599.00000</ele>
        <time>2024-05-10T19:58:45Z</time>
      </trkpt>
      <trkpt lat="42.92650792" lon="13.44712195">
        <ele>599.00000</ele>
        <time>2024-05-10T19:58:47Z</time>
      </trkpt>
      <trkpt lat="42.92641296" lon="13.44710192">
        <ele>599.00000</ele>
        <time>2024-05-10T19:58:49Z</time>
      </trkpt>
      <trkpt lat="42.92630894" lon="13.44708591">
        <ele>598.00000</ele>
        <time>2024-05-10T19:58:51Z</time>
      </trkpt>
      <trkpt lat="42.92620592" lon="13.44706898">
        <ele>596.00000</ele>
        <time>2024-05-10T19:58:53Z</time>
      </trkpt>
      <trkpt lat="42.92610098" lon="13.44706295">
        <ele>595.00000</ele>
        <time>2024-05-10T19:58:55Z</time>
      </trkpt>
      <trkpt lat="42.92599797" lon="13.44705993">
        <ele>594.00000</ele>
        <time>2024-05-10T19:58:57Z</time>
      </trkpt>
      <trkpt lat="42.92589194" lon="13.44705197">
        <ele>594.00000</ele>
        <time>2024-05-10T19:58:59Z</time>
      </trkpt>
      <trkpt lat="42.92578892" lon="13.44703495">
        <ele>594.00000</ele>
        <time>2024-05-10T19:59:01Z</time>
      </trkpt>
      <trkpt lat="42.92569798" lon="13.44700193">
        <ele>596.00000</ele>
        <time>2024-05-10T19:59:03Z</time>
      </trkpt>
      <trkpt lat="42.92561491" lon="13.44695499">
        <ele>599.00000</ele>
        <time>2024-05-10T19:59:05Z</time>
      </trkpt>
      <trkpt lat="42.92553596" lon="13.44689891">
        <ele>602.00000</ele>
        <time>2024-05-10T19:59:07Z</time>
      </trkpt>
      <trkpt lat="42.92545398" lon="13.44686295">
        <ele>606.00000</ele>
        <time>2024-05-10T19:59:08Z</time>
      </trkpt>
      <trkpt lat="42.92537393" lon="13.44683999">
        <ele>610.00000</ele>
        <time>2024-05-10T19:59:10Z</time>
      </trkpt>
      <trkpt lat="42.92530093" lon="13.44682197">
        <ele>613.00000</ele>
        <time>2024-05-10T19:59:12Z</time>
      </trkpt>
      <trkpt lat="42.92523597" lon="13.44681099">
        <ele>615.00000</ele>
        <time>2024-05-10T19:59:13Z</time>
      </trkpt>
      <trkpt lat="42.92518492" lon="13.44681392">
        <ele>617.00000</ele>
        <time>2024-05-10T19:59:14Z</time>
      </trkpt>
      <trkpt lat="42.92514394" lon="13.44683093">
        <ele>618.00000</ele>
        <time>2024-05-10T19:59:15Z</time>
      </trkpt>
      <trkpt lat="42.92511896" lon="13.44686094">
        <ele>619.00000</ele>
        <time>2024-05-10T19:59:15Z</time>
      </trkpt>
      <trkpt lat="42.92510798" lon="13.44689799">
        <ele>618.00000</ele>
        <time>2024-05-10T19:59:16Z</time>
      </trkpt>
      <trkpt lat="42.92510395" lon="13.44693294">
        <ele>617.00000</ele>
        <time>2024-05-10T19:59:17Z</time>
      </trkpt>
      <trkpt lat="42.92509993" lon="13.44696798">
        <ele>616.00000</ele>
        <time>2024-05-10T19:59:17Z</time>
      </trkpt>
      <trkpt lat="42.92509892" lon="13.44699799">
        <ele>615.00000</ele>
        <time>2024-05-10T19:59:18Z</time>
      </trkpt>
      <trkpt lat="42.92509691" lon="13.44703294">
        <ele>614.00000</ele>
        <time>2024-05-10T19:59:18Z</time>
      </trkpt>
      <trkpt lat="42.92509691" lon="13.44706697">
        <ele>613.00000</ele>
        <time>2024-05-10T19:59:19Z</time>
      </trkpt>
      <trkpt lat="42.92509197" lon="13.44710796">
        <ele>612.00000</ele>
        <time>2024-05-10T19:59:19Z</time>
      </trkpt>
      <trkpt lat="42.92509197" lon="13.44714894">
        <ele>610.00000</ele>
        <time>2024-05-10T19:59:20Z</time>
      </trkpt>
      <trkpt lat="42.92509096" lon="13.44719094">
        <ele>609.00000</ele>
        <time>2024-05-10T19:59:20Z</time>
      </trkpt>
      <trkpt lat="42.92507998" lon="13.44724098">
        <ele>608.00000</ele>
        <time>2024-05-10T19:59:21Z</time>
      </trkpt>
      <trkpt lat="42.92506498" lon="13.44729295">
        <ele>607.00000</ele>
        <time>2024-05-10T19:59:22Z</time>
      </trkpt>
      <trkpt lat="42.92504897" lon="13.44734491">
        <ele>606.00000</ele>
        <time>2024-05-10T19:59:23Z</time>
      </trkpt>
      <trkpt lat="42.92503095" lon="13.44739596">
        <ele>606.00000</ele>
        <time>2024-05-10T19:59:24Z</time>
      </trkpt>
      <trkpt lat="42.92500899" lon="13.44744591">
        <ele>605.00000</ele>
        <time>2024-05-10T19:59:24Z</time>
      </trkpt>
      <trkpt lat="42.92498895" lon="13.44750593">
        <ele>604.00000</ele>
        <time>2024-05-10T19:59:25Z</time>
      </trkpt>
      <trkpt lat="42.92497999" lon="13.44756796">
        <ele>603.00000</ele>
        <time>2024-05-10T19:59:26Z</time>
      </trkpt>
      <trkpt lat="42.92498292" lon="13.44763099">
        <ele>601.00000</ele>
        <time>2024-05-10T19:59:27Z</time>
      </trkpt>
      <trkpt lat="42.92500094" lon="13.44769695">
        <ele>600.00000</ele>
        <time>2024-05-10T19:59:28Z</time>
      </trkpt>
      <trkpt lat="42.92501494" lon="13.44775898">
        <ele>598.00000</ele>
        <time>2024-05-10T19:59:29Z</time>
      </trkpt>
      <trkpt lat="42.92502491" lon="13.44782897">
        <ele>596.00000</ele>
        <time>2024-05-10T19:59:30Z</time>
      </trkpt>
      <trkpt lat="42.92501091" lon="13.44789996">
        <ele>595.00000</ele>
        <time>2024-05-10T19:59:31Z</time>
      </trkpt>
      <trkpt lat="42.92497194" lon="13.44794497">
        <ele>595.00000</ele>
        <time>2024-05-10T19:59:32Z</time>
      </trkpt>
      <trkpt lat="42.92492098" lon="13.44796693">
        <ele>594.00000</ele>
        <time>2024-05-10T19:59:34Z</time>
      </trkpt>
      <trkpt lat="42.92486297" lon="13.44797397">
        <ele>595.00000</ele>
        <time>2024-05-10T19:59:35Z</time>
      </trkpt>
      <trkpt lat="42.92480397" lon="13.44797196">
        <ele>595.00000</ele>
        <time>2024-05-10T19:59:36Z</time>
      </trkpt>
      <trkpt lat="42.92473096" lon="13.44796693">
        <ele>596.00000</ele>
        <time>2024-05-10T19:59:37Z</time>
      </trkpt>
      <trkpt lat="42.92465996" lon="13.44794497">
        <ele>596.00000</ele>
        <time>2024-05-10T19:59:39Z</time>
      </trkpt>
      <trkpt lat="42.92459199" lon="13.44790692">
        <ele>597.00000</ele>
        <time>2024-05-10T19:59:40Z</time>
      </trkpt>
      <trkpt lat="42.92452594" lon="13.44788194">
        <ele>598.00000</ele>
        <time>2024-05-10T19:59:42Z</time>
      </trkpt>
      <trkpt lat="42.92445293" lon="13.44787197">
        <ele>597.00000</ele>
        <time>2024-05-10T19:59:43Z</time>
      </trkpt>
      <trkpt lat="42.92439099" lon="13.44790097">
        <ele>596.00000</ele>
        <time>2024-05-10T19:59:44Z</time>
      </trkpt>
      <trkpt lat="42.92435193" lon="13.44795696">
        <ele>594.00000</ele>
        <time>2024-05-10T19:59:46Z</time>
      </trkpt>
      <trkpt lat="42.92432896" lon="13.44801999">
        <ele>593.00000</ele>
        <time>2024-05-10T19:59:47Z</time>
      </trkpt>
      <trkpt lat="42.92432494" lon="13.44809099">
        <ele>591.00000</ele>
        <time>2024-05-10T19:59:48Z</time>
      </trkpt>
      <trkpt lat="42.92432393" lon="13.44815896">
        <ele>590.00000</ele>
        <time>2024-05-10T19:59:49Z</time>
      </trkpt>
      <trkpt lat="42.92432695" lon="13.44823499">
        <ele>588.00000</ele>
        <time>2024-05-10T19:59:50Z</time>
      </trkpt>
      <trkpt lat="42.92431899" lon="13.44831294">
        <ele>587.00000</ele>
        <time>2024-05-10T19:59:51Z</time>
      </trkpt>
      <trkpt lat="42.92429393" lon="13.44837798">
        <ele>586.00000</ele>
        <time>2024-05-10T19:59:52Z</time>
      </trkpt>
      <trkpt lat="42.92424992" lon="13.44841796">
        <ele>586.00000</ele>
        <time>2024-05-10T19:59:53Z</time>
      </trkpt>
      <trkpt lat="42.92420198" lon="13.44842995">
        <ele>586.00000</ele>
        <time>2024-05-10T19:59:54Z</time>
      </trkpt>
      <trkpt lat="42.92415395" lon="13.44842693">
        <ele>587.00000</ele>
        <time>2024-05-10T19:59:55Z</time>
      </trkpt>
      <trkpt lat="42.92410894" lon="13.44841495">
        <ele>587.00000</ele>
        <time>2024-05-10T19:59:56Z</time>
      </trkpt>
      <trkpt lat="42.92406896" lon="13.44838997">
        <ele>587.00000</ele>
        <time>2024-05-10T19:59:57Z</time>
      </trkpt>
      <trkpt lat="42.92402897" lon="13.44835896">
        <ele>588.00000</ele>
        <time>2024-05-10T19:59:58Z</time>
      </trkpt>
      <trkpt lat="42.92398698" lon="13.44832492">
        <ele>588.00000</ele>
        <time>2024-05-10T19:59:59Z</time>
      </trkpt>
      <trkpt lat="42.92394599" lon="13.44828293">
        <ele>589.00000</ele>
        <time>2024-05-10T20:00:00Z</time>
      </trkpt>
      <trkpt lat="42.92390098" lon="13.44824597">
        <ele>590.00000</ele>
        <time>2024-05-10T20:00:01Z</time>
      </trkpt>
      <trkpt lat="42.92384692" lon="13.44821294">
        <ele>591.00000</ele>
        <time>2024-05-10T20:00:02Z</time>
      </trkpt>
      <trkpt lat="42.92379294" lon="13.44818193">
        <ele>592.00000</ele>
        <time>2024-05-10T20:00:03Z</time>
      </trkpt>
      <trkpt lat="42.92374793" lon="13.44814497">
        <ele>593.00000</ele>
        <time>2024-05-10T20:00:04Z</time>
      </trkpt>
      <trkpt lat="42.92370996" lon="13.44809593">
        <ele>594.00000</ele>
        <time>2024-05-10T20:00:05Z</time>
      </trkpt>
      <trkpt lat="42.92367693" lon="13.44803499">
        <ele>596.00000</ele>
        <time>2024-05-10T20:00:06Z</time>
      </trkpt>
      <trkpt lat="42.92363796" lon="13.44797599">
        <ele>598.00000</ele>
        <time>2024-05-10T20:00:07Z</time>
      </trkpt>
      <trkpt lat="42.92358691" lon="13.44792896">
        <ele>599.00000</ele>
        <time>2024-05-10T20:00:09Z</time>
      </trkpt>
      <trkpt lat="42.92353092" lon="13.44789099">
        <ele>600.00000</ele>
        <time>2024-05-10T20:00:10Z</time>
      </trkpt>
      <trkpt lat="42.92347292" lon="13.44787297">
        <ele>601.00000</ele>
        <time>2024-05-10T20:00:11Z</time>
      </trkpt>
      <trkpt lat="42.92341492" lon="13.44786493">
        <ele>602.00000</ele>
        <time>2024-05-10T20:00:12Z</time>
      </trkpt>
      <trkpt lat="42.92335297" lon="13.44786794">
        <ele>603.00000</ele>
        <time>2024-05-10T20:00:14Z</time>
      </trkpt>
      <trkpt lat="42.92329698" lon="13.44788395">
        <ele>604.00000</ele>
        <time>2024-05-10T20:00:15Z</time>
      </trkpt>
      <trkpt lat="42.92324493" lon="13.44792595">
        <ele>605.00000</ele>
        <time>2024-05-10T20:00:16Z</time>
      </trkpt>
      <trkpt lat="42.92321593" lon="13.44797892">
        <ele>605.00000</ele>
        <time>2024-05-10T20:00:17Z</time>
      </trkpt>
      <trkpt lat="42.92320596" lon="13.44803298">
        <ele>605.00000</ele>
        <time>2024-05-10T20:00:18Z</time>
      </trkpt>
      <trkpt lat="42.92320193" lon="13.44808495">
        <ele>604.00000</ele>
        <time>2024-05-10T20:00:18Z</time>
      </trkpt>
      <trkpt lat="42.92319196" lon="13.44812694">
        <ele>604.00000</ele>
        <time>2024-05-10T20:00:19Z</time>
      </trkpt>
      <trkpt lat="42.92318995" lon="13.44816491">
        <ele>603.00000</ele>
        <time>2024-05-10T20:00:20Z</time>
      </trkpt>
      <trkpt lat="42.92319196" lon="13.44819894">
        <ele>603.00000</ele>
        <time>2024-05-10T20:00:20Z</time>
      </trkpt>
      <trkpt lat="42.92319699" lon="13.44823599">
        <ele>602.00000</ele>
        <time>2024-05-10T20:00:21Z</time>
      </trkpt>
      <trkpt lat="42.92319598" lon="13.44826298">
        <ele>601.00000</ele>
        <time>2024-05-10T20:00:21Z</time>
      </trkpt>
      <trkpt lat="42.92320193" lon="13.44828394">
        <ele>601.00000</ele>
        <time>2024-05-10T20:00:21Z</time>
      </trkpt>
      <trkpt lat="42.92320897" lon="13.44831394">
        <ele>600.00000</ele>
        <time>2024-05-10T20:00:22Z</time>
      </trkpt>
      <trkpt lat="42.92321199" lon="13.44834697">
        <ele>600.00000</ele>
        <time>2024-05-10T20:00:22Z</time>
      </trkpt>
      <trkpt lat="42.92321895" lon="13.44837496">
        <ele>600.00000</ele>
        <time>2024-05-10T20:00:23Z</time>
      </trkpt>
      <trkpt lat="42.92322599" lon="13.44840195">
        <ele>599.00000</ele>
        <time>2024-05-10T20:00:23Z</time>
      </trkpt>
      <trkpt lat="42.92323395" lon="13.44842794">
        <ele>599.00000</ele>
        <time>2024-05-10T20:00:24Z</time>
      </trkpt>
      <trkpt lat="42.92324493" lon="13.44845392">
        <ele>598.00000</ele>
        <time>2024-05-10T20:00:24Z</time>
      </trkpt>
      <trkpt lat="42.92325398" lon="13.44847697">
        <ele>598.00000</ele>
        <time>2024-05-10T20:00:24Z</time>
      </trkpt>
      <trkpt lat="42.92326295" lon="13.44849692">
        <ele>598.00000</ele>
        <time>2024-05-10T20:00:25Z</time>
      </trkpt>
      <trkpt lat="42.92327393" lon="13.44851193">
        <ele>597.00000</ele>
        <time>2024-05-10T20:00:25Z</time>
      </trkpt>
      <trkpt lat="42.92328399" lon="13.44853296">
        <ele>597.00000</ele>
        <time>2024-05-10T20:00:25Z</time>
      </trkpt>
      <trkpt lat="42.92329296" lon="13.44855694">
        <ele>597.00000</ele>
        <time>2024-05-10T20:00:26Z</time>
      </trkpt>
      <trkpt lat="42.92329799" lon="13.44858191">
        <ele>596.00000</ele>
        <time>2024-05-10T20:00:26Z</time>
      </trkpt>
      <trkpt lat="42.92330394" lon="13.44860195">
        <ele>596.00000</ele>
        <time>2024-05-10T20:00:27Z</time>
      </trkpt>
      <trkpt lat="42.92330796" lon="13.44863296">
        <ele>596.00000</ele>
        <time>2024-05-10T20:00:27Z</time>
      </trkpt>
      <trkpt lat="42.92330193" lon="13.44866297">
        <ele>596.00000</ele>
        <time>2024-05-10T20:00:27Z</time>
      </trkpt>
      <trkpt lat="42.92328894" lon="13.44868996">
        <ele>596.00000</ele>
        <time>2024-05-10T20:00:28Z</time>
      </trkpt>
      <trkpt lat="42.92327293" lon="13.44871292">
        <ele>596.00000</ele>
        <time>2024-05-10T20:00:28Z</time>
      </trkpt>
      <trkpt lat="42.92325398" lon="13.44873094">
        <ele>596.00000</ele>
        <time>2024-05-10T20:00:29Z</time>
      </trkpt>
      <trkpt lat="42.92323496" lon="13.44874494">
        <ele>596.00000</ele>
        <time>2024-05-10T20:00:29Z</time>
      </trkpt>
      <trkpt lat="42.92321492" lon="13.44875198">
        <ele>596.00000</ele>
        <time>2024-05-10T20:00:30Z</time>
      </trkpt>
      <trkpt lat="42.92319296" lon="13.44875995">
        <ele>597.00000</ele>
        <time>2024-05-10T20:00:30Z</time>
      </trkpt>
      <trkpt lat="42.92317092" lon="13.44875592">
        <ele>597.00000</ele>
        <time>2024-05-10T20:00:31Z</time>
      </trkpt>
      <trkpt lat="42.92315097" lon="13.44875198">
        <ele>597.00000</ele>
        <time>2024-05-10T20:00:31Z</time>
      </trkpt>
      <trkpt lat="42.92313094" lon="13.44874695">
        <ele>598.00000</ele>
        <time>2024-05-10T20:00:31Z</time>
      </trkpt>
      <trkpt lat="42.92311493" lon="13.44874192">
        <ele>598.00000</ele>
        <time>2024-05-10T20:00:32Z</time>
      </trkpt>
      <trkpt lat="42.92310093" lon="13.44873094">
        <ele>598.00000</ele>
        <time>2024-05-10T20:00:32Z</time>
      </trkpt>
      <trkpt lat="42.92308593" lon="13.44871493">
        <ele>599.00000</ele>
        <time>2024-05-10T20:00:32Z</time>
      </trkpt>
      <trkpt lat="42.92306598" lon="13.44870295">
        <ele>599.00000</ele>
        <time>2024-05-10T20:00:33Z</time>
      </trkpt>
      <trkpt lat="42.92304695" lon="13.44869993">
        <ele>600.00000</ele>
        <time>2024-05-10T20:00:33Z</time>
      </trkpt>
      <trkpt lat="42.92302792" lon="13.44869499">
        <ele>600.00000</ele>
        <time>2024-05-10T20:00:34Z</time>
      </trkpt>
      <trkpt lat="42.92301099" lon="13.44868996">
        <ele>600.00000</ele>
        <time>2024-05-10T20:00:34Z</time>
      </trkpt>
      <trkpt lat="42.92299398" lon="13.44868593">
        <ele>600.00000</ele>
        <time>2024-05-10T20:00:34Z</time>
      </trkpt>
      <trkpt lat="42.92298099" lon="13.44867395">
        <ele>601.00000</ele>
        <time>2024-05-10T20:00:35Z</time>
      </trkpt>
      <trkpt lat="42.92296498" lon="13.44866498">
        <ele>601.00000</ele>
        <time>2024-05-10T20:00:35Z</time>
      </trkpt>
      <trkpt lat="42.92294997" lon="13.44865693">
        <ele>601.00000</ele>
        <time>2024-05-10T20:00:35Z</time>
      </trkpt>
      <trkpt lat="42.92292793" lon="13.44864897">
        <ele>602.00000</ele>
        <time>2024-05-10T20:00:36Z</time>
      </trkpt>
      <trkpt lat="42.92291192" lon="13.44863799">
        <ele>602.00000</ele>
        <time>2024-05-10T20:00:36Z</time>
      </trkpt>
      <trkpt lat="42.92289298" lon="13.44862894">
        <ele>603.00000</ele>
        <time>2024-05-10T20:00:37Z</time>
      </trkpt>
      <trkpt lat="42.92287797" lon="13.44862198">
        <ele>603.00000</ele>
        <time>2024-05-10T20:00:37Z</time>
      </trkpt>
      <trkpt lat="42.92286196" lon="13.44860798">
        <ele>603.00000</ele>
        <time>2024-05-10T20:00:37Z</time>
      </trkpt>
      <trkpt lat="42.92284495" lon="13.44859499">
        <ele>604.00000</ele>
        <time>2024-05-10T20:00:38Z</time>
      </trkpt>
      <trkpt lat="42.92282894" lon="13.44858099">
        <ele>604.00000</ele>
        <time>2024-05-10T20:00:38Z</time>
      </trkpt>
      <trkpt lat="42.92281293" lon="13.44856792">
        <ele>605.00000</ele>
        <time>2024-05-10T20:00:38Z</time>
      </trkpt>
      <trkpt lat="42.92279792" lon="13.44855995">
        <ele>605.00000</ele>
        <time>2024-05-10T20:00:39Z</time>
      </trkpt>
      <trkpt lat="42.92278393" lon="13.44854897">
        <ele>606.00000</ele>
        <time>2024-05-10T20:00:39Z</time>
      </trkpt>
      <trkpt lat="42.92276792" lon="13.44854294">
        <ele>606.00000</ele>
        <time>2024-05-10T20:00:39Z</time>
      </trkpt>
      <trkpt lat="42.92275493" lon="13.44853196">
        <ele>606.00000</ele>
        <time>2024-05-10T20:00:40Z</time>
      </trkpt>
      <trkpt lat="42.92273892" lon="13.44852894">
        <ele>607.00000</ele>
        <time>2024-05-10T20:00:40Z</time>
      </trkpt>
      <trkpt lat="42.92271595" lon="13.44852995">
        <ele>607.00000</ele>
        <time>2024-05-10T20:00:40Z</time>
      </trkpt>
      <trkpt lat="42.92269399" lon="13.44853296">
        <ele>607.00000</ele>
        <time>2024-05-10T20:00:41Z</time>
      </trkpt>
      <trkpt lat="42.92267094" lon="13.44853196">
        <ele>607.00000</ele>
        <time>2024-05-10T20:00:41Z</time>
      </trkpt>
      <trkpt lat="42.92264194" lon="13.44852592">
        <ele>607.00000</ele>
        <time>2024-05-10T20:00:42Z</time>
      </trkpt>
      <trkpt lat="42.92261495" lon="13.44851897">
        <ele>608.00000</ele>
        <time>2024-05-10T20:00:43Z</time>
      </trkpt>
      <trkpt lat="42.92259399" lon="13.44851796">
        <ele>608.00000</ele>
        <time>2024-05-10T20:00:43Z</time>
      </trkpt>
      <trkpt lat="42.92257497" lon="13.44851695">
        <ele>608.00000</ele>
        <time>2024-05-10T20:00:43Z</time>
      </trkpt>
      <trkpt lat="42.92255493" lon="13.44851293">
        <ele>609.00000</ele>
        <time>2024-05-10T20:00:44Z</time>
      </trkpt>
      <trkpt lat="42.92253498" lon="13.44851092">
        <ele>609.00000</ele>
        <time>2024-05-10T20:00:44Z</time>
      </trkpt>
      <trkpt lat="42.92251093" lon="13.44850597">
        <ele>609.00000</ele>
        <time>2024-05-10T20:00:45Z</time>
      </trkpt>
      <trkpt lat="42.92249098" lon="13.44849994">
        <ele>609.00000</ele>
        <time>2024-05-10T20:00:45Z</time>
      </trkpt>
      <trkpt lat="42.92246592" lon="13.44848795">
        <ele>610.00000</ele>
        <time>2024-05-10T20:00:46Z</time>
      </trkpt>
      <trkpt lat="42.92244094" lon="13.44848292">
        <ele>610.00000</ele>
        <time>2024-05-10T20:00:46Z</time>
      </trkpt>
      <trkpt lat="42.92241697" lon="13.44847396">
        <ele>611.00000</ele>
        <time>2024-05-10T20:00:47Z</time>
      </trkpt>
      <trkpt lat="42.92239199" lon="13.44846398">
        <ele>611.00000</ele>
        <time>2024-05-10T20:00:47Z</time>
      </trkpt>
      <trkpt lat="42.92237397" lon="13.44845593">
        <ele>612.00000</ele>
        <time>2024-05-10T20:00:47Z</time>
      </trkpt>
      <trkpt lat="42.92235092" lon="13.44844495">
        <ele>612.00000</ele>
        <time>2024-05-10T20:00:48Z</time>
      </trkpt>
      <trkpt lat="42.92232594" lon="13.44843397">
        <ele>612.00000</ele>
        <time>2024-05-10T20:00:48Z</time>
      </trkpt>
      <trkpt lat="42.92230398" lon="13.44842299">
        <ele>613.00000</ele>
        <time>2024-05-10T20:00:49Z</time>
      </trkpt>
      <trkpt lat="42.92228193" lon="13.44841796">
        <ele>613.00000</ele>
        <time>2024-05-10T20:00:49Z</time>
      </trkpt>
      <trkpt lat="42.92225293" lon="13.44841696">
        <ele>613.00000</ele>
        <time>2024-05-10T20:00:50Z</time>
      </trkpt>
      <trkpt lat="42.92222695" lon="13.44842199">
        <ele>614.00000</ele>
        <time>2024-05-10T20:00:50Z</time>
      </trkpt>
      <trkpt lat="42.92219795" lon="13.44842098">
        <ele>614.00000</ele>
        <time>2024-05-10T20:00:51Z</time>
      </trkpt>
      <trkpt lat="42.92217096" lon="13.44841998">
        <ele>614.00000</ele>
        <time>2024-05-10T20:00:52Z</time>
      </trkpt>
      <trkpt lat="42.92214497" lon="13.44841998">
        <ele>614.00000</ele>
        <time>2024-05-10T20:00:52Z</time>
      </trkpt>
      <trkpt lat="42.92211798" lon="13.44842492">
        <ele>613.00000</ele>
        <time>2024-05-10T20:00:53Z</time>
      </trkpt>
      <trkpt lat="42.92208999" lon="13.44842098">
        <ele>613.00000</ele>
        <time>2024-05-10T20:00:53Z</time>
      </trkpt>
      <trkpt lat="42.92205998" lon="13.44842098">
        <ele>613.00000</ele>
        <time>2024-05-10T20:00:54Z</time>
      </trkpt>
      <trkpt lat="42.92202595" lon="13.44842199">
        <ele>613.00000</ele>
        <time>2024-05-10T20:00:54Z</time>
      </trkpt>
      <trkpt lat="42.92199192" lon="13.44842392">
        <ele>613.00000</ele>
        <time>2024-05-10T20:00:55Z</time>
      </trkpt>
      <trkpt lat="42.92195999" lon="13.44842894">
        <ele>613.00000</ele>
        <time>2024-05-10T20:00:56Z</time>
      </trkpt>
      <trkpt lat="42.92192897" lon="13.44843196">
        <ele>613.00000</ele>
        <time>2024-05-10T20:00:56Z</time>
      </trkpt>
      <trkpt lat="42.92189897" lon="13.44843498">
        <ele>613.00000</ele>
        <time>2024-05-10T20:00:57Z</time>
      </trkpt>
      <trkpt lat="42.92186695" lon="13.44844093">
        <ele>613.00000</ele>
        <time>2024-05-10T20:00:58Z</time>
      </trkpt>
      <trkpt lat="42.92183593" lon="13.44844294">
        <ele>613.00000</ele>
        <time>2024-05-10T20:00:58Z</time>
      </trkpt>
      <trkpt lat="42.92180492" lon="13.44844495">
        <ele>612.00000</ele>
        <time>2024-05-10T20:00:59Z</time>
      </trkpt>
      <trkpt lat="42.92177198" lon="13.44844495">
        <ele>612.00000</ele>
        <time>2024-05-10T20:01:00Z</time>
      </trkpt>
      <trkpt lat="42.92173996" lon="13.44844495">
        <ele>612.00000</ele>
        <time>2024-05-10T20:01:00Z</time>
      </trkpt>
      <trkpt lat="42.92170694" lon="13.44844194">
        <ele>612.00000</ele>
        <time>2024-05-10T20:01:01Z</time>
      </trkpt>
      <trkpt lat="42.92167592" lon="13.44843892">
        <ele>612.00000</ele>
        <time>2024-05-10T20:01:01Z</time>
      </trkpt>
      <trkpt lat="42.92164692" lon="13.44843992">
        <ele>612.00000</ele>
        <time>2024-05-10T20:01:02Z</time>
      </trkpt>
      <trkpt lat="42.92161499" lon="13.44843196">
        <ele>612.00000</ele>
        <time>2024-05-10T20:01:03Z</time>
      </trkpt>
      <trkpt lat="42.92158096" lon="13.44842199">
        <ele>612.00000</ele>
        <time>2024-05-10T20:01:03Z</time>
      </trkpt>
      <trkpt lat="42.92154693" lon="13.44841394">
        <ele>612.00000</ele>
        <time>2024-05-10T20:01:04Z</time>
      </trkpt>
      <trkpt lat="42.92151499" lon="13.44840799">
        <ele>612.00000</ele>
        <time>2024-05-10T20:01:05Z</time>
      </trkpt>
      <trkpt lat="42.92148599" lon="13.44839994">
        <ele>612.00000</ele>
        <time>2024-05-10T20:01:05Z</time>
      </trkpt>
      <trkpt lat="42.92145992" lon="13.44838695">
        <ele>612.00000</ele>
        <time>2024-05-10T20:01:06Z</time>
      </trkpt>
      <trkpt lat="42.92142991" lon="13.44837094">
        <ele>612.00000</ele>
        <time>2024-05-10T20:01:07Z</time>
      </trkpt>
      <trkpt lat="42.92140292" lon="13.44835594">
        <ele>612.00000</ele>
        <time>2024-05-10T20:01:07Z</time>
      </trkpt>
      <trkpt lat="42.92137795" lon="13.44833792">
        <ele>613.00000</ele>
        <time>2024-05-10T20:01:08Z</time>
      </trkpt>
      <trkpt lat="42.92135498" lon="13.44831998">
        <ele>614.00000</ele>
        <time>2024-05-10T20:01:08Z</time>
      </trkpt>
      <trkpt lat="42.92133294" lon="13.44830196">
        <ele>614.00000</ele>
        <time>2024-05-10T20:01:09Z</time>
      </trkpt>
      <trkpt lat="42.92131299" lon="13.44828595">
        <ele>615.00000</ele>
        <time>2024-05-10T20:01:09Z</time>
      </trkpt>
      <trkpt lat="42.92129396" lon="13.44826893">
        <ele>616.00000</ele>
        <time>2024-05-10T20:01:10Z</time>
      </trkpt>
      <trkpt lat="42.92127694" lon="13.44825494">
        <ele>617.00000</ele>
        <time>2024-05-10T20:01:10Z</time>
      </trkpt>
      <trkpt lat="42.92125792" lon="13.44823691">
        <ele>617.00000</ele>
        <time>2024-05-10T20:01:11Z</time>
      </trkpt>
      <trkpt lat="42.92123897" lon="13.44822694">
        <ele>618.00000</ele>
        <time>2024-05-10T20:01:11Z</time>
      </trkpt>
      <trkpt lat="42.92122296" lon="13.44820993">
        <ele>619.00000</ele>
        <time>2024-05-10T20:01:11Z</time>
      </trkpt>
      <trkpt lat="42.92120796" lon="13.44820096">
        <ele>619.00000</ele>
        <time>2024-05-10T20:01:12Z</time>
      </trkpt>
      <trkpt lat="42.92119497" lon="13.44818897">
        <ele>620.00000</ele>
        <time>2024-05-10T20:01:12Z</time>
      </trkpt>
      <trkpt lat="42.92117997" lon="13.44817799">
        <ele>620.00000</ele>
        <time>2024-05-10T20:01:12Z</time>
      </trkpt>
      <trkpt lat="42.92116396" lon="13.44816793">
        <ele>621.00000</ele>
        <time>2024-05-10T20:01:13Z</time>
      </trkpt>
      <trkpt lat="42.92115096" lon="13.44815494">
        <ele>621.00000</ele>
        <time>2024-05-10T20:01:13Z</time>
      </trkpt>
      <trkpt lat="42.92113596" lon="13.44814094">
        <ele>622.00000</ele>
        <time>2024-05-10T20:01:13Z</time>
      </trkpt>
      <trkpt lat="42.92112196" lon="13.44812694">
        <ele>622.00000</ele>
        <time>2024-05-10T20:01:14Z</time>
      </trkpt>
      <trkpt lat="42.92110595" lon="13.44811093">
        <ele>623.00000</ele>
        <time>2024-05-10T20:01:14Z</time>
      </trkpt>
      <trkpt lat="42.92109598" lon="13.44809291">
        <ele>623.00000</ele>
        <time>2024-05-10T20:01:14Z</time>
      </trkpt>
      <trkpt lat="42.92108592" lon="13.44807095">
        <ele>624.00000</ele>
        <time>2024-05-10T20:01:15Z</time>
      </trkpt>
      <trkpt lat="42.92107393" lon="13.44805293">
        <ele>625.00000</ele>
        <time>2024-05-10T20:01:15Z</time>
      </trkpt>
      <trkpt lat="42.92105793" lon="13.44803893">
        <ele>625.00000</ele>
        <time>2024-05-10T20:01:16Z</time>
      </trkpt>
      <trkpt lat="42.92104594" lon="13.44802997">
        <ele>626.00000</ele>
        <time>2024-05-10T20:01:16Z</time>
      </trkpt>
      <trkpt lat="42.92103395" lon="13.44802494">
        <ele>626.00000</ele>
        <time>2024-05-10T20:01:16Z</time>
      </trkpt>
      <trkpt lat="42.92101996" lon="13.44801496">
        <ele>627.00000</ele>
        <time>2024-05-10T20:01:16Z</time>
      </trkpt>
      <trkpt lat="42.92100495" lon="13.44800692">
        <ele>627.00000</ele>
        <time>2024-05-10T20:01:17Z</time>
      </trkpt>
      <trkpt lat="42.92098794" lon="13.44799694">
        <ele>628.00000</ele>
        <time>2024-05-10T20:01:17Z</time>
      </trkpt>
      <trkpt lat="42.92097092" lon="13.44799594">
        <ele>628.00000</ele>
        <time>2024-05-10T20:01:17Z</time>
      </trkpt>
      <trkpt lat="42.92095692" lon="13.44800499">
        <ele>629.00000</ele>
        <time>2024-05-10T20:01:18Z</time>
      </trkpt>
      <trkpt lat="42.92093899" lon="13.44801899">
        <ele>629.00000</ele>
        <time>2024-05-10T20:01:18Z</time>
      </trkpt>
      <trkpt lat="42.92092096" lon="13.44802997">
        <ele>629.00000</ele>
        <time>2024-05-10T20:01:19Z</time>
      </trkpt>
      <trkpt lat="42.92090496" lon="13.44804095">
        <ele>630.00000</ele>
        <time>2024-05-10T20:01:19Z</time>
      </trkpt>
      <trkpt lat="42.92089791" lon="13.44805494">
        <ele>630.00000</ele>
        <time>2024-05-10T20:01:19Z</time>
      </trkpt>
      <trkpt lat="42.92089791" lon="13.44807992">
        <ele>629.00000</ele>
        <time>2024-05-10T20:01:19Z</time>
      </trkpt>
      <trkpt lat="42.92090194" lon="13.44810599">
        <ele>629.00000</ele>
        <time>2024-05-10T20:01:20Z</time>
      </trkpt>
      <trkpt lat="42.92091099" lon="13.44812493">
        <ele>628.00000</ele>
        <time>2024-05-10T20:01:20Z</time>
      </trkpt>
      <trkpt lat="42.92091795" lon="13.44814396">
        <ele>628.00000</ele>
        <time>2024-05-10T20:01:21Z</time>
      </trkpt>
      <trkpt lat="42.92092398" lon="13.44816994">
        <ele>627.00000</ele>
        <time>2024-05-10T20:01:21Z</time>
      </trkpt>
      <trkpt lat="42.92092893" lon="13.44818796">
        <ele>627.00000</ele>
        <time>2024-05-10T20:01:21Z</time>
      </trkpt>
      <trkpt lat="42.92093697" lon="13.44820498">
        <ele>626.00000</ele>
        <time>2024-05-10T20:01:22Z</time>
      </trkpt>
      <trkpt lat="42.92094494" lon="13.44823096">
        <ele>626.00000</ele>
        <time>2024-05-10T20:01:22Z</time>
      </trkpt>
      <trkpt lat="42.92094594" lon="13.44825594">
        <ele>625.00000</ele>
        <time>2024-05-10T20:01:22Z</time>
      </trkpt>
      <trkpt lat="42.92094695" lon="13.44827799">
        <ele>625.00000</ele>
        <time>2024-05-10T20:01:23Z</time>
      </trkpt>
      <trkpt lat="42.92094695" lon="13.44830296">
        <ele>625.00000</ele>
        <time>2024-05-10T20:01:23Z</time>
      </trkpt>
      <trkpt lat="42.92094293" lon="13.44833398">
        <ele>624.00000</ele>
        <time>2024-05-10T20:01:23Z</time>
      </trkpt>
      <trkpt lat="42.92093999" lon="13.44836097">
        <ele>624.00000</ele>
        <time>2024-05-10T20:01:24Z</time>
      </trkpt>
      <trkpt lat="42.92093697" lon="13.44839299">
        <ele>624.00000</ele>
        <time>2024-05-10T20:01:24Z</time>
      </trkpt>
      <trkpt lat="42.92093899" lon="13.44842593">
        <ele>624.00000</ele>
        <time>2024-05-10T20:01:25Z</time>
      </trkpt>
      <trkpt lat="42.92093195" lon="13.44845493">
        <ele>624.00000</ele>
        <time>2024-05-10T20:01:25Z</time>
      </trkpt>
      <trkpt lat="42.92092599" lon="13.44848896">
        <ele>624.00000</ele>
        <time>2024-05-10T20:01:26Z</time>
      </trkpt>
      <trkpt lat="42.92091694" lon="13.44851897">
        <ele>624.00000</ele>
        <time>2024-05-10T20:01:26Z</time>
      </trkpt>
      <trkpt lat="42.92090496" lon="13.44854897">
        <ele>624.00000</ele>
        <time>2024-05-10T20:01:27Z</time>
      </trkpt>
      <trkpt lat="42.92089096" lon="13.44857797">
        <ele>624.00000</ele>
        <time>2024-05-10T20:01:27Z</time>
      </trkpt>
      <trkpt lat="42.92087696" lon="13.44860597">
        <ele>624.00000</ele>
        <time>2024-05-10T20:01:28Z</time>
      </trkpt>
      <trkpt lat="42.92086397" lon="13.44863992">
        <ele>625.00000</ele>
        <time>2024-05-10T20:01:28Z</time>
      </trkpt>
      <trkpt lat="42.92085693" lon="13.44867093">
        <ele>625.00000</ele>
        <time>2024-05-10T20:01:29Z</time>
      </trkpt>
      <trkpt lat="42.92085098" lon="13.44870496">
        <ele>625.00000</ele>
        <time>2024-05-10T20:01:29Z</time>
      </trkpt>
      <trkpt lat="42.92084695" lon="13.44873991">
        <ele>625.00000</ele>
        <time>2024-05-10T20:01:30Z</time>
      </trkpt>
      <trkpt lat="42.92084896" lon="13.44876992">
        <ele>625.00000</ele>
        <time>2024-05-10T20:01:30Z</time>
      </trkpt>
      <trkpt lat="42.92085894" lon="13.44879792">
        <ele>624.00000</ele>
        <time>2024-05-10T20:01:31Z</time>
      </trkpt>
      <trkpt lat="42.92086598" lon="13.44882499">
        <ele>624.00000</ele>
        <time>2024-05-10T20:01:31Z</time>
      </trkpt>
      <trkpt lat="42.92087696" lon="13.44885097">
        <ele>624.00000</ele>
        <time>2024-05-10T20:01:32Z</time>
      </trkpt>
      <trkpt lat="42.92088895" lon="13.44887193">
        <ele>623.00000</ele>
        <time>2024-05-10T20:01:32Z</time>
      </trkpt>
      <trkpt lat="42.92090194" lon="13.44889498">
        <ele>623.00000</ele>
        <time>2024-05-10T20:01:32Z</time>
      </trkpt>
      <trkpt lat="42.92091493" lon="13.44891694">
        <ele>623.00000</ele>
        <time>2024-05-10T20:01:33Z</time>
      </trkpt>
      <trkpt lat="42.92092599" lon="13.44894292">
        <ele>622.00000</ele>
        <time>2024-05-10T20:01:33Z</time>
      </trkpt>
      <trkpt lat="42.92093195" lon="13.44897394">
        <ele>622.00000</ele>
        <time>2024-05-10T20:01:34Z</time>
      </trkpt>
      <trkpt lat="42.92093396" lon="13.44900595">
        <ele>622.00000</ele>
        <time>2024-05-10T20:01:34Z</time>
      </trkpt>
      <trkpt lat="42.92092692" lon="13.44903596">
        <ele>622.00000</ele>
        <time>2024-05-10T20:01:35Z</time>
      </trkpt>
      <trkpt lat="42.92091292" lon="13.44906094">
        <ele>622.00000</ele>
        <time>2024-05-10T20:01:35Z</time>
      </trkpt>
      <trkpt lat="42.92089398" lon="13.44907796">
        <ele>622.00000</ele>
        <time>2024-05-10T20:01:36Z</time>
      </trkpt>
      <trkpt lat="42.92087193" lon="13.44907796">
        <ele>623.00000</ele>
        <time>2024-05-10T20:01:36Z</time>
      </trkpt>
      <trkpt lat="42.92085198" lon="13.44906597">
        <ele>623.00000</ele>
        <time>2024-05-10T20:01:36Z</time>
      </trkpt>
      <trkpt lat="42.92083597" lon="13.44904996">
        <ele>623.00000</ele>
        <time>2024-05-10T20:01:37Z</time>
      </trkpt>
      <trkpt lat="42.92082298" lon="13.44902599">
        <ele>623.00000</ele>
        <time>2024-05-10T20:01:37Z</time>
      </trkpt>
      <trkpt lat="42.92080798" lon="13.44900193">
        <ele>624.00000</ele>
        <time>2024-05-10T20:01:38Z</time>
      </trkpt>
      <trkpt lat="42.92078794" lon="13.44898592">
        <ele>624.00000</ele>
        <time>2024-05-10T20:01:38Z</time>
      </trkpt>
      <trkpt lat="42.92077294" lon="13.44896899">
        <ele>624.00000</ele>
        <time>2024-05-10T20:01:39Z</time>
      </trkpt>
      <trkpt lat="42.92075593" lon="13.44895399">
        <ele>624.00000</ele>
        <time>2024-05-10T20:01:39Z</time>
      </trkpt>
      <trkpt lat="42.92074092" lon="13.44893898">
        <ele>624.00000</ele>
        <time>2024-05-10T20:01:39Z</time>
      </trkpt>
      <trkpt lat="42.92072399" lon="13.44892398">
        <ele>624.00000</ele>
        <time>2024-05-10T20:01:40Z</time>
      </trkpt>
      <trkpt lat="42.92070798" lon="13.44891099">
        <ele>624.00000</ele>
        <time>2024-05-10T20:01:40Z</time>
      </trkpt>
      <trkpt lat="42.92069197" lon="13.44889892">
        <ele>624.00000</ele>
        <time>2024-05-10T20:01:41Z</time>
      </trkpt>
      <trkpt lat="42.92067395" lon="13.44889196">
        <ele>624.00000</ele>
        <time>2024-05-10T20:01:41Z</time>
      </trkpt>
      <trkpt lat="42.92065392" lon="13.44888098">
        <ele>625.00000</ele>
        <time>2024-05-10T20:01:41Z</time>
      </trkpt>
      <trkpt lat="42.92063891" lon="13.44886598">
        <ele>625.00000</ele>
        <time>2024-05-10T20:01:42Z</time>
      </trkpt>
      <trkpt lat="42.92062693" lon="13.44884796">
        <ele>625.00000</ele>
        <time>2024-05-10T20:01:42Z</time>
      </trkpt>
      <trkpt lat="42.92061092" lon="13.44883195">
        <ele>625.00000</ele>
        <time>2024-05-10T20:01:42Z</time>
      </trkpt>
      <trkpt lat="42.92059499" lon="13.44881191">
        <ele>625.00000</ele>
        <time>2024-05-10T20:01:43Z</time>
      </trkpt>
      <trkpt lat="42.92057697" lon="13.44879398">
        <ele>625.00000</ele>
        <time>2024-05-10T20:01:43Z</time>
      </trkpt>
      <trkpt lat="42.92056197" lon="13.44878098">
        <ele>625.00000</ele>
        <time>2024-05-10T20:01:44Z</time>
      </trkpt>
      <trkpt lat="42.92055199" lon="13.44876699">
        <ele>625.00000</ele>
        <time>2024-05-10T20:01:44Z</time>
      </trkpt>
      <trkpt lat="42.92053699" lon="13.44875299">
        <ele>625.00000</ele>
        <time>2024-05-10T20:01:44Z</time>
      </trkpt>
      <trkpt lat="42.92052299" lon="13.44873698">
        <ele>626.00000</ele>
        <time>2024-05-10T20:01:45Z</time>
      </trkpt>
      <trkpt lat="42.92050992" lon="13.44872198">
        <ele>626.00000</ele>
        <time>2024-05-10T20:01:45Z</time>
      </trkpt>
      <trkpt lat="42.92049994" lon="13.44870697">
        <ele>626.00000</ele>
        <time>2024-05-10T20:01:45Z</time>
      </trkpt>
      <trkpt lat="42.92048896" lon="13.44868996">
        <ele>626.00000</ele>
        <time>2024-05-10T20:01:46Z</time>
      </trkpt>
      <trkpt lat="42.92047899" lon="13.44867093">
        <ele>626.00000</ele>
        <time>2024-05-10T20:01:46Z</time>
      </trkpt>
      <trkpt lat="42.92047396" lon="13.44864293">
        <ele>626.00000</ele>
        <time>2024-05-10T20:01:46Z</time>
      </trkpt>
      <trkpt lat="42.92046993" lon="13.44860698">
        <ele>627.00000</ele>
        <time>2024-05-10T20:01:47Z</time>
      </trkpt>
      <trkpt lat="42.92046197" lon="13.44858393">
        <ele>627.00000</ele>
        <time>2024-05-10T20:01:47Z</time>
      </trkpt>
      <trkpt lat="42.92045099" lon="13.44856699">
        <ele>627.00000</ele>
        <time>2024-05-10T20:01:48Z</time>
      </trkpt>
      <trkpt lat="42.92044697" lon="13.44854294">
        <ele>628.00000</ele>
        <time>2024-05-10T20:01:48Z</time>
      </trkpt>
      <trkpt lat="42.92043993" lon="13.44851897">
        <ele>628.00000</ele>
        <time>2024-05-10T20:01:48Z</time>
      </trkpt>
      <trkpt lat="42.92043196" lon="13.44849198">
        <ele>628.00000</ele>
        <time>2024-05-10T20:01:49Z</time>
      </trkpt>
      <trkpt lat="42.92042492" lon="13.44846993">
        <ele>628.00000</ele>
        <time>2024-05-10T20:01:49Z</time>
      </trkpt>
      <trkpt lat="42.92042098" lon="13.44844294">
        <ele>629.00000</ele>
        <time>2024-05-10T20:01:50Z</time>
      </trkpt>
      <trkpt lat="42.92041897" lon="13.44841998">
        <ele>629.00000</ele>
        <time>2024-05-10T20:01:50Z</time>
      </trkpt>
      <trkpt lat="42.92042098" lon="13.44839198">
        <ele>629.00000</ele>
        <time>2024-05-10T20:01:50Z</time>
      </trkpt>
      <trkpt lat="42.92042492" lon="13.44836692">
        <ele>630.00000</ele>
        <time>2024-05-10T20:01:51Z</time>
      </trkpt>
      <trkpt lat="42.92042995" lon="13.44833792">
        <ele>630.00000</ele>
        <time>2024-05-10T20:01:51Z</time>
      </trkpt>
      <trkpt lat="42.92043699" lon="13.44831394">
        <ele>630.00000</ele>
        <time>2024-05-10T20:01:52Z</time>
      </trkpt>
      <trkpt lat="42.92044093" lon="13.44828897">
        <ele>630.00000</ele>
        <time>2024-05-10T20:01:52Z</time>
      </trkpt>
      <trkpt lat="42.92044395" lon="13.44826399">
        <ele>631.00000</ele>
        <time>2024-05-10T20:01:52Z</time>
      </trkpt>
      <trkpt lat="42.92044395" lon="13.44823993">
        <ele>631.00000</ele>
        <time>2024-05-10T20:01:53Z</time>
      </trkpt>
      <trkpt lat="42.92044697" lon="13.44821898">
        <ele>631.00000</ele>
        <time>2024-05-10T20:01:53Z</time>
      </trkpt>
      <trkpt lat="42.92045393" lon="13.44819492">
        <ele>631.00000</ele>
        <time>2024-05-10T20:01:53Z</time>
      </trkpt>
      <trkpt lat="42.92045996" lon="13.44817296">
        <ele>631.00000</ele>
        <time>2024-05-10T20:01:54Z</time>
      </trkpt>
      <trkpt lat="42.92046398" lon="13.44814798">
        <ele>632.00000</ele>
        <time>2024-05-10T20:01:54Z</time>
      </trkpt>
      <trkpt lat="42.92046692" lon="13.44812192">
        <ele>632.00000</ele>
        <time>2024-05-10T20:01:54Z</time>
      </trkpt>
      <trkpt lat="42.92047295" lon="13.44810398">
        <ele>632.00000</ele>
        <time>2024-05-10T20:01:55Z</time>
      </trkpt>
      <trkpt lat="42.92047396" lon="13.44807699">
        <ele>632.00000</ele>
        <time>2024-05-10T20:01:55Z</time>
      </trkpt>
      <trkpt lat="42.92047195" lon="13.44805394">
        <ele>633.00000</ele>
        <time>2024-05-10T20:01:55Z</time>
      </trkpt>
      <trkpt lat="42.92047195" lon="13.44802594">
        <ele>633.00000</ele>
        <time>2024-05-10T20:01:56Z</time>
      </trkpt>
      <trkpt lat="42.92047396" lon="13.44799895">
        <ele>633.00000</ele>
        <time>2024-05-10T20:01:56Z</time>
      </trkpt>
      <trkpt lat="42.92047698" lon="13.44797791">
        <ele>633.00000</ele>
        <time>2024-05-10T20:01:57Z</time>
      </trkpt>
      <trkpt lat="42.92048192" lon="13.44795092">
        <ele>633.00000</ele>
        <time>2024-05-10T20:01:57Z</time>
      </trkpt>
      <trkpt lat="42.92048192" lon="13.44792393">
        <ele>633.00000</ele>
        <time>2024-05-10T20:01:57Z</time>
      </trkpt>
      <trkpt lat="42.92048293" lon="13.44789795">
        <ele>634.00000</ele>
        <time>2024-05-10T20:01:58Z</time>
      </trkpt>
      <trkpt lat="42.92048594" lon="13.44787197">
        <ele>634.00000</ele>
        <time>2024-05-10T20:01:58Z</time>
      </trkpt>
      <trkpt lat="42.92048796" lon="13.44784397">
        <ele>634.00000</ele>
        <time>2024-05-10T20:01:59Z</time>
      </trkpt>
      <trkpt lat="42.92048997" lon="13.44781799">
        <ele>634.00000</ele>
        <time>2024-05-10T20:01:59Z</time>
      </trkpt>
      <trkpt lat="42.92049097" lon="13.44779091">
        <ele>634.00000</ele>
        <time>2024-05-10T20:01:59Z</time>
      </trkpt>
      <trkpt lat="42.92048997" lon="13.44776694">
        <ele>635.00000</ele>
        <time>2024-05-10T20:02:00Z</time>
      </trkpt>
      <trkpt lat="42.92048997" lon="13.44774096">
        <ele>635.00000</ele>
        <time>2024-05-10T20:02:00Z</time>
      </trkpt>
      <trkpt lat="42.92048695" lon="13.44771296">
        <ele>636.00000</ele>
        <time>2024-05-10T20:02:00Z</time>
      </trkpt>
      <trkpt lat="42.92048393" lon="13.44769192">
        <ele>636.00000</ele>
        <time>2024-05-10T20:02:01Z</time>
      </trkpt>
      <trkpt lat="42.92048293" lon="13.44767197">
        <ele>637.00000</ele>
        <time>2024-05-10T20:02:01Z</time>
      </trkpt>
      <trkpt lat="42.92047899" lon="13.44765094">
        <ele>637.00000</ele>
        <time>2024-05-10T20:02:01Z</time>
      </trkpt>
      <trkpt lat="42.92047295" lon="13.44762596">
        <ele>637.00000</ele>
        <time>2024-05-10T20:02:02Z</time>
      </trkpt>
      <trkpt lat="42.92046792" lon="13.44760391">
        <ele>638.00000</ele>
        <time>2024-05-10T20:02:02Z</time>
      </trkpt>
      <trkpt lat="42.92045694" lon="13.44758095">
        <ele>638.00000</ele>
        <time>2024-05-10T20:02:03Z</time>
      </trkpt>
      <trkpt lat="42.92044596" lon="13.44755798">
        <ele>639.00000</ele>
        <time>2024-05-10T20:02:03Z</time>
      </trkpt>
      <trkpt lat="42.92043096" lon="13.44753694">
        <ele>639.00000</ele>
        <time>2024-05-10T20:02:03Z</time>
      </trkpt>
      <trkpt lat="42.92041294" lon="13.44751993">
        <ele>640.00000</ele>
        <time>2024-05-10T20:02:04Z</time>
      </trkpt>
      <trkpt lat="42.92039399" lon="13.44750593">
        <ele>640.00000</ele>
        <time>2024-05-10T20:02:04Z</time>
      </trkpt>
      <trkpt lat="42.92037396" lon="13.44749294">
        <ele>640.00000</ele>
        <time>2024-05-10T20:02:05Z</time>
      </trkpt>
      <trkpt lat="42.92035695" lon="13.44748095">
        <ele>641.00000</ele>
        <time>2024-05-10T20:02:05Z</time>
      </trkpt>
      <trkpt lat="42.92034094" lon="13.44746796">
        <ele>642.00000</ele>
        <time>2024-05-10T20:02:05Z</time>
      </trkpt>
      <trkpt lat="42.92032493" lon="13.44745396">
        <ele>642.00000</ele>
        <time>2024-05-10T20:02:06Z</time>
      </trkpt>
      <trkpt lat="42.92030892" lon="13.44744399">
        <ele>643.00000</ele>
        <time>2024-05-10T20:02:06Z</time>
      </trkpt>
      <trkpt lat="42.92028897" lon="13.44743896">
        <ele>643.00000</ele>
        <time>2024-05-10T20:02:07Z</time>
      </trkpt>
      <trkpt lat="42.92026894" lon="13.44743192">
        <ele>644.00000</ele>
        <time>2024-05-10T20:02:07Z</time>
      </trkpt>
      <trkpt lat="42.92024899" lon="13.44742597">
        <ele>644.00000</ele>
        <time>2024-05-10T20:02:07Z</time>
      </trkpt>
      <trkpt lat="42.92023097" lon="13.44741691">
        <ele>645.00000</ele>
        <time>2024-05-10T20:02:08Z</time>
      </trkpt>
      <trkpt lat="42.92021395" lon="13.44740694">
        <ele>645.00000</ele>
        <time>2024-05-10T20:02:08Z</time>
      </trkpt>
      <trkpt lat="42.92019593" lon="13.44739194">
        <ele>646.00000</ele>
        <time>2024-05-10T20:02:09Z</time>
      </trkpt>
      <trkpt lat="42.92017699" lon="13.44737794">
        <ele>647.00000</ele>
        <time>2024-05-10T20:02:09Z</time>
      </trkpt>
      <trkpt lat="42.92015595" lon="13.44736796">
        <ele>647.00000</ele>
        <time>2024-05-10T20:02:09Z</time>
      </trkpt>
      <trkpt lat="42.92013399" lon="13.44735992">
        <ele>648.00000</ele>
        <time>2024-05-10T20:02:10Z</time>
      </trkpt>
      <trkpt lat="42.92011496" lon="13.44735397">
        <ele>648.00000</ele>
        <time>2024-05-10T20:02:10Z</time>
      </trkpt>
      <trkpt lat="42.92009493" lon="13.44735195">
        <ele>648.00000</ele>
        <time>2024-05-10T20:02:11Z</time>
      </trkpt>
      <trkpt lat="42.92007297" lon="13.44735095">
        <ele>649.00000</ele>
        <time>2024-05-10T20:02:11Z</time>
      </trkpt>
      <trkpt lat="42.92005294" lon="13.44734793">
        <ele>649.00000</ele>
        <time>2024-05-10T20:02:12Z</time>
      </trkpt>
      <trkpt lat="42.92003299" lon="13.44734491">
        <ele>649.00000</ele>
        <time>2024-05-10T20:02:12Z</time>
      </trkpt>
      <trkpt lat="42.92000994" lon="13.44734399">
        <ele>649.00000</ele>
        <time>2024-05-10T20:02:12Z</time>
      </trkpt>
      <trkpt lat="42.91998898" lon="13.44734399">
        <ele>649.00000</ele>
        <time>2024-05-10T20:02:13Z</time>
      </trkpt>
      <trkpt lat="42.91996995" lon="13.44734491">
        <ele>649.00000</ele>
        <time>2024-05-10T20:02:13Z</time>
      </trkpt>
      <trkpt lat="42.91994699" lon="13.44734592">
        <ele>649.00000</ele>
        <time>2024-05-10T20:02:14Z</time>
      </trkpt>
      <trkpt lat="42.91992595" lon="13.44734198">
        <ele>649.00000</ele>
        <time>2024-05-10T20:02:14Z</time>
      </trkpt>
      <trkpt lat="42.91990692" lon="13.44733393">
        <ele>649.00000</ele>
        <time>2024-05-10T20:02:14Z</time>
      </trkpt>
      <trkpt lat="42.91988697" lon="13.44733092">
        <ele>650.00000</ele>
        <time>2024-05-10T20:02:15Z</time>
      </trkpt>
      <trkpt lat="42.91986392" lon="13.44732899">
        <ele>650.00000</ele>
        <time>2024-05-10T20:02:15Z</time>
      </trkpt>
      <trkpt lat="42.91984297" lon="13.44732798">
        <ele>650.00000</ele>
        <time>2024-05-10T20:02:16Z</time>
      </trkpt>
      <trkpt lat="42.91982193" lon="13.44732496">
        <ele>650.00000</ele>
        <time>2024-05-10T20:02:16Z</time>
      </trkpt>
      <trkpt lat="42.91979997" lon="13.44731792">
        <ele>650.00000</ele>
        <time>2024-05-10T20:02:17Z</time>
      </trkpt>
      <trkpt lat="42.91978295" lon="13.44730996">
        <ele>650.00000</ele>
        <time>2024-05-10T20:02:17Z</time>
      </trkpt>
      <trkpt lat="42.91975999" lon="13.44730292">
        <ele>650.00000</ele>
        <time>2024-05-10T20:02:17Z</time>
      </trkpt>
      <trkpt lat="42.91973694" lon="13.44730191">
        <ele>650.00000</ele>
        <time>2024-05-10T20:02:18Z</time>
      </trkpt>
      <trkpt lat="42.91971297" lon="13.44730099">
        <ele>650.00000</ele>
        <time>2024-05-10T20:02:18Z</time>
      </trkpt>
      <trkpt lat="42.91969092" lon="13.44730191">
        <ele>650.00000</ele>
        <time>2024-05-10T20:02:19Z</time>
      </trkpt>
      <trkpt lat="42.91966795" lon="13.44730493">
        <ele>650.00000</ele>
        <time>2024-05-10T20:02:19Z</time>
      </trkpt>
      <trkpt lat="42.91964599" lon="13.44730694">
        <ele>650.00000</ele>
        <time>2024-05-10T20:02:20Z</time>
      </trkpt>
      <trkpt lat="42.91962294" lon="13.44730795">
        <ele>650.00000</ele>
        <time>2024-05-10T20:02:20Z</time>
      </trkpt>
      <trkpt lat="42.91959797" lon="13.44731197">
        <ele>650.00000</ele>
        <time>2024-05-10T20:02:21Z</time>
      </trkpt>
      <trkpt lat="42.91957399" lon="13.44731591">
        <ele>651.00000</ele>
        <time>2024-05-10T20:02:21Z</time>
      </trkpt>
      <trkpt lat="42.91955497" lon="13.44732899">
        <ele>650.00000</ele>
        <time>2024-05-10T20:02:22Z</time>
      </trkpt>
      <trkpt lat="42.91953896" lon="13.44733393">
        <ele>650.00000</ele>
        <time>2024-05-10T20:02:22Z</time>
      </trkpt>
      <trkpt lat="42.91951792" lon="13.44733594">
        <ele>650.00000</ele>
        <time>2024-05-10T20:02:22Z</time>
      </trkpt>
      <trkpt lat="42.91949596" lon="13.44734399">
        <ele>650.00000</ele>
        <time>2024-05-10T20:02:23Z</time>
      </trkpt>
      <trkpt lat="42.91947492" lon="13.44734894">
        <ele>650.00000</ele>
        <time>2024-05-10T20:02:23Z</time>
      </trkpt>
      <trkpt lat="42.91945296" lon="13.44734894">
        <ele>650.00000</ele>
        <time>2024-05-10T20:02:24Z</time>
      </trkpt>
      <trkpt lat="42.91943091" lon="13.44734793">
        <ele>650.00000</ele>
        <time>2024-05-10T20:02:24Z</time>
      </trkpt>
      <trkpt lat="42.91940895" lon="13.44735195">
        <ele>650.00000</ele>
        <time>2024-05-10T20:02:25Z</time>
      </trkpt>
      <trkpt lat="42.91939395" lon="13.44734894">
        <ele>650.00000</ele>
        <time>2024-05-10T20:02:25Z</time>
      </trkpt>
      <trkpt lat="42.91937291" lon="13.44734592">
        <ele>650.00000</ele>
        <time>2024-05-10T20:02:25Z</time>
      </trkpt>
      <trkpt lat="42.91935196" lon="13.44734793">
        <ele>650.00000</ele>
        <time>2024-05-10T20:02:26Z</time>
      </trkpt>
      <trkpt lat="42.91933192" lon="13.44734793">
        <ele>650.00000</ele>
        <time>2024-05-10T20:02:26Z</time>
      </trkpt>
      <trkpt lat="42.91930795" lon="13.44734894">
        <ele>650.00000</ele>
        <time>2024-05-10T20:02:27Z</time>
      </trkpt>
      <trkpt lat="42.91928297" lon="13.44734298">
        <ele>650.00000</ele>
        <time>2024-05-10T20:02:27Z</time>
      </trkpt>
      <trkpt lat="42.91926093" lon="13.44733594">
        <ele>650.00000</ele>
        <time>2024-05-10T20:02:28Z</time>
      </trkpt>
      <trkpt lat="42.91923696" lon="13.44732999">
        <ele>651.00000</ele>
        <time>2024-05-10T20:02:28Z</time>
      </trkpt>
      <trkpt lat="42.91921592" lon="13.44732094">
        <ele>651.00000</ele>
        <time>2024-05-10T20:02:28Z</time>
      </trkpt>
      <trkpt lat="42.91919798" lon="13.44730594">
        <ele>651.00000</ele>
        <time>2024-05-10T20:02:29Z</time>
      </trkpt>
      <trkpt lat="42.91917795" lon="13.44728993">
        <ele>652.00000</ele>
        <time>2024-05-10T20:02:29Z</time>
      </trkpt>
      <trkpt lat="42.91916093" lon="13.44727593">
        <ele>652.00000</ele>
        <time>2024-05-10T20:02:30Z</time>
      </trkpt>
      <trkpt lat="42.91914694" lon="13.44725799">
        <ele>652.00000</ele>
        <time>2024-05-10T20:02:30Z</time>
      </trkpt>
      <trkpt lat="42.91913294" lon="13.44723695">
        <ele>653.00000</ele>
        <time>2024-05-10T20:02:31Z</time>
      </trkpt>
      <trkpt lat="42.91911492" lon="13.44721499">
        <ele>653.00000</ele>
        <time>2024-05-10T20:02:31Z</time>
      </trkpt>
      <trkpt lat="42.91909698" lon="13.44720192">
        <ele>654.00000</ele>
        <time>2024-05-10T20:02:31Z</time>
      </trkpt>
      <trkpt lat="42.91908198" lon="13.44718499">
        <ele>654.00000</ele>
        <time>2024-05-10T20:02:32Z</time>
      </trkpt>
      <trkpt lat="42.91906898" lon="13.44716395">
        <ele>655.00000</ele>
        <time>2024-05-10T20:02:32Z</time>
      </trkpt>
      <trkpt lat="42.91905691" lon="13.44714098">
        <ele>656.00000</ele>
        <time>2024-05-10T20:02:33Z</time>
      </trkpt>
      <trkpt lat="42.91904292" lon="13.44711793">
        <ele>658.00000</ele>
        <time>2024-05-10T20:02:33Z</time>
      </trkpt>
      <trkpt lat="42.91902892" lon="13.44709597">
        <ele>659.00000</ele>
        <time>2024-05-10T20:02:34Z</time>
      </trkpt>
      <trkpt lat="42.91901098" lon="13.44707393">
        <ele>660.00000</ele>
        <time>2024-05-10T20:02:34Z</time>
      </trkpt>
      <trkpt lat="42.91899397" lon="13.44705599">
        <ele>661.00000</ele>
        <time>2024-05-10T20:02:34Z</time>
      </trkpt>
      <trkpt lat="42.91898097" lon="13.44704199">
        <ele>661.00000</ele>
        <time>2024-05-10T20:02:35Z</time>
      </trkpt>
      <trkpt lat="42.91896698" lon="13.44702598">
        <ele>662.00000</ele>
        <time>2024-05-10T20:02:35Z</time>
      </trkpt>
      <trkpt lat="42.91894694" lon="13.44701098">
        <ele>663.00000</ele>
        <time>2024-05-10T20:02:36Z</time>
      </trkpt>
      <trkpt lat="42.91892699" lon="13.44699698">
        <ele>664.00000</ele>
        <time>2024-05-10T20:02:36Z</time>
      </trkpt>
      <trkpt lat="42.91890998" lon="13.44698399">
        <ele>665.00000</ele>
        <time>2024-05-10T20:02:36Z</time>
      </trkpt>
      <trkpt lat="42.91889095" lon="13.44697192">
        <ele>666.00000</ele>
        <time>2024-05-10T20:02:37Z</time>
      </trkpt>
      <trkpt lat="42.91887192" lon="13.44696597">
        <ele>666.00000</ele>
        <time>2024-05-10T20:02:37Z</time>
      </trkpt>
      <trkpt lat="42.91885198" lon="13.44695499">
        <ele>666.00000</ele>
        <time>2024-05-10T20:02:38Z</time>
      </trkpt>
      <trkpt lat="42.91883295" lon="13.44694694">
        <ele>667.00000</ele>
        <time>2024-05-10T20:02:38Z</time>
      </trkpt>
      <trkpt lat="42.91881593" lon="13.44694099">
        <ele>667.00000</ele>
        <time>2024-05-10T20:02:38Z</time>
      </trkpt>
      <trkpt lat="42.91879598" lon="13.44693596">
        <ele>667.00000</ele>
        <time>2024-05-10T20:02:39Z</time>
      </trkpt>
      <trkpt lat="42.91877696" lon="13.44692992">
        <ele>667.00000</ele>
        <time>2024-05-10T20:02:39Z</time>
      </trkpt>
      <trkpt lat="42.91875693" lon="13.44692297">
        <ele>667.00000</ele>
        <time>2024-05-10T20:02:40Z</time>
      </trkpt>
      <trkpt lat="42.91873195" lon="13.44691593">
        <ele>667.00000</ele>
        <time>2024-05-10T20:02:40Z</time>
      </trkpt>
      <trkpt lat="42.91871099" lon="13.44690998">
        <ele>667.00000</ele>
        <time>2024-05-10T20:02:41Z</time>
      </trkpt>
      <trkpt lat="42.91868895" lon="13.44690696">
        <ele>667.00000</ele>
        <time>2024-05-10T20:02:41Z</time>
      </trkpt>
      <trkpt lat="42.91866699" lon="13.44691299">
        <ele>667.00000</ele>
        <time>2024-05-10T20:02:41Z</time>
      </trkpt>
      <trkpt lat="42.91864494" lon="13.44691995">
        <ele>666.00000</ele>
        <time>2024-05-10T20:02:42Z</time>
      </trkpt>
      <trkpt lat="42.91862592" lon="13.44691794">
        <ele>666.00000</ele>
        <time>2024-05-10T20:02:42Z</time>
      </trkpt>
      <trkpt lat="42.91860194" lon="13.44691392">
        <ele>666.00000</ele>
        <time>2024-05-10T20:02:43Z</time>
      </trkpt>
      <trkpt lat="42.91857797" lon="13.44691392">
        <ele>666.00000</ele>
        <time>2024-05-10T20:02:43Z</time>
      </trkpt>
      <trkpt lat="42.91855593" lon="13.44690495">
        <ele>666.00000</ele>
        <time>2024-05-10T20:02:44Z</time>
      </trkpt>
      <trkpt lat="42.91853195" lon="13.44689698">
        <ele>667.00000</ele>
        <time>2024-05-10T20:02:44Z</time>
      </trkpt>
      <trkpt lat="42.91851293" lon="13.44689598">
        <ele>667.00000</ele>
        <time>2024-05-10T20:02:45Z</time>
      </trkpt>
      <trkpt lat="42.91849499" lon="13.44689799">
        <ele>667.00000</ele>
        <time>2024-05-10T20:02:45Z</time>
      </trkpt>
      <trkpt lat="42.91847798" lon="13.44690092">
        <ele>666.00000</ele>
        <time>2024-05-10T20:02:45Z</time>
      </trkpt>
      <trkpt lat="42.91846197" lon="13.44690495">
        <ele>666.00000</ele>
        <time>2024-05-10T20:02:46Z</time>
      </trkpt>
      <trkpt lat="42.91844495" lon="13.44690796">
        <ele>666.00000</ele>
        <time>2024-05-10T20:02:46Z</time>
      </trkpt>
      <trkpt lat="42.91842492" lon="13.44690796">
        <ele>666.00000</ele>
        <time>2024-05-10T20:02:46Z</time>
      </trkpt>
      <trkpt lat="42.91840296" lon="13.44691098">
        <ele>666.00000</ele>
        <time>2024-05-10T20:02:47Z</time>
      </trkpt>
      <trkpt lat="42.91838292" lon="13.44691693">
        <ele>666.00000</ele>
        <time>2024-05-10T20:02:47Z</time>
      </trkpt>
      <trkpt lat="42.91836298" lon="13.44692397">
        <ele>665.00000</ele>
        <time>2024-05-10T20:02:48Z</time>
      </trkpt>
      <trkpt lat="42.91834395" lon="13.44693194">
        <ele>665.00000</ele>
        <time>2024-05-10T20:02:48Z</time>
      </trkpt>
      <trkpt lat="42.91832392" lon="13.44693697">
        <ele>665.00000</ele>
        <time>2024-05-10T20:02:48Z</time>
      </trkpt>
      <trkpt lat="42.91830397" lon="13.44694493">
        <ele>664.00000</ele>
        <time>2024-05-10T20:02:49Z</time>
      </trkpt>
      <trkpt lat="42.91828695" lon="13.44695599">
        <ele>664.00000</ele>
        <time>2024-05-10T20:02:49Z</time>
      </trkpt>
      <trkpt lat="42.91826591" lon="13.44696295">
        <ele>664.00000</ele>
        <time>2024-05-10T20:02:50Z</time>
      </trkpt>
      <trkpt lat="42.91824596" lon="13.44696898">
        <ele>663.00000</ele>
        <time>2024-05-10T20:02:50Z</time>
      </trkpt>
      <trkpt lat="42.91822593" lon="13.44697594">
        <ele>663.00000</ele>
        <time>2024-05-10T20:02:50Z</time>
      </trkpt>
      <trkpt lat="42.91820297" lon="13.44698097">
        <ele>663.00000</ele>
        <time>2024-05-10T20:02:51Z</time>
      </trkpt>
      <trkpt lat="42.91818092" lon="13.44698793">
        <ele>663.00000</ele>
        <time>2024-05-10T20:02:51Z</time>
      </trkpt>
      <trkpt lat="42.91815695" lon="13.44699095">
        <ele>663.00000</ele>
        <time>2024-05-10T20:02:52Z</time>
      </trkpt>
      <trkpt lat="42.91813298" lon="13.44698692">
        <ele>663.00000</ele>
        <time>2024-05-10T20:02:52Z</time>
      </trkpt>
      <trkpt lat="42.91810993" lon="13.44697896">
        <ele>663.00000</ele>
        <time>2024-05-10T20:02:53Z</time>
      </trkpt>
      <trkpt lat="42.91808998" lon="13.44696697">
        <ele>664.00000</ele>
        <time>2024-05-10T20:02:53Z</time>
      </trkpt>
      <trkpt lat="42.91807095" lon="13.44695599">
        <ele>664.00000</ele>
        <time>2024-05-10T20:02:54Z</time>
      </trkpt>
      <trkpt lat="42.91805494" lon="13.44694292">
        <ele>665.00000</ele>
        <time>2024-05-10T20:02:54Z</time>
      </trkpt>
      <trkpt lat="42.91803399" lon="13.44692699">
        <ele>664.00000</ele>
        <time>2024-05-10T20:02:55Z</time>
      </trkpt>
      <trkpt lat="42.91801395" lon="13.44690595">
        <ele>665.00000</ele>
        <time>2024-05-10T20:02:55Z</time>
      </trkpt>
      <trkpt lat="42.91799593" lon="13.44688592">
        <ele>665.00000</ele>
        <time>2024-05-10T20:02:56Z</time>
      </trkpt>
      <trkpt lat="42.91797498" lon="13.44686698">
        <ele>665.00000</ele>
        <time>2024-05-10T20:02:56Z</time>
      </trkpt>
      <trkpt lat="42.91795293" lon="13.44684493">
        <ele>665.00000</ele>
        <time>2024-05-10T20:02:57Z</time>
      </trkpt>
      <trkpt lat="42.91792896" lon="13.44682297">
        <ele>665.00000</ele>
        <time>2024-05-10T20:02:57Z</time>
      </trkpt>
      <trkpt lat="42.91790599" lon="13.44679892">
        <ele>666.00000</ele>
        <time>2024-05-10T20:02:58Z</time>
      </trkpt>
      <trkpt lat="42.91788194" lon="13.44677696">
        <ele>666.00000</ele>
        <time>2024-05-10T20:02:58Z</time>
      </trkpt>
      <trkpt lat="42.91785797" lon="13.44675592">
        <ele>666.00000</ele>
        <time>2024-05-10T20:02:59Z</time>
      </trkpt>
      <trkpt lat="42.91783299" lon="13.44673798">
        <ele>666.00000</ele>
        <time>2024-05-10T20:02:59Z</time>
      </trkpt>
      <trkpt lat="42.91780499" lon="13.44671895">
        <ele>666.00000</ele>
        <time>2024-05-10T20:03:00Z</time>
      </trkpt>
      <trkpt lat="42.91777398" lon="13.44670194">
        <ele>666.00000</ele>
        <time>2024-05-10T20:03:01Z</time>
      </trkpt>
      <trkpt lat="42.91774598" lon="13.44668693">
        <ele>666.00000</ele>
        <time>2024-05-10T20:03:01Z</time>
      </trkpt>
      <trkpt lat="42.91771992" lon="13.44667394">
        <ele>666.00000</ele>
        <time>2024-05-10T20:03:02Z</time>
      </trkpt>
      <trkpt lat="42.91769293" lon="13.44665491">
        <ele>667.00000</ele>
        <time>2024-05-10T20:03:02Z</time>
      </trkpt>
      <trkpt lat="42.91766493" lon="13.44663698">
        <ele>667.00000</ele>
        <time>2024-05-10T20:03:03Z</time>
      </trkpt>
      <trkpt lat="42.91763593" lon="13.44662298">
        <ele>667.00000</ele>
        <time>2024-05-10T20:03:04Z</time>
      </trkpt>
      <trkpt lat="42.91761196" lon="13.44661192">
        <ele>667.00000</ele>
        <time>2024-05-10T20:03:04Z</time>
      </trkpt>
      <trkpt lat="42.91758597" lon="13.44659792">
        <ele>667.00000</ele>
        <time>2024-05-10T20:03:05Z</time>
      </trkpt>
      <trkpt lat="42.91756091" lon="13.44658199">
        <ele>668.00000</ele>
        <time>2024-05-10T20:03:05Z</time>
      </trkpt>
      <trkpt lat="42.91753694" lon="13.44656799">
        <ele>668.00000</ele>
        <time>2024-05-10T20:03:06Z</time>
      </trkpt>
      <trkpt lat="42.91751297" lon="13.44655894">
        <ele>668.00000</ele>
        <time>2024-05-10T20:03:06Z</time>
      </trkpt>
      <trkpt lat="42.91748598" lon="13.44656095">
        <ele>668.00000</ele>
        <time>2024-05-10T20:03:07Z</time>
      </trkpt>
      <trkpt lat="42.91745899" lon="13.44656196">
        <ele>668.00000</ele>
        <time>2024-05-10T20:03:07Z</time>
      </trkpt>
      <trkpt lat="42.91742999" lon="13.44656992">
        <ele>668.00000</ele>
        <time>2024-05-10T20:03:08Z</time>
      </trkpt>
      <trkpt lat="42.91740492" lon="13.44657495">
        <ele>667.00000</ele>
        <time>2024-05-10T20:03:09Z</time>
      </trkpt>
      <trkpt lat="42.91737492" lon="13.44658099">
        <ele>667.00000</ele>
        <time>2024-05-10T20:03:09Z</time>
      </trkpt>
      <trkpt lat="42.91734399" lon="13.44658794">
        <ele>667.00000</ele>
        <time>2024-05-10T20:03:10Z</time>
      </trkpt>
      <trkpt lat="42.91731398" lon="13.44659096">
        <ele>667.00000</ele>
        <time>2024-05-10T20:03:10Z</time>
      </trkpt>
      <trkpt lat="42.91728498" lon="13.44659498">
        <ele>667.00000</ele>
        <time>2024-05-10T20:03:11Z</time>
      </trkpt>
      <trkpt lat="42.91725698" lon="13.44659691">
        <ele>667.00000</ele>
        <time>2024-05-10T20:03:11Z</time>
      </trkpt>
      <trkpt lat="42.91723092" lon="13.44660094">
        <ele>666.00000</ele>
        <time>2024-05-10T20:03:12Z</time>
      </trkpt>
      <trkpt lat="42.91720292" lon="13.44660798">
        <ele>666.00000</ele>
        <time>2024-05-10T20:03:13Z</time>
      </trkpt>
      <trkpt lat="42.91717694" lon="13.44662097">
        <ele>665.00000</ele>
        <time>2024-05-10T20:03:13Z</time>
      </trkpt>
      <trkpt lat="42.91714794" lon="13.44662792">
        <ele>665.00000</ele>
        <time>2024-05-10T20:03:14Z</time>
      </trkpt>
      <trkpt lat="42.91712095" lon="13.44663497">
        <ele>664.00000</ele>
        <time>2024-05-10T20:03:14Z</time>
      </trkpt>
      <trkpt lat="42.91709396" lon="13.44664192">
        <ele>664.00000</ele>
        <time>2024-05-10T20:03:15Z</time>
      </trkpt>
      <trkpt lat="42.91706797" lon="13.44665399">
        <ele>663.00000</ele>
        <time>2024-05-10T20:03:15Z</time>
      </trkpt>
      <trkpt lat="42.91703796" lon="13.44666095">
        <ele>663.00000</ele>
        <time>2024-05-10T20:03:16Z</time>
      </trkpt>
      <trkpt lat="42.91701097" lon="13.44666992">
        <ele>663.00000</ele>
        <time>2024-05-10T20:03:17Z</time>
      </trkpt>
      <trkpt lat="42.91698499" lon="13.44667796">
        <ele>662.00000</ele>
        <time>2024-05-10T20:03:17Z</time>
      </trkpt>
      <trkpt lat="42.91695498" lon="13.44668199">
        <ele>662.00000</ele>
        <time>2024-05-10T20:03:18Z</time>
      </trkpt>
      <trkpt lat="42.91692397" lon="13.44668895">
        <ele>662.00000</ele>
        <time>2024-05-10T20:03:18Z</time>
      </trkpt>
      <trkpt lat="42.91689396" lon="13.44669196">
        <ele>662.00000</ele>
        <time>2024-05-10T20:03:19Z</time>
      </trkpt>
      <trkpt lat="42.91686496" lon="13.44669196">
        <ele>663.00000</ele>
        <time>2024-05-10T20:03:19Z</time>
      </trkpt>
      <trkpt lat="42.91683596" lon="13.44669196">
        <ele>663.00000</ele>
        <time>2024-05-10T20:03:20Z</time>
      </trkpt>
      <trkpt lat="42.91680495" lon="13.44668995">
        <ele>664.00000</ele>
        <time>2024-05-10T20:03:21Z</time>
      </trkpt>
      <trkpt lat="42.91677695" lon="13.44669096">
        <ele>665.00000</ele>
        <time>2024-05-10T20:03:21Z</time>
      </trkpt>
      <trkpt lat="42.91674694" lon="13.44668895">
        <ele>665.00000</ele>
        <time>2024-05-10T20:03:22Z</time>
      </trkpt>
      <trkpt lat="42.91671593" lon="13.44668392">
        <ele>666.00000</ele>
        <time>2024-05-10T20:03:22Z</time>
      </trkpt>
      <trkpt lat="42.91668995" lon="13.44667495">
        <ele>667.00000</ele>
        <time>2024-05-10T20:03:23Z</time>
      </trkpt>
      <trkpt lat="42.91666497" lon="13.44666992">
        <ele>667.00000</ele>
        <time>2024-05-10T20:03:24Z</time>
      </trkpt>
      <trkpt lat="42.91663798" lon="13.44666397">
        <ele>668.00000</ele>
        <time>2024-05-10T20:03:24Z</time>
      </trkpt>
      <trkpt lat="42.91660998" lon="13.44665693">
        <ele>668.00000</ele>
        <time>2024-05-10T20:03:25Z</time>
      </trkpt>
      <trkpt lat="42.91658794" lon="13.44664192">
        <ele>668.00000</ele>
        <time>2024-05-10T20:03:25Z</time>
      </trkpt>
      <trkpt lat="42.91656196" lon="13.44663195">
        <ele>669.00000</ele>
        <time>2024-05-10T20:03:26Z</time>
      </trkpt>
      <trkpt lat="42.91653597" lon="13.44662197">
        <ele>669.00000</ele>
        <time>2024-05-10T20:03:26Z</time>
      </trkpt>
      <trkpt lat="42.91650999" lon="13.44661192">
        <ele>669.00000</ele>
        <time>2024-05-10T20:03:27Z</time>
      </trkpt>
      <trkpt lat="42.91647898" lon="13.44660798">
        <ele>670.00000</ele>
        <time>2024-05-10T20:03:27Z</time>
      </trkpt>
      <trkpt lat="42.91645098" lon="13.44659792">
        <ele>670.00000</ele>
        <time>2024-05-10T20:03:28Z</time>
      </trkpt>
      <trkpt lat="42.91642298" lon="13.44658593">
        <ele>670.00000</ele>
        <time>2024-05-10T20:03:29Z</time>
      </trkpt>
      <trkpt lat="42.91639499" lon="13.44657596">
        <ele>671.00000</ele>
        <time>2024-05-10T20:03:29Z</time>
      </trkpt>
      <trkpt lat="42.91636699" lon="13.44656699">
        <ele>671.00000</ele>
        <time>2024-05-10T20:03:30Z</time>
      </trkpt>
      <trkpt lat="42.91633799" lon="13.44656095">
        <ele>670.00000</ele>
        <time>2024-05-10T20:03:30Z</time>
      </trkpt>
      <trkpt lat="42.91630798" lon="13.44655492">
        <ele>670.00000</ele>
        <time>2024-05-10T20:03:31Z</time>
      </trkpt>
      <trkpt lat="42.91628192" lon="13.44654796">
        <ele>669.00000</ele>
        <time>2024-05-10T20:03:31Z</time>
      </trkpt>
      <trkpt lat="42.91625694" lon="13.44653296">
        <ele>669.00000</ele>
        <time>2024-05-10T20:03:32Z</time>
      </trkpt>
      <trkpt lat="42.91622995" lon="13.44651494">
        <ele>669.00000</ele>
        <time>2024-05-10T20:03:33Z</time>
      </trkpt>
      <trkpt lat="42.91620497" lon="13.44649792">
        <ele>669.00000</ele>
        <time>2024-05-10T20:03:33Z</time>
      </trkpt>
      <trkpt lat="42.91617496" lon="13.44648795">
        <ele>669.00000</ele>
        <time>2024-05-10T20:03:34Z</time>
      </trkpt>
      <trkpt lat="42.91614999" lon="13.44646993">
        <ele>669.00000</ele>
        <time>2024-05-10T20:03:34Z</time>
      </trkpt>
      <trkpt lat="42.91612694" lon="13.44644394">
        <ele>669.00000</ele>
        <time>2024-05-10T20:03:35Z</time>
      </trkpt>
      <trkpt lat="42.91610296" lon="13.44641796">
        <ele>669.00000</ele>
        <time>2024-05-10T20:03:35Z</time>
      </trkpt>
      <trkpt lat="42.91608192" lon="13.44638795">
        <ele>669.00000</ele>
        <time>2024-05-10T20:03:36Z</time>
      </trkpt>
      <trkpt lat="42.91605996" lon="13.44635895">
        <ele>669.00000</ele>
        <time>2024-05-10T20:03:37Z</time>
      </trkpt>
      <trkpt lat="42.91604194" lon="13.44632894">
        <ele>668.00000</ele>
        <time>2024-05-10T20:03:37Z</time>
      </trkpt>
      <trkpt lat="42.91602694" lon="13.44629592">
        <ele>667.00000</ele>
        <time>2024-05-10T20:03:38Z</time>
      </trkpt>
      <trkpt lat="42.91601495" lon="13.44625996">
        <ele>667.00000</ele>
        <time>2024-05-10T20:03:38Z</time>
      </trkpt>
      <trkpt lat="42.91600397" lon="13.44621897">
        <ele>667.00000</ele>
        <time>2024-05-10T20:03:39Z</time>
      </trkpt>
      <trkpt lat="42.91599794" lon="13.44617296">
        <ele>667.00000</ele>
        <time>2024-05-10T20:03:40Z</time>
      </trkpt>
      <trkpt lat="42.91599894" lon="13.44612392">
        <ele>667.00000</ele>
        <time>2024-05-10T20:03:40Z</time>
      </trkpt>
      <trkpt lat="42.91600196" lon="13.44608092">
        <ele>666.00000</ele>
        <time>2024-05-10T20:03:41Z</time>
      </trkpt>
      <trkpt lat="42.91601093" lon="13.44603893">
        <ele>665.00000</ele>
        <time>2024-05-10T20:03:42Z</time>
      </trkpt>
      <trkpt lat="42.91602292" lon="13.44600096">
        <ele>664.00000</ele>
        <time>2024-05-10T20:03:42Z</time>
      </trkpt>
      <trkpt lat="42.91603993" lon="13.44596894">
        <ele>663.00000</ele>
        <time>2024-05-10T20:03:43Z</time>
      </trkpt>
      <trkpt lat="42.91606298" lon="13.44593994">
        <ele>663.00000</ele>
        <time>2024-05-10T20:03:44Z</time>
      </trkpt>
      <trkpt lat="42.91608595" lon="13.44591898">
        <ele>662.00000</ele>
        <time>2024-05-10T20:03:44Z</time>
      </trkpt>
      <trkpt lat="42.91611394" lon="13.44590197">
        <ele>662.00000</ele>
        <time>2024-05-10T20:03:45Z</time>
      </trkpt>
      <trkpt lat="42.91614294" lon="13.44589292">
        <ele>662.00000</ele>
        <time>2024-05-10T20:03:45Z</time>
      </trkpt>
      <trkpt lat="42.91617094" lon="13.44588093">
        <ele>662.00000</ele>
        <time>2024-05-10T20:03:46Z</time>
      </trkpt>
      <trkpt lat="42.91619592" lon="13.44587397">
        <ele>662.00000</ele>
        <time>2024-05-10T20:03:46Z</time>
      </trkpt>
      <trkpt lat="42.91621897" lon="13.44586693">
        <ele>662.00000</ele>
        <time>2024-05-10T20:03:47Z</time>
      </trkpt>
      <trkpt lat="42.91623992" lon="13.44585997">
        <ele>662.00000</ele>
        <time>2024-05-10T20:03:47Z</time>
      </trkpt>
      <trkpt lat="42.91626792" lon="13.44585293">
        <ele>662.00000</ele>
        <time>2024-05-10T20:03:48Z</time>
      </trkpt>
      <trkpt lat="42.91629399" lon="13.44584598">
        <ele>662.00000</ele>
        <time>2024-05-10T20:03:48Z</time>
      </trkpt>
      <trkpt lat="42.91631796" lon="13.44583793">
        <ele>662.00000</ele>
        <time>2024-05-10T20:03:49Z</time>
      </trkpt>
      <trkpt lat="42.91633992" lon="13.44584296">
        <ele>662.00000</ele>
        <time>2024-05-10T20:03:49Z</time>
      </trkpt>
      <trkpt lat="42.91636498" lon="13.44584899">
        <ele>663.00000</ele>
        <time>2024-05-10T20:03:50Z</time>
      </trkpt>
      <trkpt lat="42.91638895" lon="13.44585193">
        <ele>663.00000</ele>
        <time>2024-05-10T20:03:50Z</time>
      </trkpt>
      <trkpt lat="42.91641393" lon="13.44585495">
        <ele>664.00000</ele>
        <time>2024-05-10T20:03:51Z</time>
      </trkpt>
      <trkpt lat="42.91644092" lon="13.44585092">
        <ele>664.00000</ele>
        <time>2024-05-10T20:03:51Z</time>
      </trkpt>
      <trkpt lat="42.91647294" lon="13.44585193">
        <ele>664.00000</ele>
        <time>2024-05-10T20:03:52Z</time>
      </trkpt>
      <trkpt lat="42.91649892" lon="13.44584992">
        <ele>665.00000</ele>
        <time>2024-05-10T20:03:53Z</time>
      </trkpt>
      <trkpt lat="42.91653195" lon="13.44584992">
        <ele>665.00000</ele>
        <time>2024-05-10T20:03:53Z</time>
      </trkpt>
      <trkpt lat="42.91655793" lon="13.44585193">
        <ele>665.00000</ele>
        <time>2024-05-10T20:03:54Z</time>
      </trkpt>
      <trkpt lat="42.91658895" lon="13.44585092">
        <ele>666.00000</ele>
        <time>2024-05-10T20:03:54Z</time>
      </trkpt>
      <trkpt lat="42.91661694" lon="13.44584497">
        <ele>666.00000</ele>
        <time>2024-05-10T20:03:55Z</time>
      </trkpt>
      <trkpt lat="42.91664695" lon="13.44583994">
        <ele>666.00000</ele>
        <time>2024-05-10T20:03:56Z</time>
      </trkpt>
      <trkpt lat="42.91667394" lon="13.44583399">
        <ele>667.00000</ele>
        <time>2024-05-10T20:03:56Z</time>
      </trkpt>
      <trkpt lat="42.91670093" lon="13.44583097">
        <ele>667.00000</ele>
        <time>2024-05-10T20:03:57Z</time>
      </trkpt>
      <trkpt lat="42.91672691" lon="13.44582796">
        <ele>668.00000</ele>
        <time>2024-05-10T20:03:57Z</time>
      </trkpt>
      <trkpt lat="42.91675298" lon="13.44582796">
        <ele>668.00000</ele>
        <time>2024-05-10T20:03:58Z</time>
      </trkpt>
      <trkpt lat="42.91677695" lon="13.44583198">
        <ele>669.00000</ele>
        <time>2024-05-10T20:03:58Z</time>
      </trkpt>
      <trkpt lat="42.91680595" lon="13.44583994">
        <ele>670.00000</ele>
        <time>2024-05-10T20:03:59Z</time>
      </trkpt>
      <trkpt lat="42.91683797" lon="13.44584296">
        <ele>670.00000</ele>
        <time>2024-05-10T20:03:59Z</time>
      </trkpt>
      <trkpt lat="42.91686697" lon="13.44584799">
        <ele>671.00000</ele>
        <time>2024-05-10T20:04:00Z</time>
      </trkpt>
      <trkpt lat="42.91689799" lon="13.44584899">
        <ele>672.00000</ele>
        <time>2024-05-10T20:04:01Z</time>
      </trkpt>
      <trkpt lat="42.91692598" lon="13.44584799">
        <ele>672.00000</ele>
        <time>2024-05-10T20:04:01Z</time>
      </trkpt>
      <trkpt lat="42.91695993" lon="13.44584497">
        <ele>673.00000</ele>
        <time>2024-05-10T20:04:02Z</time>
      </trkpt>
      <trkpt lat="42.91698792" lon="13.44584598">
        <ele>674.00000</ele>
        <time>2024-05-10T20:04:02Z</time>
      </trkpt>
      <trkpt lat="42.91701399" lon="13.44583692">
        <ele>674.00000</ele>
        <time>2024-05-10T20:04:03Z</time>
      </trkpt>
      <trkpt lat="42.91704098" lon="13.44582393">
        <ele>675.00000</ele>
        <time>2024-05-10T20:04:03Z</time>
      </trkpt>
      <trkpt lat="42.91706495" lon="13.44580197">
        <ele>674.00000</ele>
        <time>2024-05-10T20:04:04Z</time>
      </trkpt>
      <trkpt lat="42.91709094" lon="13.44577892">
        <ele>674.00000</ele>
        <time>2024-05-10T20:04:05Z</time>
      </trkpt>
      <trkpt lat="42.91711893" lon="13.44575193">
        <ele>674.00000</ele>
        <time>2024-05-10T20:04:05Z</time>
      </trkpt>
      <trkpt lat="42.91714492" lon="13.44572897">
        <ele>674.00000</ele>
        <time>2024-05-10T20:04:06Z</time>
      </trkpt>
      <trkpt lat="42.91716998" lon="13.44570994">
        <ele>674.00000</ele>
        <time>2024-05-10T20:04:07Z</time>
      </trkpt>
      <trkpt lat="42.91719194" lon="13.44569494">
        <ele>674.00000</ele>
        <time>2024-05-10T20:04:07Z</time>
      </trkpt>
      <trkpt lat="42.91721591" lon="13.44568094">
        <ele>674.00000</ele>
        <time>2024-05-10T20:04:08Z</time>
      </trkpt>
      <trkpt lat="42.91724198" lon="13.44566392">
        <ele>674.00000</ele>
        <time>2024-05-10T20:04:08Z</time>
      </trkpt>
      <trkpt lat="42.91726595" lon="13.44564699">
        <ele>673.00000</ele>
        <time>2024-05-10T20:04:09Z</time>
      </trkpt>
      <trkpt lat="42.91728892" lon="13.44563894">
        <ele>673.00000</ele>
        <time>2024-05-10T20:04:09Z</time>
      </trkpt>
      <trkpt lat="42.91731398" lon="13.44563299">
        <ele>673.00000</ele>
        <time>2024-05-10T20:04:10Z</time>
      </trkpt>
      <trkpt lat="42.91733695" lon="13.44562796">
        <ele>673.00000</ele>
        <time>2024-05-10T20:04:10Z</time>
      </trkpt>
      <trkpt lat="42.91736494" lon="13.44563098">
        <ele>673.00000</ele>
        <time>2024-05-10T20:04:11Z</time>
      </trkpt>
      <trkpt lat="42.91739495" lon="13.44563299">
        <ele>673.00000</ele>
        <time>2024-05-10T20:04:11Z</time>
      </trkpt>
      <trkpt lat="42.91742395" lon="13.44563492">
        <ele>673.00000</ele>
        <time>2024-05-10T20:04:12Z</time>
      </trkpt>
      <trkpt lat="42.91745597" lon="13.44563693">
        <ele>673.00000</ele>
        <time>2024-05-10T20:04:13Z</time>
      </trkpt>
      <trkpt lat="42.91748497" lon="13.44563693">
        <ele>673.00000</ele>
        <time>2024-05-10T20:04:13Z</time>
      </trkpt>
      <trkpt lat="42.91751297" lon="13.44563693">
        <ele>673.00000</ele>
        <time>2024-05-10T20:04:14Z</time>
      </trkpt>
      <trkpt lat="42.91754297" lon="13.44563693">
        <ele>673.00000</ele>
        <time>2024-05-10T20:04:14Z</time>
      </trkpt>
      <trkpt lat="42.91757692" lon="13.44563492">
        <ele>674.00000</ele>
        <time>2024-05-10T20:04:15Z</time>
      </trkpt>
      <trkpt lat="42.91761196" lon="13.44563391">
        <ele>675.00000</ele>
        <time>2024-05-10T20:04:16Z</time>
      </trkpt>
      <trkpt lat="42.91764699" lon="13.44562897">
        <ele>675.00000</ele>
        <time>2024-05-10T20:04:16Z</time>
      </trkpt>
      <trkpt lat="42.91767993" lon="13.44561992">
        <ele>676.00000</ele>
        <time>2024-05-10T20:04:17Z</time>
      </trkpt>
      <trkpt lat="42.91770793" lon="13.44561195">
        <ele>676.00000</ele>
        <time>2024-05-10T20:04:18Z</time>
      </trkpt>
      <trkpt lat="42.91773794" lon="13.44560198">
        <ele>677.00000</ele>
        <time>2024-05-10T20:04:18Z</time>
      </trkpt>
      <trkpt lat="42.91776593" lon="13.44558698">
        <ele>677.00000</ele>
        <time>2024-05-10T20:04:19Z</time>
      </trkpt>
      <trkpt lat="42.91778999" lon="13.44556896">
        <ele>677.00000</ele>
        <time>2024-05-10T20:04:19Z</time>
      </trkpt>
      <trkpt lat="42.91781296" lon="13.44554993">
        <ele>678.00000</ele>
        <time>2024-05-10T20:04:20Z</time>
      </trkpt>
      <trkpt lat="42.91783198" lon="13.44552294">
        <ele>678.00000</ele>
        <time>2024-05-10T20:04:20Z</time>
      </trkpt>
      <trkpt lat="42.91784598" lon="13.44549796">
        <ele>678.00000</ele>
        <time>2024-05-10T20:04:21Z</time>
      </trkpt>
      <trkpt lat="42.91785897" lon="13.44547298">
        <ele>678.00000</ele>
        <time>2024-05-10T20:04:21Z</time>
      </trkpt>
      <trkpt lat="42.91787398" lon="13.44544398">
        <ele>678.00000</ele>
        <time>2024-05-10T20:04:22Z</time>
      </trkpt>
      <trkpt lat="42.91788596" lon="13.44540995">
        <ele>677.00000</ele>
        <time>2024-05-10T20:04:22Z</time>
      </trkpt>
      <trkpt lat="42.91789594" lon="13.44537097">
        <ele>677.00000</ele>
        <time>2024-05-10T20:04:23Z</time>
      </trkpt>
      <trkpt lat="42.91790692" lon="13.44533292">
        <ele>677.00000</ele>
        <time>2024-05-10T20:04:24Z</time>
      </trkpt>
      <trkpt lat="42.91790993" lon="13.44529495">
        <ele>676.00000</ele>
        <time>2024-05-10T20:04:24Z</time>
      </trkpt>
      <trkpt lat="42.91791697" lon="13.44526293">
        <ele>676.00000</ele>
        <time>2024-05-10T20:04:25Z</time>
      </trkpt>
      <trkpt lat="42.91792393" lon="13.44523292">
        <ele>675.00000</ele>
        <time>2024-05-10T20:04:25Z</time>
      </trkpt>
      <trkpt lat="42.91793097" lon="13.44519697">
        <ele>675.00000</ele>
        <time>2024-05-10T20:04:26Z</time>
      </trkpt>
      <trkpt lat="42.91793994" lon="13.44516092">
        <ele>675.00000</ele>
        <time>2024-05-10T20:04:26Z</time>
      </trkpt>
      <trkpt lat="42.91794899" lon="13.44513092">
        <ele>675.00000</ele>
        <time>2024-05-10T20:04:27Z</time>
      </trkpt>
      <trkpt lat="42.91796299" lon="13.44510099">
        <ele>674.00000</ele>
        <time>2024-05-10T20:04:27Z</time>
      </trkpt>
      <trkpt lat="42.91798093" lon="13.44507099">
        <ele>675.00000</ele>
        <time>2024-05-10T20:04:28Z</time>
      </trkpt>
      <trkpt lat="42.91800297" lon="13.44504198">
        <ele>675.00000</ele>
        <time>2024-05-10T20:04:28Z</time>
      </trkpt>
      <trkpt lat="42.91802292" lon="13.44502296">
        <ele>676.00000</ele>
        <time>2024-05-10T20:04:29Z</time>
      </trkpt>
      <trkpt lat="42.91804497" lon="13.44500091">
        <ele>676.00000</ele>
        <time>2024-05-10T20:04:29Z</time>
      </trkpt>
      <trkpt lat="42.91806994" lon="13.44498398">
        <ele>677.00000</ele>
        <time>2024-05-10T20:04:30Z</time>
      </trkpt>
      <trkpt lat="42.91809895" lon="13.44497191">
        <ele>677.00000</ele>
        <time>2024-05-10T20:04:31Z</time>
      </trkpt>
      <trkpt lat="42.91812594" lon="13.44495993">
        <ele>678.00000</ele>
        <time>2024-05-10T20:04:31Z</time>
      </trkpt>
      <trkpt lat="42.91814999" lon="13.44494895">
        <ele>679.00000</ele>
        <time>2024-05-10T20:04:32Z</time>
      </trkpt>
      <trkpt lat="42.91817195" lon="13.44493294">
        <ele>679.00000</ele>
        <time>2024-05-10T20:04:32Z</time>
      </trkpt>
      <trkpt lat="42.91819391" lon="13.44491793">
        <ele>680.00000</ele>
        <time>2024-05-10T20:04:33Z</time>
      </trkpt>
      <trkpt lat="42.91821696" lon="13.44490293">
        <ele>680.00000</ele>
        <time>2024-05-10T20:04:33Z</time>
      </trkpt>
      <trkpt lat="42.91823892" lon="13.44488399">
        <ele>680.00000</ele>
        <time>2024-05-10T20:04:34Z</time>
      </trkpt>
      <trkpt lat="42.91826197" lon="13.44486999">
        <ele>681.00000</ele>
        <time>2024-05-10T20:04:34Z</time>
      </trkpt>
      <trkpt lat="42.91828494" lon="13.44486496">
        <ele>682.00000</ele>
        <time>2024-05-10T20:04:35Z</time>
      </trkpt>
      <trkpt lat="42.91830891" lon="13.44485993">
        <ele>682.00000</ele>
        <time>2024-05-10T20:04:35Z</time>
      </trkpt>
      <trkpt lat="42.91833397" lon="13.44485993">
        <ele>683.00000</ele>
        <time>2024-05-10T20:04:36Z</time>
      </trkpt>
      <trkpt lat="42.91835996" lon="13.44486194">
        <ele>684.00000</ele>
        <time>2024-05-10T20:04:36Z</time>
      </trkpt>
      <trkpt lat="42.91838292" lon="13.44485993">
        <ele>685.00000</ele>
        <time>2024-05-10T20:04:37Z</time>
      </trkpt>
      <trkpt lat="42.91840698" lon="13.44485892">
        <ele>685.00000</ele>
        <time>2024-05-10T20:04:37Z</time>
      </trkpt>
      <trkpt lat="42.91843095" lon="13.44485398">
        <ele>686.00000</ele>
        <time>2024-05-10T20:04:38Z</time>
      </trkpt>
      <trkpt lat="42.91845493" lon="13.44484895">
        <ele>686.00000</ele>
        <time>2024-05-10T20:04:38Z</time>
      </trkpt>
      <trkpt lat="42.91848191" lon="13.44485096">
        <ele>687.00000</ele>
        <time>2024-05-10T20:04:39Z</time>
      </trkpt>
      <trkpt lat="42.91850295" lon="13.44484895">
        <ele>688.00000</ele>
        <time>2024-05-10T20:04:39Z</time>
      </trkpt>
      <trkpt lat="42.91852592" lon="13.44484794">
        <ele>688.00000</ele>
        <time>2024-05-10T20:04:40Z</time>
      </trkpt>
      <trkpt lat="42.91854796" lon="13.44484895">
        <ele>689.00000</ele>
        <time>2024-05-10T20:04:40Z</time>
      </trkpt>
      <trkpt lat="42.91857495" lon="13.44484392">
        <ele>689.00000</ele>
        <time>2024-05-10T20:04:40Z</time>
      </trkpt>
      <trkpt lat="42.91860094" lon="13.44484392">
        <ele>690.00000</ele>
        <time>2024-05-10T20:04:41Z</time>
      </trkpt>
      <trkpt lat="42.91862692" lon="13.44484996">
        <ele>691.00000</ele>
        <time>2024-05-10T20:04:42Z</time>
      </trkpt>
      <trkpt lat="42.91865198" lon="13.44484794">
        <ele>691.00000</ele>
        <time>2024-05-10T20:04:42Z</time>
      </trkpt>
      <trkpt lat="42.91867596" lon="13.44483898">
        <ele>690.00000</ele>
        <time>2024-05-10T20:04:43Z</time>
      </trkpt>
      <trkpt lat="42.91869892" lon="13.44483898">
        <ele>691.00000</ele>
        <time>2024-05-10T20:04:43Z</time>
      </trkpt>
      <trkpt lat="42.91872097" lon="13.44483696">
        <ele>691.00000</ele>
        <time>2024-05-10T20:04:43Z</time>
      </trkpt>
      <trkpt lat="42.91874594" lon="13.44483395">
        <ele>691.00000</ele>
        <time>2024-05-10T20:04:44Z</time>
      </trkpt>
      <trkpt lat="42.91876598" lon="13.44482397">
        <ele>690.00000</ele>
        <time>2024-05-10T20:04:44Z</time>
      </trkpt>
      <trkpt lat="42.91878794" lon="13.44481592">
        <ele>690.00000</ele>
        <time>2024-05-10T20:04:45Z</time>
      </trkpt>
      <trkpt lat="42.91880998" lon="13.44481299">
        <ele>690.00000</ele>
        <time>2024-05-10T20:04:45Z</time>
      </trkpt>
      <trkpt lat="42.91883395" lon="13.44480595">
        <ele>690.00000</ele>
        <time>2024-05-10T20:04:46Z</time>
      </trkpt>
      <trkpt lat="42.91885793" lon="13.44479899">
        <ele>690.00000</ele>
        <time>2024-05-10T20:04:46Z</time>
      </trkpt>
      <trkpt lat="42.91887997" lon="13.44479195">
        <ele>690.00000</ele>
        <time>2024-05-10T20:04:47Z</time>
      </trkpt>
      <trkpt lat="42.91889891" lon="13.44478399">
        <ele>690.00000</ele>
        <time>2024-05-10T20:04:47Z</time>
      </trkpt>
      <trkpt lat="42.91891895" lon="13.44477695">
        <ele>689.00000</ele>
        <time>2024-05-10T20:04:48Z</time>
      </trkpt>
      <trkpt lat="42.91893898" lon="13.44477494">
        <ele>689.00000</ele>
        <time>2024-05-10T20:04:48Z</time>
      </trkpt>
      <trkpt lat="42.91895893" lon="13.44477896">
        <ele>690.00000</ele>
        <time>2024-05-10T20:04:48Z</time>
      </trkpt>
      <trkpt lat="42.91897997" lon="13.44478692">
        <ele>690.00000</ele>
        <time>2024-05-10T20:04:49Z</time>
      </trkpt>
      <trkpt lat="42.91899992" lon="13.44478894">
        <ele>690.00000</ele>
        <time>2024-05-10T20:04:49Z</time>
      </trkpt>
      <trkpt lat="42.91902096" lon="13.44479095">
        <ele>690.00000</ele>
        <time>2024-05-10T20:04:50Z</time>
      </trkpt>
      <trkpt lat="42.91903898" lon="13.44479799">
        <ele>690.00000</ele>
        <time>2024-05-10T20:04:50Z</time>
      </trkpt>
      <trkpt lat="42.91906194" lon="13.44480796">
        <ele>690.00000</ele>
        <time>2024-05-10T20:04:50Z</time>
      </trkpt>
      <trkpt lat="42.91908692" lon="13.44481199">
        <ele>690.00000</ele>
        <time>2024-05-10T20:04:51Z</time>
      </trkpt>
      <trkpt lat="42.91911098" lon="13.44481693">
        <ele>691.00000</ele>
        <time>2024-05-10T20:04:51Z</time>
      </trkpt>
      <trkpt lat="42.91913394" lon="13.44482799">
        <ele>691.00000</ele>
        <time>2024-05-10T20:04:52Z</time>
      </trkpt>
      <trkpt lat="42.91915398" lon="13.44484694">
        <ele>692.00000</ele>
        <time>2024-05-10T20:04:52Z</time>
      </trkpt>
      <trkpt lat="42.91917191" lon="13.44486596">
        <ele>692.00000</ele>
        <time>2024-05-10T20:04:53Z</time>
      </trkpt>
      <trkpt lat="42.91918792" lon="13.44488499">
        <ele>692.00000</ele>
        <time>2024-05-10T20:04:53Z</time>
      </trkpt>
      <trkpt lat="42.91920393" lon="13.44490092">
        <ele>693.00000</ele>
        <time>2024-05-10T20:04:54Z</time>
      </trkpt>
      <trkpt lat="42.91923394" lon="13.44491098">
        <ele>692.00000</ele>
        <time>2024-05-10T20:04:54Z</time>
      </trkpt>
      <trkpt lat="42.91925699" lon="13.44493193">
        <ele>693.00000</ele>
        <time>2024-05-10T20:04:55Z</time>
      </trkpt>
      <trkpt lat="42.91927996" lon="13.44494895">
        <ele>693.00000</ele>
        <time>2024-05-10T20:04:55Z</time>
      </trkpt>
      <trkpt lat="42.91930099" lon="13.44496697">
        <ele>693.00000</ele>
        <time>2024-05-10T20:04:56Z</time>
      </trkpt>
      <trkpt lat="42.91932195" lon="13.44498398">
        <ele>694.00000</ele>
        <time>2024-05-10T20:04:56Z</time>
      </trkpt>
      <trkpt lat="42.91934299" lon="13.44500494">
        <ele>694.00000</ele>
        <time>2024-05-10T20:04:57Z</time>
      </trkpt>
      <trkpt lat="42.91936394" lon="13.44501994">
        <ele>694.00000</ele>
        <time>2024-05-10T20:04:57Z</time>
      </trkpt>
      <trkpt lat="42.91938599" lon="13.44503293">
        <ele>695.00000</ele>
        <time>2024-05-10T20:04:58Z</time>
      </trkpt>
      <trkpt lat="42.91940996" lon="13.44504299">
        <ele>695.00000</ele>
        <time>2024-05-10T20:04:58Z</time>
      </trkpt>
      <trkpt lat="42.91943594" lon="13.44505297">
        <ele>695.00000</ele>
        <time>2024-05-10T20:04:59Z</time>
      </trkpt>
      <trkpt lat="42.91945598" lon="13.44506797">
        <ele>695.00000</ele>
        <time>2024-05-10T20:04:59Z</time>
      </trkpt>
      <trkpt lat="42.91947995" lon="13.44508096">
        <ele>695.00000</ele>
        <time>2024-05-10T20:05:00Z</time>
      </trkpt>
      <trkpt lat="42.91950199" lon="13.44509194">
        <ele>695.00000</ele>
        <time>2024-05-10T20:05:00Z</time>
      </trkpt>
      <trkpt lat="42.91952798" lon="13.44510996">
        <ele>696.00000</ele>
        <time>2024-05-10T20:05:01Z</time>
      </trkpt>
      <trkpt lat="42.91955698" lon="13.44512597">
        <ele>696.00000</ele>
        <time>2024-05-10T20:05:01Z</time>
      </trkpt>
      <trkpt lat="42.91958196" lon="13.44513595">
        <ele>696.00000</ele>
        <time>2024-05-10T20:05:02Z</time>
      </trkpt>
      <trkpt lat="42.91960693" lon="13.44514994">
        <ele>696.00000</ele>
        <time>2024-05-10T20:05:03Z</time>
      </trkpt>
      <trkpt lat="42.91963292" lon="13.44515992">
        <ele>696.00000</ele>
        <time>2024-05-10T20:05:03Z</time>
      </trkpt>
      <trkpt lat="42.91965999" lon="13.44516294">
        <ele>695.00000</ele>
        <time>2024-05-10T20:05:04Z</time>
      </trkpt>
      <trkpt lat="42.91968799" lon="13.44516193">
        <ele>695.00000</ele>
        <time>2024-05-10T20:05:04Z</time>
      </trkpt>
      <trkpt lat="42.91971297" lon="13.44516394">
        <ele>694.00000</ele>
        <time>2024-05-10T20:05:05Z</time>
      </trkpt>
      <trkpt lat="42.91973593" lon="13.44516394">
        <ele>694.00000</ele>
        <time>2024-05-10T20:05:05Z</time>
      </trkpt>
      <trkpt lat="42.91975999" lon="13.44515799">
        <ele>694.00000</ele>
        <time>2024-05-10T20:05:06Z</time>
      </trkpt>
      <trkpt lat="42.91978698" lon="13.44515992">
        <ele>693.00000</ele>
        <time>2024-05-10T20:05:06Z</time>
      </trkpt>
      <trkpt lat="42.91981296" lon="13.44516595">
        <ele>693.00000</ele>
        <time>2024-05-10T20:05:07Z</time>
      </trkpt>
      <trkpt lat="42.91983693" lon="13.44516998">
        <ele>693.00000</ele>
        <time>2024-05-10T20:05:07Z</time>
      </trkpt>
      <trkpt lat="42.91985898" lon="13.44517098">
        <ele>693.00000</ele>
        <time>2024-05-10T20:05:08Z</time>
      </trkpt>
      <trkpt lat="42.91988295" lon="13.44517199">
        <ele>693.00000</ele>
        <time>2024-05-10T20:05:08Z</time>
      </trkpt>
      <trkpt lat="42.91990592" lon="13.44516897">
        <ele>693.00000</ele>
        <time>2024-05-10T20:05:09Z</time>
      </trkpt>
      <trkpt lat="42.91992796" lon="13.44516495">
        <ele>692.00000</ele>
        <time>2024-05-10T20:05:09Z</time>
      </trkpt>
      <trkpt lat="42.91995294" lon="13.44516294">
        <ele>692.00000</ele>
        <time>2024-05-10T20:05:10Z</time>
      </trkpt>
      <trkpt lat="42.91998194" lon="13.44516595">
        <ele>692.00000</ele>
        <time>2024-05-10T20:05:10Z</time>
      </trkpt>
      <trkpt lat="42.92000893" lon="13.44517098">
        <ele>692.00000</ele>
        <time>2024-05-10T20:05:11Z</time>
      </trkpt>
      <trkpt lat="42.92003198" lon="13.44517299">
        <ele>692.00000</ele>
        <time>2024-05-10T20:05:11Z</time>
      </trkpt>
      <trkpt lat="42.92005394" lon="13.44517299">
        <ele>692.00000</ele>
        <time>2024-05-10T20:05:12Z</time>
      </trkpt>
      <trkpt lat="42.92007397" lon="13.44517895">
        <ele>692.00000</ele>
        <time>2024-05-10T20:05:12Z</time>
      </trkpt>
      <trkpt lat="42.92009493" lon="13.44518397">
        <ele>692.00000</ele>
        <time>2024-05-10T20:05:12Z</time>
      </trkpt>
      <trkpt lat="42.92012393" lon="13.44518993">
        <ele>692.00000</ele>
        <time>2024-05-10T20:05:13Z</time>
      </trkpt>
      <trkpt lat="42.92015293" lon="13.44519697">
        <ele>693.00000</ele>
        <time>2024-05-10T20:05:14Z</time>
      </trkpt>
      <trkpt lat="42.92017799" lon="13.44520895">
        <ele>693.00000</ele>
        <time>2024-05-10T20:05:14Z</time>
      </trkpt>
      <trkpt lat="42.92020398" lon="13.44522094">
        <ele>694.00000</ele>
        <time>2024-05-10T20:05:15Z</time>
      </trkpt>
      <trkpt lat="42.92023097" lon="13.44523494">
        <ele>694.00000</ele>
        <time>2024-05-10T20:05:15Z</time>
      </trkpt>
      <trkpt lat="42.92025393" lon="13.44524298">
        <ele>694.00000</ele>
        <time>2024-05-10T20:05:16Z</time>
      </trkpt>
      <trkpt lat="42.92027992" lon="13.44524893">
        <ele>695.00000</ele>
        <time>2024-05-10T20:05:16Z</time>
      </trkpt>
      <trkpt lat="42.92030699" lon="13.44525597">
        <ele>695.00000</ele>
        <time>2024-05-10T20:05:17Z</time>
      </trkpt>
      <trkpt lat="42.92032996" lon="13.44526293">
        <ele>695.00000</ele>
        <time>2024-05-10T20:05:17Z</time>
      </trkpt>
      <trkpt lat="42.92034999" lon="13.44526696">
        <ele>695.00000</ele>
        <time>2024-05-10T20:05:18Z</time>
      </trkpt>
      <trkpt lat="42.92037497" lon="13.44525799">
        <ele>695.00000</ele>
        <time>2024-05-10T20:05:18Z</time>
      </trkpt>
      <trkpt lat="42.92039793" lon="13.44525095">
        <ele>695.00000</ele>
        <time>2024-05-10T20:05:19Z</time>
      </trkpt>
      <trkpt lat="42.92042291" lon="13.44524893">
        <ele>695.00000</ele>
        <time>2024-05-10T20:05:19Z</time>
      </trkpt>
      <trkpt lat="42.92045191" lon="13.44525396">
        <ele>695.00000</ele>
        <time>2024-05-10T20:05:20Z</time>
      </trkpt>
      <trkpt lat="42.92047999" lon="13.44526595">
        <ele>696.00000</ele>
        <time>2024-05-10T20:05:20Z</time>
      </trkpt>
      <trkpt lat="42.92050899" lon="13.44527391">
        <ele>696.00000</ele>
        <time>2024-05-10T20:05:21Z</time>
      </trkpt>
      <trkpt lat="42.92053598" lon="13.44527299">
        <ele>696.00000</ele>
        <time>2024-05-10T20:05:21Z</time>
      </trkpt>
      <trkpt lat="42.92056398" lon="13.44527492">
        <ele>697.00000</ele>
        <time>2024-05-10T20:05:22Z</time>
      </trkpt>
      <trkpt lat="42.92059097" lon="13.44527198">
        <ele>697.00000</ele>
        <time>2024-05-10T20:05:23Z</time>
      </trkpt>
      <trkpt lat="42.92061595" lon="13.44526796">
        <ele>697.00000</ele>
        <time>2024-05-10T20:05:23Z</time>
      </trkpt>
      <trkpt lat="42.92064193" lon="13.44526193">
        <ele>698.00000</ele>
        <time>2024-05-10T20:05:24Z</time>
      </trkpt>
      <trkpt lat="42.92066398" lon="13.44525899">
        <ele>698.00000</ele>
        <time>2024-05-10T20:05:24Z</time>
      </trkpt>
      <trkpt lat="42.92068493" lon="13.44525296">
        <ele>698.00000</ele>
        <time>2024-05-10T20:05:24Z</time>
      </trkpt>
      <trkpt lat="42.92070496" lon="13.44524499">
        <ele>698.00000</ele>
        <time>2024-05-10T20:05:25Z</time>
      </trkpt>
      <trkpt lat="42.92073195" lon="13.44524499">
        <ele>699.00000</ele>
        <time>2024-05-10T20:05:25Z</time>
      </trkpt>
      <trkpt lat="42.92075995" lon="13.44524994">
        <ele>700.00000</ele>
        <time>2024-05-10T20:05:26Z</time>
      </trkpt>
      <trkpt lat="42.92078099" lon="13.44524793">
        <ele>700.00000</ele>
        <time>2024-05-10T20:05:26Z</time>
      </trkpt>
      <trkpt lat="42.92080496" lon="13.44524499">
        <ele>700.00000</ele>
        <time>2024-05-10T20:05:27Z</time>
      </trkpt>
      <trkpt lat="42.92082994" lon="13.44523997">
        <ele>701.00000</ele>
        <time>2024-05-10T20:05:27Z</time>
      </trkpt>
      <trkpt lat="42.92085399" lon="13.44523494">
        <ele>701.00000</ele>
        <time>2024-05-10T20:05:28Z</time>
      </trkpt>
      <trkpt lat="42.92088098" lon="13.44523091">
        <ele>702.00000</ele>
        <time>2024-05-10T20:05:28Z</time>
      </trkpt>
      <trkpt lat="42.92091292" lon="13.44522999">
        <ele>703.00000</ele>
        <time>2024-05-10T20:05:29Z</time>
      </trkpt>
      <trkpt lat="42.92094293" lon="13.44521993">
        <ele>704.00000</ele>
        <time>2024-05-10T20:05:30Z</time>
      </trkpt>
      <trkpt lat="42.92097193" lon="13.44520996">
        <ele>705.00000</ele>
        <time>2024-05-10T20:05:30Z</time>
      </trkpt>
      <trkpt lat="42.92100093" lon="13.44519797">
        <ele>706.00000</ele>
        <time>2024-05-10T20:05:31Z</time>
      </trkpt>
      <trkpt lat="42.92103194" lon="13.44517895">
        <ele>706.00000</ele>
        <time>2024-05-10T20:05:32Z</time>
      </trkpt>
      <trkpt lat="42.92105692" lon="13.44515095">
        <ele>707.00000</ele>
        <time>2024-05-10T20:05:32Z</time>
      </trkpt>
      <trkpt lat="42.92108198" lon="13.44512195">
        <ele>707.00000</ele>
        <time>2024-05-10T20:05:33Z</time>
      </trkpt>
      <trkpt lat="42.92110394" lon="13.44508993">
        <ele>708.00000</ele>
        <time>2024-05-10T20:05:33Z</time>
      </trkpt>
      <trkpt lat="42.92112599" lon="13.44505699">
        <ele>708.00000</ele>
        <time>2024-05-10T20:05:34Z</time>
      </trkpt>
      <trkpt lat="42.92114292" lon="13.44502598">
        <ele>707.00000</ele>
        <time>2024-05-10T20:05:35Z</time>
      </trkpt>
      <trkpt lat="42.92116396" lon="13.44499295">
        <ele>707.00000</ele>
        <time>2024-05-10T20:05:35Z</time>
      </trkpt>
      <trkpt lat="42.92118692" lon="13.44495892">
        <ele>707.00000</ele>
        <time>2024-05-10T20:05:36Z</time>
      </trkpt>
      <trkpt lat="42.92120595" lon="13.44492397">
        <ele>707.00000</ele>
        <time>2024-05-10T20:05:37Z</time>
      </trkpt>
      <trkpt lat="42.92122196" lon="13.44488893">
        <ele>707.00000</ele>
        <time>2024-05-10T20:05:37Z</time>
      </trkpt>
      <trkpt lat="42.92123797" lon="13.44485197">
        <ele>707.00000</ele>
        <time>2024-05-10T20:05:38Z</time>
      </trkpt>
      <trkpt lat="42.92125498" lon="13.44481391">
        <ele>707.00000</ele>
        <time>2024-05-10T20:05:39Z</time>
      </trkpt>
      <trkpt lat="42.92127292" lon="13.44477795">
        <ele>707.00000</ele>
        <time>2024-05-10T20:05:39Z</time>
      </trkpt>
      <trkpt lat="42.92128893" lon="13.44474292">
        <ele>707.00000</ele>
        <time>2024-05-10T20:05:40Z</time>
      </trkpt>
      <trkpt lat="42.92130796" lon="13.44470394">
        <ele>707.00000</ele>
        <time>2024-05-10T20:05:40Z</time>
      </trkpt>
      <trkpt lat="42.92132497" lon="13.44466497">
        <ele>707.00000</ele>
        <time>2024-05-10T20:05:41Z</time>
      </trkpt>
      <trkpt lat="42.92134199" lon="13.44462691">
        <ele>706.00000</ele>
        <time>2024-05-10T20:05:42Z</time>
      </trkpt>
      <trkpt lat="42.92135791" lon="13.44458693">
        <ele>706.00000</ele>
        <time>2024-05-10T20:05:42Z</time>
      </trkpt>
      <trkpt lat="42.92136898" lon="13.44454393">
        <ele>706.00000</ele>
        <time>2024-05-10T20:05:43Z</time>
      </trkpt>
      <trkpt lat="42.92138398" lon="13.44450294">
        <ele>705.00000</ele>
        <time>2024-05-10T20:05:44Z</time>
      </trkpt>
      <trkpt lat="42.92140192" lon="13.44446497">
        <ele>705.00000</ele>
        <time>2024-05-10T20:05:44Z</time>
      </trkpt>
      <trkpt lat="42.92141994" lon="13.44442499">
        <ele>705.00000</ele>
        <time>2024-05-10T20:05:45Z</time>
      </trkpt>
      <trkpt lat="42.92143394" lon="13.44438694">
        <ele>705.00000</ele>
        <time>2024-05-10T20:05:46Z</time>
      </trkpt>
      <trkpt lat="42.92144794" lon="13.44434595">
        <ele>705.00000</ele>
        <time>2024-05-10T20:05:46Z</time>
      </trkpt>
      <trkpt lat="42.92146193" lon="13.44430094">
        <ele>705.00000</ele>
        <time>2024-05-10T20:05:47Z</time>
      </trkpt>
      <trkpt lat="42.92147593" lon="13.44425593">
        <ele>705.00000</ele>
        <time>2024-05-10T20:05:48Z</time>
      </trkpt>
      <trkpt lat="42.92149093" lon="13.44421293">
        <ele>705.00000</ele>
        <time>2024-05-10T20:05:49Z</time>
      </trkpt>
      <trkpt lat="42.92150493" lon="13.44416993">
        <ele>705.00000</ele>
        <time>2024-05-10T20:05:49Z</time>
      </trkpt>
      <trkpt lat="42.92151792" lon="13.44412098">
        <ele>705.00000</ele>
        <time>2024-05-10T20:05:50Z</time>
      </trkpt>
      <trkpt lat="42.92152899" lon="13.44407496">
        <ele>706.00000</ele>
        <time>2024-05-10T20:05:51Z</time>
      </trkpt>
      <trkpt lat="42.92154097" lon="13.44403398">
        <ele>706.00000</ele>
        <time>2024-05-10T20:05:51Z</time>
      </trkpt>
      <trkpt lat="42.92155397" lon="13.44398796">
        <ele>707.00000</ele>
        <time>2024-05-10T20:05:52Z</time>
      </trkpt>
      <trkpt lat="42.92156293" lon="13.44394094">
        <ele>707.00000</ele>
        <time>2024-05-10T20:05:53Z</time>
      </trkpt>
      <trkpt lat="42.92156998" lon="13.44389299">
        <ele>708.00000</ele>
        <time>2024-05-10T20:05:54Z</time>
      </trkpt>
      <trkpt lat="42.92157894" lon="13.44384999">
        <ele>708.00000</ele>
        <time>2024-05-10T20:05:54Z</time>
      </trkpt>
      <trkpt lat="42.92158498" lon="13.44380297">
        <ele>708.00000</ele>
        <time>2024-05-10T20:05:55Z</time>
      </trkpt>
      <trkpt lat="42.92158699" lon="13.44375394">
        <ele>708.00000</ele>
        <time>2024-05-10T20:05:56Z</time>
      </trkpt>
      <trkpt lat="42.92159294" lon="13.44370599">
        <ele>708.00000</ele>
        <time>2024-05-10T20:05:56Z</time>
      </trkpt>
      <trkpt lat="42.92161197" lon="13.44366098">
        <ele>708.00000</ele>
        <time>2024-05-10T20:05:57Z</time>
      </trkpt>
      <trkpt lat="42.92163494" lon="13.44361597">
        <ele>708.00000</ele>
        <time>2024-05-10T20:05:58Z</time>
      </trkpt>
      <trkpt lat="42.92166293" lon="13.44357398">
        <ele>709.00000</ele>
        <time>2024-05-10T20:05:59Z</time>
      </trkpt>
      <trkpt lat="42.92169495" lon="13.44353693">
        <ele>709.00000</ele>
        <time>2024-05-10T20:06:00Z</time>
      </trkpt>
      <trkpt lat="42.92172797" lon="13.44350994">
        <ele>708.00000</ele>
        <time>2024-05-10T20:06:00Z</time>
      </trkpt>
      <trkpt lat="42.92175597" lon="13.44348999">
        <ele>708.00000</ele>
        <time>2024-05-10T20:06:01Z</time>
      </trkpt>
      <trkpt lat="42.92178992" lon="13.44347599">
        <ele>708.00000</ele>
        <time>2024-05-10T20:06:02Z</time>
      </trkpt>
      <trkpt lat="42.92182395" lon="13.44346191">
        <ele>709.00000</ele>
        <time>2024-05-10T20:06:02Z</time>
      </trkpt>
      <trkpt lat="42.92185295" lon="13.44343593">
        <ele>708.00000</ele>
        <time>2024-05-10T20:06:03Z</time>
      </trkpt>
      <trkpt lat="42.92188597" lon="13.44340793">
        <ele>709.00000</ele>
        <time>2024-05-10T20:06:04Z</time>
      </trkpt>
      <trkpt lat="42.92191699" lon="13.44338094">
        <ele>709.00000</ele>
        <time>2024-05-10T20:06:05Z</time>
      </trkpt>
      <trkpt lat="42.92194892" lon="13.44335194">
        <ele>709.00000</ele>
        <time>2024-05-10T20:06:05Z</time>
      </trkpt>
      <trkpt lat="42.92198295" lon="13.44332797">
        <ele>709.00000</ele>
        <time>2024-05-10T20:06:06Z</time>
      </trkpt>
      <trkpt lat="42.92201296" lon="13.44330593">
        <ele>710.00000</ele>
        <time>2024-05-10T20:06:07Z</time>
      </trkpt>
      <trkpt lat="42.92204196" lon="13.44327592">
        <ele>710.00000</ele>
        <time>2024-05-10T20:06:08Z</time>
      </trkpt>
      <trkpt lat="42.92207096" lon="13.44324398">
        <ele>710.00000</ele>
        <time>2024-05-10T20:06:08Z</time>
      </trkpt>
      <trkpt lat="42.92209896" lon="13.44321398">
        <ele>711.00000</ele>
        <time>2024-05-10T20:06:09Z</time>
      </trkpt>
      <trkpt lat="42.92212796" lon="13.44318699">
        <ele>712.00000</ele>
        <time>2024-05-10T20:06:10Z</time>
      </trkpt>
      <trkpt lat="42.92215495" lon="13.44315698">
        <ele>712.00000</ele>
        <time>2024-05-10T20:06:10Z</time>
      </trkpt>
      <trkpt lat="42.92218395" lon="13.44313099">
        <ele>713.00000</ele>
        <time>2024-05-10T20:06:11Z</time>
      </trkpt>
      <trkpt lat="42.92220893" lon="13.44310099">
        <ele>714.00000</ele>
        <time>2024-05-10T20:06:12Z</time>
      </trkpt>
      <trkpt lat="42.92222896" lon="13.44306796">
        <ele>715.00000</ele>
        <time>2024-05-10T20:06:12Z</time>
      </trkpt>
      <trkpt lat="42.92224497" lon="13.44303494">
        <ele>715.00000</ele>
        <time>2024-05-10T20:06:13Z</time>
      </trkpt>
      <trkpt lat="42.92226299" lon="13.44300393">
        <ele>716.00000</ele>
        <time>2024-05-10T20:06:14Z</time>
      </trkpt>
      <trkpt lat="42.92228193" lon="13.44297098">
        <ele>716.00000</ele>
        <time>2024-05-10T20:06:14Z</time>
      </trkpt>
      <trkpt lat="42.92230096" lon="13.44293796">
        <ele>717.00000</ele>
        <time>2024-05-10T20:06:15Z</time>
      </trkpt>
      <trkpt lat="42.92231395" lon="13.44289798">
        <ele>717.00000</ele>
        <time>2024-05-10T20:06:15Z</time>
      </trkpt>
      <trkpt lat="42.92233399" lon="13.44286093">
        <ele>717.00000</ele>
        <time>2024-05-10T20:06:16Z</time>
      </trkpt>
      <trkpt lat="42.92235293" lon="13.44282095">
        <ele>717.00000</ele>
        <time>2024-05-10T20:06:17Z</time>
      </trkpt>
      <trkpt lat="42.92236693" lon="13.44278398">
        <ele>717.00000</ele>
        <time>2024-05-10T20:06:17Z</time>
      </trkpt>
      <trkpt lat="42.92238394" lon="13.44274492">
        <ele>717.00000</ele>
        <time>2024-05-10T20:06:18Z</time>
      </trkpt>
      <trkpt lat="42.92240297" lon="13.44270595">
        <ele>717.00000</ele>
        <time>2024-05-10T20:06:19Z</time>
      </trkpt>
      <trkpt lat="42.92242191" lon="13.44266496">
        <ele>717.00000</ele>
        <time>2024-05-10T20:06:19Z</time>
      </trkpt>
      <trkpt lat="42.92244697" lon="13.44262397">
        <ele>717.00000</ele>
        <time>2024-05-10T20:06:20Z</time>
      </trkpt>
      <trkpt lat="42.92247497" lon="13.44257997">
        <ele>717.00000</ele>
        <time>2024-05-10T20:06:21Z</time>
      </trkpt>
      <trkpt lat="42.92250297" lon="13.44253898">
        <ele>718.00000</ele>
        <time>2024-05-10T20:06:22Z</time>
      </trkpt>
      <trkpt lat="42.92253599" lon="13.44250193">
        <ele>718.00000</ele>
        <time>2024-05-10T20:06:23Z</time>
      </trkpt>
      <trkpt lat="42.92256499" lon="13.44246991">
        <ele>718.00000</ele>
        <time>2024-05-10T20:06:24Z</time>
      </trkpt>
      <trkpt lat="42.92259793" lon="13.44243194">
        <ele>717.00000</ele>
        <time>2024-05-10T20:06:24Z</time>
      </trkpt>
      <trkpt lat="42.92262995" lon="13.44239498">
        <ele>717.00000</ele>
        <time>2024-05-10T20:06:25Z</time>
      </trkpt>
      <trkpt lat="42.92266298" lon="13.44235793">
        <ele>717.00000</ele>
        <time>2024-05-10T20:06:26Z</time>
      </trkpt>
      <trkpt lat="42.92269399" lon="13.44231896">
        <ele>717.00000</ele>
        <time>2024-05-10T20:06:27Z</time>
      </trkpt>
      <trkpt lat="42.92272391" lon="13.44227897">
        <ele>717.00000</ele>
        <time>2024-05-10T20:06:28Z</time>
      </trkpt>
      <trkpt lat="42.92274897" lon="13.44223095">
        <ele>716.00000</ele>
        <time>2024-05-10T20:06:29Z</time>
      </trkpt>
      <trkpt lat="42.92276691" lon="13.44218099">
        <ele>715.00000</ele>
        <time>2024-05-10T20:06:29Z</time>
      </trkpt>
      <trkpt lat="42.92277999" lon="13.44212693">
        <ele>714.00000</ele>
        <time>2024-05-10T20:06:30Z</time>
      </trkpt>
      <trkpt lat="42.92278896" lon="13.44207596">
        <ele>714.00000</ele>
        <time>2024-05-10T20:06:31Z</time>
      </trkpt>
      <trkpt lat="42.92279792" lon="13.44202492">
        <ele>713.00000</ele>
        <time>2024-05-10T20:06:32Z</time>
      </trkpt>
      <trkpt lat="42.92280899" lon="13.44198594">
        <ele>712.00000</ele>
        <time>2024-05-10T20:06:32Z</time>
      </trkpt>
      <trkpt lat="42.92282299" lon="13.44194596">
        <ele>712.00000</ele>
        <time>2024-05-10T20:06:33Z</time>
      </trkpt>
      <trkpt lat="42.92283196" lon="13.44190598">
        <ele>711.00000</ele>
        <time>2024-05-10T20:06:34Z</time>
      </trkpt>
      <trkpt lat="42.92284595" lon="13.44186893">
        <ele>710.00000</ele>
        <time>2024-05-10T20:06:34Z</time>
      </trkpt>
      <trkpt lat="42.92285894" lon="13.44182794">
        <ele>710.00000</ele>
        <time>2024-05-10T20:06:35Z</time>
      </trkpt>
      <trkpt lat="42.92287294" lon="13.44178696">
        <ele>709.00000</ele>
        <time>2024-05-10T20:06:36Z</time>
      </trkpt>
      <trkpt lat="42.92289298" lon="13.44175594">
        <ele>709.00000</ele>
        <time>2024-05-10T20:06:36Z</time>
      </trkpt>
      <trkpt lat="42.92291192" lon="13.44171898">
        <ele>709.00000</ele>
        <time>2024-05-10T20:06:37Z</time>
      </trkpt>
      <trkpt lat="42.92293195" lon="13.44168093">
        <ele>709.00000</ele>
        <time>2024-05-10T20:06:38Z</time>
      </trkpt>
      <trkpt lat="42.92295098" lon="13.44163994">
        <ele>709.00000</ele>
        <time>2024-05-10T20:06:38Z</time>
      </trkpt>
      <trkpt lat="42.92297193" lon="13.44160096">
        <ele>709.00000</ele>
        <time>2024-05-10T20:06:39Z</time>
      </trkpt>
      <trkpt lat="42.92299599" lon="13.44156693">
        <ele>710.00000</ele>
        <time>2024-05-10T20:06:40Z</time>
      </trkpt>
      <trkpt lat="42.92301996" lon="13.44153198">
        <ele>710.00000</ele>
        <time>2024-05-10T20:06:40Z</time>
      </trkpt>
      <trkpt lat="42.92304695" lon="13.44150097">
        <ele>710.00000</ele>
        <time>2024-05-10T20:06:41Z</time>
      </trkpt>
      <trkpt lat="42.92307394" lon="13.44146392">
        <ele>710.00000</ele>
        <time>2024-05-10T20:06:42Z</time>
      </trkpt>
      <trkpt lat="42.92310093" lon="13.44142695">
        <ele>710.00000</ele>
        <time>2024-05-10T20:06:43Z</time>
      </trkpt>
      <trkpt lat="42.92313295" lon="13.44139393">
        <ele>710.00000</ele>
        <time>2024-05-10T20:06:43Z</time>
      </trkpt>
      <trkpt lat="42.92316195" lon="13.44135696">
        <ele>710.00000</ele>
        <time>2024-05-10T20:06:44Z</time>
      </trkpt>
      <trkpt lat="42.92319095" lon="13.44131698">
        <ele>711.00000</ele>
        <time>2024-05-10T20:06:45Z</time>
      </trkpt>
      <trkpt lat="42.92321694" lon="13.44127499">
        <ele>711.00000</ele>
        <time>2024-05-10T20:06:46Z</time>
      </trkpt>
      <trkpt lat="42.92324191" lon="13.44123199">
        <ele>712.00000</ele>
        <time>2024-05-10T20:06:47Z</time>
      </trkpt>
      <trkpt lat="42.92326396" lon="13.44118497">
        <ele>712.00000</ele>
        <time>2024-05-10T20:06:48Z</time>
      </trkpt>
      <trkpt lat="42.92328299" lon="13.44113795">
        <ele>713.00000</ele>
        <time>2024-05-10T20:06:48Z</time>
      </trkpt>
      <trkpt lat="42.92330293" lon="13.44109394">
        <ele>714.00000</ele>
        <time>2024-05-10T20:06:49Z</time>
      </trkpt>
      <trkpt lat="42.92331794" lon="13.44104097">
        <ele>714.00000</ele>
        <time>2024-05-10T20:06:50Z</time>
      </trkpt>
      <trkpt lat="42.92333093" lon="13.44098699">
        <ele>714.00000</ele>
        <time>2024-05-10T20:06:51Z</time>
      </trkpt>
      <trkpt lat="42.92334099" lon="13.44093292">
        <ele>714.00000</ele>
        <time>2024-05-10T20:06:52Z</time>
      </trkpt>
      <trkpt lat="42.92334493" lon="13.44087895">
        <ele>714.00000</ele>
        <time>2024-05-10T20:06:52Z</time>
      </trkpt>
      <trkpt lat="42.92334794" lon="13.44083192">
        <ele>713.00000</ele>
        <time>2024-05-10T20:06:53Z</time>
      </trkpt>
      <trkpt lat="42.92334493" lon="13.44077694">
        <ele>713.00000</ele>
        <time>2024-05-10T20:06:54Z</time>
      </trkpt>
      <trkpt lat="42.92333596" lon="13.44072396">
        <ele>713.00000</ele>
        <time>2024-05-10T20:06:55Z</time>
      </trkpt>
      <trkpt lat="42.92332598" lon="13.44067191">
        <ele>713.00000</ele>
        <time>2024-05-10T20:06:55Z</time>
      </trkpt>
      <trkpt lat="42.92331299" lon="13.44061693">
        <ele>712.00000</ele>
        <time>2024-05-10T20:06:56Z</time>
      </trkpt>
      <trkpt lat="42.92329497" lon="13.44055993">
        <ele>712.00000</ele>
        <time>2024-05-10T20:06:57Z</time>
      </trkpt>
      <trkpt lat="42.92326698" lon="13.44050796">
        <ele>711.00000</ele>
        <time>2024-05-10T20:06:58Z</time>
      </trkpt>
      <trkpt lat="42.92323395" lon="13.44045398">
        <ele>710.00000</ele>
        <time>2024-05-10T20:06:59Z</time>
      </trkpt>
      <trkpt lat="42.92320394" lon="13.44039699">
        <ele>710.00000</ele>
        <time>2024-05-10T20:07:00Z</time>
      </trkpt>
      <trkpt lat="42.92317293" lon="13.44033496">
        <ele>710.00000</ele>
        <time>2024-05-10T20:07:01Z</time>
      </trkpt>
      <trkpt lat="42.92314192" lon="13.44027495">
        <ele>710.00000</ele>
        <time>2024-05-10T20:07:02Z</time>
      </trkpt>
      <trkpt lat="42.92311493" lon="13.44020898">
        <ele>711.00000</ele>
        <time>2024-05-10T20:07:03Z</time>
      </trkpt>
      <trkpt lat="42.92309096" lon="13.44013899">
        <ele>712.00000</ele>
        <time>2024-05-10T20:07:05Z</time>
      </trkpt>
      <trkpt lat="42.92306698" lon="13.44006699">
        <ele>713.00000</ele>
        <time>2024-05-10T20:07:06Z</time>
      </trkpt>
      <trkpt lat="42.92304494" lon="13.43999792">
        <ele>714.00000</ele>
        <time>2024-05-10T20:07:07Z</time>
      </trkpt>
      <trkpt lat="42.92302398" lon="13.43993296">
        <ele>715.00000</ele>
        <time>2024-05-10T20:07:08Z</time>
      </trkpt>
      <trkpt lat="42.92300797" lon="13.43986096">
        <ele>715.00000</ele>
        <time>2024-05-10T20:07:09Z</time>
      </trkpt>
      <trkpt lat="42.92299792" lon="13.43979299">
        <ele>716.00000</ele>
        <time>2024-05-10T20:07:10Z</time>
      </trkpt>
      <trkpt lat="42.92298995" lon="13.43972794">
        <ele>716.00000</ele>
        <time>2024-05-10T20:07:11Z</time>
      </trkpt>
      <trkpt lat="42.92298099" lon="13.43966592">
        <ele>717.00000</ele>
        <time>2024-05-10T20:07:12Z</time>
      </trkpt>
      <trkpt lat="42.92296992" lon="13.43960791">
        <ele>717.00000</ele>
        <time>2024-05-10T20:07:13Z</time>
      </trkpt>
      <trkpt lat="42.92295492" lon="13.43955293">
        <ele>717.00000</ele>
        <time>2024-05-10T20:07:14Z</time>
      </trkpt>
      <trkpt lat="42.92293991" lon="13.43950398">
        <ele>718.00000</ele>
        <time>2024-05-10T20:07:14Z</time>
      </trkpt>
      <trkpt lat="42.92292793" lon="13.43945897">
        <ele>719.00000</ele>
        <time>2024-05-10T20:07:15Z</time>
      </trkpt>
      <trkpt lat="42.92291393" lon="13.43941396">
        <ele>719.00000</ele>
        <time>2024-05-10T20:07:16Z</time>
      </trkpt>
      <trkpt lat="42.92289691" lon="13.43937993">
        <ele>719.00000</ele>
        <time>2024-05-10T20:07:16Z</time>
      </trkpt>
      <trkpt lat="42.92287797" lon="13.43934497">
        <ele>720.00000</ele>
        <time>2024-05-10T20:07:17Z</time>
      </trkpt>
      <trkpt lat="42.92286196" lon="13.43930792">
        <ele>721.00000</ele>
        <time>2024-05-10T20:07:18Z</time>
      </trkpt>
      <trkpt lat="42.92284193" lon="13.43926995">
        <ele>722.00000</ele>
        <time>2024-05-10T20:07:18Z</time>
      </trkpt>
      <trkpt lat="42.92281695" lon="13.43923794">
        <ele>723.00000</ele>
        <time>2024-05-10T20:07:19Z</time>
      </trkpt>
      <trkpt lat="42.92278996" lon="13.43920399">
        <ele>724.00000</ele>
        <time>2024-05-10T20:07:20Z</time>
      </trkpt>
      <trkpt lat="42.92276297" lon="13.43917398">
        <ele>725.00000</ele>
        <time>2024-05-10T20:07:21Z</time>
      </trkpt>
      <trkpt lat="42.92273699" lon="13.43914196">
        <ele>726.00000</ele>
        <time>2024-05-10T20:07:21Z</time>
      </trkpt>
      <trkpt lat="42.92271293" lon="13.43911296">
        <ele>727.00000</ele>
        <time>2024-05-10T20:07:22Z</time>
      </trkpt>
      <trkpt lat="42.92268594" lon="13.43908698">
        <ele>728.00000</ele>
        <time>2024-05-10T20:07:23Z</time>
      </trkpt>
      <trkpt lat="42.92265795" lon="13.43906493">
        <ele>730.00000</ele>
        <time>2024-05-10T20:07:23Z</time>
      </trkpt>
      <trkpt lat="42.92262895" lon="13.43904096">
        <ele>731.00000</ele>
        <time>2024-05-10T20:07:24Z</time>
      </trkpt>
      <trkpt lat="42.92260891" lon="13.43901397">
        <ele>732.00000</ele>
        <time>2024-05-10T20:07:24Z</time>
      </trkpt>
      <trkpt lat="42.92258595" lon="13.43898598">
        <ele>733.00000</ele>
        <time>2024-05-10T20:07:25Z</time>
      </trkpt>
      <trkpt lat="42.92256399" lon="13.43896091">
        <ele>734.00000</ele>
        <time>2024-05-10T20:07:26Z</time>
      </trkpt>
      <trkpt lat="42.92254295" lon="13.43893493">
        <ele>735.00000</ele>
        <time>2024-05-10T20:07:26Z</time>
      </trkpt>
      <trkpt lat="42.92252392" lon="13.43890291">
        <ele>735.00000</ele>
        <time>2024-05-10T20:07:27Z</time>
      </trkpt>
      <trkpt lat="42.92249894" lon="13.43886595">
        <ele>736.00000</ele>
        <time>2024-05-10T20:07:28Z</time>
      </trkpt>
      <trkpt lat="42.92247195" lon="13.43883493">
        <ele>737.00000</ele>
        <time>2024-05-10T20:07:28Z</time>
      </trkpt>
      <trkpt lat="42.92244496" lon="13.43880292">
        <ele>738.00000</ele>
        <time>2024-05-10T20:07:29Z</time>
      </trkpt>
      <trkpt lat="42.92242392" lon="13.43876595">
        <ele>739.00000</ele>
        <time>2024-05-10T20:07:30Z</time>
      </trkpt>
      <trkpt lat="42.92240398" lon="13.43872999">
        <ele>740.00000</ele>
        <time>2024-05-10T20:07:30Z</time>
      </trkpt>
      <trkpt lat="42.92238495" lon="13.43867995">
        <ele>740.00000</ele>
        <time>2024-05-10T20:07:31Z</time>
      </trkpt>
      <trkpt lat="42.92236894" lon="13.43863695">
        <ele>741.00000</ele>
        <time>2024-05-10T20:07:32Z</time>
      </trkpt>
      <trkpt lat="42.92235896" lon="13.43859094">
        <ele>741.00000</ele>
        <time>2024-05-10T20:07:33Z</time>
      </trkpt>
      <trkpt lat="42.92233994" lon="13.43854299">
        <ele>741.00000</ele>
        <time>2024-05-10T20:07:33Z</time>
      </trkpt>
      <trkpt lat="42.92232695" lon="13.43850192">
        <ele>741.00000</ele>
        <time>2024-05-10T20:07:34Z</time>
      </trkpt>
      <trkpt lat="42.92230792" lon="13.43846194">
        <ele>742.00000</ele>
        <time>2024-05-10T20:07:35Z</time>
      </trkpt>
      <trkpt lat="42.92228797" lon="13.43842397">
        <ele>743.00000</ele>
        <time>2024-05-10T20:07:35Z</time>
      </trkpt>
      <trkpt lat="42.92227498" lon="13.43838994">
        <ele>743.00000</ele>
        <time>2024-05-10T20:07:36Z</time>
      </trkpt>
      <trkpt lat="42.92226098" lon="13.43835297">
        <ele>744.00000</ele>
        <time>2024-05-10T20:07:37Z</time>
      </trkpt>
      <trkpt lat="42.92224396" lon="13.43832096">
        <ele>744.00000</ele>
        <time>2024-05-10T20:07:37Z</time>
      </trkpt>
      <trkpt lat="42.92222091" lon="13.43829195">
        <ele>745.00000</ele>
        <time>2024-05-10T20:07:38Z</time>
      </trkpt>
      <trkpt lat="42.92220197" lon="13.43825994">
        <ele>745.00000</ele>
        <time>2024-05-10T20:07:38Z</time>
      </trkpt>
      <trkpt lat="42.92217792" lon="13.43822792">
        <ele>745.00000</ele>
        <time>2024-05-10T20:07:39Z</time>
      </trkpt>
      <trkpt lat="42.92215294" lon="13.43819095">
        <ele>745.00000</ele>
        <time>2024-05-10T20:07:40Z</time>
      </trkpt>
      <trkpt lat="42.92213592" lon="13.43815499">
        <ele>745.00000</ele>
        <time>2024-05-10T20:07:40Z</time>
      </trkpt>
      <trkpt lat="42.92212293" lon="13.43811694">
        <ele>745.00000</ele>
        <time>2024-05-10T20:07:41Z</time>
      </trkpt>
      <trkpt lat="42.92210994" lon="13.43807294">
        <ele>744.00000</ele>
        <time>2024-05-10T20:07:42Z</time>
      </trkpt>
      <trkpt lat="42.92209493" lon="13.43803295">
        <ele>743.00000</ele>
        <time>2024-05-10T20:07:42Z</time>
      </trkpt>
      <trkpt lat="42.92208094" lon="13.43799398">
        <ele>742.00000</ele>
        <time>2024-05-10T20:07:43Z</time>
      </trkpt>
      <trkpt lat="42.92206292" lon="13.43795299">
        <ele>741.00000</ele>
        <time>2024-05-10T20:07:44Z</time>
      </trkpt>
      <trkpt lat="42.92204397" lon="13.43791594">
        <ele>741.00000</ele>
        <time>2024-05-10T20:07:44Z</time>
      </trkpt>
      <trkpt lat="42.92202495" lon="13.43788493">
        <ele>741.00000</ele>
        <time>2024-05-10T20:07:45Z</time>
      </trkpt>
      <trkpt lat="42.92200793" lon="13.43784797">
        <ele>740.00000</ele>
        <time>2024-05-10T20:07:46Z</time>
      </trkpt>
      <trkpt lat="42.92199393" lon="13.43781595">
        <ele>740.00000</ele>
        <time>2024-05-10T20:07:46Z</time>
      </trkpt>
      <trkpt lat="42.92197893" lon="13.43778099">
        <ele>739.00000</ele>
        <time>2024-05-10T20:07:47Z</time>
      </trkpt>
      <trkpt lat="42.92196493" lon="13.43774294">
        <ele>738.00000</ele>
        <time>2024-05-10T20:07:47Z</time>
      </trkpt>
      <trkpt lat="42.92194297" lon="13.43771394">
        <ele>738.00000</ele>
        <time>2024-05-10T20:07:48Z</time>
      </trkpt>
      <trkpt lat="42.92191891" lon="13.43768393">
        <ele>738.00000</ele>
        <time>2024-05-10T20:07:49Z</time>
      </trkpt>
      <trkpt lat="42.92190592" lon="13.43765292">
        <ele>737.00000</ele>
        <time>2024-05-10T20:07:49Z</time>
      </trkpt>
      <trkpt lat="42.92188899" lon="13.43762299">
        <ele>737.00000</ele>
        <time>2024-05-10T20:07:50Z</time>
      </trkpt>
      <trkpt lat="42.92188094" lon="13.43758595">
        <ele>736.00000</ele>
        <time>2024-05-10T20:07:50Z</time>
      </trkpt>
      <trkpt lat="42.92187994" lon="13.43754597">
        <ele>735.00000</ele>
        <time>2024-05-10T20:07:51Z</time>
      </trkpt>
      <trkpt lat="42.92187097" lon="13.43750892">
        <ele>734.00000</ele>
        <time>2024-05-10T20:07:51Z</time>
      </trkpt>
      <trkpt lat="42.92185999" lon="13.43747497">
        <ele>734.00000</ele>
        <time>2024-05-10T20:07:52Z</time>
      </trkpt>
      <trkpt lat="42.92184691" lon="13.43744094">
        <ele>734.00000</ele>
        <time>2024-05-10T20:07:53Z</time>
      </trkpt>
      <trkpt lat="42.92183099" lon="13.43741093">
        <ele>734.00000</ele>
        <time>2024-05-10T20:07:53Z</time>
      </trkpt>
      <trkpt lat="42.92181699" lon="13.43737891">
        <ele>733.00000</ele>
        <time>2024-05-10T20:07:54Z</time>
      </trkpt>
      <trkpt lat="42.92180593" lon="13.43734798">
        <ele>733.00000</ele>
        <time>2024-05-10T20:07:54Z</time>
      </trkpt>
      <trkpt lat="42.92179092" lon="13.43731496">
        <ele>733.00000</ele>
        <time>2024-05-10T20:07:55Z</time>
      </trkpt>
      <trkpt lat="42.92177692" lon="13.43728294">
        <ele>733.00000</ele>
        <time>2024-05-10T20:07:55Z</time>
      </trkpt>
      <trkpt lat="42.92176092" lon="13.43724992">
        <ele>733.00000</ele>
        <time>2024-05-10T20:07:56Z</time>
      </trkpt>
      <trkpt lat="42.92175396" lon="13.43721396">
        <ele>733.00000</ele>
        <time>2024-05-10T20:07:56Z</time>
      </trkpt>
      <trkpt lat="42.92174499" lon="13.43717993">
        <ele>733.00000</ele>
        <time>2024-05-10T20:07:57Z</time>
      </trkpt>
      <trkpt lat="42.92173099" lon="13.43714699">
        <ele>733.00000</ele>
        <time>2024-05-10T20:07:58Z</time>
      </trkpt>
      <trkpt lat="42.92171599" lon="13.43711597">
        <ele>733.00000</ele>
        <time>2024-05-10T20:07:58Z</time>
      </trkpt>
      <trkpt lat="42.92170593" lon="13.43707993">
        <ele>734.00000</ele>
        <time>2024-05-10T20:07:59Z</time>
      </trkpt>
      <trkpt lat="42.92169596" lon="13.43704598">
        <ele>734.00000</ele>
        <time>2024-05-10T20:07:59Z</time>
      </trkpt>
      <trkpt lat="42.92168498" lon="13.43701195">
        <ele>734.00000</ele>
        <time>2024-05-10T20:08:00Z</time>
      </trkpt>
      <trkpt lat="42.92167391" lon="13.43697591">
        <ele>734.00000</ele>
        <time>2024-05-10T20:08:00Z</time>
      </trkpt>
      <trkpt lat="42.92166494" lon="13.43694498">
        <ele>734.00000</ele>
        <time>2024-05-10T20:08:01Z</time>
      </trkpt>
      <trkpt lat="42.92166193" lon="13.43691095">
        <ele>734.00000</ele>
        <time>2024-05-10T20:08:01Z</time>
      </trkpt>
      <trkpt lat="42.92165698" lon="13.43687893">
        <ele>734.00000</ele>
        <time>2024-05-10T20:08:02Z</time>
      </trkpt>
      <trkpt lat="42.92164692" lon="13.43684893">
        <ele>733.00000</ele>
        <time>2024-05-10T20:08:02Z</time>
      </trkpt>
      <trkpt lat="42.92163795" lon="13.43681892">
        <ele>733.00000</ele>
        <time>2024-05-10T20:08:03Z</time>
      </trkpt>
      <trkpt lat="42.92163192" lon="13.43678799">
        <ele>733.00000</ele>
        <time>2024-05-10T20:08:03Z</time>
      </trkpt>
      <trkpt lat="42.92162295" lon="13.43675999">
        <ele>732.00000</ele>
        <time>2024-05-10T20:08:04Z</time>
      </trkpt>
      <trkpt lat="42.92161197" lon="13.43673594">
        <ele>732.00000</ele>
        <time>2024-05-10T20:08:04Z</time>
      </trkpt>
      <trkpt lat="42.92159697" lon="13.43671096">
        <ele>732.00000</ele>
        <time>2024-05-10T20:08:05Z</time>
      </trkpt>
      <trkpt lat="42.92158791" lon="13.43668095">
        <ele>732.00000</ele>
        <time>2024-05-10T20:08:05Z</time>
      </trkpt>
      <trkpt lat="42.92158096" lon="13.43664793">
        <ele>732.00000</ele>
        <time>2024-05-10T20:08:05Z</time>
      </trkpt>
      <trkpt lat="42.92156897" lon="13.43661993">
        <ele>733.00000</ele>
        <time>2024-05-10T20:08:06Z</time>
      </trkpt>
      <trkpt lat="42.92155195" lon="13.43659395">
        <ele>733.00000</ele>
        <time>2024-05-10T20:08:06Z</time>
      </trkpt>
      <trkpt lat="42.92153092" lon="13.43657098">
        <ele>734.00000</ele>
        <time>2024-05-10T20:08:07Z</time>
      </trkpt>
      <trkpt lat="42.92151097" lon="13.43654693">
        <ele>734.00000</ele>
        <time>2024-05-10T20:08:08Z</time>
      </trkpt>
      <trkpt lat="42.92149496" lon="13.43652396">
        <ele>735.00000</ele>
        <time>2024-05-10T20:08:08Z</time>
      </trkpt>
      <trkpt lat="42.92147794" lon="13.43650493">
        <ele>735.00000</ele>
        <time>2024-05-10T20:08:08Z</time>
      </trkpt>
      <trkpt lat="42.92146294" lon="13.43647794">
        <ele>736.00000</ele>
        <time>2024-05-10T20:08:09Z</time>
      </trkpt>
      <trkpt lat="42.92144693" lon="13.43645296">
        <ele>737.00000</ele>
        <time>2024-05-10T20:08:09Z</time>
      </trkpt>
      <trkpt lat="42.92143494" lon="13.43642195">
        <ele>737.00000</ele>
        <time>2024-05-10T20:08:10Z</time>
      </trkpt>
      <trkpt lat="42.92142497" lon="13.43639194">
        <ele>738.00000</ele>
        <time>2024-05-10T20:08:10Z</time>
      </trkpt>
      <trkpt lat="42.92141198" lon="13.43636194">
        <ele>739.00000</ele>
        <time>2024-05-10T20:08:11Z</time>
      </trkpt>
      <trkpt lat="42.92140292" lon="13.43633092">
        <ele>740.00000</ele>
        <time>2024-05-10T20:08:11Z</time>
      </trkpt>
      <trkpt lat="42.92138792" lon="13.43630393">
        <ele>741.00000</ele>
        <time>2024-05-10T20:08:12Z</time>
      </trkpt>
      <trkpt lat="42.92137292" lon="13.43627393">
        <ele>741.00000</ele>
        <time>2024-05-10T20:08:12Z</time>
      </trkpt>
      <trkpt lat="42.92135892" lon="13.43624593">
        <ele>742.00000</ele>
        <time>2024-05-10T20:08:13Z</time>
      </trkpt>
      <trkpt lat="42.92134392" lon="13.43622095">
        <ele>742.00000</ele>
        <time>2024-05-10T20:08:13Z</time>
      </trkpt>
      <trkpt lat="42.92132992" lon="13.43619899">
        <ele>743.00000</ele>
        <time>2024-05-10T20:08:14Z</time>
      </trkpt>
      <trkpt lat="42.92131491" lon="13.43617192">
        <ele>743.00000</ele>
        <time>2024-05-10T20:08:14Z</time>
      </trkpt>
      <trkpt lat="42.92130092" lon="13.43614292">
        <ele>744.00000</ele>
        <time>2024-05-10T20:08:15Z</time>
      </trkpt>
      <trkpt lat="42.92128692" lon="13.43611593">
        <ele>745.00000</ele>
        <time>2024-05-10T20:08:15Z</time>
      </trkpt>
      <trkpt lat="42.92127192" lon="13.43608894">
        <ele>745.00000</ele>
        <time>2024-05-10T20:08:16Z</time>
      </trkpt>
      <trkpt lat="42.92125197" lon="13.43606195">
        <ele>746.00000</ele>
        <time>2024-05-10T20:08:16Z</time>
      </trkpt>
      <trkpt lat="42.92123495" lon="13.43603798">
        <ele>746.00000</ele>
        <time>2024-05-10T20:08:17Z</time>
      </trkpt>
      <trkpt lat="42.92122095" lon="13.43601291">
        <ele>747.00000</ele>
        <time>2024-05-10T20:08:17Z</time>
      </trkpt>
      <trkpt lat="42.92120394" lon="13.43598693">
        <ele>747.00000</ele>
        <time>2024-05-10T20:08:18Z</time>
      </trkpt>
      <trkpt lat="42.92118298" lon="13.43596396">
        <ele>747.00000</ele>
        <time>2024-05-10T20:08:18Z</time>
      </trkpt>
      <trkpt lat="42.92116295" lon="13.43594293">
        <ele>748.00000</ele>
        <time>2024-05-10T20:08:19Z</time>
      </trkpt>
      <trkpt lat="42.92114594" lon="13.43592398">
        <ele>748.00000</ele>
        <time>2024-05-10T20:08:19Z</time>
      </trkpt>
      <trkpt lat="42.92112892" lon="13.43590294">
        <ele>748.00000</ele>
        <time>2024-05-10T20:08:20Z</time>
      </trkpt>
      <trkpt lat="42.92111392" lon="13.43587897">
        <ele>749.00000</ele>
        <time>2024-05-10T20:08:20Z</time>
      </trkpt>
      <trkpt lat="42.92109698" lon="13.43585198">
        <ele>749.00000</ele>
        <time>2024-05-10T20:08:21Z</time>
      </trkpt>
      <trkpt lat="42.92107494" lon="13.43583195">
        <ele>749.00000</ele>
        <time>2024-05-10T20:08:21Z</time>
      </trkpt>
      <trkpt lat="42.92104694" lon="13.43581695">
        <ele>750.00000</ele>
        <time>2024-05-10T20:08:22Z</time>
      </trkpt>
      <trkpt lat="42.92101996" lon="13.43580697">
        <ele>750.00000</ele>
        <time>2024-05-10T20:08:22Z</time>
      </trkpt>
      <trkpt lat="42.92099598" lon="13.43579297">
        <ele>750.00000</ele>
        <time>2024-05-10T20:08:23Z</time>
      </trkpt>
      <trkpt lat="42.92097796" lon="13.43577495">
        <ele>751.00000</ele>
        <time>2024-05-10T20:08:23Z</time>
      </trkpt>
      <trkpt lat="42.92096095" lon="13.43575199">
        <ele>751.00000</ele>
        <time>2024-05-10T20:08:24Z</time>
      </trkpt>
      <trkpt lat="42.92094192" lon="13.43572994">
        <ele>752.00000</ele>
        <time>2024-05-10T20:08:24Z</time>
      </trkpt>
      <trkpt lat="42.92092096" lon="13.43571393">
        <ele>752.00000</ele>
        <time>2024-05-10T20:08:25Z</time>
      </trkpt>
      <trkpt lat="42.92089791" lon="13.43569591">
        <ele>753.00000</ele>
        <time>2024-05-10T20:08:25Z</time>
      </trkpt>
      <trkpt lat="42.92087595" lon="13.43567999">
        <ele>754.00000</ele>
        <time>2024-05-10T20:08:26Z</time>
      </trkpt>
      <trkpt lat="42.92085098" lon="13.43566398">
        <ele>754.00000</ele>
        <time>2024-05-10T20:08:26Z</time>
      </trkpt>
      <trkpt lat="42.92082692" lon="13.43564998">
        <ele>755.00000</ele>
        <time>2024-05-10T20:08:27Z</time>
      </trkpt>
      <trkpt lat="42.92080295" lon="13.43563497">
        <ele>755.00000</ele>
        <time>2024-05-10T20:08:28Z</time>
      </trkpt>
      <trkpt lat="42.92077898" lon="13.43562793">
        <ele>756.00000</ele>
        <time>2024-05-10T20:08:28Z</time>
      </trkpt>
      <trkpt lat="42.92075693" lon="13.43562995">
        <ele>755.00000</ele>
        <time>2024-05-10T20:08:28Z</time>
      </trkpt>
      <trkpt lat="42.92073195" lon="13.43562693">
        <ele>755.00000</ele>
        <time>2024-05-10T20:08:29Z</time>
      </trkpt>
      <trkpt lat="42.92070999" lon="13.43561595">
        <ele>756.00000</ele>
        <time>2024-05-10T20:08:29Z</time>
      </trkpt>
      <trkpt lat="42.92068895" lon="13.43560698">
        <ele>756.00000</ele>
        <time>2024-05-10T20:08:30Z</time>
      </trkpt>
      <trkpt lat="42.92066599" lon="13.43560296">
        <ele>756.00000</ele>
        <time>2024-05-10T20:08:30Z</time>
      </trkpt>
      <trkpt lat="42.92064294" lon="13.43559399">
        <ele>756.00000</ele>
        <time>2024-05-10T20:08:31Z</time>
      </trkpt>
      <trkpt lat="42.92061695" lon="13.43558393">
        <ele>757.00000</ele>
        <time>2024-05-10T20:08:31Z</time>
      </trkpt>
      <trkpt lat="42.92058896" lon="13.43557999">
        <ele>757.00000</ele>
        <time>2024-05-10T20:08:32Z</time>
      </trkpt>
      <trkpt lat="42.92056297" lon="13.43557597">
        <ele>757.00000</ele>
        <time>2024-05-10T20:08:32Z</time>
      </trkpt>
      <trkpt lat="42.92053892" lon="13.43556599">
        <ele>757.00000</ele>
        <time>2024-05-10T20:08:33Z</time>
      </trkpt>
      <trkpt lat="42.92051595" lon="13.43556398">
        <ele>757.00000</ele>
        <time>2024-05-10T20:08:33Z</time>
      </trkpt>
      <trkpt lat="42.92049198" lon="13.43555392">
        <ele>757.00000</ele>
        <time>2024-05-10T20:08:34Z</time>
      </trkpt>
      <trkpt lat="42.92046692" lon="13.43554596">
        <ele>757.00000</ele>
        <time>2024-05-10T20:08:34Z</time>
      </trkpt>
      <trkpt lat="42.92044697" lon="13.43552894">
        <ele>757.00000</ele>
        <time>2024-05-10T20:08:35Z</time>
      </trkpt>
      <trkpt lat="42.92042794" lon="13.43550397">
        <ele>757.00000</ele>
        <time>2024-05-10T20:08:35Z</time>
      </trkpt>
      <trkpt lat="42.92041696" lon="13.43547597">
        <ele>757.00000</ele>
        <time>2024-05-10T20:08:36Z</time>
      </trkpt>
      <trkpt lat="42.92040799" lon="13.43543993">
        <ele>757.00000</ele>
        <time>2024-05-10T20:08:36Z</time>
      </trkpt>
      <trkpt lat="42.92039693" lon="13.43540992">
        <ele>757.00000</ele>
        <time>2024-05-10T20:08:37Z</time>
      </trkpt>
      <trkpt lat="42.92039592" lon="13.43537296">
        <ele>757.00000</ele>
        <time>2024-05-10T20:08:37Z</time>
      </trkpt>
      <trkpt lat="42.92039399" lon="13.43533993">
        <ele>758.00000</ele>
        <time>2024-05-10T20:08:38Z</time>
      </trkpt>
      <trkpt lat="42.92039592" lon="13.43530892">
        <ele>758.00000</ele>
        <time>2024-05-10T20:08:38Z</time>
      </trkpt>
      <trkpt lat="42.92039793" lon="13.43527095">
        <ele>758.00000</ele>
        <time>2024-05-10T20:08:39Z</time>
      </trkpt>
      <trkpt lat="42.92039693" lon="13.43522896">
        <ele>758.00000</ele>
        <time>2024-05-10T20:08:40Z</time>
      </trkpt>
      <trkpt lat="42.92039995" lon="13.43518998">
        <ele>759.00000</ele>
        <time>2024-05-10T20:08:40Z</time>
      </trkpt>
      <trkpt lat="42.92040598" lon="13.43515394">
        <ele>759.00000</ele>
        <time>2024-05-10T20:08:41Z</time>
      </trkpt>
      <trkpt lat="42.92040992" lon="13.43511697">
        <ele>759.00000</ele>
        <time>2024-05-10T20:08:41Z</time>
      </trkpt>
      <trkpt lat="42.92041193" lon="13.43508294">
        <ele>759.00000</ele>
        <time>2024-05-10T20:08:42Z</time>
      </trkpt>
      <trkpt lat="42.92041495" lon="13.43504497">
        <ele>760.00000</ele>
        <time>2024-05-10T20:08:42Z</time>
      </trkpt>
      <trkpt lat="42.92041696" lon="13.43500591">
        <ele>760.00000</ele>
        <time>2024-05-10T20:08:43Z</time>
      </trkpt>
      <trkpt lat="42.92041696" lon="13.43496895">
        <ele>760.00000</ele>
        <time>2024-05-10T20:08:43Z</time>
      </trkpt>
      <trkpt lat="42.92041093" lon="13.43493693">
        <ele>760.00000</ele>
        <time>2024-05-10T20:08:44Z</time>
      </trkpt>
      <trkpt lat="42.92040699" lon="13.43490298">
        <ele>761.00000</ele>
        <time>2024-05-10T20:08:44Z</time>
      </trkpt>
      <trkpt lat="42.92038897" lon="13.43487499">
        <ele>760.00000</ele>
        <time>2024-05-10T20:08:45Z</time>
      </trkpt>
      <trkpt lat="42.92037899" lon="13.43483794">
        <ele>761.00000</ele>
        <time>2024-05-10T20:08:46Z</time>
      </trkpt>
      <trkpt lat="42.92036893" lon="13.43480299">
        <ele>761.00000</ele>
        <time>2024-05-10T20:08:46Z</time>
      </trkpt>
      <trkpt lat="42.92035996" lon="13.43476996">
        <ele>761.00000</ele>
        <time>2024-05-10T20:08:47Z</time>
      </trkpt>
      <trkpt lat="42.92035393" lon="13.43473694">
        <ele>761.00000</ele>
        <time>2024-05-10T20:08:47Z</time>
      </trkpt>
      <trkpt lat="42.92034597" lon="13.43470098">
        <ele>761.00000</ele>
        <time>2024-05-10T20:08:48Z</time>
      </trkpt>
      <trkpt lat="42.92033893" lon="13.43467097">
        <ele>761.00000</ele>
        <time>2024-05-10T20:08:48Z</time>
      </trkpt>
      <trkpt lat="42.92032895" lon="13.43464197">
        <ele>761.00000</ele>
        <time>2024-05-10T20:08:49Z</time>
      </trkpt>
      <trkpt lat="42.92031797" lon="13.43461498">
        <ele>761.00000</ele>
        <time>2024-05-10T20:08:49Z</time>
      </trkpt>
      <trkpt lat="42.92030498" lon="13.43457994">
        <ele>761.00000</ele>
        <time>2024-05-10T20:08:50Z</time>
      </trkpt>
      <trkpt lat="42.92029299" lon="13.43454591">
        <ele>761.00000</ele>
        <time>2024-05-10T20:08:50Z</time>
      </trkpt>
      <trkpt lat="42.92027799" lon="13.43451297">
        <ele>761.00000</ele>
        <time>2024-05-10T20:08:51Z</time>
      </trkpt>
      <trkpt lat="42.92025997" lon="13.43448699">
        <ele>761.00000</ele>
        <time>2024-05-10T20:08:51Z</time>
      </trkpt>
      <trkpt lat="42.92024295" lon="13.43446495">
        <ele>760.00000</ele>
        <time>2024-05-10T20:08:52Z</time>
      </trkpt>
      <trkpt lat="42.92022493" lon="13.43444692">
        <ele>760.00000</ele>
        <time>2024-05-10T20:08:52Z</time>
      </trkpt>
      <trkpt lat="42.92020197" lon="13.43442798">
        <ele>759.00000</ele>
        <time>2024-05-10T20:08:53Z</time>
      </trkpt>
      <trkpt lat="42.92018193" lon="13.43440292">
        <ele>759.00000</ele>
        <time>2024-05-10T20:08:53Z</time>
      </trkpt>
      <trkpt lat="42.92016492" lon="13.43437895">
        <ele>759.00000</ele>
        <time>2024-05-10T20:08:54Z</time>
      </trkpt>
      <trkpt lat="42.92014899" lon="13.43434693">
        <ele>759.00000</ele>
        <time>2024-05-10T20:08:54Z</time>
      </trkpt>
      <trkpt lat="42.92013097" lon="13.43431591">
        <ele>759.00000</ele>
        <time>2024-05-10T20:08:55Z</time>
      </trkpt>
      <trkpt lat="42.92011496" lon="13.43428297">
        <ele>759.00000</ele>
        <time>2024-05-10T20:08:56Z</time>
      </trkpt>
      <trkpt lat="42.92010197" lon="13.43425297">
        <ele>759.00000</ele>
        <time>2024-05-10T20:08:56Z</time>
      </trkpt>
      <trkpt lat="42.92008697" lon="13.43421994">
        <ele>759.00000</ele>
        <time>2024-05-10T20:08:57Z</time>
      </trkpt>
      <trkpt lat="42.92007791" lon="13.43417996">
        <ele>759.00000</ele>
        <time>2024-05-10T20:08:57Z</time>
      </trkpt>
      <trkpt lat="42.92007498" lon="13.43413998">
        <ele>760.00000</ele>
        <time>2024-05-10T20:08:58Z</time>
      </trkpt>
      <trkpt lat="42.92007297" lon="13.43410192">
        <ele>760.00000</ele>
        <time>2024-05-10T20:08:58Z</time>
      </trkpt>
      <trkpt lat="42.92007096" lon="13.43406496">
        <ele>761.00000</ele>
        <time>2024-05-10T20:08:59Z</time>
      </trkpt>
      <trkpt lat="42.92007196" lon="13.43402397">
        <ele>761.00000</ele>
        <time>2024-05-10T20:09:00Z</time>
      </trkpt>
      <trkpt lat="42.92007397" lon="13.43398894">
        <ele>762.00000</ele>
        <time>2024-05-10T20:09:00Z</time>
      </trkpt>
      <trkpt lat="42.92007498" lon="13.43395298">
        <ele>763.00000</ele>
        <time>2024-05-10T20:09:01Z</time>
      </trkpt>
      <trkpt lat="42.92007791" lon="13.43391895">
        <ele>763.00000</ele>
        <time>2024-05-10T20:09:01Z</time>
      </trkpt>
      <trkpt lat="42.92008194" lon="13.43388693">
        <ele>764.00000</ele>
        <time>2024-05-10T20:09:02Z</time>
      </trkpt>
      <trkpt lat="42.92008697" lon="13.43385499">
        <ele>764.00000</ele>
        <time>2024-05-10T20:09:02Z</time>
      </trkpt>
      <trkpt lat="42.92009292" lon="13.43381694">
        <ele>764.00000</ele>
        <time>2024-05-10T20:09:03Z</time>
      </trkpt>
      <trkpt lat="42.92009895" lon="13.43378098">
        <ele>764.00000</ele>
        <time>2024-05-10T20:09:03Z</time>
      </trkpt>
      <trkpt lat="42.92010599" lon="13.43373899">
        <ele>764.00000</ele>
        <time>2024-05-10T20:09:04Z</time>
      </trkpt>
      <trkpt lat="42.92011295" lon="13.43370194">
        <ele>764.00000</ele>
        <time>2024-05-10T20:09:04Z</time>
      </trkpt>
      <trkpt lat="42.92011898" lon="13.43366799">
        <ele>764.00000</ele>
        <time>2024-05-10T20:09:05Z</time>
      </trkpt>
      <trkpt lat="42.92012393" lon="13.43363799">
        <ele>764.00000</ele>
        <time>2024-05-10T20:09:05Z</time>
      </trkpt>
      <trkpt lat="42.92013198" lon="13.43359893">
        <ele>764.00000</ele>
        <time>2024-05-10T20:09:06Z</time>
      </trkpt>
      <trkpt lat="42.92013692" lon="13.43355693">
        <ele>764.00000</ele>
        <time>2024-05-10T20:09:06Z</time>
      </trkpt>
      <trkpt lat="42.92014497" lon="13.43352198">
        <ele>764.00000</ele>
        <time>2024-05-10T20:09:07Z</time>
      </trkpt>
      <trkpt lat="42.92015796" lon="13.43349994">
        <ele>763.00000</ele>
        <time>2024-05-10T20:09:07Z</time>
      </trkpt>
      <trkpt lat="42.92017397" lon="13.43347898">
        <ele>763.00000</ele>
        <time>2024-05-10T20:09:08Z</time>
      </trkpt>
      <trkpt lat="42.92019895" lon="13.43346398">
        <ele>763.00000</ele>
        <time>2024-05-10T20:09:08Z</time>
      </trkpt>
      <trkpt lat="42.92022795" lon="13.43345995">
        <ele>763.00000</ele>
        <time>2024-05-10T20:09:09Z</time>
      </trkpt>
      <trkpt lat="42.92025695" lon="13.43346297">
        <ele>763.00000</ele>
        <time>2024-05-10T20:09:10Z</time>
      </trkpt>
      <trkpt lat="42.92028495" lon="13.43346892">
        <ele>763.00000</ele>
        <time>2024-05-10T20:09:10Z</time>
      </trkpt>
      <trkpt lat="42.92031596" lon="13.43347596">
        <ele>763.00000</ele>
        <time>2024-05-10T20:09:11Z</time>
      </trkpt>
      <trkpt lat="42.92034697" lon="13.43348896">
        <ele>762.00000</ele>
        <time>2024-05-10T20:09:11Z</time>
      </trkpt>
      <trkpt lat="42.92037296" lon="13.43349792">
        <ele>762.00000</ele>
        <time>2024-05-10T20:09:12Z</time>
      </trkpt>
      <trkpt lat="42.92040497" lon="13.43350094">
        <ele>762.00000</ele>
        <time>2024-05-10T20:09:13Z</time>
      </trkpt>
      <trkpt lat="42.92044395" lon="13.43350798">
        <ele>762.00000</ele>
        <time>2024-05-10T20:09:13Z</time>
      </trkpt>
      <trkpt lat="42.92047999" lon="13.43351494">
        <ele>761.00000</ele>
        <time>2024-05-10T20:09:14Z</time>
      </trkpt>
      <trkpt lat="42.92051696" lon="13.43352491">
        <ele>761.00000</ele>
        <time>2024-05-10T20:09:15Z</time>
      </trkpt>
      <trkpt lat="42.92055694" lon="13.43353799">
        <ele>761.00000</ele>
        <time>2024-05-10T20:09:16Z</time>
      </trkpt>
      <trkpt lat="42.92059793" lon="13.43355593">
        <ele>761.00000</ele>
        <time>2024-05-10T20:09:17Z</time>
      </trkpt>
      <trkpt lat="42.92063992" lon="13.43356498">
        <ele>761.00000</ele>
        <time>2024-05-10T20:09:17Z</time>
      </trkpt>
      <trkpt lat="42.92067898" lon="13.43357194">
        <ele>761.00000</ele>
        <time>2024-05-10T20:09:18Z</time>
      </trkpt>
      <trkpt lat="42.92072097" lon="13.43357797">
        <ele>761.00000</ele>
        <time>2024-05-10T20:09:19Z</time>
      </trkpt>
      <trkpt lat="42.92076297" lon="13.43358191">
        <ele>761.00000</ele>
        <time>2024-05-10T20:09:20Z</time>
      </trkpt>
      <trkpt lat="42.92079993" lon="13.43359499">
        <ele>761.00000</ele>
        <time>2024-05-10T20:09:21Z</time>
      </trkpt>
      <trkpt lat="42.92084293" lon="13.43360295">
        <ele>761.00000</ele>
        <time>2024-05-10T20:09:22Z</time>
      </trkpt>
      <trkpt lat="42.92088693" lon="13.43360295">
        <ele>761.00000</ele>
        <time>2024-05-10T20:09:22Z</time>
      </trkpt>
      <trkpt lat="42.92093195" lon="13.43360697">
        <ele>762.00000</ele>
        <time>2024-05-10T20:09:23Z</time>
      </trkpt>
      <trkpt lat="42.92097494" lon="13.43360597">
        <ele>762.00000</ele>
        <time>2024-05-10T20:09:24Z</time>
      </trkpt>
      <trkpt lat="42.92101895" lon="13.43360496">
        <ele>762.00000</ele>
        <time>2024-05-10T20:09:25Z</time>
      </trkpt>
      <trkpt lat="42.92106295" lon="13.43359993">
        <ele>762.00000</ele>
        <time>2024-05-10T20:09:26Z</time>
      </trkpt>
      <trkpt lat="42.92110595" lon="13.43359499">
        <ele>762.00000</ele>
        <time>2024-05-10T20:09:27Z</time>
      </trkpt>
      <trkpt lat="42.92114795" lon="13.43358694">
        <ele>762.00000</ele>
        <time>2024-05-10T20:09:28Z</time>
      </trkpt>
      <trkpt lat="42.92118793" lon="13.43357093">
        <ele>761.00000</ele>
        <time>2024-05-10T20:09:28Z</time>
      </trkpt>
      <trkpt lat="42.92122397" lon="13.43355794">
        <ele>761.00000</ele>
        <time>2024-05-10T20:09:29Z</time>
      </trkpt>
      <trkpt lat="42.92125892" lon="13.43354796">
        <ele>761.00000</ele>
        <time>2024-05-10T20:09:30Z</time>
      </trkpt>
      <trkpt lat="42.92129597" lon="13.43354294">
        <ele>762.00000</ele>
        <time>2024-05-10T20:09:31Z</time>
      </trkpt>
      <trkpt lat="42.92133193" lon="13.43353497">
        <ele>762.00000</ele>
        <time>2024-05-10T20:09:31Z</time>
      </trkpt>
      <trkpt lat="42.92136998" lon="13.43352299">
        <ele>762.00000</ele>
        <time>2024-05-10T20:09:32Z</time>
      </trkpt>
      <trkpt lat="42.92140494" lon="13.43350999">
        <ele>762.00000</ele>
        <time>2024-05-10T20:09:33Z</time>
      </trkpt>
      <trkpt lat="42.92143796" lon="13.43350094">
        <ele>762.00000</ele>
        <time>2024-05-10T20:09:34Z</time>
      </trkpt>
      <trkpt lat="42.92147392" lon="13.43348996">
        <ele>762.00000</ele>
        <time>2024-05-10T20:09:34Z</time>
      </trkpt>
      <trkpt lat="42.92150896" lon="13.43347999">
        <ele>763.00000</ele>
        <time>2024-05-10T20:09:35Z</time>
      </trkpt>
      <trkpt lat="42.92153695" lon="13.43346892">
        <ele>763.00000</ele>
        <time>2024-05-10T20:09:36Z</time>
      </trkpt>
      <trkpt lat="42.92156394" lon="13.43346197">
        <ele>763.00000</ele>
        <time>2024-05-10T20:09:36Z</time>
      </trkpt>
      <trkpt lat="42.92159294" lon="13.43345694">
        <ele>763.00000</ele>
        <time>2024-05-10T20:09:37Z</time>
      </trkpt>
      <trkpt lat="42.92162396" lon="13.43345099">
        <ele>764.00000</ele>
        <time>2024-05-10T20:09:37Z</time>
      </trkpt>
      <trkpt lat="42.92165497" lon="13.43344897">
        <ele>764.00000</ele>
        <time>2024-05-10T20:09:38Z</time>
      </trkpt>
      <trkpt lat="42.92167995" lon="13.43344193">
        <ele>764.00000</ele>
        <time>2024-05-10T20:09:38Z</time>
      </trkpt>
      <trkpt lat="42.92170694" lon="13.43344495">
        <ele>764.00000</ele>
        <time>2024-05-10T20:09:39Z</time>
      </trkpt>
      <trkpt lat="42.92173292" lon="13.43345694">
        <ele>764.00000</ele>
        <time>2024-05-10T20:09:40Z</time>
      </trkpt>
      <trkpt lat="42.92175698" lon="13.43347596">
        <ele>765.00000</ele>
        <time>2024-05-10T20:09:40Z</time>
      </trkpt>
      <trkpt lat="42.92177793" lon="13.43349893">
        <ele>765.00000</ele>
        <time>2024-05-10T20:09:41Z</time>
      </trkpt>
      <trkpt lat="42.92179696" lon="13.43351695">
        <ele>765.00000</ele>
        <time>2024-05-10T20:09:41Z</time>
      </trkpt>
      <trkpt lat="42.92181598" lon="13.43353698">
        <ele>766.00000</ele>
        <time>2024-05-10T20:09:42Z</time>
      </trkpt>
      <trkpt lat="42.92183694" lon="13.43356196">
        <ele>767.00000</ele>
        <time>2024-05-10T20:09:42Z</time>
      </trkpt>
      <trkpt lat="42.92185697" lon="13.43358795">
        <ele>767.00000</ele>
        <time>2024-05-10T20:09:43Z</time>
      </trkpt>
      <trkpt lat="42.92187499" lon="13.43361795">
        <ele>768.00000</ele>
        <time>2024-05-10T20:09:43Z</time>
      </trkpt>
      <trkpt lat="42.92188991" lon="13.43364595">
        <ele>768.00000</ele>
        <time>2024-05-10T20:09:44Z</time>
      </trkpt>
      <trkpt lat="42.92190793" lon="13.43367696">
        <ele>769.00000</ele>
        <time>2024-05-10T20:09:44Z</time>
      </trkpt>
      <trkpt lat="42.92192797" lon="13.43370798">
        <ele>769.00000</ele>
        <time>2024-05-10T20:09:45Z</time>
      </trkpt>
      <trkpt lat="42.92194792" lon="13.43373195">
        <ele>770.00000</ele>
        <time>2024-05-10T20:09:46Z</time>
      </trkpt>
      <trkpt lat="42.92196795" lon="13.43376195">
        <ele>770.00000</ele>
        <time>2024-05-10T20:09:46Z</time>
      </trkpt>
      <trkpt lat="42.92198094" lon="13.43379699">
        <ele>770.00000</ele>
        <time>2024-05-10T20:09:47Z</time>
      </trkpt>
      <trkpt lat="42.92200399" lon="13.43382691">
        <ele>770.00000</ele>
        <time>2024-05-10T20:09:47Z</time>
      </trkpt>
      <trkpt lat="42.92202595" lon="13.43385793">
        <ele>770.00000</ele>
        <time>2024-05-10T20:09:48Z</time>
      </trkpt>
      <trkpt lat="42.92204196" lon="13.43389498">
        <ele>770.00000</ele>
        <time>2024-05-10T20:09:49Z</time>
      </trkpt>
      <trkpt lat="42.92206099" lon="13.43392993">
        <ele>770.00000</ele>
        <time>2024-05-10T20:09:49Z</time>
      </trkpt>
      <trkpt lat="42.92208094" lon="13.43396094">
        <ele>770.00000</ele>
        <time>2024-05-10T20:09:50Z</time>
      </trkpt>
      <trkpt lat="42.92210499" lon="13.43399698">
        <ele>770.00000</ele>
        <time>2024-05-10T20:09:51Z</time>
      </trkpt>
      <trkpt lat="42.92212896" lon="13.43402699">
        <ele>770.00000</ele>
        <time>2024-05-10T20:09:51Z</time>
      </trkpt>
      <trkpt lat="42.92215696" lon="13.43405993">
        <ele>769.00000</ele>
        <time>2024-05-10T20:09:52Z</time>
      </trkpt>
      <trkpt lat="42.92218395" lon="13.43409497">
        <ele>769.00000</ele>
        <time>2024-05-10T20:09:53Z</time>
      </trkpt>
      <trkpt lat="42.92221295" lon="13.43413394">
        <ele>768.00000</ele>
        <time>2024-05-10T20:09:54Z</time>
      </trkpt>
      <trkpt lat="42.92224195" lon="13.43416797">
        <ele>768.00000</ele>
        <time>2024-05-10T20:09:54Z</time>
      </trkpt>
      <trkpt lat="42.92227598" lon="13.43420293">
        <ele>768.00000</ele>
        <time>2024-05-10T20:09:55Z</time>
      </trkpt>
      <trkpt lat="42.92230691" lon="13.43423897">
        <ele>767.00000</ele>
        <time>2024-05-10T20:09:56Z</time>
      </trkpt>
      <trkpt lat="42.92233793" lon="13.43427895">
        <ele>767.00000</ele>
        <time>2024-05-10T20:09:57Z</time>
      </trkpt>
      <trkpt lat="42.92236994" lon="13.43432497">
        <ele>767.00000</ele>
        <time>2024-05-10T20:09:58Z</time>
      </trkpt>
      <trkpt lat="42.92240196" lon="13.43436595">
        <ele>767.00000</ele>
        <time>2024-05-10T20:09:59Z</time>
      </trkpt>
      <trkpt lat="42.92243096" lon="13.43440996">
        <ele>767.00000</ele>
        <time>2024-05-10T20:09:59Z</time>
      </trkpt>
      <trkpt lat="42.92246198" lon="13.43446193">
        <ele>767.00000</ele>
        <time>2024-05-10T20:10:00Z</time>
      </trkpt>
      <trkpt lat="42.92249299" lon="13.43451096">
        <ele>767.00000</ele>
        <time>2024-05-10T20:10:01Z</time>
      </trkpt>
      <trkpt lat="42.92252493" lon="13.43456092">
        <ele>767.00000</ele>
        <time>2024-05-10T20:10:02Z</time>
      </trkpt>
      <trkpt lat="42.92255795" lon="13.43460895">
        <ele>766.00000</ele>
        <time>2024-05-10T20:10:03Z</time>
      </trkpt>
      <trkpt lat="42.92258997" lon="13.43465195">
        <ele>766.00000</ele>
        <time>2024-05-10T20:10:04Z</time>
      </trkpt>
      <trkpt lat="42.92261998" lon="13.43469494">
        <ele>766.00000</ele>
        <time>2024-05-10T20:10:05Z</time>
      </trkpt>
      <trkpt lat="42.92264797" lon="13.43473895">
        <ele>765.00000</ele>
        <time>2024-05-10T20:10:06Z</time>
      </trkpt>
      <trkpt lat="42.92267899" lon="13.43478899">
        <ele>765.00000</ele>
        <time>2024-05-10T20:10:07Z</time>
      </trkpt>
      <trkpt lat="42.92271193" lon="13.43483693">
        <ele>764.00000</ele>
        <time>2024-05-10T20:10:08Z</time>
      </trkpt>
      <trkpt lat="42.92274696" lon="13.43488798">
        <ele>763.00000</ele>
        <time>2024-05-10T20:10:09Z</time>
      </trkpt>
      <trkpt lat="42.92278292" lon="13.43493592">
        <ele>762.00000</ele>
        <time>2024-05-10T20:10:10Z</time>
      </trkpt>
      <trkpt lat="42.92282299" lon="13.43498596">
        <ele>762.00000</ele>
        <time>2024-05-10T20:10:11Z</time>
      </trkpt>
      <trkpt lat="42.92286498" lon="13.43503198">
        <ele>762.00000</ele>
        <time>2024-05-10T20:10:12Z</time>
      </trkpt>
      <trkpt lat="42.92290999" lon="13.43506693">
        <ele>761.00000</ele>
        <time>2024-05-10T20:10:13Z</time>
      </trkpt>
      <trkpt lat="42.92295894" lon="13.43509593">
        <ele>761.00000</ele>
        <time>2024-05-10T20:10:14Z</time>
      </trkpt>
      <trkpt lat="42.92300797" lon="13.43512192">
        <ele>760.00000</ele>
        <time>2024-05-10T20:10:15Z</time>
      </trkpt>
      <trkpt lat="42.92306195" lon="13.43514799">
        <ele>760.00000</ele>
        <time>2024-05-10T20:10:16Z</time>
      </trkpt>
      <trkpt lat="42.92311493" lon="13.43517598">
        <ele>760.00000</ele>
        <time>2024-05-10T20:10:18Z</time>
      </trkpt>
      <trkpt lat="42.92316497" lon="13.43520297">
        <ele>761.00000</ele>
        <time>2024-05-10T20:10:19Z</time>
      </trkpt>
      <trkpt lat="42.92322498" lon="13.43523591">
        <ele>761.00000</ele>
        <time>2024-05-10T20:10:20Z</time>
      </trkpt>
      <trkpt lat="42.92328793" lon="13.43527598">
        <ele>761.00000</ele>
        <time>2024-05-10T20:10:21Z</time>
      </trkpt>
      <trkpt lat="42.92335599" lon="13.43530992">
        <ele>761.00000</ele>
        <time>2024-05-10T20:10:23Z</time>
      </trkpt>
      <trkpt lat="42.92343294" lon="13.43532895">
        <ele>761.00000</ele>
        <time>2024-05-10T20:10:24Z</time>
      </trkpt>
      <trkpt lat="42.92351399" lon="13.43533792">
        <ele>760.00000</ele>
        <time>2024-05-10T20:10:26Z</time>
      </trkpt>
      <trkpt lat="42.92359999" lon="13.43532493">
        <ele>760.00000</ele>
        <time>2024-05-10T20:10:28Z</time>
      </trkpt>
      <trkpt lat="42.92369797" lon="13.43529995">
        <ele>760.00000</ele>
        <time>2024-05-10T20:10:30Z</time>
      </trkpt>
      <trkpt lat="42.92380291" lon="13.43526894">
        <ele>759.00000</ele>
        <time>2024-05-10T20:10:32Z</time>
      </trkpt>
      <trkpt lat="42.92390794" lon="13.43522996">
        <ele>758.00000</ele>
        <time>2024-05-10T20:10:34Z</time>
      </trkpt>
      <trkpt lat="42.92401598" lon="13.43517892">
        <ele>757.00000</ele>
        <time>2024-05-10T20:10:36Z</time>
      </trkpt>
      <trkpt lat="42.92412495" lon="13.43511697">
        <ele>756.00000</ele>
        <time>2024-05-10T20:10:39Z</time>
      </trkpt>
      <trkpt lat="42.92423592" lon="13.43505796">
        <ele>755.00000</ele>
        <time>2024-05-10T20:10:41Z</time>
      </trkpt>
      <trkpt lat="42.92434799" lon="13.43498094">
        <ele>754.00000</ele>
        <time>2024-05-10T20:10:44Z</time>
      </trkpt>
      <trkpt lat="42.92445997" lon="13.43489795">
        <ele>753.00000</ele>
        <time>2024-05-10T20:10:46Z</time>
      </trkpt>
      <trkpt lat="42.92456994" lon="13.43481095">
        <ele>752.00000</ele>
        <time>2024-05-10T20:10:49Z</time>
      </trkpt>
      <trkpt lat="42.92468092" lon="13.43472495">
        <ele>749.00000</ele>
        <time>2024-05-10T20:10:51Z</time>
      </trkpt>
      <trkpt lat="42.92479299" lon="13.43464993">
        <ele>747.00000</ele>
        <time>2024-05-10T20:10:54Z</time>
      </trkpt>
      <trkpt lat="42.92490698" lon="13.43459998">
        <ele>746.00000</ele>
        <time>2024-05-10T20:10:56Z</time>
      </trkpt>
      <trkpt lat="42.92501091" lon="13.43455296">
        <ele>746.00000</ele>
        <time>2024-05-10T20:10:58Z</time>
      </trkpt>
      <trkpt lat="42.92511192" lon="13.43447794">
        <ele>747.00000</ele>
        <time>2024-05-10T20:11:01Z</time>
      </trkpt>
      <trkpt lat="42.92516598" lon="13.43437098">
        <ele>745.00000</ele>
        <time>2024-05-10T20:11:02Z</time>
      </trkpt>
      <trkpt lat="42.92521292" lon="13.43424391">
        <ele>744.00000</ele>
        <time>2024-05-10T20:11:05Z</time>
      </trkpt>
      <trkpt lat="42.92527897" lon="13.43415993">
        <ele>743.00000</ele>
        <time>2024-05-10T20:11:06Z</time>
      </trkpt>
      <trkpt lat="42.92535994" lon="13.43410394">
        <ele>745.00000</ele>
        <time>2024-05-10T20:11:08Z</time>
      </trkpt>
      <trkpt lat="42.92543294" lon="13.43404593">
        <ele>746.00000</ele>
        <time>2024-05-10T20:11:10Z</time>
      </trkpt>
      <trkpt lat="42.92550293" lon="13.43398592">
        <ele>747.00000</ele>
        <time>2024-05-10T20:11:11Z</time>
      </trkpt>
      <trkpt lat="42.92556094" lon="13.43390797">
        <ele>747.00000</ele>
        <time>2024-05-10T20:11:13Z</time>
      </trkpt>
      <trkpt lat="42.92559798" lon="13.43381593">
        <ele>746.00000</ele>
        <time>2024-05-10T20:11:15Z</time>
      </trkpt>
      <trkpt lat="42.92560695" lon="13.43371795">
        <ele>745.00000</ele>
        <time>2024-05-10T20:11:16Z</time>
      </trkpt>
      <trkpt lat="42.92559195" lon="13.43362692">
        <ele>744.00000</ele>
        <time>2024-05-10T20:11:17Z</time>
      </trkpt>
      <trkpt lat="42.92555993" lon="13.43355794">
        <ele>744.00000</ele>
        <time>2024-05-10T20:11:19Z</time>
      </trkpt>
      <trkpt lat="42.92552699" lon="13.43349692">
        <ele>744.00000</ele>
        <time>2024-05-10T20:11:20Z</time>
      </trkpt>
      <trkpt lat="42.92548793" lon="13.43344696">
        <ele>743.00000</ele>
        <time>2024-05-10T20:11:21Z</time>
      </trkpt>
      <trkpt lat="42.92545096" lon="13.43339298">
        <ele>743.00000</ele>
        <time>2024-05-10T20:11:22Z</time>
      </trkpt>
      <trkpt lat="42.92542096" lon="13.43333196">
        <ele>743.00000</ele>
        <time>2024-05-10T20:11:23Z</time>
      </trkpt>
      <trkpt lat="42.92539699" lon="13.43326197">
        <ele>743.00000</ele>
        <time>2024-05-10T20:11:24Z</time>
      </trkpt>
      <trkpt lat="42.92538198" lon="13.43319098">
        <ele>743.00000</ele>
        <time>2024-05-10T20:11:25Z</time>
      </trkpt>
      <trkpt lat="42.92538198" lon="13.43312191">
        <ele>744.00000</ele>
        <time>2024-05-10T20:11:26Z</time>
      </trkpt>
      <trkpt lat="42.92538492" lon="13.43305896">
        <ele>744.00000</ele>
        <time>2024-05-10T20:11:27Z</time>
      </trkpt>
      <trkpt lat="42.92538894" lon="13.43300096">
        <ele>744.00000</ele>
        <time>2024-05-10T20:11:28Z</time>
      </trkpt>
      <trkpt lat="42.92539799" lon="13.43295394">
        <ele>745.00000</ele>
        <time>2024-05-10T20:11:29Z</time>
      </trkpt>
      <trkpt lat="42.92541199" lon="13.43291094">
        <ele>745.00000</ele>
        <time>2024-05-10T20:11:29Z</time>
      </trkpt>
      <trkpt lat="42.92542297" lon="13.43286291">
        <ele>746.00000</ele>
        <time>2024-05-10T20:11:30Z</time>
      </trkpt>
      <trkpt lat="42.92543496" lon="13.43282394">
        <ele>746.00000</ele>
        <time>2024-05-10T20:11:31Z</time>
      </trkpt>
      <trkpt lat="42.92545096" lon="13.43279091">
        <ele>747.00000</ele>
        <time>2024-05-10T20:11:31Z</time>
      </trkpt>
      <trkpt lat="42.92547091" lon="13.43275898">
        <ele>747.00000</ele>
        <time>2024-05-10T20:11:32Z</time>
      </trkpt>
      <trkpt lat="42.92548994" lon="13.43272796">
        <ele>748.00000</ele>
        <time>2024-05-10T20:11:33Z</time>
      </trkpt>
      <trkpt lat="42.92551098" lon="13.43269695">
        <ele>748.00000</ele>
        <time>2024-05-10T20:11:33Z</time>
      </trkpt>
      <trkpt lat="42.92553395" lon="13.43266594">
        <ele>748.00000</ele>
        <time>2024-05-10T20:11:34Z</time>
      </trkpt>
      <trkpt lat="42.92555498" lon="13.43263593">
        <ele>748.00000</ele>
        <time>2024-05-10T20:11:34Z</time>
      </trkpt>
      <trkpt lat="42.92557795" lon="13.43259796">
        <ele>748.00000</ele>
        <time>2024-05-10T20:11:35Z</time>
      </trkpt>
      <trkpt lat="42.92560092" lon="13.43256393">
        <ele>748.00000</ele>
        <time>2024-05-10T20:11:36Z</time>
      </trkpt>
      <trkpt lat="42.92562196" lon="13.43252797">
        <ele>748.00000</ele>
        <time>2024-05-10T20:11:37Z</time>
      </trkpt>
      <trkpt lat="42.92564995" lon="13.43248397">
        <ele>747.00000</ele>
        <time>2024-05-10T20:11:37Z</time>
      </trkpt>
      <trkpt lat="42.92567895" lon="13.43243996">
        <ele>747.00000</ele>
        <time>2024-05-10T20:11:38Z</time>
      </trkpt>
      <trkpt lat="42.92570594" lon="13.43239394">
        <ele>747.00000</ele>
        <time>2024-05-10T20:11:39Z</time>
      </trkpt>
      <trkpt lat="42.92573796" lon="13.43234793">
        <ele>746.00000</ele>
        <time>2024-05-10T20:11:40Z</time>
      </trkpt>
      <trkpt lat="42.92577099" lon="13.43229797">
        <ele>746.00000</ele>
        <time>2024-05-10T20:11:41Z</time>
      </trkpt>
      <trkpt lat="42.92580493" lon="13.43224491">
        <ele>746.00000</ele>
        <time>2024-05-10T20:11:42Z</time>
      </trkpt>
      <trkpt lat="42.92583796" lon="13.43219697">
        <ele>746.00000</ele>
        <time>2024-05-10T20:11:43Z</time>
      </trkpt>
      <trkpt lat="42.92587492" lon="13.43215095">
        <ele>745.00000</ele>
        <time>2024-05-10T20:11:44Z</time>
      </trkpt>
      <trkpt lat="42.92591792" lon="13.43210695">
        <ele>744.00000</ele>
        <time>2024-05-10T20:11:45Z</time>
      </trkpt>
      <trkpt lat="42.92595497" lon="13.43205791">
        <ele>743.00000</ele>
        <time>2024-05-10T20:11:46Z</time>
      </trkpt>
      <trkpt lat="42.92598992" lon="13.43199899">
        <ele>743.00000</ele>
        <time>2024-05-10T20:11:47Z</time>
      </trkpt>
      <trkpt lat="42.92602697" lon="13.43194593">
        <ele>744.00000</ele>
        <time>2024-05-10T20:11:48Z</time>
      </trkpt>
      <trkpt lat="42.92606796" lon="13.43189195">
        <ele>744.00000</ele>
        <time>2024-05-10T20:11:49Z</time>
      </trkpt>
      <trkpt lat="42.92611397" lon="13.43183797">
        <ele>744.00000</ele>
        <time>2024-05-10T20:11:51Z</time>
      </trkpt>
      <trkpt lat="42.92615999" lon="13.43178399">
        <ele>743.00000</ele>
        <time>2024-05-10T20:11:52Z</time>
      </trkpt>
      <trkpt lat="42.92620592" lon="13.43173597">
        <ele>743.00000</ele>
        <time>2024-05-10T20:11:53Z</time>
      </trkpt>
      <trkpt lat="42.92625496" lon="13.43168199">
        <ele>743.00000</ele>
        <time>2024-05-10T20:11:54Z</time>
      </trkpt>
      <trkpt lat="42.92630399" lon="13.43162599">
        <ele>743.00000</ele>
        <time>2024-05-10T20:11:56Z</time>
      </trkpt>
      <trkpt lat="42.92634699" lon="13.43156799">
        <ele>743.00000</ele>
        <time>2024-05-10T20:11:57Z</time>
      </trkpt>
      <trkpt lat="42.92638898" lon="13.43150597">
        <ele>744.00000</ele>
        <time>2024-05-10T20:11:58Z</time>
      </trkpt>
      <trkpt lat="42.92643198" lon="13.43143799">
        <ele>745.00000</ele>
        <time>2024-05-10T20:11:59Z</time>
      </trkpt>
      <trkpt lat="42.92646794" lon="13.43137093">
        <ele>745.00000</ele>
        <time>2024-05-10T20:12:01Z</time>
      </trkpt>
      <trkpt lat="42.92650499" lon="13.43130094">
        <ele>745.00000</ele>
        <time>2024-05-10T20:12:02Z</time>
      </trkpt>
      <trkpt lat="42.92653994" lon="13.43123397">
        <ele>745.00000</ele>
        <time>2024-05-10T20:12:03Z</time>
      </trkpt>
      <trkpt lat="42.92657498" lon="13.43116398">
        <ele>746.00000</ele>
        <time>2024-05-10T20:12:04Z</time>
      </trkpt>
      <trkpt lat="42.92660599" lon="13.43108997">
        <ele>747.00000</ele>
        <time>2024-05-10T20:12:06Z</time>
      </trkpt>
      <trkpt lat="42.92663499" lon="13.43101596">
        <ele>748.00000</ele>
        <time>2024-05-10T20:12:07Z</time>
      </trkpt>
      <trkpt lat="42.92666492" lon="13.43094798">
        <ele>749.00000</ele>
        <time>2024-05-10T20:12:08Z</time>
      </trkpt>
      <trkpt lat="42.92669392" lon="13.43088193">
        <ele>750.00000</ele>
        <time>2024-05-10T20:12:09Z</time>
      </trkpt>
      <trkpt lat="42.92672392" lon="13.43082091">
        <ele>751.00000</ele>
        <time>2024-05-10T20:12:10Z</time>
      </trkpt>
      <trkpt lat="42.92675795" lon="13.43076593">
        <ele>751.00000</ele>
        <time>2024-05-10T20:12:11Z</time>
      </trkpt>
      <trkpt lat="42.92679894" lon="13.43072092">
        <ele>752.00000</ele>
        <time>2024-05-10T20:12:12Z</time>
      </trkpt>
      <trkpt lat="42.92684395" lon="13.43068295">
        <ele>753.00000</ele>
        <time>2024-05-10T20:12:13Z</time>
      </trkpt>
      <trkpt lat="42.92689198" lon="13.43063492">
        <ele>753.00000</ele>
        <time>2024-05-10T20:12:15Z</time>
      </trkpt>
      <trkpt lat="42.92694797" lon="13.43059091">
        <ele>754.00000</ele>
        <time>2024-05-10T20:12:16Z</time>
      </trkpt>
      <trkpt lat="42.92700396" lon="13.43054397">
        <ele>753.00000</ele>
        <time>2024-05-10T20:12:17Z</time>
      </trkpt>
      <trkpt lat="42.92705995" lon="13.43049695">
        <ele>753.00000</ele>
        <time>2024-05-10T20:12:18Z</time>
      </trkpt>
      <trkpt lat="42.92711695" lon="13.43043493">
        <ele>754.00000</ele>
        <time>2024-05-10T20:12:20Z</time>
      </trkpt>
      <trkpt lat="42.92717395" lon="13.43036393">
        <ele>755.00000</ele>
        <time>2024-05-10T20:12:21Z</time>
      </trkpt>
      <trkpt lat="42.92722893" lon="13.43028799">
        <ele>756.00000</ele>
        <time>2024-05-10T20:12:23Z</time>
      </trkpt>
      <trkpt lat="42.92728291" lon="13.43021892">
        <ele>757.00000</ele>
        <time>2024-05-10T20:12:25Z</time>
      </trkpt>
      <trkpt lat="42.92734393" lon="13.43015899">
        <ele>758.00000</ele>
        <time>2024-05-10T20:12:26Z</time>
      </trkpt>
      <trkpt lat="42.92740797" lon="13.43011792">
        <ele>758.00000</ele>
        <time>2024-05-10T20:12:27Z</time>
      </trkpt>
      <trkpt lat="42.92747193" lon="13.43008196">
        <ele>758.00000</ele>
        <time>2024-05-10T20:12:29Z</time>
      </trkpt>
      <trkpt lat="42.92753797" lon="13.43004198">
        <ele>758.00000</ele>
        <time>2024-05-10T20:12:30Z</time>
      </trkpt>
      <trkpt lat="42.92760394" lon="13.43000695">
        <ele>759.00000</ele>
        <time>2024-05-10T20:12:32Z</time>
      </trkpt>
      <trkpt lat="42.92767192" lon="13.42998792">
        <ele>759.00000</ele>
        <time>2024-05-10T20:12:33Z</time>
      </trkpt>
      <trkpt lat="42.92773797" lon="13.42997794">
        <ele>759.00000</ele>
        <time>2024-05-10T20:12:34Z</time>
      </trkpt>
      <trkpt lat="42.92779698" lon="13.42996898">
        <ele>758.00000</ele>
        <time>2024-05-10T20:12:36Z</time>
      </trkpt>
      <trkpt lat="42.92784693" lon="13.42994995">
        <ele>758.00000</ele>
        <time>2024-05-10T20:12:37Z</time>
      </trkpt>
      <trkpt lat="42.92789697" lon="13.42991592">
        <ele>759.00000</ele>
        <time>2024-05-10T20:12:38Z</time>
      </trkpt>
      <trkpt lat="42.92794098" lon="13.42988792">
        <ele>760.00000</ele>
        <time>2024-05-10T20:12:39Z</time>
      </trkpt>
      <trkpt lat="42.92798498" lon="13.42985892">
        <ele>760.00000</ele>
        <time>2024-05-10T20:12:40Z</time>
      </trkpt>
      <trkpt lat="42.92803594" lon="13.42983193">
        <ele>761.00000</ele>
        <time>2024-05-10T20:12:41Z</time>
      </trkpt>
      <trkpt lat="42.92807894" lon="13.42980092">
        <ele>761.00000</ele>
        <time>2024-05-10T20:12:42Z</time>
      </trkpt>
      <trkpt lat="42.92812094" lon="13.42976898">
        <ele>761.00000</ele>
        <time>2024-05-10T20:12:43Z</time>
      </trkpt>
      <trkpt lat="42.92816192" lon="13.42973093">
        <ele>762.00000</ele>
        <time>2024-05-10T20:12:44Z</time>
      </trkpt>
      <trkpt lat="42.92819696" lon="13.42969397">
        <ele>762.00000</ele>
        <time>2024-05-10T20:12:45Z</time>
      </trkpt>
      <trkpt lat="42.92822697" lon="13.42964896">
        <ele>762.00000</ele>
        <time>2024-05-10T20:12:45Z</time>
      </trkpt>
      <trkpt lat="42.92825899" lon="13.42961392">
        <ele>762.00000</ele>
        <time>2024-05-10T20:12:46Z</time>
      </trkpt>
      <trkpt lat="42.92828396" lon="13.42957394">
        <ele>762.00000</ele>
        <time>2024-05-10T20:12:47Z</time>
      </trkpt>
      <trkpt lat="42.92830391" lon="13.42953295">
        <ele>762.00000</ele>
        <time>2024-05-10T20:12:48Z</time>
      </trkpt>
      <trkpt lat="42.92832294" lon="13.42949297">
        <ele>762.00000</ele>
        <time>2024-05-10T20:12:48Z</time>
      </trkpt>
      <trkpt lat="42.92833996" lon="13.42945399">
        <ele>762.00000</ele>
        <time>2024-05-10T20:12:49Z</time>
      </trkpt>
      <trkpt lat="42.92836594" lon="13.42941896">
        <ele>762.00000</ele>
        <time>2024-05-10T20:12:50Z</time>
      </trkpt>
      <trkpt lat="42.92839494" lon="13.42938794">
        <ele>762.00000</ele>
        <time>2024-05-10T20:12:51Z</time>
      </trkpt>
      <trkpt lat="42.92842797" lon="13.42935794">
        <ele>761.00000</ele>
        <time>2024-05-10T20:12:51Z</time>
      </trkpt>
      <trkpt lat="42.92846392" lon="13.42932499">
        <ele>761.00000</ele>
        <time>2024-05-10T20:12:52Z</time>
      </trkpt>
      <trkpt lat="42.92850592" lon="13.42930094">
        <ele>760.00000</ele>
        <time>2024-05-10T20:12:53Z</time>
      </trkpt>
      <trkpt lat="42.92854992" lon="13.42928593">
        <ele>759.00000</ele>
        <time>2024-05-10T20:12:54Z</time>
      </trkpt>
      <trkpt lat="42.92859292" lon="13.42927194">
        <ele>757.00000</ele>
        <time>2024-05-10T20:12:55Z</time>
      </trkpt>
      <trkpt lat="42.92863299" lon="13.42925199">
        <ele>757.00000</ele>
        <time>2024-05-10T20:12:56Z</time>
      </trkpt>
      <trkpt lat="42.92867699" lon="13.42923799">
        <ele>757.00000</ele>
        <time>2024-05-10T20:12:57Z</time>
      </trkpt>
      <trkpt lat="42.92872594" lon="13.42922894">
        <ele>756.00000</ele>
        <time>2024-05-10T20:12:58Z</time>
      </trkpt>
      <trkpt lat="42.92876894" lon="13.42922592">
        <ele>756.00000</ele>
        <time>2024-05-10T20:12:59Z</time>
      </trkpt>
      <trkpt lat="42.92880993" lon="13.42921595">
        <ele>756.00000</ele>
        <time>2024-05-10T20:12:59Z</time>
      </trkpt>
      <trkpt lat="42.92885092" lon="13.42920999">
        <ele>755.00000</ele>
        <time>2024-05-10T20:13:00Z</time>
      </trkpt>
      <trkpt lat="42.92889098" lon="13.42920295">
        <ele>755.00000</ele>
        <time>2024-05-10T20:13:01Z</time>
      </trkpt>
      <trkpt lat="42.92893398" lon="13.42919499">
        <ele>755.00000</ele>
        <time>2024-05-10T20:13:02Z</time>
      </trkpt>
      <trkpt lat="42.92897497" lon="13.42919197">
        <ele>755.00000</ele>
        <time>2024-05-10T20:13:03Z</time>
      </trkpt>
      <trkpt lat="42.92901797" lon="13.42919298">
        <ele>754.00000</ele>
        <time>2024-05-10T20:13:04Z</time>
      </trkpt>
      <trkpt lat="42.92906298" lon="13.42919298">
        <ele>754.00000</ele>
        <time>2024-05-10T20:13:04Z</time>
      </trkpt>
      <trkpt lat="42.92910598" lon="13.42919499">
        <ele>753.00000</ele>
        <time>2024-05-10T20:13:05Z</time>
      </trkpt>
      <trkpt lat="42.92914294" lon="13.42918594">
        <ele>753.00000</ele>
        <time>2024-05-10T20:13:06Z</time>
      </trkpt>
      <trkpt lat="42.92917295" lon="13.42916792">
        <ele>753.00000</ele>
        <time>2024-05-10T20:13:07Z</time>
      </trkpt>
      <trkpt lat="42.92919793" lon="13.42914797">
        <ele>753.00000</ele>
        <time>2024-05-10T20:13:07Z</time>
      </trkpt>
      <trkpt lat="42.92922098" lon="13.42912794">
        <ele>753.00000</ele>
        <time>2024-05-10T20:13:08Z</time>
      </trkpt>
      <trkpt lat="42.92924093" lon="13.42910497">
        <ele>753.00000</ele>
        <time>2024-05-10T20:13:08Z</time>
      </trkpt>
      <trkpt lat="42.92925895" lon="13.42908192">
        <ele>753.00000</ele>
        <time>2024-05-10T20:13:09Z</time>
      </trkpt>
      <trkpt lat="42.92927797" lon="13.42905795">
        <ele>753.00000</ele>
        <time>2024-05-10T20:13:09Z</time>
      </trkpt>
      <trkpt lat="42.92929097" lon="13.42903096">
        <ele>753.00000</ele>
        <time>2024-05-10T20:13:10Z</time>
      </trkpt>
      <trkpt lat="42.92929993" lon="13.42900095">
        <ele>754.00000</ele>
        <time>2024-05-10T20:13:10Z</time>
      </trkpt>
      <trkpt lat="42.92931091" lon="13.42896893">
        <ele>754.00000</ele>
        <time>2024-05-10T20:13:11Z</time>
      </trkpt>
      <trkpt lat="42.92932097" lon="13.42893691">
        <ele>754.00000</ele>
        <time>2024-05-10T20:13:11Z</time>
      </trkpt>
      <trkpt lat="42.92932692" lon="13.42890892">
        <ele>754.00000</ele>
        <time>2024-05-10T20:13:12Z</time>
      </trkpt>
      <trkpt lat="42.92933799" lon="13.42887992">
        <ele>754.00000</ele>
        <time>2024-05-10T20:13:12Z</time>
      </trkpt>
      <trkpt lat="42.92934495" lon="13.42884798">
        <ele>755.00000</ele>
        <time>2024-05-10T20:13:13Z</time>
      </trkpt>
      <trkpt lat="42.92935492" lon="13.42881797">
        <ele>755.00000</ele>
        <time>2024-05-10T20:13:13Z</time>
      </trkpt>
      <trkpt lat="42.92936892" lon="13.42878998">
        <ele>755.00000</ele>
        <time>2024-05-10T20:13:14Z</time>
      </trkpt>
      <trkpt lat="42.92937998" lon="13.42876592">
        <ele>755.00000</ele>
        <time>2024-05-10T20:13:14Z</time>
      </trkpt>
      <trkpt lat="42.92938593" lon="13.42873793">
        <ele>756.00000</ele>
        <time>2024-05-10T20:13:15Z</time>
      </trkpt>
      <trkpt lat="42.92939499" lon="13.42870691">
        <ele>756.00000</ele>
        <time>2024-05-10T20:13:15Z</time>
      </trkpt>
      <trkpt lat="42.92940395" lon="13.42867791">
        <ele>756.00000</ele>
        <time>2024-05-10T20:13:16Z</time>
      </trkpt>
      <trkpt lat="42.92940999" lon="13.42864598">
        <ele>756.00000</ele>
        <time>2024-05-10T20:13:16Z</time>
      </trkpt>
      <trkpt lat="42.92941493" lon="13.42861496">
        <ele>757.00000</ele>
        <time>2024-05-10T20:13:17Z</time>
      </trkpt>
      <trkpt lat="42.92942298" lon="13.42857993">
        <ele>757.00000</ele>
        <time>2024-05-10T20:13:17Z</time>
      </trkpt>
      <trkpt lat="42.92943396" lon="13.42854397">
        <ele>757.00000</ele>
        <time>2024-05-10T20:13:18Z</time>
      </trkpt>
      <trkpt lat="42.92944695" lon="13.42851798">
        <ele>757.00000</ele>
        <time>2024-05-10T20:13:18Z</time>
      </trkpt>
      <trkpt lat="42.92945793" lon="13.42848697">
        <ele>757.00000</ele>
        <time>2024-05-10T20:13:19Z</time>
      </trkpt>
      <trkpt lat="42.92946992" lon="13.42845696">
        <ele>757.00000</ele>
        <time>2024-05-10T20:13:19Z</time>
      </trkpt>
      <trkpt lat="42.92948291" lon="13.42842997">
        <ele>757.00000</ele>
        <time>2024-05-10T20:13:20Z</time>
      </trkpt>
      <trkpt lat="42.92949398" lon="13.42840198">
        <ele>757.00000</ele>
        <time>2024-05-10T20:13:20Z</time>
      </trkpt>
      <trkpt lat="42.92949892" lon="13.42837197">
        <ele>758.00000</ele>
        <time>2024-05-10T20:13:20Z</time>
      </trkpt>
      <trkpt lat="42.92949993" lon="13.42833694">
        <ele>758.00000</ele>
        <time>2024-05-10T20:13:21Z</time>
      </trkpt>
      <trkpt lat="42.92949892" lon="13.42830793">
        <ele>758.00000</ele>
        <time>2024-05-10T20:13:21Z</time>
      </trkpt>
      <trkpt lat="42.92949398" lon="13.42828296">
        <ele>759.00000</ele>
        <time>2024-05-10T20:13:22Z</time>
      </trkpt>
      <trkpt lat="42.92949699" lon="13.42826192">
        <ele>759.00000</ele>
        <time>2024-05-10T20:13:22Z</time>
      </trkpt>
      <trkpt lat="42.92949993" lon="13.42824691">
        <ele>759.00000</ele>
        <time>2024-05-10T20:13:22Z</time>
      </trkpt>
      <trkpt lat="42.92949993" lon="13.42823593">
        <ele>759.00000</ele>
        <time>2024-05-10T20:13:23Z</time>
      </trkpt>
      <trkpt lat="42.92949791" lon="13.42823996">
        <ele>759.00000</ele>
        <time>2024-05-10T20:13:23Z</time>
      </trkpt>
      <trkpt lat="42.92949498" lon="13.42824398">
        <ele>759.00000</ele>
        <time>2024-05-10T20:13:23Z</time>
      </trkpt>
      <trkpt lat="42.92945198" lon="13.42820391">
        <ele>760.00000</ele>
        <time>2024-05-10T20:13:24Z</time>
      </trkpt>
      <trkpt lat="42.92944394" lon="13.42819092">
        <ele>760.00000</ele>
        <time>2024-05-10T20:13:24Z</time>
      </trkpt>
      <trkpt lat="42.92943698" lon="13.42817491">
        <ele>760.00000</ele>
        <time>2024-05-10T20:13:24Z</time>
      </trkpt>
      <trkpt lat="42.92943296" lon="13.42815496">
        <ele>760.00000</ele>
        <time>2024-05-10T20:13:25Z</time>
      </trkpt>
      <trkpt lat="42.92942793" lon="13.42813493">
        <ele>761.00000</ele>
        <time>2024-05-10T20:13:25Z</time>
      </trkpt>
      <trkpt lat="42.92941896" lon="13.42811792">
        <ele>761.00000</ele>
        <time>2024-05-10T20:13:25Z</time>
      </trkpt>
      <trkpt lat="42.92940999" lon="13.42809998">
        <ele>761.00000</ele>
        <time>2024-05-10T20:13:25Z</time>
      </trkpt>
      <trkpt lat="42.92940395" lon="13.42807793">
        <ele>761.00000</ele>
        <time>2024-05-10T20:13:26Z</time>
      </trkpt>
      <trkpt lat="42.92939499" lon="13.42805698">
        <ele>761.00000</ele>
        <time>2024-05-10T20:13:26Z</time>
      </trkpt>
      <trkpt lat="42.92938593" lon="13.42803494">
        <ele>761.00000</ele>
        <time>2024-05-10T20:13:27Z</time>
      </trkpt>
      <trkpt lat="42.92937898" lon="13.42801197">
        <ele>762.00000</ele>
        <time>2024-05-10T20:13:27Z</time>
      </trkpt>
      <trkpt lat="42.92937093" lon="13.42798498">
        <ele>762.00000</ele>
        <time>2024-05-10T20:13:27Z</time>
      </trkpt>
      <trkpt lat="42.92936699" lon="13.42796495">
        <ele>762.00000</ele>
        <time>2024-05-10T20:13:28Z</time>
      </trkpt>
      <trkpt lat="42.92936095" lon="13.42794592">
        <ele>762.00000</ele>
        <time>2024-05-10T20:13:28Z</time>
      </trkpt>
      <trkpt lat="42.92935299" lon="13.42792698">
        <ele>763.00000</ele>
        <time>2024-05-10T20:13:28Z</time>
      </trkpt>
      <trkpt lat="42.92934293" lon="13.42790594">
        <ele>763.00000</ele>
        <time>2024-05-10T20:13:29Z</time>
      </trkpt>
      <trkpt lat="42.92933296" lon="13.42788792">
        <ele>763.00000</ele>
        <time>2024-05-10T20:13:29Z</time>
      </trkpt>
      <trkpt lat="42.92932298" lon="13.42786696">
        <ele>763.00000</ele>
        <time>2024-05-10T20:13:29Z</time>
      </trkpt>
      <trkpt lat="42.92931594" lon="13.42784299">
        <ele>763.00000</ele>
        <time>2024-05-10T20:13:30Z</time>
      </trkpt>
      <trkpt lat="42.92930496" lon="13.42781793">
        <ele>763.00000</ele>
        <time>2024-05-10T20:13:30Z</time>
      </trkpt>
      <trkpt lat="42.92929499" lon="13.42779597">
        <ele>764.00000</ele>
        <time>2024-05-10T20:13:31Z</time>
      </trkpt>
      <trkpt lat="42.92928895" lon="13.42776998">
        <ele>764.00000</ele>
        <time>2024-05-10T20:13:31Z</time>
      </trkpt>
      <trkpt lat="42.92927797" lon="13.42774693">
        <ele>764.00000</ele>
        <time>2024-05-10T20:13:31Z</time>
      </trkpt>
      <trkpt lat="42.92926699" lon="13.42772095">
        <ele>764.00000</ele>
        <time>2024-05-10T20:13:32Z</time>
      </trkpt>
      <trkpt lat="42.92925995" lon="13.42769295">
        <ele>765.00000</ele>
        <time>2024-05-10T20:13:32Z</time>
      </trkpt>
      <trkpt lat="42.92925291" lon="13.42766295">
        <ele>765.00000</ele>
        <time>2024-05-10T20:13:33Z</time>
      </trkpt>
      <trkpt lat="42.92924294" lon="13.42763897">
        <ele>766.00000</ele>
        <time>2024-05-10T20:13:33Z</time>
      </trkpt>
      <trkpt lat="42.92923397" lon="13.42761299">
        <ele>766.00000</ele>
        <time>2024-05-10T20:13:33Z</time>
      </trkpt>
      <trkpt lat="42.92922894" lon="13.42758399">
        <ele>766.00000</ele>
        <time>2024-05-10T20:13:34Z</time>
      </trkpt>
      <trkpt lat="42.92922299" lon="13.42755692">
        <ele>767.00000</ele>
        <time>2024-05-10T20:13:34Z</time>
      </trkpt>
      <trkpt lat="42.92921695" lon="13.42752892">
        <ele>767.00000</ele>
        <time>2024-05-10T20:13:35Z</time>
      </trkpt>
      <trkpt lat="42.92920899" lon="13.42749799">
        <ele>768.00000</ele>
        <time>2024-05-10T20:13:35Z</time>
      </trkpt>
      <trkpt lat="42.92919692" lon="13.42747192">
        <ele>768.00000</ele>
        <time>2024-05-10T20:13:36Z</time>
      </trkpt>
      <trkpt lat="42.92918996" lon="13.42744493">
        <ele>769.00000</ele>
        <time>2024-05-10T20:13:36Z</time>
      </trkpt>
      <trkpt lat="42.92917798" lon="13.42741895">
        <ele>769.00000</ele>
        <time>2024-05-10T20:13:37Z</time>
      </trkpt>
      <trkpt lat="42.92917094" lon="13.42739297">
        <ele>770.00000</ele>
        <time>2024-05-10T20:13:37Z</time>
      </trkpt>
      <trkpt lat="42.92916499" lon="13.42736396">
        <ele>770.00000</ele>
        <time>2024-05-10T20:13:37Z</time>
      </trkpt>
      <trkpt lat="42.92915694" lon="13.42733295">
        <ele>771.00000</ele>
        <time>2024-05-10T20:13:38Z</time>
      </trkpt>
      <trkpt lat="42.92914696" lon="13.42730697">
        <ele>771.00000</ele>
        <time>2024-05-10T20:13:38Z</time>
      </trkpt>
      <trkpt lat="42.92913096" lon="13.42728593">
        <ele>772.00000</ele>
        <time>2024-05-10T20:13:39Z</time>
      </trkpt>
      <trkpt lat="42.92911193" lon="13.42726095">
        <ele>772.00000</ele>
        <time>2024-05-10T20:13:39Z</time>
      </trkpt>
      <trkpt lat="42.92909097" lon="13.42722994">
        <ele>772.00000</ele>
        <time>2024-05-10T20:13:40Z</time>
      </trkpt>
      <trkpt lat="42.92906893" lon="13.42720295">
        <ele>772.00000</ele>
        <time>2024-05-10T20:13:41Z</time>
      </trkpt>
      <trkpt lat="42.92904596" lon="13.42717093">
        <ele>773.00000</ele>
        <time>2024-05-10T20:13:41Z</time>
      </trkpt>
      <trkpt lat="42.92902291" lon="13.42714394">
        <ele>773.00000</ele>
        <time>2024-05-10T20:13:42Z</time>
      </trkpt>
      <trkpt lat="42.92900196" lon="13.42711997">
        <ele>773.00000</ele>
        <time>2024-05-10T20:13:42Z</time>
      </trkpt>
      <trkpt lat="42.92897799" lon="13.42709599">
        <ele>774.00000</ele>
        <time>2024-05-10T20:13:43Z</time>
      </trkpt>
      <trkpt lat="42.92895393" lon="13.42707194">
        <ele>774.00000</ele>
        <time>2024-05-10T20:13:44Z</time>
      </trkpt>
      <trkpt lat="42.92892694" lon="13.42704595">
        <ele>774.00000</ele>
        <time>2024-05-10T20:13:44Z</time>
      </trkpt>
      <trkpt lat="42.92889593" lon="13.42701997">
        <ele>775.00000</ele>
        <time>2024-05-10T20:13:45Z</time>
      </trkpt>
      <trkpt lat="42.92887095" lon="13.42699198">
        <ele>775.00000</ele>
        <time>2024-05-10T20:13:46Z</time>
      </trkpt>
      <trkpt lat="42.92884396" lon="13.42696197">
        <ele>774.00000</ele>
        <time>2024-05-10T20:13:46Z</time>
      </trkpt>
      <trkpt lat="42.92881295" lon="13.42693791">
        <ele>774.00000</ele>
        <time>2024-05-10T20:13:47Z</time>
      </trkpt>
      <trkpt lat="42.92878193" lon="13.42690992">
        <ele>773.00000</ele>
        <time>2024-05-10T20:13:48Z</time>
      </trkpt>
      <trkpt lat="42.92875494" lon="13.42688092">
        <ele>773.00000</ele>
        <time>2024-05-10T20:13:48Z</time>
      </trkpt>
      <trkpt lat="42.92873592" lon="13.42685099">
        <ele>773.00000</ele>
        <time>2024-05-10T20:13:49Z</time>
      </trkpt>
      <trkpt lat="42.92871295" lon="13.42681797">
        <ele>773.00000</ele>
        <time>2024-05-10T20:13:50Z</time>
      </trkpt>
      <trkpt lat="42.92869392" lon="13.42678293">
        <ele>773.00000</ele>
        <time>2024-05-10T20:13:50Z</time>
      </trkpt>
      <trkpt lat="42.92867599" lon="13.42674597">
        <ele>773.00000</ele>
        <time>2024-05-10T20:13:51Z</time>
      </trkpt>
      <trkpt lat="42.92865595" lon="13.42670598">
        <ele>774.00000</ele>
        <time>2024-05-10T20:13:52Z</time>
      </trkpt>
      <trkpt lat="42.92863299" lon="13.42666693">
        <ele>774.00000</ele>
        <time>2024-05-10T20:13:52Z</time>
      </trkpt>
      <trkpt lat="42.92861396" lon="13.42662292">
        <ele>774.00000</ele>
        <time>2024-05-10T20:13:53Z</time>
      </trkpt>
      <trkpt lat="42.92859393" lon="13.42658596">
        <ele>774.00000</ele>
        <time>2024-05-10T20:13:54Z</time>
      </trkpt>
      <trkpt lat="42.92857398" lon="13.42655193">
        <ele>774.00000</ele>
        <time>2024-05-10T20:13:54Z</time>
      </trkpt>
      <trkpt lat="42.92854892" lon="13.42651597">
        <ele>774.00000</ele>
        <time>2024-05-10T20:13:55Z</time>
      </trkpt>
      <trkpt lat="42.92852595" lon="13.42647498">
        <ele>774.00000</ele>
        <time>2024-05-10T20:13:56Z</time>
      </trkpt>
      <trkpt lat="42.92850097" lon="13.42644095">
        <ele>773.00000</ele>
        <time>2024-05-10T20:13:57Z</time>
      </trkpt>
      <trkpt lat="42.92847599" lon="13.42640792">
        <ele>773.00000</ele>
        <time>2024-05-10T20:13:57Z</time>
      </trkpt>
      <trkpt lat="42.92844892" lon="13.42637599">
        <ele>773.00000</ele>
        <time>2024-05-10T20:13:58Z</time>
      </trkpt>
      <trkpt lat="42.92842294" lon="13.42634892">
        <ele>773.00000</ele>
        <time>2024-05-10T20:13:59Z</time>
      </trkpt>
      <trkpt lat="42.92839494" lon="13.42631799">
        <ele>773.00000</ele>
        <time>2024-05-10T20:13:59Z</time>
      </trkpt>
      <trkpt lat="42.92836795" lon="13.42628295">
        <ele>773.00000</ele>
        <time>2024-05-10T20:14:00Z</time>
      </trkpt>
      <trkpt lat="42.92834096" lon="13.42624699">
        <ele>773.00000</ele>
        <time>2024-05-10T20:14:01Z</time>
      </trkpt>
      <trkpt lat="42.92831598" lon="13.42621296">
        <ele>773.00000</ele>
        <time>2024-05-10T20:14:02Z</time>
      </trkpt>
      <trkpt lat="42.92829394" lon="13.42618094">
        <ele>774.00000</ele>
        <time>2024-05-10T20:14:02Z</time>
      </trkpt>
      <trkpt lat="42.92826896" lon="13.42614892">
        <ele>774.00000</ele>
        <time>2024-05-10T20:14:03Z</time>
      </trkpt>
      <trkpt lat="42.92824692" lon="13.42611297">
        <ele>774.00000</ele>
        <time>2024-05-10T20:14:04Z</time>
      </trkpt>
      <trkpt lat="42.92822596" lon="13.42608095">
        <ele>774.00000</ele>
        <time>2024-05-10T20:14:04Z</time>
      </trkpt>
      <trkpt lat="42.92820693" lon="13.42604893">
        <ele>774.00000</ele>
        <time>2024-05-10T20:14:05Z</time>
      </trkpt>
      <trkpt lat="42.92818598" lon="13.42601398">
        <ele>774.00000</ele>
        <time>2024-05-10T20:14:06Z</time>
      </trkpt>
      <trkpt lat="42.92816394" lon="13.42597793">
        <ele>774.00000</ele>
        <time>2024-05-10T20:14:06Z</time>
      </trkpt>
      <trkpt lat="42.92814197" lon="13.42594499">
        <ele>774.00000</ele>
        <time>2024-05-10T20:14:07Z</time>
      </trkpt>
      <trkpt lat="42.92812194" lon="13.42590099">
        <ele>774.00000</ele>
        <time>2024-05-10T20:14:08Z</time>
      </trkpt>
      <trkpt lat="42.92810099" lon="13.42585598">
        <ele>775.00000</ele>
        <time>2024-05-10T20:14:08Z</time>
      </trkpt>
      <trkpt lat="42.92807693" lon="13.42581097">
        <ele>775.00000</ele>
        <time>2024-05-10T20:14:09Z</time>
      </trkpt>
      <trkpt lat="42.92805396" lon="13.42575992">
        <ele>775.00000</ele>
        <time>2024-05-10T20:14:10Z</time>
      </trkpt>
      <trkpt lat="42.92803293" lon="13.42570695">
        <ele>774.00000</ele>
        <time>2024-05-10T20:14:11Z</time>
      </trkpt>
      <trkpt lat="42.92801298" lon="13.42564995">
        <ele>774.00000</ele>
        <time>2024-05-10T20:14:12Z</time>
      </trkpt>
      <trkpt lat="42.92799294" lon="13.42559698">
        <ele>774.00000</ele>
        <time>2024-05-10T20:14:13Z</time>
      </trkpt>
      <trkpt lat="42.92797794" lon="13.42554492">
        <ele>774.00000</ele>
        <time>2024-05-10T20:14:14Z</time>
      </trkpt>
      <trkpt lat="42.92796193" lon="13.42547996">
        <ele>775.00000</ele>
        <time>2024-05-10T20:14:15Z</time>
      </trkpt>
      <trkpt lat="42.92793896" lon="13.42541794">
        <ele>775.00000</ele>
        <time>2024-05-10T20:14:16Z</time>
      </trkpt>
      <trkpt lat="42.92791097" lon="13.42536195">
        <ele>775.00000</ele>
        <time>2024-05-10T20:14:17Z</time>
      </trkpt>
      <trkpt lat="42.92787493" lon="13.42530797">
        <ele>774.00000</ele>
        <time>2024-05-10T20:14:18Z</time>
      </trkpt>
      <trkpt lat="42.92783796" lon="13.42526094">
        <ele>774.00000</ele>
        <time>2024-05-10T20:14:19Z</time>
      </trkpt>
      <trkpt lat="42.92779899" lon="13.42521292">
        <ele>773.00000</ele>
        <time>2024-05-10T20:14:20Z</time>
      </trkpt>
      <trkpt lat="42.92775599" lon="13.42516497">
        <ele>772.00000</ele>
        <time>2024-05-10T20:14:21Z</time>
      </trkpt>
      <trkpt lat="42.92771198" lon="13.42511191">
        <ele>770.00000</ele>
        <time>2024-05-10T20:14:22Z</time>
      </trkpt>
      <trkpt lat="42.92766798" lon="13.42505693">
        <ele>769.00000</ele>
        <time>2024-05-10T20:14:23Z</time>
      </trkpt>
      <trkpt lat="42.92762397" lon="13.42499599">
        <ele>768.00000</ele>
        <time>2024-05-10T20:14:25Z</time>
      </trkpt>
      <trkpt lat="42.92758097" lon="13.42492894">
        <ele>767.00000</ele>
        <time>2024-05-10T20:14:26Z</time>
      </trkpt>
      <trkpt lat="42.92753596" lon="13.42485694">
        <ele>767.00000</ele>
        <time>2024-05-10T20:14:27Z</time>
      </trkpt>
      <trkpt lat="42.92749799" lon="13.42478594">
        <ele>768.00000</ele>
        <time>2024-05-10T20:14:28Z</time>
      </trkpt>
      <trkpt lat="42.92746195" lon="13.42471394">
        <ele>768.00000</ele>
        <time>2024-05-10T20:14:30Z</time>
      </trkpt>
      <trkpt lat="42.92742499" lon="13.42463498">
        <ele>768.00000</ele>
        <time>2024-05-10T20:14:31Z</time>
      </trkpt>
      <trkpt lat="42.92738299" lon="13.42455494">
        <ele>768.00000</ele>
        <time>2024-05-10T20:14:33Z</time>
      </trkpt>
      <trkpt lat="42.92733798" lon="13.42448193">
        <ele>767.00000</ele>
        <time>2024-05-10T20:14:34Z</time>
      </trkpt>
      <trkpt lat="42.92728593" lon="13.42442493">
        <ele>767.00000</ele>
        <time>2024-05-10T20:14:35Z</time>
      </trkpt>
      <trkpt lat="42.92722097" lon="13.42437397">
        <ele>766.00000</ele>
        <time>2024-05-10T20:14:37Z</time>
      </trkpt>
      <trkpt lat="42.92715794" lon="13.42434095">
        <ele>765.00000</ele>
        <time>2024-05-10T20:14:38Z</time>
      </trkpt>
      <trkpt lat="42.92709097" lon="13.42432695">
        <ele>764.00000</ele>
        <time>2024-05-10T20:14:40Z</time>
      </trkpt>
      <trkpt lat="42.92702592" lon="13.42430893">
        <ele>763.00000</ele>
        <time>2024-05-10T20:14:41Z</time>
      </trkpt>
      <trkpt lat="42.92695594" lon="13.42429392">
        <ele>763.00000</ele>
        <time>2024-05-10T20:14:42Z</time>
      </trkpt>
      <trkpt lat="42.92688293" lon="13.42426693">
        <ele>762.00000</ele>
        <time>2024-05-10T20:14:44Z</time>
      </trkpt>
      <trkpt lat="42.92681193" lon="13.42422695">
        <ele>762.00000</ele>
        <time>2024-05-10T20:14:45Z</time>
      </trkpt>
      <trkpt lat="42.92675293" lon="13.42417096">
        <ele>762.00000</ele>
        <time>2024-05-10T20:14:47Z</time>
      </trkpt>
      <trkpt lat="42.92670297" lon="13.42410298">
        <ele>761.00000</ele>
        <time>2024-05-10T20:14:48Z</time>
      </trkpt>
      <trkpt lat="42.92666693" lon="13.42403098">
        <ele>761.00000</ele>
        <time>2024-05-10T20:14:49Z</time>
      </trkpt>
      <trkpt lat="42.92663793" lon="13.42395295">
        <ele>760.00000</ele>
        <time>2024-05-10T20:14:51Z</time>
      </trkpt>
      <trkpt lat="42.92662795" lon="13.42386092">
        <ele>759.00000</ele>
        <time>2024-05-10T20:14:52Z</time>
      </trkpt>
      <trkpt lat="42.92664094" lon="13.42375799">
        <ele>758.00000</ele>
        <time>2024-05-10T20:14:54Z</time>
      </trkpt>
      <trkpt lat="42.92665796" lon="13.42364198">
        <ele>756.00000</ele>
        <time>2024-05-10T20:14:55Z</time>
      </trkpt>
      <trkpt lat="42.92668092" lon="13.42353293">
        <ele>754.00000</ele>
        <time>2024-05-10T20:14:57Z</time>
      </trkpt>
      <trkpt lat="42.92671093" lon="13.42342891">
        <ele>753.00000</ele>
        <time>2024-05-10T20:14:59Z</time>
      </trkpt>
      <trkpt lat="42.92675192" lon="13.42334099">
        <ele>753.00000</ele>
        <time>2024-05-10T20:15:00Z</time>
      </trkpt>
      <trkpt lat="42.92681495" lon="13.42328097">
        <ele>752.00000</ele>
        <time>2024-05-10T20:15:02Z</time>
      </trkpt>
      <trkpt lat="42.92687899" lon="13.42324292">
        <ele>752.00000</ele>
        <time>2024-05-10T20:15:03Z</time>
      </trkpt>
      <trkpt lat="42.92693096" lon="13.42318894">
        <ele>752.00000</ele>
        <time>2024-05-10T20:15:04Z</time>
      </trkpt>
      <trkpt lat="42.92696096" lon="13.42311794">
        <ele>751.00000</ele>
        <time>2024-05-10T20:15:06Z</time>
      </trkpt>
      <trkpt lat="42.92696993" lon="13.42303496">
        <ele>749.00000</ele>
        <time>2024-05-10T20:15:07Z</time>
      </trkpt>
      <trkpt lat="42.92695795" lon="13.42294896">
        <ele>746.00000</ele>
        <time>2024-05-10T20:15:08Z</time>
      </trkpt>
      <trkpt lat="42.92693297" lon="13.42286699">
        <ele>744.00000</ele>
        <time>2024-05-10T20:15:09Z</time>
      </trkpt>
      <trkpt lat="42.92689994" lon="13.42279298">
        <ele>741.00000</ele>
        <time>2024-05-10T20:15:11Z</time>
      </trkpt>
      <trkpt lat="42.92687195" lon="13.42272492">
        <ele>739.00000</ele>
        <time>2024-05-10T20:15:12Z</time>
      </trkpt>
      <trkpt lat="42.92684496" lon="13.42265694">
        <ele>738.00000</ele>
        <time>2024-05-10T20:15:13Z</time>
      </trkpt>
      <trkpt lat="42.92682392" lon="13.42258695">
        <ele>736.00000</ele>
        <time>2024-05-10T20:15:14Z</time>
      </trkpt>
      <trkpt lat="42.92680498" lon="13.42251797">
        <ele>735.00000</ele>
        <time>2024-05-10T20:15:15Z</time>
      </trkpt>
      <trkpt lat="42.92677992" lon="13.42244194">
        <ele>734.00000</ele>
        <time>2024-05-10T20:15:16Z</time>
      </trkpt>
      <trkpt lat="42.92675594" lon="13.42235896">
        <ele>733.00000</ele>
        <time>2024-05-10T20:15:18Z</time>
      </trkpt>
      <trkpt lat="42.92673893" lon="13.42227196">
        <ele>732.00000</ele>
        <time>2024-05-10T20:15:19Z</time>
      </trkpt>
      <trkpt lat="42.92672292" lon="13.42218898">
        <ele>731.00000</ele>
        <time>2024-05-10T20:15:20Z</time>
      </trkpt>
      <trkpt lat="42.92670398" lon="13.42210591">
        <ele>731.00000</ele>
        <time>2024-05-10T20:15:22Z</time>
      </trkpt>
      <trkpt lat="42.92668193" lon="13.42202494">
        <ele>730.00000</ele>
        <time>2024-05-10T20:15:23Z</time>
      </trkpt>
      <trkpt lat="42.92665293" lon="13.42194599">
        <ele>729.00000</ele>
        <time>2024-05-10T20:15:24Z</time>
      </trkpt>
      <trkpt lat="42.92661999" lon="13.42185898">
        <ele>727.00000</ele>
        <time>2024-05-10T20:15:26Z</time>
      </trkpt>
      <trkpt lat="42.92658898" lon="13.42176393">
        <ele>725.00000</ele>
        <time>2024-05-10T20:15:27Z</time>
      </trkpt>
      <trkpt lat="42.92655696" lon="13.42167693">
        <ele>724.00000</ele>
        <time>2024-05-10T20:15:29Z</time>
      </trkpt>
      <trkpt lat="42.92652293" lon="13.42158992">
        <ele>722.00000</ele>
        <time>2024-05-10T20:15:30Z</time>
      </trkpt>
      <trkpt lat="42.92649694" lon="13.42151499">
        <ele>721.00000</ele>
        <time>2024-05-10T20:15:31Z</time>
      </trkpt>
      <trkpt lat="42.92647699" lon="13.42145397">
        <ele>720.00000</ele>
        <time>2024-05-10T20:15:32Z</time>
      </trkpt>
      <trkpt lat="42.92645696" lon="13.42139798">
        <ele>720.00000</ele>
        <time>2024-05-10T20:15:33Z</time>
      </trkpt>
      <trkpt lat="42.92642595" lon="13.42135095">
        <ele>719.00000</ele>
        <time>2024-05-10T20:15:34Z</time>
      </trkpt>
      <trkpt lat="42.92638798" lon="13.42131692">
        <ele>719.00000</ele>
        <time>2024-05-10T20:15:35Z</time>
      </trkpt>
      <trkpt lat="42.92634892" lon="13.42127191">
        <ele>718.00000</ele>
        <time>2024-05-10T20:15:36Z</time>
      </trkpt>
      <trkpt lat="42.92630692" lon="13.42122095">
        <ele>716.00000</ele>
        <time>2024-05-10T20:15:37Z</time>
      </trkpt>
      <trkpt lat="42.92626292" lon="13.42116094">
        <ele>714.00000</ele>
        <time>2024-05-10T20:15:38Z</time>
      </trkpt>
      <trkpt lat="42.92621799" lon="13.42110092">
        <ele>712.00000</ele>
        <time>2024-05-10T20:15:40Z</time>
      </trkpt>
      <trkpt lat="42.92616795" lon="13.42105097">
        <ele>710.00000</ele>
        <time>2024-05-10T20:15:41Z</time>
      </trkpt>
      <trkpt lat="42.92611892" lon="13.42101794">
        <ele>709.00000</ele>
        <time>2024-05-10T20:15:42Z</time>
      </trkpt>
      <trkpt lat="42.92607693" lon="13.42100294">
        <ele>708.00000</ele>
        <time>2024-05-10T20:15:43Z</time>
      </trkpt>
      <trkpt lat="42.92604197" lon="13.42101593">
        <ele>709.00000</ele>
        <time>2024-05-10T20:15:44Z</time>
      </trkpt>
      <trkpt lat="42.92601993" lon="13.42105298">
        <ele>710.00000</ele>
        <time>2024-05-10T20:15:44Z</time>
      </trkpt>
      <trkpt lat="42.92601498" lon="13.42110897">
        <ele>712.00000</ele>
        <time>2024-05-10T20:15:45Z</time>
      </trkpt>
      <trkpt lat="42.92602496" lon="13.42116798">
        <ele>713.00000</ele>
        <time>2024-05-10T20:15:46Z</time>
      </trkpt>
      <trkpt lat="42.92604398" lon="13.42122992">
        <ele>714.00000</ele>
        <time>2024-05-10T20:15:47Z</time>
      </trkpt>
      <trkpt lat="42.92605597" lon="13.42129798">
        <ele>715.00000</ele>
        <time>2024-05-10T20:15:48Z</time>
      </trkpt>
      <trkpt lat="42.92607693" lon="13.42136998">
        <ele>717.00000</ele>
        <time>2024-05-10T20:15:49Z</time>
      </trkpt>
      <trkpt lat="42.92609998" lon="13.42144299">
        <ele>718.00000</ele>
        <time>2024-05-10T20:15:50Z</time>
      </trkpt>
      <trkpt lat="42.92611397" lon="13.42152396">
        <ele>718.00000</ele>
        <time>2024-05-10T20:15:52Z</time>
      </trkpt>
      <trkpt lat="42.92612194" lon="13.42160996">
        <ele>719.00000</ele>
        <time>2024-05-10T20:15:53Z</time>
      </trkpt>
      <trkpt lat="42.92612495" lon="13.42169495">
        <ele>720.00000</ele>
        <time>2024-05-10T20:15:54Z</time>
      </trkpt>
      <trkpt lat="42.92611397" lon="13.42177793">
        <ele>720.00000</ele>
        <time>2024-05-10T20:15:55Z</time>
      </trkpt>
      <trkpt lat="42.92608195" lon="13.42184599">
        <ele>720.00000</ele>
        <time>2024-05-10T20:15:56Z</time>
      </trkpt>
      <trkpt lat="42.92602596" lon="13.42188798">
        <ele>720.00000</ele>
        <time>2024-05-10T20:15:58Z</time>
      </trkpt>
      <trkpt lat="42.92596394" lon="13.42190399">
        <ele>719.00000</ele>
        <time>2024-05-10T20:15:59Z</time>
      </trkpt>
      <trkpt lat="42.92589998" lon="13.42188798">
        <ele>717.00000</ele>
        <time>2024-05-10T20:16:00Z</time>
      </trkpt>
      <trkpt lat="42.92583293" lon="13.42185194">
        <ele>716.00000</ele>
        <time>2024-05-10T20:16:02Z</time>
      </trkpt>
      <trkpt lat="42.92576193" lon="13.42181892">
        <ele>715.00000</ele>
        <time>2024-05-10T20:16:03Z</time>
      </trkpt>
      <trkpt lat="42.92568298" lon="13.42177491">
        <ele>714.00000</ele>
        <time>2024-05-10T20:16:05Z</time>
      </trkpt>
      <trkpt lat="42.92560092" lon="13.42172797">
        <ele>712.00000</ele>
        <time>2024-05-10T20:16:07Z</time>
      </trkpt>
      <trkpt lat="42.92551894" lon="13.42167994">
        <ele>711.00000</ele>
        <time>2024-05-10T20:16:09Z</time>
      </trkpt>
      <trkpt lat="42.92543294" lon="13.42163996">
        <ele>710.00000</ele>
        <time>2024-05-10T20:16:10Z</time>
      </trkpt>
      <trkpt lat="42.92534493" lon="13.42160996">
        <ele>710.00000</ele>
        <time>2024-05-10T20:16:12Z</time>
      </trkpt>
      <trkpt lat="42.92524896" lon="13.42158992">
        <ele>710.00000</ele>
        <time>2024-05-10T20:16:14Z</time>
      </trkpt>
      <trkpt lat="42.92515299" lon="13.42156696">
        <ele>709.00000</ele>
        <time>2024-05-10T20:16:16Z</time>
      </trkpt>
      <trkpt lat="42.92505492" lon="13.42154298">
        <ele>709.00000</ele>
        <time>2024-05-10T20:16:18Z</time>
      </trkpt>
      <trkpt lat="42.92495694" lon="13.42151893">
        <ele>709.00000</ele>
        <time>2024-05-10T20:16:20Z</time>
      </trkpt>
      <trkpt lat="42.92485895" lon="13.42149093">
        <ele>709.00000</ele>
        <time>2024-05-10T20:16:22Z</time>
      </trkpt>
      <trkpt lat="42.92476097" lon="13.42146696">
        <ele>709.00000</ele>
        <time>2024-05-10T20:16:24Z</time>
      </trkpt>
      <trkpt lat="42.92466097" lon="13.42144693">
        <ele>708.00000</ele>
        <time>2024-05-10T20:16:26Z</time>
      </trkpt>
      <trkpt lat="42.92455997" lon="13.42143796">
        <ele>707.00000</ele>
        <time>2024-05-10T20:16:28Z</time>
      </trkpt>
      <trkpt lat="42.92446391" lon="13.42144299">
        <ele>707.00000</ele>
        <time>2024-05-10T20:16:30Z</time>
      </trkpt>
      <trkpt lat="42.92436894" lon="13.42145095">
        <ele>708.00000</ele>
        <time>2024-05-10T20:16:32Z</time>
      </trkpt>
      <trkpt lat="42.92427792" lon="13.42142597">
        <ele>707.00000</ele>
        <time>2024-05-10T20:16:34Z</time>
      </trkpt>
      <trkpt lat="42.92420298" lon="13.42137895">
        <ele>706.00000</ele>
        <time>2024-05-10T20:16:35Z</time>
      </trkpt>
      <trkpt lat="42.92413098" lon="13.42133796">
        <ele>705.00000</ele>
        <time>2024-05-10T20:16:37Z</time>
      </trkpt>
      <trkpt lat="42.92405798" lon="13.42132598">
        <ele>705.00000</ele>
        <time>2024-05-10T20:16:38Z</time>
      </trkpt>
      <trkpt lat="42.92399193" lon="13.42133092">
        <ele>706.00000</ele>
        <time>2024-05-10T20:16:40Z</time>
      </trkpt>
      <trkpt lat="42.92393099" lon="13.42134894">
        <ele>707.00000</ele>
        <time>2024-05-10T20:16:41Z</time>
      </trkpt>
      <trkpt lat="42.92387299" lon="13.42137099">
        <ele>708.00000</ele>
        <time>2024-05-10T20:16:42Z</time>
      </trkpt>
      <trkpt lat="42.92381892" lon="13.42138599">
        <ele>708.00000</ele>
        <time>2024-05-10T20:16:43Z</time>
      </trkpt>
      <trkpt lat="42.92376897" lon="13.42139395">
        <ele>709.00000</ele>
        <time>2024-05-10T20:16:44Z</time>
      </trkpt>
      <trkpt lat="42.92371893" lon="13.42139194">
        <ele>709.00000</ele>
        <time>2024-05-10T20:16:45Z</time>
      </trkpt>
      <trkpt lat="42.92366998" lon="13.42137694">
        <ele>708.00000</ele>
        <time>2024-05-10T20:16:46Z</time>
      </trkpt>
      <trkpt lat="42.92362094" lon="13.42135095">
        <ele>708.00000</ele>
        <time>2024-05-10T20:16:47Z</time>
      </trkpt>
      <trkpt lat="42.92357694" lon="13.42131692">
        <ele>707.00000</ele>
        <time>2024-05-10T20:16:48Z</time>
      </trkpt>
      <trkpt lat="42.92354492" lon="13.42127099">
        <ele>706.00000</ele>
        <time>2024-05-10T20:16:49Z</time>
      </trkpt>
      <trkpt lat="42.92351298" lon="13.42121592">
        <ele>706.00000</ele>
        <time>2024-05-10T20:16:50Z</time>
      </trkpt>
      <trkpt lat="42.92348599" lon="13.42116697">
        <ele>705.00000</ele>
        <time>2024-05-10T20:16:51Z</time>
      </trkpt>
      <trkpt lat="42.92346194" lon="13.42112297">
        <ele>704.00000</ele>
        <time>2024-05-10T20:16:52Z</time>
      </trkpt>
      <trkpt lat="42.92343696" lon="13.42108198">
        <ele>704.00000</ele>
        <time>2024-05-10T20:16:53Z</time>
      </trkpt>
      <trkpt lat="42.92340595" lon="13.42104393">
        <ele>704.00000</ele>
        <time>2024-05-10T20:16:54Z</time>
      </trkpt>
      <trkpt lat="42.92337594" lon="13.42100897">
        <ele>703.00000</ele>
        <time>2024-05-10T20:16:54Z</time>
      </trkpt>
      <trkpt lat="42.92334392" lon="13.42097695">
        <ele>703.00000</ele>
        <time>2024-05-10T20:16:55Z</time>
      </trkpt>
      <trkpt lat="42.92331299" lon="13.42095097">
        <ele>703.00000</ele>
        <time>2024-05-10T20:16:56Z</time>
      </trkpt>
      <trkpt lat="42.92327997" lon="13.42092893">
        <ele>703.00000</ele>
        <time>2024-05-10T20:16:57Z</time>
      </trkpt>
      <trkpt lat="42.92324895" lon="13.42092096">
        <ele>704.00000</ele>
        <time>2024-05-10T20:16:57Z</time>
      </trkpt>
      <trkpt lat="42.92321995" lon="13.42090998">
        <ele>704.00000</ele>
        <time>2024-05-10T20:16:58Z</time>
      </trkpt>
      <trkpt lat="42.92318693" lon="13.42089892">
        <ele>704.00000</ele>
        <time>2024-05-10T20:16:59Z</time>
      </trkpt>
      <trkpt lat="42.92315592" lon="13.42089297">
        <ele>705.00000</ele>
        <time>2024-05-10T20:16:59Z</time>
      </trkpt>
      <trkpt lat="42.92312297" lon="13.42088794">
        <ele>706.00000</ele>
        <time>2024-05-10T20:17:00Z</time>
      </trkpt>
      <trkpt lat="42.92308794" lon="13.42088693">
        <ele>706.00000</ele>
        <time>2024-05-10T20:17:01Z</time>
      </trkpt>
      <trkpt lat="42.92305299" lon="13.42088199">
        <ele>707.00000</ele>
        <time>2024-05-10T20:17:01Z</time>
      </trkpt>
      <trkpt lat="42.92301795" lon="13.42087595">
        <ele>708.00000</ele>
        <time>2024-05-10T20:17:02Z</time>
      </trkpt>
      <trkpt lat="42.92298392" lon="13.42086598">
        <ele>708.00000</ele>
        <time>2024-05-10T20:17:03Z</time>
      </trkpt>
      <trkpt lat="42.92295299" lon="13.42085994">
        <ele>709.00000</ele>
        <time>2024-05-10T20:17:03Z</time>
      </trkpt>
      <trkpt lat="42.92291896" lon="13.42085491">
        <ele>710.00000</ele>
        <time>2024-05-10T20:17:04Z</time>
      </trkpt>
      <trkpt lat="42.92288392" lon="13.42085097">
        <ele>710.00000</ele>
        <time>2024-05-10T20:17:05Z</time>
      </trkpt>
      <trkpt lat="42.92284796" lon="13.42084293">
        <ele>711.00000</ele>
        <time>2024-05-10T20:17:05Z</time>
      </trkpt>
      <trkpt lat="42.92280899" lon="13.42083496">
        <ele>712.00000</ele>
        <time>2024-05-10T20:17:06Z</time>
      </trkpt>
      <trkpt lat="42.92277093" lon="13.42082792">
        <ele>712.00000</ele>
        <time>2024-05-10T20:17:07Z</time>
      </trkpt>
      <trkpt lat="42.92273296" lon="13.42081996">
        <ele>712.00000</ele>
        <time>2024-05-10T20:17:08Z</time>
      </trkpt>
      <trkpt lat="42.92269399" lon="13.42081493">
        <ele>713.00000</ele>
        <time>2024-05-10T20:17:09Z</time>
      </trkpt>
      <trkpt lat="42.92265493" lon="13.42080999">
        <ele>713.00000</ele>
        <time>2024-05-10T20:17:09Z</time>
      </trkpt>
      <trkpt lat="42.92261394" lon="13.42080295">
        <ele>713.00000</ele>
        <time>2024-05-10T20:17:10Z</time>
      </trkpt>
      <trkpt lat="42.92256793" lon="13.42078794">
        <ele>713.00000</ele>
        <time>2024-05-10T20:17:11Z</time>
      </trkpt>
      <trkpt lat="42.92251897" lon="13.42077193">
        <ele>713.00000</ele>
        <time>2024-05-10T20:17:12Z</time>
      </trkpt>
      <trkpt lat="42.92247195" lon="13.42074897">
        <ele>713.00000</ele>
        <time>2024-05-10T20:17:13Z</time>
      </trkpt>
      <trkpt lat="42.92242795" lon="13.42071997">
        <ele>712.00000</ele>
        <time>2024-05-10T20:17:14Z</time>
      </trkpt>
      <trkpt lat="42.92238294" lon="13.42069096">
        <ele>712.00000</ele>
        <time>2024-05-10T20:17:15Z</time>
      </trkpt>
      <trkpt lat="42.92233499" lon="13.42066892">
        <ele>711.00000</ele>
        <time>2024-05-10T20:17:16Z</time>
      </trkpt>
      <trkpt lat="42.92229099" lon="13.42065392">
        <ele>711.00000</ele>
        <time>2024-05-10T20:17:17Z</time>
      </trkpt>
      <trkpt lat="42.92223994" lon="13.42064394">
        <ele>710.00000</ele>
        <time>2024-05-10T20:17:18Z</time>
      </trkpt>
      <trkpt lat="42.92217398" lon="13.42064595">
        <ele>710.00000</ele>
        <time>2024-05-10T20:17:19Z</time>
      </trkpt>
      <trkpt lat="42.92210097" lon="13.42065299">
        <ele>708.00000</ele>
        <time>2024-05-10T20:17:21Z</time>
      </trkpt>
      <trkpt lat="42.92202293" lon="13.42067294">
        <ele>707.00000</ele>
        <time>2024-05-10T20:17:22Z</time>
      </trkpt>
      <trkpt lat="42.92194297" lon="13.42070295">
        <ele>706.00000</ele>
        <time>2024-05-10T20:17:24Z</time>
      </trkpt>
      <trkpt lat="42.92185798" lon="13.42073799">
        <ele>705.00000</ele>
        <time>2024-05-10T20:17:26Z</time>
      </trkpt>
      <trkpt lat="42.92177097" lon="13.42077193">
        <ele>704.00000</ele>
        <time>2024-05-10T20:17:28Z</time>
      </trkpt>
      <trkpt lat="42.92168992" lon="13.42080496">
        <ele>703.00000</ele>
        <time>2024-05-10T20:17:29Z</time>
      </trkpt>
      <trkpt lat="42.92160694" lon="13.42084092">
        <ele>704.00000</ele>
        <time>2024-05-10T20:17:31Z</time>
      </trkpt>
      <trkpt lat="42.92152195" lon="13.42087595">
        <ele>705.00000</ele>
        <time>2024-05-10T20:17:33Z</time>
      </trkpt>
      <trkpt lat="42.92143897" lon="13.42090898">
        <ele>706.00000</ele>
        <time>2024-05-10T20:17:35Z</time>
      </trkpt>
      <trkpt lat="42.92135498" lon="13.42090797">
        <ele>705.00000</ele>
        <time>2024-05-10T20:17:36Z</time>
      </trkpt>
      <trkpt lat="42.92127393" lon="13.42088995">
        <ele>704.00000</ele>
        <time>2024-05-10T20:17:38Z</time>
      </trkpt>
      <trkpt lat="42.92118399" lon="13.42086497">
        <ele>703.00000</ele>
        <time>2024-05-10T20:17:40Z</time>
      </trkpt>
      <trkpt lat="42.92109799" lon="13.42084695">
        <ele>703.00000</ele>
        <time>2024-05-10T20:17:41Z</time>
      </trkpt>
      <trkpt lat="42.92100696" lon="13.42082994">
        <ele>701.00000</ele>
        <time>2024-05-10T20:17:43Z</time>
      </trkpt>
      <trkpt lat="42.92090697" lon="13.42081393">
        <ele>699.00000</ele>
        <time>2024-05-10T20:17:45Z</time>
      </trkpt>
      <trkpt lat="42.92080395" lon="13.42079892">
        <ele>697.00000</ele>
        <time>2024-05-10T20:17:47Z</time>
      </trkpt>
      <trkpt lat="42.92069692" lon="13.42077998">
        <ele>695.00000</ele>
        <time>2024-05-10T20:17:50Z</time>
      </trkpt>
      <trkpt lat="42.92059499" lon="13.42074695">
        <ele>692.00000</ele>
        <time>2024-05-10T20:17:52Z</time>
      </trkpt>
      <trkpt lat="42.92049491" lon="13.42070697">
        <ele>691.00000</ele>
        <time>2024-05-10T20:17:54Z</time>
      </trkpt>
      <trkpt lat="42.92039399" lon="13.42066699">
        <ele>690.00000</ele>
        <time>2024-05-10T20:17:56Z</time>
      </trkpt>
      <trkpt lat="42.92030196" lon="13.42062693">
        <ele>689.00000</ele>
        <time>2024-05-10T20:17:58Z</time>
      </trkpt>
      <trkpt lat="42.92022493" lon="13.42058493">
        <ele>687.00000</ele>
        <time>2024-05-10T20:17:59Z</time>
      </trkpt>
      <trkpt lat="42.92015897" lon="13.42054797">
        <ele>685.00000</ele>
        <time>2024-05-10T20:18:01Z</time>
      </trkpt>
      <trkpt lat="42.92010096" lon="13.42050991">
        <ele>683.00000</ele>
        <time>2024-05-10T20:18:02Z</time>
      </trkpt>
      <trkpt lat="42.92004497" lon="13.42048795">
        <ele>682.00000</ele>
        <time>2024-05-10T20:18:03Z</time>
      </trkpt>
      <trkpt lat="42.92000298" lon="13.42048192">
        <ele>681.00000</ele>
        <time>2024-05-10T20:18:04Z</time>
      </trkpt>
      <trkpt lat="42.91997096" lon="13.42049692">
        <ele>681.00000</ele>
        <time>2024-05-10T20:18:05Z</time>
      </trkpt>
      <trkpt lat="42.91994397" lon="13.42051293">
        <ele>682.00000</ele>
        <time>2024-05-10T20:18:05Z</time>
      </trkpt>
      <trkpt lat="42.91992394" lon="13.42053699">
        <ele>682.00000</ele>
        <time>2024-05-10T20:18:06Z</time>
      </trkpt>
      <trkpt lat="42.91990399" lon="13.42056599">
        <ele>683.00000</ele>
        <time>2024-05-10T20:18:07Z</time>
      </trkpt>
      <trkpt lat="42.91987993" lon="13.42060195">
        <ele>684.00000</ele>
        <time>2024-05-10T20:18:07Z</time>
      </trkpt>
      <trkpt lat="42.91984498" lon="13.42064193">
        <ele>684.00000</ele>
        <time>2024-05-10T20:18:08Z</time>
      </trkpt>
      <trkpt lat="42.91980793" lon="13.42069197">
        <ele>684.00000</ele>
        <time>2024-05-10T20:18:09Z</time>
      </trkpt>
      <trkpt lat="42.91976896" lon="13.42074695">
        <ele>684.00000</ele>
        <time>2024-05-10T20:18:10Z</time>
      </trkpt>
      <trkpt lat="42.91971992" lon="13.42080295">
        <ele>684.00000</ele>
        <time>2024-05-10T20:18:12Z</time>
      </trkpt>
      <trkpt lat="42.91965899" lon="13.42085198">
        <ele>683.00000</ele>
        <time>2024-05-10T20:18:13Z</time>
      </trkpt>
      <trkpt lat="42.91959294" lon="13.42088693">
        <ele>682.00000</ele>
        <time>2024-05-10T20:18:14Z</time>
      </trkpt>
      <trkpt lat="42.91953099" lon="13.42092398">
        <ele>681.00000</ele>
        <time>2024-05-10T20:18:16Z</time>
      </trkpt>
      <trkpt lat="42.91946293" lon="13.42095994">
        <ele>679.00000</ele>
        <time>2024-05-10T20:18:17Z</time>
      </trkpt>
      <trkpt lat="42.91939194" lon="13.42099891">
        <ele>678.00000</ele>
        <time>2024-05-10T20:18:19Z</time>
      </trkpt>
      <trkpt lat="42.91932296" lon="13.42104292">
        <ele>677.00000</ele>
        <time>2024-05-10T20:18:20Z</time>
      </trkpt>
      <trkpt lat="42.91925791" lon="13.42108994">
        <ele>676.00000</ele>
        <time>2024-05-10T20:18:22Z</time>
      </trkpt>
      <trkpt lat="42.91918692" lon="13.42113294">
        <ele>675.00000</ele>
        <time>2024-05-10T20:18:23Z</time>
      </trkpt>
      <trkpt lat="42.91910897" lon="13.42117192">
        <ele>674.00000</ele>
        <time>2024-05-10T20:18:25Z</time>
      </trkpt>
      <trkpt lat="42.91903696" lon="13.42120595">
        <ele>673.00000</ele>
        <time>2024-05-10T20:18:26Z</time>
      </trkpt>
      <trkpt lat="42.91896396" lon="13.42122699">
        <ele>672.00000</ele>
        <time>2024-05-10T20:18:28Z</time>
      </trkpt>
      <trkpt lat="42.91890897" lon="13.42125096">
        <ele>671.00000</ele>
        <time>2024-05-10T20:18:29Z</time>
      </trkpt>
      <trkpt lat="42.91886991" lon="13.42128398">
        <ele>671.00000</ele>
        <time>2024-05-10T20:18:30Z</time>
      </trkpt>
      <trkpt lat="42.91884896" lon="13.42133293">
        <ele>672.00000</ele>
        <time>2024-05-10T20:18:31Z</time>
      </trkpt>
      <trkpt lat="42.91884996" lon="13.42138398">
        <ele>673.00000</ele>
        <time>2024-05-10T20:18:32Z</time>
      </trkpt>
      <trkpt lat="42.91886597" lon="13.42143796">
        <ele>673.00000</ele>
        <time>2024-05-10T20:18:32Z</time>
      </trkpt>
      <trkpt lat="42.91889397" lon="13.42148791">
        <ele>674.00000</ele>
        <time>2024-05-10T20:18:33Z</time>
      </trkpt>
      <trkpt lat="42.91892892" lon="13.42154491">
        <ele>674.00000</ele>
        <time>2024-05-10T20:18:35Z</time>
      </trkpt>
      <trkpt lat="42.91897092" lon="13.42161297">
        <ele>674.00000</ele>
        <time>2024-05-10T20:18:36Z</time>
      </trkpt>
      <trkpt lat="42.91901492" lon="13.42169394">
        <ele>674.00000</ele>
        <time>2024-05-10T20:18:37Z</time>
      </trkpt>
      <trkpt lat="42.91905599" lon="13.42176695">
        <ele>673.00000</ele>
        <time>2024-05-10T20:18:39Z</time>
      </trkpt>
      <trkpt lat="42.91910494" lon="13.42182696">
        <ele>672.00000</ele>
        <time>2024-05-10T20:18:40Z</time>
      </trkpt>
      <trkpt lat="42.91915699" lon="13.42187298">
        <ele>672.00000</ele>
        <time>2024-05-10T20:18:41Z</time>
      </trkpt>
      <trkpt lat="42.91921692" lon="13.42191296">
        <ele>673.00000</ele>
        <time>2024-05-10T20:18:43Z</time>
      </trkpt>
      <trkpt lat="42.91927493" lon="13.42193492">
        <ele>674.00000</ele>
        <time>2024-05-10T20:18:44Z</time>
      </trkpt>
      <trkpt lat="42.91933293" lon="13.42196895">
        <ele>675.00000</ele>
        <time>2024-05-10T20:18:45Z</time>
      </trkpt>
      <trkpt lat="42.91937895" lon="13.42203492">
        <ele>675.00000</ele>
        <time>2024-05-10T20:18:46Z</time>
      </trkpt>
      <trkpt lat="42.91941792" lon="13.42212494">
        <ele>674.00000</ele>
        <time>2024-05-10T20:18:48Z</time>
      </trkpt>
      <trkpt lat="42.91944894" lon="13.42221999">
        <ele>673.00000</ele>
        <time>2024-05-10T20:18:49Z</time>
      </trkpt>
      <trkpt lat="42.91948799" lon="13.42232393">
        <ele>670.00000</ele>
        <time>2024-05-10T20:18:51Z</time>
      </trkpt>
      <trkpt lat="42.91952999" lon="13.42242593">
        <ele>668.00000</ele>
        <time>2024-05-10T20:18:53Z</time>
      </trkpt>
      <trkpt lat="42.91957994" lon="13.42252593">
        <ele>665.00000</ele>
        <time>2024-05-10T20:18:55Z</time>
      </trkpt>
      <trkpt lat="42.91962697" lon="13.42262391">
        <ele>663.00000</ele>
        <time>2024-05-10T20:18:56Z</time>
      </trkpt>
      <trkpt lat="42.91967491" lon="13.42271092">
        <ele>660.00000</ele>
        <time>2024-05-10T20:18:58Z</time>
      </trkpt>
      <trkpt lat="42.91972093" lon="13.42278392">
        <ele>657.00000</ele>
        <time>2024-05-10T20:18:59Z</time>
      </trkpt>
      <trkpt lat="42.91976996" lon="13.42284293">
        <ele>657.00000</ele>
        <time>2024-05-10T20:19:01Z</time>
      </trkpt>
      <trkpt lat="42.91982595" lon="13.42288392">
        <ele>658.00000</ele>
        <time>2024-05-10T20:19:02Z</time>
      </trkpt>
      <trkpt lat="42.91988597" lon="13.42290496">
        <ele>659.00000</ele>
        <time>2024-05-10T20:19:03Z</time>
      </trkpt>
      <trkpt lat="42.91994992" lon="13.42291896">
        <ele>660.00000</ele>
        <time>2024-05-10T20:19:04Z</time>
      </trkpt>
      <trkpt lat="42.92002595" lon="13.42294092">
        <ele>661.00000</ele>
        <time>2024-05-10T20:19:06Z</time>
      </trkpt>
      <trkpt lat="42.92010993" lon="13.42296095">
        <ele>662.00000</ele>
        <time>2024-05-10T20:19:08Z</time>
      </trkpt>
      <trkpt lat="42.92018394" lon="13.42298199">
        <ele>662.00000</ele>
        <time>2024-05-10T20:19:09Z</time>
      </trkpt>
      <trkpt lat="42.92024698" lon="13.42301392">
        <ele>662.00000</ele>
        <time>2024-05-10T20:19:11Z</time>
      </trkpt>
      <trkpt lat="42.92029995" lon="13.42306899">
        <ele>660.00000</ele>
        <time>2024-05-10T20:19:12Z</time>
      </trkpt>
      <trkpt lat="42.92033096" lon="13.42314695">
        <ele>658.00000</ele>
        <time>2024-05-10T20:19:13Z</time>
      </trkpt>
      <trkpt lat="42.92034597" lon="13.42323596">
        <ele>656.00000</ele>
        <time>2024-05-10T20:19:15Z</time>
      </trkpt>
      <trkpt lat="42.92034697" lon="13.42332892">
        <ele>653.00000</ele>
        <time>2024-05-10T20:19:16Z</time>
      </trkpt>
      <trkpt lat="42.92034798" lon="13.42341198">
        <ele>651.00000</ele>
        <time>2024-05-10T20:19:17Z</time>
      </trkpt>
      <trkpt lat="42.92036298" lon="13.42348197">
        <ele>649.00000</ele>
        <time>2024-05-10T20:19:18Z</time>
      </trkpt>
      <trkpt lat="42.92040296" lon="13.42353897">
        <ele>648.00000</ele>
        <time>2024-05-10T20:19:19Z</time>
      </trkpt>
      <trkpt lat="42.92045493" lon="13.42357593">
        <ele>649.00000</ele>
        <time>2024-05-10T20:19:21Z</time>
      </trkpt>
      <trkpt lat="42.92050799" lon="13.42360099">
        <ele>649.00000</ele>
        <time>2024-05-10T20:19:22Z</time>
      </trkpt>
      <trkpt lat="42.92057094" lon="13.42363896">
        <ele>650.00000</ele>
        <time>2024-05-10T20:19:23Z</time>
      </trkpt>
      <trkpt lat="42.92063196" lon="13.42369093">
        <ele>651.00000</ele>
        <time>2024-05-10T20:19:24Z</time>
      </trkpt>
      <trkpt lat="42.92069197" lon="13.42375195">
        <ele>651.00000</ele>
        <time>2024-05-10T20:19:26Z</time>
      </trkpt>
      <trkpt lat="42.92074293" lon="13.42382496">
        <ele>650.00000</ele>
        <time>2024-05-10T20:19:27Z</time>
      </trkpt>
      <trkpt lat="42.92078291" lon="13.42390199">
        <ele>650.00000</ele>
        <time>2024-05-10T20:19:29Z</time>
      </trkpt>
      <trkpt lat="42.92082097" lon="13.42397893">
        <ele>651.00000</ele>
        <time>2024-05-10T20:19:30Z</time>
      </trkpt>
      <trkpt lat="42.92085793" lon="13.42406393">
        <ele>651.00000</ele>
        <time>2024-05-10T20:19:32Z</time>
      </trkpt>
      <trkpt lat="42.92089699" lon="13.42415093">
        <ele>651.00000</ele>
        <time>2024-05-10T20:19:33Z</time>
      </trkpt>
      <trkpt lat="42.92093094" lon="13.42423492">
        <ele>652.00000</ele>
        <time>2024-05-10T20:19:35Z</time>
      </trkpt>
      <trkpt lat="42.92095592" lon="13.42431899">
        <ele>653.00000</ele>
        <time>2024-05-10T20:19:36Z</time>
      </trkpt>
      <trkpt lat="42.92096899" lon="13.42439794">
        <ele>654.00000</ele>
        <time>2024-05-10T20:19:37Z</time>
      </trkpt>
      <trkpt lat="42.92095893" lon="13.42446693">
        <ele>654.00000</ele>
        <time>2024-05-10T20:19:38Z</time>
      </trkpt>
      <trkpt lat="42.92093496" lon="13.42451998">
        <ele>656.00000</ele>
        <time>2024-05-10T20:19:39Z</time>
      </trkpt>
      <trkpt lat="42.92089096" lon="13.42453993">
        <ele>656.00000</ele>
        <time>2024-05-10T20:19:40Z</time>
      </trkpt>
      <trkpt lat="42.92084595" lon="13.42453398">
        <ele>656.00000</ele>
        <time>2024-05-10T20:19:41Z</time>
      </trkpt>
      <trkpt lat="42.92080395" lon="13.42451898">
        <ele>656.00000</ele>
        <time>2024-05-10T20:19:42Z</time>
      </trkpt>
      <trkpt lat="42.92076498" lon="13.42449693">
        <ele>655.00000</ele>
        <time>2024-05-10T20:19:43Z</time>
      </trkpt>
      <trkpt lat="42.92073095" lon="13.42446693">
        <ele>654.00000</ele>
        <time>2024-05-10T20:19:43Z</time>
      </trkpt>
      <trkpt lat="42.92069398" lon="13.42443399">
        <ele>654.00000</ele>
        <time>2024-05-10T20:19:44Z</time>
      </trkpt>
      <trkpt lat="42.92065492" lon="13.42439895">
        <ele>653.00000</ele>
        <time>2024-05-10T20:19:45Z</time>
      </trkpt>
      <trkpt lat="42.92061293" lon="13.42435997">
        <ele>653.00000</ele>
        <time>2024-05-10T20:19:46Z</time>
      </trkpt>
      <trkpt lat="42.92056892" lon="13.42431697">
        <ele>652.00000</ele>
        <time>2024-05-10T20:19:47Z</time>
      </trkpt>
      <trkpt lat="42.92052492" lon="13.42427196">
        <ele>650.00000</ele>
        <time>2024-05-10T20:19:48Z</time>
      </trkpt>
      <trkpt lat="42.92047899" lon="13.42422796">
        <ele>649.00000</ele>
        <time>2024-05-10T20:19:50Z</time>
      </trkpt>
      <trkpt lat="42.92043096" lon="13.42419393">
        <ele>647.00000</ele>
        <time>2024-05-10T20:19:51Z</time>
      </trkpt>
      <trkpt lat="42.92038494" lon="13.42416292">
        <ele>646.00000</ele>
        <time>2024-05-10T20:19:52Z</time>
      </trkpt>
      <trkpt lat="42.92033398" lon="13.42414397">
        <ele>645.00000</ele>
        <time>2024-05-10T20:19:53Z</time>
      </trkpt>
      <trkpt lat="42.92027598" lon="13.42412997">
        <ele>644.00000</ele>
        <time>2024-05-10T20:19:54Z</time>
      </trkpt>
      <trkpt lat="42.92021697" lon="13.42411095">
        <ele>645.00000</ele>
        <time>2024-05-10T20:19:55Z</time>
      </trkpt>
      <trkpt lat="42.92014698" lon="13.42409896">
        <ele>646.00000</ele>
        <time>2024-05-10T20:19:56Z</time>
      </trkpt>
      <trkpt lat="42.92007397" lon="13.42408597">
        <ele>647.00000</ele>
        <time>2024-05-10T20:19:58Z</time>
      </trkpt>
      <trkpt lat="42.91999896" lon="13.42408496">
        <ele>648.00000</ele>
        <time>2024-05-10T20:19:59Z</time>
      </trkpt>
      <trkpt lat="42.91992193" lon="13.42408195">
        <ele>648.00000</ele>
        <time>2024-05-10T20:20:01Z</time>
      </trkpt>
      <trkpt lat="42.91984196" lon="13.42408195">
        <ele>648.00000</ele>
        <time>2024-05-10T20:20:03Z</time>
      </trkpt>
      <trkpt lat="42.91976896" lon="13.42407792">
        <ele>648.00000</ele>
        <time>2024-05-10T20:20:04Z</time>
      </trkpt>
      <trkpt lat="42.91968396" lon="13.42406393">
        <ele>647.00000</ele>
        <time>2024-05-10T20:20:06Z</time>
      </trkpt>
      <trkpt lat="42.91960995" lon="13.42402998">
        <ele>647.00000</ele>
        <time>2024-05-10T20:20:07Z</time>
      </trkpt>
      <trkpt lat="42.91953594" lon="13.42398396">
        <ele>646.00000</ele>
        <time>2024-05-10T20:20:09Z</time>
      </trkpt>
      <trkpt lat="42.91946897" lon="13.42393392">
        <ele>645.00000</ele>
        <time>2024-05-10T20:20:10Z</time>
      </trkpt>
      <trkpt lat="42.91939898" lon="13.42388195">
        <ele>644.00000</ele>
        <time>2024-05-10T20:20:12Z</time>
      </trkpt>
      <trkpt lat="42.91932597" lon="13.42382999">
        <ele>644.00000</ele>
        <time>2024-05-10T20:20:14Z</time>
      </trkpt>
      <trkpt lat="42.91925297" lon="13.42377894">
        <ele>644.00000</ele>
        <time>2024-05-10T20:20:15Z</time>
      </trkpt>
      <trkpt lat="42.91918197" lon="13.42372798">
        <ele>644.00000</ele>
        <time>2024-05-10T20:20:17Z</time>
      </trkpt>
      <trkpt lat="42.91911399" lon="13.42367492">
        <ele>643.00000</ele>
        <time>2024-05-10T20:20:19Z</time>
      </trkpt>
      <trkpt lat="42.91904694" lon="13.42362497">
        <ele>641.00000</ele>
        <time>2024-05-10T20:20:20Z</time>
      </trkpt>
      <trkpt lat="42.91898692" lon="13.42357794">
        <ele>640.00000</ele>
        <time>2024-05-10T20:20:21Z</time>
      </trkpt>
      <trkpt lat="42.91892892" lon="13.42352799">
        <ele>639.00000</ele>
        <time>2024-05-10T20:20:23Z</time>
      </trkpt>
      <trkpt lat="42.91887796" lon="13.42349094">
        <ele>638.00000</ele>
        <time>2024-05-10T20:20:24Z</time>
      </trkpt>
      <trkpt lat="42.91882993" lon="13.42346294">
        <ele>637.00000</ele>
        <time>2024-05-10T20:20:25Z</time>
      </trkpt>
      <trkpt lat="42.91878391" lon="13.42344299">
        <ele>635.00000</ele>
        <time>2024-05-10T20:20:26Z</time>
      </trkpt>
      <trkpt lat="42.91872692" lon="13.42344199">
        <ele>635.00000</ele>
        <time>2024-05-10T20:20:27Z</time>
      </trkpt>
      <trkpt lat="42.91866892" lon="13.42343696">
        <ele>634.00000</ele>
        <time>2024-05-10T20:20:28Z</time>
      </trkpt>
      <trkpt lat="42.91860898" lon="13.42343998">
        <ele>633.00000</ele>
        <time>2024-05-10T20:20:29Z</time>
      </trkpt>
      <trkpt lat="42.91854394" lon="13.42345096">
        <ele>634.00000</ele>
        <time>2024-05-10T20:20:31Z</time>
      </trkpt>
      <trkpt lat="42.91847093" lon="13.42346395">
        <ele>634.00000</ele>
        <time>2024-05-10T20:20:32Z</time>
      </trkpt>
      <trkpt lat="42.91839994" lon="13.42347795">
        <ele>635.00000</ele>
        <time>2024-05-10T20:20:34Z</time>
      </trkpt>
      <trkpt lat="42.91832392" lon="13.42349396">
        <ele>635.00000</ele>
        <time>2024-05-10T20:20:35Z</time>
      </trkpt>
      <trkpt lat="42.91824596" lon="13.42350997">
        <ele>635.00000</ele>
        <time>2024-05-10T20:20:37Z</time>
      </trkpt>
      <trkpt lat="42.91816994" lon="13.42352195">
        <ele>635.00000</ele>
        <time>2024-05-10T20:20:38Z</time>
      </trkpt>
      <trkpt lat="42.91809895" lon="13.42353696">
        <ele>634.00000</ele>
        <time>2024-05-10T20:20:40Z</time>
      </trkpt>
      <trkpt lat="42.91803197" lon="13.42355498">
        <ele>634.00000</ele>
        <time>2024-05-10T20:20:41Z</time>
      </trkpt>
      <trkpt lat="42.91797297" lon="13.42356495">
        <ele>634.00000</ele>
        <time>2024-05-10T20:20:42Z</time>
      </trkpt>
      <trkpt lat="42.91792997" lon="13.42357099">
        <ele>633.00000</ele>
        <time>2024-05-10T20:20:43Z</time>
      </trkpt>
      <trkpt lat="42.91789392" lon="13.42355992">
        <ele>632.00000</ele>
        <time>2024-05-10T20:20:44Z</time>
      </trkpt>
      <trkpt lat="42.91786199" lon="13.42355296">
        <ele>632.00000</ele>
        <time>2024-05-10T20:20:45Z</time>
      </trkpt>
      <trkpt lat="42.91783693" lon="13.42353494">
        <ele>631.00000</ele>
        <time>2024-05-10T20:20:45Z</time>
      </trkpt>
      <trkpt lat="42.91781195" lon="13.42351692">
        <ele>631.00000</ele>
        <time>2024-05-10T20:20:46Z</time>
      </trkpt>
      <trkpt lat="42.91778395" lon="13.42349496">
        <ele>630.00000</ele>
        <time>2024-05-10T20:20:46Z</time>
      </trkpt>
      <trkpt lat="42.91776099" lon="13.42346596">
        <ele>629.00000</ele>
        <time>2024-05-10T20:20:47Z</time>
      </trkpt>
      <trkpt lat="42.91774699" lon="13.42342992">
        <ele>629.00000</ele>
        <time>2024-05-10T20:20:48Z</time>
      </trkpt>
      <trkpt lat="42.91774196" lon="13.42338792">
        <ele>628.00000</ele>
        <time>2024-05-10T20:20:48Z</time>
      </trkpt>
      <trkpt lat="42.91773693" lon="13.42333897">
        <ele>628.00000</ele>
        <time>2024-05-10T20:20:49Z</time>
      </trkpt>
      <trkpt lat="42.91773794" lon="13.42328793">
        <ele>627.00000</ele>
        <time>2024-05-10T20:20:50Z</time>
      </trkpt>
      <trkpt lat="42.91774095" lon="13.42323194">
        <ele>627.00000</ele>
        <time>2024-05-10T20:20:50Z</time>
      </trkpt>
      <trkpt lat="42.91774598" lon="13.42316396">
        <ele>626.00000</ele>
        <time>2024-05-10T20:20:52Z</time>
      </trkpt>
      <trkpt lat="42.91774699" lon="13.42309992">
        <ele>625.00000</ele>
        <time>2024-05-10T20:20:52Z</time>
      </trkpt>
      <trkpt lat="42.91774791" lon="13.42303597">
        <ele>625.00000</ele>
        <time>2024-05-10T20:20:53Z</time>
      </trkpt>
      <trkpt lat="42.91774892" lon="13.42297797">
        <ele>625.00000</ele>
        <time>2024-05-10T20:20:54Z</time>
      </trkpt>
      <trkpt lat="42.91774892" lon="13.42292591">
        <ele>625.00000</ele>
        <time>2024-05-10T20:20:55Z</time>
      </trkpt>
      <trkpt lat="42.91774699" lon="13.42288694">
        <ele>624.00000</ele>
        <time>2024-05-10T20:20:56Z</time>
      </trkpt>
      <trkpt lat="42.91774598" lon="13.42284495">
        <ele>624.00000</ele>
        <time>2024-05-10T20:20:56Z</time>
      </trkpt>
      <trkpt lat="42.91774699" lon="13.42281091">
        <ele>624.00000</ele>
        <time>2024-05-10T20:20:57Z</time>
      </trkpt>
      <trkpt lat="42.91774791" lon="13.42277697">
        <ele>624.00000</ele>
        <time>2024-05-10T20:20:57Z</time>
      </trkpt>
      <trkpt lat="42.91774791" lon="13.42274696">
        <ele>624.00000</ele>
        <time>2024-05-10T20:20:58Z</time>
      </trkpt>
      <trkpt lat="42.91775596" lon="13.42272399">
        <ele>625.00000</ele>
        <time>2024-05-10T20:20:58Z</time>
      </trkpt>
      <trkpt lat="42.91776593" lon="13.42270094">
        <ele>625.00000</ele>
        <time>2024-05-10T20:20:58Z</time>
      </trkpt>
      <trkpt lat="42.91777691" lon="13.42268091">
        <ele>625.00000</ele>
        <time>2024-05-10T20:20:59Z</time>
      </trkpt>
      <trkpt lat="42.91778194" lon="13.42267798">
        <ele>625.00000</ele>
        <time>2024-05-10T20:20:59Z</time>
      </trkpt>
      <trkpt lat="42.91778597" lon="13.42268594">
        <ele>625.00000</ele>
        <time>2024-05-10T20:20:59Z</time>
      </trkpt>
      <trkpt lat="42.91772696" lon="13.42259894">
        <ele>625.00000</ele>
        <time>2024-05-10T20:21:01Z</time>
      </trkpt>
      <trkpt lat="42.91772495" lon="13.42256591">
        <ele>625.00000</ele>
        <time>2024-05-10T20:21:01Z</time>
      </trkpt>
      <trkpt lat="42.91772193" lon="13.42252995">
        <ele>625.00000</ele>
        <time>2024-05-10T20:21:02Z</time>
      </trkpt>
      <trkpt lat="42.91772193" lon="13.42248796">
        <ele>625.00000</ele>
        <time>2024-05-10T20:21:02Z</time>
      </trkpt>
      <trkpt lat="42.91772495" lon="13.42243893">
        <ele>625.00000</ele>
        <time>2024-05-10T20:21:03Z</time>
      </trkpt>
      <trkpt lat="42.91772595" lon="13.42238897">
        <ele>625.00000</ele>
        <time>2024-05-10T20:21:04Z</time>
      </trkpt>
      <trkpt lat="42.91772193" lon="13.42233893">
        <ele>625.00000</ele>
        <time>2024-05-10T20:21:05Z</time>
      </trkpt>
      <trkpt lat="42.91771095" lon="13.42228495">
        <ele>625.00000</ele>
        <time>2024-05-10T20:21:05Z</time>
      </trkpt>
      <trkpt lat="42.91770491" lon="13.42222292">
        <ele>625.00000</ele>
        <time>2024-05-10T20:21:06Z</time>
      </trkpt>
      <trkpt lat="42.91769896" lon="13.42215796">
        <ele>625.00000</ele>
        <time>2024-05-10T20:21:07Z</time>
      </trkpt>
      <trkpt lat="42.91769796" lon="13.42209099">
        <ele>625.00000</ele>
        <time>2024-05-10T20:21:08Z</time>
      </trkpt>
      <trkpt lat="42.91769393" lon="13.42202092">
        <ele>626.00000</ele>
        <time>2024-05-10T20:21:09Z</time>
      </trkpt>
      <trkpt lat="42.91768396" lon="13.42194599">
        <ele>626.00000</ele>
        <time>2024-05-10T20:21:10Z</time>
      </trkpt>
      <trkpt lat="42.91767499" lon="13.42187499">
        <ele>626.00000</ele>
        <time>2024-05-10T20:21:11Z</time>
      </trkpt>
      <trkpt lat="42.91766392" lon="13.42179796">
        <ele>627.00000</ele>
        <time>2024-05-10T20:21:13Z</time>
      </trkpt>
      <trkpt lat="42.91764498" lon="13.42172194">
        <ele>627.00000</ele>
        <time>2024-05-10T20:21:14Z</time>
      </trkpt>
      <trkpt lat="42.91761891" lon="13.42164197">
        <ele>628.00000</ele>
        <time>2024-05-10T20:21:15Z</time>
      </trkpt>
      <trkpt lat="42.91758991" lon="13.42156092">
        <ele>629.00000</ele>
        <time>2024-05-10T20:21:16Z</time>
      </trkpt>
      <trkpt lat="42.91754893" lon="13.42148599">
        <ele>629.00000</ele>
        <time>2024-05-10T20:21:18Z</time>
      </trkpt>
      <trkpt lat="42.91749997" lon="13.42142094">
        <ele>630.00000</ele>
        <time>2024-05-10T20:21:19Z</time>
      </trkpt>
      <trkpt lat="42.91744591" lon="13.42136495">
        <ele>629.00000</ele>
        <time>2024-05-10T20:21:21Z</time>
      </trkpt>
      <trkpt lat="42.91738296" lon="13.42131793">
        <ele>628.00000</ele>
        <time>2024-05-10T20:21:22Z</time>
      </trkpt>
      <trkpt lat="42.91731398" lon="13.42129195">
        <ele>627.00000</ele>
        <time>2024-05-10T20:21:23Z</time>
      </trkpt>
      <trkpt lat="42.91723997" lon="13.42128097">
        <ele>625.00000</ele>
        <time>2024-05-10T20:21:25Z</time>
      </trkpt>
      <trkpt lat="42.91716897" lon="13.42128499">
        <ele>624.00000</ele>
        <time>2024-05-10T20:21:26Z</time>
      </trkpt>
      <trkpt lat="42.91709999" lon="13.42130695">
        <ele>622.00000</ele>
        <time>2024-05-10T20:21:28Z</time>
      </trkpt>
      <trkpt lat="42.91703092" lon="13.42133495">
        <ele>621.00000</ele>
        <time>2024-05-10T20:21:29Z</time>
      </trkpt>
      <trkpt lat="42.91696496" lon="13.42136495">
        <ele>619.00000</ele>
        <time>2024-05-10T20:21:31Z</time>
      </trkpt>
      <trkpt lat="42.91689598" lon="13.42139194">
        <ele>618.00000</ele>
        <time>2024-05-10T20:21:32Z</time>
      </trkpt>
      <trkpt lat="42.91681593" lon="13.42140192">
        <ele>617.00000</ele>
        <time>2024-05-10T20:21:34Z</time>
      </trkpt>
      <trkpt lat="42.91673596" lon="13.42138297">
        <ele>616.00000</ele>
        <time>2024-05-10T20:21:35Z</time>
      </trkpt>
      <trkpt lat="42.91666497" lon="13.42133293">
        <ele>616.00000</ele>
        <time>2024-05-10T20:21:37Z</time>
      </trkpt>
      <trkpt lat="42.91660998" lon="13.42126093">
        <ele>616.00000</ele>
        <time>2024-05-10T20:21:38Z</time>
      </trkpt>
      <trkpt lat="42.91655793" lon="13.42118298">
        <ele>616.00000</ele>
        <time>2024-05-10T20:21:40Z</time>
      </trkpt>
      <trkpt lat="42.91650697" lon="13.42109598">
        <ele>616.00000</ele>
        <time>2024-05-10T20:21:42Z</time>
      </trkpt>
      <trkpt lat="42.91645693" lon="13.42100193">
        <ele>616.00000</ele>
        <time>2024-05-10T20:21:43Z</time>
      </trkpt>
      <trkpt lat="42.91640798" lon="13.42091099">
        <ele>616.00000</ele>
        <time>2024-05-10T20:21:45Z</time>
      </trkpt>
      <trkpt lat="42.91635392" lon="13.42082398">
        <ele>615.00000</ele>
        <time>2024-05-10T20:21:47Z</time>
      </trkpt>
      <trkpt lat="42.91629692" lon="13.42074092">
        <ele>617.00000</ele>
        <time>2024-05-10T20:21:48Z</time>
      </trkpt>
      <trkpt lat="42.91624093" lon="13.42065794">
        <ele>617.00000</ele>
        <time>2024-05-10T20:21:50Z</time>
      </trkpt>
      <trkpt lat="42.91618896" lon="13.42056993">
        <ele>617.00000</ele>
        <time>2024-05-10T20:21:52Z</time>
      </trkpt>
      <trkpt lat="42.91613196" lon="13.42048393">
        <ele>617.00000</ele>
        <time>2024-05-10T20:21:53Z</time>
      </trkpt>
      <trkpt lat="42.91607296" lon="13.42039592">
        <ele>617.00000</ele>
        <time>2024-05-10T20:21:55Z</time>
      </trkpt>
      <trkpt lat="42.91601495" lon="13.42030498">
        <ele>617.00000</ele>
        <time>2024-05-10T20:21:57Z</time>
      </trkpt>
      <trkpt lat="42.91595594" lon="13.42021093">
        <ele>616.00000</ele>
        <time>2024-05-10T20:21:59Z</time>
      </trkpt>
      <trkpt lat="42.91589995" lon="13.42011094">
        <ele>614.00000</ele>
        <time>2024-05-10T20:22:00Z</time>
      </trkpt>
      <trkpt lat="42.91584899" lon="13.42000692">
        <ele>613.00000</ele>
        <time>2024-05-10T20:22:02Z</time>
      </trkpt>
      <trkpt lat="42.91580096" lon="13.41989192">
        <ele>612.00000</ele>
        <time>2024-05-10T20:22:04Z</time>
      </trkpt>
      <trkpt lat="42.91575696" lon="13.41977692">
        <ele>611.00000</ele>
        <time>2024-05-10T20:22:06Z</time>
      </trkpt>
      <trkpt lat="42.91570893" lon="13.41965999">
        <ele>610.00000</ele>
        <time>2024-05-10T20:22:08Z</time>
      </trkpt>
      <trkpt lat="42.91566593" lon="13.41954499">
        <ele>610.00000</ele>
        <time>2024-05-10T20:22:10Z</time>
      </trkpt>
      <trkpt lat="42.91563592" lon="13.41941599">
        <ele>610.00000</ele>
        <time>2024-05-10T20:22:12Z</time>
      </trkpt>
      <trkpt lat="42.91563995" lon="13.41927995">
        <ele>610.00000</ele>
        <time>2024-05-10T20:22:14Z</time>
      </trkpt>
      <trkpt lat="42.91566694" lon="13.41914894">
        <ele>611.00000</ele>
        <time>2024-05-10T20:22:16Z</time>
      </trkpt>
      <trkpt lat="42.91570298" lon="13.41902892">
        <ele>611.00000</ele>
        <time>2024-05-10T20:22:18Z</time>
      </trkpt>
      <trkpt lat="42.91575193" lon="13.41891995">
        <ele>612.00000</ele>
        <time>2024-05-10T20:22:20Z</time>
      </trkpt>
      <trkpt lat="42.91581597" lon="13.41881794">
        <ele>611.00000</ele>
        <time>2024-05-10T20:22:22Z</time>
      </trkpt>
      <trkpt lat="42.91589098" lon="13.41872499">
        <ele>611.00000</ele>
        <time>2024-05-10T20:22:24Z</time>
      </trkpt>
      <trkpt lat="42.91597497" lon="13.41865793">
        <ele>611.00000</ele>
        <time>2024-05-10T20:22:26Z</time>
      </trkpt>
      <trkpt lat="42.91606592" lon="13.41860898">
        <ele>612.00000</ele>
        <time>2024-05-10T20:22:28Z</time>
      </trkpt>
      <trkpt lat="42.91615393" lon="13.41855199">
        <ele>613.00000</ele>
        <time>2024-05-10T20:22:30Z</time>
      </trkpt>
      <trkpt lat="42.91623598" lon="13.41848292">
        <ele>613.00000</ele>
        <time>2024-05-10T20:22:32Z</time>
      </trkpt>
      <trkpt lat="42.91631092" lon="13.41839399">
        <ele>613.00000</ele>
        <time>2024-05-10T20:22:34Z</time>
      </trkpt>
      <trkpt lat="42.91636792" lon="13.41828796">
        <ele>613.00000</ele>
        <time>2024-05-10T20:22:35Z</time>
      </trkpt>
      <trkpt lat="42.91641192" lon="13.41816298">
        <ele>613.00000</ele>
        <time>2024-05-10T20:22:37Z</time>
      </trkpt>
      <trkpt lat="42.91644796" lon="13.41803692">
        <ele>614.00000</ele>
        <time>2024-05-10T20:22:39Z</time>
      </trkpt>
      <trkpt lat="42.91646699" lon="13.41789895">
        <ele>613.00000</ele>
        <time>2024-05-10T20:22:42Z</time>
      </trkpt>
      <trkpt lat="42.91645593" lon="13.41774892">
        <ele>611.00000</ele>
        <time>2024-05-10T20:22:44Z</time>
      </trkpt>
      <trkpt lat="42.91642793" lon="13.41760994">
        <ele>608.00000</ele>
        <time>2024-05-10T20:22:46Z</time>
      </trkpt>
      <trkpt lat="42.91640798" lon="13.41747491">
        <ele>605.00000</ele>
        <time>2024-05-10T20:22:48Z</time>
      </trkpt>
      <trkpt lat="42.91640195" lon="13.41734994">
        <ele>603.00000</ele>
        <time>2024-05-10T20:22:50Z</time>
      </trkpt>
      <trkpt lat="42.91641997" lon="13.41723091">
        <ele>602.00000</ele>
        <time>2024-05-10T20:22:52Z</time>
      </trkpt>
      <trkpt lat="42.91645593" lon="13.41712798">
        <ele>601.00000</ele>
        <time>2024-05-10T20:22:53Z</time>
      </trkpt>
      <trkpt lat="42.91650898" lon="13.41704098">
        <ele>601.00000</ele>
        <time>2024-05-10T20:22:55Z</time>
      </trkpt>
      <trkpt lat="42.91656891" lon="13.41696797">
        <ele>600.00000</ele>
        <time>2024-05-10T20:22:56Z</time>
      </trkpt>
      <trkpt lat="42.91663597" lon="13.41690293">
        <ele>600.00000</ele>
        <time>2024-05-10T20:22:58Z</time>
      </trkpt>
      <trkpt lat="42.91670897" lon="13.41684292">
        <ele>600.00000</ele>
        <time>2024-05-10T20:23:00Z</time>
      </trkpt>
      <trkpt lat="42.91678592" lon="13.41679799">
        <ele>600.00000</ele>
        <time>2024-05-10T20:23:01Z</time>
      </trkpt>
      <trkpt lat="42.91686798" lon="13.41675993">
        <ele>600.00000</ele>
        <time>2024-05-10T20:23:03Z</time>
      </trkpt>
      <trkpt lat="42.91695297" lon="13.41673295">
        <ele>600.00000</ele>
        <time>2024-05-10T20:23:05Z</time>
      </trkpt>
      <trkpt lat="42.91703897" lon="13.41671392">
        <ele>601.00000</ele>
        <time>2024-05-10T20:23:07Z</time>
      </trkpt>
      <trkpt lat="42.91712296" lon="13.41669296">
        <ele>601.00000</ele>
        <time>2024-05-10T20:23:08Z</time>
      </trkpt>
      <trkpt lat="42.91720896" lon="13.41665793">
        <ele>601.00000</ele>
        <time>2024-05-10T20:23:10Z</time>
      </trkpt>
      <trkpt lat="42.91729093" lon="13.41660797">
        <ele>600.00000</ele>
        <time>2024-05-10T20:23:12Z</time>
      </trkpt>
      <trkpt lat="42.91736394" lon="13.41654494">
        <ele>600.00000</ele>
        <time>2024-05-10T20:23:14Z</time>
      </trkpt>
      <trkpt lat="42.91742797" lon="13.41646799">
        <ele>599.00000</ele>
        <time>2024-05-10T20:23:15Z</time>
      </trkpt>
      <trkpt lat="42.91747994" lon="13.41638292">
        <ele>599.00000</ele>
        <time>2024-05-10T20:23:17Z</time>
      </trkpt>
      <trkpt lat="42.91752495" lon="13.41628996">
        <ele>599.00000</ele>
        <time>2024-05-10T20:23:19Z</time>
      </trkpt>
      <trkpt lat="42.91756292" lon="13.41619298">
        <ele>598.00000</ele>
        <time>2024-05-10T20:23:20Z</time>
      </trkpt>
      <trkpt lat="42.91759394" lon="13.41608695">
        <ele>598.00000</ele>
        <time>2024-05-10T20:23:22Z</time>
      </trkpt>
      <trkpt lat="42.91762193" lon="13.41597698">
        <ele>597.00000</ele>
        <time>2024-05-10T20:23:24Z</time>
      </trkpt>
      <trkpt lat="42.91764699" lon="13.41587397">
        <ele>597.00000</ele>
        <time>2024-05-10T20:23:25Z</time>
      </trkpt>
      <trkpt lat="42.91767499" lon="13.41576693">
        <ele>596.00000</ele>
        <time>2024-05-10T20:23:27Z</time>
      </trkpt>
      <trkpt lat="42.91770894" lon="13.41566693">
        <ele>595.00000</ele>
        <time>2024-05-10T20:23:29Z</time>
      </trkpt>
      <trkpt lat="42.91774297" lon="13.41556593">
        <ele>594.00000</ele>
        <time>2024-05-10T20:23:30Z</time>
      </trkpt>
      <trkpt lat="42.91778999" lon="13.41546895">
        <ele>593.00000</ele>
        <time>2024-05-10T20:23:32Z</time>
      </trkpt>
      <trkpt lat="42.91784598" lon="13.41537692">
        <ele>593.00000</ele>
        <time>2024-05-10T20:23:34Z</time>
      </trkpt>
      <trkpt lat="42.91790893" lon="13.41530098">
        <ele>593.00000</ele>
        <time>2024-05-10T20:23:35Z</time>
      </trkpt>
      <trkpt lat="42.91798395" lon="13.41524692">
        <ele>594.00000</ele>
        <time>2024-05-10T20:23:37Z</time>
      </trkpt>
      <trkpt lat="42.91806492" lon="13.41521398">
        <ele>595.00000</ele>
        <time>2024-05-10T20:23:39Z</time>
      </trkpt>
      <trkpt lat="42.91814496" lon="13.41518992">
        <ele>595.00000</ele>
        <time>2024-05-10T20:23:40Z</time>
      </trkpt>
      <trkpt lat="42.91822199" lon="13.41516796">
        <ele>595.00000</ele>
        <time>2024-05-10T20:23:42Z</time>
      </trkpt>
      <trkpt lat="42.91830095" lon="13.41514298">
        <ele>596.00000</ele>
        <time>2024-05-10T20:23:44Z</time>
      </trkpt>
      <trkpt lat="42.91838192" lon="13.41512094">
        <ele>597.00000</ele>
        <time>2024-05-10T20:23:45Z</time>
      </trkpt>
      <trkpt lat="42.91845794" lon="13.41510099">
        <ele>598.00000</ele>
        <time>2024-05-10T20:23:47Z</time>
      </trkpt>
      <trkpt lat="42.91853497" lon="13.41507995">
        <ele>599.00000</ele>
        <time>2024-05-10T20:23:48Z</time>
      </trkpt>
      <trkpt lat="42.91860798" lon="13.41504793">
        <ele>600.00000</ele>
        <time>2024-05-10T20:23:50Z</time>
      </trkpt>
      <trkpt lat="42.91867797" lon="13.41499898">
        <ele>601.00000</ele>
        <time>2024-05-10T20:23:51Z</time>
      </trkpt>
      <trkpt lat="42.91873496" lon="13.41492195">
        <ele>602.00000</ele>
        <time>2024-05-10T20:23:53Z</time>
      </trkpt>
      <trkpt lat="42.91877193" lon="13.41481894">
        <ele>601.00000</ele>
        <time>2024-05-10T20:23:55Z</time>
      </trkpt>
      <trkpt lat="42.91878391" lon="13.41470394">
        <ele>601.00000</ele>
        <time>2024-05-10T20:23:56Z</time>
      </trkpt>
      <trkpt lat="42.91876799" lon="13.41457896">
        <ele>601.00000</ele>
        <time>2024-05-10T20:23:58Z</time>
      </trkpt>
      <trkpt lat="42.91872893" lon="13.41446992">
        <ele>600.00000</ele>
        <time>2024-05-10T20:24:00Z</time>
      </trkpt>
      <trkpt lat="42.91867696" lon="13.41437595">
        <ele>600.00000</ele>
        <time>2024-05-10T20:24:02Z</time>
      </trkpt>
      <trkpt lat="42.91861896" lon="13.41429096">
        <ele>600.00000</ele>
        <time>2024-05-10T20:24:04Z</time>
      </trkpt>
      <trkpt lat="42.91856096" lon="13.41420295">
        <ele>600.00000</ele>
        <time>2024-05-10T20:24:05Z</time>
      </trkpt>
      <trkpt lat="42.91849792" lon="13.41411092">
        <ele>599.00000</ele>
        <time>2024-05-10T20:24:07Z</time>
      </trkpt>
      <trkpt lat="42.91843196" lon="13.41401394">
        <ele>597.00000</ele>
        <time>2024-05-10T20:24:09Z</time>
      </trkpt>
      <trkpt lat="42.91836792" lon="13.41391998">
        <ele>596.00000</ele>
        <time>2024-05-10T20:24:11Z</time>
      </trkpt>
      <trkpt lat="42.91830296" lon="13.41382795">
        <ele>595.00000</ele>
        <time>2024-05-10T20:24:13Z</time>
      </trkpt>
      <trkpt lat="42.91823691" lon="13.41373097">
        <ele>594.00000</ele>
        <time>2024-05-10T20:24:15Z</time>
      </trkpt>
      <trkpt lat="42.91816994" lon="13.41363198">
        <ele>593.00000</ele>
        <time>2024-05-10T20:24:17Z</time>
      </trkpt>
      <trkpt lat="42.91810096" lon="13.41352796">
        <ele>591.00000</ele>
        <time>2024-05-10T20:24:19Z</time>
      </trkpt>
      <trkpt lat="42.91803591" lon="13.41342796">
        <ele>589.00000</ele>
        <time>2024-05-10T20:24:21Z</time>
      </trkpt>
      <trkpt lat="42.91798193" lon="13.41331196">
        <ele>587.00000</ele>
        <time>2024-05-10T20:24:23Z</time>
      </trkpt>
      <trkpt lat="42.91795092" lon="13.41318095">
        <ele>586.00000</ele>
        <time>2024-05-10T20:24:25Z</time>
      </trkpt>
      <trkpt lat="42.91793692" lon="13.41304499">
        <ele>586.00000</ele>
        <time>2024-05-10T20:24:27Z</time>
      </trkpt>
      <trkpt lat="42.91793097" lon="13.41289797">
        <ele>586.00000</ele>
        <time>2024-05-10T20:24:29Z</time>
      </trkpt>
      <trkpt lat="42.91794296" lon="13.41275397">
        <ele>586.00000</ele>
        <time>2024-05-10T20:24:31Z</time>
      </trkpt>
      <trkpt lat="42.91796693" lon="13.41261693">
        <ele>586.00000</ele>
        <time>2024-05-10T20:24:33Z</time>
      </trkpt>
      <trkpt lat="42.91800691" lon="13.41248491">
        <ele>585.00000</ele>
        <time>2024-05-10T20:24:35Z</time>
      </trkpt>
      <trkpt lat="42.91806098" lon="13.41236497">
        <ele>584.00000</ele>
        <time>2024-05-10T20:24:37Z</time>
      </trkpt>
      <trkpt lat="42.91811797" lon="13.41224494">
        <ele>584.00000</ele>
        <time>2024-05-10T20:24:39Z</time>
      </trkpt>
      <trkpt lat="42.91817396" lon="13.41212097">
        <ele>582.00000</ele>
        <time>2024-05-10T20:24:42Z</time>
      </trkpt>
      <trkpt lat="42.91823498" lon="13.41200195">
        <ele>580.00000</ele>
        <time>2024-05-10T20:24:44Z</time>
      </trkpt>
      <trkpt lat="42.91829299" lon="13.41187597">
        <ele>578.00000</ele>
        <time>2024-05-10T20:24:46Z</time>
      </trkpt>
      <trkpt lat="42.91834797" lon="13.41174798">
        <ele>575.00000</ele>
        <time>2024-05-10T20:24:48Z</time>
      </trkpt>
      <trkpt lat="42.91840396" lon="13.41162392">
        <ele>574.00000</ele>
        <time>2024-05-10T20:24:50Z</time>
      </trkpt>
      <trkpt lat="42.91846498" lon="13.41149996">
        <ele>574.00000</ele>
        <time>2024-05-10T20:24:52Z</time>
      </trkpt>
      <trkpt lat="42.91852299" lon="13.41137498">
        <ele>573.00000</ele>
        <time>2024-05-10T20:24:55Z</time>
      </trkpt>
      <trkpt lat="42.91857998" lon="13.41124699">
        <ele>574.00000</ele>
        <time>2024-05-10T20:24:57Z</time>
      </trkpt>
      <trkpt lat="42.91863497" lon="13.41112294">
        <ele>574.00000</ele>
        <time>2024-05-10T20:24:59Z</time>
      </trkpt>
      <trkpt lat="42.91869498" lon="13.41099997">
        <ele>575.00000</ele>
        <time>2024-05-10T20:25:01Z</time>
      </trkpt>
      <trkpt lat="42.91875097" lon="13.41087098">
        <ele>575.00000</ele>
        <time>2024-05-10T20:25:03Z</time>
      </trkpt>
      <trkpt lat="42.91880898" lon="13.41073796">
        <ele>575.00000</ele>
        <time>2024-05-10T20:25:06Z</time>
      </trkpt>
      <trkpt lat="42.91886698" lon="13.41061298">
        <ele>576.00000</ele>
        <time>2024-05-10T20:25:08Z</time>
      </trkpt>
      <trkpt lat="42.91892892" lon="13.41048792">
        <ele>576.00000</ele>
        <time>2024-05-10T20:25:10Z</time>
      </trkpt>
      <trkpt lat="42.91899397" lon="13.41036094">
        <ele>576.00000</ele>
        <time>2024-05-10T20:25:12Z</time>
      </trkpt>
      <trkpt lat="42.91905499" lon="13.41023194">
        <ele>576.00000</ele>
        <time>2024-05-10T20:25:14Z</time>
      </trkpt>
      <trkpt lat="42.91911492" lon="13.41010395">
        <ele>575.00000</ele>
        <time>2024-05-10T20:25:17Z</time>
      </trkpt>
      <trkpt lat="42.91917493" lon="13.40997596">
        <ele>575.00000</ele>
        <time>2024-05-10T20:25:19Z</time>
      </trkpt>
      <trkpt lat="42.91923293" lon="13.40984595">
        <ele>573.00000</ele>
        <time>2024-05-10T20:25:21Z</time>
      </trkpt>
      <trkpt lat="42.91929496" lon="13.40971293">
        <ele>572.00000</ele>
        <time>2024-05-10T20:25:23Z</time>
      </trkpt>
      <trkpt lat="42.91934793" lon="13.40957899">
        <ele>571.00000</ele>
        <time>2024-05-10T20:25:26Z</time>
      </trkpt>
      <trkpt lat="42.91940099" lon="13.40944195">
        <ele>570.00000</ele>
        <time>2024-05-10T20:25:28Z</time>
      </trkpt>
      <trkpt lat="42.91945195" lon="13.40930691">
        <ele>569.00000</ele>
        <time>2024-05-10T20:25:30Z</time>
      </trkpt>
      <trkpt lat="42.91950291" lon="13.40917498">
        <ele>566.00000</ele>
        <time>2024-05-10T20:25:32Z</time>
      </trkpt>
      <trkpt lat="42.91955698" lon="13.40904599">
        <ele>564.00000</ele>
        <time>2024-05-10T20:25:35Z</time>
      </trkpt>
      <trkpt lat="42.91961297" lon="13.40891892">
        <ele>563.00000</ele>
        <time>2024-05-10T20:25:37Z</time>
      </trkpt>
      <trkpt lat="42.91968195" lon="13.40880593">
        <ele>561.00000</ele>
        <time>2024-05-10T20:25:39Z</time>
      </trkpt>
      <trkpt lat="42.91976694" lon="13.40872094">
        <ele>560.00000</ele>
        <time>2024-05-10T20:25:41Z</time>
      </trkpt>
      <trkpt lat="42.91986996" lon="13.40867492">
        <ele>560.00000</ele>
        <time>2024-05-10T20:25:43Z</time>
      </trkpt>
      <trkpt lat="42.91997892" lon="13.40867391">
        <ele>560.00000</ele>
        <time>2024-05-10T20:25:45Z</time>
      </trkpt>
      <trkpt lat="42.92008093" lon="13.40870493">
        <ele>560.00000</ele>
        <time>2024-05-10T20:25:47Z</time>
      </trkpt>
      <trkpt lat="42.92017892" lon="13.40875396">
        <ele>561.00000</ele>
        <time>2024-05-10T20:25:50Z</time>
      </trkpt>
      <trkpt lat="42.92027195" lon="13.40881993">
        <ele>562.00000</ele>
        <time>2024-05-10T20:25:52Z</time>
      </trkpt>
      <trkpt lat="42.92036198" lon="13.40889997">
        <ele>561.00000</ele>
        <time>2024-05-10T20:25:54Z</time>
      </trkpt>
      <trkpt lat="42.92044797" lon="13.40898497">
        <ele>560.00000</ele>
        <time>2024-05-10T20:25:56Z</time>
      </trkpt>
      <trkpt lat="42.92053397" lon="13.40907792">
        <ele>559.00000</ele>
        <time>2024-05-10T20:25:58Z</time>
      </trkpt>
      <trkpt lat="42.92062198" lon="13.40917297">
        <ele>558.00000</ele>
        <time>2024-05-10T20:26:00Z</time>
      </trkpt>
      <trkpt lat="42.92071091" lon="13.40925897">
        <ele>558.00000</ele>
        <time>2024-05-10T20:26:03Z</time>
      </trkpt>
      <trkpt lat="42.92080597" lon="13.40933592">
        <ele>557.00000</ele>
        <time>2024-05-10T20:26:05Z</time>
      </trkpt>
      <trkpt lat="42.92090797" lon="13.40940699">
        <ele>557.00000</ele>
        <time>2024-05-10T20:26:07Z</time>
      </trkpt>
      <trkpt lat="42.92100998" lon="13.40947992">
        <ele>557.00000</ele>
        <time>2024-05-10T20:26:09Z</time>
      </trkpt>
      <trkpt lat="42.92111098" lon="13.40955594">
        <ele>556.00000</ele>
        <time>2024-05-10T20:26:12Z</time>
      </trkpt>
      <trkpt lat="42.92121098" lon="13.40962995">
        <ele>555.00000</ele>
        <time>2024-05-10T20:26:14Z</time>
      </trkpt>
      <trkpt lat="42.92131097" lon="13.40970698">
        <ele>554.00000</ele>
        <time>2024-05-10T20:26:16Z</time>
      </trkpt>
      <trkpt lat="42.92140795" lon="13.40978795">
        <ele>554.00000</ele>
        <time>2024-05-10T20:26:18Z</time>
      </trkpt>
      <trkpt lat="42.92150191" lon="13.40987395">
        <ele>554.00000</ele>
        <time>2024-05-10T20:26:21Z</time>
      </trkpt>
      <trkpt lat="42.92158599" lon="13.40994897">
        <ele>554.00000</ele>
        <time>2024-05-10T20:26:23Z</time>
      </trkpt>
      <trkpt lat="42.92166394" lon="13.41000999">
        <ele>554.00000</ele>
        <time>2024-05-10T20:26:25Z</time>
      </trkpt>
      <trkpt lat="42.92173795" lon="13.41005299">
        <ele>555.00000</ele>
        <time>2024-05-10T20:26:26Z</time>
      </trkpt>
      <trkpt lat="42.92181297" lon="13.41005098">
        <ele>556.00000</ele>
        <time>2024-05-10T20:26:28Z</time>
      </trkpt>
      <trkpt lat="42.92187994" lon="13.41000295">
        <ele>554.00000</ele>
        <time>2024-05-10T20:26:29Z</time>
      </trkpt>
      <trkpt lat="42.92191598" lon="13.40991091">
        <ele>552.00000</ele>
        <time>2024-05-10T20:26:31Z</time>
      </trkpt>
      <trkpt lat="42.92190793" lon="13.40979893">
        <ele>549.00000</ele>
        <time>2024-05-10T20:26:32Z</time>
      </trkpt>
      <trkpt lat="42.92186695" lon="13.40970396">
        <ele>547.00000</ele>
        <time>2024-05-10T20:26:34Z</time>
      </trkpt>
      <trkpt lat="42.92180894" lon="13.40962392">
        <ele>547.00000</ele>
        <time>2024-05-10T20:26:36Z</time>
      </trkpt>
      <trkpt lat="42.92174692" lon="13.40954697">
        <ele>547.00000</ele>
        <time>2024-05-10T20:26:37Z</time>
      </trkpt>
      <trkpt lat="42.92167995" lon="13.40946692">
        <ele>547.00000</ele>
        <time>2024-05-10T20:26:39Z</time>
      </trkpt>
      <trkpt lat="42.92161297" lon="13.40938596">
        <ele>546.00000</ele>
        <time>2024-05-10T20:26:41Z</time>
      </trkpt>
      <trkpt lat="42.92154491" lon="13.40930893">
        <ele>546.00000</ele>
        <time>2024-05-10T20:26:43Z</time>
      </trkpt>
      <trkpt lat="42.92147995" lon="13.40922595">
        <ele>546.00000</ele>
        <time>2024-05-10T20:26:44Z</time>
      </trkpt>
      <trkpt lat="42.92141097" lon="13.40914196">
        <ele>546.00000</ele>
        <time>2024-05-10T20:26:46Z</time>
      </trkpt>
      <trkpt lat="42.92134392" lon="13.40905898">
        <ele>545.00000</ele>
        <time>2024-05-10T20:26:48Z</time>
      </trkpt>
      <trkpt lat="42.92127996" lon="13.40896493">
        <ele>544.00000</ele>
        <time>2024-05-10T20:26:50Z</time>
      </trkpt>
      <trkpt lat="42.92121391" lon="13.40886795">
        <ele>543.00000</ele>
        <time>2024-05-10T20:26:52Z</time>
      </trkpt>
      <trkpt lat="42.92114392" lon="13.40877491">
        <ele>542.00000</ele>
        <time>2024-05-10T20:26:54Z</time>
      </trkpt>
      <trkpt lat="42.92107192" lon="13.40868196">
        <ele>542.00000</ele>
        <time>2024-05-10T20:26:56Z</time>
      </trkpt>
      <trkpt lat="42.92100495" lon="13.40858398">
        <ele>541.00000</ele>
        <time>2024-05-10T20:26:58Z</time>
      </trkpt>
      <trkpt lat="42.92093195" lon="13.40848398">
        <ele>540.00000</ele>
        <time>2024-05-10T20:27:00Z</time>
      </trkpt>
      <trkpt lat="42.92085399" lon="13.40838692">
        <ele>539.00000</ele>
        <time>2024-05-10T20:27:02Z</time>
      </trkpt>
      <trkpt lat="42.92077898" lon="13.40829798">
        <ele>539.00000</ele>
        <time>2024-05-10T20:27:04Z</time>
      </trkpt>
      <trkpt lat="42.92070798" lon="13.40820997">
        <ele>539.00000</ele>
        <time>2024-05-10T20:27:06Z</time>
      </trkpt>
      <trkpt lat="42.92063891" lon="13.40812498">
        <ele>539.00000</ele>
        <time>2024-05-10T20:27:08Z</time>
      </trkpt>
      <trkpt lat="42.92058099" lon="13.40804896">
        <ele>539.00000</ele>
        <time>2024-05-10T20:27:09Z</time>
      </trkpt>
      <trkpt lat="42.92054395" lon="13.40796899">
        <ele>538.00000</ele>
        <time>2024-05-10T20:27:11Z</time>
      </trkpt>
      <trkpt lat="42.92053791" lon="13.40788995">
        <ele>537.00000</ele>
        <time>2024-05-10T20:27:12Z</time>
      </trkpt>
      <trkpt lat="42.92057395" lon="13.40782499">
        <ele>536.00000</ele>
        <time>2024-05-10T20:27:13Z</time>
      </trkpt>
      <trkpt lat="42.92063598" lon="13.40780697">
        <ele>534.00000</ele>
        <time>2024-05-10T20:27:14Z</time>
      </trkpt>
      <trkpt lat="42.92069499" lon="13.40783799">
        <ele>534.00000</ele>
        <time>2024-05-10T20:27:16Z</time>
      </trkpt>
      <trkpt lat="42.92075098" lon="13.40789993">
        <ele>534.00000</ele>
        <time>2024-05-10T20:27:17Z</time>
      </trkpt>
      <trkpt lat="42.92080697" lon="13.40795994">
        <ele>534.00000</ele>
        <time>2024-05-10T20:27:19Z</time>
      </trkpt>
      <trkpt lat="42.92087092" lon="13.40801694">
        <ele>534.00000</ele>
        <time>2024-05-10T20:27:20Z</time>
      </trkpt>
      <trkpt lat="42.92093899" lon="13.40807695">
        <ele>534.00000</ele>
        <time>2024-05-10T20:27:22Z</time>
      </trkpt>
      <trkpt lat="42.92101291" lon="13.40814393">
        <ele>534.00000</ele>
        <time>2024-05-10T20:27:23Z</time>
      </trkpt>
      <trkpt lat="42.92108793" lon="13.40820495">
        <ele>534.00000</ele>
        <time>2024-05-10T20:27:25Z</time>
      </trkpt>
      <trkpt lat="42.92116396" lon="13.40827192">
        <ele>534.00000</ele>
        <time>2024-05-10T20:27:27Z</time>
      </trkpt>
      <trkpt lat="42.92124392" lon="13.40833394">
        <ele>535.00000</ele>
        <time>2024-05-10T20:27:29Z</time>
      </trkpt>
      <trkpt lat="42.92132598" lon="13.40839798">
        <ele>535.00000</ele>
        <time>2024-05-10T20:27:31Z</time>
      </trkpt>
      <trkpt lat="42.92140594" lon="13.40846696">
        <ele>535.00000</ele>
        <time>2024-05-10T20:27:33Z</time>
      </trkpt>
      <trkpt lat="42.92148699" lon="13.40853997">
        <ele>534.00000</ele>
        <time>2024-05-10T20:27:35Z</time>
      </trkpt>
      <trkpt lat="42.92157098" lon="13.40861096">
        <ele>534.00000</ele>
        <time>2024-05-10T20:27:37Z</time>
      </trkpt>
      <trkpt lat="42.92165698" lon="13.40868498">
        <ele>533.00000</ele>
        <time>2024-05-10T20:27:39Z</time>
      </trkpt>
      <trkpt lat="42.92175094" lon="13.40875195">
        <ele>533.00000</ele>
        <time>2024-05-10T20:27:41Z</time>
      </trkpt>
      <trkpt lat="42.92185597" lon="13.40879998">
        <ele>533.00000</ele>
        <time>2024-05-10T20:27:43Z</time>
      </trkpt>
      <trkpt lat="42.92196493" lon="13.40882093">
        <ele>532.00000</ele>
        <time>2024-05-10T20:27:45Z</time>
      </trkpt>
      <trkpt lat="42.92207599" lon="13.40880995">
        <ele>532.00000</ele>
        <time>2024-05-10T20:27:47Z</time>
      </trkpt>
      <trkpt lat="42.92217892" lon="13.40877399">
        <ele>531.00000</ele>
        <time>2024-05-10T20:27:49Z</time>
      </trkpt>
      <trkpt lat="42.92228093" lon="13.40872094">
        <ele>530.00000</ele>
        <time>2024-05-10T20:27:52Z</time>
      </trkpt>
      <trkpt lat="42.92237992" lon="13.40866193">
        <ele>529.00000</ele>
        <time>2024-05-10T20:27:54Z</time>
      </trkpt>
      <trkpt lat="42.92247296" lon="13.40858096">
        <ele>527.00000</ele>
        <time>2024-05-10T20:27:56Z</time>
      </trkpt>
      <trkpt lat="42.92255795" lon="13.40848691">
        <ele>526.00000</ele>
        <time>2024-05-10T20:27:58Z</time>
      </trkpt>
      <trkpt lat="42.92263791" lon="13.40838692">
        <ele>524.00000</ele>
        <time>2024-05-10T20:28:00Z</time>
      </trkpt>
      <trkpt lat="42.92271796" lon="13.40827896">
        <ele>522.00000</ele>
        <time>2024-05-10T20:28:03Z</time>
      </trkpt>
      <trkpt lat="42.92280094" lon="13.40817796">
        <ele>521.00000</ele>
        <time>2024-05-10T20:28:05Z</time>
      </trkpt>
      <trkpt lat="42.92287998" lon="13.40807796">
        <ele>520.00000</ele>
        <time>2024-05-10T20:28:07Z</time>
      </trkpt>
      <trkpt lat="42.92295592" lon="13.40796397">
        <ele>519.00000</ele>
        <time>2024-05-10T20:28:09Z</time>
      </trkpt>
      <trkpt lat="42.92302499" lon="13.40784494">
        <ele>518.00000</ele>
        <time>2024-05-10T20:28:12Z</time>
      </trkpt>
      <trkpt lat="42.92307696" lon="13.40772592">
        <ele>517.00000</ele>
        <time>2024-05-10T20:28:14Z</time>
      </trkpt>
      <trkpt lat="42.92312197" lon="13.40760799">
        <ele>516.00000</ele>
        <time>2024-05-10T20:28:16Z</time>
      </trkpt>
      <trkpt lat="42.92315399" lon="13.40749198">
        <ele>515.00000</ele>
        <time>2024-05-10T20:28:17Z</time>
      </trkpt>
      <trkpt lat="42.92317997" lon="13.40738193">
        <ele>516.00000</ele>
        <time>2024-05-10T20:28:19Z</time>
      </trkpt>
      <trkpt lat="42.92320495" lon="13.40728394">
        <ele>516.00000</ele>
        <time>2024-05-10T20:28:21Z</time>
      </trkpt>
      <trkpt lat="42.92323898" lon="13.40719291">
        <ele>517.00000</ele>
        <time>2024-05-10T20:28:22Z</time>
      </trkpt>
      <trkpt lat="42.92327192" lon="13.40709996">
        <ele>519.00000</ele>
        <time>2024-05-10T20:28:24Z</time>
      </trkpt>
      <trkpt lat="42.92328097" lon="13.40700692">
        <ele>521.00000</ele>
        <time>2024-05-10T20:28:25Z</time>
      </trkpt>
      <trkpt lat="42.92326396" lon="13.40692595">
        <ele>522.00000</ele>
        <time>2024-05-10T20:28:26Z</time>
      </trkpt>
      <trkpt lat="42.92322892" lon="13.40686493">
        <ele>523.00000</ele>
        <time>2024-05-10T20:28:27Z</time>
      </trkpt>
      <trkpt lat="42.92318198" lon="13.40682294">
        <ele>524.00000</ele>
        <time>2024-05-10T20:28:28Z</time>
      </trkpt>
      <trkpt lat="42.92312993" lon="13.40678497">
        <ele>524.00000</ele>
        <time>2024-05-10T20:28:30Z</time>
      </trkpt>
      <trkpt lat="42.92307998" lon="13.40675999">
        <ele>524.00000</ele>
        <time>2024-05-10T20:28:31Z</time>
      </trkpt>
      <trkpt lat="42.92302994" lon="13.40673794">
        <ele>524.00000</ele>
        <time>2024-05-10T20:28:32Z</time>
      </trkpt>
      <trkpt lat="42.92297998" lon="13.40671791">
        <ele>524.00000</ele>
        <time>2024-05-10T20:28:33Z</time>
      </trkpt>
      <trkpt lat="42.92293095" lon="13.40669193">
        <ele>525.00000</ele>
        <time>2024-05-10T20:28:34Z</time>
      </trkpt>
      <trkpt lat="42.92288392" lon="13.40666594">
        <ele>525.00000</ele>
        <time>2024-05-10T20:28:35Z</time>
      </trkpt>
      <trkpt lat="42.92283891" lon="13.40664298">
        <ele>525.00000</ele>
        <time>2024-05-10T20:28:36Z</time>
      </trkpt>
      <trkpt lat="42.92279792" lon="13.40661792">
        <ele>525.00000</ele>
        <time>2024-05-10T20:28:37Z</time>
      </trkpt>
      <trkpt lat="42.92275593" lon="13.40659394">
        <ele>525.00000</ele>
        <time>2024-05-10T20:28:38Z</time>
      </trkpt>
      <trkpt lat="42.92271394" lon="13.40656695">
        <ele>526.00000</ele>
        <time>2024-05-10T20:28:39Z</time>
      </trkpt>
      <trkpt lat="42.92267295" lon="13.40653695">
        <ele>526.00000</ele>
        <time>2024-05-10T20:28:39Z</time>
      </trkpt>
      <trkpt lat="42.92263498" lon="13.40650795">
        <ele>526.00000</ele>
        <time>2024-05-10T20:28:40Z</time>
      </trkpt>
      <trkpt lat="42.92260095" lon="13.40648196">
        <ele>526.00000</ele>
        <time>2024-05-10T20:28:41Z</time>
      </trkpt>
      <trkpt lat="42.92256298" lon="13.40645598">
        <ele>527.00000</ele>
        <time>2024-05-10T20:28:42Z</time>
      </trkpt>
      <trkpt lat="42.92252694" lon="13.40643092">
        <ele>527.00000</ele>
        <time>2024-05-10T20:28:43Z</time>
      </trkpt>
      <trkpt lat="42.92249098" lon="13.40640895">
        <ele>527.00000</ele>
        <time>2024-05-10T20:28:44Z</time>
      </trkpt>
      <trkpt lat="42.92245695" lon="13.40638297">
        <ele>527.00000</ele>
        <time>2024-05-10T20:28:44Z</time>
      </trkpt>
      <trkpt lat="42.92242392" lon="13.40635799">
        <ele>527.00000</ele>
        <time>2024-05-10T20:28:45Z</time>
      </trkpt>
      <trkpt lat="42.92239199" lon="13.40632899">
        <ele>528.00000</ele>
        <time>2024-05-10T20:28:46Z</time>
      </trkpt>
      <trkpt lat="42.92236299" lon="13.40630695">
        <ele>528.00000</ele>
        <time>2024-05-10T20:28:47Z</time>
      </trkpt>
      <trkpt lat="42.92232896" lon="13.40628599">
        <ele>528.00000</ele>
        <time>2024-05-10T20:28:47Z</time>
      </trkpt>
      <trkpt lat="42.92229291" lon="13.40626898">
        <ele>528.00000</ele>
        <time>2024-05-10T20:28:48Z</time>
      </trkpt>
      <trkpt lat="42.92225997" lon="13.40625096">
        <ele>528.00000</ele>
        <time>2024-05-10T20:28:49Z</time>
      </trkpt>
      <trkpt lat="42.92222796" lon="13.40623495">
        <ele>527.00000</ele>
        <time>2024-05-10T20:28:49Z</time>
      </trkpt>
      <trkpt lat="42.92219392" lon="13.40621097">
        <ele>528.00000</ele>
        <time>2024-05-10T20:28:50Z</time>
      </trkpt>
      <trkpt lat="42.92215897" lon="13.40618893">
        <ele>528.00000</ele>
        <time>2024-05-10T20:28:51Z</time>
      </trkpt>
      <trkpt lat="42.92212595" lon="13.40616496">
        <ele>528.00000</ele>
        <time>2024-05-10T20:28:52Z</time>
      </trkpt>
      <trkpt lat="42.92209493" lon="13.40613897">
        <ele>528.00000</ele>
        <time>2024-05-10T20:28:52Z</time>
      </trkpt>
      <trkpt lat="42.92205797" lon="13.40611492">
        <ele>528.00000</ele>
        <time>2024-05-10T20:28:53Z</time>
      </trkpt>
      <trkpt lat="42.92201992" lon="13.40609195">
        <ele>528.00000</ele>
        <time>2024-05-10T20:28:54Z</time>
      </trkpt>
      <trkpt lat="42.92198295" lon="13.40606999">
        <ele>529.00000</ele>
        <time>2024-05-10T20:28:55Z</time>
      </trkpt>
      <trkpt lat="42.92194599" lon="13.40604593">
        <ele>529.00000</ele>
        <time>2024-05-10T20:28:56Z</time>
      </trkpt>
      <trkpt lat="42.92191296" lon="13.40601794">
        <ele>529.00000</ele>
        <time>2024-05-10T20:28:57Z</time>
      </trkpt>
      <trkpt lat="42.92187793" lon="13.40599397">
        <ele>529.00000</ele>
        <time>2024-05-10T20:28:57Z</time>
      </trkpt>
      <trkpt lat="42.92184297" lon="13.40597695">
        <ele>528.00000</ele>
        <time>2024-05-10T20:28:58Z</time>
      </trkpt>
      <trkpt lat="42.92181096" lon="13.40595893">
        <ele>528.00000</ele>
        <time>2024-05-10T20:28:59Z</time>
      </trkpt>
      <trkpt lat="42.92177793" lon="13.40593999">
        <ele>528.00000</ele>
        <time>2024-05-10T20:28:59Z</time>
      </trkpt>
      <trkpt lat="42.92174692" lon="13.40591895">
        <ele>528.00000</ele>
        <time>2024-05-10T20:29:00Z</time>
      </trkpt>
      <trkpt lat="42.92171498" lon="13.40589699">
        <ele>528.00000</ele>
        <time>2024-05-10T20:29:01Z</time>
      </trkpt>
      <trkpt lat="42.92168498" lon="13.40586991">
        <ele>528.00000</ele>
        <time>2024-05-10T20:29:02Z</time>
      </trkpt>
      <trkpt lat="42.92165296" lon="13.40584494">
        <ele>528.00000</ele>
        <time>2024-05-10T20:29:02Z</time>
      </trkpt>
      <trkpt lat="42.92162194" lon="13.40582692">
        <ele>529.00000</ele>
        <time>2024-05-10T20:29:03Z</time>
      </trkpt>
      <trkpt lat="42.92159093" lon="13.40580395">
        <ele>529.00000</ele>
        <time>2024-05-10T20:29:04Z</time>
      </trkpt>
      <trkpt lat="42.92156092" lon="13.40577797">
        <ele>530.00000</ele>
        <time>2024-05-10T20:29:04Z</time>
      </trkpt>
      <trkpt lat="42.92152899" lon="13.40576296">
        <ele>530.00000</ele>
        <time>2024-05-10T20:29:05Z</time>
      </trkpt>
      <trkpt lat="42.92149798" lon="13.40574997">
        <ele>530.00000</ele>
        <time>2024-05-10T20:29:06Z</time>
      </trkpt>
      <trkpt lat="42.92146596" lon="13.40573396">
        <ele>530.00000</ele>
        <time>2024-05-10T20:29:06Z</time>
      </trkpt>
      <trkpt lat="42.92143394" lon="13.40571292">
        <ele>531.00000</ele>
        <time>2024-05-10T20:29:07Z</time>
      </trkpt>
      <trkpt lat="42.92140393" lon="13.40568794">
        <ele>531.00000</ele>
        <time>2024-05-10T20:29:08Z</time>
      </trkpt>
      <trkpt lat="42.92137593" lon="13.40566598">
        <ele>531.00000</ele>
        <time>2024-05-10T20:29:08Z</time>
      </trkpt>
      <trkpt lat="42.92134794" lon="13.40564394">
        <ele>531.00000</ele>
        <time>2024-05-10T20:29:09Z</time>
      </trkpt>
      <trkpt lat="42.92131793" lon="13.40562298">
        <ele>531.00000</ele>
        <time>2024-05-10T20:29:10Z</time>
      </trkpt>
      <trkpt lat="42.92128893" lon="13.40559599">
        <ele>531.00000</ele>
        <time>2024-05-10T20:29:10Z</time>
      </trkpt>
      <trkpt lat="42.92126999" lon="13.40555693">
        <ele>532.00000</ele>
        <time>2024-05-10T20:29:11Z</time>
      </trkpt>
      <trkpt lat="42.92125892" lon="13.40551092">
        <ele>532.00000</ele>
        <time>2024-05-10T20:29:12Z</time>
      </trkpt>
      <trkpt lat="42.92126093" lon="13.40546599">
        <ele>532.00000</ele>
        <time>2024-05-10T20:29:13Z</time>
      </trkpt>
      <trkpt lat="42.92127099" lon="13.40541796">
        <ele>533.00000</ele>
        <time>2024-05-10T20:29:13Z</time>
      </trkpt>
      <trkpt lat="42.92127694" lon="13.40537496">
        <ele>533.00000</ele>
        <time>2024-05-10T20:29:14Z</time>
      </trkpt>
      <trkpt lat="42.92127694" lon="13.40533498">
        <ele>534.00000</ele>
        <time>2024-05-10T20:29:15Z</time>
      </trkpt>
      <trkpt lat="42.92127393" lon="13.40530095">
        <ele>534.00000</ele>
        <time>2024-05-10T20:29:15Z</time>
      </trkpt>
      <trkpt lat="42.92127099" lon="13.40526298">
        <ele>534.00000</ele>
        <time>2024-05-10T20:29:16Z</time>
      </trkpt>
      <trkpt lat="42.92126295" lon="13.40522794">
        <ele>534.00000</ele>
        <time>2024-05-10T20:29:16Z</time>
      </trkpt>
      <trkpt lat="42.92125993" lon="13.40519098">
        <ele>534.00000</ele>
        <time>2024-05-10T20:29:17Z</time>
      </trkpt>
      <trkpt lat="42.92125792" lon="13.40515494">
        <ele>534.00000</ele>
        <time>2024-05-10T20:29:17Z</time>
      </trkpt>
      <trkpt lat="42.92125892" lon="13.40511999">
        <ele>535.00000</ele>
        <time>2024-05-10T20:29:18Z</time>
      </trkpt>
      <trkpt lat="42.92125792" lon="13.40508193">
        <ele>535.00000</ele>
        <time>2024-05-10T20:29:18Z</time>
      </trkpt>
      <trkpt lat="42.92126093" lon="13.40504698">
        <ele>535.00000</ele>
        <time>2024-05-10T20:29:19Z</time>
      </trkpt>
      <trkpt lat="42.92125892" lon="13.40501395">
        <ele>535.00000</ele>
        <time>2024-05-10T20:29:19Z</time>
      </trkpt>
      <trkpt lat="42.92125691" lon="13.40498395">
        <ele>535.00000</ele>
        <time>2024-05-10T20:29:20Z</time>
      </trkpt>
      <trkpt lat="42.92125096" lon="13.40494891">
        <ele>536.00000</ele>
        <time>2024-05-10T20:29:20Z</time>
      </trkpt>
      <trkpt lat="42.92124493" lon="13.40491496">
        <ele>536.00000</ele>
        <time>2024-05-10T20:29:21Z</time>
      </trkpt>
      <trkpt lat="42.92123897" lon="13.40488295">
        <ele>537.00000</ele>
        <time>2024-05-10T20:29:21Z</time>
      </trkpt>
      <trkpt lat="42.92123696" lon="13.40484892">
        <ele>537.00000</ele>
        <time>2024-05-10T20:29:22Z</time>
      </trkpt>
      <trkpt lat="42.92123395" lon="13.40481497">
        <ele>538.00000</ele>
        <time>2024-05-10T20:29:22Z</time>
      </trkpt>
      <trkpt lat="42.92123294" lon="13.40478496">
        <ele>538.00000</ele>
        <time>2024-05-10T20:29:23Z</time>
      </trkpt>
      <trkpt lat="42.92123193" lon="13.40475395">
        <ele>539.00000</ele>
        <time>2024-05-10T20:29:23Z</time>
      </trkpt>
      <trkpt lat="42.92123395" lon="13.40472394">
        <ele>539.00000</ele>
        <time>2024-05-10T20:29:24Z</time>
      </trkpt>
      <trkpt lat="42.92123596" lon="13.40469192">
        <ele>540.00000</ele>
        <time>2024-05-10T20:29:24Z</time>
      </trkpt>
      <trkpt lat="42.92123596" lon="13.40465999">
        <ele>541.00000</ele>
        <time>2024-05-10T20:29:25Z</time>
      </trkpt>
      <trkpt lat="42.92123193" lon="13.40462897">
        <ele>542.00000</ele>
        <time>2024-05-10T20:29:25Z</time>
      </trkpt>
      <trkpt lat="42.92123093" lon="13.40459394">
        <ele>542.00000</ele>
        <time>2024-05-10T20:29:25Z</time>
      </trkpt>
      <trkpt lat="42.92123395" lon="13.40455899">
        <ele>543.00000</ele>
        <time>2024-05-10T20:29:26Z</time>
      </trkpt>
      <trkpt lat="42.92123395" lon="13.40452898">
        <ele>544.00000</ele>
        <time>2024-05-10T20:29:26Z</time>
      </trkpt>
      <trkpt lat="42.92123193" lon="13.40450098">
        <ele>545.00000</ele>
        <time>2024-05-10T20:29:27Z</time>
      </trkpt>
      <trkpt lat="42.92122699" lon="13.40447098">
        <ele>545.00000</ele>
        <time>2024-05-10T20:29:27Z</time>
      </trkpt>
      <trkpt lat="42.92122196" lon="13.40444097">
        <ele>546.00000</ele>
        <time>2024-05-10T20:29:28Z</time>
      </trkpt>
      <trkpt lat="42.92122095" lon="13.40441197">
        <ele>547.00000</ele>
        <time>2024-05-10T20:29:28Z</time>
      </trkpt>
      <trkpt lat="42.92121794" lon="13.40438397">
        <ele>547.00000</ele>
        <time>2024-05-10T20:29:29Z</time>
      </trkpt>
      <trkpt lat="42.92121894" lon="13.40435195">
        <ele>548.00000</ele>
        <time>2024-05-10T20:29:29Z</time>
      </trkpt>
      <trkpt lat="42.92122296" lon="13.40431993">
        <ele>549.00000</ele>
        <time>2024-05-10T20:29:30Z</time>
      </trkpt>
      <trkpt lat="42.92122598" lon="13.40429093">
        <ele>549.00000</ele>
        <time>2024-05-10T20:29:30Z</time>
      </trkpt>
      <trkpt lat="42.92122196" lon="13.40426092">
        <ele>550.00000</ele>
        <time>2024-05-10T20:29:30Z</time>
      </trkpt>
      <trkpt lat="42.92121492" lon="13.40423293">
        <ele>550.00000</ele>
        <time>2024-05-10T20:29:31Z</time>
      </trkpt>
      <trkpt lat="42.92120897" lon="13.40420393">
        <ele>551.00000</ele>
        <time>2024-05-10T20:29:31Z</time>
      </trkpt>
      <trkpt lat="42.92120494" lon="13.40417694">
        <ele>551.00000</ele>
        <time>2024-05-10T20:29:32Z</time>
      </trkpt>
      <trkpt lat="42.92119195" lon="13.40415892">
        <ele>552.00000</ele>
        <time>2024-05-10T20:29:32Z</time>
      </trkpt>
      <trkpt lat="42.92118198" lon="13.40413494">
        <ele>552.00000</ele>
        <time>2024-05-10T20:29:32Z</time>
      </trkpt>
      <trkpt lat="42.92116597" lon="13.40411592">
        <ele>552.00000</ele>
        <time>2024-05-10T20:29:33Z</time>
      </trkpt>
      <trkpt lat="42.92114895" lon="13.40409597">
        <ele>552.00000</ele>
        <time>2024-05-10T20:29:33Z</time>
      </trkpt>
      <trkpt lat="42.92112993" lon="13.40407493">
        <ele>552.00000</ele>
        <time>2024-05-10T20:29:34Z</time>
      </trkpt>
      <trkpt lat="42.92110897" lon="13.40405993">
        <ele>552.00000</ele>
        <time>2024-05-10T20:29:34Z</time>
      </trkpt>
      <trkpt lat="42.92109196" lon="13.40404492">
        <ele>553.00000</ele>
        <time>2024-05-10T20:29:35Z</time>
      </trkpt>
      <trkpt lat="42.92107192" lon="13.40403495">
        <ele>553.00000</ele>
        <time>2024-05-10T20:29:35Z</time>
      </trkpt>
      <trkpt lat="42.92105499" lon="13.40402296">
        <ele>553.00000</ele>
        <time>2024-05-10T20:29:36Z</time>
      </trkpt>
      <trkpt lat="42.92103395" lon="13.40400896">
        <ele>553.00000</ele>
        <time>2024-05-10T20:29:36Z</time>
      </trkpt>
      <trkpt lat="42.92101291" lon="13.40399597">
        <ele>553.00000</ele>
        <time>2024-05-10T20:29:36Z</time>
      </trkpt>
      <trkpt lat="42.92099095" lon="13.40398793">
        <ele>553.00000</ele>
        <time>2024-05-10T20:29:37Z</time>
      </trkpt>
      <trkpt lat="42.92097193" lon="13.40398591">
        <ele>553.00000</ele>
        <time>2024-05-10T20:29:37Z</time>
      </trkpt>
      <trkpt lat="42.92095592" lon="13.40397695">
        <ele>553.00000</ele>
        <time>2024-05-10T20:29:38Z</time>
      </trkpt>
      <trkpt lat="42.92093597" lon="13.40396999">
        <ele>553.00000</ele>
        <time>2024-05-10T20:29:38Z</time>
      </trkpt>
      <trkpt lat="42.92091694" lon="13.40396395">
        <ele>553.00000</ele>
        <time>2024-05-10T20:29:38Z</time>
      </trkpt>
      <trkpt lat="42.92089993" lon="13.40395691">
        <ele>553.00000</ele>
        <time>2024-05-10T20:29:39Z</time>
      </trkpt>
      <trkpt lat="42.92087897" lon="13.40395398">
        <ele>553.00000</ele>
        <time>2024-05-10T20:29:39Z</time>
      </trkpt>
      <trkpt lat="42.92085793" lon="13.40394895">
        <ele>553.00000</ele>
        <time>2024-05-10T20:29:40Z</time>
      </trkpt>
      <trkpt lat="42.92083698" lon="13.40394593">
        <ele>553.00000</ele>
        <time>2024-05-10T20:29:40Z</time>
      </trkpt>
      <trkpt lat="42.92081795" lon="13.40394493">
        <ele>552.00000</ele>
        <time>2024-05-10T20:29:40Z</time>
      </trkpt>
      <trkpt lat="42.92079993" lon="13.40393797">
        <ele>552.00000</ele>
        <time>2024-05-10T20:29:41Z</time>
      </trkpt>
      <trkpt lat="42.92078291" lon="13.40392699">
        <ele>553.00000</ele>
        <time>2024-05-10T20:29:41Z</time>
      </trkpt>
      <trkpt lat="42.92076297" lon="13.40391995">
        <ele>553.00000</ele>
        <time>2024-05-10T20:29:42Z</time>
      </trkpt>
      <trkpt lat="42.92074394" lon="13.40391391">
        <ele>553.00000</ele>
        <time>2024-05-10T20:29:42Z</time>
      </trkpt>
      <trkpt lat="42.92072491" lon="13.40391199">
        <ele>553.00000</ele>
        <time>2024-05-10T20:29:42Z</time>
      </trkpt>
      <trkpt lat="42.92070496" lon="13.40390595">
        <ele>553.00000</ele>
        <time>2024-05-10T20:29:43Z</time>
      </trkpt>
      <trkpt lat="42.92068594" lon="13.40390092">
        <ele>553.00000</ele>
        <time>2024-05-10T20:29:43Z</time>
      </trkpt>
      <trkpt lat="42.92066398" lon="13.40389296">
        <ele>553.00000</ele>
        <time>2024-05-10T20:29:44Z</time>
      </trkpt>
      <trkpt lat="42.92064595" lon="13.40388793">
        <ele>553.00000</ele>
        <time>2024-05-10T20:29:44Z</time>
      </trkpt>
      <trkpt lat="42.92062693" lon="13.40387796">
        <ele>553.00000</ele>
        <time>2024-05-10T20:29:44Z</time>
      </trkpt>
      <trkpt lat="42.92060698" lon="13.40387091">
        <ele>553.00000</ele>
        <time>2024-05-10T20:29:45Z</time>
      </trkpt>
      <trkpt lat="42.92058896" lon="13.40386195">
        <ele>553.00000</ele>
        <time>2024-05-10T20:29:45Z</time>
      </trkpt>
      <trkpt lat="42.92056993" lon="13.40385692">
        <ele>553.00000</ele>
        <time>2024-05-10T20:29:46Z</time>
      </trkpt>
      <trkpt lat="42.92055199" lon="13.40385398">
        <ele>553.00000</ele>
        <time>2024-05-10T20:29:46Z</time>
      </trkpt>
      <trkpt lat="42.92053196" lon="13.40385398">
        <ele>553.00000</ele>
        <time>2024-05-10T20:29:46Z</time>
      </trkpt>
      <trkpt lat="42.92051293" lon="13.40384895">
        <ele>553.00000</ele>
        <time>2024-05-10T20:29:47Z</time>
      </trkpt>
      <trkpt lat="42.92049491" lon="13.40384292">
        <ele>553.00000</ele>
        <time>2024-05-10T20:29:47Z</time>
      </trkpt>
      <trkpt lat="42.92047396" lon="13.40383496">
        <ele>553.00000</ele>
        <time>2024-05-10T20:29:48Z</time>
      </trkpt>
      <trkpt lat="42.92045493" lon="13.40382599">
        <ele>553.00000</ele>
        <time>2024-05-10T20:29:48Z</time>
      </trkpt>
      <trkpt lat="42.92043599" lon="13.40381794">
        <ele>553.00000</ele>
        <time>2024-05-10T20:29:48Z</time>
      </trkpt>
      <trkpt lat="42.92041696" lon="13.40380897">
        <ele>553.00000</ele>
        <time>2024-05-10T20:29:49Z</time>
      </trkpt>
      <trkpt lat="42.92039793" lon="13.40379598">
        <ele>553.00000</ele>
        <time>2024-05-10T20:29:49Z</time>
      </trkpt>
      <trkpt lat="42.92037597" lon="13.40378693">
        <ele>553.00000</ele>
        <time>2024-05-10T20:29:50Z</time>
      </trkpt>
      <trkpt lat="42.92035896" lon="13.40378098">
        <ele>553.00000</ele>
        <time>2024-05-10T20:29:50Z</time>
      </trkpt>
      <trkpt lat="42.92034094" lon="13.40377394">
        <ele>553.00000</ele>
        <time>2024-05-10T20:29:50Z</time>
      </trkpt>
      <trkpt lat="42.92032099" lon="13.40376396">
        <ele>553.00000</ele>
        <time>2024-05-10T20:29:51Z</time>
      </trkpt>
      <trkpt lat="42.92030196" lon="13.40375592">
        <ele>553.00000</ele>
        <time>2024-05-10T20:29:51Z</time>
      </trkpt>
      <trkpt lat="42.92028595" lon="13.40374695">
        <ele>553.00000</ele>
        <time>2024-05-10T20:29:52Z</time>
      </trkpt>
      <trkpt lat="42.92026994" lon="13.40374091">
        <ele>553.00000</ele>
        <time>2024-05-10T20:29:52Z</time>
      </trkpt>
      <trkpt lat="42.92024999" lon="13.40373798">
        <ele>553.00000</ele>
        <time>2024-05-10T20:29:52Z</time>
      </trkpt>
      <trkpt lat="42.92023298" lon="13.40373395">
        <ele>553.00000</ele>
        <time>2024-05-10T20:29:53Z</time>
      </trkpt>
      <trkpt lat="42.92021295" lon="13.40372691">
        <ele>553.00000</ele>
        <time>2024-05-10T20:29:53Z</time>
      </trkpt>
      <trkpt lat="42.92019593" lon="13.40371694">
        <ele>553.00000</ele>
        <time>2024-05-10T20:29:53Z</time>
      </trkpt>
      <trkpt lat="42.92017498" lon="13.40370998">
        <ele>553.00000</ele>
        <time>2024-05-10T20:29:54Z</time>
      </trkpt>
      <trkpt lat="42.92015193" lon="13.40370395">
        <ele>553.00000</ele>
        <time>2024-05-10T20:29:54Z</time>
      </trkpt>
      <trkpt lat="42.92013592" lon="13.40369196">
        <ele>553.00000</ele>
        <time>2024-05-10T20:29:55Z</time>
      </trkpt>
      <trkpt lat="42.92011697" lon="13.40368199">
        <ele>553.00000</ele>
        <time>2024-05-10T20:29:55Z</time>
      </trkpt>
      <trkpt lat="42.92009895" lon="13.40367394">
        <ele>554.00000</ele>
        <time>2024-05-10T20:29:55Z</time>
      </trkpt>
      <trkpt lat="42.92008093" lon="13.40366195">
        <ele>554.00000</ele>
        <time>2024-05-10T20:29:56Z</time>
      </trkpt>
      <trkpt lat="42.92005998" lon="13.40365198">
        <ele>554.00000</ele>
        <time>2024-05-10T20:29:56Z</time>
      </trkpt>
      <trkpt lat="42.92003894" lon="13.40363798">
        <ele>555.00000</ele>
        <time>2024-05-10T20:29:57Z</time>
      </trkpt>
      <trkpt lat="42.92002092" lon="13.40362499">
        <ele>555.00000</ele>
        <time>2024-05-10T20:29:57Z</time>
      </trkpt>
      <trkpt lat="42.92000097" lon="13.40361292">
        <ele>555.00000</ele>
        <time>2024-05-10T20:29:58Z</time>
      </trkpt>
      <trkpt lat="42.91998295" lon="13.40360093">
        <ele>555.00000</ele>
        <time>2024-05-10T20:29:58Z</time>
      </trkpt>
      <trkpt lat="42.91996392" lon="13.40358199">
        <ele>555.00000</ele>
        <time>2024-05-10T20:29:58Z</time>
      </trkpt>
      <trkpt lat="42.91994699" lon="13.40356397">
        <ele>555.00000</ele>
        <time>2024-05-10T20:29:59Z</time>
      </trkpt>
      <trkpt lat="42.91992897" lon="13.40354595">
        <ele>555.00000</ele>
        <time>2024-05-10T20:29:59Z</time>
      </trkpt>
      <trkpt lat="42.91991296" lon="13.40352298">
        <ele>555.00000</ele>
        <time>2024-05-10T20:30:00Z</time>
      </trkpt>
      <trkpt lat="42.91989997" lon="13.40350395">
        <ele>555.00000</ele>
        <time>2024-05-10T20:30:00Z</time>
      </trkpt>
      <trkpt lat="42.91989091" lon="13.40348292">
        <ele>556.00000</ele>
        <time>2024-05-10T20:30:01Z</time>
      </trkpt>
      <trkpt lat="42.91987599" lon="13.40346096">
        <ele>556.00000</ele>
        <time>2024-05-10T20:30:01Z</time>
      </trkpt>
      <trkpt lat="42.91985898" lon="13.40343598">
        <ele>556.00000</ele>
        <time>2024-05-10T20:30:01Z</time>
      </trkpt>
      <trkpt lat="42.91984699" lon="13.40341192">
        <ele>556.00000</ele>
        <time>2024-05-10T20:30:02Z</time>
      </trkpt>
      <trkpt lat="42.91983593" lon="13.40339097">
        <ele>556.00000</ele>
        <time>2024-05-10T20:30:02Z</time>
      </trkpt>
      <trkpt lat="42.91982394" lon="13.40336993">
        <ele>557.00000</ele>
        <time>2024-05-10T20:30:03Z</time>
      </trkpt>
      <trkpt lat="42.91981095" lon="13.40334696">
        <ele>557.00000</ele>
        <time>2024-05-10T20:30:03Z</time>
      </trkpt>
      <trkpt lat="42.91979796" lon="13.40332198">
        <ele>557.00000</ele>
        <time>2024-05-10T20:30:04Z</time>
      </trkpt>
      <trkpt lat="42.91978899" lon="13.40329692">
        <ele>558.00000</ele>
        <time>2024-05-10T20:30:04Z</time>
      </trkpt>
      <trkpt lat="42.91978195" lon="13.40326893">
        <ele>558.00000</ele>
        <time>2024-05-10T20:30:04Z</time>
      </trkpt>
      <trkpt lat="42.91977097" lon="13.40324194">
        <ele>558.00000</ele>
        <time>2024-05-10T20:30:05Z</time>
      </trkpt>
      <trkpt lat="42.91976099" lon="13.40321696">
        <ele>559.00000</ele>
        <time>2024-05-10T20:30:05Z</time>
      </trkpt>
      <trkpt lat="42.91974993" lon="13.40318997">
        <ele>559.00000</ele>
        <time>2024-05-10T20:30:06Z</time>
      </trkpt>
      <trkpt lat="42.91973995" lon="13.40316692">
        <ele>559.00000</ele>
        <time>2024-05-10T20:30:06Z</time>
      </trkpt>
      <trkpt lat="42.91973199" lon="13.40313993">
        <ele>560.00000</ele>
        <time>2024-05-10T20:30:07Z</time>
      </trkpt>
      <trkpt lat="42.91972294" lon="13.40311193">
        <ele>560.00000</ele>
        <time>2024-05-10T20:30:07Z</time>
      </trkpt>
      <trkpt lat="42.91971397" lon="13.40308897">
        <ele>560.00000</ele>
        <time>2024-05-10T20:30:07Z</time>
      </trkpt>
      <trkpt lat="42.91970492" lon="13.40306298">
        <ele>560.00000</ele>
        <time>2024-05-10T20:30:08Z</time>
      </trkpt>
      <trkpt lat="42.91969092" lon="13.40303692">
        <ele>560.00000</ele>
        <time>2024-05-10T20:30:08Z</time>
      </trkpt>
      <trkpt lat="42.91967793" lon="13.40301395">
        <ele>561.00000</ele>
        <time>2024-05-10T20:30:09Z</time>
      </trkpt>
      <trkpt lat="42.91966293" lon="13.40299098">
        <ele>561.00000</ele>
        <time>2024-05-10T20:30:09Z</time>
      </trkpt>
      <trkpt lat="42.91965496" lon="13.40296491">
        <ele>561.00000</ele>
        <time>2024-05-10T20:30:10Z</time>
      </trkpt>
      <trkpt lat="42.91964893" lon="13.40294094">
        <ele>562.00000</ele>
        <time>2024-05-10T20:30:10Z</time>
      </trkpt>
      <trkpt lat="42.91964298" lon="13.40291295">
        <ele>562.00000</ele>
        <time>2024-05-10T20:30:10Z</time>
      </trkpt>
      <trkpt lat="42.91963795" lon="13.40288696">
        <ele>563.00000</ele>
        <time>2024-05-10T20:30:11Z</time>
      </trkpt>
      <trkpt lat="42.91963099" lon="13.40285997">
        <ele>563.00000</ele>
        <time>2024-05-10T20:30:11Z</time>
      </trkpt>
      <trkpt lat="42.91962697" lon="13.40283097">
        <ele>564.00000</ele>
        <time>2024-05-10T20:30:12Z</time>
      </trkpt>
      <trkpt lat="42.91961993" lon="13.40279996">
        <ele>564.00000</ele>
        <time>2024-05-10T20:30:12Z</time>
      </trkpt>
      <trkpt lat="42.91961196" lon="13.40277498">
        <ele>564.00000</ele>
        <time>2024-05-10T20:30:12Z</time>
      </trkpt>
      <trkpt lat="42.91960392" lon="13.40275092">
        <ele>565.00000</ele>
        <time>2024-05-10T20:30:13Z</time>
      </trkpt>
      <trkpt lat="42.91959998" lon="13.40272595">
        <ele>565.00000</ele>
        <time>2024-05-10T20:30:13Z</time>
      </trkpt>
      <trkpt lat="42.91959897" lon="13.40269795">
        <ele>566.00000</ele>
        <time>2024-05-10T20:30:14Z</time>
      </trkpt>
      <trkpt lat="42.91959595" lon="13.40266996">
        <ele>566.00000</ele>
        <time>2024-05-10T20:30:14Z</time>
      </trkpt>
      <trkpt lat="42.91959394" lon="13.40264397">
        <ele>567.00000</ele>
        <time>2024-05-10T20:30:14Z</time>
      </trkpt>
      <trkpt lat="42.91959193" lon="13.40261396">
        <ele>567.00000</ele>
        <time>2024-05-10T20:30:15Z</time>
      </trkpt>
      <trkpt lat="42.91959092" lon="13.40258396">
        <ele>568.00000</ele>
        <time>2024-05-10T20:30:15Z</time>
      </trkpt>
      <trkpt lat="42.91958891" lon="13.40255596">
        <ele>568.00000</ele>
        <time>2024-05-10T20:30:16Z</time>
      </trkpt>
      <trkpt lat="42.91958799" lon="13.40252696">
        <ele>569.00000</ele>
        <time>2024-05-10T20:30:16Z</time>
      </trkpt>
      <trkpt lat="42.91958699" lon="13.40250098">
        <ele>569.00000</ele>
        <time>2024-05-10T20:30:17Z</time>
      </trkpt>
      <trkpt lat="42.91958598" lon="13.40247097">
        <ele>570.00000</ele>
        <time>2024-05-10T20:30:17Z</time>
      </trkpt>
      <trkpt lat="42.91958497" lon="13.40244499">
        <ele>570.00000</ele>
        <time>2024-05-10T20:30:17Z</time>
      </trkpt>
      <trkpt lat="42.91958598" lon="13.40241498">
        <ele>571.00000</ele>
        <time>2024-05-10T20:30:18Z</time>
      </trkpt>
      <trkpt lat="42.91958799" lon="13.40238598">
        <ele>571.00000</ele>
        <time>2024-05-10T20:30:18Z</time>
      </trkpt>
      <trkpt lat="42.91959092" lon="13.40235698">
        <ele>572.00000</ele>
        <time>2024-05-10T20:30:19Z</time>
      </trkpt>
      <trkpt lat="42.91959696" lon="13.40233099">
        <ele>572.00000</ele>
        <time>2024-05-10T20:30:19Z</time>
      </trkpt>
      <trkpt lat="42.91960299" lon="13.40230291">
        <ele>573.00000</ele>
        <time>2024-05-10T20:30:20Z</time>
      </trkpt>
      <trkpt lat="42.91960895" lon="13.40227693">
        <ele>573.00000</ele>
        <time>2024-05-10T20:30:20Z</time>
      </trkpt>
      <trkpt lat="42.91961699" lon="13.40225296">
        <ele>574.00000</ele>
        <time>2024-05-10T20:30:20Z</time>
      </trkpt>
      <trkpt lat="42.91962496" lon="13.40222898">
        <ele>574.00000</ele>
        <time>2024-05-10T20:30:21Z</time>
      </trkpt>
      <trkpt lat="42.91963594" lon="13.40220392">
        <ele>575.00000</ele>
        <time>2024-05-10T20:30:21Z</time>
      </trkpt>
      <trkpt lat="42.91964792" lon="13.40218498">
        <ele>576.00000</ele>
        <time>2024-05-10T20:30:21Z</time>
      </trkpt>
      <trkpt lat="42.91966293" lon="13.40216394">
        <ele>577.00000</ele>
        <time>2024-05-10T20:30:22Z</time>
      </trkpt>
      <trkpt lat="42.91967692" lon="13.40214299">
        <ele>578.00000</ele>
        <time>2024-05-10T20:30:22Z</time>
      </trkpt>
      <trkpt lat="42.91969092" lon="13.40212798">
        <ele>578.00000</ele>
        <time>2024-05-10T20:30:23Z</time>
      </trkpt>
      <trkpt lat="42.91970794" lon="13.40211298">
        <ele>579.00000</ele>
        <time>2024-05-10T20:30:23Z</time>
      </trkpt>
      <trkpt lat="42.91972696" lon="13.40209999">
        <ele>579.00000</ele>
        <time>2024-05-10T20:30:23Z</time>
      </trkpt>
      <trkpt lat="42.91974691" lon="13.40208993">
        <ele>580.00000</ele>
        <time>2024-05-10T20:30:24Z</time>
      </trkpt>
      <trkpt lat="42.91976594" lon="13.40207995">
        <ele>580.00000</ele>
        <time>2024-05-10T20:30:24Z</time>
      </trkpt>
      <trkpt lat="42.91978597" lon="13.40208197">
        <ele>580.00000</ele>
        <time>2024-05-10T20:30:25Z</time>
      </trkpt>
      <trkpt lat="42.91980793" lon="13.40208398">
        <ele>580.00000</ele>
        <time>2024-05-10T20:30:25Z</time>
      </trkpt>
      <trkpt lat="42.91982998" lon="13.40208096">
        <ele>579.00000</ele>
        <time>2024-05-10T20:30:26Z</time>
      </trkpt>
      <trkpt lat="42.91985194" lon="13.40208096">
        <ele>579.00000</ele>
        <time>2024-05-10T20:30:26Z</time>
      </trkpt>
      <trkpt lat="42.91987298" lon="13.40208398">
        <ele>579.00000</ele>
        <time>2024-05-10T20:30:26Z</time>
      </trkpt>
      <trkpt lat="42.91989494" lon="13.40208197">
        <ele>579.00000</ele>
        <time>2024-05-10T20:30:27Z</time>
      </trkpt>
      <trkpt lat="42.91991597" lon="13.40207199">
        <ele>579.00000</ele>
        <time>2024-05-10T20:30:27Z</time>
      </trkpt>
      <trkpt lat="42.91993592" lon="13.40206596">
        <ele>579.00000</ele>
        <time>2024-05-10T20:30:28Z</time>
      </trkpt>
      <trkpt lat="42.91995797" lon="13.40205799">
        <ele>579.00000</ele>
        <time>2024-05-10T20:30:28Z</time>
      </trkpt>
      <trkpt lat="42.91997792" lon="13.40204894">
        <ele>579.00000</ele>
        <time>2024-05-10T20:30:29Z</time>
      </trkpt>
      <trkpt lat="42.91999896" lon="13.40204299">
        <ele>579.00000</ele>
        <time>2024-05-10T20:30:29Z</time>
      </trkpt>
      <trkpt lat="42.92002092" lon="13.40203595">
        <ele>579.00000</ele>
        <time>2024-05-10T20:30:30Z</time>
      </trkpt>
      <trkpt lat="42.92004195" lon="13.40202597">
        <ele>579.00000</ele>
        <time>2024-05-10T20:30:30Z</time>
      </trkpt>
      <trkpt lat="42.92006299" lon="13.40201399">
        <ele>579.00000</ele>
        <time>2024-05-10T20:30:30Z</time>
      </trkpt>
      <trkpt lat="42.92008395" lon="13.40200594">
        <ele>579.00000</ele>
        <time>2024-05-10T20:30:31Z</time>
      </trkpt>
      <trkpt lat="42.92010599" lon="13.40198893">
        <ele>579.00000</ele>
        <time>2024-05-10T20:30:31Z</time>
      </trkpt>
      <trkpt lat="42.92012292" lon="13.40197493">
        <ele>578.00000</ele>
        <time>2024-05-10T20:30:32Z</time>
      </trkpt>
      <trkpt lat="42.92014195" lon="13.40195397">
        <ele>578.00000</ele>
        <time>2024-05-10T20:30:32Z</time>
      </trkpt>
      <trkpt lat="42.92016098" lon="13.40193495">
        <ele>578.00000</ele>
        <time>2024-05-10T20:30:33Z</time>
      </trkpt>
      <trkpt lat="42.92017799" lon="13.40191491">
        <ele>579.00000</ele>
        <time>2024-05-10T20:30:33Z</time>
      </trkpt>
      <trkpt lat="42.92019392" lon="13.40189195">
        <ele>579.00000</ele>
        <time>2024-05-10T20:30:34Z</time>
      </trkpt>
      <trkpt lat="42.92020398" lon="13.40186295">
        <ele>579.00000</ele>
        <time>2024-05-10T20:30:34Z</time>
      </trkpt>
      <trkpt lat="42.92021496" lon="13.40184199">
        <ele>579.00000</ele>
        <time>2024-05-10T20:30:34Z</time>
      </trkpt>
      <trkpt lat="42.92022594" lon="13.40181794">
        <ele>580.00000</ele>
        <time>2024-05-10T20:30:35Z</time>
      </trkpt>
      <trkpt lat="42.92023499" lon="13.40178793">
        <ele>580.00000</ele>
        <time>2024-05-10T20:30:35Z</time>
      </trkpt>
      <trkpt lat="42.92024195" lon="13.40176194">
        <ele>581.00000</ele>
        <time>2024-05-10T20:30:36Z</time>
      </trkpt>
      <trkpt lat="42.92024899" lon="13.40173395">
        <ele>581.00000</ele>
        <time>2024-05-10T20:30:36Z</time>
      </trkpt>
      <trkpt lat="42.92025896" lon="13.40170897">
        <ele>581.00000</ele>
        <time>2024-05-10T20:30:37Z</time>
      </trkpt>
      <trkpt lat="42.92026399" lon="13.40168299">
        <ele>582.00000</ele>
        <time>2024-05-10T20:30:37Z</time>
      </trkpt>
      <trkpt lat="42.92026894" lon="13.40165591">
        <ele>582.00000</ele>
        <time>2024-05-10T20:30:37Z</time>
      </trkpt>
      <trkpt lat="42.92027296" lon="13.40162691">
        <ele>583.00000</ele>
        <time>2024-05-10T20:30:38Z</time>
      </trkpt>
      <trkpt lat="42.92027598" lon="13.40159397">
        <ele>584.00000</ele>
        <time>2024-05-10T20:30:38Z</time>
      </trkpt>
      <trkpt lat="42.92027598" lon="13.40156799">
        <ele>585.00000</ele>
        <time>2024-05-10T20:30:39Z</time>
      </trkpt>
      <trkpt lat="42.92027799" lon="13.40153899">
        <ele>586.00000</ele>
        <time>2024-05-10T20:30:39Z</time>
      </trkpt>
      <trkpt lat="42.92027992" lon="13.40151191">
        <ele>586.00000</ele>
        <time>2024-05-10T20:30:40Z</time>
      </trkpt>
      <trkpt lat="42.92028092" lon="13.40148492">
        <ele>587.00000</ele>
        <time>2024-05-10T20:30:40Z</time>
      </trkpt>
      <trkpt lat="42.92028092" lon="13.40144997">
        <ele>588.00000</ele>
        <time>2024-05-10T20:30:40Z</time>
      </trkpt>
      <trkpt lat="42.92027497" lon="13.40142499">
        <ele>589.00000</ele>
        <time>2024-05-10T20:30:41Z</time>
      </trkpt>
      <trkpt lat="42.92027497" lon="13.40139096">
        <ele>590.00000</ele>
        <time>2024-05-10T20:30:41Z</time>
      </trkpt>
      <trkpt lat="42.92027497" lon="13.40136498">
        <ele>591.00000</ele>
        <time>2024-05-10T20:30:42Z</time>
      </trkpt>
      <trkpt lat="42.92027899" lon="13.40133396">
        <ele>592.00000</ele>
        <time>2024-05-10T20:30:42Z</time>
      </trkpt>
      <trkpt lat="42.92028998" lon="13.40130396">
        <ele>593.00000</ele>
        <time>2024-05-10T20:30:43Z</time>
      </trkpt>
      <trkpt lat="42.92028998" lon="13.40126791">
        <ele>594.00000</ele>
        <time>2024-05-10T20:30:43Z</time>
      </trkpt>
      <trkpt lat="42.92029299" lon="13.40123397">
        <ele>595.00000</ele>
        <time>2024-05-10T20:30:44Z</time>
      </trkpt>
      <trkpt lat="42.92029995" lon="13.40120295">
        <ele>596.00000</ele>
        <time>2024-05-10T20:30:44Z</time>
      </trkpt>
      <trkpt lat="42.92030397" lon="13.40117395">
        <ele>597.00000</ele>
        <time>2024-05-10T20:30:45Z</time>
      </trkpt>
      <trkpt lat="42.92031495" lon="13.40114193">
        <ele>598.00000</ele>
        <time>2024-05-10T20:30:45Z</time>
      </trkpt>
      <trkpt lat="42.92032099" lon="13.40110899">
        <ele>599.00000</ele>
        <time>2024-05-10T20:30:46Z</time>
      </trkpt>
      <trkpt lat="42.92032895" lon="13.40107798">
        <ele>600.00000</ele>
        <time>2024-05-10T20:30:46Z</time>
      </trkpt>
      <trkpt lat="42.92033197" lon="13.40104395">
        <ele>601.00000</ele>
        <time>2024-05-10T20:30:47Z</time>
      </trkpt>
      <trkpt lat="42.92034295" lon="13.40101897">
        <ele>602.00000</ele>
        <time>2024-05-10T20:30:47Z</time>
      </trkpt>
      <trkpt lat="42.92035594" lon="13.40099299">
        <ele>602.00000</ele>
        <time>2024-05-10T20:30:48Z</time>
      </trkpt>
      <trkpt lat="42.92037296" lon="13.40096994">
        <ele>603.00000</ele>
        <time>2024-05-10T20:30:48Z</time>
      </trkpt>
      <trkpt lat="42.92038997" lon="13.40094898">
        <ele>604.00000</ele>
        <time>2024-05-10T20:30:48Z</time>
      </trkpt>
      <trkpt lat="42.92041495" lon="13.40093197">
        <ele>604.00000</ele>
        <time>2024-05-10T20:30:49Z</time>
      </trkpt>
      <trkpt lat="42.92043892" lon="13.40092392">
        <ele>604.00000</ele>
        <time>2024-05-10T20:30:50Z</time>
      </trkpt>
      <trkpt lat="42.92046197" lon="13.40091596">
        <ele>604.00000</ele>
        <time>2024-05-10T20:30:50Z</time>
      </trkpt>
      <trkpt lat="42.92048695" lon="13.40091696">
        <ele>603.00000</ele>
        <time>2024-05-10T20:30:50Z</time>
      </trkpt>
      <trkpt lat="42.92050992" lon="13.40092694">
        <ele>603.00000</ele>
        <time>2024-05-10T20:30:51Z</time>
      </trkpt>
      <trkpt lat="42.92053699" lon="13.40093499">
        <ele>602.00000</ele>
        <time>2024-05-10T20:30:52Z</time>
      </trkpt>
      <trkpt lat="42.92055996" lon="13.40094898">
        <ele>601.00000</ele>
        <time>2024-05-10T20:30:52Z</time>
      </trkpt>
      <trkpt lat="42.92057798" lon="13.40096298">
        <ele>600.00000</ele>
        <time>2024-05-10T20:30:52Z</time>
      </trkpt>
      <trkpt lat="42.92059793" lon="13.40097899">
        <ele>599.00000</ele>
        <time>2024-05-10T20:30:53Z</time>
      </trkpt>
      <trkpt lat="42.92061695" lon="13.40100196">
        <ele>598.00000</ele>
        <time>2024-05-10T20:30:53Z</time>
      </trkpt>
      <trkpt lat="42.92063296" lon="13.40102895">
        <ele>597.00000</ele>
        <time>2024-05-10T20:30:54Z</time>
      </trkpt>
      <trkpt lat="42.92065492" lon="13.40105191">
        <ele>595.00000</ele>
        <time>2024-05-10T20:30:54Z</time>
      </trkpt>
      <trkpt lat="42.92067194" lon="13.40106692">
        <ele>594.00000</ele>
        <time>2024-05-10T20:30:55Z</time>
      </trkpt>
      <trkpt lat="42.92069097" lon="13.40107899">
        <ele>594.00000</ele>
        <time>2024-05-10T20:30:55Z</time>
      </trkpt>
      <trkpt lat="42.92070999" lon="13.40109298">
        <ele>593.00000</ele>
        <time>2024-05-10T20:30:56Z</time>
      </trkpt>
      <trkpt lat="42.92073195" lon="13.40110598">
        <ele>592.00000</ele>
        <time>2024-05-10T20:30:56Z</time>
      </trkpt>
      <trkpt lat="42.92075299" lon="13.40111897">
        <ele>591.00000</ele>
        <time>2024-05-10T20:30:57Z</time>
      </trkpt>
      <trkpt lat="42.92077193" lon="13.40112693">
        <ele>591.00000</ele>
        <time>2024-05-10T20:30:57Z</time>
      </trkpt>
      <trkpt lat="42.92079297" lon="13.40112693">
        <ele>591.00000</ele>
        <time>2024-05-10T20:30:57Z</time>
      </trkpt>
      <trkpt lat="42.92081594" lon="13.40111997">
        <ele>591.00000</ele>
        <time>2024-05-10T20:30:58Z</time>
      </trkpt>
      <trkpt lat="42.92083899" lon="13.40110598">
        <ele>591.00000</ele>
        <time>2024-05-10T20:30:58Z</time>
      </trkpt>
      <trkpt lat="42.92086196" lon="13.40109399">
        <ele>591.00000</ele>
        <time>2024-05-10T20:30:59Z</time>
      </trkpt>
      <trkpt lat="42.92088392" lon="13.40107798">
        <ele>591.00000</ele>
        <time>2024-05-10T20:30:59Z</time>
      </trkpt>
      <trkpt lat="42.92090294" lon="13.40105795">
        <ele>591.00000</ele>
        <time>2024-05-10T20:31:00Z</time>
      </trkpt>
      <trkpt lat="42.92091795" lon="13.40103297">
        <ele>592.00000</ele>
        <time>2024-05-10T20:31:00Z</time>
      </trkpt>
      <trkpt lat="42.92093396" lon="13.40101093">
        <ele>592.00000</ele>
        <time>2024-05-10T20:31:01Z</time>
      </trkpt>
      <trkpt lat="42.92094695" lon="13.40098494">
        <ele>593.00000</ele>
        <time>2024-05-10T20:31:01Z</time>
      </trkpt>
      <trkpt lat="42.92095491" lon="13.40095795">
        <ele>593.00000</ele>
        <time>2024-05-10T20:31:02Z</time>
      </trkpt>
      <trkpt lat="42.92096095" lon="13.40092895">
        <ele>594.00000</ele>
        <time>2024-05-10T20:31:02Z</time>
      </trkpt>
      <trkpt lat="42.92096598" lon="13.40089693">
        <ele>595.00000</ele>
        <time>2024-05-10T20:31:03Z</time>
      </trkpt>
      <trkpt lat="42.92097193" lon="13.40086298">
        <ele>596.00000</ele>
        <time>2024-05-10T20:31:03Z</time>
      </trkpt>
      <trkpt lat="42.92098098" lon="13.40083197">
        <ele>597.00000</ele>
        <time>2024-05-10T20:31:04Z</time>
      </trkpt>
      <trkpt lat="42.92099196" lon="13.40079995">
        <ele>598.00000</ele>
        <time>2024-05-10T20:31:04Z</time>
      </trkpt>
      <trkpt lat="42.92100193" lon="13.40077497">
        <ele>598.00000</ele>
        <time>2024-05-10T20:31:05Z</time>
      </trkpt>
      <trkpt lat="42.92101694" lon="13.40075092">
        <ele>599.00000</ele>
        <time>2024-05-10T20:31:05Z</time>
      </trkpt>
      <trkpt lat="42.92103395" lon="13.40072996">
        <ele>599.00000</ele>
        <time>2024-05-10T20:31:06Z</time>
      </trkpt>
      <trkpt lat="42.92105097" lon="13.40070499">
        <ele>599.00000</ele>
        <time>2024-05-10T20:31:06Z</time>
      </trkpt>
      <trkpt lat="42.92106295" lon="13.40067992">
        <ele>599.00000</ele>
        <time>2024-05-10T20:31:06Z</time>
      </trkpt>
      <trkpt lat="42.92107695" lon="13.40064598">
        <ele>600.00000</ele>
        <time>2024-05-10T20:31:07Z</time>
      </trkpt>
      <trkpt lat="42.92108592" lon="13.40061295">
        <ele>601.00000</ele>
        <time>2024-05-10T20:31:08Z</time>
      </trkpt>
      <trkpt lat="42.92109799" lon="13.40058093">
        <ele>601.00000</ele>
        <time>2024-05-10T20:31:08Z</time>
      </trkpt>
      <trkpt lat="42.92111098" lon="13.40054992">
        <ele>602.00000</ele>
        <time>2024-05-10T20:31:09Z</time>
      </trkpt>
      <trkpt lat="42.92112297" lon="13.40052293">
        <ele>603.00000</ele>
        <time>2024-05-10T20:31:09Z</time>
      </trkpt>
      <trkpt lat="42.92113898" lon="13.40049494">
        <ele>605.00000</ele>
        <time>2024-05-10T20:31:10Z</time>
      </trkpt>
      <trkpt lat="42.92115096" lon="13.40046392">
        <ele>607.00000</ele>
        <time>2024-05-10T20:31:10Z</time>
      </trkpt>
      <trkpt lat="42.92116597" lon="13.40043492">
        <ele>608.00000</ele>
        <time>2024-05-10T20:31:11Z</time>
      </trkpt>
      <trkpt lat="42.92117997" lon="13.40040399">
        <ele>609.00000</ele>
        <time>2024-05-10T20:31:11Z</time>
      </trkpt>
      <trkpt lat="42.92119698" lon="13.40037591">
        <ele>611.00000</ele>
        <time>2024-05-10T20:31:12Z</time>
      </trkpt>
      <trkpt lat="42.92121098" lon="13.40034892">
        <ele>612.00000</ele>
        <time>2024-05-10T20:31:12Z</time>
      </trkpt>
      <trkpt lat="42.92122095" lon="13.40032093">
        <ele>613.00000</ele>
        <time>2024-05-10T20:31:13Z</time>
      </trkpt>
      <trkpt lat="42.92123093" lon="13.40028991">
        <ele>615.00000</ele>
        <time>2024-05-10T20:31:13Z</time>
      </trkpt>
      <trkpt lat="42.92124593" lon="13.40026292">
        <ele>615.00000</ele>
        <time>2024-05-10T20:31:14Z</time>
      </trkpt>
      <trkpt lat="42.92125691" lon="13.40023099">
        <ele>617.00000</ele>
        <time>2024-05-10T20:31:14Z</time>
      </trkpt>
      <trkpt lat="42.92126798" lon="13.40020492">
        <ele>618.00000</ele>
        <time>2024-05-10T20:31:15Z</time>
      </trkpt>
      <trkpt lat="42.92128197" lon="13.40017491">
        <ele>618.00000</ele>
        <time>2024-05-10T20:31:15Z</time>
      </trkpt>
      <trkpt lat="42.92129798" lon="13.40015396">
        <ele>619.00000</ele>
        <time>2024-05-10T20:31:16Z</time>
      </trkpt>
      <trkpt lat="42.92131693" lon="13.40013099">
        <ele>619.00000</ele>
        <time>2024-05-10T20:31:16Z</time>
      </trkpt>
      <trkpt lat="42.92133294" lon="13.40010593">
        <ele>619.00000</ele>
        <time>2024-05-10T20:31:17Z</time>
      </trkpt>
      <trkpt lat="42.92134794" lon="13.40007894">
        <ele>620.00000</ele>
        <time>2024-05-10T20:31:17Z</time>
      </trkpt>
      <trkpt lat="42.92136495" lon="13.40005598">
        <ele>620.00000</ele>
        <time>2024-05-10T20:31:18Z</time>
      </trkpt>
      <trkpt lat="42.92137895" lon="13.40003393">
        <ele>620.00000</ele>
        <time>2024-05-10T20:31:18Z</time>
      </trkpt>
      <trkpt lat="42.92139697" lon="13.40001398">
        <ele>620.00000</ele>
        <time>2024-05-10T20:31:18Z</time>
      </trkpt>
      <trkpt lat="42.92141592" lon="13.39999294">
        <ele>620.00000</ele>
        <time>2024-05-10T20:31:19Z</time>
      </trkpt>
      <trkpt lat="42.92143695" lon="13.39998196">
        <ele>620.00000</ele>
        <time>2024-05-10T20:31:19Z</time>
      </trkpt>
      <trkpt lat="42.92145598" lon="13.39997693">
        <ele>619.00000</ele>
        <time>2024-05-10T20:31:20Z</time>
      </trkpt>
      <trkpt lat="42.92147694" lon="13.39998498">
        <ele>619.00000</ele>
        <time>2024-05-10T20:31:20Z</time>
      </trkpt>
      <trkpt lat="42.92149999" lon="13.39999998">
        <ele>618.00000</ele>
        <time>2024-05-10T20:31:21Z</time>
      </trkpt>
      <trkpt lat="42.92152295" lon="13.40001499">
        <ele>617.00000</ele>
        <time>2024-05-10T20:31:21Z</time>
      </trkpt>
      <trkpt lat="42.92154198" lon="13.40003695">
        <ele>616.00000</ele>
        <time>2024-05-10T20:31:22Z</time>
      </trkpt>
      <trkpt lat="42.92155992" lon="13.40006394">
        <ele>615.00000</ele>
        <time>2024-05-10T20:31:22Z</time>
      </trkpt>
      <trkpt lat="42.92157593" lon="13.40008992">
        <ele>614.00000</ele>
        <time>2024-05-10T20:31:23Z</time>
      </trkpt>
      <trkpt lat="42.92159495" lon="13.40011096">
        <ele>613.00000</ele>
        <time>2024-05-10T20:31:23Z</time>
      </trkpt>
      <trkpt lat="42.92160895" lon="13.40013493">
        <ele>612.00000</ele>
        <time>2024-05-10T20:31:24Z</time>
      </trkpt>
      <trkpt lat="42.92162094" lon="13.40016293">
        <ele>612.00000</ele>
        <time>2024-05-10T20:31:24Z</time>
      </trkpt>
      <trkpt lat="42.92163192" lon="13.40019193">
        <ele>611.00000</ele>
        <time>2024-05-10T20:31:25Z</time>
      </trkpt>
      <trkpt lat="42.92164499" lon="13.40021699">
        <ele>610.00000</ele>
        <time>2024-05-10T20:31:25Z</time>
      </trkpt>
      <trkpt lat="42.92165698" lon="13.40024692">
        <ele>610.00000</ele>
        <time>2024-05-10T20:31:26Z</time>
      </trkpt>
      <trkpt lat="42.92167198" lon="13.40027592">
        <ele>610.00000</ele>
        <time>2024-05-10T20:31:26Z</time>
      </trkpt>
      <trkpt lat="42.92168598" lon="13.40030198">
        <ele>610.00000</ele>
        <time>2024-05-10T20:31:27Z</time>
      </trkpt>
      <trkpt lat="42.92169897" lon="13.40032897">
        <ele>610.00000</ele>
        <time>2024-05-10T20:31:27Z</time>
      </trkpt>
      <trkpt lat="42.92171297" lon="13.40035697">
        <ele>610.00000</ele>
        <time>2024-05-10T20:31:28Z</time>
      </trkpt>
      <trkpt lat="42.92172496" lon="13.40038597">
        <ele>611.00000</ele>
        <time>2024-05-10T20:31:28Z</time>
      </trkpt>
      <trkpt lat="42.92173694" lon="13.40041598">
        <ele>611.00000</ele>
        <time>2024-05-10T20:31:29Z</time>
      </trkpt>
      <trkpt lat="42.92174792" lon="13.40044397">
        <ele>611.00000</ele>
        <time>2024-05-10T20:31:29Z</time>
      </trkpt>
      <trkpt lat="42.92175698" lon="13.40047499">
        <ele>611.00000</ele>
        <time>2024-05-10T20:31:29Z</time>
      </trkpt>
      <trkpt lat="42.92176695" lon="13.40050298">
        <ele>611.00000</ele>
        <time>2024-05-10T20:31:30Z</time>
      </trkpt>
      <trkpt lat="42.92177592" lon="13.40053299">
        <ele>611.00000</ele>
        <time>2024-05-10T20:31:30Z</time>
      </trkpt>
      <trkpt lat="42.92178095" lon="13.40055495">
        <ele>611.00000</ele>
        <time>2024-05-10T20:31:31Z</time>
      </trkpt>
      <trkpt lat="42.92178397" lon="13.40059099">
        <ele>610.00000</ele>
        <time>2024-05-10T20:31:31Z</time>
      </trkpt>
      <trkpt lat="42.92178899" lon="13.40062092">
        <ele>610.00000</ele>
        <time>2024-05-10T20:31:32Z</time>
      </trkpt>
      <trkpt lat="42.92179796" lon="13.40065092">
        <ele>610.00000</ele>
        <time>2024-05-10T20:31:32Z</time>
      </trkpt>
      <trkpt lat="42.92180794" lon="13.40067699">
        <ele>609.00000</ele>
        <time>2024-05-10T20:31:33Z</time>
      </trkpt>
      <trkpt lat="42.92181196" lon="13.40070398">
        <ele>609.00000</ele>
        <time>2024-05-10T20:31:33Z</time>
      </trkpt>
      <trkpt lat="42.92181598" lon="13.40073499">
        <ele>609.00000</ele>
        <time>2024-05-10T20:31:34Z</time>
      </trkpt>
      <trkpt lat="42.92182596" lon="13.40076492">
        <ele>608.00000</ele>
        <time>2024-05-10T20:31:34Z</time>
      </trkpt>
      <trkpt lat="42.92183895" lon="13.40079291">
        <ele>608.00000</ele>
        <time>2024-05-10T20:31:34Z</time>
      </trkpt>
      <trkpt lat="42.92184893" lon="13.40082292">
        <ele>608.00000</ele>
        <time>2024-05-10T20:31:35Z</time>
      </trkpt>
      <trkpt lat="42.92186192" lon="13.40084597">
        <ele>608.00000</ele>
        <time>2024-05-10T20:31:35Z</time>
      </trkpt>
      <trkpt lat="42.92187893" lon="13.40087397">
        <ele>608.00000</ele>
        <time>2024-05-10T20:31:36Z</time>
      </trkpt>
      <trkpt lat="42.92189293" lon="13.40090297">
        <ele>608.00000</ele>
        <time>2024-05-10T20:31:36Z</time>
      </trkpt>
      <trkpt lat="42.92190894" lon="13.40092493">
        <ele>609.00000</ele>
        <time>2024-05-10T20:31:37Z</time>
      </trkpt>
      <trkpt lat="42.92192696" lon="13.40093993">
        <ele>609.00000</ele>
        <time>2024-05-10T20:31:37Z</time>
      </trkpt>
      <trkpt lat="42.92194599" lon="13.40095594">
        <ele>609.00000</ele>
        <time>2024-05-10T20:31:38Z</time>
      </trkpt>
      <trkpt lat="42.92196191" lon="13.40097195">
        <ele>610.00000</ele>
        <time>2024-05-10T20:31:38Z</time>
      </trkpt>
      <trkpt lat="42.92198195" lon="13.40098494">
        <ele>610.00000</ele>
        <time>2024-05-10T20:31:39Z</time>
      </trkpt>
      <trkpt lat="42.92199896" lon="13.40100095">
        <ele>610.00000</ele>
        <time>2024-05-10T20:31:39Z</time>
      </trkpt>
      <trkpt lat="42.92201698" lon="13.40100992">
        <ele>610.00000</ele>
        <time>2024-05-10T20:31:39Z</time>
      </trkpt>
      <trkpt lat="42.92203794" lon="13.40101394">
        <ele>611.00000</ele>
        <time>2024-05-10T20:31:40Z</time>
      </trkpt>
      <trkpt lat="42.92205898" lon="13.40101897">
        <ele>611.00000</ele>
        <time>2024-05-10T20:31:40Z</time>
      </trkpt>
      <trkpt lat="42.92208194" lon="13.40102291">
        <ele>612.00000</ele>
        <time>2024-05-10T20:31:41Z</time>
      </trkpt>
      <trkpt lat="42.92210692" lon="13.40102693">
        <ele>613.00000</ele>
        <time>2024-05-10T20:31:41Z</time>
      </trkpt>
      <trkpt lat="42.92213198" lon="13.40102693">
        <ele>613.00000</ele>
        <time>2024-05-10T20:31:42Z</time>
      </trkpt>
      <trkpt lat="42.92215897" lon="13.40102693">
        <ele>614.00000</ele>
        <time>2024-05-10T20:31:42Z</time>
      </trkpt>
      <trkpt lat="42.92218194" lon="13.40102794">
        <ele>615.00000</ele>
        <time>2024-05-10T20:31:43Z</time>
      </trkpt>
      <trkpt lat="42.92220893" lon="13.40102895">
        <ele>616.00000</ele>
        <time>2024-05-10T20:31:43Z</time>
      </trkpt>
      <trkpt lat="42.92222997" lon="13.40103297">
        <ele>616.00000</ele>
        <time>2024-05-10T20:31:44Z</time>
      </trkpt>
      <trkpt lat="42.92225394" lon="13.40103699">
        <ele>617.00000</ele>
        <time>2024-05-10T20:31:44Z</time>
      </trkpt>
      <trkpt lat="42.92227892" lon="13.40104194">
        <ele>618.00000</ele>
        <time>2024-05-10T20:31:45Z</time>
      </trkpt>
      <trkpt lat="42.92229996" lon="13.40104898">
        <ele>618.00000</ele>
        <time>2024-05-10T20:31:45Z</time>
      </trkpt>
      <trkpt lat="42.92232393" lon="13.40105795">
        <ele>619.00000</ele>
        <time>2024-05-10T20:31:46Z</time>
      </trkpt>
      <trkpt lat="42.92234798" lon="13.40106893">
        <ele>620.00000</ele>
        <time>2024-05-10T20:31:46Z</time>
      </trkpt>
      <trkpt lat="42.92236894" lon="13.40108393">
        <ele>620.00000</ele>
        <time>2024-05-10T20:31:47Z</time>
      </trkpt>
      <trkpt lat="42.92239299" lon="13.40110095">
        <ele>621.00000</ele>
        <time>2024-05-10T20:31:47Z</time>
      </trkpt>
      <trkpt lat="42.92241294" lon="13.40111796">
        <ele>621.00000</ele>
        <time>2024-05-10T20:31:48Z</time>
      </trkpt>
      <trkpt lat="42.92242795" lon="13.40114193">
        <ele>621.00000</ele>
        <time>2024-05-10T20:31:48Z</time>
      </trkpt>
      <trkpt lat="42.92243993" lon="13.40117194">
        <ele>621.00000</ele>
        <time>2024-05-10T20:31:49Z</time>
      </trkpt>
      <trkpt lat="42.92244798" lon="13.40120195">
        <ele>621.00000</ele>
        <time>2024-05-10T20:31:49Z</time>
      </trkpt>
      <trkpt lat="42.92245293" lon="13.40123196">
        <ele>620.00000</ele>
        <time>2024-05-10T20:31:49Z</time>
      </trkpt>
      <trkpt lat="42.92245293" lon="13.40126196">
        <ele>620.00000</ele>
        <time>2024-05-10T20:31:50Z</time>
      </trkpt>
      <trkpt lat="42.92245494" lon="13.40129298">
        <ele>619.00000</ele>
        <time>2024-05-10T20:31:50Z</time>
      </trkpt>
      <trkpt lat="42.92245192" lon="13.40131997">
        <ele>619.00000</ele>
        <time>2024-05-10T20:31:51Z</time>
      </trkpt>
      <trkpt lat="42.92244396" lon="13.40134796">
        <ele>618.00000</ele>
        <time>2024-05-10T20:31:51Z</time>
      </trkpt>
      <trkpt lat="42.92243398" lon="13.40137897">
        <ele>617.00000</ele>
        <time>2024-05-10T20:31:52Z</time>
      </trkpt>
      <trkpt lat="42.92242392" lon="13.40140898">
        <ele>617.00000</ele>
        <time>2024-05-10T20:31:52Z</time>
      </trkpt>
      <trkpt lat="42.92241496" lon="13.40143991">
        <ele>616.00000</ele>
        <time>2024-05-10T20:31:53Z</time>
      </trkpt>
      <trkpt lat="42.92240498" lon="13.40146799">
        <ele>616.00000</ele>
        <time>2024-05-10T20:31:53Z</time>
      </trkpt>
      <trkpt lat="42.92239593" lon="13.40149397">
        <ele>616.00000</ele>
        <time>2024-05-10T20:31:54Z</time>
      </trkpt>
      <trkpt lat="42.92238595" lon="13.40151694">
        <ele>616.00000</ele>
        <time>2024-05-10T20:31:54Z</time>
      </trkpt>
      <trkpt lat="42.92237799" lon="13.40154695">
        <ele>616.00000</ele>
        <time>2024-05-10T20:31:54Z</time>
      </trkpt>
      <trkpt lat="42.92236894" lon="13.40157796">
        <ele>615.00000</ele>
        <time>2024-05-10T20:31:55Z</time>
      </trkpt>
      <trkpt lat="42.92235997" lon="13.40160897">
        <ele>615.00000</ele>
        <time>2024-05-10T20:31:55Z</time>
      </trkpt>
      <trkpt lat="42.92235192" lon="13.40163898">
        <ele>615.00000</ele>
        <time>2024-05-10T20:31:56Z</time>
      </trkpt>
      <trkpt lat="42.92234396" lon="13.40166798">
        <ele>615.00000</ele>
        <time>2024-05-10T20:31:56Z</time>
      </trkpt>
      <trkpt lat="42.92233793" lon="13.40169891">
        <ele>615.00000</ele>
        <time>2024-05-10T20:31:57Z</time>
      </trkpt>
      <trkpt lat="42.92232795" lon="13.40172297">
        <ele>614.00000</ele>
        <time>2024-05-10T20:31:57Z</time>
      </trkpt>
      <trkpt lat="42.92232192" lon="13.40174795">
        <ele>614.00000</ele>
        <time>2024-05-10T20:31:58Z</time>
      </trkpt>
      <trkpt lat="42.92231697" lon="13.40177695">
        <ele>614.00000</ele>
        <time>2024-05-10T20:31:58Z</time>
      </trkpt>
      <trkpt lat="42.92230993" lon="13.40181198">
        <ele>614.00000</ele>
        <time>2024-05-10T20:31:59Z</time>
      </trkpt>
      <trkpt lat="42.92230892" lon="13.40184593">
        <ele>613.00000</ele>
        <time>2024-05-10T20:31:59Z</time>
      </trkpt>
      <trkpt lat="42.92231597" lon="13.40187493">
        <ele>613.00000</ele>
        <time>2024-05-10T20:31:59Z</time>
      </trkpt>
      <trkpt lat="42.92232896" lon="13.40190393">
        <ele>613.00000</ele>
        <time>2024-05-10T20:32:00Z</time>
      </trkpt>
      <trkpt lat="42.92234295" lon="13.40192992">
        <ele>613.00000</ele>
        <time>2024-05-10T20:32:00Z</time>
      </trkpt>
      <trkpt lat="42.92235997" lon="13.40195096">
        <ele>613.00000</ele>
        <time>2024-05-10T20:32:01Z</time>
      </trkpt>
      <trkpt lat="42.92237699" lon="13.40196596">
        <ele>614.00000</ele>
        <time>2024-05-10T20:32:01Z</time>
      </trkpt>
      <trkpt lat="42.92239593" lon="13.40197493">
        <ele>614.00000</ele>
        <time>2024-05-10T20:32:02Z</time>
      </trkpt>
      <trkpt lat="42.92241596" lon="13.40198398">
        <ele>614.00000</ele>
        <time>2024-05-10T20:32:02Z</time>
      </trkpt>
      <trkpt lat="42.92243893" lon="13.40199295">
        <ele>614.00000</ele>
        <time>2024-05-10T20:32:03Z</time>
      </trkpt>
      <trkpt lat="42.92245997" lon="13.40198893">
        <ele>614.00000</ele>
        <time>2024-05-10T20:32:03Z</time>
      </trkpt>
      <trkpt lat="42.92247899" lon="13.40197392">
        <ele>615.00000</ele>
        <time>2024-05-10T20:32:03Z</time>
      </trkpt>
      <trkpt lat="42.92249794" lon="13.40195892">
        <ele>615.00000</ele>
        <time>2024-05-10T20:32:04Z</time>
      </trkpt>
      <trkpt lat="42.92251596" lon="13.40194392">
        <ele>616.00000</ele>
        <time>2024-05-10T20:32:04Z</time>
      </trkpt>
      <trkpt lat="42.92253599" lon="13.40193092">
        <ele>616.00000</ele>
        <time>2024-05-10T20:32:05Z</time>
      </trkpt>
      <trkpt lat="42.92255694" lon="13.40191299">
        <ele>617.00000</ele>
        <time>2024-05-10T20:32:05Z</time>
      </trkpt>
      <trkpt lat="42.92257497" lon="13.40189496">
        <ele>617.00000</ele>
        <time>2024-05-10T20:32:06Z</time>
      </trkpt>
      <trkpt lat="42.92259198" lon="13.40187896">
        <ele>618.00000</ele>
        <time>2024-05-10T20:32:06Z</time>
      </trkpt>
      <trkpt lat="42.92261193" lon="13.40186496">
        <ele>619.00000</ele>
        <time>2024-05-10T20:32:07Z</time>
      </trkpt>
      <trkpt lat="42.92263699" lon="13.40185197">
        <ele>619.00000</ele>
        <time>2024-05-10T20:32:07Z</time>
      </trkpt>
      <trkpt lat="42.92265895" lon="13.40184099">
        <ele>620.00000</ele>
        <time>2024-05-10T20:32:08Z</time>
      </trkpt>
      <trkpt lat="42.92268292" lon="13.40183193">
        <ele>621.00000</ele>
        <time>2024-05-10T20:32:08Z</time>
      </trkpt>
      <trkpt lat="42.92270899" lon="13.40182397">
        <ele>622.00000</ele>
        <time>2024-05-10T20:32:09Z</time>
      </trkpt>
      <trkpt lat="42.92273296" lon="13.40181592">
        <ele>622.00000</ele>
        <time>2024-05-10T20:32:09Z</time>
      </trkpt>
      <trkpt lat="42.92275794" lon="13.40180897">
        <ele>623.00000</ele>
        <time>2024-05-10T20:32:10Z</time>
      </trkpt>
      <trkpt lat="42.92277999" lon="13.40180695">
        <ele>624.00000</ele>
        <time>2024-05-10T20:32:10Z</time>
      </trkpt>
      <trkpt lat="42.92280497" lon="13.40180494">
        <ele>624.00000</ele>
        <time>2024-05-10T20:32:11Z</time>
      </trkpt>
      <trkpt lat="42.92282994" lon="13.40180394">
        <ele>625.00000</ele>
        <time>2024-05-10T20:32:11Z</time>
      </trkpt>
      <trkpt lat="42.92285492" lon="13.40180595">
        <ele>626.00000</ele>
        <time>2024-05-10T20:32:12Z</time>
      </trkpt>
      <trkpt lat="42.92287797" lon="13.40180394">
        <ele>627.00000</ele>
        <time>2024-05-10T20:32:12Z</time>
      </trkpt>
      <trkpt lat="42.92290094" lon="13.40180092">
        <ele>628.00000</ele>
        <time>2024-05-10T20:32:12Z</time>
      </trkpt>
      <trkpt lat="42.92291896" lon="13.40179497">
        <ele>628.00000</ele>
        <time>2024-05-10T20:32:13Z</time>
      </trkpt>
      <trkpt lat="42.92293991" lon="13.40178793">
        <ele>629.00000</ele>
        <time>2024-05-10T20:32:13Z</time>
      </trkpt>
      <trkpt lat="42.92296498" lon="13.40178399">
        <ele>630.00000</ele>
        <time>2024-05-10T20:32:14Z</time>
      </trkpt>
      <trkpt lat="42.92298794" lon="13.40178097">
        <ele>631.00000</ele>
        <time>2024-05-10T20:32:14Z</time>
      </trkpt>
      <trkpt lat="42.92301292" lon="13.40177695">
        <ele>632.00000</ele>
        <time>2024-05-10T20:32:15Z</time>
      </trkpt>
      <trkpt lat="42.92303798" lon="13.40177494">
        <ele>633.00000</ele>
        <time>2024-05-10T20:32:15Z</time>
      </trkpt>
      <trkpt lat="42.92305894" lon="13.40176999">
        <ele>634.00000</ele>
        <time>2024-05-10T20:32:16Z</time>
      </trkpt>
      <trkpt lat="42.92307595" lon="13.40176898">
        <ele>634.00000</ele>
        <time>2024-05-10T20:32:16Z</time>
      </trkpt>
      <trkpt lat="42.92309397" lon="13.40176798">
        <ele>635.00000</ele>
        <time>2024-05-10T20:32:16Z</time>
      </trkpt>
      <trkpt lat="42.92311795" lon="13.40176798">
        <ele>636.00000</ele>
        <time>2024-05-10T20:32:17Z</time>
      </trkpt>
      <trkpt lat="42.92314192" lon="13.40177192">
        <ele>637.00000</ele>
        <time>2024-05-10T20:32:17Z</time>
      </trkpt>
      <trkpt lat="42.92316899" lon="13.40177192">
        <ele>638.00000</ele>
        <time>2024-05-10T20:32:18Z</time>
      </trkpt>
      <trkpt lat="42.92319397" lon="13.40177594">
        <ele>639.00000</ele>
        <time>2024-05-10T20:32:18Z</time>
      </trkpt>
      <trkpt lat="42.92322096" lon="13.40178298">
        <ele>640.00000</ele>
        <time>2024-05-10T20:32:19Z</time>
      </trkpt>
      <trkpt lat="42.92324393" lon="13.40178994">
        <ele>641.00000</ele>
        <time>2024-05-10T20:32:19Z</time>
      </trkpt>
      <trkpt lat="42.92326597" lon="13.40179799">
        <ele>641.00000</ele>
        <time>2024-05-10T20:32:20Z</time>
      </trkpt>
      <trkpt lat="42.92328793" lon="13.40181391">
        <ele>642.00000</ele>
        <time>2024-05-10T20:32:20Z</time>
      </trkpt>
      <trkpt lat="42.92330796" lon="13.40183093">
        <ele>642.00000</ele>
        <time>2024-05-10T20:32:21Z</time>
      </trkpt>
      <trkpt lat="42.92332498" lon="13.40185599">
        <ele>642.00000</ele>
        <time>2024-05-10T20:32:21Z</time>
      </trkpt>
      <trkpt lat="42.92333696" lon="13.40188097">
        <ele>642.00000</ele>
        <time>2024-05-10T20:32:22Z</time>
      </trkpt>
      <trkpt lat="42.92334593" lon="13.40190695">
        <ele>642.00000</ele>
        <time>2024-05-10T20:32:22Z</time>
      </trkpt>
      <trkpt lat="42.92335792" lon="13.40193092">
        <ele>642.00000</ele>
        <time>2024-05-10T20:32:23Z</time>
      </trkpt>
      <trkpt lat="42.92336898" lon="13.40195699">
        <ele>642.00000</ele>
        <time>2024-05-10T20:32:23Z</time>
      </trkpt>
      <trkpt lat="42.92338298" lon="13.40198599">
        <ele>642.00000</ele>
        <time>2024-05-10T20:32:24Z</time>
      </trkpt>
      <trkpt lat="42.92339396" lon="13.40200795">
        <ele>643.00000</ele>
        <time>2024-05-10T20:32:24Z</time>
      </trkpt>
      <trkpt lat="42.92340192" lon="13.40203193">
        <ele>642.00000</ele>
        <time>2024-05-10T20:32:24Z</time>
      </trkpt>
      <trkpt lat="42.92340897" lon="13.40205296">
        <ele>643.00000</ele>
        <time>2024-05-10T20:32:25Z</time>
      </trkpt>
      <trkpt lat="42.92341894" lon="13.40207694">
        <ele>643.00000</ele>
        <time>2024-05-10T20:32:25Z</time>
      </trkpt>
      <trkpt lat="42.92343495" lon="13.40210191">
        <ele>643.00000</ele>
        <time>2024-05-10T20:32:26Z</time>
      </trkpt>
      <trkpt lat="42.92344492" lon="13.40212999">
        <ele>643.00000</ele>
        <time>2024-05-10T20:32:26Z</time>
      </trkpt>
      <trkpt lat="42.92344895" lon="13.40216293">
        <ele>643.00000</ele>
        <time>2024-05-10T20:32:27Z</time>
      </trkpt>
      <trkpt lat="42.92343998" lon="13.40218992">
        <ele>641.00000</ele>
        <time>2024-05-10T20:32:27Z</time>
      </trkpt>
      <trkpt lat="42.92343696" lon="13.40222395">
        <ele>641.00000</ele>
        <time>2024-05-10T20:32:27Z</time>
      </trkpt>
      <trkpt lat="42.92344199" lon="13.40225094">
        <ele>641.00000</ele>
        <time>2024-05-10T20:32:28Z</time>
      </trkpt>
      <trkpt lat="42.92344895" lon="13.40228095">
        <ele>641.00000</ele>
        <time>2024-05-10T20:32:28Z</time>
      </trkpt>
      <trkpt lat="42.92346093" lon="13.40230593">
        <ele>641.00000</ele>
        <time>2024-05-10T20:32:29Z</time>
      </trkpt>
      <trkpt lat="42.92347694" lon="13.40232797">
        <ele>641.00000</ele>
        <time>2024-05-10T20:32:29Z</time>
      </trkpt>
      <trkpt lat="42.92348692" lon="13.40235295">
        <ele>641.00000</ele>
        <time>2024-05-10T20:32:30Z</time>
      </trkpt>
      <trkpt lat="42.92349396" lon="13.40237894">
        <ele>641.00000</ele>
        <time>2024-05-10T20:32:30Z</time>
      </trkpt>
      <trkpt lat="42.92350594" lon="13.40240299">
        <ele>642.00000</ele>
        <time>2024-05-10T20:32:30Z</time>
      </trkpt>
      <trkpt lat="42.92351994" lon="13.40243099">
        <ele>642.00000</ele>
        <time>2024-05-10T20:32:31Z</time>
      </trkpt>
      <trkpt lat="42.92352799" lon="13.40245697">
        <ele>642.00000</ele>
        <time>2024-05-10T20:32:31Z</time>
      </trkpt>
      <trkpt lat="42.92353293" lon="13.40248396">
        <ele>642.00000</ele>
        <time>2024-05-10T20:32:32Z</time>
      </trkpt>
      <trkpt lat="42.92353495" lon="13.40251296">
        <ele>641.00000</ele>
        <time>2024-05-10T20:32:32Z</time>
      </trkpt>
      <trkpt lat="42.92354199" lon="13.40253895">
        <ele>641.00000</ele>
        <time>2024-05-10T20:32:33Z</time>
      </trkpt>
      <trkpt lat="42.92355095" lon="13.40256493">
        <ele>641.00000</ele>
        <time>2024-05-10T20:32:33Z</time>
      </trkpt>
      <trkpt lat="42.92355791" lon="13.40258798">
        <ele>641.00000</ele>
        <time>2024-05-10T20:32:33Z</time>
      </trkpt>
      <trkpt lat="42.92356696" lon="13.40261095">
        <ele>641.00000</ele>
        <time>2024-05-10T20:32:34Z</time>
      </trkpt>
      <trkpt lat="42.92357099" lon="13.40263794">
        <ele>640.00000</ele>
        <time>2024-05-10T20:32:34Z</time>
      </trkpt>
      <trkpt lat="42.92357199" lon="13.40266392">
        <ele>639.00000</ele>
        <time>2024-05-10T20:32:35Z</time>
      </trkpt>
      <trkpt lat="42.92357493" lon="13.40269099">
        <ele>639.00000</ele>
        <time>2024-05-10T20:32:35Z</time>
      </trkpt>
      <trkpt lat="42.92357996" lon="13.40271899">
        <ele>638.00000</ele>
        <time>2024-05-10T20:32:35Z</time>
      </trkpt>
      <trkpt lat="42.92358499" lon="13.40274296">
        <ele>638.00000</ele>
        <time>2024-05-10T20:32:36Z</time>
      </trkpt>
      <trkpt lat="42.92359194" lon="13.40276693">
        <ele>638.00000</ele>
        <time>2024-05-10T20:32:36Z</time>
      </trkpt>
      <trkpt lat="42.92359798" lon="13.40279392">
        <ele>638.00000</ele>
        <time>2024-05-10T20:32:37Z</time>
      </trkpt>
      <trkpt lat="42.92360192" lon="13.40282192">
        <ele>637.00000</ele>
        <time>2024-05-10T20:32:37Z</time>
      </trkpt>
      <trkpt lat="42.92360795" lon="13.40284899">
        <ele>637.00000</ele>
        <time>2024-05-10T20:32:37Z</time>
      </trkpt>
      <trkpt lat="42.92361591" lon="13.40287699">
        <ele>637.00000</ele>
        <time>2024-05-10T20:32:38Z</time>
      </trkpt>
      <trkpt lat="42.92362195" lon="13.40290498">
        <ele>637.00000</ele>
        <time>2024-05-10T20:32:38Z</time>
      </trkpt>
      <trkpt lat="42.92363092" lon="13.40293197">
        <ele>636.00000</ele>
        <time>2024-05-10T20:32:39Z</time>
      </trkpt>
      <trkpt lat="42.92364098" lon="13.40295695">
        <ele>636.00000</ele>
        <time>2024-05-10T20:32:39Z</time>
      </trkpt>
      <trkpt lat="42.92364894" lon="13.40298394">
        <ele>636.00000</ele>
        <time>2024-05-10T20:32:40Z</time>
      </trkpt>
      <trkpt lat="42.92365598" lon="13.40300791">
        <ele>636.00000</ele>
        <time>2024-05-10T20:32:40Z</time>
      </trkpt>
      <trkpt lat="42.92366495" lon="13.40302996">
        <ele>636.00000</ele>
        <time>2024-05-10T20:32:40Z</time>
      </trkpt>
      <trkpt lat="42.92367593" lon="13.40304899">
        <ele>636.00000</ele>
        <time>2024-05-10T20:32:41Z</time>
      </trkpt>
      <trkpt lat="42.92369194" lon="13.40306499">
        <ele>636.00000</ele>
        <time>2024-05-10T20:32:41Z</time>
      </trkpt>
      <trkpt lat="42.92370895" lon="13.40307991">
        <ele>636.00000</ele>
        <time>2024-05-10T20:32:41Z</time>
      </trkpt>
      <trkpt lat="42.92372697" lon="13.40309299">
        <ele>636.00000</ele>
        <time>2024-05-10T20:32:42Z</time>
      </trkpt>
      <trkpt lat="42.92374491" lon="13.40310498">
        <ele>636.00000</ele>
        <time>2024-05-10T20:32:42Z</time>
      </trkpt>
      <trkpt lat="42.92375992" lon="13.40311797">
        <ele>636.00000</ele>
        <time>2024-05-10T20:32:43Z</time>
      </trkpt>
      <trkpt lat="42.92377492" lon="13.40312593">
        <ele>637.00000</ele>
        <time>2024-05-10T20:32:43Z</time>
      </trkpt>
      <trkpt lat="42.92379294" lon="13.40312694">
        <ele>637.00000</ele>
        <time>2024-05-10T20:32:43Z</time>
      </trkpt>
      <trkpt lat="42.92381498" lon="13.40312694">
        <ele>638.00000</ele>
        <time>2024-05-10T20:32:44Z</time>
      </trkpt>
      <trkpt lat="42.92383594" lon="13.40312099">
        <ele>639.00000</ele>
        <time>2024-05-10T20:32:44Z</time>
      </trkpt>
      <trkpt lat="42.92385295" lon="13.40310699">
        <ele>640.00000</ele>
        <time>2024-05-10T20:32:45Z</time>
      </trkpt>
      <trkpt lat="42.92386796" lon="13.40309391">
        <ele>640.00000</ele>
        <time>2024-05-10T20:32:45Z</time>
      </trkpt>
      <trkpt lat="42.92388598" lon="13.40308897">
        <ele>641.00000</ele>
        <time>2024-05-10T20:32:45Z</time>
      </trkpt>
      <trkpt lat="42.92390895" lon="13.40308092">
        <ele>642.00000</ele>
        <time>2024-05-10T20:32:46Z</time>
      </trkpt>
      <trkpt lat="42.92393191" lon="13.40307497">
        <ele>642.00000</ele>
        <time>2024-05-10T20:32:46Z</time>
      </trkpt>
      <trkpt lat="42.92395496" lon="13.40307296">
        <ele>642.00000</ele>
        <time>2024-05-10T20:32:47Z</time>
      </trkpt>
      <trkpt lat="42.92397793" lon="13.40306499">
        <ele>642.00000</ele>
        <time>2024-05-10T20:32:47Z</time>
      </trkpt>
      <trkpt lat="42.92399494" lon="13.40304798">
        <ele>642.00000</ele>
        <time>2024-05-10T20:32:48Z</time>
      </trkpt>
      <trkpt lat="42.92400894" lon="13.40302996">
        <ele>643.00000</ele>
        <time>2024-05-10T20:32:48Z</time>
      </trkpt>
      <trkpt lat="42.92402093" lon="13.40301093">
        <ele>643.00000</ele>
        <time>2024-05-10T20:32:48Z</time>
      </trkpt>
      <trkpt lat="42.92403291" lon="13.40299098">
        <ele>644.00000</ele>
        <time>2024-05-10T20:32:49Z</time>
      </trkpt>
      <trkpt lat="42.92404297" lon="13.40297296">
        <ele>645.00000</ele>
        <time>2024-05-10T20:32:49Z</time>
      </trkpt>
      <trkpt lat="42.92405596" lon="13.40296098">
        <ele>645.00000</ele>
        <time>2024-05-10T20:32:49Z</time>
      </trkpt>
      <trkpt lat="42.92406694" lon="13.40294597">
        <ele>646.00000</ele>
        <time>2024-05-10T20:32:50Z</time>
      </trkpt>
      <trkpt lat="42.92407893" lon="13.40292594">
        <ele>646.00000</ele>
        <time>2024-05-10T20:32:50Z</time>
      </trkpt>
      <trkpt lat="42.92408295" lon="13.40289895">
        <ele>647.00000</ele>
        <time>2024-05-10T20:32:50Z</time>
      </trkpt>
      <trkpt lat="42.92408396" lon="13.40287498">
        <ele>648.00000</ele>
        <time>2024-05-10T20:32:51Z</time>
      </trkpt>
      <trkpt lat="42.92408798" lon="13.40284899">
        <ele>649.00000</ele>
        <time>2024-05-10T20:32:51Z</time>
      </trkpt>
      <trkpt lat="42.92409293" lon="13.40282997">
        <ele>650.00000</ele>
        <time>2024-05-10T20:32:51Z</time>
      </trkpt>
      <trkpt lat="42.92409595" lon="13.40281094">
        <ele>650.00000</ele>
        <time>2024-05-10T20:32:52Z</time>
      </trkpt>
      <trkpt lat="42.92410693" lon="13.40278998">
        <ele>651.00000</ele>
        <time>2024-05-10T20:32:52Z</time>
      </trkpt>
      <trkpt lat="42.92411698" lon="13.40277096">
        <ele>652.00000</ele>
        <time>2024-05-10T20:32:52Z</time>
      </trkpt>
      <trkpt lat="42.92413492" lon="13.40276392">
        <ele>653.00000</ele>
        <time>2024-05-10T20:32:53Z</time>
      </trkpt>
      <trkpt lat="42.92415495" lon="13.40275595">
        <ele>653.00000</ele>
        <time>2024-05-10T20:32:53Z</time>
      </trkpt>
      <trkpt lat="42.92416996" lon="13.40273793">
        <ele>654.00000</ele>
        <time>2024-05-10T20:32:54Z</time>
      </trkpt>
      <trkpt lat="42.92418496" lon="13.40271991">
        <ele>654.00000</ele>
        <time>2024-05-10T20:32:54Z</time>
      </trkpt>
      <trkpt lat="42.92419896" lon="13.40269896">
        <ele>655.00000</ele>
        <time>2024-05-10T20:32:55Z</time>
      </trkpt>
      <trkpt lat="42.92421296" lon="13.40267792">
        <ele>656.00000</ele>
        <time>2024-05-10T20:32:55Z</time>
      </trkpt>
      <trkpt lat="42.92422092" lon="13.40265495">
        <ele>657.00000</ele>
        <time>2024-05-10T20:32:55Z</time>
      </trkpt>
      <trkpt lat="42.92422997" lon="13.40263593">
        <ele>657.00000</ele>
        <time>2024-05-10T20:32:56Z</time>
      </trkpt>
      <trkpt lat="42.92423391" lon="13.40261799">
        <ele>658.00000</ele>
        <time>2024-05-10T20:32:56Z</time>
      </trkpt>
      <trkpt lat="42.92423794" lon="13.40259393">
        <ele>659.00000</ele>
        <time>2024-05-10T20:32:56Z</time>
      </trkpt>
      <trkpt lat="42.92424196" lon="13.40257692">
        <ele>659.00000</ele>
        <time>2024-05-10T20:32:57Z</time>
      </trkpt>
      <trkpt lat="42.92424799" lon="13.40255999">
        <ele>660.00000</ele>
        <time>2024-05-10T20:32:57Z</time>
      </trkpt>
      <trkpt lat="42.92425495" lon="13.40254096">
        <ele>661.00000</ele>
        <time>2024-05-10T20:32:57Z</time>
      </trkpt>
      <trkpt lat="42.92426694" lon="13.40253098">
        <ele>661.00000</ele>
        <time>2024-05-10T20:32:57Z</time>
      </trkpt>
      <trkpt lat="42.92428295" lon="13.40252495">
        <ele>661.00000</ele>
        <time>2024-05-10T20:32:58Z</time>
      </trkpt>
      <trkpt lat="42.92430197" lon="13.40251891">
        <ele>661.00000</ele>
        <time>2024-05-10T20:32:58Z</time>
      </trkpt>
      <trkpt lat="42.92431899" lon="13.40251095">
        <ele>662.00000</ele>
        <time>2024-05-10T20:32:58Z</time>
      </trkpt>
      <trkpt lat="42.92433793" lon="13.40250299">
        <ele>662.00000</ele>
        <time>2024-05-10T20:32:59Z</time>
      </trkpt>
      <trkpt lat="42.92435696" lon="13.40249796">
        <ele>662.00000</ele>
        <time>2024-05-10T20:32:59Z</time>
      </trkpt>
      <trkpt lat="42.92437297" lon="13.40248597">
        <ele>662.00000</ele>
        <time>2024-05-10T20:33:00Z</time>
      </trkpt>
      <trkpt lat="42.92438395" lon="13.40247399">
        <ele>662.00000</ele>
        <time>2024-05-10T20:33:00Z</time>
      </trkpt>
      <trkpt lat="42.92439694" lon="13.40246292">
        <ele>663.00000</ele>
        <time>2024-05-10T20:33:00Z</time>
      </trkpt>
      <trkpt lat="42.92441194" lon="13.40245295">
        <ele>663.00000</ele>
        <time>2024-05-10T20:33:01Z</time>
      </trkpt>
      <trkpt lat="42.92442594" lon="13.40244297">
        <ele>663.00000</ele>
        <time>2024-05-10T20:33:01Z</time>
      </trkpt>
      <trkpt lat="42.92443793" lon="13.40243099">
        <ele>663.00000</ele>
        <time>2024-05-10T20:33:01Z</time>
      </trkpt>
      <trkpt lat="42.92444899" lon="13.40242294">
        <ele>663.00000</ele>
        <time>2024-05-10T20:33:01Z</time>
      </trkpt>
      <trkpt lat="42.92446391" lon="13.40241992">
        <ele>663.00000</ele>
        <time>2024-05-10T20:33:02Z</time>
      </trkpt>
      <trkpt lat="42.92448193" lon="13.40241297">
        <ele>663.00000</ele>
        <time>2024-05-10T20:33:02Z</time>
      </trkpt>
      <trkpt lat="42.92449895" lon="13.40240995">
        <ele>663.00000</ele>
        <time>2024-05-10T20:33:02Z</time>
      </trkpt>
      <trkpt lat="42.92451395" lon="13.40240391">
        <ele>663.00000</ele>
        <time>2024-05-10T20:33:03Z</time>
      </trkpt>
      <trkpt lat="42.92453097" lon="13.40239897">
        <ele>663.00000</ele>
        <time>2024-05-10T20:33:03Z</time>
      </trkpt>
      <trkpt lat="42.92455192" lon="13.40240098">
        <ele>662.00000</ele>
        <time>2024-05-10T20:33:04Z</time>
      </trkpt>
      <trkpt lat="42.92457397" lon="13.40240794">
        <ele>662.00000</ele>
        <time>2024-05-10T20:33:04Z</time>
      </trkpt>
      <trkpt lat="42.92458998" lon="13.40242294">
        <ele>661.00000</ele>
        <time>2024-05-10T20:33:04Z</time>
      </trkpt>
      <trkpt lat="42.92460699" lon="13.40243199">
        <ele>661.00000</ele>
        <time>2024-05-10T20:33:05Z</time>
      </trkpt>
      <trkpt lat="42.92462292" lon="13.40243593">
        <ele>661.00000</ele>
        <time>2024-05-10T20:33:05Z</time>
      </trkpt>
      <trkpt lat="42.92463993" lon="13.40243593">
        <ele>661.00000</ele>
        <time>2024-05-10T20:33:05Z</time>
      </trkpt>
      <trkpt lat="42.92465896" lon="13.40242898">
        <ele>661.00000</ele>
        <time>2024-05-10T20:33:06Z</time>
      </trkpt>
      <trkpt lat="42.92467497" lon="13.40242495">
        <ele>660.00000</ele>
        <time>2024-05-10T20:33:06Z</time>
      </trkpt>
      <trkpt lat="42.92469399" lon="13.40242898">
        <ele>660.00000</ele>
        <time>2024-05-10T20:33:06Z</time>
      </trkpt>
      <trkpt lat="42.92471294" lon="13.40243292">
        <ele>660.00000</ele>
        <time>2024-05-10T20:33:07Z</time>
      </trkpt>
      <trkpt lat="42.92472995" lon="13.40243292">
        <ele>660.00000</ele>
        <time>2024-05-10T20:33:07Z</time>
      </trkpt>
      <trkpt lat="42.92474295" lon="13.40242395">
        <ele>660.00000</ele>
        <time>2024-05-10T20:33:07Z</time>
      </trkpt>
      <trkpt lat="42.92475594" lon="13.40241297">
        <ele>660.00000</ele>
        <time>2024-05-10T20:33:08Z</time>
      </trkpt>
      <trkpt lat="42.92477195" lon="13.40240995">
        <ele>660.00000</ele>
        <time>2024-05-10T20:33:08Z</time>
      </trkpt>
      <trkpt lat="42.92478896" lon="13.40240894">
        <ele>660.00000</ele>
        <time>2024-05-10T20:33:08Z</time>
      </trkpt>
      <trkpt lat="42.92480497" lon="13.40241095">
        <ele>659.00000</ele>
        <time>2024-05-10T20:33:09Z</time>
      </trkpt>
      <trkpt lat="42.92482391" lon="13.40241699">
        <ele>659.00000</ele>
        <time>2024-05-10T20:33:09Z</time>
      </trkpt>
      <trkpt lat="42.92484093" lon="13.40243099">
        <ele>659.00000</ele>
        <time>2024-05-10T20:33:10Z</time>
      </trkpt>
      <trkpt lat="42.92485099" lon="13.40244499">
        <ele>658.00000</ele>
        <time>2024-05-10T20:33:10Z</time>
      </trkpt>
      <trkpt lat="42.92486599" lon="13.40244993">
        <ele>658.00000</ele>
        <time>2024-05-10T20:33:10Z</time>
      </trkpt>
      <trkpt lat="42.92488292" lon="13.40243895">
        <ele>658.00000</ele>
        <time>2024-05-10T20:33:11Z</time>
      </trkpt>
      <trkpt lat="42.92489994" lon="13.40242998">
        <ele>658.00000</ele>
        <time>2024-05-10T20:33:11Z</time>
      </trkpt>
      <trkpt lat="42.92491796" lon="13.40242194">
        <ele>658.00000</ele>
        <time>2024-05-10T20:33:11Z</time>
      </trkpt>
      <trkpt lat="42.92493799" lon="13.40241598">
        <ele>658.00000</ele>
        <time>2024-05-10T20:33:12Z</time>
      </trkpt>
      <trkpt lat="42.92495291" lon="13.40240995">
        <ele>658.00000</ele>
        <time>2024-05-10T20:33:12Z</time>
      </trkpt>
      <trkpt lat="42.92497294" lon="13.40240299">
        <ele>658.00000</ele>
        <time>2024-05-10T20:33:12Z</time>
      </trkpt>
      <trkpt lat="42.92499298" lon="13.40239897">
        <ele>658.00000</ele>
        <time>2024-05-10T20:33:13Z</time>
      </trkpt>
      <trkpt lat="42.92500899" lon="13.40240492">
        <ele>658.00000</ele>
        <time>2024-05-10T20:33:13Z</time>
      </trkpt>
      <trkpt lat="42.92502793" lon="13.40240894">
        <ele>658.00000</ele>
        <time>2024-05-10T20:33:14Z</time>
      </trkpt>
      <trkpt lat="42.92504796" lon="13.40240593">
        <ele>658.00000</ele>
        <time>2024-05-10T20:33:14Z</time>
      </trkpt>
      <trkpt lat="42.92506598" lon="13.40239394">
        <ele>658.00000</ele>
        <time>2024-05-10T20:33:14Z</time>
      </trkpt>
      <trkpt lat="42.92508392" lon="13.40238296">
        <ele>658.00000</ele>
        <time>2024-05-10T20:33:15Z</time>
      </trkpt>
      <trkpt lat="42.92509892" lon="13.40237399">
        <ele>658.00000</ele>
        <time>2024-05-10T20:33:15Z</time>
      </trkpt>
      <trkpt lat="42.92511393" lon="13.40236293">
        <ele>658.00000</ele>
        <time>2024-05-10T20:33:15Z</time>
      </trkpt>
      <trkpt lat="42.92512399" lon="13.40234499">
        <ele>658.00000</ele>
        <time>2024-05-10T20:33:16Z</time>
      </trkpt>
      <trkpt lat="42.92512893" lon="13.40231993">
        <ele>658.00000</ele>
        <time>2024-05-10T20:33:16Z</time>
      </trkpt>
      <trkpt lat="42.92513296" lon="13.40229897">
        <ele>658.00000</ele>
        <time>2024-05-10T20:33:16Z</time>
      </trkpt>
      <trkpt lat="42.92513698" lon="13.40227793">
        <ele>659.00000</ele>
        <time>2024-05-10T20:33:17Z</time>
      </trkpt>
      <trkpt lat="42.92513798" lon="13.40226192">
        <ele>659.00000</ele>
        <time>2024-05-10T20:33:17Z</time>
      </trkpt>
      <trkpt lat="42.92513798" lon="13.40224793">
        <ele>659.00000</ele>
        <time>2024-05-10T20:33:17Z</time>
      </trkpt>
      <trkpt lat="42.92513296" lon="13.40223493">
        <ele>659.00000</ele>
        <time>2024-05-10T20:33:17Z</time>
      </trkpt>
      <trkpt lat="42.92512399" lon="13.40222697">
        <ele>659.00000</ele>
        <time>2024-05-10T20:33:18Z</time>
      </trkpt>
      <trkpt lat="42.92511996" lon="13.40221197">
        <ele>659.00000</ele>
        <time>2024-05-10T20:33:18Z</time>
      </trkpt>
      <trkpt lat="42.92511795" lon="13.40218699">
        <ele>659.00000</ele>
        <time>2024-05-10T20:33:18Z</time>
      </trkpt>
      <trkpt lat="42.92511393" lon="13.40216193">
        <ele>659.00000</ele>
        <time>2024-05-10T20:33:19Z</time>
      </trkpt>
      <trkpt lat="42.92510697" lon="13.40213997">
        <ele>659.00000</ele>
        <time>2024-05-10T20:33:19Z</time>
      </trkpt>
      <trkpt lat="42.92509993" lon="13.40211792">
        <ele>659.00000</ele>
        <time>2024-05-10T20:33:19Z</time>
      </trkpt>
      <trkpt lat="42.92508895" lon="13.40211097">
        <ele>659.00000</ele>
        <time>2024-05-10T20:33:20Z</time>
      </trkpt>
      <trkpt lat="42.92507294" lon="13.40210191">
        <ele>659.00000</ele>
        <time>2024-05-10T20:33:20Z</time>
      </trkpt>
      <trkpt lat="42.92505693" lon="13.40209295">
        <ele>659.00000</ele>
        <time>2024-05-10T20:33:20Z</time>
      </trkpt>
      <trkpt lat="42.92504293" lon="13.40208197">
        <ele>659.00000</ele>
        <time>2024-05-10T20:33:21Z</time>
      </trkpt>
      <trkpt lat="42.92503396" lon="13.40205992">
        <ele>659.00000</ele>
        <time>2024-05-10T20:33:21Z</time>
      </trkpt>
      <trkpt lat="42.92502399" lon="13.40203394">
        <ele>659.00000</ele>
        <time>2024-05-10T20:33:21Z</time>
      </trkpt>
      <trkpt lat="42.92501192" lon="13.40200996">
        <ele>659.00000</ele>
        <time>2024-05-10T20:33:22Z</time>
      </trkpt>
      <trkpt lat="42.92499893" lon="13.40198993">
        <ele>660.00000</ele>
        <time>2024-05-10T20:33:22Z</time>
      </trkpt>
      <trkpt lat="42.92498493" lon="13.40197493">
        <ele>660.00000</ele>
        <time>2024-05-10T20:33:23Z</time>
      </trkpt>
      <trkpt lat="42.92496599" lon="13.40196194">
        <ele>660.00000</ele>
        <time>2024-05-10T20:33:23Z</time>
      </trkpt>
      <trkpt lat="42.92494897" lon="13.40194593">
        <ele>660.00000</ele>
        <time>2024-05-10T20:33:23Z</time>
      </trkpt>
      <trkpt lat="42.92493497" lon="13.40192799">
        <ele>660.00000</ele>
        <time>2024-05-10T20:33:24Z</time>
      </trkpt>
      <trkpt lat="42.92491997" lon="13.40190695">
        <ele>661.00000</ele>
        <time>2024-05-10T20:33:24Z</time>
      </trkpt>
      <trkpt lat="42.92490698" lon="13.40188499">
        <ele>661.00000</ele>
        <time>2024-05-10T20:33:25Z</time>
      </trkpt>
      <trkpt lat="42.92489399" lon="13.40185892">
        <ele>661.00000</ele>
        <time>2024-05-10T20:33:25Z</time>
      </trkpt>
      <trkpt lat="42.92487597" lon="13.40182799">
        <ele>661.00000</ele>
        <time>2024-05-10T20:33:26Z</time>
      </trkpt>
      <trkpt lat="42.92485794" lon="13.40179991">
        <ele>661.00000</ele>
        <time>2024-05-10T20:33:26Z</time>
      </trkpt>
      <trkpt lat="42.92483992" lon="13.40177997">
        <ele>661.00000</ele>
        <time>2024-05-10T20:33:27Z</time>
      </trkpt>
      <trkpt lat="42.92481897" lon="13.40175893">
        <ele>661.00000</ele>
        <time>2024-05-10T20:33:27Z</time>
      </trkpt>
      <trkpt lat="42.92479994" lon="13.40173495">
        <ele>662.00000</ele>
        <time>2024-05-10T20:33:28Z</time>
      </trkpt>
      <trkpt lat="42.92478092" lon="13.40170897">
        <ele>662.00000</ele>
        <time>2024-05-10T20:33:28Z</time>
      </trkpt>
      <trkpt lat="42.92476298" lon="13.40168693">
        <ele>662.00000</ele>
        <time>2024-05-10T20:33:29Z</time>
      </trkpt>
      <trkpt lat="42.92474395" lon="13.40166396">
        <ele>663.00000</ele>
        <time>2024-05-10T20:33:29Z</time>
      </trkpt>
      <trkpt lat="42.92472492" lon="13.40164292">
        <ele>663.00000</ele>
        <time>2024-05-10T20:33:30Z</time>
      </trkpt>
      <trkpt lat="42.92470397" lon="13.40162398">
        <ele>663.00000</ele>
        <time>2024-05-10T20:33:30Z</time>
      </trkpt>
      <trkpt lat="42.92468595" lon="13.40160093">
        <ele>663.00000</ele>
        <time>2024-05-10T20:33:31Z</time>
      </trkpt>
      <trkpt lat="42.92466893" lon="13.40157696">
        <ele>663.00000</ele>
        <time>2024-05-10T20:33:31Z</time>
      </trkpt>
      <trkpt lat="42.92465494" lon="13.40155499">
        <ele>663.00000</ele>
        <time>2024-05-10T20:33:32Z</time>
      </trkpt>
      <trkpt lat="42.92463691" lon="13.40153597">
        <ele>664.00000</ele>
        <time>2024-05-10T20:33:32Z</time>
      </trkpt>
      <trkpt lat="42.92461395" lon="13.40152298">
        <ele>664.00000</ele>
        <time>2024-05-10T20:33:33Z</time>
      </trkpt>
      <trkpt lat="42.92459199" lon="13.40151099">
        <ele>665.00000</ele>
        <time>2024-05-10T20:33:33Z</time>
      </trkpt>
      <trkpt lat="42.92458092" lon="13.40148895">
        <ele>665.00000</ele>
        <time>2024-05-10T20:33:33Z</time>
      </trkpt>
      <trkpt lat="42.92456693" lon="13.40145994">
        <ele>664.00000</ele>
        <time>2024-05-10T20:33:34Z</time>
      </trkpt>
      <trkpt lat="42.92454798" lon="13.40143698">
        <ele>665.00000</ele>
        <time>2024-05-10T20:33:34Z</time>
      </trkpt>
      <trkpt lat="42.92453197" lon="13.40141795">
        <ele>665.00000</ele>
        <time>2024-05-10T20:33:35Z</time>
      </trkpt>
      <trkpt lat="42.92450993" lon="13.40139691">
        <ele>665.00000</ele>
        <time>2024-05-10T20:33:35Z</time>
      </trkpt>
      <trkpt lat="42.92449492" lon="13.40137596">
        <ele>666.00000</ele>
        <time>2024-05-10T20:33:36Z</time>
      </trkpt>
      <trkpt lat="42.92447598" lon="13.40135391">
        <ele>666.00000</ele>
        <time>2024-05-10T20:33:36Z</time>
      </trkpt>
      <trkpt lat="42.92445997" lon="13.40133497">
        <ele>666.00000</ele>
        <time>2024-05-10T20:33:37Z</time>
      </trkpt>
      <trkpt lat="42.92444497" lon="13.40131393">
        <ele>666.00000</ele>
        <time>2024-05-10T20:33:37Z</time>
      </trkpt>
      <trkpt lat="42.92442996" lon="13.40129197">
        <ele>666.00000</ele>
        <time>2024-05-10T20:33:38Z</time>
      </trkpt>
      <trkpt lat="42.92441094" lon="13.40127395">
        <ele>666.00000</ele>
        <time>2024-05-10T20:33:38Z</time>
      </trkpt>
      <trkpt lat="42.92439099" lon="13.40124797">
        <ele>666.00000</ele>
        <time>2024-05-10T20:33:39Z</time>
      </trkpt>
      <trkpt lat="42.92436693" lon="13.40123196">
        <ele>666.00000</ele>
        <time>2024-05-10T20:33:39Z</time>
      </trkpt>
      <trkpt lat="42.92434891" lon="13.40120991">
        <ele>666.00000</ele>
        <time>2024-05-10T20:33:40Z</time>
      </trkpt>
      <trkpt lat="42.92432192" lon="13.40119994">
        <ele>667.00000</ele>
        <time>2024-05-10T20:33:40Z</time>
      </trkpt>
      <trkpt lat="42.92429996" lon="13.40118493">
        <ele>667.00000</ele>
        <time>2024-05-10T20:33:41Z</time>
      </trkpt>
      <trkpt lat="42.92427691" lon="13.40116096">
        <ele>667.00000</ele>
        <time>2024-05-10T20:33:41Z</time>
      </trkpt>
      <trkpt lat="42.92425696" lon="13.40113297">
        <ele>668.00000</ele>
        <time>2024-05-10T20:33:42Z</time>
      </trkpt>
      <trkpt lat="42.92424095" lon="13.40110296">
        <ele>668.00000</ele>
        <time>2024-05-10T20:33:42Z</time>
      </trkpt>
      <trkpt lat="42.92422595" lon="13.40107396">
        <ele>667.00000</ele>
        <time>2024-05-10T20:33:43Z</time>
      </trkpt>
      <trkpt lat="42.92420692" lon="13.40104596">
        <ele>668.00000</ele>
        <time>2024-05-10T20:33:43Z</time>
      </trkpt>
      <trkpt lat="42.92418798" lon="13.40101998">
        <ele>668.00000</ele>
        <time>2024-05-10T20:33:44Z</time>
      </trkpt>
      <trkpt lat="42.92416593" lon="13.40098997">
        <ele>668.00000</ele>
        <time>2024-05-10T20:33:45Z</time>
      </trkpt>
      <trkpt lat="42.92414196" lon="13.40096692">
        <ele>668.00000</ele>
        <time>2024-05-10T20:33:45Z</time>
      </trkpt>
      <trkpt lat="42.92411598" lon="13.40094094">
        <ele>667.00000</ele>
        <time>2024-05-10T20:33:46Z</time>
      </trkpt>
      <trkpt lat="42.92408798" lon="13.40091294">
        <ele>667.00000</ele>
        <time>2024-05-10T20:33:47Z</time>
      </trkpt>
      <trkpt lat="42.92406292" lon="13.40088796">
        <ele>667.00000</ele>
        <time>2024-05-10T20:33:47Z</time>
      </trkpt>
      <trkpt lat="42.92403392" lon="13.40085796">
        <ele>667.00000</ele>
        <time>2024-05-10T20:33:48Z</time>
      </trkpt>
      <trkpt lat="42.92400794" lon="13.40082996">
        <ele>667.00000</ele>
        <time>2024-05-10T20:33:49Z</time>
      </trkpt>
      <trkpt lat="42.92397893" lon="13.40080699">
        <ele>667.00000</ele>
        <time>2024-05-10T20:33:49Z</time>
      </trkpt>
      <trkpt lat="42.92395094" lon="13.40078093">
        <ele>667.00000</ele>
        <time>2024-05-10T20:33:50Z</time>
      </trkpt>
      <trkpt lat="42.92392194" lon="13.40075293">
        <ele>667.00000</ele>
        <time>2024-05-10T20:33:51Z</time>
      </trkpt>
      <trkpt lat="42.92389394" lon="13.40072795">
        <ele>668.00000</ele>
        <time>2024-05-10T20:33:51Z</time>
      </trkpt>
      <trkpt lat="42.92386595" lon="13.40070499">
        <ele>667.00000</ele>
        <time>2024-05-10T20:33:52Z</time>
      </trkpt>
      <trkpt lat="42.92383594" lon="13.40067992">
        <ele>667.00000</ele>
        <time>2024-05-10T20:33:53Z</time>
      </trkpt>
      <trkpt lat="42.92380996" lon="13.40065495">
        <ele>667.00000</ele>
        <time>2024-05-10T20:33:53Z</time>
      </trkpt>
      <trkpt lat="42.92378297" lon="13.40062494">
        <ele>667.00000</ele>
        <time>2024-05-10T20:33:54Z</time>
      </trkpt>
      <trkpt lat="42.92375296" lon="13.40059594">
        <ele>667.00000</ele>
        <time>2024-05-10T20:33:55Z</time>
      </trkpt>
      <trkpt lat="42.92372195" lon="13.40056794">
        <ele>667.00000</ele>
        <time>2024-05-10T20:33:55Z</time>
      </trkpt>
      <trkpt lat="42.92368993" lon="13.40054397">
        <ele>666.00000</ele>
        <time>2024-05-10T20:33:56Z</time>
      </trkpt>
      <trkpt lat="42.92365497" lon="13.40052092">
        <ele>666.00000</ele>
        <time>2024-05-10T20:33:57Z</time>
      </trkpt>
      <trkpt lat="42.92361692" lon="13.40049695">
        <ele>666.00000</ele>
        <time>2024-05-10T20:33:58Z</time>
      </trkpt>
      <trkpt lat="42.92358096" lon="13.40047197">
        <ele>665.00000</ele>
        <time>2024-05-10T20:33:59Z</time>
      </trkpt>
      <trkpt lat="42.92354391" lon="13.40044498">
        <ele>665.00000</ele>
        <time>2024-05-10T20:33:59Z</time>
      </trkpt>
      <trkpt lat="42.92350896" lon="13.40041799">
        <ele>664.00000</ele>
        <time>2024-05-10T20:34:00Z</time>
      </trkpt>
      <trkpt lat="42.92347099" lon="13.40039293">
        <ele>664.00000</ele>
        <time>2024-05-10T20:34:01Z</time>
      </trkpt>
      <trkpt lat="42.92343294" lon="13.40036493">
        <ele>663.00000</ele>
        <time>2024-05-10T20:34:02Z</time>
      </trkpt>
      <trkpt lat="42.92339094" lon="13.40033593">
        <ele>663.00000</ele>
        <time>2024-05-10T20:34:03Z</time>
      </trkpt>
      <trkpt lat="42.92335096" lon="13.40030492">
        <ele>663.00000</ele>
        <time>2024-05-10T20:34:04Z</time>
      </trkpt>
      <trkpt lat="42.92331794" lon="13.40026695">
        <ele>662.00000</ele>
        <time>2024-05-10T20:34:05Z</time>
      </trkpt>
      <trkpt lat="42.92328793" lon="13.40022797">
        <ele>662.00000</ele>
        <time>2024-05-10T20:34:06Z</time>
      </trkpt>
      <trkpt lat="42.92325893" lon="13.40019394">
        <ele>662.00000</ele>
        <time>2024-05-10T20:34:06Z</time>
      </trkpt>
      <trkpt lat="42.92322993" lon="13.40015597">
        <ele>662.00000</ele>
        <time>2024-05-10T20:34:07Z</time>
      </trkpt>
      <trkpt lat="42.92320193" lon="13.40011599">
        <ele>662.00000</ele>
        <time>2024-05-10T20:34:08Z</time>
      </trkpt>
      <trkpt lat="42.92317092" lon="13.40007894">
        <ele>662.00000</ele>
        <time>2024-05-10T20:34:09Z</time>
      </trkpt>
      <trkpt lat="42.92314091" lon="13.40004399">
        <ele>663.00000</ele>
        <time>2024-05-10T20:34:10Z</time>
      </trkpt>
      <trkpt lat="42.92311392" lon="13.40000694">
        <ele>663.00000</ele>
        <time>2024-05-10T20:34:10Z</time>
      </trkpt>
      <trkpt lat="42.92308593" lon="13.39996595">
        <ele>663.00000</ele>
        <time>2024-05-10T20:34:11Z</time>
      </trkpt>
      <trkpt lat="42.92305491" lon="13.39992396">
        <ele>663.00000</ele>
        <time>2024-05-10T20:34:12Z</time>
      </trkpt>
      <trkpt lat="42.92302398" lon="13.39988498">
        <ele>662.00000</ele>
        <time>2024-05-10T20:34:13Z</time>
      </trkpt>
      <trkpt lat="42.92298895" lon="13.39984693">
        <ele>662.00000</ele>
        <time>2024-05-10T20:34:14Z</time>
      </trkpt>
      <trkpt lat="42.92295299" lon="13.39980997">
        <ele>662.00000</ele>
        <time>2024-05-10T20:34:15Z</time>
      </trkpt>
      <trkpt lat="42.92291594" lon="13.39976797">
        <ele>662.00000</ele>
        <time>2024-05-10T20:34:16Z</time>
      </trkpt>
      <trkpt lat="42.92287797" lon="13.39972196">
        <ele>662.00000</ele>
        <time>2024-05-10T20:34:17Z</time>
      </trkpt>
      <trkpt lat="42.92283992" lon="13.39967695">
        <ele>663.00000</ele>
        <time>2024-05-10T20:34:18Z</time>
      </trkpt>
      <trkpt lat="42.92280396" lon="13.39962498">
        <ele>663.00000</ele>
        <time>2024-05-10T20:34:19Z</time>
      </trkpt>
      <trkpt lat="42.92277194" lon="13.39956396">
        <ele>663.00000</ele>
        <time>2024-05-10T20:34:20Z</time>
      </trkpt>
      <trkpt lat="42.92274596" lon="13.39950495">
        <ele>663.00000</ele>
        <time>2024-05-10T20:34:21Z</time>
      </trkpt>
      <trkpt lat="42.92272592" lon="13.39944192">
        <ele>663.00000</ele>
        <time>2024-05-10T20:34:22Z</time>
      </trkpt>
      <trkpt lat="42.92270991" lon="13.39938299">
        <ele>663.00000</ele>
        <time>2024-05-10T20:34:23Z</time>
      </trkpt>
      <trkpt lat="42.92269793" lon="13.39932398">
        <ele>664.00000</ele>
        <time>2024-05-10T20:34:24Z</time>
      </trkpt>
      <trkpt lat="42.92269198" lon="13.39926699">
        <ele>664.00000</ele>
        <time>2024-05-10T20:34:24Z</time>
      </trkpt>
      <trkpt lat="42.92268896" lon="13.39921091">
        <ele>664.00000</ele>
        <time>2024-05-10T20:34:25Z</time>
      </trkpt>
      <trkpt lat="42.92268997" lon="13.39915391">
        <ele>665.00000</ele>
        <time>2024-05-10T20:34:26Z</time>
      </trkpt>
      <trkpt lat="42.92269198" lon="13.39909994">
        <ele>666.00000</ele>
        <time>2024-05-10T20:34:27Z</time>
      </trkpt>
      <trkpt lat="42.92269793" lon="13.39904797">
        <ele>667.00000</ele>
        <time>2024-05-10T20:34:28Z</time>
      </trkpt>
      <trkpt lat="42.92270296" lon="13.39900195">
        <ele>667.00000</ele>
        <time>2024-05-10T20:34:28Z</time>
      </trkpt>
      <trkpt lat="42.92271092" lon="13.39896599">
        <ele>668.00000</ele>
        <time>2024-05-10T20:34:29Z</time>
      </trkpt>
      <trkpt lat="42.92272098" lon="13.39893096">
        <ele>668.00000</ele>
        <time>2024-05-10T20:34:29Z</time>
      </trkpt>
      <trkpt lat="42.92273196" lon="13.39889491">
        <ele>669.00000</ele>
        <time>2024-05-10T20:34:30Z</time>
      </trkpt>
      <trkpt lat="42.92274294" lon="13.39886097">
        <ele>670.00000</ele>
        <time>2024-05-10T20:34:31Z</time>
      </trkpt>
      <trkpt lat="42.92275694" lon="13.39882794">
        <ele>671.00000</ele>
        <time>2024-05-10T20:34:31Z</time>
      </trkpt>
      <trkpt lat="42.92276691" lon="13.39879299">
        <ele>672.00000</ele>
        <time>2024-05-10T20:34:32Z</time>
      </trkpt>
      <trkpt lat="42.92276892" lon="13.39875494">
        <ele>673.00000</ele>
        <time>2024-05-10T20:34:32Z</time>
      </trkpt>
      <trkpt lat="42.92276599" lon="13.39871697">
        <ele>674.00000</ele>
        <time>2024-05-10T20:34:33Z</time>
      </trkpt>
      <trkpt lat="42.92276599" lon="13.39868495">
        <ele>675.00000</ele>
        <time>2024-05-10T20:34:33Z</time>
      </trkpt>
      <trkpt lat="42.92275995" lon="13.39864999">
        <ele>675.00000</ele>
        <time>2024-05-10T20:34:34Z</time>
      </trkpt>
      <trkpt lat="42.92274395" lon="13.39862192">
        <ele>676.00000</ele>
        <time>2024-05-10T20:34:34Z</time>
      </trkpt>
      <trkpt lat="42.92271897" lon="13.39860599">
        <ele>676.00000</ele>
        <time>2024-05-10T20:34:35Z</time>
      </trkpt>
      <trkpt lat="42.92269298" lon="13.39860498">
        <ele>676.00000</ele>
        <time>2024-05-10T20:34:35Z</time>
      </trkpt>
      <trkpt lat="42.92266792" lon="13.39860792">
        <ele>676.00000</ele>
        <time>2024-05-10T20:34:36Z</time>
      </trkpt>
      <trkpt lat="42.92264194" lon="13.39859895">
        <ele>676.00000</ele>
        <time>2024-05-10T20:34:36Z</time>
      </trkpt>
      <trkpt lat="42.92262593" lon="13.39858395">
        <ele>677.00000</ele>
        <time>2024-05-10T20:34:37Z</time>
      </trkpt>
      <trkpt lat="42.92261495" lon="13.39856492">
        <ele>677.00000</ele>
        <time>2024-05-10T20:34:37Z</time>
      </trkpt>
      <trkpt lat="42.92259994" lon="13.39854296">
        <ele>678.00000</ele>
        <time>2024-05-10T20:34:38Z</time>
      </trkpt>
      <trkpt lat="42.92258796" lon="13.39852192">
        <ele>678.00000</ele>
        <time>2024-05-10T20:34:38Z</time>
      </trkpt>
      <trkpt lat="42.92257295" lon="13.39850599">
        <ele>678.00000</ele>
        <time>2024-05-10T20:34:38Z</time>
      </trkpt>
      <trkpt lat="42.92255393" lon="13.39848697">
        <ele>679.00000</ele>
        <time>2024-05-10T20:34:39Z</time>
      </trkpt>
      <trkpt lat="42.92253691" lon="13.39846492">
        <ele>679.00000</ele>
        <time>2024-05-10T20:34:39Z</time>
      </trkpt>
      <trkpt lat="42.92252199" lon="13.39844497">
        <ele>680.00000</ele>
        <time>2024-05-10T20:34:40Z</time>
      </trkpt>
      <trkpt lat="42.92250699" lon="13.39842494">
        <ele>680.00000</ele>
        <time>2024-05-10T20:34:40Z</time>
      </trkpt>
      <trkpt lat="42.92248997" lon="13.39840399">
        <ele>681.00000</ele>
        <time>2024-05-10T20:34:41Z</time>
      </trkpt>
      <trkpt lat="42.92247698" lon="13.39838395">
        <ele>681.00000</ele>
        <time>2024-05-10T20:34:41Z</time>
      </trkpt>
      <trkpt lat="42.92246399" lon="13.39836099">
        <ele>681.00000</ele>
        <time>2024-05-10T20:34:41Z</time>
      </trkpt>
      <trkpt lat="42.92244798" lon="13.39834095">
        <ele>681.00000</ele>
        <time>2024-05-10T20:34:42Z</time>
      </trkpt>
      <trkpt lat="42.92243599" lon="13.39831992">
        <ele>682.00000</ele>
        <time>2024-05-10T20:34:42Z</time>
      </trkpt>
      <trkpt lat="42.92241898" lon="13.39829393">
        <ele>682.00000</ele>
        <time>2024-05-10T20:34:43Z</time>
      </trkpt>
      <trkpt lat="42.92240297" lon="13.39826996">
        <ele>682.00000</ele>
        <time>2024-05-10T20:34:43Z</time>
      </trkpt>
      <trkpt lat="42.92238495" lon="13.39824892">
        <ele>683.00000</ele>
        <time>2024-05-10T20:34:44Z</time>
      </trkpt>
      <trkpt lat="42.92237095" lon="13.39823291">
        <ele>683.00000</ele>
        <time>2024-05-10T20:34:44Z</time>
      </trkpt>
      <trkpt lat="42.92235695" lon="13.39821497">
        <ele>683.00000</ele>
        <time>2024-05-10T20:34:44Z</time>
      </trkpt>
      <trkpt lat="42.92234396" lon="13.39819192">
        <ele>684.00000</ele>
        <time>2024-05-10T20:34:45Z</time>
      </trkpt>
      <trkpt lat="42.92233298" lon="13.39816695">
        <ele>684.00000</ele>
        <time>2024-05-10T20:34:45Z</time>
      </trkpt>
      <trkpt lat="42.92231999" lon="13.39814691">
        <ele>685.00000</ele>
        <time>2024-05-10T20:34:46Z</time>
      </trkpt>
      <trkpt lat="42.92230691" lon="13.39812294">
        <ele>685.00000</ele>
        <time>2024-05-10T20:34:46Z</time>
      </trkpt>
      <trkpt lat="42.92229291" lon="13.39809997">
        <ele>686.00000</ele>
        <time>2024-05-10T20:34:47Z</time>
      </trkpt>
      <trkpt lat="42.92227699" lon="13.39808296">
        <ele>686.00000</ele>
        <time>2024-05-10T20:34:47Z</time>
      </trkpt>
      <trkpt lat="42.92226299" lon="13.39806695">
        <ele>687.00000</ele>
        <time>2024-05-10T20:34:47Z</time>
      </trkpt>
      <trkpt lat="42.92225193" lon="13.39805094">
        <ele>687.00000</ele>
        <time>2024-05-10T20:34:48Z</time>
      </trkpt>
      <trkpt lat="42.92223894" lon="13.39803795">
        <ele>687.00000</ele>
        <time>2024-05-10T20:34:48Z</time>
      </trkpt>
      <trkpt lat="42.92222393" lon="13.39802596">
        <ele>687.00000</ele>
        <time>2024-05-10T20:34:48Z</time>
      </trkpt>
      <trkpt lat="42.92221094" lon="13.39800995">
        <ele>688.00000</ele>
        <time>2024-05-10T20:34:49Z</time>
      </trkpt>
      <trkpt lat="42.92219493" lon="13.39799495">
        <ele>688.00000</ele>
        <time>2024-05-10T20:34:49Z</time>
      </trkpt>
      <trkpt lat="42.92217892" lon="13.39798095">
        <ele>688.00000</ele>
        <time>2024-05-10T20:34:49Z</time>
      </trkpt>
      <trkpt lat="42.92216392" lon="13.39795899">
        <ele>689.00000</ele>
        <time>2024-05-10T20:34:50Z</time>
      </trkpt>
      <trkpt lat="42.92214598" lon="13.39794793">
        <ele>689.00000</ele>
        <time>2024-05-10T20:34:50Z</time>
      </trkpt>
      <trkpt lat="42.92212796" lon="13.39793795">
        <ele>689.00000</ele>
        <time>2024-05-10T20:34:51Z</time>
      </trkpt>
      <trkpt lat="42.92211296" lon="13.39792496">
        <ele>690.00000</ele>
        <time>2024-05-10T20:34:51Z</time>
      </trkpt>
      <trkpt lat="42.92209996" lon="13.39791499">
        <ele>690.00000</ele>
        <time>2024-05-10T20:34:51Z</time>
      </trkpt>
      <trkpt lat="42.92208395" lon="13.39790694">
        <ele>690.00000</ele>
        <time>2024-05-10T20:34:52Z</time>
      </trkpt>
      <trkpt lat="42.92206895" lon="13.39790099">
        <ele>690.00000</ele>
        <time>2024-05-10T20:34:52Z</time>
      </trkpt>
      <trkpt lat="42.92205093" lon="13.39789093">
        <ele>691.00000</ele>
        <time>2024-05-10T20:34:52Z</time>
      </trkpt>
      <trkpt lat="42.92203299" lon="13.39788397">
        <ele>691.00000</ele>
        <time>2024-05-10T20:34:53Z</time>
      </trkpt>
      <trkpt lat="42.92201598" lon="13.39787693">
        <ele>691.00000</ele>
        <time>2024-05-10T20:34:53Z</time>
      </trkpt>
      <trkpt lat="42.92199896" lon="13.39786897">
        <ele>691.00000</ele>
        <time>2024-05-10T20:34:53Z</time>
      </trkpt>
      <trkpt lat="42.92198295" lon="13.39786796">
        <ele>691.00000</ele>
        <time>2024-05-10T20:34:54Z</time>
      </trkpt>
      <trkpt lat="42.92196795" lon="13.39786997">
        <ele>691.00000</ele>
        <time>2024-05-10T20:34:54Z</time>
      </trkpt>
      <trkpt lat="42.92195093" lon="13.39786796">
        <ele>691.00000</ele>
        <time>2024-05-10T20:34:54Z</time>
      </trkpt>
      <trkpt lat="42.92193694" lon="13.39786293">
        <ele>691.00000</ele>
        <time>2024-05-10T20:34:55Z</time>
      </trkpt>
      <trkpt lat="42.92191891" lon="13.39785992">
        <ele>692.00000</ele>
        <time>2024-05-10T20:34:55Z</time>
      </trkpt>
      <trkpt lat="42.92190198" lon="13.39785799">
        <ele>692.00000</ele>
        <time>2024-05-10T20:34:55Z</time>
      </trkpt>
      <trkpt lat="42.92188899" lon="13.39785899">
        <ele>692.00000</ele>
        <time>2024-05-10T20:34:56Z</time>
      </trkpt>
      <trkpt lat="42.92187097" lon="13.39786394">
        <ele>691.00000</ele>
        <time>2024-05-10T20:34:56Z</time>
      </trkpt>
      <trkpt lat="42.92185295" lon="13.39786696">
        <ele>691.00000</ele>
        <time>2024-05-10T20:34:56Z</time>
      </trkpt>
      <trkpt lat="42.92183694" lon="13.39786495">
        <ele>691.00000</ele>
        <time>2024-05-10T20:34:57Z</time>
      </trkpt>
      <trkpt lat="42.92181992" lon="13.39786696">
        <ele>691.00000</ele>
        <time>2024-05-10T20:34:57Z</time>
      </trkpt>
      <trkpt lat="42.92180391" lon="13.39786595">
        <ele>691.00000</ele>
        <time>2024-05-10T20:34:57Z</time>
      </trkpt>
      <trkpt lat="42.92178899" lon="13.39785497">
        <ele>692.00000</ele>
        <time>2024-05-10T20:34:58Z</time>
      </trkpt>
      <trkpt lat="42.92177692" lon="13.39784198">
        <ele>692.00000</ele>
        <time>2024-05-10T20:34:58Z</time>
      </trkpt>
      <trkpt lat="42.92175999" lon="13.39783192">
        <ele>693.00000</ele>
        <time>2024-05-10T20:34:58Z</time>
      </trkpt>
      <trkpt lat="42.92173996" lon="13.39782496">
        <ele>693.00000</ele>
        <time>2024-05-10T20:34:59Z</time>
      </trkpt>
      <trkpt lat="42.92172194" lon="13.39782396">
        <ele>693.00000</ele>
        <time>2024-05-10T20:34:59Z</time>
      </trkpt>
      <trkpt lat="42.92170392" lon="13.39782597">
        <ele>693.00000</ele>
        <time>2024-05-10T20:35:00Z</time>
      </trkpt>
      <trkpt lat="42.92168992" lon="13.39782094">
        <ele>693.00000</ele>
        <time>2024-05-10T20:35:00Z</time>
      </trkpt>
      <trkpt lat="42.92167592" lon="13.39780795">
        <ele>694.00000</ele>
        <time>2024-05-10T20:35:00Z</time>
      </trkpt>
      <trkpt lat="42.92165899" lon="13.39779797">
        <ele>694.00000</ele>
        <time>2024-05-10T20:35:01Z</time>
      </trkpt>
      <trkpt lat="42.92164298" lon="13.39778398">
        <ele>694.00000</ele>
        <time>2024-05-10T20:35:01Z</time>
      </trkpt>
      <trkpt lat="42.92162496" lon="13.39776998">
        <ele>694.00000</ele>
        <time>2024-05-10T20:35:01Z</time>
      </trkpt>
      <trkpt lat="42.92160694" lon="13.39775498">
        <ele>694.00000</ele>
        <time>2024-05-10T20:35:02Z</time>
      </trkpt>
      <trkpt lat="42.92158791" lon="13.39774098">
        <ele>694.00000</ele>
        <time>2024-05-10T20:35:02Z</time>
      </trkpt>
      <trkpt lat="42.92157098" lon="13.39772195">
        <ele>695.00000</ele>
        <time>2024-05-10T20:35:03Z</time>
      </trkpt>
      <trkpt lat="42.92155397" lon="13.39770494">
        <ele>695.00000</ele>
        <time>2024-05-10T20:35:03Z</time>
      </trkpt>
      <trkpt lat="42.92153695" lon="13.39769194">
        <ele>695.00000</ele>
        <time>2024-05-10T20:35:03Z</time>
      </trkpt>
      <trkpt lat="42.92152195" lon="13.39767795">
        <ele>695.00000</ele>
        <time>2024-05-10T20:35:04Z</time>
      </trkpt>
      <trkpt lat="42.92150594" lon="13.39766697">
        <ele>695.00000</ele>
        <time>2024-05-10T20:35:04Z</time>
      </trkpt>
      <trkpt lat="42.92149194" lon="13.39765297">
        <ele>695.00000</ele>
        <time>2024-05-10T20:35:05Z</time>
      </trkpt>
      <trkpt lat="42.92148096" lon="13.39763998">
        <ele>695.00000</ele>
        <time>2024-05-10T20:35:05Z</time>
      </trkpt>
      <trkpt lat="42.92146596" lon="13.39762195">
        <ele>695.00000</ele>
        <time>2024-05-10T20:35:05Z</time>
      </trkpt>
      <trkpt lat="42.92145498" lon="13.39760393">
        <ele>695.00000</ele>
        <time>2024-05-10T20:35:06Z</time>
      </trkpt>
      <trkpt lat="42.92143695" lon="13.39759496">
        <ele>695.00000</ele>
        <time>2024-05-10T20:35:06Z</time>
      </trkpt>
      <trkpt lat="42.92142195" lon="13.39758792">
        <ele>695.00000</ele>
        <time>2024-05-10T20:35:06Z</time>
      </trkpt>
      <trkpt lat="42.92140695" lon="13.39757393">
        <ele>696.00000</ele>
        <time>2024-05-10T20:35:07Z</time>
      </trkpt>
      <trkpt lat="42.92139396" lon="13.39755398">
        <ele>696.00000</ele>
        <time>2024-05-10T20:35:07Z</time>
      </trkpt>
      <trkpt lat="42.92137895" lon="13.39754291">
        <ele>696.00000</ele>
        <time>2024-05-10T20:35:07Z</time>
      </trkpt>
      <trkpt lat="42.92136294" lon="13.39753093">
        <ele>696.00000</ele>
        <time>2024-05-10T20:35:08Z</time>
      </trkpt>
      <trkpt lat="42.92134693" lon="13.39751693">
        <ele>696.00000</ele>
        <time>2024-05-10T20:35:08Z</time>
      </trkpt>
      <trkpt lat="42.92133394" lon="13.39750897">
        <ele>696.00000</ele>
        <time>2024-05-10T20:35:08Z</time>
      </trkpt>
      <trkpt lat="42.92131793" lon="13.39750293">
        <ele>696.00000</ele>
        <time>2024-05-10T20:35:09Z</time>
      </trkpt>
      <trkpt lat="42.92130393" lon="13.39749396">
        <ele>696.00000</ele>
        <time>2024-05-10T20:35:09Z</time>
      </trkpt>
      <trkpt lat="42.92128792" lon="13.39747896">
        <ele>696.00000</ele>
        <time>2024-05-10T20:35:09Z</time>
      </trkpt>
      <trkpt lat="42.92127292" lon="13.39746496">
        <ele>696.00000</ele>
        <time>2024-05-10T20:35:10Z</time>
      </trkpt>
      <trkpt lat="42.92126093" lon="13.39744895">
        <ele>696.00000</ele>
        <time>2024-05-10T20:35:10Z</time>
      </trkpt>
      <trkpt lat="42.92124794" lon="13.39742892">
        <ele>696.00000</ele>
        <time>2024-05-10T20:35:11Z</time>
      </trkpt>
      <trkpt lat="42.92123294" lon="13.39741392">
        <ele>696.00000</ele>
        <time>2024-05-10T20:35:11Z</time>
      </trkpt>
      <trkpt lat="42.92121995" lon="13.39739992">
        <ele>696.00000</ele>
        <time>2024-05-10T20:35:11Z</time>
      </trkpt>
      <trkpt lat="42.92120494" lon="13.39738793">
        <ele>696.00000</ele>
        <time>2024-05-10T20:35:12Z</time>
      </trkpt>
      <trkpt lat="42.92118994" lon="13.39737494">
        <ele>696.00000</ele>
        <time>2024-05-10T20:35:12Z</time>
      </trkpt>
      <trkpt lat="42.92117292" lon="13.39736295">
        <ele>696.00000</ele>
        <time>2024-05-10T20:35:12Z</time>
      </trkpt>
      <trkpt lat="42.92115893" lon="13.39735197">
        <ele>696.00000</ele>
        <time>2024-05-10T20:35:13Z</time>
      </trkpt>
      <trkpt lat="42.92114694" lon="13.39734099">
        <ele>696.00000</ele>
        <time>2024-05-10T20:35:13Z</time>
      </trkpt>
      <trkpt lat="42.92113495" lon="13.39732892">
        <ele>697.00000</ele>
        <time>2024-05-10T20:35:13Z</time>
      </trkpt>
      <trkpt lat="42.92112096" lon="13.39731493">
        <ele>697.00000</ele>
        <time>2024-05-10T20:35:14Z</time>
      </trkpt>
      <trkpt lat="42.92110394" lon="13.39730294">
        <ele>697.00000</ele>
        <time>2024-05-10T20:35:14Z</time>
      </trkpt>
      <trkpt lat="42.92108693" lon="13.39729196">
        <ele>697.00000</ele>
        <time>2024-05-10T20:35:14Z</time>
      </trkpt>
      <trkpt lat="42.92107393" lon="13.39727595">
        <ele>697.00000</ele>
        <time>2024-05-10T20:35:15Z</time>
      </trkpt>
      <trkpt lat="42.92106094" lon="13.39725994">
        <ele>698.00000</ele>
        <time>2024-05-10T20:35:15Z</time>
      </trkpt>
      <trkpt lat="42.92104694" lon="13.39724997">
        <ele>698.00000</ele>
        <time>2024-05-10T20:35:15Z</time>
      </trkpt>
      <trkpt lat="42.92103395" lon="13.39723295">
        <ele>698.00000</ele>
        <time>2024-05-10T20:35:16Z</time>
      </trkpt>
      <trkpt lat="42.92101895" lon="13.39722197">
        <ele>698.00000</ele>
        <time>2024-05-10T20:35:16Z</time>
      </trkpt>
      <trkpt lat="42.92100495" lon="13.39720898">
        <ele>699.00000</ele>
        <time>2024-05-10T20:35:16Z</time>
      </trkpt>
      <trkpt lat="42.92099397" lon="13.39719096">
        <ele>699.00000</ele>
        <time>2024-05-10T20:35:17Z</time>
      </trkpt>
      <trkpt lat="42.92098199" lon="13.39717595">
        <ele>699.00000</ele>
        <time>2024-05-10T20:35:17Z</time>
      </trkpt>
      <trkpt lat="42.92096799" lon="13.39715994">
        <ele>699.00000</ele>
        <time>2024-05-10T20:35:17Z</time>
      </trkpt>
      <trkpt lat="42.92095399" lon="13.39714494">
        <ele>699.00000</ele>
        <time>2024-05-10T20:35:18Z</time>
      </trkpt>
      <trkpt lat="42.92093899" lon="13.39713295">
        <ele>699.00000</ele>
        <time>2024-05-10T20:35:18Z</time>
      </trkpt>
      <trkpt lat="42.92092499" lon="13.39712097">
        <ele>700.00000</ele>
        <time>2024-05-10T20:35:18Z</time>
      </trkpt>
      <trkpt lat="42.92090998" lon="13.39710697">
        <ele>700.00000</ele>
        <time>2024-05-10T20:35:19Z</time>
      </trkpt>
      <trkpt lat="42.92090194" lon="13.39708794">
        <ele>700.00000</ele>
        <time>2024-05-10T20:35:19Z</time>
      </trkpt>
      <trkpt lat="42.92088995" lon="13.39707093">
        <ele>700.00000</ele>
        <time>2024-05-10T20:35:19Z</time>
      </trkpt>
      <trkpt lat="42.92087495" lon="13.39706297">
        <ele>700.00000</ele>
        <time>2024-05-10T20:35:20Z</time>
      </trkpt>
      <trkpt lat="42.92085994" lon="13.39704595">
        <ele>701.00000</ele>
        <time>2024-05-10T20:35:20Z</time>
      </trkpt>
      <trkpt lat="42.92084595" lon="13.39703396">
        <ele>701.00000</ele>
        <time>2024-05-10T20:35:21Z</time>
      </trkpt>
      <trkpt lat="42.92083295" lon="13.39701795">
        <ele>701.00000</ele>
        <time>2024-05-10T20:35:21Z</time>
      </trkpt>
      <trkpt lat="42.92081996" lon="13.39699599">
        <ele>701.00000</ele>
        <time>2024-05-10T20:35:21Z</time>
      </trkpt>
      <trkpt lat="42.92080898" lon="13.39697496">
        <ele>701.00000</ele>
        <time>2024-05-10T20:35:22Z</time>
      </trkpt>
      <trkpt lat="42.92079792" lon="13.39695492">
        <ele>701.00000</ele>
        <time>2024-05-10T20:35:22Z</time>
      </trkpt>
      <trkpt lat="42.92078996" lon="13.39693397">
        <ele>702.00000</ele>
        <time>2024-05-10T20:35:22Z</time>
      </trkpt>
      <trkpt lat="42.92078099" lon="13.39691695">
        <ele>702.00000</ele>
        <time>2024-05-10T20:35:23Z</time>
      </trkpt>
      <trkpt lat="42.92076992" lon="13.39689793">
        <ele>702.00000</ele>
        <time>2024-05-10T20:35:23Z</time>
      </trkpt>
      <trkpt lat="42.92075995" lon="13.39687999">
        <ele>702.00000</ele>
        <time>2024-05-10T20:35:23Z</time>
      </trkpt>
      <trkpt lat="42.92075098" lon="13.39686096">
        <ele>702.00000</ele>
        <time>2024-05-10T20:35:24Z</time>
      </trkpt>
      <trkpt lat="42.92073992" lon="13.39683992">
        <ele>703.00000</ele>
        <time>2024-05-10T20:35:24Z</time>
      </trkpt>
      <trkpt lat="42.92072894" lon="13.39682299">
        <ele>703.00000</ele>
        <time>2024-05-10T20:35:24Z</time>
      </trkpt>
      <trkpt lat="42.92072097" lon="13.39680497">
        <ele>703.00000</ele>
        <time>2024-05-10T20:35:25Z</time>
      </trkpt>
      <trkpt lat="42.92071494" lon="13.39678393">
        <ele>704.00000</ele>
        <time>2024-05-10T20:35:25Z</time>
      </trkpt>
      <trkpt lat="42.92070697" lon="13.39675795">
        <ele>704.00000</ele>
        <time>2024-05-10T20:35:25Z</time>
      </trkpt>
      <trkpt lat="42.92070396" lon="13.39673498">
        <ele>704.00000</ele>
        <time>2024-05-10T20:35:26Z</time>
      </trkpt>
      <trkpt lat="42.92070396" lon="13.39670799">
        <ele>705.00000</ele>
        <time>2024-05-10T20:35:26Z</time>
      </trkpt>
      <trkpt lat="42.92070496" lon="13.39668394">
        <ele>705.00000</ele>
        <time>2024-05-10T20:35:27Z</time>
      </trkpt>
      <trkpt lat="42.92070597" lon="13.39665795">
        <ele>705.00000</ele>
        <time>2024-05-10T20:35:27Z</time>
      </trkpt>
      <trkpt lat="42.92070999" lon="13.39663297">
        <ele>706.00000</ele>
        <time>2024-05-10T20:35:27Z</time>
      </trkpt>
      <trkpt lat="42.92070798" lon="13.39660791">
        <ele>706.00000</ele>
        <time>2024-05-10T20:35:28Z</time>
      </trkpt>
      <trkpt lat="42.92070496" lon="13.39658293">
        <ele>706.00000</ele>
        <time>2024-05-10T20:35:28Z</time>
      </trkpt>
      <trkpt lat="42.92070295" lon="13.39656198">
        <ele>706.00000</ele>
        <time>2024-05-10T20:35:28Z</time>
      </trkpt>
      <trkpt lat="42.92069893" lon="13.39653692">
        <ele>707.00000</ele>
        <time>2024-05-10T20:35:29Z</time>
      </trkpt>
      <trkpt lat="42.92069499" lon="13.39650993">
        <ele>707.00000</ele>
        <time>2024-05-10T20:35:29Z</time>
      </trkpt>
      <trkpt lat="42.92069197" lon="13.39648193">
        <ele>707.00000</ele>
        <time>2024-05-10T20:35:30Z</time>
      </trkpt>
      <trkpt lat="42.92068996" lon="13.39645796">
        <ele>708.00000</ele>
        <time>2024-05-10T20:35:30Z</time>
      </trkpt>
      <trkpt lat="42.92068594" lon="13.39643499">
        <ele>708.00000</ele>
        <time>2024-05-10T20:35:30Z</time>
      </trkpt>
      <trkpt lat="42.92068191" lon="13.39640993">
        <ele>708.00000</ele>
        <time>2024-05-10T20:35:31Z</time>
      </trkpt>
      <trkpt lat="42.92067999" lon="13.39638696">
        <ele>708.00000</ele>
        <time>2024-05-10T20:35:31Z</time>
      </trkpt>
      <trkpt lat="42.92067496" lon="13.39636593">
        <ele>708.00000</ele>
        <time>2024-05-10T20:35:31Z</time>
      </trkpt>
      <trkpt lat="42.92067093" lon="13.39634195">
        <ele>708.00000</ele>
        <time>2024-05-10T20:35:32Z</time>
      </trkpt>
      <trkpt lat="42.92066892" lon="13.39631899">
        <ele>708.00000</ele>
        <time>2024-05-10T20:35:32Z</time>
      </trkpt>
      <trkpt lat="42.92066398" lon="13.39629493">
        <ele>708.00000</ele>
        <time>2024-05-10T20:35:32Z</time>
      </trkpt>
      <trkpt lat="42.92066096" lon="13.39626895">
        <ele>708.00000</ele>
        <time>2024-05-10T20:35:33Z</time>
      </trkpt>
      <trkpt lat="42.92065693" lon="13.39624799">
        <ele>708.00000</ele>
        <time>2024-05-10T20:35:33Z</time>
      </trkpt>
      <trkpt lat="42.92064495" lon="13.39622897">
        <ele>708.00000</ele>
        <time>2024-05-10T20:35:33Z</time>
      </trkpt>
      <trkpt lat="42.92063296" lon="13.39620893">
        <ele>709.00000</ele>
        <time>2024-05-10T20:35:34Z</time>
      </trkpt>
      <trkpt lat="42.92062894" lon="13.39618496">
        <ele>709.00000</ele>
        <time>2024-05-10T20:35:34Z</time>
      </trkpt>
      <trkpt lat="42.92062492" lon="13.39616199">
        <ele>709.00000</ele>
        <time>2024-05-10T20:35:35Z</time>
      </trkpt>
      <trkpt lat="42.92061695" lon="13.39613894">
        <ele>709.00000</ele>
        <time>2024-05-10T20:35:35Z</time>
      </trkpt>
      <trkpt lat="42.92061192" lon="13.39611397">
        <ele>709.00000</ele>
        <time>2024-05-10T20:35:35Z</time>
      </trkpt>
      <trkpt lat="42.92060497" lon="13.39609293">
        <ele>709.00000</ele>
        <time>2024-05-10T20:35:36Z</time>
      </trkpt>
      <trkpt lat="42.92059692" lon="13.39606896">
        <ele>710.00000</ele>
        <time>2024-05-10T20:35:36Z</time>
      </trkpt>
      <trkpt lat="42.92058795" lon="13.39604498">
        <ele>710.00000</ele>
        <time>2024-05-10T20:35:36Z</time>
      </trkpt>
      <trkpt lat="42.92057999" lon="13.39602294">
        <ele>710.00000</ele>
        <time>2024-05-10T20:35:37Z</time>
      </trkpt>
      <trkpt lat="42.92057094" lon="13.39599997">
        <ele>710.00000</ele>
        <time>2024-05-10T20:35:37Z</time>
      </trkpt>
      <trkpt lat="42.92055996" lon="13.39597994">
        <ele>711.00000</ele>
        <time>2024-05-10T20:35:37Z</time>
      </trkpt>
      <trkpt lat="42.92054797" lon="13.39595999">
        <ele>711.00000</ele>
        <time>2024-05-10T20:35:38Z</time>
      </trkpt>
      <trkpt lat="42.92053992" lon="13.39593694">
        <ele>711.00000</ele>
        <time>2024-05-10T20:35:38Z</time>
      </trkpt>
      <trkpt lat="42.92052995" lon="13.39591196">
        <ele>711.00000</ele>
        <time>2024-05-10T20:35:39Z</time>
      </trkpt>
      <trkpt lat="42.92052391" lon="13.39588497">
        <ele>711.00000</ele>
        <time>2024-05-10T20:35:39Z</time>
      </trkpt>
      <trkpt lat="42.92051495" lon="13.39586192">
        <ele>711.00000</ele>
        <time>2024-05-10T20:35:39Z</time>
      </trkpt>
      <trkpt lat="42.92050397" lon="13.39583795">
        <ele>712.00000</ele>
        <time>2024-05-10T20:35:40Z</time>
      </trkpt>
      <trkpt lat="42.92049399" lon="13.39581892">
        <ele>711.00000</ele>
        <time>2024-05-10T20:35:40Z</time>
      </trkpt>
      <trkpt lat="42.92048594" lon="13.39580291">
        <ele>711.00000</ele>
        <time>2024-05-10T20:35:41Z</time>
      </trkpt>
      <trkpt lat="42.92047899" lon="13.39578196">
        <ele>711.00000</ele>
        <time>2024-05-10T20:35:41Z</time>
      </trkpt>
      <trkpt lat="42.92046893" lon="13.39576494">
        <ele>711.00000</ele>
        <time>2024-05-10T20:35:41Z</time>
      </trkpt>
      <trkpt lat="42.92045493" lon="13.39575095">
        <ele>711.00000</ele>
        <time>2024-05-10T20:35:42Z</time>
      </trkpt>
      <trkpt lat="42.92043993" lon="13.39573896">
        <ele>711.00000</ele>
        <time>2024-05-10T20:35:42Z</time>
      </trkpt>
      <trkpt lat="42.92042593" lon="13.39572597">
        <ele>711.00000</ele>
        <time>2024-05-10T20:35:42Z</time>
      </trkpt>
      <trkpt lat="42.92041294" lon="13.39570795">
        <ele>711.00000</ele>
        <time>2024-05-10T20:35:43Z</time>
      </trkpt>
      <trkpt lat="42.92040296" lon="13.39568498">
        <ele>711.00000</ele>
        <time>2024-05-10T20:35:43Z</time>
      </trkpt>
      <trkpt lat="42.92039592" lon="13.39566394">
        <ele>711.00000</ele>
        <time>2024-05-10T20:35:43Z</time>
      </trkpt>
      <trkpt lat="42.92038192" lon="13.39564793">
        <ele>711.00000</ele>
        <time>2024-05-10T20:35:44Z</time>
      </trkpt>
      <trkpt lat="42.92036793" lon="13.39562798">
        <ele>711.00000</ele>
        <time>2024-05-10T20:35:44Z</time>
      </trkpt>
      <trkpt lat="42.92035393" lon="13.39561298">
        <ele>712.00000</ele>
        <time>2024-05-10T20:35:44Z</time>
      </trkpt>
      <trkpt lat="42.92033893" lon="13.39559798">
        <ele>712.00000</ele>
        <time>2024-05-10T20:35:45Z</time>
      </trkpt>
      <trkpt lat="42.92032694" lon="13.39558398">
        <ele>713.00000</ele>
        <time>2024-05-10T20:35:45Z</time>
      </trkpt>
      <trkpt lat="42.92031596" lon="13.39556596">
        <ele>713.00000</ele>
        <time>2024-05-10T20:35:45Z</time>
      </trkpt>
      <trkpt lat="42.92030297" lon="13.39554199">
        <ele>713.00000</ele>
        <time>2024-05-10T20:35:46Z</time>
      </trkpt>
      <trkpt lat="42.92028897" lon="13.39552195">
        <ele>714.00000</ele>
        <time>2024-05-10T20:35:46Z</time>
      </trkpt>
      <trkpt lat="42.92027397" lon="13.39550896">
        <ele>714.00000</ele>
        <time>2024-05-10T20:35:47Z</time>
      </trkpt>
      <trkpt lat="42.92025695" lon="13.39549094">
        <ele>715.00000</ele>
        <time>2024-05-10T20:35:47Z</time>
      </trkpt>
      <trkpt lat="42.92024496" lon="13.39547191">
        <ele>715.00000</ele>
        <time>2024-05-10T20:35:47Z</time>
      </trkpt>
      <trkpt lat="42.92022996" lon="13.39545398">
        <ele>715.00000</ele>
        <time>2024-05-10T20:35:48Z</time>
      </trkpt>
      <trkpt lat="42.92021295" lon="13.39543595">
        <ele>716.00000</ele>
        <time>2024-05-10T20:35:48Z</time>
      </trkpt>
      <trkpt lat="42.92019694" lon="13.39541399">
        <ele>716.00000</ele>
        <time>2024-05-10T20:35:49Z</time>
      </trkpt>
      <trkpt lat="42.92017992" lon="13.39539497">
        <ele>716.00000</ele>
        <time>2024-05-10T20:35:49Z</time>
      </trkpt>
      <trkpt lat="42.92016299" lon="13.39537292">
        <ele>717.00000</ele>
        <time>2024-05-10T20:35:50Z</time>
      </trkpt>
      <trkpt lat="42.92014899" lon="13.39534493">
        <ele>717.00000</ele>
        <time>2024-05-10T20:35:50Z</time>
      </trkpt>
      <trkpt lat="42.92012896" lon="13.39532397">
        <ele>717.00000</ele>
        <time>2024-05-10T20:35:51Z</time>
      </trkpt>
      <trkpt lat="42.92010993" lon="13.39530193">
        <ele>718.00000</ele>
        <time>2024-05-10T20:35:51Z</time>
      </trkpt>
      <trkpt lat="42.92009392" lon="13.39528298">
        <ele>718.00000</ele>
        <time>2024-05-10T20:35:52Z</time>
      </trkpt>
      <trkpt lat="42.92007599" lon="13.39526195">
        <ele>718.00000</ele>
        <time>2024-05-10T20:35:52Z</time>
      </trkpt>
      <trkpt lat="42.92005897" lon="13.39523999">
        <ele>718.00000</ele>
        <time>2024-05-10T20:35:53Z</time>
      </trkpt>
      <trkpt lat="42.92004195" lon="13.39521895">
        <ele>718.00000</ele>
        <time>2024-05-10T20:35:53Z</time>
      </trkpt>
      <trkpt lat="42.92002595" lon="13.39519992">
        <ele>719.00000</ele>
        <time>2024-05-10T20:35:53Z</time>
      </trkpt>
      <trkpt lat="42.92001094" lon="13.39518492">
        <ele>719.00000</ele>
        <time>2024-05-10T20:35:54Z</time>
      </trkpt>
      <trkpt lat="42.91999694" lon="13.39516899">
        <ele>719.00000</ele>
        <time>2024-05-10T20:35:54Z</time>
      </trkpt>
      <trkpt lat="42.91998496" lon="13.39515097">
        <ele>719.00000</ele>
        <time>2024-05-10T20:35:54Z</time>
      </trkpt>
      <trkpt lat="42.91996895" lon="13.39513395">
        <ele>719.00000</ele>
        <time>2024-05-10T20:35:55Z</time>
      </trkpt>
      <trkpt lat="42.91994992" lon="13.39511895">
        <ele>719.00000</ele>
        <time>2024-05-10T20:35:55Z</time>
      </trkpt>
      <trkpt lat="42.91993299" lon="13.39510797">
        <ele>719.00000</ele>
        <time>2024-05-10T20:35:56Z</time>
      </trkpt>
      <trkpt lat="42.91991396" lon="13.39509196">
        <ele>719.00000</ele>
        <time>2024-05-10T20:35:56Z</time>
      </trkpt>
      <trkpt lat="42.91989594" lon="13.39507796">
        <ele>720.00000</ele>
        <time>2024-05-10T20:35:57Z</time>
      </trkpt>
      <trkpt lat="42.91987792" lon="13.39506497">
        <ele>720.00000</ele>
        <time>2024-05-10T20:35:57Z</time>
      </trkpt>
      <trkpt lat="42.91986099" lon="13.39505399">
        <ele>720.00000</ele>
        <time>2024-05-10T20:35:57Z</time>
      </trkpt>
      <trkpt lat="42.91984498" lon="13.39503597">
        <ele>720.00000</ele>
        <time>2024-05-10T20:35:58Z</time>
      </trkpt>
      <trkpt lat="42.91982595" lon="13.39501996">
        <ele>720.00000</ele>
        <time>2024-05-10T20:35:58Z</time>
      </trkpt>
      <trkpt lat="42.91980491" lon="13.39500395">
        <ele>720.00000</ele>
        <time>2024-05-10T20:35:59Z</time>
      </trkpt>
      <trkpt lat="42.91978295" lon="13.39498995">
        <ele>720.00000</ele>
        <time>2024-05-10T20:35:59Z</time>
      </trkpt>
      <trkpt lat="42.91976694" lon="13.39497294">
        <ele>720.00000</ele>
        <time>2024-05-10T20:36:00Z</time>
      </trkpt>
      <trkpt lat="42.91974892" lon="13.39495995">
        <ele>720.00000</ele>
        <time>2024-05-10T20:36:00Z</time>
      </trkpt>
      <trkpt lat="42.91972998" lon="13.39494897">
        <ele>720.00000</ele>
        <time>2024-05-10T20:36:00Z</time>
      </trkpt>
      <trkpt lat="42.91971095" lon="13.39493094">
        <ele>720.00000</ele>
        <time>2024-05-10T20:36:01Z</time>
      </trkpt>
      <trkpt lat="42.91969595" lon="13.39490898">
        <ele>720.00000</ele>
        <time>2024-05-10T20:36:01Z</time>
      </trkpt>
      <trkpt lat="42.91967793" lon="13.39488392">
        <ele>720.00000</ele>
        <time>2024-05-10T20:36:02Z</time>
      </trkpt>
      <trkpt lat="42.91965999" lon="13.39486498">
        <ele>720.00000</ele>
        <time>2024-05-10T20:36:02Z</time>
      </trkpt>
      <trkpt lat="42.91964096" lon="13.39483899">
        <ele>720.00000</ele>
        <time>2024-05-10T20:36:03Z</time>
      </trkpt>
      <trkpt lat="42.91961993" lon="13.39481695">
        <ele>720.00000</ele>
        <time>2024-05-10T20:36:03Z</time>
      </trkpt>
      <trkpt lat="42.91960098" lon="13.39479893">
        <ele>720.00000</ele>
        <time>2024-05-10T20:36:04Z</time>
      </trkpt>
      <trkpt lat="42.91957894" lon="13.39477395">
        <ele>720.00000</ele>
        <time>2024-05-10T20:36:04Z</time>
      </trkpt>
      <trkpt lat="42.91954893" lon="13.39475098">
        <ele>721.00000</ele>
        <time>2024-05-10T20:36:05Z</time>
      </trkpt>
      <trkpt lat="42.91951498" lon="13.39473196">
        <ele>721.00000</ele>
        <time>2024-05-10T20:36:06Z</time>
      </trkpt>
      <trkpt lat="42.91948397" lon="13.39471494">
        <ele>722.00000</ele>
        <time>2024-05-10T20:36:06Z</time>
      </trkpt>
      <trkpt lat="42.91945396" lon="13.39470497">
        <ele>722.00000</ele>
        <time>2024-05-10T20:36:07Z</time>
      </trkpt>
      <trkpt lat="42.91943192" lon="13.39469499">
        <ele>722.00000</ele>
        <time>2024-05-10T20:36:08Z</time>
      </trkpt>
      <trkpt lat="42.91940694" lon="13.39468494">
        <ele>722.00000</ele>
        <time>2024-05-10T20:36:08Z</time>
      </trkpt>
      <trkpt lat="42.91938297" lon="13.39468494">
        <ele>723.00000</ele>
        <time>2024-05-10T20:36:09Z</time>
      </trkpt>
      <trkpt lat="42.91935992" lon="13.39468494">
        <ele>723.00000</ele>
        <time>2024-05-10T20:36:09Z</time>
      </trkpt>
      <trkpt lat="42.91933595" lon="13.39468795">
        <ele>723.00000</ele>
        <time>2024-05-10T20:36:09Z</time>
      </trkpt>
      <trkpt lat="42.91931097" lon="13.39468594">
        <ele>724.00000</ele>
        <time>2024-05-10T20:36:10Z</time>
      </trkpt>
      <trkpt lat="42.91928599" lon="13.39468594">
        <ele>724.00000</ele>
        <time>2024-05-10T20:36:10Z</time>
      </trkpt>
      <trkpt lat="42.91925892" lon="13.39468292">
        <ele>724.00000</ele>
        <time>2024-05-10T20:36:11Z</time>
      </trkpt>
      <trkpt lat="42.91922799" lon="13.39468896">
        <ele>725.00000</ele>
        <time>2024-05-10T20:36:12Z</time>
      </trkpt>
      <trkpt lat="42.91919496" lon="13.39469399">
        <ele>726.00000</ele>
        <time>2024-05-10T20:36:12Z</time>
      </trkpt>
      <trkpt lat="42.91915892" lon="13.39470497">
        <ele>726.00000</ele>
        <time>2024-05-10T20:36:13Z</time>
      </trkpt>
      <trkpt lat="42.91911894" lon="13.39471897">
        <ele>726.00000</ele>
        <time>2024-05-10T20:36:14Z</time>
      </trkpt>
      <trkpt lat="42.91907292" lon="13.39473498">
        <ele>726.00000</ele>
        <time>2024-05-10T20:36:15Z</time>
      </trkpt>
      <trkpt lat="42.91902598" lon="13.39474998">
        <ele>726.00000</ele>
        <time>2024-05-10T20:36:16Z</time>
      </trkpt>
      <trkpt lat="42.91897594" lon="13.39476498">
        <ele>725.00000</ele>
        <time>2024-05-10T20:36:17Z</time>
      </trkpt>
      <trkpt lat="42.91892196" lon="13.39478493">
        <ele>725.00000</ele>
        <time>2024-05-10T20:36:18Z</time>
      </trkpt>
      <trkpt lat="42.91886597" lon="13.39480597">
        <ele>724.00000</ele>
        <time>2024-05-10T20:36:19Z</time>
      </trkpt>
      <trkpt lat="42.91880998" lon="13.39483296">
        <ele>724.00000</ele>
        <time>2024-05-10T20:36:20Z</time>
      </trkpt>
      <trkpt lat="42.91875097" lon="13.39485995">
        <ele>723.00000</ele>
        <time>2024-05-10T20:36:22Z</time>
      </trkpt>
      <trkpt lat="42.91868995" lon="13.39489792">
        <ele>723.00000</ele>
        <time>2024-05-10T20:36:23Z</time>
      </trkpt>
      <trkpt lat="42.91862793" lon="13.39493094">
        <ele>722.00000</ele>
        <time>2024-05-10T20:36:24Z</time>
      </trkpt>
      <trkpt lat="42.91856498" lon="13.39496799">
        <ele>722.00000</ele>
        <time>2024-05-10T20:36:26Z</time>
      </trkpt>
      <trkpt lat="42.91849792" lon="13.39499599">
        <ele>723.00000</ele>
        <time>2024-05-10T20:36:27Z</time>
      </trkpt>
      <trkpt lat="42.91842794" lon="13.39501393">
        <ele>723.00000</ele>
        <time>2024-05-10T20:36:28Z</time>
      </trkpt>
      <trkpt lat="42.91836096" lon="13.39501292">
        <ele>723.00000</ele>
        <time>2024-05-10T20:36:30Z</time>
      </trkpt>
      <trkpt lat="42.91829894" lon="13.39499699">
        <ele>724.00000</ele>
        <time>2024-05-10T20:36:31Z</time>
      </trkpt>
      <trkpt lat="42.91823792" lon="13.39496891">
        <ele>724.00000</ele>
        <time>2024-05-10T20:36:32Z</time>
      </trkpt>
      <trkpt lat="42.91817991" lon="13.39493799">
        <ele>723.00000</ele>
        <time>2024-05-10T20:36:34Z</time>
      </trkpt>
      <trkpt lat="42.91812191" lon="13.39491091">
        <ele>723.00000</ele>
        <time>2024-05-10T20:36:35Z</time>
      </trkpt>
      <trkpt lat="42.91806492" lon="13.39488593">
        <ele>722.00000</ele>
        <time>2024-05-10T20:36:36Z</time>
      </trkpt>
      <trkpt lat="42.91801194" lon="13.39486397">
        <ele>721.00000</ele>
        <time>2024-05-10T20:36:37Z</time>
      </trkpt>
      <trkpt lat="42.91795796" lon="13.39484897">
        <ele>721.00000</ele>
        <time>2024-05-10T20:36:38Z</time>
      </trkpt>
      <trkpt lat="42.91789895" lon="13.39483992">
        <ele>720.00000</ele>
        <time>2024-05-10T20:36:39Z</time>
      </trkpt>
      <trkpt lat="42.91783592" lon="13.39484394">
        <ele>720.00000</ele>
        <time>2024-05-10T20:36:41Z</time>
      </trkpt>
      <trkpt lat="42.91777297" lon="13.39486498">
        <ele>720.00000</ele>
        <time>2024-05-10T20:36:42Z</time>
      </trkpt>
      <trkpt lat="42.91771095" lon="13.39489993">
        <ele>720.00000</ele>
        <time>2024-05-10T20:36:43Z</time>
      </trkpt>
      <trkpt lat="42.91764096" lon="13.39493497">
        <ele>720.00000</ele>
        <time>2024-05-10T20:36:45Z</time>
      </trkpt>
      <trkpt lat="42.91756695" lon="13.39496196">
        <ele>719.00000</ele>
        <time>2024-05-10T20:36:46Z</time>
      </trkpt>
      <trkpt lat="42.91749092" lon="13.39497596">
        <ele>717.00000</ele>
        <time>2024-05-10T20:36:48Z</time>
      </trkpt>
      <trkpt lat="42.91740895" lon="13.39497998">
        <ele>717.00000</ele>
        <time>2024-05-10T20:36:49Z</time>
      </trkpt>
      <trkpt lat="42.91732295" lon="13.39497596">
        <ele>716.00000</ele>
        <time>2024-05-10T20:36:51Z</time>
      </trkpt>
      <trkpt lat="42.91722899" lon="13.39495894">
        <ele>716.00000</ele>
        <time>2024-05-10T20:36:53Z</time>
      </trkpt>
      <trkpt lat="42.91713997" lon="13.39491091">
        <ele>714.00000</ele>
        <time>2024-05-10T20:36:55Z</time>
      </trkpt>
      <trkpt lat="42.91704098" lon="13.39486397">
        <ele>713.00000</ele>
        <time>2024-05-10T20:36:57Z</time>
      </trkpt>
      <trkpt lat="42.91694593" lon="13.39479197">
        <ele>712.00000</ele>
        <time>2024-05-10T20:36:59Z</time>
      </trkpt>
      <trkpt lat="42.91687091" lon="13.39471897">
        <ele>711.00000</ele>
        <time>2024-05-10T20:37:01Z</time>
      </trkpt>
      <trkpt lat="42.91677896" lon="13.39465996">
        <ele>711.00000</ele>
        <time>2024-05-10T20:37:03Z</time>
      </trkpt>
      <trkpt lat="42.91669095" lon="13.39461294">
        <ele>711.00000</ele>
        <time>2024-05-10T20:37:05Z</time>
      </trkpt>
      <trkpt lat="42.91661895" lon="13.39454596">
        <ele>712.00000</ele>
        <time>2024-05-10T20:37:07Z</time>
      </trkpt>
      <trkpt lat="42.91655299" lon="13.39448293">
        <ele>713.00000</ele>
        <time>2024-05-10T20:37:08Z</time>
      </trkpt>
      <trkpt lat="42.91649892" lon="13.39442694">
        <ele>714.00000</ele>
        <time>2024-05-10T20:37:10Z</time>
      </trkpt>
      <trkpt lat="42.91645894" lon="13.39438294">
        <ele>714.00000</ele>
        <time>2024-05-10T20:37:11Z</time>
      </trkpt>
      <trkpt lat="42.91642491" lon="13.39434195">
        <ele>715.00000</ele>
        <time>2024-05-10T20:37:12Z</time>
      </trkpt>
      <trkpt lat="42.91639298" lon="13.39430792">
        <ele>716.00000</ele>
        <time>2024-05-10T20:37:12Z</time>
      </trkpt>
      <trkpt lat="42.91636398" lon="13.39427892">
        <ele>717.00000</ele>
        <time>2024-05-10T20:37:13Z</time>
      </trkpt>
      <trkpt lat="42.91633598" lon="13.39425193">
        <ele>717.00000</ele>
        <time>2024-05-10T20:37:14Z</time>
      </trkpt>
      <trkpt lat="42.91631092" lon="13.39422393">
        <ele>718.00000</ele>
        <time>2024-05-10T20:37:15Z</time>
      </trkpt>
      <trkpt lat="42.91628695" lon="13.39420398">
        <ele>718.00000</ele>
        <time>2024-05-10T20:37:15Z</time>
      </trkpt>
      <trkpt lat="42.91626691" lon="13.39418294">
        <ele>719.00000</ele>
        <time>2024-05-10T20:37:16Z</time>
      </trkpt>
      <trkpt lat="42.91625099" lon="13.39416392">
        <ele>719.00000</ele>
        <time>2024-05-10T20:37:16Z</time>
      </trkpt>
      <trkpt lat="42.91623297" lon="13.39414296">
        <ele>719.00000</ele>
        <time>2024-05-10T20:37:16Z</time>
      </trkpt>
      <trkpt lat="42.91621394" lon="13.39411991">
        <ele>719.00000</ele>
        <time>2024-05-10T20:37:17Z</time>
      </trkpt>
      <trkpt lat="42.91619198" lon="13.39409896">
        <ele>719.00000</ele>
        <time>2024-05-10T20:37:18Z</time>
      </trkpt>
      <trkpt lat="42.91616692" lon="13.39408094">
        <ele>719.00000</ele>
        <time>2024-05-10T20:37:18Z</time>
      </trkpt>
      <trkpt lat="42.91614395" lon="13.39406493">
        <ele>719.00000</ele>
        <time>2024-05-10T20:37:19Z</time>
      </trkpt>
      <trkpt lat="42.91611897" lon="13.39404892">
        <ele>720.00000</ele>
        <time>2024-05-10T20:37:19Z</time>
      </trkpt>
      <trkpt lat="42.91608997" lon="13.39403391">
        <ele>720.00000</ele>
        <time>2024-05-10T20:37:20Z</time>
      </trkpt>
      <trkpt lat="42.91606198" lon="13.39402092">
        <ele>720.00000</ele>
        <time>2024-05-10T20:37:20Z</time>
      </trkpt>
      <trkpt lat="42.91603096" lon="13.39401396">
        <ele>720.00000</ele>
        <time>2024-05-10T20:37:21Z</time>
      </trkpt>
      <trkpt lat="42.91599593" lon="13.39400298">
        <ele>721.00000</ele>
        <time>2024-05-10T20:37:22Z</time>
      </trkpt>
      <trkpt lat="42.91596299" lon="13.39399695">
        <ele>721.00000</ele>
        <time>2024-05-10T20:37:22Z</time>
      </trkpt>
      <trkpt lat="42.91592594" lon="13.39399594">
        <ele>721.00000</ele>
        <time>2024-05-10T20:37:23Z</time>
      </trkpt>
      <trkpt lat="42.91588998" lon="13.39400198">
        <ele>722.00000</ele>
        <time>2024-05-10T20:37:24Z</time>
      </trkpt>
      <trkpt lat="42.91585897" lon="13.39400894">
        <ele>722.00000</ele>
        <time>2024-05-10T20:37:24Z</time>
      </trkpt>
      <trkpt lat="42.91582996" lon="13.39401598">
        <ele>723.00000</ele>
        <time>2024-05-10T20:37:25Z</time>
      </trkpt>
      <trkpt lat="42.91580096" lon="13.39402595">
        <ele>723.00000</ele>
        <time>2024-05-10T20:37:26Z</time>
      </trkpt>
      <trkpt lat="42.91576492" lon="13.39403098">
        <ele>723.00000</ele>
        <time>2024-05-10T20:37:26Z</time>
      </trkpt>
      <trkpt lat="42.91572997" lon="13.39403794">
        <ele>723.00000</ele>
        <time>2024-05-10T20:37:27Z</time>
      </trkpt>
      <trkpt lat="42.91569594" lon="13.39405193">
        <ele>724.00000</ele>
        <time>2024-05-10T20:37:28Z</time>
      </trkpt>
      <trkpt lat="42.91566199" lon="13.39407197">
        <ele>724.00000</ele>
        <time>2024-05-10T20:37:29Z</time>
      </trkpt>
      <trkpt lat="42.91562494" lon="13.39408596">
        <ele>724.00000</ele>
        <time>2024-05-10T20:37:29Z</time>
      </trkpt>
      <trkpt lat="42.91558496" lon="13.39410499">
        <ele>724.00000</ele>
        <time>2024-05-10T20:37:30Z</time>
      </trkpt>
      <trkpt lat="42.91554993" lon="13.39412896">
        <ele>725.00000</ele>
        <time>2024-05-10T20:37:31Z</time>
      </trkpt>
      <trkpt lat="42.91551992" lon="13.39415495">
        <ele>725.00000</ele>
        <time>2024-05-10T20:37:32Z</time>
      </trkpt>
      <trkpt lat="42.91548999" lon="13.39418294">
        <ele>725.00000</ele>
        <time>2024-05-10T20:37:32Z</time>
      </trkpt>
      <trkpt lat="42.91545999" lon="13.39420398">
        <ele>724.00000</ele>
        <time>2024-05-10T20:37:33Z</time>
      </trkpt>
      <trkpt lat="42.91543895" lon="13.39421697">
        <ele>724.00000</ele>
        <time>2024-05-10T20:37:34Z</time>
      </trkpt>
      <trkpt lat="42.91542294" lon="13.39422896">
        <ele>724.00000</ele>
        <time>2024-05-10T20:37:34Z</time>
      </trkpt>
      <trkpt lat="42.91541892" lon="13.39424195">
        <ele>724.00000</ele>
        <time>2024-05-10T20:37:34Z</time>
      </trkpt>
      <trkpt lat="42.91541799" lon="13.39424195">
        <ele>724.00000</ele>
        <time>2024-05-10T20:37:34Z</time>
      </trkpt>
      <trkpt lat="42.91541196" lon="13.39428294">
        <ele>724.00000</ele>
        <time>2024-05-10T20:37:35Z</time>
      </trkpt>
      <trkpt lat="42.91540098" lon="13.39430691">
        <ele>724.00000</ele>
        <time>2024-05-10T20:37:35Z</time>
      </trkpt>
      <trkpt lat="42.91538195" lon="13.39432996">
        <ele>724.00000</ele>
        <time>2024-05-10T20:37:36Z</time>
      </trkpt>
      <trkpt lat="42.91535094" lon="13.39434698">
        <ele>724.00000</ele>
        <time>2024-05-10T20:37:36Z</time>
      </trkpt>
      <trkpt lat="42.91531096" lon="13.39434497">
        <ele>723.00000</ele>
        <time>2024-05-10T20:37:37Z</time>
      </trkpt>
      <trkpt lat="42.91527198" lon="13.39432896">
        <ele>723.00000</ele>
        <time>2024-05-10T20:37:38Z</time>
      </trkpt>
      <trkpt lat="42.91522395" lon="13.39429392">
        <ele>722.00000</ele>
        <time>2024-05-10T20:37:39Z</time>
      </trkpt>
      <trkpt lat="42.91517592" lon="13.39425293">
        <ele>721.00000</ele>
        <time>2024-05-10T20:37:40Z</time>
      </trkpt>
      <trkpt lat="42.91513293" lon="13.39420398">
        <ele>721.00000</ele>
        <time>2024-05-10T20:37:41Z</time>
      </trkpt>
      <trkpt lat="42.91509596" lon="13.39414992">
        <ele>720.00000</ele>
        <time>2024-05-10T20:37:42Z</time>
      </trkpt>
      <trkpt lat="42.91505992" lon="13.39409996">
        <ele>719.00000</ele>
        <time>2024-05-10T20:37:43Z</time>
      </trkpt>
      <trkpt lat="42.91502396" lon="13.39405395">
        <ele>718.00000</ele>
        <time>2024-05-10T20:37:44Z</time>
      </trkpt>
      <trkpt lat="42.91498892" lon="13.39401598">
        <ele>717.00000</ele>
        <time>2024-05-10T20:37:45Z</time>
      </trkpt>
      <trkpt lat="42.91495095" lon="13.39397499">
        <ele>716.00000</ele>
        <time>2024-05-10T20:37:46Z</time>
      </trkpt>
      <trkpt lat="42.91490896" lon="13.39393995">
        <ele>716.00000</ele>
        <time>2024-05-10T20:37:47Z</time>
      </trkpt>
      <trkpt lat="42.91486194" lon="13.39390894">
        <ele>715.00000</ele>
        <time>2024-05-10T20:37:48Z</time>
      </trkpt>
      <trkpt lat="42.91481793" lon="13.39387893">
        <ele>715.00000</ele>
        <time>2024-05-10T20:37:49Z</time>
      </trkpt>
      <trkpt lat="42.91477795" lon="13.39384892">
        <ele>714.00000</ele>
        <time>2024-05-10T20:37:50Z</time>
      </trkpt>
      <trkpt lat="42.91473495" lon="13.39381598">
        <ele>713.00000</ele>
        <time>2024-05-10T20:37:51Z</time>
      </trkpt>
      <trkpt lat="42.91469296" lon="13.39378598">
        <ele>712.00000</ele>
        <time>2024-05-10T20:37:52Z</time>
      </trkpt>
      <trkpt lat="42.91464694" lon="13.39374792">
        <ele>712.00000</ele>
        <time>2024-05-10T20:37:53Z</time>
      </trkpt>
      <trkpt lat="42.91460294" lon="13.39370995">
        <ele>711.00000</ele>
        <time>2024-05-10T20:37:54Z</time>
      </trkpt>
      <trkpt lat="42.91455994" lon="13.39367399">
        <ele>711.00000</ele>
        <time>2024-05-10T20:37:55Z</time>
      </trkpt>
      <trkpt lat="42.91451292" lon="13.39364298">
        <ele>711.00000</ele>
        <time>2024-05-10T20:37:56Z</time>
      </trkpt>
      <trkpt lat="42.91446497" lon="13.39361096">
        <ele>711.00000</ele>
        <time>2024-05-10T20:37:57Z</time>
      </trkpt>
      <trkpt lat="42.91441795" lon="13.39358196">
        <ele>711.00000</ele>
        <time>2024-05-10T20:37:58Z</time>
      </trkpt>
      <trkpt lat="42.91436799" lon="13.39355095">
        <ele>712.00000</ele>
        <time>2024-05-10T20:37:59Z</time>
      </trkpt>
      <trkpt lat="42.91431594" lon="13.39352094">
        <ele>713.00000</ele>
        <time>2024-05-10T20:38:01Z</time>
      </trkpt>
      <trkpt lat="42.91426196" lon="13.39348498">
        <ele>714.00000</ele>
        <time>2024-05-10T20:38:02Z</time>
      </trkpt>
      <trkpt lat="42.91420999" lon="13.39344592">
        <ele>715.00000</ele>
        <time>2024-05-10T20:38:03Z</time>
      </trkpt>
      <trkpt lat="42.91415199" lon="13.39339798">
        <ele>716.00000</ele>
        <time>2024-05-10T20:38:04Z</time>
      </trkpt>
      <trkpt lat="42.91409097" lon="13.39334995">
        <ele>716.00000</ele>
        <time>2024-05-10T20:38:06Z</time>
      </trkpt>
      <trkpt lat="42.91402995" lon="13.39328692">
        <ele>715.00000</ele>
        <time>2024-05-10T20:38:07Z</time>
      </trkpt>
      <trkpt lat="42.91396893" lon="13.39321995">
        <ele>714.00000</ele>
        <time>2024-05-10T20:38:09Z</time>
      </trkpt>
      <trkpt lat="42.91390397" lon="13.39315298">
        <ele>713.00000</ele>
        <time>2024-05-10T20:38:10Z</time>
      </trkpt>
      <trkpt lat="42.91382895" lon="13.39309698">
        <ele>713.00000</ele>
        <time>2024-05-10T20:38:12Z</time>
      </trkpt>
      <trkpt lat="42.91374991" lon="13.39305097">
        <ele>712.00000</ele>
        <time>2024-05-10T20:38:14Z</time>
      </trkpt>
      <trkpt lat="42.91366693" lon="13.39300696">
        <ele>712.00000</ele>
        <time>2024-05-10T20:38:16Z</time>
      </trkpt>
      <trkpt lat="42.91358596" lon="13.39297696">
        <ele>712.00000</ele>
        <time>2024-05-10T20:38:17Z</time>
      </trkpt>
      <trkpt lat="42.91350298" lon="13.39296799">
        <ele>711.00000</ele>
        <time>2024-05-10T20:38:19Z</time>
      </trkpt>
      <trkpt lat="42.91342092" lon="13.39297897">
        <ele>711.00000</ele>
        <time>2024-05-10T20:38:21Z</time>
      </trkpt>
      <trkpt lat="42.91334498" lon="13.39300998">
        <ele>712.00000</ele>
        <time>2024-05-10T20:38:22Z</time>
      </trkpt>
      <trkpt lat="42.91327793" lon="13.39304292">
        <ele>711.00000</ele>
        <time>2024-05-10T20:38:24Z</time>
      </trkpt>
      <trkpt lat="42.91321498" lon="13.39308299">
        <ele>709.00000</ele>
        <time>2024-05-10T20:38:25Z</time>
      </trkpt>
      <trkpt lat="42.91316796" lon="13.39311894">
        <ele>708.00000</ele>
        <time>2024-05-10T20:38:26Z</time>
      </trkpt>
      <trkpt lat="42.91312395" lon="13.39314694">
        <ele>706.00000</ele>
        <time>2024-05-10T20:38:27Z</time>
      </trkpt>
      <trkpt lat="42.91308498" lon="13.39315499">
        <ele>705.00000</ele>
        <time>2024-05-10T20:38:28Z</time>
      </trkpt>
      <trkpt lat="42.91304592" lon="13.39313495">
        <ele>704.00000</ele>
        <time>2024-05-10T20:38:29Z</time>
      </trkpt>
      <trkpt lat="42.91301993" lon="13.39308693">
        <ele>703.00000</ele>
        <time>2024-05-10T20:38:30Z</time>
      </trkpt>
      <trkpt lat="42.91301197" lon="13.39302599">
        <ele>703.00000</ele>
        <time>2024-05-10T20:38:31Z</time>
      </trkpt>
      <trkpt lat="42.91300199" lon="13.39295298">
        <ele>703.00000</ele>
        <time>2024-05-10T20:38:32Z</time>
      </trkpt>
      <trkpt lat="42.91298498" lon="13.39288098">
        <ele>703.00000</ele>
        <time>2024-05-10T20:38:33Z</time>
      </trkpt>
      <trkpt lat="42.91295497" lon="13.39280496">
        <ele>703.00000</ele>
        <time>2024-05-10T20:38:34Z</time>
      </trkpt>
      <trkpt lat="42.91291591" lon="13.39273598">
        <ele>703.00000</ele>
        <time>2024-05-10T20:38:35Z</time>
      </trkpt>
      <trkpt lat="42.91286596" lon="13.39266791">
        <ele>703.00000</ele>
        <time>2024-05-10T20:38:37Z</time>
      </trkpt>
      <trkpt lat="42.91281499" lon="13.39260295">
        <ele>703.00000</ele>
        <time>2024-05-10T20:38:38Z</time>
      </trkpt>
      <trkpt lat="42.91274894" lon="13.39254093">
        <ele>703.00000</ele>
        <time>2024-05-10T20:38:40Z</time>
      </trkpt>
      <trkpt lat="42.91267393" lon="13.39248594">
        <ele>703.00000</ele>
        <time>2024-05-10T20:38:41Z</time>
      </trkpt>
      <trkpt lat="42.91259095" lon="13.39244194">
        <ele>702.00000</ele>
        <time>2024-05-10T20:38:43Z</time>
      </trkpt>
      <trkpt lat="42.91250595" lon="13.39238796">
        <ele>701.00000</ele>
        <time>2024-05-10T20:38:45Z</time>
      </trkpt>
      <trkpt lat="42.91242197" lon="13.39232794">
        <ele>700.00000</ele>
        <time>2024-05-10T20:38:47Z</time>
      </trkpt>
      <trkpt lat="42.91233899" lon="13.39225393">
        <ele>699.00000</ele>
        <time>2024-05-10T20:38:49Z</time>
      </trkpt>
      <trkpt lat="42.91225592" lon="13.39217497">
        <ele>699.00000</ele>
        <time>2024-05-10T20:38:51Z</time>
      </trkpt>
      <trkpt lat="42.91217495" lon="13.39209292">
        <ele>697.00000</ele>
        <time>2024-05-10T20:38:53Z</time>
      </trkpt>
      <trkpt lat="42.91209893" lon="13.39201094">
        <ele>696.00000</ele>
        <time>2024-05-10T20:38:55Z</time>
      </trkpt>
      <trkpt lat="42.91201997" lon="13.39192695">
        <ele>695.00000</ele>
        <time>2024-05-10T20:38:57Z</time>
      </trkpt>
      <trkpt lat="42.91194093" lon="13.39185093">
        <ele>695.00000</ele>
        <time>2024-05-10T20:38:59Z</time>
      </trkpt>
      <trkpt lat="42.91186298" lon="13.39178094">
        <ele>696.00000</ele>
        <time>2024-05-10T20:39:01Z</time>
      </trkpt>
      <trkpt lat="42.91178192" lon="13.39172093">
        <ele>697.00000</ele>
        <time>2024-05-10T20:39:03Z</time>
      </trkpt>
      <trkpt lat="42.91170196" lon="13.39166292">
        <ele>698.00000</ele>
        <time>2024-05-10T20:39:04Z</time>
      </trkpt>
      <trkpt lat="42.91163398" lon="13.39160995">
        <ele>698.00000</ele>
        <time>2024-05-10T20:39:06Z</time>
      </trkpt>
      <trkpt lat="42.91157699" lon="13.39154692">
        <ele>700.00000</ele>
        <time>2024-05-10T20:39:07Z</time>
      </trkpt>
      <trkpt lat="42.91153893" lon="13.39146997">
        <ele>701.00000</ele>
        <time>2024-05-10T20:39:09Z</time>
      </trkpt>
      <trkpt lat="42.91152594" lon="13.39138699">
        <ele>702.00000</ele>
        <time>2024-05-10T20:39:10Z</time>
      </trkpt>
      <trkpt lat="42.91153499" lon="13.39131399">
        <ele>703.00000</ele>
        <time>2024-05-10T20:39:11Z</time>
      </trkpt>
      <trkpt lat="42.91154296" lon="13.39125799">
        <ele>704.00000</ele>
        <time>2024-05-10T20:39:12Z</time>
      </trkpt>
      <trkpt lat="42.91155394" lon="13.39120795">
        <ele>705.00000</ele>
        <time>2024-05-10T20:39:13Z</time>
      </trkpt>
      <trkpt lat="42.91156399" lon="13.39116697">
        <ele>706.00000</ele>
        <time>2024-05-10T20:39:13Z</time>
      </trkpt>
      <trkpt lat="42.91157296" lon="13.39112699">
        <ele>706.00000</ele>
        <time>2024-05-10T20:39:14Z</time>
      </trkpt>
      <trkpt lat="42.91158193" lon="13.39109497">
        <ele>707.00000</ele>
        <time>2024-05-10T20:39:14Z</time>
      </trkpt>
      <trkpt lat="42.91159392" lon="13.39105993">
        <ele>708.00000</ele>
        <time>2024-05-10T20:39:15Z</time>
      </trkpt>
      <trkpt lat="42.91160498" lon="13.39103093">
        <ele>708.00000</ele>
        <time>2024-05-10T20:39:16Z</time>
      </trkpt>
      <trkpt lat="42.91161898" lon="13.39100092">
        <ele>709.00000</ele>
        <time>2024-05-10T20:39:16Z</time>
      </trkpt>
      <trkpt lat="42.91163298" lon="13.39097192">
        <ele>709.00000</ele>
        <time>2024-05-10T20:39:17Z</time>
      </trkpt>
      <trkpt lat="42.91164496" lon="13.39094694">
        <ele>710.00000</ele>
        <time>2024-05-10T20:39:17Z</time>
      </trkpt>
      <trkpt lat="42.91165896" lon="13.39092297">
        <ele>711.00000</ele>
        <time>2024-05-10T20:39:17Z</time>
      </trkpt>
      <trkpt lat="42.91167296" lon="13.39089296">
        <ele>711.00000</ele>
        <time>2024-05-10T20:39:18Z</time>
      </trkpt>
      <trkpt lat="42.91168495" lon="13.39087394">
        <ele>712.00000</ele>
        <time>2024-05-10T20:39:18Z</time>
      </trkpt>
      <trkpt lat="42.91169794" lon="13.39086296">
        <ele>712.00000</ele>
        <time>2024-05-10T20:39:19Z</time>
      </trkpt>
      <trkpt lat="42.91170892" lon="13.39084996">
        <ele>712.00000</ele>
        <time>2024-05-10T20:39:19Z</time>
      </trkpt>
      <trkpt lat="42.91171998" lon="13.39083295">
        <ele>713.00000</ele>
        <time>2024-05-10T20:39:19Z</time>
      </trkpt>
      <trkpt lat="42.91172996" lon="13.39081593">
        <ele>713.00000</ele>
        <time>2024-05-10T20:39:20Z</time>
      </trkpt>
      <trkpt lat="42.91174697" lon="13.39080194">
        <ele>713.00000</ele>
        <time>2024-05-10T20:39:20Z</time>
      </trkpt>
      <trkpt lat="42.91176298" lon="13.39078794">
        <ele>713.00000</ele>
        <time>2024-05-10T20:39:20Z</time>
      </trkpt>
      <trkpt lat="42.91177698" lon="13.39077897">
        <ele>714.00000</ele>
        <time>2024-05-10T20:39:21Z</time>
      </trkpt>
      <trkpt lat="42.91179299" lon="13.39076992">
        <ele>714.00000</ele>
        <time>2024-05-10T20:39:21Z</time>
      </trkpt>
      <trkpt lat="42.91180598" lon="13.39075793">
        <ele>714.00000</ele>
        <time>2024-05-10T20:39:21Z</time>
      </trkpt>
      <trkpt lat="42.91181998" lon="13.39074796">
        <ele>714.00000</ele>
        <time>2024-05-10T20:39:22Z</time>
      </trkpt>
      <trkpt lat="42.91183599" lon="13.39073698">
        <ele>714.00000</ele>
        <time>2024-05-10T20:39:22Z</time>
      </trkpt>
      <trkpt lat="42.91184999" lon="13.39072893">
        <ele>715.00000</ele>
        <time>2024-05-10T20:39:22Z</time>
      </trkpt>
      <trkpt lat="42.91186398" lon="13.39072298">
        <ele>715.00000</ele>
        <time>2024-05-10T20:39:23Z</time>
      </trkpt>
      <trkpt lat="42.91187999" lon="13.39071493">
        <ele>715.00000</ele>
        <time>2024-05-10T20:39:23Z</time>
      </trkpt>
      <trkpt lat="42.91189592" lon="13.39070294">
        <ele>715.00000</ele>
        <time>2024-05-10T20:39:23Z</time>
      </trkpt>
      <trkpt lat="42.91190899" lon="13.39068995">
        <ele>716.00000</ele>
        <time>2024-05-10T20:39:24Z</time>
      </trkpt>
      <trkpt lat="42.91192199" lon="13.39067797">
        <ele>716.00000</ele>
        <time>2024-05-10T20:39:24Z</time>
      </trkpt>
      <trkpt lat="42.91193892" lon="13.39066799">
        <ele>716.00000</ele>
        <time>2024-05-10T20:39:24Z</time>
      </trkpt>
      <trkpt lat="42.91195694" lon="13.39065894">
        <ele>716.00000</ele>
        <time>2024-05-10T20:39:25Z</time>
      </trkpt>
      <trkpt lat="42.91197295" lon="13.39065299">
        <ele>716.00000</ele>
        <time>2024-05-10T20:39:25Z</time>
      </trkpt>
      <trkpt lat="42.91198996" lon="13.39064494">
        <ele>716.00000</ele>
        <time>2024-05-10T20:39:25Z</time>
      </trkpt>
      <trkpt lat="42.91200798" lon="13.39064092">
        <ele>716.00000</ele>
        <time>2024-05-10T20:39:26Z</time>
      </trkpt>
      <trkpt lat="42.91202592" lon="13.39063296">
        <ele>716.00000</ele>
        <time>2024-05-10T20:39:26Z</time>
      </trkpt>
      <trkpt lat="42.91204193" lon="13.39062692">
        <ele>717.00000</ele>
        <time>2024-05-10T20:39:26Z</time>
      </trkpt>
      <trkpt lat="42.91205693" lon="13.39062592">
        <ele>716.00000</ele>
        <time>2024-05-10T20:39:27Z</time>
      </trkpt>
      <trkpt lat="42.91207596" lon="13.39061896">
        <ele>717.00000</ele>
        <time>2024-05-10T20:39:27Z</time>
      </trkpt>
      <trkpt lat="42.91209097" lon="13.39061695">
        <ele>717.00000</ele>
        <time>2024-05-10T20:39:27Z</time>
      </trkpt>
      <trkpt lat="42.91211091" lon="13.39061493">
        <ele>717.00000</ele>
        <time>2024-05-10T20:39:28Z</time>
      </trkpt>
      <trkpt lat="42.91212592" lon="13.39060697">
        <ele>717.00000</ele>
        <time>2024-05-10T20:39:28Z</time>
      </trkpt>
      <trkpt lat="42.91214092" lon="13.39060496">
        <ele>717.00000</ele>
        <time>2024-05-10T20:39:28Z</time>
      </trkpt>
      <trkpt lat="42.91215492" lon="13.39060194">
        <ele>717.00000</ele>
        <time>2024-05-10T20:39:29Z</time>
      </trkpt>
      <trkpt lat="42.91216892" lon="13.39059398">
        <ele>717.00000</ele>
        <time>2024-05-10T20:39:29Z</time>
      </trkpt>
      <trkpt lat="42.91218493" lon="13.39058593">
        <ele>717.00000</ele>
        <time>2024-05-10T20:39:29Z</time>
      </trkpt>
      <trkpt lat="42.91219892" lon="13.39057696">
        <ele>717.00000</ele>
        <time>2024-05-10T20:39:30Z</time>
      </trkpt>
      <trkpt lat="42.91221594" lon="13.39057395">
        <ele>717.00000</ele>
        <time>2024-05-10T20:39:30Z</time>
      </trkpt>
      <trkpt lat="42.91223195" lon="13.39056699">
        <ele>717.00000</ele>
        <time>2024-05-10T20:39:30Z</time>
      </trkpt>
      <trkpt lat="42.91224896" lon="13.39055894">
        <ele>718.00000</ele>
        <time>2024-05-10T20:39:31Z</time>
      </trkpt>
      <trkpt lat="42.91226598" lon="13.39055593">
        <ele>718.00000</ele>
        <time>2024-05-10T20:39:31Z</time>
      </trkpt>
      <trkpt lat="42.91228392" lon="13.39055098">
        <ele>718.00000</ele>
        <time>2024-05-10T20:39:31Z</time>
      </trkpt>
      <trkpt lat="42.91230093" lon="13.39053992">
        <ele>718.00000</ele>
        <time>2024-05-10T20:39:32Z</time>
      </trkpt>
      <trkpt lat="42.91231392" lon="13.39053095">
        <ele>719.00000</ele>
        <time>2024-05-10T20:39:32Z</time>
      </trkpt>
      <trkpt lat="42.91232893" lon="13.39052299">
        <ele>719.00000</ele>
        <time>2024-05-10T20:39:32Z</time>
      </trkpt>
      <trkpt lat="42.91234393" lon="13.39051393">
        <ele>719.00000</ele>
        <time>2024-05-10T20:39:33Z</time>
      </trkpt>
      <trkpt lat="42.91235994" lon="13.39050195">
        <ele>720.00000</ele>
        <time>2024-05-10T20:39:33Z</time>
      </trkpt>
      <trkpt lat="42.91237595" lon="13.39049197">
        <ele>720.00000</ele>
        <time>2024-05-10T20:39:33Z</time>
      </trkpt>
      <trkpt lat="42.91239397" lon="13.39047999">
        <ele>720.00000</ele>
        <time>2024-05-10T20:39:34Z</time>
      </trkpt>
      <trkpt lat="42.91241099" lon="13.39047194">
        <ele>721.00000</ele>
        <time>2024-05-10T20:39:34Z</time>
      </trkpt>
      <trkpt lat="42.91242792" lon="13.39046197">
        <ele>721.00000</ele>
        <time>2024-05-10T20:39:35Z</time>
      </trkpt>
      <trkpt lat="42.91244393" lon="13.39045492">
        <ele>721.00000</ele>
        <time>2024-05-10T20:39:35Z</time>
      </trkpt>
      <trkpt lat="42.91245591" lon="13.39044596">
        <ele>722.00000</ele>
        <time>2024-05-10T20:39:35Z</time>
      </trkpt>
      <trkpt lat="42.91247092" lon="13.39043799">
        <ele>722.00000</ele>
        <time>2024-05-10T20:39:36Z</time>
      </trkpt>
      <trkpt lat="42.91248399" lon="13.39042592">
        <ele>722.00000</ele>
        <time>2024-05-10T20:39:36Z</time>
      </trkpt>
      <trkpt lat="42.91250294" lon="13.39041796">
        <ele>722.00000</ele>
        <time>2024-05-10T20:39:36Z</time>
      </trkpt>
      <trkpt lat="42.91251895" lon="13.39040899">
        <ele>723.00000</ele>
        <time>2024-05-10T20:39:37Z</time>
      </trkpt>
      <trkpt lat="42.91253596" lon="13.39040497">
        <ele>723.00000</ele>
        <time>2024-05-10T20:39:37Z</time>
      </trkpt>
      <trkpt lat="42.91255298" lon="13.39039893">
        <ele>723.00000</ele>
        <time>2024-05-10T20:39:37Z</time>
      </trkpt>
      <trkpt lat="42.91257292" lon="13.39038996">
        <ele>723.00000</ele>
        <time>2024-05-10T20:39:38Z</time>
      </trkpt>
      <trkpt lat="42.91258994" lon="13.39038091">
        <ele>723.00000</ele>
        <time>2024-05-10T20:39:38Z</time>
      </trkpt>
      <trkpt lat="42.91260696" lon="13.39036792">
        <ele>723.00000</ele>
        <time>2024-05-10T20:39:38Z</time>
      </trkpt>
      <trkpt lat="42.91262196" lon="13.39035694">
        <ele>723.00000</ele>
        <time>2024-05-10T20:39:39Z</time>
      </trkpt>
      <trkpt lat="42.91263696" lon="13.39034898">
        <ele>723.00000</ele>
        <time>2024-05-10T20:39:39Z</time>
      </trkpt>
      <trkpt lat="42.91265297" lon="13.39034395">
        <ele>723.00000</ele>
        <time>2024-05-10T20:39:39Z</time>
      </trkpt>
      <trkpt lat="42.91266898" lon="13.39033599">
        <ele>724.00000</ele>
        <time>2024-05-10T20:39:40Z</time>
      </trkpt>
      <trkpt lat="42.91268692" lon="13.39032593">
        <ele>724.00000</ele>
        <time>2024-05-10T20:39:40Z</time>
      </trkpt>
      <trkpt lat="42.91270192" lon="13.39031595">
        <ele>724.00000</ele>
        <time>2024-05-10T20:39:41Z</time>
      </trkpt>
      <trkpt lat="42.91271693" lon="13.39030397">
        <ele>724.00000</ele>
        <time>2024-05-10T20:39:41Z</time>
      </trkpt>
      <trkpt lat="42.91273092" lon="13.39029097">
        <ele>724.00000</ele>
        <time>2024-05-10T20:39:41Z</time>
      </trkpt>
      <trkpt lat="42.91274894" lon="13.39028092">
        <ele>725.00000</ele>
        <time>2024-05-10T20:39:42Z</time>
      </trkpt>
      <trkpt lat="42.91276697" lon="13.39027496">
        <ele>725.00000</ele>
        <time>2024-05-10T20:39:42Z</time>
      </trkpt>
      <trkpt lat="42.91278298" lon="13.39027094">
        <ele>724.00000</ele>
        <time>2024-05-10T20:39:42Z</time>
      </trkpt>
      <trkpt lat="42.91279898" lon="13.39026097">
        <ele>724.00000</ele>
        <time>2024-05-10T20:39:43Z</time>
      </trkpt>
      <trkpt lat="42.91281692" lon="13.39025292">
        <ele>724.00000</ele>
        <time>2024-05-10T20:39:43Z</time>
      </trkpt>
      <trkpt lat="42.91283494" lon="13.39024697">
        <ele>724.00000</ele>
        <time>2024-05-10T20:39:43Z</time>
      </trkpt>
      <trkpt lat="42.91284693" lon="13.39023599">
        <ele>724.00000</ele>
        <time>2024-05-10T20:39:44Z</time>
      </trkpt>
      <trkpt lat="42.91285892" lon="13.39022895">
        <ele>724.00000</ele>
        <time>2024-05-10T20:39:44Z</time>
      </trkpt>
      <trkpt lat="42.91287492" lon="13.39021998">
        <ele>724.00000</ele>
        <time>2024-05-10T20:39:44Z</time>
      </trkpt>
      <trkpt lat="42.91288892" lon="13.39020598">
        <ele>724.00000</ele>
        <time>2024-05-10T20:39:45Z</time>
      </trkpt>
      <trkpt lat="42.91290292" lon="13.39018897">
        <ele>724.00000</ele>
        <time>2024-05-10T20:39:45Z</time>
      </trkpt>
      <trkpt lat="42.91291893" lon="13.39017899">
        <ele>724.00000</ele>
        <time>2024-05-10T20:39:45Z</time>
      </trkpt>
      <trkpt lat="42.91293494" lon="13.39016692">
        <ele>724.00000</ele>
        <time>2024-05-10T20:39:46Z</time>
      </trkpt>
      <trkpt lat="42.91295296" lon="13.39015393">
        <ele>724.00000</ele>
        <time>2024-05-10T20:39:46Z</time>
      </trkpt>
      <trkpt lat="42.91296998" lon="13.39013599">
        <ele>724.00000</ele>
        <time>2024-05-10T20:39:47Z</time>
      </trkpt>
      <trkpt lat="42.91298699" lon="13.39012292">
        <ele>723.00000</ele>
        <time>2024-05-10T20:39:47Z</time>
      </trkpt>
      <trkpt lat="42.91300292" lon="13.39011093">
        <ele>723.00000</ele>
        <time>2024-05-10T20:39:47Z</time>
      </trkpt>
      <trkpt lat="42.91301599" lon="13.39009693">
        <ele>723.00000</ele>
        <time>2024-05-10T20:39:48Z</time>
      </trkpt>
      <trkpt lat="42.91302999" lon="13.39008193">
        <ele>723.00000</ele>
        <time>2024-05-10T20:39:48Z</time>
      </trkpt>
      <trkpt lat="42.91304198" lon="13.39006592">
        <ele>723.00000</ele>
        <time>2024-05-10T20:39:48Z</time>
      </trkpt>
      <trkpt lat="42.91305698" lon="13.39005494">
        <ele>723.00000</ele>
        <time>2024-05-10T20:39:49Z</time>
      </trkpt>
      <trkpt lat="42.91307492" lon="13.39004195">
        <ele>723.00000</ele>
        <time>2024-05-10T20:39:49Z</time>
      </trkpt>
      <trkpt lat="42.91308891" lon="13.39002795">
        <ele>723.00000</ele>
        <time>2024-05-10T20:39:49Z</time>
      </trkpt>
      <trkpt lat="42.91310199" lon="13.39001697">
        <ele>723.00000</ele>
        <time>2024-05-10T20:39:50Z</time>
      </trkpt>
      <trkpt lat="42.91311792" lon="13.39000892">
        <ele>723.00000</ele>
        <time>2024-05-10T20:39:50Z</time>
      </trkpt>
      <trkpt lat="42.91313594" lon="13.38999895">
        <ele>722.00000</ele>
        <time>2024-05-10T20:39:50Z</time>
      </trkpt>
      <trkpt lat="42.91315195" lon="13.38998797">
        <ele>722.00000</ele>
        <time>2024-05-10T20:39:51Z</time>
      </trkpt>
      <trkpt lat="42.91316796" lon="13.38997699">
        <ele>722.00000</ele>
        <time>2024-05-10T20:39:51Z</time>
      </trkpt>
      <trkpt lat="42.91318497" lon="13.38996592">
        <ele>722.00000</ele>
        <time>2024-05-10T20:39:52Z</time>
      </trkpt>
      <trkpt lat="42.91319997" lon="13.38995293">
        <ele>721.00000</ele>
        <time>2024-05-10T20:39:52Z</time>
      </trkpt>
      <trkpt lat="42.91321498" lon="13.38993592">
        <ele>721.00000</ele>
        <time>2024-05-10T20:39:52Z</time>
      </trkpt>
      <trkpt lat="42.91322596" lon="13.38991496">
        <ele>721.00000</ele>
        <time>2024-05-10T20:39:53Z</time>
      </trkpt>
      <trkpt lat="42.91322696" lon="13.38989392">
        <ele>721.00000</ele>
        <time>2024-05-10T20:39:53Z</time>
      </trkpt>
      <trkpt lat="42.91322596" lon="13.38987096">
        <ele>720.00000</ele>
        <time>2024-05-10T20:39:53Z</time>
      </trkpt>
      <trkpt lat="42.91322294" lon="13.38984698">
        <ele>720.00000</ele>
        <time>2024-05-10T20:39:54Z</time>
      </trkpt>
      <trkpt lat="42.91321498" lon="13.38982695">
        <ele>720.00000</ele>
        <time>2024-05-10T20:39:54Z</time>
      </trkpt>
      <trkpt lat="42.91320995" lon="13.38980399">
        <ele>720.00000</ele>
        <time>2024-05-10T20:39:54Z</time>
      </trkpt>
      <trkpt lat="42.91320693" lon="13.38978194">
        <ele>720.00000</ele>
        <time>2024-05-10T20:39:55Z</time>
      </trkpt>
      <trkpt lat="42.91320299" lon="13.38975897">
        <ele>720.00000</ele>
        <time>2024-05-10T20:39:55Z</time>
      </trkpt>
      <trkpt lat="42.91319696" lon="13.38973693">
        <ele>721.00000</ele>
        <time>2024-05-10T20:39:55Z</time>
      </trkpt>
      <trkpt lat="42.91318799" lon="13.38971799">
        <ele>721.00000</ele>
        <time>2024-05-10T20:39:56Z</time>
      </trkpt>
      <trkpt lat="42.91317793" lon="13.38969795">
        <ele>720.00000</ele>
        <time>2024-05-10T20:39:56Z</time>
      </trkpt>
      <trkpt lat="42.91316393" lon="13.38968496">
        <ele>720.00000</ele>
        <time>2024-05-10T20:39:56Z</time>
      </trkpt>
      <trkpt lat="42.91314893" lon="13.38967096">
        <ele>720.00000</ele>
        <time>2024-05-10T20:39:57Z</time>
      </trkpt>
      <trkpt lat="42.91313393" lon="13.38966392">
        <ele>720.00000</ele>
        <time>2024-05-10T20:39:57Z</time>
      </trkpt>
      <trkpt lat="42.91312093" lon="13.38965998">
        <ele>721.00000</ele>
        <time>2024-05-10T20:39:57Z</time>
      </trkpt>
      <trkpt lat="42.91310895" lon="13.38965294">
        <ele>721.00000</ele>
        <time>2024-05-10T20:39:58Z</time>
      </trkpt>
      <trkpt lat="42.91309897" lon="13.38964398">
        <ele>721.00000</ele>
        <time>2024-05-10T20:39:58Z</time>
      </trkpt>
      <trkpt lat="42.91308992" lon="13.38962797">
        <ele>720.00000</ele>
        <time>2024-05-10T20:39:58Z</time>
      </trkpt>
      <trkpt lat="42.91307894" lon="13.38961397">
        <ele>720.00000</ele>
        <time>2024-05-10T20:39:58Z</time>
      </trkpt>
      <trkpt lat="42.91306695" lon="13.38960793">
        <ele>720.00000</ele>
        <time>2024-05-10T20:39:59Z</time>
      </trkpt>
      <trkpt lat="42.91305497" lon="13.38960894">
        <ele>721.00000</ele>
        <time>2024-05-10T20:39:59Z</time>
      </trkpt>
      <trkpt lat="42.91304198" lon="13.38960894">
        <ele>721.00000</ele>
        <time>2024-05-10T20:39:59Z</time>
      </trkpt>
      <trkpt lat="42.91302898" lon="13.38960592">
        <ele>721.00000</ele>
        <time>2024-05-10T20:39:59Z</time>
      </trkpt>
      <trkpt lat="42.91301893" lon="13.38960198">
        <ele>722.00000</ele>
        <time>2024-05-10T20:40:00Z</time>
      </trkpt>
      <trkpt lat="42.91300895" lon="13.38959394">
        <ele>722.00000</ele>
        <time>2024-05-10T20:40:00Z</time>
      </trkpt>
      <trkpt lat="42.91299495" lon="13.38958698">
        <ele>722.00000</ele>
        <time>2024-05-10T20:40:00Z</time>
      </trkpt>
      <trkpt lat="42.91297995" lon="13.38959293">
        <ele>722.00000</ele>
        <time>2024-05-10T20:40:01Z</time>
      </trkpt>
      <trkpt lat="42.91296696" lon="13.38960098">
        <ele>723.00000</ele>
        <time>2024-05-10T20:40:01Z</time>
      </trkpt>
      <trkpt lat="42.91295195" lon="13.38961196">
        <ele>723.00000</ele>
        <time>2024-05-10T20:40:01Z</time>
      </trkpt>
      <trkpt lat="42.91293796" lon="13.38961992">
        <ele>724.00000</ele>
        <time>2024-05-10T20:40:01Z</time>
      </trkpt>
      <trkpt lat="42.91292496" lon="13.38962797">
        <ele>724.00000</ele>
        <time>2024-05-10T20:40:02Z</time>
      </trkpt>
      <trkpt lat="42.91291591" lon="13.38963895">
        <ele>725.00000</ele>
        <time>2024-05-10T20:40:02Z</time>
      </trkpt>
      <trkpt lat="42.91290896" lon="13.38964599">
        <ele>725.00000</ele>
        <time>2024-05-10T20:40:02Z</time>
      </trkpt>
      <trkpt lat="42.91289697" lon="13.38965093">
        <ele>725.00000</ele>
        <time>2024-05-10T20:40:02Z</time>
      </trkpt>
      <trkpt lat="42.91288498" lon="13.38964699">
        <ele>726.00000</ele>
        <time>2024-05-10T20:40:03Z</time>
      </trkpt>
      <trkpt lat="42.91287291" lon="13.38965294">
        <ele>726.00000</ele>
        <time>2024-05-10T20:40:03Z</time>
      </trkpt>
      <trkpt lat="42.91286596" lon="13.38966694">
        <ele>726.00000</ele>
        <time>2024-05-10T20:40:03Z</time>
      </trkpt>
      <trkpt lat="42.91285699" lon="13.38968496">
        <ele>727.00000</ele>
        <time>2024-05-10T20:40:03Z</time>
      </trkpt>
      <trkpt lat="42.91284793" lon="13.38970097">
        <ele>727.00000</ele>
        <time>2024-05-10T20:40:04Z</time>
      </trkpt>
      <trkpt lat="42.91283695" lon="13.38971698">
        <ele>727.00000</ele>
        <time>2024-05-10T20:40:04Z</time>
      </trkpt>
      <trkpt lat="42.91282698" lon="13.38973098">
        <ele>728.00000</ele>
        <time>2024-05-10T20:40:04Z</time>
      </trkpt>
      <trkpt lat="42.91281692" lon="13.38974498">
        <ele>728.00000</ele>
        <time>2024-05-10T20:40:05Z</time>
      </trkpt>
      <trkpt lat="42.91280594" lon="13.38975998">
        <ele>728.00000</ele>
        <time>2024-05-10T20:40:05Z</time>
      </trkpt>
      <trkpt lat="42.91279396" lon="13.38977498">
        <ele>728.00000</ele>
        <time>2024-05-10T20:40:05Z</time>
      </trkpt>
      <trkpt lat="42.91278298" lon="13.38978798">
        <ele>728.00000</ele>
        <time>2024-05-10T20:40:06Z</time>
      </trkpt>
      <trkpt lat="42.91276998" lon="13.38979594">
        <ele>728.00000</ele>
        <time>2024-05-10T20:40:06Z</time>
      </trkpt>
      <trkpt lat="42.91276093" lon="13.38980793">
        <ele>728.00000</ele>
        <time>2024-05-10T20:40:06Z</time>
      </trkpt>
      <trkpt lat="42.91274794" lon="13.38982293">
        <ele>729.00000</ele>
        <time>2024-05-10T20:40:06Z</time>
      </trkpt>
      <trkpt lat="42.91273394" lon="13.38984196">
        <ele>729.00000</ele>
        <time>2024-05-10T20:40:07Z</time>
      </trkpt>
      <trkpt lat="42.91272095" lon="13.38985797">
        <ele>729.00000</ele>
        <time>2024-05-10T20:40:07Z</time>
      </trkpt>
      <trkpt lat="42.91270796" lon="13.38987397">
        <ele>729.00000</ele>
        <time>2024-05-10T20:40:08Z</time>
      </trkpt>
      <trkpt lat="42.91269396" lon="13.38988194">
        <ele>729.00000</ele>
        <time>2024-05-10T20:40:08Z</time>
      </trkpt>
      <trkpt lat="42.91267694" lon="13.38988093">
        <ele>729.00000</ele>
        <time>2024-05-10T20:40:08Z</time>
      </trkpt>
      <trkpt lat="42.91265993" lon="13.38987599">
        <ele>729.00000</ele>
        <time>2024-05-10T20:40:09Z</time>
      </trkpt>
      <trkpt lat="42.91264493" lon="13.38987096">
        <ele>730.00000</ele>
        <time>2024-05-10T20:40:09Z</time>
      </trkpt>
      <trkpt lat="42.91262598" lon="13.38986492">
        <ele>730.00000</ele>
        <time>2024-05-10T20:40:09Z</time>
      </trkpt>
      <trkpt lat="42.91261391" lon="13.38984891">
        <ele>730.00000</ele>
        <time>2024-05-10T20:40:10Z</time>
      </trkpt>
      <trkpt lat="42.91259991" lon="13.38983491">
        <ele>730.00000</ele>
        <time>2024-05-10T20:40:10Z</time>
      </trkpt>
      <trkpt lat="42.91258793" lon="13.38982293">
        <ele>731.00000</ele>
        <time>2024-05-10T20:40:10Z</time>
      </trkpt>
      <trkpt lat="42.91257494" lon="13.38980298">
        <ele>731.00000</ele>
        <time>2024-05-10T20:40:11Z</time>
      </trkpt>
      <trkpt lat="42.91256496" lon="13.38978596">
        <ele>732.00000</ele>
        <time>2024-05-10T20:40:11Z</time>
      </trkpt>
      <trkpt lat="42.91255499" lon="13.38976694">
        <ele>732.00000</ele>
        <time>2024-05-10T20:40:11Z</time>
      </trkpt>
      <trkpt lat="42.91254694" lon="13.38974598">
        <ele>732.00000</ele>
        <time>2024-05-10T20:40:12Z</time>
      </trkpt>
      <trkpt lat="42.91254392" lon="13.38972494">
        <ele>733.00000</ele>
        <time>2024-05-10T20:40:12Z</time>
      </trkpt>
      <trkpt lat="42.91254292" lon="13.38969997">
        <ele>733.00000</ele>
        <time>2024-05-10T20:40:12Z</time>
      </trkpt>
      <trkpt lat="42.91254795" lon="13.38967792">
        <ele>733.00000</ele>
        <time>2024-05-10T20:40:13Z</time>
      </trkpt>
      <trkpt lat="42.91254593" lon="13.38965496">
        <ele>733.00000</ele>
        <time>2024-05-10T20:40:13Z</time>
      </trkpt>
      <trkpt lat="42.91254292" lon="13.38963392">
        <ele>734.00000</ele>
        <time>2024-05-10T20:40:13Z</time>
      </trkpt>
      <trkpt lat="42.91253998" lon="13.38961598">
        <ele>734.00000</ele>
        <time>2024-05-10T20:40:14Z</time>
      </trkpt>
      <trkpt lat="42.91253093" lon="13.38960299">
        <ele>734.00000</ele>
        <time>2024-05-10T20:40:14Z</time>
      </trkpt>
      <trkpt lat="42.91252297" lon="13.38958396">
        <ele>735.00000</ele>
        <time>2024-05-10T20:40:14Z</time>
      </trkpt>
      <trkpt lat="42.91251794" lon="13.38956393">
        <ele>735.00000</ele>
        <time>2024-05-10T20:40:14Z</time>
      </trkpt>
      <trkpt lat="42.91251199" lon="13.38954197">
        <ele>736.00000</ele>
        <time>2024-05-10T20:40:15Z</time>
      </trkpt>
      <trkpt lat="42.91250696" lon="13.38952495">
        <ele>736.00000</ele>
        <time>2024-05-10T20:40:15Z</time>
      </trkpt>
      <trkpt lat="42.91250193" lon="13.38950894">
        <ele>736.00000</ele>
        <time>2024-05-10T20:40:15Z</time>
      </trkpt>
      <trkpt lat="42.91249497" lon="13.38948698">
        <ele>737.00000</ele>
        <time>2024-05-10T20:40:16Z</time>
      </trkpt>
      <trkpt lat="42.91248793" lon="13.38946594">
        <ele>737.00000</ele>
        <time>2024-05-10T20:40:16Z</time>
      </trkpt>
      <trkpt lat="42.91247796" lon="13.38944398">
        <ele>738.00000</ele>
        <time>2024-05-10T20:40:16Z</time>
      </trkpt>
      <trkpt lat="42.91246698" lon="13.38943292">
        <ele>738.00000</ele>
        <time>2024-05-10T20:40:17Z</time>
      </trkpt>
      <trkpt lat="42.91245692" lon="13.38942294">
        <ele>738.00000</ele>
        <time>2024-05-10T20:40:17Z</time>
      </trkpt>
      <trkpt lat="42.91244594" lon="13.38941096">
        <ele>738.00000</ele>
        <time>2024-05-10T20:40:17Z</time>
      </trkpt>
      <trkpt lat="42.91243295" lon="13.38940098">
        <ele>738.00000</ele>
        <time>2024-05-10T20:40:17Z</time>
      </trkpt>
      <trkpt lat="42.91242498" lon="13.38938799">
        <ele>738.00000</ele>
        <time>2024-05-10T20:40:18Z</time>
      </trkpt>
      <trkpt lat="42.91241392" lon="13.38937793">
        <ele>738.00000</ele>
        <time>2024-05-10T20:40:18Z</time>
      </trkpt>
      <trkpt lat="42.91240395" lon="13.38936796">
        <ele>738.00000</ele>
        <time>2024-05-10T20:40:18Z</time>
      </trkpt>
      <trkpt lat="42.91239397" lon="13.38935396">
        <ele>739.00000</ele>
        <time>2024-05-10T20:40:19Z</time>
      </trkpt>
      <trkpt lat="42.91238198" lon="13.38933594">
        <ele>739.00000</ele>
        <time>2024-05-10T20:40:19Z</time>
      </trkpt>
      <trkpt lat="42.91237092" lon="13.38932194">
        <ele>739.00000</ele>
        <time>2024-05-10T20:40:19Z</time>
      </trkpt>
      <trkpt lat="42.91235692" lon="13.38930593">
        <ele>739.00000</ele>
        <time>2024-05-10T20:40:20Z</time>
      </trkpt>
      <trkpt lat="42.91234293" lon="13.38929596">
        <ele>739.00000</ele>
        <time>2024-05-10T20:40:20Z</time>
      </trkpt>
      <trkpt lat="42.91233496" lon="13.38928397">
        <ele>739.00000</ele>
        <time>2024-05-10T20:40:20Z</time>
      </trkpt>
      <trkpt lat="42.91232096" lon="13.38927098">
        <ele>740.00000</ele>
        <time>2024-05-10T20:40:20Z</time>
      </trkpt>
      <trkpt lat="42.91230697" lon="13.38925992">
        <ele>740.00000</ele>
        <time>2024-05-10T20:40:21Z</time>
      </trkpt>
      <trkpt lat="42.91229599" lon="13.38924692">
        <ele>740.00000</ele>
        <time>2024-05-10T20:40:21Z</time>
      </trkpt>
      <trkpt lat="42.91228593" lon="13.38922999">
        <ele>740.00000</ele>
        <time>2024-05-10T20:40:21Z</time>
      </trkpt>
      <trkpt lat="42.91227294" lon="13.38921591">
        <ele>740.00000</ele>
        <time>2024-05-10T20:40:22Z</time>
      </trkpt>
      <trkpt lat="42.91225894" lon="13.38920393">
        <ele>741.00000</ele>
        <time>2024-05-10T20:40:22Z</time>
      </trkpt>
      <trkpt lat="42.91224595" lon="13.38919294">
        <ele>741.00000</ele>
        <time>2024-05-10T20:40:22Z</time>
      </trkpt>
      <trkpt lat="42.91223195" lon="13.38917995">
        <ele>741.00000</ele>
        <time>2024-05-10T20:40:23Z</time>
      </trkpt>
      <trkpt lat="42.91221996" lon="13.38916897">
        <ele>742.00000</ele>
        <time>2024-05-10T20:40:23Z</time>
      </trkpt>
      <trkpt lat="42.91220596" lon="13.38915699">
        <ele>742.00000</ele>
        <time>2024-05-10T20:40:23Z</time>
      </trkpt>
      <trkpt lat="42.91219792" lon="13.38914592">
        <ele>742.00000</ele>
        <time>2024-05-10T20:40:24Z</time>
      </trkpt>
      <trkpt lat="42.91218694" lon="13.38913192">
        <ele>742.00000</ele>
        <time>2024-05-10T20:40:24Z</time>
      </trkpt>
      <trkpt lat="42.91217495" lon="13.38911893">
        <ele>742.00000</ele>
        <time>2024-05-10T20:40:24Z</time>
      </trkpt>
      <trkpt lat="42.91216397" lon="13.38910896">
        <ele>742.00000</ele>
        <time>2024-05-10T20:40:24Z</time>
      </trkpt>
      <trkpt lat="42.91215199" lon="13.38909999">
        <ele>743.00000</ele>
        <time>2024-05-10T20:40:25Z</time>
      </trkpt>
      <trkpt lat="42.91213799" lon="13.38908691">
        <ele>743.00000</ele>
        <time>2024-05-10T20:40:25Z</time>
      </trkpt>
      <trkpt lat="42.91212097" lon="13.38907593">
        <ele>743.00000</ele>
        <time>2024-05-10T20:40:25Z</time>
      </trkpt>
      <trkpt lat="42.91210697" lon="13.38907199">
        <ele>744.00000</ele>
        <time>2024-05-10T20:40:26Z</time>
      </trkpt>
      <trkpt lat="42.91209097" lon="13.38906294">
        <ele>744.00000</ele>
        <time>2024-05-10T20:40:26Z</time>
      </trkpt>
      <trkpt lat="42.91207797" lon="13.38905992">
        <ele>744.00000</ele>
        <time>2024-05-10T20:40:26Z</time>
      </trkpt>
      <trkpt lat="42.91206498" lon="13.38905598">
        <ele>745.00000</ele>
        <time>2024-05-10T20:40:27Z</time>
      </trkpt>
      <trkpt lat="42.91205392" lon="13.38904492">
        <ele>745.00000</ele>
        <time>2024-05-10T20:40:27Z</time>
      </trkpt>
      <trkpt lat="42.91203992" lon="13.38903696">
        <ele>745.00000</ele>
        <time>2024-05-10T20:40:27Z</time>
      </trkpt>
      <trkpt lat="42.91202793" lon="13.38903092">
        <ele>745.00000</ele>
        <time>2024-05-10T20:40:27Z</time>
      </trkpt>
      <trkpt lat="42.91201192" lon="13.38902497">
        <ele>746.00000</ele>
        <time>2024-05-10T20:40:28Z</time>
      </trkpt>
      <trkpt lat="42.91199692" lon="13.38902195">
        <ele>746.00000</ele>
        <time>2024-05-10T20:40:28Z</time>
      </trkpt>
      <trkpt lat="42.91198292" lon="13.38901592">
        <ele>747.00000</ele>
        <time>2024-05-10T20:40:28Z</time>
      </trkpt>
      <trkpt lat="42.91196892" lon="13.38901299">
        <ele>747.00000</ele>
        <time>2024-05-10T20:40:29Z</time>
      </trkpt>
      <trkpt lat="42.91195292" lon="13.38900997">
        <ele>747.00000</ele>
        <time>2024-05-10T20:40:29Z</time>
      </trkpt>
      <trkpt lat="42.91193699" lon="13.38900594">
        <ele>748.00000</ele>
        <time>2024-05-10T20:40:29Z</time>
      </trkpt>
      <trkpt lat="42.91191796" lon="13.38900393">
        <ele>748.00000</ele>
        <time>2024-05-10T20:40:30Z</time>
      </trkpt>
      <trkpt lat="42.91189894" lon="13.38899496">
        <ele>748.00000</ele>
        <time>2024-05-10T20:40:30Z</time>
      </trkpt>
      <trkpt lat="42.91188192" lon="13.38898499">
        <ele>748.00000</ele>
        <time>2024-05-10T20:40:30Z</time>
      </trkpt>
      <trkpt lat="42.91186197" lon="13.38897795">
        <ele>749.00000</ele>
        <time>2024-05-10T20:40:31Z</time>
      </trkpt>
      <trkpt lat="42.91184093" lon="13.38897493">
        <ele>749.00000</ele>
        <time>2024-05-10T20:40:31Z</time>
      </trkpt>
      <trkpt lat="42.91182098" lon="13.38896797">
        <ele>749.00000</ele>
        <time>2024-05-10T20:40:32Z</time>
      </trkpt>
      <trkpt lat="42.91180397" lon="13.38895792">
        <ele>750.00000</ele>
        <time>2024-05-10T20:40:32Z</time>
      </trkpt>
      <trkpt lat="42.91179098" lon="13.38894895">
        <ele>750.00000</ele>
        <time>2024-05-10T20:40:32Z</time>
      </trkpt>
      <trkpt lat="42.91177296" lon="13.38893596">
        <ele>750.00000</ele>
        <time>2024-05-10T20:40:33Z</time>
      </trkpt>
      <trkpt lat="42.91175695" lon="13.38891793">
        <ele>751.00000</ele>
        <time>2024-05-10T20:40:33Z</time>
      </trkpt>
      <trkpt lat="42.91173691" lon="13.38890293">
        <ele>751.00000</ele>
        <time>2024-05-10T20:40:34Z</time>
      </trkpt>
      <trkpt lat="42.91171696" lon="13.38888592">
        <ele>752.00000</ele>
        <time>2024-05-10T20:40:34Z</time>
      </trkpt>
      <trkpt lat="42.91170297" lon="13.38886496">
        <ele>752.00000</ele>
        <time>2024-05-10T20:40:34Z</time>
      </trkpt>
      <trkpt lat="42.91168897" lon="13.38884199">
        <ele>752.00000</ele>
        <time>2024-05-10T20:40:35Z</time>
      </trkpt>
      <trkpt lat="42.91167095" lon="13.38882297">
        <ele>752.00000</ele>
        <time>2024-05-10T20:40:35Z</time>
      </trkpt>
      <trkpt lat="42.91165695" lon="13.38879891">
        <ele>751.00000</ele>
        <time>2024-05-10T20:40:36Z</time>
      </trkpt>
      <trkpt lat="42.91164496" lon="13.38877293">
        <ele>751.00000</ele>
        <time>2024-05-10T20:40:36Z</time>
      </trkpt>
      <trkpt lat="42.91163298" lon="13.38874996">
        <ele>751.00000</ele>
        <time>2024-05-10T20:40:37Z</time>
      </trkpt>
      <trkpt lat="42.91162292" lon="13.38872599">
        <ele>751.00000</ele>
        <time>2024-05-10T20:40:37Z</time>
      </trkpt>
      <trkpt lat="42.91161194" lon="13.38870193">
        <ele>751.00000</ele>
        <time>2024-05-10T20:40:37Z</time>
      </trkpt>
      <trkpt lat="42.91160297" lon="13.38867293">
        <ele>750.00000</ele>
        <time>2024-05-10T20:40:38Z</time>
      </trkpt>
      <trkpt lat="42.91159098" lon="13.38864695">
        <ele>750.00000</ele>
        <time>2024-05-10T20:40:38Z</time>
      </trkpt>
      <trkpt lat="42.91157799" lon="13.38862499">
        <ele>750.00000</ele>
        <time>2024-05-10T20:40:39Z</time>
      </trkpt>
      <trkpt lat="42.91156492" lon="13.38860194">
        <ele>750.00000</ele>
        <time>2024-05-10T20:40:39Z</time>
      </trkpt>
      <trkpt lat="42.91155595" lon="13.38857696">
        <ele>750.00000</ele>
        <time>2024-05-10T20:40:40Z</time>
      </trkpt>
      <trkpt lat="42.91155193" lon="13.38855098">
        <ele>750.00000</ele>
        <time>2024-05-10T20:40:40Z</time>
      </trkpt>
      <trkpt lat="42.91154899" lon="13.38852692">
        <ele>750.00000</ele>
        <time>2024-05-10T20:40:40Z</time>
      </trkpt>
      <trkpt lat="42.91154195" lon="13.38850194">
        <ele>750.00000</ele>
        <time>2024-05-10T20:40:41Z</time>
      </trkpt>
      <trkpt lat="42.91152996" lon="13.38847998">
        <ele>750.00000</ele>
        <time>2024-05-10T20:40:41Z</time>
      </trkpt>
      <trkpt lat="42.91151798" lon="13.38845995">
        <ele>750.00000</ele>
        <time>2024-05-10T20:40:42Z</time>
      </trkpt>
      <trkpt lat="42.91150893" lon="13.38843991">
        <ele>750.00000</ele>
        <time>2024-05-10T20:40:42Z</time>
      </trkpt>
      <trkpt lat="42.91149895" lon="13.38841594">
        <ele>750.00000</ele>
        <time>2024-05-10T20:40:42Z</time>
      </trkpt>
      <trkpt lat="42.91148898" lon="13.38839197">
        <ele>750.00000</ele>
        <time>2024-05-10T20:40:43Z</time>
      </trkpt>
      <trkpt lat="42.91147992" lon="13.38836791">
        <ele>750.00000</ele>
        <time>2024-05-10T20:40:43Z</time>
      </trkpt>
      <trkpt lat="42.91146593" lon="13.38834193">
        <ele>750.00000</ele>
        <time>2024-05-10T20:40:44Z</time>
      </trkpt>
      <trkpt lat="42.91145796" lon="13.38831796">
        <ele>750.00000</ele>
        <time>2024-05-10T20:40:44Z</time>
      </trkpt>
      <trkpt lat="42.91144698" lon="13.38829692">
        <ele>751.00000</ele>
        <time>2024-05-10T20:40:44Z</time>
      </trkpt>
      <trkpt lat="42.91143592" lon="13.38827596">
        <ele>751.00000</ele>
        <time>2024-05-10T20:40:45Z</time>
      </trkpt>
      <trkpt lat="42.91142595" lon="13.38825694">
        <ele>751.00000</ele>
        <time>2024-05-10T20:40:45Z</time>
      </trkpt>
      <trkpt lat="42.91141597" lon="13.38823598">
        <ele>751.00000</ele>
        <time>2024-05-10T20:40:45Z</time>
      </trkpt>
      <trkpt lat="42.91140692" lon="13.38821595">
        <ele>751.00000</ele>
        <time>2024-05-10T20:40:46Z</time>
      </trkpt>
      <trkpt lat="42.91139795" lon="13.38819994">
        <ele>751.00000</ele>
        <time>2024-05-10T20:40:46Z</time>
      </trkpt>
      <trkpt lat="42.91138697" lon="13.38817798">
        <ele>751.00000</ele>
        <time>2024-05-10T20:40:46Z</time>
      </trkpt>
      <trkpt lat="42.91137498" lon="13.38815795">
        <ele>752.00000</ele>
        <time>2024-05-10T20:40:47Z</time>
      </trkpt>
      <trkpt lat="42.91136291" lon="13.38813993">
        <ele>752.00000</ele>
        <time>2024-05-10T20:40:47Z</time>
      </trkpt>
      <trkpt lat="42.91135294" lon="13.38812291">
        <ele>752.00000</ele>
        <time>2024-05-10T20:40:48Z</time>
      </trkpt>
      <trkpt lat="42.91133995" lon="13.38810699">
        <ele>753.00000</ele>
        <time>2024-05-10T20:40:48Z</time>
      </trkpt>
      <trkpt lat="42.91132394" lon="13.38809592">
        <ele>753.00000</ele>
        <time>2024-05-10T20:40:48Z</time>
      </trkpt>
      <trkpt lat="42.91130994" lon="13.38808896">
        <ele>754.00000</ele>
        <time>2024-05-10T20:40:49Z</time>
      </trkpt>
      <trkpt lat="42.91129393" lon="13.38807597">
        <ele>754.00000</ele>
        <time>2024-05-10T20:40:49Z</time>
      </trkpt>
      <trkpt lat="42.91127792" lon="13.38805795">
        <ele>755.00000</ele>
        <time>2024-05-10T20:40:49Z</time>
      </trkpt>
      <trkpt lat="42.91126493" lon="13.38804597">
        <ele>755.00000</ele>
        <time>2024-05-10T20:40:50Z</time>
      </trkpt>
      <trkpt lat="42.91124791" lon="13.38803892">
        <ele>755.00000</ele>
        <time>2024-05-10T20:40:50Z</time>
      </trkpt>
      <trkpt lat="42.91123299" lon="13.38803197">
        <ele>756.00000</ele>
        <time>2024-05-10T20:40:50Z</time>
      </trkpt>
      <trkpt lat="42.91121497" lon="13.38802292">
        <ele>756.00000</ele>
        <time>2024-05-10T20:40:51Z</time>
      </trkpt>
      <trkpt lat="42.91119595" lon="13.38801193">
        <ele>757.00000</ele>
        <time>2024-05-10T20:40:51Z</time>
      </trkpt>
      <trkpt lat="42.91117692" lon="13.38800598">
        <ele>758.00000</ele>
        <time>2024-05-10T20:40:52Z</time>
      </trkpt>
      <trkpt lat="42.91115898" lon="13.38800297">
        <ele>758.00000</ele>
        <time>2024-05-10T20:40:52Z</time>
      </trkpt>
      <trkpt lat="42.91114096" lon="13.38799593">
        <ele>759.00000</ele>
        <time>2024-05-10T20:40:52Z</time>
      </trkpt>
      <trkpt lat="42.91112596" lon="13.38798997">
        <ele>759.00000</ele>
        <time>2024-05-10T20:40:53Z</time>
      </trkpt>
      <trkpt lat="42.91110592" lon="13.38798092">
        <ele>759.00000</ele>
        <time>2024-05-10T20:40:53Z</time>
      </trkpt>
      <trkpt lat="42.91108698" lon="13.38797095">
        <ele>759.00000</ele>
        <time>2024-05-10T20:40:53Z</time>
      </trkpt>
      <trkpt lat="42.91106997" lon="13.38796399">
        <ele>760.00000</ele>
        <time>2024-05-10T20:40:54Z</time>
      </trkpt>
      <trkpt lat="42.91105396" lon="13.38795494">
        <ele>760.00000</ele>
        <time>2024-05-10T20:40:54Z</time>
      </trkpt>
      <trkpt lat="42.91103795" lon="13.38794698">
        <ele>760.00000</ele>
        <time>2024-05-10T20:40:54Z</time>
      </trkpt>
      <trkpt lat="42.91102093" lon="13.38794195">
        <ele>760.00000</ele>
        <time>2024-05-10T20:40:55Z</time>
      </trkpt>
      <trkpt lat="42.91100392" lon="13.38793599">
        <ele>760.00000</ele>
        <time>2024-05-10T20:40:55Z</time>
      </trkpt>
      <trkpt lat="42.91098598" lon="13.38793097">
        <ele>760.00000</ele>
        <time>2024-05-10T20:40:55Z</time>
      </trkpt>
      <trkpt lat="42.91096695" lon="13.38792292">
        <ele>760.00000</ele>
        <time>2024-05-10T20:40:56Z</time>
      </trkpt>
      <trkpt lat="42.91095497" lon="13.38791093">
        <ele>760.00000</ele>
        <time>2024-05-10T20:40:56Z</time>
      </trkpt>
      <trkpt lat="42.91093896" lon="13.38790196">
        <ele>760.00000</ele>
        <time>2024-05-10T20:40:57Z</time>
      </trkpt>
      <trkpt lat="42.91092295" lon="13.38789794">
        <ele>760.00000</ele>
        <time>2024-05-10T20:40:57Z</time>
      </trkpt>
      <trkpt lat="42.91090493" lon="13.38788897">
        <ele>760.00000</ele>
        <time>2024-05-10T20:40:57Z</time>
      </trkpt>
      <trkpt lat="42.91088699" lon="13.38787992">
        <ele>760.00000</ele>
        <time>2024-05-10T20:40:58Z</time>
      </trkpt>
      <trkpt lat="42.91086394" lon="13.38786894">
        <ele>760.00000</ele>
        <time>2024-05-10T20:40:58Z</time>
      </trkpt>
      <trkpt lat="42.91084592" lon="13.38785695">
        <ele>760.00000</ele>
        <time>2024-05-10T20:40:59Z</time>
      </trkpt>
      <trkpt lat="42.91082798" lon="13.38784094">
        <ele>760.00000</ele>
        <time>2024-05-10T20:40:59Z</time>
      </trkpt>
      <trkpt lat="42.91080895" lon="13.38783198">
        <ele>760.00000</ele>
        <time>2024-05-10T20:40:59Z</time>
      </trkpt>
      <trkpt lat="42.91079194" lon="13.38782292">
        <ele>760.00000</ele>
        <time>2024-05-10T20:41:00Z</time>
      </trkpt>
      <trkpt lat="42.91077392" lon="13.38781295">
        <ele>760.00000</ele>
        <time>2024-05-10T20:41:00Z</time>
      </trkpt>
      <trkpt lat="42.91075497" lon="13.38780297">
        <ele>760.00000</ele>
        <time>2024-05-10T20:41:00Z</time>
      </trkpt>
      <trkpt lat="42.91073997" lon="13.38778898">
        <ele>761.00000</ele>
        <time>2024-05-10T20:41:01Z</time>
      </trkpt>
      <trkpt lat="42.91072597" lon="13.38777397">
        <ele>761.00000</ele>
        <time>2024-05-10T20:41:01Z</time>
      </trkpt>
      <trkpt lat="42.91070996" lon="13.38775997">
        <ele>761.00000</ele>
        <time>2024-05-10T20:41:02Z</time>
      </trkpt>
      <trkpt lat="42.91069395" lon="13.38774799">
        <ele>761.00000</ele>
        <time>2024-05-10T20:41:02Z</time>
      </trkpt>
      <trkpt lat="42.91067996" lon="13.38773793">
        <ele>761.00000</ele>
        <time>2024-05-10T20:41:02Z</time>
      </trkpt>
      <trkpt lat="42.91066495" lon="13.38771899">
        <ele>761.00000</ele>
        <time>2024-05-10T20:41:03Z</time>
      </trkpt>
      <trkpt lat="42.91064995" lon="13.38770097">
        <ele>761.00000</ele>
        <time>2024-05-10T20:41:03Z</time>
      </trkpt>
      <trkpt lat="42.91063696" lon="13.38768697">
        <ele>761.00000</ele>
        <time>2024-05-10T20:41:03Z</time>
      </trkpt>
      <trkpt lat="42.91062598" lon="13.38767096">
        <ele>762.00000</ele>
        <time>2024-05-10T20:41:04Z</time>
      </trkpt>
      <trkpt lat="42.91061692" lon="13.38765596">
        <ele>762.00000</ele>
        <time>2024-05-10T20:41:04Z</time>
      </trkpt>
      <trkpt lat="42.91059999" lon="13.38763894">
        <ele>762.00000</ele>
        <time>2024-05-10T20:41:04Z</time>
      </trkpt>
      <trkpt lat="42.91058599" lon="13.38761698">
        <ele>762.00000</ele>
        <time>2024-05-10T20:41:05Z</time>
      </trkpt>
      <trkpt lat="42.91056898" lon="13.38759996">
        <ele>762.00000</ele>
        <time>2024-05-10T20:41:05Z</time>
      </trkpt>
      <trkpt lat="42.91055096" lon="13.38758395">
        <ele>763.00000</ele>
        <time>2024-05-10T20:41:06Z</time>
      </trkpt>
      <trkpt lat="42.91053595" lon="13.38756392">
        <ele>763.00000</ele>
        <time>2024-05-10T20:41:06Z</time>
      </trkpt>
      <trkpt lat="42.91052397" lon="13.38754992">
        <ele>763.00000</ele>
        <time>2024-05-10T20:41:06Z</time>
      </trkpt>
      <trkpt lat="42.91051098" lon="13.38753299">
        <ele>763.00000</ele>
        <time>2024-05-10T20:41:07Z</time>
      </trkpt>
      <trkpt lat="42.91049698" lon="13.38751891">
        <ele>763.00000</ele>
        <time>2024-05-10T20:41:07Z</time>
      </trkpt>
      <trkpt lat="42.91048399" lon="13.38750198">
        <ele>764.00000</ele>
        <time>2024-05-10T20:41:08Z</time>
      </trkpt>
      <trkpt lat="42.91047292" lon="13.38747994">
        <ele>764.00000</ele>
        <time>2024-05-10T20:41:08Z</time>
      </trkpt>
      <trkpt lat="42.91045892" lon="13.38746292">
        <ele>764.00000</ele>
        <time>2024-05-10T20:41:08Z</time>
      </trkpt>
      <trkpt lat="42.91044099" lon="13.38744993">
        <ele>764.00000</ele>
        <time>2024-05-10T20:41:09Z</time>
      </trkpt>
      <trkpt lat="42.91042791" lon="13.38743392">
        <ele>764.00000</ele>
        <time>2024-05-10T20:41:09Z</time>
      </trkpt>
      <trkpt lat="42.91041492" lon="13.38741799">
        <ele>764.00000</ele>
        <time>2024-05-10T20:41:09Z</time>
      </trkpt>
      <trkpt lat="42.91039899" lon="13.38740299">
        <ele>764.00000</ele>
        <time>2024-05-10T20:41:10Z</time>
      </trkpt>
      <trkpt lat="42.91038298" lon="13.38738497">
        <ele>765.00000</ele>
        <time>2024-05-10T20:41:10Z</time>
      </trkpt>
      <trkpt lat="42.91036899" lon="13.38736996">
        <ele>765.00000</ele>
        <time>2024-05-10T20:41:11Z</time>
      </trkpt>
      <trkpt lat="42.91035398" lon="13.38735396">
        <ele>765.00000</ele>
        <time>2024-05-10T20:41:11Z</time>
      </trkpt>
      <trkpt lat="42.91033898" lon="13.38733392">
        <ele>766.00000</ele>
        <time>2024-05-10T20:41:11Z</time>
      </trkpt>
      <trkpt lat="42.91032398" lon="13.38731791">
        <ele>766.00000</ele>
        <time>2024-05-10T20:41:12Z</time>
      </trkpt>
      <trkpt lat="42.91030897" lon="13.38729897">
        <ele>766.00000</ele>
        <time>2024-05-10T20:41:12Z</time>
      </trkpt>
      <trkpt lat="42.91029296" lon="13.38727793">
        <ele>767.00000</ele>
        <time>2024-05-10T20:41:13Z</time>
      </trkpt>
      <trkpt lat="42.91027595" lon="13.38725899">
        <ele>767.00000</ele>
        <time>2024-05-10T20:41:13Z</time>
      </trkpt>
      <trkpt lat="42.91025793" lon="13.38724398">
        <ele>768.00000</ele>
        <time>2024-05-10T20:41:13Z</time>
      </trkpt>
      <trkpt lat="42.91024192" lon="13.38722596">
        <ele>768.00000</ele>
        <time>2024-05-10T20:41:14Z</time>
      </trkpt>
      <trkpt lat="42.91022499" lon="13.38720493">
        <ele>768.00000</ele>
        <time>2024-05-10T20:41:14Z</time>
      </trkpt>
      <trkpt lat="42.91020898" lon="13.38718598">
        <ele>768.00000</ele>
        <time>2024-05-10T20:41:15Z</time>
      </trkpt>
      <trkpt lat="42.91018995" lon="13.38716193">
        <ele>768.00000</ele>
        <time>2024-05-10T20:41:15Z</time>
      </trkpt>
      <trkpt lat="42.91017193" lon="13.38713896">
        <ele>768.00000</ele>
        <time>2024-05-10T20:41:16Z</time>
      </trkpt>
      <trkpt lat="42.91015399" lon="13.38711599">
        <ele>768.00000</ele>
        <time>2024-05-10T20:41:16Z</time>
      </trkpt>
      <trkpt lat="42.91013496" lon="13.38709596">
        <ele>768.00000</ele>
        <time>2024-05-10T20:41:17Z</time>
      </trkpt>
      <trkpt lat="42.91011292" lon="13.38707693">
        <ele>768.00000</ele>
        <time>2024-05-10T20:41:17Z</time>
      </trkpt>
      <trkpt lat="42.91009197" lon="13.38705598">
        <ele>769.00000</ele>
        <time>2024-05-10T20:41:18Z</time>
      </trkpt>
      <trkpt lat="42.91006992" lon="13.38703796">
        <ele>769.00000</ele>
        <time>2024-05-10T20:41:18Z</time>
      </trkpt>
      <trkpt lat="42.91005198" lon="13.38702094">
        <ele>769.00000</ele>
        <time>2024-05-10T20:41:19Z</time>
      </trkpt>
      <trkpt lat="42.91003195" lon="13.38699898">
        <ele>770.00000</ele>
        <time>2024-05-10T20:41:19Z</time>
      </trkpt>
      <trkpt lat="42.91001292" lon="13.38697895">
        <ele>770.00000</ele>
        <time>2024-05-10T20:41:20Z</time>
      </trkpt>
      <trkpt lat="42.90998996" lon="13.38694995">
        <ele>770.00000</ele>
        <time>2024-05-10T20:41:20Z</time>
      </trkpt>
      <trkpt lat="42.90996791" lon="13.38692296">
        <ele>770.00000</ele>
        <time>2024-05-10T20:41:21Z</time>
      </trkpt>
      <trkpt lat="42.90994293" lon="13.38690091">
        <ele>769.00000</ele>
        <time>2024-05-10T20:41:22Z</time>
      </trkpt>
      <trkpt lat="42.90991092" lon="13.38687392">
        <ele>769.00000</ele>
        <time>2024-05-10T20:41:22Z</time>
      </trkpt>
      <trkpt lat="42.90988099" lon="13.38684492">
        <ele>768.00000</ele>
        <time>2024-05-10T20:41:23Z</time>
      </trkpt>
      <trkpt lat="42.90985492" lon="13.38681693">
        <ele>767.00000</ele>
        <time>2024-05-10T20:41:24Z</time>
      </trkpt>
      <trkpt lat="42.90982592" lon="13.38678692">
        <ele>767.00000</ele>
        <time>2024-05-10T20:41:24Z</time>
      </trkpt>
      <trkpt lat="42.90979298" lon="13.38675691">
        <ele>766.00000</ele>
        <time>2024-05-10T20:41:25Z</time>
      </trkpt>
      <trkpt lat="42.90976096" lon="13.38672699">
        <ele>766.00000</ele>
        <time>2024-05-10T20:41:26Z</time>
      </trkpt>
      <trkpt lat="42.90972894" lon="13.38669396">
        <ele>766.00000</ele>
        <time>2024-05-10T20:41:27Z</time>
      </trkpt>
      <trkpt lat="42.90969198" lon="13.38665792">
        <ele>765.00000</ele>
        <time>2024-05-10T20:41:28Z</time>
      </trkpt>
      <trkpt lat="42.90966097" lon="13.38661492">
        <ele>764.00000</ele>
        <time>2024-05-10T20:41:29Z</time>
      </trkpt>
      <trkpt lat="42.90962593" lon="13.38657293">
        <ele>764.00000</ele>
        <time>2024-05-10T20:41:30Z</time>
      </trkpt>
      <trkpt lat="42.90959299" lon="13.38653395">
        <ele>763.00000</ele>
        <time>2024-05-10T20:41:30Z</time>
      </trkpt>
      <trkpt lat="42.90956399" lon="13.38648199">
        <ele>763.00000</ele>
        <time>2024-05-10T20:41:31Z</time>
      </trkpt>
      <trkpt lat="42.90953197" lon="13.38642499">
        <ele>762.00000</ele>
        <time>2024-05-10T20:41:32Z</time>
      </trkpt>
      <trkpt lat="42.90949794" lon="13.38636891">
        <ele>762.00000</ele>
        <time>2024-05-10T20:41:33Z</time>
      </trkpt>
      <trkpt lat="42.90945796" lon="13.38630999">
        <ele>762.00000</ele>
        <time>2024-05-10T20:41:35Z</time>
      </trkpt>
      <trkpt lat="42.90942099" lon="13.38624293">
        <ele>761.00000</ele>
        <time>2024-05-10T20:41:36Z</time>
      </trkpt>
      <trkpt lat="42.90938294" lon="13.38617395">
        <ele>761.00000</ele>
        <time>2024-05-10T20:41:37Z</time>
      </trkpt>
      <trkpt lat="42.90933893" lon="13.38609893">
        <ele>760.00000</ele>
        <time>2024-05-10T20:41:39Z</time>
      </trkpt>
      <trkpt lat="42.90929694" lon="13.38602199">
        <ele>760.00000</ele>
        <time>2024-05-10T20:41:40Z</time>
      </trkpt>
      <trkpt lat="42.90925294" lon="13.38593892">
        <ele>759.00000</ele>
        <time>2024-05-10T20:41:41Z</time>
      </trkpt>
      <trkpt lat="42.90920994" lon="13.38585393">
        <ele>759.00000</ele>
        <time>2024-05-10T20:41:43Z</time>
      </trkpt>
      <trkpt lat="42.90916794" lon="13.38575997">
        <ele>759.00000</ele>
        <time>2024-05-10T20:41:45Z</time>
      </trkpt>
      <trkpt lat="42.90912494" lon="13.38566693">
        <ele>758.00000</ele>
        <time>2024-05-10T20:41:46Z</time>
      </trkpt>
      <trkpt lat="42.90908396" lon="13.38557297">
        <ele>758.00000</ele>
        <time>2024-05-10T20:41:48Z</time>
      </trkpt>
      <trkpt lat="42.90904196" lon="13.38547398">
        <ele>757.00000</ele>
        <time>2024-05-10T20:41:49Z</time>
      </trkpt>
      <trkpt lat="42.90900098" lon="13.38537599">
        <ele>757.00000</ele>
        <time>2024-05-10T20:41:51Z</time>
      </trkpt>
      <trkpt lat="42.90896099" lon="13.38527893">
        <ele>758.00000</ele>
        <time>2024-05-10T20:41:53Z</time>
      </trkpt>
      <trkpt lat="42.90891791" lon="13.38517994">
        <ele>759.00000</ele>
        <time>2024-05-10T20:41:54Z</time>
      </trkpt>
      <trkpt lat="42.90887399" lon="13.38508296">
        <ele>759.00000</ele>
        <time>2024-05-10T20:41:56Z</time>
      </trkpt>
      <trkpt lat="42.90882898" lon="13.38498498">
        <ele>759.00000</ele>
        <time>2024-05-10T20:41:58Z</time>
      </trkpt>
      <trkpt lat="42.90878799" lon="13.38487995">
        <ele>760.00000</ele>
        <time>2024-05-10T20:42:00Z</time>
      </trkpt>
      <trkpt lat="42.90874893" lon="13.38477099">
        <ele>761.00000</ele>
        <time>2024-05-10T20:42:01Z</time>
      </trkpt>
      <trkpt lat="42.90870895" lon="13.38465993">
        <ele>761.00000</ele>
        <time>2024-05-10T20:42:03Z</time>
      </trkpt>
      <trkpt lat="42.90866897" lon="13.38455893">
        <ele>760.00000</ele>
        <time>2024-05-10T20:42:05Z</time>
      </trkpt>
      <trkpt lat="42.90863695" lon="13.38445591">
        <ele>760.00000</ele>
        <time>2024-05-10T20:42:07Z</time>
      </trkpt>
      <trkpt lat="42.90861591" lon="13.38435994">
        <ele>760.00000</ele>
        <time>2024-05-10T20:42:08Z</time>
      </trkpt>
      <trkpt lat="42.90859999" lon="13.38426497">
        <ele>759.00000</ele>
        <time>2024-05-10T20:42:09Z</time>
      </trkpt>
      <trkpt lat="42.90859093" lon="13.38417897">
        <ele>759.00000</ele>
        <time>2024-05-10T20:42:11Z</time>
      </trkpt>
      <trkpt lat="42.90858398" lon="13.38410496">
        <ele>759.00000</ele>
        <time>2024-05-10T20:42:12Z</time>
      </trkpt>
      <trkpt lat="42.90858096" lon="13.38404595">
        <ele>759.00000</ele>
        <time>2024-05-10T20:42:13Z</time>
      </trkpt>
      <trkpt lat="42.90857694" lon="13.38398795">
        <ele>760.00000</ele>
        <time>2024-05-10T20:42:14Z</time>
      </trkpt>
      <trkpt lat="42.90857492" lon="13.38393095">
        <ele>760.00000</ele>
        <time>2024-05-10T20:42:14Z</time>
      </trkpt>
      <trkpt lat="42.90857392" lon="13.38388192">
        <ele>760.00000</ele>
        <time>2024-05-10T20:42:15Z</time>
      </trkpt>
      <trkpt lat="42.90857098" lon="13.38383096">
        <ele>761.00000</ele>
        <time>2024-05-10T20:42:16Z</time>
      </trkpt>
      <trkpt lat="42.90856897" lon="13.38378595">
        <ele>761.00000</ele>
        <time>2024-05-10T20:42:16Z</time>
      </trkpt>
      <trkpt lat="42.90856495" lon="13.38373792">
        <ele>762.00000</ele>
        <time>2024-05-10T20:42:17Z</time>
      </trkpt>
      <trkpt lat="42.90855892" lon="13.38368696">
        <ele>763.00000</ele>
        <time>2024-05-10T20:42:18Z</time>
      </trkpt>
      <trkpt lat="42.90855196" lon="13.38363197">
        <ele>763.00000</ele>
        <time>2024-05-10T20:42:19Z</time>
      </trkpt>
      <trkpt lat="42.90854492" lon="13.38357799">
        <ele>764.00000</ele>
        <time>2024-05-10T20:42:20Z</time>
      </trkpt>
      <trkpt lat="42.90853796" lon="13.38352393">
        <ele>765.00000</ele>
        <time>2024-05-10T20:42:20Z</time>
      </trkpt>
      <trkpt lat="42.90853092" lon="13.38346995">
        <ele>766.00000</ele>
        <time>2024-05-10T20:42:21Z</time>
      </trkpt>
      <trkpt lat="42.90852899" lon="13.38341396">
        <ele>766.00000</ele>
        <time>2024-05-10T20:42:22Z</time>
      </trkpt>
      <trkpt lat="42.90852396" lon="13.38335797">
        <ele>767.00000</ele>
        <time>2024-05-10T20:42:23Z</time>
      </trkpt>
      <trkpt lat="42.90852095" lon="13.38329695">
        <ele>767.00000</ele>
        <time>2024-05-10T20:42:24Z</time>
      </trkpt>
      <trkpt lat="42.90852296" lon="13.38323995">
        <ele>767.00000</ele>
        <time>2024-05-10T20:42:25Z</time>
      </trkpt>
      <trkpt lat="42.90852296" lon="13.38318597">
        <ele>766.00000</ele>
        <time>2024-05-10T20:42:25Z</time>
      </trkpt>
      <trkpt lat="42.90852698" lon="13.38313291">
        <ele>766.00000</ele>
        <time>2024-05-10T20:42:26Z</time>
      </trkpt>
      <trkpt lat="42.90852991" lon="13.38308396">
        <ele>766.00000</ele>
        <time>2024-05-10T20:42:27Z</time>
      </trkpt>
      <trkpt lat="42.90853394" lon="13.38302797">
        <ele>765.00000</ele>
        <time>2024-05-10T20:42:28Z</time>
      </trkpt>
      <trkpt lat="42.90853494" lon="13.38297198">
        <ele>765.00000</ele>
        <time>2024-05-10T20:42:29Z</time>
      </trkpt>
      <trkpt lat="42.90854198" lon="13.38292194">
        <ele>764.00000</ele>
        <time>2024-05-10T20:42:29Z</time>
      </trkpt>
      <trkpt lat="42.90854995" lon="13.38287299">
        <ele>764.00000</ele>
        <time>2024-05-10T20:42:30Z</time>
      </trkpt>
      <trkpt lat="42.90855598" lon="13.38282295">
        <ele>764.00000</ele>
        <time>2024-05-10T20:42:31Z</time>
      </trkpt>
      <trkpt lat="42.90856495" lon="13.38276897">
        <ele>764.00000</ele>
        <time>2024-05-10T20:42:32Z</time>
      </trkpt>
      <trkpt lat="42.90857492" lon="13.38271097">
        <ele>764.00000</ele>
        <time>2024-05-10T20:42:32Z</time>
      </trkpt>
      <trkpt lat="42.90858498" lon="13.38265699">
        <ele>764.00000</ele>
        <time>2024-05-10T20:42:33Z</time>
      </trkpt>
      <trkpt lat="42.90859496" lon="13.38260594">
        <ele>764.00000</ele>
        <time>2024-05-10T20:42:34Z</time>
      </trkpt>
      <trkpt lat="42.90860493" lon="13.38254995">
        <ele>764.00000</ele>
        <time>2024-05-10T20:42:35Z</time>
      </trkpt>
      <trkpt lat="42.90861499" lon="13.38248893">
        <ele>765.00000</ele>
        <time>2024-05-10T20:42:36Z</time>
      </trkpt>
      <trkpt lat="42.90863293" lon="13.38243395">
        <ele>765.00000</ele>
        <time>2024-05-10T20:42:37Z</time>
      </trkpt>
      <trkpt lat="42.90865296" lon="13.38238491">
        <ele>766.00000</ele>
        <time>2024-05-10T20:42:38Z</time>
      </trkpt>
      <trkpt lat="42.90867098" lon="13.38233496">
        <ele>766.00000</ele>
        <time>2024-05-10T20:42:38Z</time>
      </trkpt>
      <trkpt lat="42.90868598" lon="13.38228299">
        <ele>767.00000</ele>
        <time>2024-05-10T20:42:39Z</time>
      </trkpt>
      <trkpt lat="42.90870493" lon="13.38222892">
        <ele>768.00000</ele>
        <time>2024-05-10T20:42:40Z</time>
      </trkpt>
      <trkpt lat="42.90872697" lon="13.38218098">
        <ele>768.00000</ele>
        <time>2024-05-10T20:42:41Z</time>
      </trkpt>
      <trkpt lat="42.90874592" lon="13.38213295">
        <ele>769.00000</ele>
        <time>2024-05-10T20:42:42Z</time>
      </trkpt>
      <trkpt lat="42.90876494" lon="13.38208895">
        <ele>769.00000</ele>
        <time>2024-05-10T20:42:42Z</time>
      </trkpt>
      <trkpt lat="42.90878799" lon="13.38205198">
        <ele>769.00000</ele>
        <time>2024-05-10T20:42:43Z</time>
      </trkpt>
      <trkpt lat="42.90880694" lon="13.38200697">
        <ele>770.00000</ele>
        <time>2024-05-10T20:42:44Z</time>
      </trkpt>
      <trkpt lat="42.90882395" lon="13.38196598">
        <ele>770.00000</ele>
        <time>2024-05-10T20:42:45Z</time>
      </trkpt>
      <trkpt lat="42.90883292" lon="13.38192097">
        <ele>770.00000</ele>
        <time>2024-05-10T20:42:45Z</time>
      </trkpt>
      <trkpt lat="42.90884298" lon="13.38187697">
        <ele>770.00000</ele>
        <time>2024-05-10T20:42:46Z</time>
      </trkpt>
      <trkpt lat="42.90885094" lon="13.38183296">
        <ele>770.00000</ele>
        <time>2024-05-10T20:42:47Z</time>
      </trkpt>
      <trkpt lat="42.90885999" lon="13.38178594">
        <ele>771.00000</ele>
        <time>2024-05-10T20:42:47Z</time>
      </trkpt>
      <trkpt lat="42.90886594" lon="13.38173196">
        <ele>771.00000</ele>
        <time>2024-05-10T20:42:48Z</time>
      </trkpt>
      <trkpt lat="42.90886997" lon="13.38167999">
        <ele>771.00000</ele>
        <time>2024-05-10T20:42:49Z</time>
      </trkpt>
      <trkpt lat="42.90887298" lon="13.38162895">
        <ele>771.00000</ele>
        <time>2024-05-10T20:42:50Z</time>
      </trkpt>
      <trkpt lat="42.90888095" lon="13.38157195">
        <ele>772.00000</ele>
        <time>2024-05-10T20:42:51Z</time>
      </trkpt>
      <trkpt lat="42.90888095" lon="13.38150892">
        <ele>772.00000</ele>
        <time>2024-05-10T20:42:51Z</time>
      </trkpt>
      <trkpt lat="42.90888296" lon="13.38144396">
        <ele>773.00000</ele>
        <time>2024-05-10T20:42:52Z</time>
      </trkpt>
      <trkpt lat="42.90888698" lon="13.38137699">
        <ele>774.00000</ele>
        <time>2024-05-10T20:42:53Z</time>
      </trkpt>
      <trkpt lat="42.90888992" lon="13.38130993">
        <ele>774.00000</ele>
        <time>2024-05-10T20:42:54Z</time>
      </trkpt>
      <trkpt lat="42.90889997" lon="13.38124698">
        <ele>774.00000</ele>
        <time>2024-05-10T20:42:55Z</time>
      </trkpt>
      <trkpt lat="42.90890693" lon="13.38118496">
        <ele>774.00000</ele>
        <time>2024-05-10T20:42:56Z</time>
      </trkpt>
      <trkpt lat="42.90891498" lon="13.38111799">
        <ele>775.00000</ele>
        <time>2024-05-10T20:42:57Z</time>
      </trkpt>
      <trkpt lat="42.90891791" lon="13.38104791">
        <ele>775.00000</ele>
        <time>2024-05-10T20:42:58Z</time>
      </trkpt>
      <trkpt lat="42.90891892" lon="13.38096795">
        <ele>776.00000</ele>
        <time>2024-05-10T20:42:59Z</time>
      </trkpt>
      <trkpt lat="42.90892395" lon="13.38088899">
        <ele>776.00000</ele>
        <time>2024-05-10T20:43:01Z</time>
      </trkpt>
      <trkpt lat="42.90893493" lon="13.38080492">
        <ele>776.00000</ele>
        <time>2024-05-10T20:43:02Z</time>
      </trkpt>
      <trkpt lat="42.90895597" lon="13.38071993">
        <ele>777.00000</ele>
        <time>2024-05-10T20:43:03Z</time>
      </trkpt>
      <trkpt lat="42.90898698" lon="13.38063997">
        <ele>777.00000</ele>
        <time>2024-05-10T20:43:04Z</time>
      </trkpt>
      <trkpt lat="42.90903098" lon="13.38058096">
        <ele>776.00000</ele>
        <time>2024-05-10T20:43:06Z</time>
      </trkpt>
      <trkpt lat="42.90908295" lon="13.38053695">
        <ele>775.00000</ele>
        <time>2024-05-10T20:43:07Z</time>
      </trkpt>
      <trkpt lat="42.90912897" lon="13.38050594">
        <ele>775.00000</ele>
        <time>2024-05-10T20:43:08Z</time>
      </trkpt>
      <trkpt lat="42.90917398" lon="13.38047593">
        <ele>774.00000</ele>
        <time>2024-05-10T20:43:09Z</time>
      </trkpt>
      <trkpt lat="42.90921497" lon="13.38045498">
        <ele>775.00000</ele>
        <time>2024-05-10T20:43:10Z</time>
      </trkpt>
      <trkpt lat="42.90925797" lon="13.38042899">
        <ele>776.00000</ele>
        <time>2024-05-10T20:43:11Z</time>
      </trkpt>
      <trkpt lat="42.90930197" lon="13.38040594">
        <ele>777.00000</ele>
        <time>2024-05-10T20:43:12Z</time>
      </trkpt>
      <trkpt lat="42.90935092" lon="13.38039698">
        <ele>778.00000</ele>
        <time>2024-05-10T20:43:13Z</time>
      </trkpt>
      <trkpt lat="42.90939996" lon="13.38040192">
        <ele>778.00000</ele>
        <time>2024-05-10T20:43:14Z</time>
      </trkpt>
      <trkpt lat="42.90944597" lon="13.38041399">
        <ele>778.00000</ele>
        <time>2024-05-10T20:43:15Z</time>
      </trkpt>
      <trkpt lat="42.90948696" lon="13.38042598">
        <ele>778.00000</ele>
        <time>2024-05-10T20:43:15Z</time>
      </trkpt>
      <trkpt lat="42.90952493" lon="13.38044794">
        <ele>779.00000</ele>
        <time>2024-05-10T20:43:16Z</time>
      </trkpt>
      <trkpt lat="42.90955292" lon="13.38047099">
        <ele>778.00000</ele>
        <time>2024-05-10T20:43:17Z</time>
      </trkpt>
      <trkpt lat="42.90957799" lon="13.38049496">
        <ele>778.00000</ele>
        <time>2024-05-10T20:43:18Z</time>
      </trkpt>
      <trkpt lat="42.90959693" lon="13.38051692">
        <ele>778.00000</ele>
        <time>2024-05-10T20:43:18Z</time>
      </trkpt>
      <trkpt lat="42.90961696" lon="13.38053897">
        <ele>778.00000</ele>
        <time>2024-05-10T20:43:19Z</time>
      </trkpt>
      <trkpt lat="42.90964194" lon="13.38054793">
        <ele>778.00000</ele>
        <time>2024-05-10T20:43:19Z</time>
      </trkpt>
      <trkpt lat="42.90966298" lon="13.38056093">
        <ele>779.00000</ele>
        <time>2024-05-10T20:43:20Z</time>
      </trkpt>
      <trkpt lat="42.90968393" lon="13.38057794">
        <ele>779.00000</ele>
        <time>2024-05-10T20:43:20Z</time>
      </trkpt>
      <trkpt lat="42.90970397" lon="13.38059395">
        <ele>779.00000</ele>
        <time>2024-05-10T20:43:21Z</time>
      </trkpt>
      <trkpt lat="42.90972392" lon="13.38061197">
        <ele>779.00000</ele>
        <time>2024-05-10T20:43:21Z</time>
      </trkpt>
      <trkpt lat="42.90974596" lon="13.38063192">
        <ele>779.00000</ele>
        <time>2024-05-10T20:43:22Z</time>
      </trkpt>
      <trkpt lat="42.90976691" lon="13.38064592">
        <ele>779.00000</ele>
        <time>2024-05-10T20:43:22Z</time>
      </trkpt>
      <trkpt lat="42.90978494" lon="13.38065992">
        <ele>779.00000</ele>
        <time>2024-05-10T20:43:22Z</time>
      </trkpt>
      <trkpt lat="42.90980195" lon="13.38067391">
        <ele>779.00000</ele>
        <time>2024-05-10T20:43:23Z</time>
      </trkpt>
      <trkpt lat="42.90981796" lon="13.38069495">
        <ele>779.00000</ele>
        <time>2024-05-10T20:43:23Z</time>
      </trkpt>
      <trkpt lat="42.90983498" lon="13.38071398">
        <ele>779.00000</ele>
        <time>2024-05-10T20:43:24Z</time>
      </trkpt>
      <trkpt lat="42.90985392" lon="13.38072697">
        <ele>779.00000</ele>
        <time>2024-05-10T20:43:24Z</time>
      </trkpt>
      <trkpt lat="42.90986892" lon="13.38074097">
        <ele>779.00000</ele>
        <time>2024-05-10T20:43:24Z</time>
      </trkpt>
      <trkpt lat="42.90988594" lon="13.38075497">
        <ele>779.00000</ele>
        <time>2024-05-10T20:43:25Z</time>
      </trkpt>
      <trkpt lat="42.90989893" lon="13.38076695">
        <ele>779.00000</ele>
        <time>2024-05-10T20:43:25Z</time>
      </trkpt>
      <trkpt lat="42.90991293" lon="13.38077994">
        <ele>778.00000</ele>
        <time>2024-05-10T20:43:26Z</time>
      </trkpt>
      <trkpt lat="42.90992793" lon="13.38079696">
        <ele>778.00000</ele>
        <time>2024-05-10T20:43:26Z</time>
      </trkpt>
      <trkpt lat="42.90994293" lon="13.38080693">
        <ele>778.00000</ele>
        <time>2024-05-10T20:43:26Z</time>
      </trkpt>
      <trkpt lat="42.90995995" lon="13.38081196">
        <ele>778.00000</ele>
        <time>2024-05-10T20:43:27Z</time>
      </trkpt>
      <trkpt lat="42.90997697" lon="13.38081699">
        <ele>779.00000</ele>
        <time>2024-05-10T20:43:27Z</time>
      </trkpt>
      <trkpt lat="42.90999297" lon="13.38082395">
        <ele>779.00000</ele>
        <time>2024-05-10T20:43:27Z</time>
      </trkpt>
      <trkpt lat="42.91001091" lon="13.38082998">
        <ele>779.00000</ele>
        <time>2024-05-10T20:43:28Z</time>
      </trkpt>
      <trkpt lat="42.91003094" lon="13.38083594">
        <ele>779.00000</ele>
        <time>2024-05-10T20:43:28Z</time>
      </trkpt>
      <trkpt lat="42.91004997" lon="13.38083895">
        <ele>779.00000</ele>
        <time>2024-05-10T20:43:28Z</time>
      </trkpt>
      <trkpt lat="42.91006891" lon="13.38084398">
        <ele>779.00000</ele>
        <time>2024-05-10T20:43:29Z</time>
      </trkpt>
      <trkpt lat="42.91008492" lon="13.38084499">
        <ele>779.00000</ele>
        <time>2024-05-10T20:43:29Z</time>
      </trkpt>
      <trkpt lat="42.91009993" lon="13.38084398">
        <ele>779.00000</ele>
        <time>2024-05-10T20:43:29Z</time>
      </trkpt>
      <trkpt lat="42.91012097" lon="13.38084197">
        <ele>780.00000</ele>
        <time>2024-05-10T20:43:30Z</time>
      </trkpt>
      <trkpt lat="42.91014293" lon="13.38083895">
        <ele>780.00000</ele>
        <time>2024-05-10T20:43:30Z</time>
      </trkpt>
      <trkpt lat="42.91016095" lon="13.38083392">
        <ele>780.00000</ele>
        <time>2024-05-10T20:43:31Z</time>
      </trkpt>
      <trkpt lat="42.91017796" lon="13.38082898">
        <ele>780.00000</ele>
        <time>2024-05-10T20:43:31Z</time>
      </trkpt>
      <trkpt lat="42.91019297" lon="13.38081892">
        <ele>781.00000</ele>
        <time>2024-05-10T20:43:31Z</time>
      </trkpt>
      <trkpt lat="42.91020898" lon="13.38080392">
        <ele>781.00000</ele>
        <time>2024-05-10T20:43:32Z</time>
      </trkpt>
      <trkpt lat="42.91022297" lon="13.38078296">
        <ele>781.00000</ele>
        <time>2024-05-10T20:43:32Z</time>
      </trkpt>
      <trkpt lat="42.91023898" lon="13.38075597">
        <ele>782.00000</ele>
        <time>2024-05-10T20:43:33Z</time>
      </trkpt>
      <trkpt lat="42.91024896" lon="13.38073493">
        <ele>782.00000</ele>
        <time>2024-05-10T20:43:33Z</time>
      </trkpt>
      <trkpt lat="42.91025499" lon="13.38070694">
        <ele>782.00000</ele>
        <time>2024-05-10T20:43:33Z</time>
      </trkpt>
      <trkpt lat="42.91025692" lon="13.38067995">
        <ele>782.00000</ele>
        <time>2024-05-10T20:43:34Z</time>
      </trkpt>
      <trkpt lat="42.91025692" lon="13.38065497">
        <ele>783.00000</ele>
        <time>2024-05-10T20:43:34Z</time>
      </trkpt>
      <trkpt lat="42.91025198" lon="13.38064298">
        <ele>783.00000</ele>
        <time>2024-05-10T20:43:34Z</time>
      </trkpt>
      <trkpt lat="42.91024493" lon="13.38062698">
        <ele>783.00000</ele>
        <time>2024-05-10T20:43:35Z</time>
      </trkpt>
      <trkpt lat="42.91023597" lon="13.38060191">
        <ele>783.00000</ele>
        <time>2024-05-10T20:43:35Z</time>
      </trkpt>
      <trkpt lat="42.91023094" lon="13.38057694">
        <ele>783.00000</ele>
        <time>2024-05-10T20:43:35Z</time>
      </trkpt>
      <trkpt lat="42.91022197" lon="13.38054995">
        <ele>783.00000</ele>
        <time>2024-05-10T20:43:36Z</time>
      </trkpt>
      <trkpt lat="42.91020898" lon="13.38052899">
        <ele>783.00000</ele>
        <time>2024-05-10T20:43:36Z</time>
      </trkpt>
      <trkpt lat="42.91019699" lon="13.38051198">
        <ele>783.00000</ele>
        <time>2024-05-10T20:43:37Z</time>
      </trkpt>
      <trkpt lat="42.91018492" lon="13.38049094">
        <ele>783.00000</ele>
        <time>2024-05-10T20:43:37Z</time>
      </trkpt>
      <trkpt lat="42.91017092" lon="13.38046696">
        <ele>783.00000</ele>
        <time>2024-05-10T20:43:38Z</time>
      </trkpt>
      <trkpt lat="42.91015793" lon="13.38044098">
        <ele>784.00000</ele>
        <time>2024-05-10T20:43:38Z</time>
      </trkpt>
      <trkpt lat="42.91014393" lon="13.38041692">
        <ele>784.00000</ele>
        <time>2024-05-10T20:43:38Z</time>
      </trkpt>
      <trkpt lat="42.91012994" lon="13.38039295">
        <ele>784.00000</ele>
        <time>2024-05-10T20:43:39Z</time>
      </trkpt>
      <trkpt lat="42.91011393" lon="13.38036999">
        <ele>784.00000</ele>
        <time>2024-05-10T20:43:39Z</time>
      </trkpt>
      <trkpt lat="42.91009993" lon="13.38034492">
        <ele>784.00000</ele>
        <time>2024-05-10T20:43:40Z</time>
      </trkpt>
      <trkpt lat="42.91008392" lon="13.38032397">
        <ele>785.00000</ele>
        <time>2024-05-10T20:43:40Z</time>
      </trkpt>
      <trkpt lat="42.91006799" lon="13.38030193">
        <ele>785.00000</ele>
        <time>2024-05-10T20:43:41Z</time>
      </trkpt>
      <trkpt lat="42.91005391" lon="13.38027795">
        <ele>785.00000</ele>
        <time>2024-05-10T20:43:41Z</time>
      </trkpt>
      <trkpt lat="42.91003799" lon="13.38025691">
        <ele>786.00000</ele>
        <time>2024-05-10T20:43:42Z</time>
      </trkpt>
      <trkpt lat="42.91002198" lon="13.38023194">
        <ele>786.00000</ele>
        <time>2024-05-10T20:43:42Z</time>
      </trkpt>
      <trkpt lat="42.91000396" lon="13.38020796">
        <ele>786.00000</ele>
        <time>2024-05-10T20:43:43Z</time>
      </trkpt>
      <trkpt lat="42.90998694" lon="13.38019095">
        <ele>787.00000</ele>
        <time>2024-05-10T20:43:43Z</time>
      </trkpt>
      <trkpt lat="42.90996699" lon="13.38017192">
        <ele>787.00000</ele>
        <time>2024-05-10T20:43:43Z</time>
      </trkpt>
      <trkpt lat="42.90994796" lon="13.38015197">
        <ele>787.00000</ele>
        <time>2024-05-10T20:43:44Z</time>
      </trkpt>
      <trkpt lat="42.90993195" lon="13.38013194">
        <ele>787.00000</ele>
        <time>2024-05-10T20:43:44Z</time>
      </trkpt>
      <trkpt lat="42.90991595" lon="13.38011199">
        <ele>787.00000</ele>
        <time>2024-05-10T20:43:45Z</time>
      </trkpt>
      <trkpt lat="42.90989994" lon="13.38009397">
        <ele>788.00000</ele>
        <time>2024-05-10T20:43:45Z</time>
      </trkpt>
      <trkpt lat="42.90988292" lon="13.38007494">
        <ele>788.00000</ele>
        <time>2024-05-10T20:43:46Z</time>
      </trkpt>
      <trkpt lat="42.90987093" lon="13.38005592">
        <ele>788.00000</ele>
        <time>2024-05-10T20:43:46Z</time>
      </trkpt>
      <trkpt lat="42.90985593" lon="13.38004292">
        <ele>788.00000</ele>
        <time>2024-05-10T20:43:46Z</time>
      </trkpt>
      <trkpt lat="42.90983699" lon="13.38002691">
        <ele>788.00000</ele>
        <time>2024-05-10T20:43:47Z</time>
      </trkpt>
      <trkpt lat="42.90982492" lon="13.38000797">
        <ele>789.00000</ele>
        <time>2024-05-10T20:43:47Z</time>
      </trkpt>
      <trkpt lat="42.90980991" lon="13.37998894">
        <ele>789.00000</ele>
        <time>2024-05-10T20:43:48Z</time>
      </trkpt>
      <trkpt lat="42.90979592" lon="13.37996698">
        <ele>789.00000</ele>
        <time>2024-05-10T20:43:48Z</time>
      </trkpt>
      <trkpt lat="42.90978192" lon="13.37994695">
        <ele>789.00000</ele>
        <time>2024-05-10T20:43:48Z</time>
      </trkpt>
      <trkpt lat="42.90976893" lon="13.37992692">
        <ele>789.00000</ele>
        <time>2024-05-10T20:43:49Z</time>
      </trkpt>
      <trkpt lat="42.90975493" lon="13.37990395">
        <ele>790.00000</ele>
        <time>2024-05-10T20:43:49Z</time>
      </trkpt>
      <trkpt lat="42.90974495" lon="13.37988291">
        <ele>790.00000</ele>
        <time>2024-05-10T20:43:50Z</time>
      </trkpt>
      <trkpt lat="42.90973397" lon="13.37986196">
        <ele>790.00000</ele>
        <time>2024-05-10T20:43:50Z</time>
      </trkpt>
      <trkpt lat="42.90972392" lon="13.37984092">
        <ele>790.00000</ele>
        <time>2024-05-10T20:43:50Z</time>
      </trkpt>
      <trkpt lat="42.90971495" lon="13.37981494">
        <ele>790.00000</ele>
        <time>2024-05-10T20:43:51Z</time>
      </trkpt>
      <trkpt lat="42.90970598" lon="13.37979096">
        <ele>791.00000</ele>
        <time>2024-05-10T20:43:51Z</time>
      </trkpt>
      <trkpt lat="42.90969994" lon="13.37976892">
        <ele>791.00000</ele>
        <time>2024-05-10T20:43:52Z</time>
      </trkpt>
      <trkpt lat="42.90969198" lon="13.37974294">
        <ele>791.00000</ele>
        <time>2024-05-10T20:43:52Z</time>
      </trkpt>
      <trkpt lat="42.90968192" lon="13.37972098">
        <ele>791.00000</ele>
        <time>2024-05-10T20:43:52Z</time>
      </trkpt>
      <trkpt lat="42.90967497" lon="13.37969893">
        <ele>791.00000</ele>
        <time>2024-05-10T20:43:53Z</time>
      </trkpt>
      <trkpt lat="42.90966792" lon="13.37967798">
        <ele>791.00000</ele>
        <time>2024-05-10T20:43:53Z</time>
      </trkpt>
      <trkpt lat="42.90965896" lon="13.37966096">
        <ele>792.00000</ele>
        <time>2024-05-10T20:43:53Z</time>
      </trkpt>
      <trkpt lat="42.90965292" lon="13.37964093">
        <ele>792.00000</ele>
        <time>2024-05-10T20:43:54Z</time>
      </trkpt>
      <trkpt lat="42.90965292" lon="13.37962592">
        <ele>792.00000</ele>
        <time>2024-05-10T20:43:54Z</time>
      </trkpt>
      <trkpt lat="42.90964596" lon="13.37960698">
        <ele>792.00000</ele>
        <time>2024-05-10T20:43:54Z</time>
      </trkpt>
      <trkpt lat="42.90963691" lon="13.37958594">
        <ele>792.00000</ele>
        <time>2024-05-10T20:43:55Z</time>
      </trkpt>
      <trkpt lat="42.90962493" lon="13.37956993">
        <ele>792.00000</ele>
        <time>2024-05-10T20:43:55Z</time>
      </trkpt>
      <trkpt lat="42.90961395" lon="13.37955594">
        <ele>792.00000</ele>
        <time>2024-05-10T20:43:55Z</time>
      </trkpt>
      <trkpt lat="42.90960498" lon="13.37953699">
        <ele>793.00000</ele>
        <time>2024-05-10T20:43:56Z</time>
      </trkpt>
      <trkpt lat="42.90959693" lon="13.37951294">
        <ele>793.00000</ele>
        <time>2024-05-10T20:43:56Z</time>
      </trkpt>
      <trkpt lat="42.90958796" lon="13.37949592">
        <ele>793.00000</ele>
        <time>2024-05-10T20:43:56Z</time>
      </trkpt>
      <trkpt lat="42.90958092" lon="13.37947497">
        <ele>793.00000</ele>
        <time>2024-05-10T20:43:57Z</time>
      </trkpt>
      <trkpt lat="42.90957598" lon="13.37945192">
        <ele>793.00000</ele>
        <time>2024-05-10T20:43:57Z</time>
      </trkpt>
      <trkpt lat="42.90956893" lon="13.37942996">
        <ele>794.00000</ele>
        <time>2024-05-10T20:43:57Z</time>
      </trkpt>
      <trkpt lat="42.90956298" lon="13.37940791">
        <ele>794.00000</ele>
        <time>2024-05-10T20:43:58Z</time>
      </trkpt>
      <trkpt lat="42.90955292" lon="13.37938293">
        <ele>794.00000</ele>
        <time>2024-05-10T20:43:58Z</time>
      </trkpt>
      <trkpt lat="42.90954597" lon="13.37936097">
        <ele>794.00000</ele>
        <time>2024-05-10T20:43:58Z</time>
      </trkpt>
      <trkpt lat="42.90953692" lon="13.37933993">
        <ele>795.00000</ele>
        <time>2024-05-10T20:43:59Z</time>
      </trkpt>
      <trkpt lat="42.90952795" lon="13.37931596">
        <ele>795.00000</ele>
        <time>2024-05-10T20:43:59Z</time>
      </trkpt>
      <trkpt lat="42.90951898" lon="13.37929199">
        <ele>795.00000</ele>
        <time>2024-05-10T20:44:00Z</time>
      </trkpt>
      <trkpt lat="42.90950993" lon="13.37927598">
        <ele>796.00000</ele>
        <time>2024-05-10T20:44:00Z</time>
      </trkpt>
      <trkpt lat="42.90950196" lon="13.37925695">
        <ele>796.00000</ele>
        <time>2024-05-10T20:44:00Z</time>
      </trkpt>
      <trkpt lat="42.90949492" lon="13.37923499">
        <ele>796.00000</ele>
        <time>2024-05-10T20:44:01Z</time>
      </trkpt>
      <trkpt lat="42.90948797" lon="13.37921395">
        <ele>797.00000</ele>
        <time>2024-05-10T20:44:01Z</time>
      </trkpt>
      <trkpt lat="42.90947992" lon="13.37919099">
        <ele>797.00000</ele>
        <time>2024-05-10T20:44:01Z</time>
      </trkpt>
      <trkpt lat="42.90947296" lon="13.37916593">
        <ele>797.00000</ele>
        <time>2024-05-10T20:44:02Z</time>
      </trkpt>
      <trkpt lat="42.90946592" lon="13.37914296">
        <ele>798.00000</ele>
        <time>2024-05-10T20:44:02Z</time>
      </trkpt>
      <trkpt lat="42.90945896" lon="13.37912192">
        <ele>798.00000</ele>
        <time>2024-05-10T20:44:02Z</time>
      </trkpt>
      <trkpt lat="42.90944991" lon="13.37909694">
        <ele>798.00000</ele>
        <time>2024-05-10T20:44:03Z</time>
      </trkpt>
      <trkpt lat="42.90943994" lon="13.37907297">
        <ele>798.00000</ele>
        <time>2024-05-10T20:44:03Z</time>
      </trkpt>
      <trkpt lat="42.90943399" lon="13.37905093">
        <ele>798.00000</ele>
        <time>2024-05-10T20:44:03Z</time>
      </trkpt>
      <trkpt lat="42.90942694" lon="13.37902997">
        <ele>799.00000</ele>
        <time>2024-05-10T20:44:04Z</time>
      </trkpt>
      <trkpt lat="42.90941999" lon="13.37900592">
        <ele>799.00000</ele>
        <time>2024-05-10T20:44:04Z</time>
      </trkpt>
      <trkpt lat="42.90941295" lon="13.37898295">
        <ele>799.00000</ele>
        <time>2024-05-10T20:44:05Z</time>
      </trkpt>
      <trkpt lat="42.90940398" lon="13.37895998">
        <ele>799.00000</ele>
        <time>2024-05-10T20:44:05Z</time>
      </trkpt>
      <trkpt lat="42.90939199" lon="13.37893894">
        <ele>799.00000</ele>
        <time>2024-05-10T20:44:05Z</time>
      </trkpt>
      <trkpt lat="42.90938193" lon="13.37891799">
        <ele>800.00000</ele>
        <time>2024-05-10T20:44:06Z</time>
      </trkpt>
      <trkpt lat="42.90937095" lon="13.37889796">
        <ele>800.00000</ele>
        <time>2024-05-10T20:44:06Z</time>
      </trkpt>
      <trkpt lat="42.90936391" lon="13.37887499">
        <ele>800.00000</ele>
        <time>2024-05-10T20:44:06Z</time>
      </trkpt>
      <trkpt lat="42.90935696" lon="13.37884993">
        <ele>800.00000</ele>
        <time>2024-05-10T20:44:07Z</time>
      </trkpt>
      <trkpt lat="42.90934899" lon="13.37882294">
        <ele>800.00000</ele>
        <time>2024-05-10T20:44:07Z</time>
      </trkpt>
      <trkpt lat="42.90934296" lon="13.37879695">
        <ele>800.00000</ele>
        <time>2024-05-10T20:44:08Z</time>
      </trkpt>
      <trkpt lat="42.90933491" lon="13.37877499">
        <ele>800.00000</ele>
        <time>2024-05-10T20:44:08Z</time>
      </trkpt>
      <trkpt lat="42.90932594" lon="13.37875496">
        <ele>800.00000</ele>
        <time>2024-05-10T20:44:08Z</time>
      </trkpt>
      <trkpt lat="42.90931597" lon="13.37873099">
        <ele>800.00000</ele>
        <time>2024-05-10T20:44:09Z</time>
      </trkpt>
      <trkpt lat="42.90930993" lon="13.37870995">
        <ele>800.00000</ele>
        <time>2024-05-10T20:44:09Z</time>
      </trkpt>
      <trkpt lat="42.90930197" lon="13.37868497">
        <ele>800.00000</ele>
        <time>2024-05-10T20:44:09Z</time>
      </trkpt>
      <trkpt lat="42.90929493" lon="13.37865899">
        <ele>800.00000</ele>
        <time>2024-05-10T20:44:10Z</time>
      </trkpt>
      <trkpt lat="42.90928596" lon="13.37863694">
        <ele>800.00000</ele>
        <time>2024-05-10T20:44:10Z</time>
      </trkpt>
      <trkpt lat="42.90927699" lon="13.37861699">
        <ele>800.00000</ele>
        <time>2024-05-10T20:44:11Z</time>
      </trkpt>
      <trkpt lat="42.90927096" lon="13.37859294">
        <ele>801.00000</ele>
        <time>2024-05-10T20:44:11Z</time>
      </trkpt>
      <trkpt lat="42.90926199" lon="13.37857492">
        <ele>801.00000</ele>
        <time>2024-05-10T20:44:11Z</time>
      </trkpt>
      <trkpt lat="42.90925193" lon="13.37855698">
        <ele>801.00000</ele>
        <time>2024-05-10T20:44:12Z</time>
      </trkpt>
      <trkpt lat="42.90924296" lon="13.37853393">
        <ele>801.00000</ele>
        <time>2024-05-10T20:44:12Z</time>
      </trkpt>
      <trkpt lat="42.90923399" lon="13.37851197">
        <ele>801.00000</ele>
        <time>2024-05-10T20:44:12Z</time>
      </trkpt>
      <trkpt lat="42.90922695" lon="13.37849294">
        <ele>802.00000</ele>
        <time>2024-05-10T20:44:13Z</time>
      </trkpt>
      <trkpt lat="42.90921899" lon="13.37846998">
        <ele>802.00000</ele>
        <time>2024-05-10T20:44:13Z</time>
      </trkpt>
      <trkpt lat="42.90920994" lon="13.37844693">
        <ele>802.00000</ele>
        <time>2024-05-10T20:44:13Z</time>
      </trkpt>
      <trkpt lat="42.90920197" lon="13.37842396">
        <ele>802.00000</ele>
        <time>2024-05-10T20:44:14Z</time>
      </trkpt>
      <trkpt lat="42.90919099" lon="13.37840393">
        <ele>803.00000</ele>
        <time>2024-05-10T20:44:14Z</time>
      </trkpt>
      <trkpt lat="42.90918295" lon="13.37838197">
        <ele>803.00000</ele>
        <time>2024-05-10T20:44:15Z</time>
      </trkpt>
      <trkpt lat="42.90917498" lon="13.37836093">
        <ele>803.00000</ele>
        <time>2024-05-10T20:44:15Z</time>
      </trkpt>
      <trkpt lat="42.90916794" lon="13.37833696">
        <ele>803.00000</ele>
        <time>2024-05-10T20:44:15Z</time>
      </trkpt>
      <trkpt lat="42.90916199" lon="13.37831399">
        <ele>804.00000</ele>
        <time>2024-05-10T20:44:16Z</time>
      </trkpt>
      <trkpt lat="42.90915596" lon="13.37829094">
        <ele>804.00000</ele>
        <time>2024-05-10T20:44:16Z</time>
      </trkpt>
      <trkpt lat="42.90914699" lon="13.37827795">
        <ele>805.00000</ele>
        <time>2024-05-10T20:44:16Z</time>
      </trkpt>
      <trkpt lat="42.90913794" lon="13.37826898">
        <ele>805.00000</ele>
        <time>2024-05-10T20:44:16Z</time>
      </trkpt>
      <trkpt lat="42.90913391" lon="13.37825397">
        <ele>805.00000</ele>
        <time>2024-05-10T20:44:17Z</time>
      </trkpt>
      <trkpt lat="42.90912595" lon="13.37823495">
        <ele>805.00000</ele>
        <time>2024-05-10T20:44:17Z</time>
      </trkpt>
      <trkpt lat="42.90911799" lon="13.37821491">
        <ele>806.00000</ele>
        <time>2024-05-10T20:44:17Z</time>
      </trkpt>
      <trkpt lat="42.90911095" lon="13.37819798">
        <ele>806.00000</ele>
        <time>2024-05-10T20:44:18Z</time>
      </trkpt>
      <trkpt lat="42.90910491" lon="13.37817694">
        <ele>807.00000</ele>
        <time>2024-05-10T20:44:18Z</time>
      </trkpt>
      <trkpt lat="42.90909997" lon="13.37815297">
        <ele>807.00000</ele>
        <time>2024-05-10T20:44:18Z</time>
      </trkpt>
      <trkpt lat="42.90909091" lon="13.37812992">
        <ele>807.00000</ele>
        <time>2024-05-10T20:44:19Z</time>
      </trkpt>
      <trkpt lat="42.90908195" lon="13.37811592">
        <ele>808.00000</ele>
        <time>2024-05-10T20:44:19Z</time>
      </trkpt>
      <trkpt lat="42.90907398" lon="13.37809396">
        <ele>808.00000</ele>
        <time>2024-05-10T20:44:19Z</time>
      </trkpt>
      <trkpt lat="42.90906895" lon="13.37806999">
        <ele>809.00000</ele>
        <time>2024-05-10T20:44:20Z</time>
      </trkpt>
      <trkpt lat="42.90906099" lon="13.37805096">
        <ele>809.00000</ele>
        <time>2024-05-10T20:44:20Z</time>
      </trkpt>
      <trkpt lat="42.90905395" lon="13.37802498">
        <ele>809.00000</ele>
        <time>2024-05-10T20:44:20Z</time>
      </trkpt>
      <trkpt lat="42.90904498" lon="13.37799799">
        <ele>809.00000</ele>
        <time>2024-05-10T20:44:21Z</time>
      </trkpt>
      <trkpt lat="42.90904096" lon="13.37796991">
        <ele>810.00000</ele>
        <time>2024-05-10T20:44:21Z</time>
      </trkpt>
      <trkpt lat="42.90903291" lon="13.37793999">
        <ele>810.00000</ele>
        <time>2024-05-10T20:44:22Z</time>
      </trkpt>
      <trkpt lat="42.90902595" lon="13.37791593">
        <ele>810.00000</ele>
        <time>2024-05-10T20:44:22Z</time>
      </trkpt>
      <trkpt lat="42.90901799" lon="13.37788794">
        <ele>810.00000</ele>
        <time>2024-05-10T20:44:23Z</time>
      </trkpt>
      <trkpt lat="42.90901095" lon="13.37785994">
        <ele>811.00000</ele>
        <time>2024-05-10T20:44:23Z</time>
      </trkpt>
      <trkpt lat="42.90900693" lon="13.37783496">
        <ele>811.00000</ele>
        <time>2024-05-10T20:44:23Z</time>
      </trkpt>
      <trkpt lat="42.90900198" lon="13.37781099">
        <ele>811.00000</ele>
        <time>2024-05-10T20:44:24Z</time>
      </trkpt>
      <trkpt lat="42.90899394" lon="13.37778794">
        <ele>811.00000</ele>
        <time>2024-05-10T20:44:24Z</time>
      </trkpt>
      <trkpt lat="42.90898899" lon="13.37775995">
        <ele>811.00000</ele>
        <time>2024-05-10T20:44:25Z</time>
      </trkpt>
      <trkpt lat="42.90898195" lon="13.37773396">
        <ele>812.00000</ele>
        <time>2024-05-10T20:44:25Z</time>
      </trkpt>
      <trkpt lat="42.90897692" lon="13.37770194">
        <ele>812.00000</ele>
        <time>2024-05-10T20:44:25Z</time>
      </trkpt>
      <trkpt lat="42.90897198" lon="13.37767093">
        <ele>812.00000</ele>
        <time>2024-05-10T20:44:26Z</time>
      </trkpt>
      <trkpt lat="42.90896393" lon="13.37764394">
        <ele>812.00000</ele>
        <time>2024-05-10T20:44:26Z</time>
      </trkpt>
      <trkpt lat="42.90895898" lon="13.37761997">
        <ele>813.00000</ele>
        <time>2024-05-10T20:44:27Z</time>
      </trkpt>
      <trkpt lat="42.90895798" lon="13.37759398">
        <ele>813.00000</ele>
        <time>2024-05-10T20:44:27Z</time>
      </trkpt>
      <trkpt lat="42.90895395" lon="13.37756599">
        <ele>813.00000</ele>
        <time>2024-05-10T20:44:28Z</time>
      </trkpt>
      <trkpt lat="42.90894599" lon="13.37754093">
        <ele>813.00000</ele>
        <time>2024-05-10T20:44:28Z</time>
      </trkpt>
      <trkpt lat="42.90893895" lon="13.37751394">
        <ele>814.00000</ele>
        <time>2024-05-10T20:44:28Z</time>
      </trkpt>
      <trkpt lat="42.90893694" lon="13.37748695">
        <ele>814.00000</ele>
        <time>2024-05-10T20:44:29Z</time>
      </trkpt>
      <trkpt lat="42.90893694" lon="13.37745593">
        <ele>814.00000</ele>
        <time>2024-05-10T20:44:29Z</time>
      </trkpt>
      <trkpt lat="42.90893392" lon="13.37742492">
        <ele>814.00000</ele>
        <time>2024-05-10T20:44:30Z</time>
      </trkpt>
      <trkpt lat="42.90892696" lon="13.37739491">
        <ele>814.00000</ele>
        <time>2024-05-10T20:44:30Z</time>
      </trkpt>
      <trkpt lat="42.90892596" lon="13.37736792">
        <ele>814.00000</ele>
        <time>2024-05-10T20:44:31Z</time>
      </trkpt>
      <trkpt lat="42.90892696" lon="13.37734093">
        <ele>814.00000</ele>
        <time>2024-05-10T20:44:31Z</time>
      </trkpt>
      <trkpt lat="42.90892596" lon="13.37731294">
        <ele>814.00000</ele>
        <time>2024-05-10T20:44:31Z</time>
      </trkpt>
      <trkpt lat="42.90892194" lon="13.37728796">
        <ele>814.00000</ele>
        <time>2024-05-10T20:44:32Z</time>
      </trkpt>
      <trkpt lat="42.90891892" lon="13.37725996">
        <ele>814.00000</ele>
        <time>2024-05-10T20:44:32Z</time>
      </trkpt>
      <trkpt lat="42.90891196" lon="13.37723096">
        <ele>815.00000</ele>
        <time>2024-05-10T20:44:33Z</time>
      </trkpt>
      <trkpt lat="42.90890995" lon="13.37719995">
        <ele>815.00000</ele>
        <time>2024-05-10T20:44:33Z</time>
      </trkpt>
      <trkpt lat="42.90890995" lon="13.37716894">
        <ele>814.00000</ele>
        <time>2024-05-10T20:44:33Z</time>
      </trkpt>
      <trkpt lat="42.90890693" lon="13.37713591">
        <ele>814.00000</ele>
        <time>2024-05-10T20:44:34Z</time>
      </trkpt>
      <trkpt lat="42.90890199" lon="13.37710498">
        <ele>814.00000</ele>
        <time>2024-05-10T20:44:34Z</time>
      </trkpt>
      <trkpt lat="42.90890199" lon="13.37707296">
        <ele>814.00000</ele>
        <time>2024-05-10T20:44:35Z</time>
      </trkpt>
      <trkpt lat="42.90889997" lon="13.37703692">
        <ele>813.00000</ele>
        <time>2024-05-10T20:44:35Z</time>
      </trkpt>
      <trkpt lat="42.90889394" lon="13.37700993">
        <ele>813.00000</ele>
        <time>2024-05-10T20:44:36Z</time>
      </trkpt>
      <trkpt lat="42.90889193" lon="13.37697791">
        <ele>813.00000</ele>
        <time>2024-05-10T20:44:36Z</time>
      </trkpt>
      <trkpt lat="42.90888799" lon="13.37694296">
        <ele>812.00000</ele>
        <time>2024-05-10T20:44:37Z</time>
      </trkpt>
      <trkpt lat="42.90888497" lon="13.37690994">
        <ele>812.00000</ele>
        <time>2024-05-10T20:44:37Z</time>
      </trkpt>
      <trkpt lat="42.90888397" lon="13.37687792">
        <ele>812.00000</ele>
        <time>2024-05-10T20:44:38Z</time>
      </trkpt>
      <trkpt lat="42.90887994" lon="13.37684498">
        <ele>812.00000</ele>
        <time>2024-05-10T20:44:38Z</time>
      </trkpt>
      <trkpt lat="42.90887793" lon="13.37681899">
        <ele>811.00000</ele>
        <time>2024-05-10T20:44:39Z</time>
      </trkpt>
      <trkpt lat="42.90887592" lon="13.37678496">
        <ele>811.00000</ele>
        <time>2024-05-10T20:44:39Z</time>
      </trkpt>
      <trkpt lat="42.90887491" lon="13.37674993">
        <ele>811.00000</ele>
        <time>2024-05-10T20:44:40Z</time>
      </trkpt>
      <trkpt lat="42.90887399" lon="13.37671799">
        <ele>810.00000</ele>
        <time>2024-05-10T20:44:40Z</time>
      </trkpt>
      <trkpt lat="42.90887298" lon="13.37668991">
        <ele>810.00000</ele>
        <time>2024-05-10T20:44:41Z</time>
      </trkpt>
      <trkpt lat="42.90887491" lon="13.37665898">
        <ele>810.00000</ele>
        <time>2024-05-10T20:44:41Z</time>
      </trkpt>
      <trkpt lat="42.90887399" lon="13.37662696">
        <ele>809.00000</ele>
        <time>2024-05-10T20:44:41Z</time>
      </trkpt>
      <trkpt lat="42.90887491" lon="13.37659796">
        <ele>809.00000</ele>
        <time>2024-05-10T20:44:42Z</time>
      </trkpt>
      <trkpt lat="42.90887592" lon="13.37656896">
        <ele>808.00000</ele>
        <time>2024-05-10T20:44:42Z</time>
      </trkpt>
      <trkpt lat="42.90887399" lon="13.37654298">
        <ele>808.00000</ele>
        <time>2024-05-10T20:44:43Z</time>
      </trkpt>
      <trkpt lat="42.90886997" lon="13.37651993">
        <ele>808.00000</ele>
        <time>2024-05-10T20:44:43Z</time>
      </trkpt>
      <trkpt lat="42.90886594" lon="13.37649495">
        <ele>807.00000</ele>
        <time>2024-05-10T20:44:43Z</time>
      </trkpt>
      <trkpt lat="42.90886293" lon="13.37647198">
        <ele>807.00000</ele>
        <time>2024-05-10T20:44:44Z</time>
      </trkpt>
      <trkpt lat="42.90885999" lon="13.37644893">
        <ele>807.00000</ele>
        <time>2024-05-10T20:44:44Z</time>
      </trkpt>
      <trkpt lat="42.90885597" lon="13.37643099">
        <ele>806.00000</ele>
        <time>2024-05-10T20:44:44Z</time>
      </trkpt>
      <trkpt lat="42.90885798" lon="13.37641892">
        <ele>806.00000</ele>
        <time>2024-05-10T20:44:45Z</time>
      </trkpt>
      <trkpt lat="42.90885798" lon="13.37641096">
        <ele>806.00000</ele>
        <time>2024-05-10T20:44:45Z</time>
      </trkpt>
      <trkpt lat="42.90882496" lon="13.37638095">
        <ele>805.00000</ele>
        <time>2024-05-10T20:44:46Z</time>
      </trkpt>
      <trkpt lat="42.90878397" lon="13.37636495">
        <ele>805.00000</ele>
        <time>2024-05-10T20:44:46Z</time>
      </trkpt>
      <trkpt lat="42.90876092" lon="13.37635992">
        <ele>805.00000</ele>
        <time>2024-05-10T20:44:47Z</time>
      </trkpt>
      <trkpt lat="42.90873594" lon="13.37636092">
        <ele>805.00000</ele>
        <time>2024-05-10T20:44:47Z</time>
      </trkpt>
      <trkpt lat="42.90870593" lon="13.37636897">
        <ele>805.00000</ele>
        <time>2024-05-10T20:44:48Z</time>
      </trkpt>
      <trkpt lat="42.90867492" lon="13.37637391">
        <ele>806.00000</ele>
        <time>2024-05-10T20:44:49Z</time>
      </trkpt>
      <trkpt lat="42.90863896" lon="13.37638791">
        <ele>806.00000</ele>
        <time>2024-05-10T20:44:49Z</time>
      </trkpt>
      <trkpt lat="42.90859999" lon="13.37640392">
        <ele>807.00000</ele>
        <time>2024-05-10T20:44:50Z</time>
      </trkpt>
      <trkpt lat="42.90856093" lon="13.37641599">
        <ele>808.00000</ele>
        <time>2024-05-10T20:44:51Z</time>
      </trkpt>
      <trkpt lat="42.90852698" lon="13.37642898">
        <ele>809.00000</ele>
        <time>2024-05-10T20:44:52Z</time>
      </trkpt>
      <trkpt lat="42.90849094" lon="13.37643996">
        <ele>809.00000</ele>
        <time>2024-05-10T20:44:52Z</time>
      </trkpt>
      <trkpt lat="42.90845791" lon="13.37645396">
        <ele>810.00000</ele>
        <time>2024-05-10T20:44:53Z</time>
      </trkpt>
      <trkpt lat="42.90842095" lon="13.37646796">
        <ele>811.00000</ele>
        <time>2024-05-10T20:44:54Z</time>
      </trkpt>
      <trkpt lat="42.90838792" lon="13.37648497">
        <ele>812.00000</ele>
        <time>2024-05-10T20:44:55Z</time>
      </trkpt>
      <trkpt lat="42.90835892" lon="13.37649998">
        <ele>812.00000</ele>
        <time>2024-05-10T20:44:55Z</time>
      </trkpt>
      <trkpt lat="42.90832992" lon="13.37651096">
        <ele>813.00000</ele>
        <time>2024-05-10T20:44:56Z</time>
      </trkpt>
      <trkpt lat="42.90829899" lon="13.37652898">
        <ele>813.00000</ele>
        <time>2024-05-10T20:44:56Z</time>
      </trkpt>
      <trkpt lat="42.90826496" lon="13.37654398">
        <ele>813.00000</ele>
        <time>2024-05-10T20:44:57Z</time>
      </trkpt>
      <trkpt lat="42.90822791" lon="13.37655798">
        <ele>814.00000</ele>
        <time>2024-05-10T20:44:58Z</time>
      </trkpt>
      <trkpt lat="42.90818491" lon="13.37657592">
        <ele>814.00000</ele>
        <time>2024-05-10T20:44:59Z</time>
      </trkpt>
      <trkpt lat="42.90813798" lon="13.37658799">
        <ele>814.00000</ele>
        <time>2024-05-10T20:45:00Z</time>
      </trkpt>
      <trkpt lat="42.90808894" lon="13.37659796">
        <ele>815.00000</ele>
        <time>2024-05-10T20:45:01Z</time>
      </trkpt>
      <trkpt lat="42.90804192" lon="13.37660299">
        <ele>815.00000</ele>
        <time>2024-05-10T20:45:02Z</time>
      </trkpt>
      <trkpt lat="42.90799498" lon="13.37660391">
        <ele>815.00000</ele>
        <time>2024-05-10T20:45:03Z</time>
      </trkpt>
      <trkpt lat="42.90794997" lon="13.37659997">
        <ele>815.00000</ele>
        <time>2024-05-10T20:45:04Z</time>
      </trkpt>
      <trkpt lat="42.90790898" lon="13.37658598">
        <ele>815.00000</ele>
        <time>2024-05-10T20:45:04Z</time>
      </trkpt>
      <trkpt lat="42.90786699" lon="13.37656896">
        <ele>815.00000</ele>
        <time>2024-05-10T20:45:05Z</time>
      </trkpt>
      <trkpt lat="42.90782793" lon="13.37654792">
        <ele>815.00000</ele>
        <time>2024-05-10T20:45:06Z</time>
      </trkpt>
      <trkpt lat="42.90778996" lon="13.37652395">
        <ele>814.00000</ele>
        <time>2024-05-10T20:45:07Z</time>
      </trkpt>
      <trkpt lat="42.90775593" lon="13.37649797">
        <ele>814.00000</ele>
        <time>2024-05-10T20:45:08Z</time>
      </trkpt>
      <trkpt lat="42.90772198" lon="13.37647399">
        <ele>815.00000</ele>
        <time>2024-05-10T20:45:08Z</time>
      </trkpt>
      <trkpt lat="42.90768795" lon="13.37645497">
        <ele>815.00000</ele>
        <time>2024-05-10T20:45:09Z</time>
      </trkpt>
      <trkpt lat="42.90765199" lon="13.37643896">
        <ele>816.00000</ele>
        <time>2024-05-10T20:45:10Z</time>
      </trkpt>
      <trkpt lat="42.90761696" lon="13.37641197">
        <ele>816.00000</ele>
        <time>2024-05-10T20:45:11Z</time>
      </trkpt>
      <trkpt lat="42.90758896" lon="13.37638598">
        <ele>816.00000</ele>
        <time>2024-05-10T20:45:11Z</time>
      </trkpt>
      <trkpt lat="42.90754898" lon="13.37635698">
        <ele>816.00000</ele>
        <time>2024-05-10T20:45:12Z</time>
      </trkpt>
      <trkpt lat="42.90750497" lon="13.37632698">
        <ele>817.00000</ele>
        <time>2024-05-10T20:45:13Z</time>
      </trkpt>
      <trkpt lat="42.90746097" lon="13.37629898">
        <ele>817.00000</ele>
        <time>2024-05-10T20:45:14Z</time>
      </trkpt>
      <trkpt lat="42.90741696" lon="13.37626897">
        <ele>817.00000</ele>
        <time>2024-05-10T20:45:15Z</time>
      </trkpt>
      <trkpt lat="42.90737698" lon="13.37623293">
        <ele>816.00000</ele>
        <time>2024-05-10T20:45:16Z</time>
      </trkpt>
      <trkpt lat="42.90733792" lon="13.37619094">
        <ele>815.00000</ele>
        <time>2024-05-10T20:45:17Z</time>
      </trkpt>
      <trkpt lat="42.90729794" lon="13.37614199">
        <ele>814.00000</ele>
        <time>2024-05-10T20:45:18Z</time>
      </trkpt>
      <trkpt lat="42.90725997" lon="13.37609295">
        <ele>813.00000</ele>
        <time>2024-05-10T20:45:19Z</time>
      </trkpt>
      <trkpt lat="42.90721999" lon="13.37604593">
        <ele>812.00000</ele>
        <time>2024-05-10T20:45:20Z</time>
      </trkpt>
      <trkpt lat="42.90717598" lon="13.37600595">
        <ele>810.00000</ele>
        <time>2024-05-10T20:45:21Z</time>
      </trkpt>
      <trkpt lat="42.90712494" lon="13.37596697">
        <ele>809.00000</ele>
        <time>2024-05-10T20:45:23Z</time>
      </trkpt>
      <trkpt lat="42.90706694" lon="13.37592791">
        <ele>807.00000</ele>
        <time>2024-05-10T20:45:24Z</time>
      </trkpt>
      <trkpt lat="42.90700298" lon="13.37589397">
        <ele>805.00000</ele>
        <time>2024-05-10T20:45:25Z</time>
      </trkpt>
      <trkpt lat="42.90693098" lon="13.37586899">
        <ele>804.00000</ele>
        <time>2024-05-10T20:45:27Z</time>
      </trkpt>
      <trkpt lat="42.90685596" lon="13.37585398">
        <ele>804.00000</ele>
        <time>2024-05-10T20:45:28Z</time>
      </trkpt>
      <trkpt lat="42.90677692" lon="13.37585591">
        <ele>805.00000</ele>
        <time>2024-05-10T20:45:30Z</time>
      </trkpt>
      <trkpt lat="42.90668598" lon="13.37587896">
        <ele>806.00000</ele>
        <time>2024-05-10T20:45:32Z</time>
      </trkpt>
      <trkpt lat="42.90659897" lon="13.37591794">
        <ele>806.00000</ele>
        <time>2024-05-10T20:45:34Z</time>
      </trkpt>
      <trkpt lat="42.90650795" lon="13.37596597">
        <ele>806.00000</ele>
        <time>2024-05-10T20:45:36Z</time>
      </trkpt>
      <trkpt lat="42.90642698" lon="13.37600997">
        <ele>805.00000</ele>
        <time>2024-05-10T20:45:37Z</time>
      </trkpt>
      <trkpt lat="42.90634492" lon="13.37604291">
        <ele>804.00000</ele>
        <time>2024-05-10T20:45:39Z</time>
      </trkpt>
      <trkpt lat="42.90626395" lon="13.37607795">
        <ele>803.00000</ele>
        <time>2024-05-10T20:45:41Z</time>
      </trkpt>
      <trkpt lat="42.90617695" lon="13.37610192">
        <ele>802.00000</ele>
        <time>2024-05-10T20:45:42Z</time>
      </trkpt>
      <trkpt lat="42.90608592" lon="13.37609094">
        <ele>800.00000</ele>
        <time>2024-05-10T20:45:44Z</time>
      </trkpt>
      <trkpt lat="42.90599397" lon="13.37604995">
        <ele>798.00000</ele>
        <time>2024-05-10T20:45:46Z</time>
      </trkpt>
      <trkpt lat="42.90590495" lon="13.37598499">
        <ele>797.00000</ele>
        <time>2024-05-10T20:45:48Z</time>
      </trkpt>
      <trkpt lat="42.90581996" lon="13.37589598">
        <ele>796.00000</ele>
        <time>2024-05-10T20:45:50Z</time>
      </trkpt>
      <trkpt lat="42.90573991" lon="13.37579992">
        <ele>794.00000</ele>
        <time>2024-05-10T20:45:53Z</time>
      </trkpt>
      <trkpt lat="42.90566892" lon="13.37569297">
        <ele>792.00000</ele>
        <time>2024-05-10T20:45:55Z</time>
      </trkpt>
      <trkpt lat="42.90560295" lon="13.37557093">
        <ele>791.00000</ele>
        <time>2024-05-10T20:45:57Z</time>
      </trkpt>
      <trkpt lat="42.90555099" lon="13.37544696">
        <ele>791.00000</ele>
        <time>2024-05-10T20:45:59Z</time>
      </trkpt>
      <trkpt lat="42.90550497" lon="13.37531897">
        <ele>792.00000</ele>
        <time>2024-05-10T20:46:01Z</time>
      </trkpt>
      <trkpt lat="42.90547697" lon="13.37518494">
        <ele>793.00000</ele>
        <time>2024-05-10T20:46:03Z</time>
      </trkpt>
      <trkpt lat="42.90545392" lon="13.37504697">
        <ele>794.00000</ele>
        <time>2024-05-10T20:46:05Z</time>
      </trkpt>
      <trkpt lat="42.90544596" lon="13.37491597">
        <ele>795.00000</ele>
        <time>2024-05-10T20:46:07Z</time>
      </trkpt>
      <trkpt lat="42.90545292" lon="13.37479099">
        <ele>795.00000</ele>
        <time>2024-05-10T20:46:09Z</time>
      </trkpt>
      <trkpt lat="42.90546499" lon="13.37466694">
        <ele>794.00000</ele>
        <time>2024-05-10T20:46:11Z</time>
      </trkpt>
      <trkpt lat="42.90547697" lon="13.37453694">
        <ele>794.00000</ele>
        <time>2024-05-10T20:46:13Z</time>
      </trkpt>
      <trkpt lat="42.90547798" lon="13.37440794">
        <ele>794.00000</ele>
        <time>2024-05-10T20:46:15Z</time>
      </trkpt>
      <trkpt lat="42.90547194" lon="13.37428799">
        <ele>794.00000</ele>
        <time>2024-05-10T20:46:16Z</time>
      </trkpt>
      <trkpt lat="42.90544898" lon="13.37416897">
        <ele>795.00000</ele>
        <time>2024-05-10T20:46:18Z</time>
      </trkpt>
      <trkpt lat="42.90542299" lon="13.37405799">
        <ele>796.00000</ele>
        <time>2024-05-10T20:46:20Z</time>
      </trkpt>
      <trkpt lat="42.90541495" lon="13.37393595">
        <ele>796.00000</ele>
        <time>2024-05-10T20:46:22Z</time>
      </trkpt>
      <trkpt lat="42.90541696" lon="13.37382196">
        <ele>795.00000</ele>
        <time>2024-05-10T20:46:23Z</time>
      </trkpt>
      <trkpt lat="42.90544194" lon="13.37372096">
        <ele>794.00000</ele>
        <time>2024-05-10T20:46:25Z</time>
      </trkpt>
      <trkpt lat="42.90547597" lon="13.37362398">
        <ele>792.00000</ele>
        <time>2024-05-10T20:46:27Z</time>
      </trkpt>
      <trkpt lat="42.90550497" lon="13.37352893">
        <ele>791.00000</ele>
        <time>2024-05-10T20:46:28Z</time>
      </trkpt>
      <trkpt lat="42.90553095" lon="13.37343698">
        <ele>789.00000</ele>
        <time>2024-05-10T20:46:29Z</time>
      </trkpt>
      <trkpt lat="42.90555995" lon="13.37334092">
        <ele>788.00000</ele>
        <time>2024-05-10T20:46:31Z</time>
      </trkpt>
      <trkpt lat="42.90558191" lon="13.37323196">
        <ele>786.00000</ele>
        <time>2024-05-10T20:46:33Z</time>
      </trkpt>
      <trkpt lat="42.90560597" lon="13.37310799">
        <ele>784.00000</ele>
        <time>2024-05-10T20:46:35Z</time>
      </trkpt>
      <trkpt lat="42.90565299" lon="13.37297799">
        <ele>781.00000</ele>
        <time>2024-05-10T20:46:37Z</time>
      </trkpt>
      <trkpt lat="42.90572298" lon="13.37285695">
        <ele>779.00000</ele>
        <time>2024-05-10T20:46:39Z</time>
      </trkpt>
      <trkpt lat="42.90579892" lon="13.37275695">
        <ele>779.00000</ele>
        <time>2024-05-10T20:46:41Z</time>
      </trkpt>
      <trkpt lat="42.90587092" lon="13.37264598">
        <ele>778.00000</ele>
        <time>2024-05-10T20:46:43Z</time>
      </trkpt>
      <trkpt lat="42.90593295" lon="13.37252997">
        <ele>779.00000</ele>
        <time>2024-05-10T20:46:45Z</time>
      </trkpt>
      <trkpt lat="42.90598299" lon="13.37241095">
        <ele>779.00000</ele>
        <time>2024-05-10T20:46:47Z</time>
      </trkpt>
      <trkpt lat="42.90602297" lon="13.37229092">
        <ele>780.00000</ele>
        <time>2024-05-10T20:46:49Z</time>
      </trkpt>
      <trkpt lat="42.90606195" lon="13.37217399">
        <ele>782.00000</ele>
        <time>2024-05-10T20:46:51Z</time>
      </trkpt>
      <trkpt lat="42.90610997" lon="13.37207593">
        <ele>784.00000</ele>
        <time>2024-05-10T20:46:53Z</time>
      </trkpt>
      <trkpt lat="42.90616798" lon="13.37199496">
        <ele>785.00000</ele>
        <time>2024-05-10T20:46:55Z</time>
      </trkpt>
      <trkpt lat="42.90622699" lon="13.37193494">
        <ele>786.00000</ele>
        <time>2024-05-10T20:46:56Z</time>
      </trkpt>
      <trkpt lat="42.90627493" lon="13.37190192">
        <ele>787.00000</ele>
        <time>2024-05-10T20:46:57Z</time>
      </trkpt>
      <trkpt lat="42.90632095" lon="13.37188499">
        <ele>788.00000</ele>
        <time>2024-05-10T20:46:58Z</time>
      </trkpt>
      <trkpt lat="42.90636093" lon="13.37186998">
        <ele>788.00000</ele>
        <time>2024-05-10T20:46:59Z</time>
      </trkpt>
      <trkpt lat="42.90639395" lon="13.37184894">
        <ele>788.00000</ele>
        <time>2024-05-10T20:47:00Z</time>
      </trkpt>
      <trkpt lat="42.90642396" lon="13.37182899">
        <ele>788.00000</ele>
        <time>2024-05-10T20:47:00Z</time>
      </trkpt>
      <trkpt lat="42.90644793" lon="13.37179597">
        <ele>789.00000</ele>
        <time>2024-05-10T20:47:01Z</time>
      </trkpt>
      <trkpt lat="42.90646495" lon="13.37175297">
        <ele>789.00000</ele>
        <time>2024-05-10T20:47:02Z</time>
      </trkpt>
      <trkpt lat="42.90647098" lon="13.37171198">
        <ele>790.00000</ele>
        <time>2024-05-10T20:47:02Z</time>
      </trkpt>
      <trkpt lat="42.90647098" lon="13.37167192">
        <ele>790.00000</ele>
        <time>2024-05-10T20:47:03Z</time>
      </trkpt>
      <trkpt lat="42.90646595" lon="13.37163093">
        <ele>791.00000</ele>
        <time>2024-05-10T20:47:03Z</time>
      </trkpt>
      <trkpt lat="42.90646495" lon="13.37159992">
        <ele>791.00000</ele>
        <time>2024-05-10T20:47:04Z</time>
      </trkpt>
      <trkpt lat="42.90646193" lon="13.37156698">
        <ele>791.00000</ele>
        <time>2024-05-10T20:47:04Z</time>
      </trkpt>
      <trkpt lat="42.90645799" lon="13.37153295">
        <ele>792.00000</ele>
        <time>2024-05-10T20:47:05Z</time>
      </trkpt>
      <trkpt lat="42.90645397" lon="13.37149799">
        <ele>792.00000</ele>
        <time>2024-05-10T20:47:05Z</time>
      </trkpt>
      <trkpt lat="42.90644994" lon="13.37146597">
        <ele>792.00000</ele>
        <time>2024-05-10T20:47:06Z</time>
      </trkpt>
      <trkpt lat="42.90644793" lon="13.37143798">
        <ele>793.00000</ele>
        <time>2024-05-10T20:47:06Z</time>
      </trkpt>
      <trkpt lat="42.90644894" lon="13.37140194">
        <ele>793.00000</ele>
        <time>2024-05-10T20:47:07Z</time>
      </trkpt>
      <trkpt lat="42.90645196" lon="13.37136296">
        <ele>794.00000</ele>
        <time>2024-05-10T20:47:07Z</time>
      </trkpt>
      <trkpt lat="42.90646193" lon="13.37131493">
        <ele>794.00000</ele>
        <time>2024-05-10T20:47:08Z</time>
      </trkpt>
      <trkpt lat="42.90647593" lon="13.37126992">
        <ele>795.00000</ele>
        <time>2024-05-10T20:47:09Z</time>
      </trkpt>
      <trkpt lat="42.90649496" lon="13.37122592">
        <ele>796.00000</ele>
        <time>2024-05-10T20:47:10Z</time>
      </trkpt>
      <trkpt lat="42.90651599" lon="13.37119197">
        <ele>796.00000</ele>
        <time>2024-05-10T20:47:10Z</time>
      </trkpt>
      <trkpt lat="42.90653192" lon="13.37116993">
        <ele>796.00000</ele>
        <time>2024-05-10T20:47:11Z</time>
      </trkpt>
      <trkpt lat="42.90655095" lon="13.37114595">
        <ele>796.00000</ele>
        <time>2024-05-10T20:47:11Z</time>
      </trkpt>
      <trkpt lat="42.90657098" lon="13.37112098">
        <ele>796.00000</ele>
        <time>2024-05-10T20:47:12Z</time>
      </trkpt>
      <trkpt lat="42.90659093" lon="13.37109399">
        <ele>796.00000</ele>
        <time>2024-05-10T20:47:12Z</time>
      </trkpt>
      <trkpt lat="42.90659998" lon="13.37106599">
        <ele>797.00000</ele>
        <time>2024-05-10T20:47:13Z</time>
      </trkpt>
      <trkpt lat="42.90660995" lon="13.37103095">
        <ele>798.00000</ele>
        <time>2024-05-10T20:47:13Z</time>
      </trkpt>
      <trkpt lat="42.90662094" lon="13.37099692">
        <ele>798.00000</ele>
        <time>2024-05-10T20:47:14Z</time>
      </trkpt>
      <trkpt lat="42.90663099" lon="13.37096993">
        <ele>798.00000</ele>
        <time>2024-05-10T20:47:14Z</time>
      </trkpt>
      <trkpt lat="42.90663996" lon="13.37093993">
        <ele>799.00000</ele>
        <time>2024-05-10T20:47:15Z</time>
      </trkpt>
      <trkpt lat="42.90664792" lon="13.37090699">
        <ele>799.00000</ele>
        <time>2024-05-10T20:47:15Z</time>
      </trkpt>
      <trkpt lat="42.90665497" lon="13.37087798">
        <ele>800.00000</ele>
        <time>2024-05-10T20:47:16Z</time>
      </trkpt>
      <trkpt lat="42.90666595" lon="13.37085393">
        <ele>800.00000</ele>
        <time>2024-05-10T20:47:16Z</time>
      </trkpt>
      <trkpt lat="42.90667399" lon="13.37082291">
        <ele>801.00000</ele>
        <time>2024-05-10T20:47:17Z</time>
      </trkpt>
      <trkpt lat="42.90668196" lon="13.37079592">
        <ele>801.00000</ele>
        <time>2024-05-10T20:47:17Z</time>
      </trkpt>
      <trkpt lat="42.90669193" lon="13.37076692">
        <ele>801.00000</ele>
        <time>2024-05-10T20:47:18Z</time>
      </trkpt>
      <trkpt lat="42.90670098" lon="13.37073692">
        <ele>802.00000</ele>
        <time>2024-05-10T20:47:18Z</time>
      </trkpt>
      <trkpt lat="42.90670593" lon="13.37071294">
        <ele>802.00000</ele>
        <time>2024-05-10T20:47:18Z</time>
      </trkpt>
      <trkpt lat="42.90671699" lon="13.37068595">
        <ele>803.00000</ele>
        <time>2024-05-10T20:47:19Z</time>
      </trkpt>
      <trkpt lat="42.90672395" lon="13.37065595">
        <ele>804.00000</ele>
        <time>2024-05-10T20:47:19Z</time>
      </trkpt>
      <trkpt lat="42.90673099" lon="13.37062192">
        <ele>804.00000</ele>
        <time>2024-05-10T20:47:20Z</time>
      </trkpt>
      <trkpt lat="42.90673795" lon="13.37059694">
        <ele>805.00000</ele>
        <time>2024-05-10T20:47:20Z</time>
      </trkpt>
      <trkpt lat="42.90674499" lon="13.37056995">
        <ele>805.00000</ele>
        <time>2024-05-10T20:47:21Z</time>
      </trkpt>
      <trkpt lat="42.90674792" lon="13.37054497">
        <ele>806.00000</ele>
        <time>2024-05-10T20:47:21Z</time>
      </trkpt>
      <trkpt lat="42.90674993" lon="13.37052293">
        <ele>807.00000</ele>
        <time>2024-05-10T20:47:21Z</time>
      </trkpt>
      <trkpt lat="42.90675496" lon="13.37049694">
        <ele>808.00000</ele>
        <time>2024-05-10T20:47:22Z</time>
      </trkpt>
      <trkpt lat="42.90675496" lon="13.37047297">
        <ele>809.00000</ele>
        <time>2024-05-10T20:47:22Z</time>
      </trkpt>
      <trkpt lat="42.90675798" lon="13.37044397">
        <ele>810.00000</ele>
        <time>2024-05-10T20:47:23Z</time>
      </trkpt>
      <trkpt lat="42.90675697" lon="13.37041497">
        <ele>811.00000</ele>
        <time>2024-05-10T20:47:23Z</time>
      </trkpt>
      <trkpt lat="42.90675597" lon="13.37038798">
        <ele>812.00000</ele>
        <time>2024-05-10T20:47:23Z</time>
      </trkpt>
      <trkpt lat="42.90675798" lon="13.37035294">
        <ele>814.00000</ele>
        <time>2024-05-10T20:47:24Z</time>
      </trkpt>
      <trkpt lat="42.90676292" lon="13.37031497">
        <ele>815.00000</ele>
        <time>2024-05-10T20:47:24Z</time>
      </trkpt>
      <trkpt lat="42.90676795" lon="13.37027692">
        <ele>817.00000</ele>
        <time>2024-05-10T20:47:25Z</time>
      </trkpt>
      <trkpt lat="42.90677592" lon="13.37024196">
        <ele>817.00000</ele>
        <time>2024-05-10T20:47:26Z</time>
      </trkpt>
      <trkpt lat="42.90678991" lon="13.37021296">
        <ele>818.00000</ele>
        <time>2024-05-10T20:47:26Z</time>
      </trkpt>
      <trkpt lat="42.90680592" lon="13.37018899">
        <ele>818.00000</ele>
        <time>2024-05-10T20:47:27Z</time>
      </trkpt>
      <trkpt lat="42.90682696" lon="13.37017097">
        <ele>818.00000</ele>
        <time>2024-05-10T20:47:27Z</time>
      </trkpt>
      <trkpt lat="42.90684599" lon="13.37015898">
        <ele>818.00000</ele>
        <time>2024-05-10T20:47:27Z</time>
      </trkpt>
      <trkpt lat="42.90686694" lon="13.37014691">
        <ele>817.00000</ele>
        <time>2024-05-10T20:47:28Z</time>
      </trkpt>
      <trkpt lat="42.90688698" lon="13.37013694">
        <ele>817.00000</ele>
        <time>2024-05-10T20:47:28Z</time>
      </trkpt>
      <trkpt lat="42.90690693" lon="13.37012797">
        <ele>816.00000</ele>
        <time>2024-05-10T20:47:29Z</time>
      </trkpt>
      <trkpt lat="42.90692495" lon="13.37011498">
        <ele>816.00000</ele>
        <time>2024-05-10T20:47:29Z</time>
      </trkpt>
      <trkpt lat="42.90694599" lon="13.37010492">
        <ele>816.00000</ele>
        <time>2024-05-10T20:47:30Z</time>
      </trkpt>
      <trkpt lat="42.90696996" lon="13.37009595">
        <ele>815.00000</ele>
        <time>2024-05-10T20:47:30Z</time>
      </trkpt>
      <trkpt lat="42.90699393" lon="13.37008598">
        <ele>814.00000</ele>
        <time>2024-05-10T20:47:31Z</time>
      </trkpt>
      <trkpt lat="42.90701497" lon="13.37007399">
        <ele>814.00000</ele>
        <time>2024-05-10T20:47:31Z</time>
      </trkpt>
      <trkpt lat="42.90703492" lon="13.37005999">
        <ele>813.00000</ele>
        <time>2024-05-10T20:47:32Z</time>
      </trkpt>
      <trkpt lat="42.90705696" lon="13.37004298">
        <ele>813.00000</ele>
        <time>2024-05-10T20:47:32Z</time>
      </trkpt>
      <trkpt lat="42.90707792" lon="13.37001993">
        <ele>813.00000</ele>
        <time>2024-05-10T20:47:33Z</time>
      </trkpt>
      <trkpt lat="42.90710197" lon="13.36999998">
        <ele>813.00000</ele>
        <time>2024-05-10T20:47:33Z</time>
      </trkpt>
      <trkpt lat="42.90712393" lon="13.36998699">
        <ele>812.00000</ele>
        <time>2024-05-10T20:47:34Z</time>
      </trkpt>
      <trkpt lat="42.90714296" lon="13.36997198">
        <ele>812.00000</ele>
        <time>2024-05-10T20:47:34Z</time>
      </trkpt>
      <trkpt lat="42.90716299" lon="13.36995195">
        <ele>811.00000</ele>
        <time>2024-05-10T20:47:35Z</time>
      </trkpt>
      <trkpt lat="42.90718194" lon="13.36993594">
        <ele>811.00000</ele>
        <time>2024-05-10T20:47:35Z</time>
      </trkpt>
      <trkpt lat="42.90719996" lon="13.36992396">
        <ele>810.00000</ele>
        <time>2024-05-10T20:47:35Z</time>
      </trkpt>
      <trkpt lat="42.90721898" lon="13.36991197">
        <ele>810.00000</ele>
        <time>2024-05-10T20:47:36Z</time>
      </trkpt>
      <trkpt lat="42.90723692" lon="13.36990099">
        <ele>809.00000</ele>
        <time>2024-05-10T20:47:36Z</time>
      </trkpt>
      <trkpt lat="42.90725494" lon="13.36988699">
        <ele>809.00000</ele>
        <time>2024-05-10T20:47:37Z</time>
      </trkpt>
      <trkpt lat="42.90726995" lon="13.36987794">
        <ele>809.00000</ele>
        <time>2024-05-10T20:47:37Z</time>
      </trkpt>
      <trkpt lat="42.90728897" lon="13.36986394">
        <ele>809.00000</ele>
        <time>2024-05-10T20:47:37Z</time>
      </trkpt>
      <trkpt lat="42.90730792" lon="13.36985497">
        <ele>808.00000</ele>
        <time>2024-05-10T20:47:38Z</time>
      </trkpt>
      <trkpt lat="42.90732996" lon="13.36984299">
        <ele>808.00000</ele>
        <time>2024-05-10T20:47:38Z</time>
      </trkpt>
      <trkpt lat="42.90734597" lon="13.36982899">
        <ele>808.00000</ele>
        <time>2024-05-10T20:47:39Z</time>
      </trkpt>
      <trkpt lat="42.90736592" lon="13.36981097">
        <ele>808.00000</ele>
        <time>2024-05-10T20:47:39Z</time>
      </trkpt>
      <trkpt lat="42.90738796" lon="13.36979496">
        <ele>807.00000</ele>
        <time>2024-05-10T20:47:40Z</time>
      </trkpt>
      <trkpt lat="42.90740992" lon="13.36978297">
        <ele>807.00000</ele>
        <time>2024-05-10T20:47:40Z</time>
      </trkpt>
      <trkpt lat="42.90743096" lon="13.36977099">
        <ele>807.00000</ele>
        <time>2024-05-10T20:47:41Z</time>
      </trkpt>
      <trkpt lat="42.90744496" lon="13.36975498">
        <ele>807.00000</ele>
        <time>2024-05-10T20:47:41Z</time>
      </trkpt>
      <trkpt lat="42.90746198" lon="13.36974592">
        <ele>807.00000</ele>
        <time>2024-05-10T20:47:41Z</time>
      </trkpt>
      <trkpt lat="42.90747798" lon="13.36973394">
        <ele>807.00000</ele>
        <time>2024-05-10T20:47:42Z</time>
      </trkpt>
      <trkpt lat="42.90749793" lon="13.36972195">
        <ele>807.00000</ele>
        <time>2024-05-10T20:47:42Z</time>
      </trkpt>
      <trkpt lat="42.90751495" lon="13.36970795">
        <ele>806.00000</ele>
        <time>2024-05-10T20:47:42Z</time>
      </trkpt>
      <trkpt lat="42.90753196" lon="13.36969798">
        <ele>806.00000</ele>
        <time>2024-05-10T20:47:43Z</time>
      </trkpt>
      <trkpt lat="42.90754596" lon="13.36968499">
        <ele>806.00000</ele>
        <time>2024-05-10T20:47:43Z</time>
      </trkpt>
      <trkpt lat="42.90756298" lon="13.36966495">
        <ele>806.00000</ele>
        <time>2024-05-10T20:47:44Z</time>
      </trkpt>
      <trkpt lat="42.90757698" lon="13.36964794">
        <ele>806.00000</ele>
        <time>2024-05-10T20:47:44Z</time>
      </trkpt>
      <trkpt lat="42.90759994" lon="13.36963294">
        <ele>806.00000</ele>
        <time>2024-05-10T20:47:45Z</time>
      </trkpt>
      <trkpt lat="42.90761897" lon="13.36962196">
        <ele>806.00000</ele>
        <time>2024-05-10T20:47:45Z</time>
      </trkpt>
      <trkpt lat="42.90763598" lon="13.36960695">
        <ele>806.00000</ele>
        <time>2024-05-10T20:47:45Z</time>
      </trkpt>
      <trkpt lat="42.90765199" lon="13.36959497">
        <ele>806.00000</ele>
        <time>2024-05-10T20:47:46Z</time>
      </trkpt>
      <trkpt lat="42.90766892" lon="13.36958499">
        <ele>806.00000</ele>
        <time>2024-05-10T20:47:46Z</time>
      </trkpt>
      <trkpt lat="42.90768795" lon="13.36957594">
        <ele>806.00000</ele>
        <time>2024-05-10T20:47:46Z</time>
      </trkpt>
      <trkpt lat="42.90770597" lon="13.36956094">
        <ele>806.00000</ele>
        <time>2024-05-10T20:47:47Z</time>
      </trkpt>
      <trkpt lat="42.90772098" lon="13.36954995">
        <ele>807.00000</ele>
        <time>2024-05-10T20:47:47Z</time>
      </trkpt>
      <trkpt lat="42.90773891" lon="13.36953596">
        <ele>807.00000</ele>
        <time>2024-05-10T20:47:48Z</time>
      </trkpt>
      <trkpt lat="42.90775995" lon="13.36952297">
        <ele>807.00000</ele>
        <time>2024-05-10T20:47:48Z</time>
      </trkpt>
      <trkpt lat="42.90778392" lon="13.36950897">
        <ele>807.00000</ele>
        <time>2024-05-10T20:47:49Z</time>
      </trkpt>
      <trkpt lat="42.90779499" lon="13.36949396">
        <ele>807.00000</ele>
        <time>2024-05-10T20:47:49Z</time>
      </trkpt>
      <trkpt lat="42.90779792" lon="13.36947192">
        <ele>808.00000</ele>
        <time>2024-05-10T20:47:49Z</time>
      </trkpt>
      <trkpt lat="42.90780195" lon="13.36945499">
        <ele>808.00000</ele>
        <time>2024-05-10T20:47:50Z</time>
      </trkpt>
      <trkpt lat="42.90779599" lon="13.36943395">
        <ele>808.00000</ele>
        <time>2024-05-10T20:47:50Z</time>
      </trkpt>
      <trkpt lat="42.90778493" lon="13.36941693">
        <ele>809.00000</ele>
        <time>2024-05-10T20:47:50Z</time>
      </trkpt>
      <trkpt lat="42.90776791" lon="13.36940394">
        <ele>809.00000</ele>
        <time>2024-05-10T20:47:51Z</time>
      </trkpt>
      <trkpt lat="42.90774897" lon="13.36938994">
        <ele>809.00000</ele>
        <time>2024-05-10T20:47:51Z</time>
      </trkpt>
      <trkpt lat="42.90772994" lon="13.36937595">
        <ele>809.00000</ele>
        <time>2024-05-10T20:47:51Z</time>
      </trkpt>
      <trkpt lat="42.90770899" lon="13.36936991">
        <ele>808.00000</ele>
        <time>2024-05-10T20:47:52Z</time>
      </trkpt>
      <trkpt lat="42.90769197" lon="13.36936497">
        <ele>808.00000</ele>
        <time>2024-05-10T20:47:52Z</time>
      </trkpt>
      <trkpt lat="42.90767697" lon="13.36936698">
        <ele>808.00000</ele>
        <time>2024-05-10T20:47:53Z</time>
      </trkpt>
      <trkpt lat="42.90766197" lon="13.36937595">
        <ele>808.00000</ele>
        <time>2024-05-10T20:47:53Z</time>
      </trkpt>
      <trkpt lat="42.90764193" lon="13.36938098">
        <ele>808.00000</ele>
        <time>2024-05-10T20:47:53Z</time>
      </trkpt>
      <trkpt lat="42.90762693" lon="13.36938994">
        <ele>808.00000</ele>
        <time>2024-05-10T20:47:54Z</time>
      </trkpt>
      <trkpt lat="42.90760899" lon="13.36939891">
        <ele>808.00000</ele>
        <time>2024-05-10T20:47:54Z</time>
      </trkpt>
      <trkpt lat="42.90758796" lon="13.36940797">
        <ele>808.00000</ele>
        <time>2024-05-10T20:47:54Z</time>
      </trkpt>
      <trkpt lat="42.90756893" lon="13.36941492">
        <ele>808.00000</ele>
        <time>2024-05-10T20:47:55Z</time>
      </trkpt>
      <trkpt lat="42.90754999" lon="13.36942397">
        <ele>808.00000</ele>
        <time>2024-05-10T20:47:55Z</time>
      </trkpt>
      <trkpt lat="42.90753196" lon="13.36942993">
        <ele>808.00000</ele>
        <time>2024-05-10T20:47:56Z</time>
      </trkpt>
      <trkpt lat="42.90751394" lon="13.36943998">
        <ele>808.00000</ele>
        <time>2024-05-10T20:47:56Z</time>
      </trkpt>
      <trkpt lat="42.90749299" lon="13.36944895">
        <ele>809.00000</ele>
        <time>2024-05-10T20:47:56Z</time>
      </trkpt>
      <trkpt lat="42.90747296" lon="13.36945096">
        <ele>809.00000</ele>
        <time>2024-05-10T20:47:57Z</time>
      </trkpt>
      <trkpt lat="42.90745493" lon="13.36945499">
        <ele>809.00000</ele>
        <time>2024-05-10T20:47:57Z</time>
      </trkpt>
      <trkpt lat="42.90743792" lon="13.36946597">
        <ele>810.00000</ele>
        <time>2024-05-10T20:47:58Z</time>
      </trkpt>
      <trkpt lat="42.90742099" lon="13.36947293">
        <ele>810.00000</ele>
        <time>2024-05-10T20:47:58Z</time>
      </trkpt>
      <trkpt lat="42.90740196" lon="13.36948793">
        <ele>810.00000</ele>
        <time>2024-05-10T20:47:58Z</time>
      </trkpt>
      <trkpt lat="42.90738293" lon="13.36949991">
        <ele>810.00000</ele>
        <time>2024-05-10T20:47:59Z</time>
      </trkpt>
      <trkpt lat="42.90736592" lon="13.36951098">
        <ele>811.00000</ele>
        <time>2024-05-10T20:47:59Z</time>
      </trkpt>
      <trkpt lat="42.90734899" lon="13.36951995">
        <ele>811.00000</ele>
        <time>2024-05-10T20:47:59Z</time>
      </trkpt>
      <trkpt lat="42.90732895" lon="13.36952196">
        <ele>812.00000</ele>
        <time>2024-05-10T20:48:00Z</time>
      </trkpt>
      <trkpt lat="42.90730993" lon="13.36953193">
        <ele>812.00000</ele>
        <time>2024-05-10T20:48:00Z</time>
      </trkpt>
      <trkpt lat="42.90728897" lon="13.36954694">
        <ele>812.00000</ele>
        <time>2024-05-10T20:48:01Z</time>
      </trkpt>
      <trkpt lat="42.90726793" lon="13.36955792">
        <ele>813.00000</ele>
        <time>2024-05-10T20:48:01Z</time>
      </trkpt>
      <trkpt lat="42.90724597" lon="13.36956898">
        <ele>813.00000</ele>
        <time>2024-05-10T20:48:02Z</time>
      </trkpt>
      <trkpt lat="42.90722996" lon="13.36957795">
        <ele>814.00000</ele>
        <time>2024-05-10T20:48:02Z</time>
      </trkpt>
      <trkpt lat="42.90721194" lon="13.36958792">
        <ele>814.00000</ele>
        <time>2024-05-10T20:48:02Z</time>
      </trkpt>
      <trkpt lat="42.90719199" lon="13.36959798">
        <ele>815.00000</ele>
        <time>2024-05-10T20:48:03Z</time>
      </trkpt>
      <trkpt lat="42.90716894" lon="13.36960997">
        <ele>816.00000</ele>
        <time>2024-05-10T20:48:03Z</time>
      </trkpt>
      <trkpt lat="42.90714698" lon="13.36962196">
        <ele>817.00000</ele>
        <time>2024-05-10T20:48:04Z</time>
      </trkpt>
      <trkpt lat="42.90712393" lon="13.36963394">
        <ele>818.00000</ele>
        <time>2024-05-10T20:48:04Z</time>
      </trkpt>
      <trkpt lat="42.90710398" lon="13.36964794">
        <ele>819.00000</ele>
        <time>2024-05-10T20:48:05Z</time>
      </trkpt>
      <trkpt lat="42.90708295" lon="13.36965791">
        <ele>819.00000</ele>
        <time>2024-05-10T20:48:05Z</time>
      </trkpt>
      <trkpt lat="42.90706492" lon="13.36966898">
        <ele>820.00000</ele>
        <time>2024-05-10T20:48:06Z</time>
      </trkpt>
      <trkpt lat="42.90704296" lon="13.36967895">
        <ele>821.00000</ele>
        <time>2024-05-10T20:48:06Z</time>
      </trkpt>
      <trkpt lat="42.90702193" lon="13.36968993">
        <ele>822.00000</ele>
        <time>2024-05-10T20:48:07Z</time>
      </trkpt>
      <trkpt lat="42.90699695" lon="13.36970192">
        <ele>823.00000</ele>
        <time>2024-05-10T20:48:07Z</time>
      </trkpt>
      <trkpt lat="42.90697298" lon="13.36971097">
        <ele>823.00000</ele>
        <time>2024-05-10T20:48:08Z</time>
      </trkpt>
      <trkpt lat="42.90694992" lon="13.36971793">
        <ele>824.00000</ele>
        <time>2024-05-10T20:48:08Z</time>
      </trkpt>
      <trkpt lat="42.90692998" lon="13.36972195">
        <ele>825.00000</ele>
        <time>2024-05-10T20:48:08Z</time>
      </trkpt>
      <trkpt lat="42.90691195" lon="13.36972991">
        <ele>826.00000</ele>
        <time>2024-05-10T20:48:09Z</time>
      </trkpt>
      <trkpt lat="42.90689192" lon="13.36973897">
        <ele>826.00000</ele>
        <time>2024-05-10T20:48:09Z</time>
      </trkpt>
      <trkpt lat="42.90686393" lon="13.36974592">
        <ele>827.00000</ele>
        <time>2024-05-10T20:48:10Z</time>
      </trkpt>
      <trkpt lat="42.90684297" lon="13.36975799">
        <ele>828.00000</ele>
        <time>2024-05-10T20:48:10Z</time>
      </trkpt>
      <trkpt lat="42.90682193" lon="13.36976495">
        <ele>829.00000</ele>
        <time>2024-05-10T20:48:11Z</time>
      </trkpt>
      <trkpt lat="42.90680098" lon="13.36977199">
        <ele>830.00000</ele>
        <time>2024-05-10T20:48:11Z</time>
      </trkpt>
      <trkpt lat="42.90678396" lon="13.36978398">
        <ele>830.00000</ele>
        <time>2024-05-10T20:48:11Z</time>
      </trkpt>
      <trkpt lat="42.90676695" lon="13.36978892">
        <ele>831.00000</ele>
        <time>2024-05-10T20:48:12Z</time>
      </trkpt>
      <trkpt lat="42.90675295" lon="13.36979798">
        <ele>831.00000</ele>
        <time>2024-05-10T20:48:12Z</time>
      </trkpt>
      <trkpt lat="42.90673493" lon="13.36980694">
        <ele>832.00000</ele>
        <time>2024-05-10T20:48:13Z</time>
      </trkpt>
      <trkpt lat="42.90671699" lon="13.36981398">
        <ele>832.00000</ele>
        <time>2024-05-10T20:48:13Z</time>
      </trkpt>
      <trkpt lat="42.90669897" lon="13.36982899">
        <ele>832.00000</ele>
        <time>2024-05-10T20:48:13Z</time>
      </trkpt>
      <trkpt lat="42.90667994" lon="13.36984491">
        <ele>833.00000</ele>
        <time>2024-05-10T20:48:14Z</time>
      </trkpt>
      <trkpt lat="42.90666293" lon="13.36985397">
        <ele>833.00000</ele>
        <time>2024-05-10T20:48:14Z</time>
      </trkpt>
      <trkpt lat="42.90664792" lon="13.36986193">
        <ele>834.00000</ele>
        <time>2024-05-10T20:48:14Z</time>
      </trkpt>
      <trkpt lat="42.90663594" lon="13.36987492">
        <ele>834.00000</ele>
        <time>2024-05-10T20:48:15Z</time>
      </trkpt>
      <trkpt lat="42.90662295" lon="13.36988096">
        <ele>834.00000</ele>
        <time>2024-05-10T20:48:15Z</time>
      </trkpt>
      <trkpt lat="42.90660694" lon="13.36988397">
        <ele>835.00000</ele>
        <time>2024-05-10T20:48:15Z</time>
      </trkpt>
      <trkpt lat="42.90659193" lon="13.36989495">
        <ele>835.00000</ele>
        <time>2024-05-10T20:48:16Z</time>
      </trkpt>
      <trkpt lat="42.90657198" lon="13.36990099">
        <ele>835.00000</ele>
        <time>2024-05-10T20:48:16Z</time>
      </trkpt>
      <trkpt lat="42.90655497" lon="13.36990694">
        <ele>836.00000</ele>
        <time>2024-05-10T20:48:16Z</time>
      </trkpt>
      <trkpt lat="42.90653795" lon="13.36992295">
        <ele>836.00000</ele>
        <time>2024-05-10T20:48:17Z</time>
      </trkpt>
      <trkpt lat="42.90652396" lon="13.36993494">
        <ele>836.00000</ele>
        <time>2024-05-10T20:48:17Z</time>
      </trkpt>
      <trkpt lat="42.90650795" lon="13.36994499">
        <ele>837.00000</ele>
        <time>2024-05-10T20:48:18Z</time>
      </trkpt>
      <trkpt lat="42.90649294" lon="13.36995497">
        <ele>837.00000</ele>
        <time>2024-05-10T20:48:18Z</time>
      </trkpt>
      <trkpt lat="42.90647392" lon="13.36996394">
        <ele>837.00000</ele>
        <time>2024-05-10T20:48:18Z</time>
      </trkpt>
      <trkpt lat="42.90645891" lon="13.36997793">
        <ele>838.00000</ele>
        <time>2024-05-10T20:48:19Z</time>
      </trkpt>
      <trkpt lat="42.90644098" lon="13.36998699">
        <ele>838.00000</ele>
        <time>2024-05-10T20:48:19Z</time>
      </trkpt>
      <trkpt lat="42.90642396" lon="13.36999797">
        <ele>838.00000</ele>
        <time>2024-05-10T20:48:19Z</time>
      </trkpt>
      <trkpt lat="42.90640695" lon="13.37001197">
        <ele>838.00000</ele>
        <time>2024-05-10T20:48:20Z</time>
      </trkpt>
      <trkpt lat="42.90638892" lon="13.37002697">
        <ele>839.00000</ele>
        <time>2024-05-10T20:48:20Z</time>
      </trkpt>
      <trkpt lat="42.90637199" lon="13.37004692">
        <ele>838.00000</ele>
        <time>2024-05-10T20:48:21Z</time>
      </trkpt>
      <trkpt lat="42.90635699" lon="13.37006293">
        <ele>837.00000</ele>
        <time>2024-05-10T20:48:21Z</time>
      </trkpt>
      <trkpt lat="42.90634098" lon="13.37007793">
        <ele>837.00000</ele>
        <time>2024-05-10T20:48:21Z</time>
      </trkpt>
      <trkpt lat="42.90632195" lon="13.37009293">
        <ele>837.00000</ele>
        <time>2024-05-10T20:48:22Z</time>
      </trkpt>
      <trkpt lat="42.90630293" lon="13.37009998">
        <ele>836.00000</ele>
        <time>2024-05-10T20:48:22Z</time>
      </trkpt>
      <trkpt lat="42.90628499" lon="13.37010593">
        <ele>836.00000</ele>
        <time>2024-05-10T20:48:23Z</time>
      </trkpt>
      <trkpt lat="42.90627191" lon="13.37011699">
        <ele>836.00000</ele>
        <time>2024-05-10T20:48:23Z</time>
      </trkpt>
      <trkpt lat="42.90625297" lon="13.37012596">
        <ele>836.00000</ele>
        <time>2024-05-10T20:48:23Z</time>
      </trkpt>
      <trkpt lat="42.90623495" lon="13.37013392">
        <ele>836.00000</ele>
        <time>2024-05-10T20:48:24Z</time>
      </trkpt>
      <trkpt lat="42.90621894" lon="13.37014297">
        <ele>835.00000</ele>
        <time>2024-05-10T20:48:24Z</time>
      </trkpt>
      <trkpt lat="42.90620293" lon="13.37014993">
        <ele>835.00000</ele>
        <time>2024-05-10T20:48:24Z</time>
      </trkpt>
      <trkpt lat="42.90618793" lon="13.37015496">
        <ele>835.00000</ele>
        <time>2024-05-10T20:48:25Z</time>
      </trkpt>
      <trkpt lat="42.90617192" lon="13.37016192">
        <ele>835.00000</ele>
        <time>2024-05-10T20:48:25Z</time>
      </trkpt>
      <trkpt lat="42.90615197" lon="13.37016996">
        <ele>835.00000</ele>
        <time>2024-05-10T20:48:25Z</time>
      </trkpt>
      <trkpt lat="42.90613495" lon="13.37017499">
        <ele>834.00000</ele>
        <time>2024-05-10T20:48:26Z</time>
      </trkpt>
      <trkpt lat="42.90612095" lon="13.37016594">
        <ele>835.00000</ele>
        <time>2024-05-10T20:48:26Z</time>
      </trkpt>
      <trkpt lat="42.90610394" lon="13.37015798">
        <ele>835.00000</ele>
        <time>2024-05-10T20:48:26Z</time>
      </trkpt>
      <trkpt lat="42.90608198" lon="13.37015395">
        <ele>835.00000</ele>
        <time>2024-05-10T20:48:27Z</time>
      </trkpt>
      <trkpt lat="42.90606295" lon="13.37015395">
        <ele>835.00000</ele>
        <time>2024-05-10T20:48:27Z</time>
      </trkpt>
      <trkpt lat="42.90604493" lon="13.37014893">
        <ele>835.00000</ele>
        <time>2024-05-10T20:48:28Z</time>
      </trkpt>
      <trkpt lat="42.90602892" lon="13.37014993">
        <ele>835.00000</ele>
        <time>2024-05-10T20:48:28Z</time>
      </trkpt>
      <trkpt lat="42.90601098" lon="13.37014398">
        <ele>835.00000</ele>
        <time>2024-05-10T20:48:28Z</time>
      </trkpt>
      <trkpt lat="42.90599397" lon="13.37013694">
        <ele>836.00000</ele>
        <time>2024-05-10T20:48:29Z</time>
      </trkpt>
      <trkpt lat="42.90597695" lon="13.37013199">
        <ele>836.00000</ele>
        <time>2024-05-10T20:48:29Z</time>
      </trkpt>
      <trkpt lat="42.90596094" lon="13.37012395">
        <ele>836.00000</ele>
        <time>2024-05-10T20:48:29Z</time>
      </trkpt>
      <trkpt lat="42.90594594" lon="13.37011892">
        <ele>836.00000</ele>
        <time>2024-05-10T20:48:30Z</time>
      </trkpt>
      <trkpt lat="42.90593295" lon="13.37011498">
        <ele>836.00000</ele>
        <time>2024-05-10T20:48:30Z</time>
      </trkpt>
      <trkpt lat="42.90591996" lon="13.37010593">
        <ele>837.00000</ele>
        <time>2024-05-10T20:48:30Z</time>
      </trkpt>
      <trkpt lat="42.90590696" lon="13.37009595">
        <ele>837.00000</ele>
        <time>2024-05-10T20:48:31Z</time>
      </trkpt>
      <trkpt lat="42.90589297" lon="13.37008698">
        <ele>837.00000</ele>
        <time>2024-05-10T20:48:31Z</time>
      </trkpt>
      <trkpt lat="42.90587495" lon="13.37007894">
        <ele>838.00000</ele>
        <time>2024-05-10T20:48:31Z</time>
      </trkpt>
      <trkpt lat="42.90585793" lon="13.37007097">
        <ele>838.00000</ele>
        <time>2024-05-10T20:48:32Z</time>
      </trkpt>
      <trkpt lat="42.90584192" lon="13.37006594">
        <ele>838.00000</ele>
        <time>2024-05-10T20:48:32Z</time>
      </trkpt>
      <trkpt lat="42.90583195" lon="13.37006293">
        <ele>838.00000</ele>
        <time>2024-05-10T20:48:32Z</time>
      </trkpt>
      <trkpt lat="42.90582097" lon="13.37005798">
        <ele>838.00000</ele>
        <time>2024-05-10T20:48:32Z</time>
      </trkpt>
      <trkpt lat="42.90581493" lon="13.37005396">
        <ele>838.00000</ele>
        <time>2024-05-10T20:48:33Z</time>
      </trkpt>
      <trkpt lat="42.90580295" lon="13.37005094">
        <ele>838.00000</ele>
        <time>2024-05-10T20:48:33Z</time>
      </trkpt>
      <trkpt lat="42.90579196" lon="13.37004692">
        <ele>838.00000</ele>
        <time>2024-05-10T20:48:33Z</time>
      </trkpt>
      <trkpt lat="42.90578492" lon="13.37004591">
        <ele>838.00000</ele>
        <time>2024-05-10T20:48:33Z</time>
      </trkpt>
      <trkpt lat="42.90577596" lon="13.37004097">
        <ele>838.00000</ele>
        <time>2024-05-10T20:48:33Z</time>
      </trkpt>
      <trkpt lat="42.90576891" lon="13.37003594">
        <ele>838.00000</ele>
        <time>2024-05-10T20:48:33Z</time>
      </trkpt>
      <trkpt lat="42.90575995" lon="13.37002797">
        <ele>838.00000</ele>
        <time>2024-05-10T20:48:34Z</time>
      </trkpt>
      <trkpt lat="42.90575299" lon="13.37001792">
        <ele>838.00000</ele>
        <time>2024-05-10T20:48:34Z</time>
      </trkpt>
      <trkpt lat="42.90573899" lon="13.37002194">
        <ele>838.00000</ele>
        <time>2024-05-10T20:48:34Z</time>
      </trkpt>
      <trkpt lat="42.90572198" lon="13.37001993">
        <ele>838.00000</ele>
        <time>2024-05-10T20:48:35Z</time>
      </trkpt>
      <trkpt lat="42.90570597" lon="13.37001993">
        <ele>837.00000</ele>
        <time>2024-05-10T20:48:35Z</time>
      </trkpt>
      <trkpt lat="42.90569398" lon="13.37000593">
        <ele>838.00000</ele>
        <time>2024-05-10T20:48:35Z</time>
      </trkpt>
      <trkpt lat="42.90567998" lon="13.36998992">
        <ele>838.00000</ele>
        <time>2024-05-10T20:48:36Z</time>
      </trkpt>
      <trkpt lat="42.90566699" lon="13.36997693">
        <ele>838.00000</ele>
        <time>2024-05-10T20:48:36Z</time>
      </trkpt>
      <trkpt lat="42.90565392" lon="13.36996092">
        <ele>838.00000</ele>
        <time>2024-05-10T20:48:36Z</time>
      </trkpt>
      <trkpt lat="42.90564092" lon="13.36994793">
        <ele>838.00000</ele>
        <time>2024-05-10T20:48:37Z</time>
      </trkpt>
      <trkpt lat="42.90562894" lon="13.36993393">
        <ele>839.00000</ele>
        <time>2024-05-10T20:48:37Z</time>
      </trkpt>
      <trkpt lat="42.90561796" lon="13.36991893">
        <ele>839.00000</ele>
        <time>2024-05-10T20:48:37Z</time>
      </trkpt>
      <trkpt lat="42.90560999" lon="13.36990292">
        <ele>839.00000</ele>
        <time>2024-05-10T20:48:37Z</time>
      </trkpt>
      <trkpt lat="42.90560195" lon="13.36988791">
        <ele>839.00000</ele>
        <time>2024-05-10T20:48:38Z</time>
      </trkpt>
      <trkpt lat="42.90558996" lon="13.36987199">
        <ele>840.00000</ele>
        <time>2024-05-10T20:48:38Z</time>
      </trkpt>
      <trkpt lat="42.90558191" lon="13.36985497">
        <ele>840.00000</ele>
        <time>2024-05-10T20:48:38Z</time>
      </trkpt>
      <trkpt lat="42.90557194" lon="13.36983393">
        <ele>841.00000</ele>
        <time>2024-05-10T20:48:39Z</time>
      </trkpt>
      <trkpt lat="42.90556297" lon="13.36981499">
        <ele>841.00000</ele>
        <time>2024-05-10T20:48:39Z</time>
      </trkpt>
      <trkpt lat="42.90555694" lon="13.36979295">
        <ele>841.00000</ele>
        <time>2024-05-10T20:48:39Z</time>
      </trkpt>
      <trkpt lat="42.90554495" lon="13.36976596">
        <ele>842.00000</ele>
        <time>2024-05-10T20:48:40Z</time>
      </trkpt>
      <trkpt lat="42.90553498" lon="13.36974894">
        <ele>843.00000</ele>
        <time>2024-05-10T20:48:40Z</time>
      </trkpt>
      <trkpt lat="42.90552391" lon="13.36973193">
        <ele>843.00000</ele>
        <time>2024-05-10T20:48:40Z</time>
      </trkpt>
      <trkpt lat="42.90551494" lon="13.36971793">
        <ele>843.00000</ele>
        <time>2024-05-10T20:48:41Z</time>
      </trkpt>
      <trkpt lat="42.90550698" lon="13.36970594">
        <ele>843.00000</ele>
        <time>2024-05-10T20:48:41Z</time>
      </trkpt>
      <trkpt lat="42.90550195" lon="13.36969396">
        <ele>844.00000</ele>
        <time>2024-05-10T20:48:41Z</time>
      </trkpt>
      <trkpt lat="42.90549592" lon="13.36966697">
        <ele>844.00000</ele>
        <time>2024-05-10T20:48:42Z</time>
      </trkpt>
      <trkpt lat="42.90549198" lon="13.36963897">
        <ele>845.00000</ele>
        <time>2024-05-10T20:48:42Z</time>
      </trkpt>
      <trkpt lat="42.90548594" lon="13.36961592">
        <ele>845.00000</ele>
        <time>2024-05-10T20:48:42Z</time>
      </trkpt>
      <trkpt lat="42.90548091" lon="13.36958893">
        <ele>845.00000</ele>
        <time>2024-05-10T20:48:43Z</time>
      </trkpt>
      <trkpt lat="42.90547496" lon="13.36956496">
        <ele>846.00000</ele>
        <time>2024-05-10T20:48:43Z</time>
      </trkpt>
      <trkpt lat="42.90546691" lon="13.36954593">
        <ele>846.00000</ele>
        <time>2024-05-10T20:48:43Z</time>
      </trkpt>
      <trkpt lat="42.90546096" lon="13.36952598">
        <ele>846.00000</ele>
        <time>2024-05-10T20:48:44Z</time>
      </trkpt>
      <trkpt lat="42.90545895" lon="13.36950494">
        <ele>847.00000</ele>
        <time>2024-05-10T20:48:44Z</time>
      </trkpt>
      <trkpt lat="42.90545292" lon="13.36948097">
        <ele>847.00000</ele>
        <time>2024-05-10T20:48:44Z</time>
      </trkpt>
      <trkpt lat="42.90544797" lon="13.36946496">
        <ele>848.00000</ele>
        <time>2024-05-10T20:48:45Z</time>
      </trkpt>
      <trkpt lat="42.90544495" lon="13.36944099">
        <ele>848.00000</ele>
        <time>2024-05-10T20:48:45Z</time>
      </trkpt>
      <trkpt lat="42.90544294" lon="13.36941593">
        <ele>848.00000</ele>
        <time>2024-05-10T20:48:45Z</time>
      </trkpt>
      <trkpt lat="42.90544194" lon="13.36939095">
        <ele>848.00000</ele>
        <time>2024-05-10T20:48:46Z</time>
      </trkpt>
      <trkpt lat="42.90544093" lon="13.36936798">
        <ele>848.00000</ele>
        <time>2024-05-10T20:48:46Z</time>
      </trkpt>
      <trkpt lat="42.90543892" lon="13.36934292">
        <ele>849.00000</ele>
        <time>2024-05-10T20:48:47Z</time>
      </trkpt>
      <trkpt lat="42.90543791" lon="13.36931895">
        <ele>849.00000</ele>
        <time>2024-05-10T20:48:47Z</time>
      </trkpt>
      <trkpt lat="42.90543699" lon="13.36929297">
        <ele>849.00000</ele>
        <time>2024-05-10T20:48:47Z</time>
      </trkpt>
      <trkpt lat="42.90543599" lon="13.36927092">
        <ele>849.00000</ele>
        <time>2024-05-10T20:48:48Z</time>
      </trkpt>
      <trkpt lat="42.90543599" lon="13.36925198">
        <ele>849.00000</ele>
        <time>2024-05-10T20:48:48Z</time>
      </trkpt>
      <trkpt lat="42.90543699" lon="13.36923295">
        <ele>849.00000</ele>
        <time>2024-05-10T20:48:48Z</time>
      </trkpt>
      <trkpt lat="42.90543599" lon="13.36921191">
        <ele>849.00000</ele>
        <time>2024-05-10T20:48:48Z</time>
      </trkpt>
      <trkpt lat="42.90543599" lon="13.36918593">
        <ele>850.00000</ele>
        <time>2024-05-10T20:48:49Z</time>
      </trkpt>
      <trkpt lat="42.90543892" lon="13.36916296">
        <ele>850.00000</ele>
        <time>2024-05-10T20:48:49Z</time>
      </trkpt>
      <trkpt lat="42.90544093" lon="13.36914092">
        <ele>850.00000</ele>
        <time>2024-05-10T20:48:50Z</time>
      </trkpt>
      <trkpt lat="42.90544194" lon="13.36911695">
        <ele>850.00000</ele>
        <time>2024-05-10T20:48:50Z</time>
      </trkpt>
      <trkpt lat="42.90544194" lon="13.36908895">
        <ele>851.00000</ele>
        <time>2024-05-10T20:48:50Z</time>
      </trkpt>
      <trkpt lat="42.90544294" lon="13.36906397">
        <ele>851.00000</ele>
        <time>2024-05-10T20:48:51Z</time>
      </trkpt>
      <trkpt lat="42.90544898" lon="13.36904193">
        <ele>851.00000</ele>
        <time>2024-05-10T20:48:51Z</time>
      </trkpt>
      <trkpt lat="42.90544998" lon="13.36901695">
        <ele>851.00000</ele>
        <time>2024-05-10T20:48:51Z</time>
      </trkpt>
      <trkpt lat="42.90545099" lon="13.36899398">
        <ele>851.00000</ele>
        <time>2024-05-10T20:48:52Z</time>
      </trkpt>
      <trkpt lat="42.90545099" lon="13.36897093">
        <ele>852.00000</ele>
        <time>2024-05-10T20:48:52Z</time>
      </trkpt>
      <trkpt lat="42.90545392" lon="13.36894797">
        <ele>852.00000</ele>
        <time>2024-05-10T20:48:52Z</time>
      </trkpt>
      <trkpt lat="42.90545694" lon="13.36892693">
        <ele>852.00000</ele>
        <time>2024-05-10T20:48:53Z</time>
      </trkpt>
      <trkpt lat="42.90545895" lon="13.36890094">
        <ele>852.00000</ele>
        <time>2024-05-10T20:48:53Z</time>
      </trkpt>
      <trkpt lat="42.90546096" lon="13.36887697">
        <ele>853.00000</ele>
        <time>2024-05-10T20:48:53Z</time>
      </trkpt>
      <trkpt lat="42.90546398" lon="13.36885199">
        <ele>853.00000</ele>
        <time>2024-05-10T20:48:54Z</time>
      </trkpt>
      <trkpt lat="42.90546691" lon="13.36882492">
        <ele>853.00000</ele>
        <time>2024-05-10T20:48:54Z</time>
      </trkpt>
      <trkpt lat="42.90547295" lon="13.36879592">
        <ele>854.00000</ele>
        <time>2024-05-10T20:48:55Z</time>
      </trkpt>
      <trkpt lat="42.90548091" lon="13.36877597">
        <ele>854.00000</ele>
        <time>2024-05-10T20:48:55Z</time>
      </trkpt>
      <trkpt lat="42.90549097" lon="13.36875393">
        <ele>854.00000</ele>
        <time>2024-05-10T20:48:55Z</time>
      </trkpt>
      <trkpt lat="42.90549994" lon="13.36873599">
        <ele>855.00000</ele>
        <time>2024-05-10T20:48:56Z</time>
      </trkpt>
      <trkpt lat="42.90550991" lon="13.36872199">
        <ele>855.00000</ele>
        <time>2024-05-10T20:48:56Z</time>
      </trkpt>
      <trkpt lat="42.90552198" lon="13.36870397">
        <ele>855.00000</ele>
        <time>2024-05-10T20:48:56Z</time>
      </trkpt>
      <trkpt lat="42.90553598" lon="13.36868293">
        <ele>856.00000</ele>
        <time>2024-05-10T20:48:57Z</time>
      </trkpt>
      <trkpt lat="42.90555199" lon="13.36866793">
        <ele>856.00000</ele>
        <time>2024-05-10T20:48:57Z</time>
      </trkpt>
      <trkpt lat="42.90556993" lon="13.36865594">
        <ele>856.00000</ele>
        <time>2024-05-10T20:48:58Z</time>
      </trkpt>
      <trkpt lat="42.90558292" lon="13.36863792">
        <ele>856.00000</ele>
        <time>2024-05-10T20:48:58Z</time>
      </trkpt>
      <trkpt lat="42.90559792" lon="13.36862292">
        <ele>856.00000</ele>
        <time>2024-05-10T20:48:58Z</time>
      </trkpt>
      <trkpt lat="42.90561393" lon="13.36861093">
        <ele>856.00000</ele>
        <time>2024-05-10T20:48:59Z</time>
      </trkpt>
      <trkpt lat="42.90563095" lon="13.36859593">
        <ele>856.00000</ele>
        <time>2024-05-10T20:48:59Z</time>
      </trkpt>
      <trkpt lat="42.90563598" lon="13.36857799">
        <ele>856.00000</ele>
        <time>2024-05-10T20:48:59Z</time>
      </trkpt>
      <trkpt lat="42.90564193" lon="13.36855393">
        <ele>857.00000</ele>
        <time>2024-05-10T20:49:00Z</time>
      </trkpt>
      <trkpt lat="42.90564495" lon="13.36852493">
        <ele>857.00000</ele>
        <time>2024-05-10T20:49:00Z</time>
      </trkpt>
      <trkpt lat="42.90564998" lon="13.36849694">
        <ele>857.00000</ele>
        <time>2024-05-10T20:49:01Z</time>
      </trkpt>
      <trkpt lat="42.90565199" lon="13.36847296">
        <ele>857.00000</ele>
        <time>2024-05-10T20:49:01Z</time>
      </trkpt>
      <trkpt lat="42.90564595" lon="13.36845796">
        <ele>857.00000</ele>
        <time>2024-05-10T20:49:01Z</time>
      </trkpt>
      <trkpt lat="42.90563799" lon="13.36844195">
        <ele>857.00000</ele>
        <time>2024-05-10T20:49:01Z</time>
      </trkpt>
      <trkpt lat="42.90562994" lon="13.36841999">
        <ele>858.00000</ele>
        <time>2024-05-10T20:49:02Z</time>
      </trkpt>
      <trkpt lat="42.90562299" lon="13.36839292">
        <ele>858.00000</ele>
        <time>2024-05-10T20:49:02Z</time>
      </trkpt>
      <trkpt lat="42.90561695" lon="13.36836593">
        <ele>858.00000</ele>
        <time>2024-05-10T20:49:03Z</time>
      </trkpt>
      <trkpt lat="42.90561192" lon="13.36834296">
        <ele>859.00000</ele>
        <time>2024-05-10T20:49:03Z</time>
      </trkpt>
      <trkpt lat="42.90560295" lon="13.36831698">
        <ele>859.00000</ele>
        <time>2024-05-10T20:49:03Z</time>
      </trkpt>
      <trkpt lat="42.90559499" lon="13.36829795">
        <ele>859.00000</ele>
        <time>2024-05-10T20:49:04Z</time>
      </trkpt>
      <trkpt lat="42.90558191" lon="13.36827792">
        <ele>859.00000</ele>
        <time>2024-05-10T20:49:04Z</time>
      </trkpt>
      <trkpt lat="42.90557093" lon="13.36825093">
        <ele>859.00000</ele>
        <time>2024-05-10T20:49:05Z</time>
      </trkpt>
      <trkpt lat="42.90555492" lon="13.36823198">
        <ele>859.00000</ele>
        <time>2024-05-10T20:49:05Z</time>
      </trkpt>
      <trkpt lat="42.90554394" lon="13.36821195">
        <ele>859.00000</ele>
        <time>2024-05-10T20:49:05Z</time>
      </trkpt>
      <trkpt lat="42.90553799" lon="13.36818798">
        <ele>859.00000</ele>
        <time>2024-05-10T20:49:06Z</time>
      </trkpt>
      <trkpt lat="42.90552894" lon="13.36816694">
        <ele>859.00000</ele>
        <time>2024-05-10T20:49:06Z</time>
      </trkpt>
      <trkpt lat="42.90551695" lon="13.36813794">
        <ele>860.00000</ele>
        <time>2024-05-10T20:49:07Z</time>
      </trkpt>
      <trkpt lat="42.90550597" lon="13.36811095">
        <ele>860.00000</ele>
        <time>2024-05-10T20:49:07Z</time>
      </trkpt>
      <trkpt lat="42.90549298" lon="13.36808396">
        <ele>860.00000</ele>
        <time>2024-05-10T20:49:08Z</time>
      </trkpt>
      <trkpt lat="42.90547597" lon="13.36805798">
        <ele>860.00000</ele>
        <time>2024-05-10T20:49:08Z</time>
      </trkpt>
      <trkpt lat="42.90546197" lon="13.36803593">
        <ele>860.00000</ele>
        <time>2024-05-10T20:49:08Z</time>
      </trkpt>
      <trkpt lat="42.90544998" lon="13.36801397">
        <ele>859.00000</ele>
        <time>2024-05-10T20:49:09Z</time>
      </trkpt>
      <trkpt lat="42.90543699" lon="13.36798095">
        <ele>859.00000</ele>
        <time>2024-05-10T20:49:09Z</time>
      </trkpt>
      <trkpt lat="42.90542392" lon="13.36795396">
        <ele>859.00000</ele>
        <time>2024-05-10T20:49:10Z</time>
      </trkpt>
      <trkpt lat="42.90540799" lon="13.36792797">
        <ele>858.00000</ele>
        <time>2024-05-10T20:49:10Z</time>
      </trkpt>
      <trkpt lat="42.90539097" lon="13.36790098">
        <ele>858.00000</ele>
        <time>2024-05-10T20:49:11Z</time>
      </trkpt>
      <trkpt lat="42.90537396" lon="13.36787894">
        <ele>858.00000</ele>
        <time>2024-05-10T20:49:11Z</time>
      </trkpt>
      <trkpt lat="42.90535795" lon="13.36785396">
        <ele>858.00000</ele>
        <time>2024-05-10T20:49:12Z</time>
      </trkpt>
      <trkpt lat="42.90534295" lon="13.36782697">
        <ele>858.00000</ele>
        <time>2024-05-10T20:49:12Z</time>
      </trkpt>
      <trkpt lat="42.90531998" lon="13.36780694">
        <ele>858.00000</ele>
        <time>2024-05-10T20:49:13Z</time>
      </trkpt>
      <trkpt lat="42.90529693" lon="13.36778791">
        <ele>857.00000</ele>
        <time>2024-05-10T20:49:13Z</time>
      </trkpt>
      <trkpt lat="42.90527799" lon="13.36776696">
        <ele>857.00000</ele>
        <time>2024-05-10T20:49:14Z</time>
      </trkpt>
      <trkpt lat="42.90525494" lon="13.36773997">
        <ele>857.00000</ele>
        <time>2024-05-10T20:49:15Z</time>
      </trkpt>
      <trkpt lat="42.90523692" lon="13.36771197">
        <ele>857.00000</ele>
        <time>2024-05-10T20:49:15Z</time>
      </trkpt>
      <trkpt lat="42.90521898" lon="13.36768498">
        <ele>857.00000</ele>
        <time>2024-05-10T20:49:16Z</time>
      </trkpt>
      <trkpt lat="42.90520096" lon="13.36766294">
        <ele>857.00000</ele>
        <time>2024-05-10T20:49:16Z</time>
      </trkpt>
      <trkpt lat="42.90518092" lon="13.36763997">
        <ele>857.00000</ele>
        <time>2024-05-10T20:49:17Z</time>
      </trkpt>
      <trkpt lat="42.90516299" lon="13.36760996">
        <ele>857.00000</ele>
        <time>2024-05-10T20:49:17Z</time>
      </trkpt>
      <trkpt lat="42.90514195" lon="13.36757996">
        <ele>857.00000</ele>
        <time>2024-05-10T20:49:18Z</time>
      </trkpt>
      <trkpt lat="42.90512192" lon="13.36754492">
        <ele>857.00000</ele>
        <time>2024-05-10T20:49:18Z</time>
      </trkpt>
      <trkpt lat="42.90510297" lon="13.36751399">
        <ele>857.00000</ele>
        <time>2024-05-10T20:49:19Z</time>
      </trkpt>
      <trkpt lat="42.90507799" lon="13.36748893">
        <ele>858.00000</ele>
        <time>2024-05-10T20:49:20Z</time>
      </trkpt>
      <trkpt lat="42.90504992" lon="13.36745699">
        <ele>858.00000</ele>
        <time>2024-05-10T20:49:20Z</time>
      </trkpt>
      <trkpt lat="42.90502594" lon="13.36742095">
        <ele>858.00000</ele>
        <time>2024-05-10T20:49:21Z</time>
      </trkpt>
      <trkpt lat="42.90500197" lon="13.36738994">
        <ele>859.00000</ele>
        <time>2024-05-10T20:49:22Z</time>
      </trkpt>
      <trkpt lat="42.90497699" lon="13.36735499">
        <ele>859.00000</ele>
        <time>2024-05-10T20:49:22Z</time>
      </trkpt>
      <trkpt lat="42.90495495" lon="13.36731794">
        <ele>860.00000</ele>
        <time>2024-05-10T20:49:23Z</time>
      </trkpt>
      <trkpt lat="42.90493299" lon="13.36728491">
        <ele>860.00000</ele>
        <time>2024-05-10T20:49:24Z</time>
      </trkpt>
      <trkpt lat="42.90491094" lon="13.36724996">
        <ele>860.00000</ele>
        <time>2024-05-10T20:49:25Z</time>
      </trkpt>
      <trkpt lat="42.90488898" lon="13.36721492">
        <ele>861.00000</ele>
        <time>2024-05-10T20:49:25Z</time>
      </trkpt>
      <trkpt lat="42.90486794" lon="13.36717695">
        <ele>861.00000</ele>
        <time>2024-05-10T20:49:26Z</time>
      </trkpt>
      <trkpt lat="42.90485093" lon="13.36713798">
        <ele>861.00000</ele>
        <time>2024-05-10T20:49:27Z</time>
      </trkpt>
      <trkpt lat="42.90483299" lon="13.36709791">
        <ele>861.00000</ele>
        <time>2024-05-10T20:49:27Z</time>
      </trkpt>
      <trkpt lat="42.90481396" lon="13.36705894">
        <ele>861.00000</ele>
        <time>2024-05-10T20:49:28Z</time>
      </trkpt>
      <trkpt lat="42.90479796" lon="13.36702792">
        <ele>861.00000</ele>
        <time>2024-05-10T20:49:28Z</time>
      </trkpt>
      <trkpt lat="42.90478295" lon="13.36699699">
        <ele>861.00000</ele>
        <time>2024-05-10T20:49:29Z</time>
      </trkpt>
      <trkpt lat="42.90476594" lon="13.36696296">
        <ele>862.00000</ele>
        <time>2024-05-10T20:49:30Z</time>
      </trkpt>
      <trkpt lat="42.90474792" lon="13.36693396">
        <ele>862.00000</ele>
        <time>2024-05-10T20:49:30Z</time>
      </trkpt>
      <trkpt lat="42.90473492" lon="13.36690597">
        <ele>862.00000</ele>
        <time>2024-05-10T20:49:31Z</time>
      </trkpt>
      <trkpt lat="42.90472093" lon="13.36688099">
        <ele>863.00000</ele>
        <time>2024-05-10T20:49:31Z</time>
      </trkpt>
      <trkpt lat="42.90470693" lon="13.36685693">
        <ele>863.00000</ele>
        <time>2024-05-10T20:49:32Z</time>
      </trkpt>
      <trkpt lat="42.90469293" lon="13.36683095">
        <ele>863.00000</ele>
        <time>2024-05-10T20:49:32Z</time>
      </trkpt>
      <trkpt lat="42.90468094" lon="13.36680094">
        <ele>863.00000</ele>
        <time>2024-05-10T20:49:33Z</time>
      </trkpt>
      <trkpt lat="42.90467097" lon="13.36677999">
        <ele>863.00000</ele>
        <time>2024-05-10T20:49:33Z</time>
      </trkpt>
      <trkpt lat="42.90465798" lon="13.36676096">
        <ele>863.00000</ele>
        <time>2024-05-10T20:49:33Z</time>
      </trkpt>
      <trkpt lat="42.90464599" lon="13.36674495">
        <ele>864.00000</ele>
        <time>2024-05-10T20:49:34Z</time>
      </trkpt>
      <trkpt lat="42.90463392" lon="13.36672299">
        <ele>864.00000</ele>
        <time>2024-05-10T20:49:34Z</time>
      </trkpt>
      <trkpt lat="42.90461791" lon="13.36669893">
        <ele>864.00000</ele>
        <time>2024-05-10T20:49:35Z</time>
      </trkpt>
      <trkpt lat="42.90460492" lon="13.36667899">
        <ele>865.00000</ele>
        <time>2024-05-10T20:49:35Z</time>
      </trkpt>
      <trkpt lat="42.90459092" lon="13.36665795">
        <ele>865.00000</ele>
        <time>2024-05-10T20:49:35Z</time>
      </trkpt>
      <trkpt lat="42.90457592" lon="13.36663397">
        <ele>865.00000</ele>
        <time>2024-05-10T20:49:36Z</time>
      </trkpt>
      <trkpt lat="42.90456393" lon="13.36661092">
        <ele>866.00000</ele>
        <time>2024-05-10T20:49:36Z</time>
      </trkpt>
      <trkpt lat="42.90454792" lon="13.36659399">
        <ele>866.00000</ele>
        <time>2024-05-10T20:49:37Z</time>
      </trkpt>
      <trkpt lat="42.90452999" lon="13.36657798">
        <ele>867.00000</ele>
        <time>2024-05-10T20:49:37Z</time>
      </trkpt>
      <trkpt lat="42.90450995" lon="13.36656793">
        <ele>867.00000</ele>
        <time>2024-05-10T20:49:37Z</time>
      </trkpt>
      <trkpt lat="42.90448992" lon="13.36655099">
        <ele>868.00000</ele>
        <time>2024-05-10T20:49:38Z</time>
      </trkpt>
      <trkpt lat="42.90447399" lon="13.36653792">
        <ele>868.00000</ele>
        <time>2024-05-10T20:49:38Z</time>
      </trkpt>
      <trkpt lat="42.90445497" lon="13.36652392">
        <ele>869.00000</ele>
        <time>2024-05-10T20:49:39Z</time>
      </trkpt>
      <trkpt lat="42.90443695" lon="13.36650799">
        <ele>869.00000</ele>
        <time>2024-05-10T20:49:39Z</time>
      </trkpt>
      <trkpt lat="42.90441893" lon="13.36648897">
        <ele>870.00000</ele>
        <time>2024-05-10T20:49:40Z</time>
      </trkpt>
      <trkpt lat="42.90440099" lon="13.36646994">
        <ele>870.00000</ele>
        <time>2024-05-10T20:49:40Z</time>
      </trkpt>
      <trkpt lat="42.90438297" lon="13.36645896">
        <ele>871.00000</ele>
        <time>2024-05-10T20:49:40Z</time>
      </trkpt>
      <trkpt lat="42.90436193" lon="13.36644597">
        <ele>871.00000</ele>
        <time>2024-05-10T20:49:41Z</time>
      </trkpt>
      <trkpt lat="42.90434399" lon="13.36643398">
        <ele>871.00000</ele>
        <time>2024-05-10T20:49:41Z</time>
      </trkpt>
      <trkpt lat="42.90432396" lon="13.36641596">
        <ele>872.00000</ele>
        <time>2024-05-10T20:49:42Z</time>
      </trkpt>
      <trkpt lat="42.90430895" lon="13.36640196">
        <ele>872.00000</ele>
        <time>2024-05-10T20:49:42Z</time>
      </trkpt>
      <trkpt lat="42.90429295" lon="13.36637699">
        <ele>873.00000</ele>
        <time>2024-05-10T20:49:43Z</time>
      </trkpt>
      <trkpt lat="42.90428599" lon="13.36634497">
        <ele>873.00000</ele>
        <time>2024-05-10T20:49:43Z</time>
      </trkpt>
      <trkpt lat="42.90428096" lon="13.36631295">
        <ele>873.00000</ele>
        <time>2024-05-10T20:49:44Z</time>
      </trkpt>
      <trkpt lat="42.90428398" lon="13.36627992">
        <ele>873.00000</ele>
        <time>2024-05-10T20:49:44Z</time>
      </trkpt>
      <trkpt lat="42.90428993" lon="13.36625595">
        <ele>873.00000</ele>
        <time>2024-05-10T20:49:45Z</time>
      </trkpt>
      <trkpt lat="42.90430099" lon="13.36622796">
        <ele>873.00000</ele>
        <time>2024-05-10T20:49:45Z</time>
      </trkpt>
      <trkpt lat="42.90432195" lon="13.36620097">
        <ele>873.00000</ele>
        <time>2024-05-10T20:49:46Z</time>
      </trkpt>
      <trkpt lat="42.90433997" lon="13.36617096">
        <ele>873.00000</ele>
        <time>2024-05-10T20:49:46Z</time>
      </trkpt>
      <trkpt lat="42.90435397" lon="13.36614095">
        <ele>873.00000</ele>
        <time>2024-05-10T20:49:47Z</time>
      </trkpt>
      <trkpt lat="42.90435992" lon="13.36610793">
        <ele>873.00000</ele>
        <time>2024-05-10T20:49:47Z</time>
      </trkpt>
      <trkpt lat="42.90436394" lon="13.36608295">
        <ele>873.00000</ele>
        <time>2024-05-10T20:49:48Z</time>
      </trkpt>
      <trkpt lat="42.90436595" lon="13.36606493">
        <ele>873.00000</ele>
        <time>2024-05-10T20:49:48Z</time>
      </trkpt>
      <trkpt lat="42.90436998" lon="13.36604791">
        <ele>873.00000</ele>
        <time>2024-05-10T20:49:48Z</time>
      </trkpt>
      <trkpt lat="42.90436796" lon="13.36602796">
        <ele>873.00000</ele>
        <time>2024-05-10T20:49:48Z</time>
      </trkpt>
      <trkpt lat="42.90436092" lon="13.36600592">
        <ele>873.00000</ele>
        <time>2024-05-10T20:49:49Z</time>
      </trkpt>
      <trkpt lat="42.90435497" lon="13.36598597">
        <ele>873.00000</ele>
        <time>2024-05-10T20:49:49Z</time>
      </trkpt>
      <trkpt lat="42.90434894" lon="13.36596191">
        <ele>873.00000</ele>
        <time>2024-05-10T20:49:49Z</time>
      </trkpt>
      <trkpt lat="42.90434491" lon="13.36593291">
        <ele>873.00000</ele>
        <time>2024-05-10T20:49:50Z</time>
      </trkpt>
      <trkpt lat="42.90433896" lon="13.36589293">
        <ele>873.00000</ele>
        <time>2024-05-10T20:49:50Z</time>
      </trkpt>
      <trkpt lat="42.90432396" lon="13.36586493">
        <ele>873.00000</ele>
        <time>2024-05-10T20:49:51Z</time>
      </trkpt>
      <trkpt lat="42.90431097" lon="13.36583099">
        <ele>873.00000</ele>
        <time>2024-05-10T20:49:51Z</time>
      </trkpt>
      <trkpt lat="42.90429898" lon="13.36579796">
        <ele>873.00000</ele>
        <time>2024-05-10T20:49:52Z</time>
      </trkpt>
      <trkpt lat="42.90428297" lon="13.36575698">
        <ele>874.00000</ele>
        <time>2024-05-10T20:49:53Z</time>
      </trkpt>
      <trkpt lat="42.90426596" lon="13.36571993">
        <ele>874.00000</ele>
        <time>2024-05-10T20:49:53Z</time>
      </trkpt>
      <trkpt lat="42.90424492" lon="13.36568095">
        <ele>874.00000</ele>
        <time>2024-05-10T20:49:54Z</time>
      </trkpt>
      <trkpt lat="42.90422597" lon="13.36564399">
        <ele>874.00000</ele>
        <time>2024-05-10T20:49:55Z</time>
      </trkpt>
      <trkpt lat="42.90420594" lon="13.36560895">
        <ele>874.00000</ele>
        <time>2024-05-10T20:49:55Z</time>
      </trkpt>
      <trkpt lat="42.90418499" lon="13.36557199">
        <ele>874.00000</ele>
        <time>2024-05-10T20:49:56Z</time>
      </trkpt>
      <trkpt lat="42.90416697" lon="13.36553393">
        <ele>874.00000</ele>
        <time>2024-05-10T20:49:57Z</time>
      </trkpt>
      <trkpt lat="42.90414199" lon="13.36549798">
        <ele>875.00000</ele>
        <time>2024-05-10T20:49:57Z</time>
      </trkpt>
      <trkpt lat="42.90411198" lon="13.36546294">
        <ele>876.00000</ele>
        <time>2024-05-10T20:49:58Z</time>
      </trkpt>
      <trkpt lat="42.90407795" lon="13.36542991">
        <ele>876.00000</ele>
        <time>2024-05-10T20:49:59Z</time>
      </trkpt>
      <trkpt lat="42.90404995" lon="13.36539496">
        <ele>877.00000</ele>
        <time>2024-05-10T20:50:00Z</time>
      </trkpt>
      <trkpt lat="42.90402196" lon="13.36535297">
        <ele>877.00000</ele>
        <time>2024-05-10T20:50:01Z</time>
      </trkpt>
      <trkpt lat="42.90399991" lon="13.36530494">
        <ele>877.00000</ele>
        <time>2024-05-10T20:50:01Z</time>
      </trkpt>
      <trkpt lat="42.90398692" lon="13.36525297">
        <ele>877.00000</ele>
        <time>2024-05-10T20:50:02Z</time>
      </trkpt>
      <trkpt lat="42.90397192" lon="13.36519799">
        <ele>876.00000</ele>
        <time>2024-05-10T20:50:03Z</time>
      </trkpt>
      <trkpt lat="42.90395197" lon="13.36514493">
        <ele>876.00000</ele>
        <time>2024-05-10T20:50:04Z</time>
      </trkpt>
      <trkpt lat="42.90392397" lon="13.36509497">
        <ele>876.00000</ele>
        <time>2024-05-10T20:50:05Z</time>
      </trkpt>
      <trkpt lat="42.90389397" lon="13.36503596">
        <ele>876.00000</ele>
        <time>2024-05-10T20:50:06Z</time>
      </trkpt>
      <trkpt lat="42.90386295" lon="13.36497997">
        <ele>875.00000</ele>
        <time>2024-05-10T20:50:07Z</time>
      </trkpt>
      <trkpt lat="42.90383596" lon="13.36492692">
        <ele>875.00000</ele>
        <time>2024-05-10T20:50:08Z</time>
      </trkpt>
      <trkpt lat="42.90380596" lon="13.36487193">
        <ele>875.00000</ele>
        <time>2024-05-10T20:50:09Z</time>
      </trkpt>
      <trkpt lat="42.90378098" lon="13.36482197">
        <ele>874.00000</ele>
        <time>2024-05-10T20:50:10Z</time>
      </trkpt>
      <trkpt lat="42.90375499" lon="13.36476992">
        <ele>874.00000</ele>
        <time>2024-05-10T20:50:11Z</time>
      </trkpt>
      <trkpt lat="42.90371895" lon="13.36470295">
        <ele>873.00000</ele>
        <time>2024-05-10T20:50:12Z</time>
      </trkpt>
      <trkpt lat="42.90368199" lon="13.36464998">
        <ele>873.00000</ele>
        <time>2024-05-10T20:50:13Z</time>
      </trkpt>
      <trkpt lat="42.90364494" lon="13.36459793">
        <ele>873.00000</ele>
        <time>2024-05-10T20:50:14Z</time>
      </trkpt>
      <trkpt lat="42.90361099" lon="13.36455292">
        <ele>873.00000</ele>
        <time>2024-05-10T20:50:15Z</time>
      </trkpt>
      <trkpt lat="42.90356992" lon="13.36451293">
        <ele>872.00000</ele>
        <time>2024-05-10T20:50:16Z</time>
      </trkpt>
      <trkpt lat="42.90352692" lon="13.36447094">
        <ele>872.00000</ele>
        <time>2024-05-10T20:50:17Z</time>
      </trkpt>
      <trkpt lat="42.90348594" lon="13.36442199">
        <ele>872.00000</ele>
        <time>2024-05-10T20:50:18Z</time>
      </trkpt>
      <trkpt lat="42.90344294" lon="13.36437396">
        <ele>871.00000</ele>
        <time>2024-05-10T20:50:19Z</time>
      </trkpt>
      <trkpt lat="42.90339692" lon="13.36431998">
        <ele>871.00000</ele>
        <time>2024-05-10T20:50:21Z</time>
      </trkpt>
      <trkpt lat="42.90335493" lon="13.36425896">
        <ele>871.00000</ele>
        <time>2024-05-10T20:50:22Z</time>
      </trkpt>
      <trkpt lat="42.90331293" lon="13.36418998">
        <ele>871.00000</ele>
        <time>2024-05-10T20:50:23Z</time>
      </trkpt>
      <trkpt lat="42.90327195" lon="13.36411697">
        <ele>871.00000</ele>
        <time>2024-05-10T20:50:24Z</time>
      </trkpt>
      <trkpt lat="42.90323096" lon="13.36404799">
        <ele>871.00000</ele>
        <time>2024-05-10T20:50:26Z</time>
      </trkpt>
      <trkpt lat="42.90318997" lon="13.36397599">
        <ele>871.00000</ele>
        <time>2024-05-10T20:50:27Z</time>
      </trkpt>
      <trkpt lat="42.90314295" lon="13.36389997">
        <ele>872.00000</ele>
        <time>2024-05-10T20:50:29Z</time>
      </trkpt>
      <trkpt lat="42.90309098" lon="13.36383693">
        <ele>873.00000</ele>
        <time>2024-05-10T20:50:30Z</time>
      </trkpt>
      <trkpt lat="42.90303692" lon="13.36378094">
        <ele>873.00000</ele>
        <time>2024-05-10T20:50:31Z</time>
      </trkpt>
      <trkpt lat="42.90298394" lon="13.36372897">
        <ele>872.00000</ele>
        <time>2024-05-10T20:50:33Z</time>
      </trkpt>
      <trkpt lat="42.90293499" lon="13.36368195">
        <ele>872.00000</ele>
        <time>2024-05-10T20:50:34Z</time>
      </trkpt>
      <trkpt lat="42.90288596" lon="13.36363795">
        <ele>871.00000</ele>
        <time>2024-05-10T20:50:35Z</time>
      </trkpt>
      <trkpt lat="42.90283592" lon="13.36360593">
        <ele>870.00000</ele>
        <time>2024-05-10T20:50:36Z</time>
      </trkpt>
      <trkpt lat="42.90279099" lon="13.36356393">
        <ele>869.00000</ele>
        <time>2024-05-10T20:50:37Z</time>
      </trkpt>
      <trkpt lat="42.90275294" lon="13.36351197">
        <ele>868.00000</ele>
        <time>2024-05-10T20:50:38Z</time>
      </trkpt>
      <trkpt lat="42.90272494" lon="13.36345396">
        <ele>867.00000</ele>
        <time>2024-05-10T20:50:39Z</time>
      </trkpt>
      <trkpt lat="42.90271195" lon="13.36338993">
        <ele>867.00000</ele>
        <time>2024-05-10T20:50:40Z</time>
      </trkpt>
      <trkpt lat="42.90270994" lon="13.36332497">
        <ele>867.00000</ele>
        <time>2024-05-10T20:50:41Z</time>
      </trkpt>
      <trkpt lat="42.90271698" lon="13.36325598">
        <ele>868.00000</ele>
        <time>2024-05-10T20:50:42Z</time>
      </trkpt>
      <trkpt lat="42.90273793" lon="13.36320192">
        <ele>869.00000</ele>
        <time>2024-05-10T20:50:43Z</time>
      </trkpt>
      <trkpt lat="42.90276392" lon="13.36315792">
        <ele>870.00000</ele>
        <time>2024-05-10T20:50:44Z</time>
      </trkpt>
      <trkpt lat="42.90278797" lon="13.36310695">
        <ele>870.00000</ele>
        <time>2024-05-10T20:50:45Z</time>
      </trkpt>
      <trkpt lat="42.90281094" lon="13.36305792">
        <ele>871.00000</ele>
        <time>2024-05-10T20:50:46Z</time>
      </trkpt>
      <trkpt lat="42.90282997" lon="13.36300595">
        <ele>871.00000</ele>
        <time>2024-05-10T20:50:47Z</time>
      </trkpt>
      <trkpt lat="42.90285092" lon="13.36295398">
        <ele>870.00000</ele>
        <time>2024-05-10T20:50:47Z</time>
      </trkpt>
      <trkpt lat="42.90287196" lon="13.36290696">
        <ele>870.00000</ele>
        <time>2024-05-10T20:50:48Z</time>
      </trkpt>
      <trkpt lat="42.90289895" lon="13.36286094">
        <ele>870.00000</ele>
        <time>2024-05-10T20:50:49Z</time>
      </trkpt>
      <trkpt lat="42.90292594" lon="13.36281099">
        <ele>870.00000</ele>
        <time>2024-05-10T20:50:50Z</time>
      </trkpt>
      <trkpt lat="42.90295293" lon="13.36276497">
        <ele>870.00000</ele>
        <time>2024-05-10T20:50:51Z</time>
      </trkpt>
      <trkpt lat="42.90298696" lon="13.36271996">
        <ele>870.00000</ele>
        <time>2024-05-10T20:50:52Z</time>
      </trkpt>
      <trkpt lat="42.90302191" lon="13.36267495">
        <ele>870.00000</ele>
        <time>2024-05-10T20:50:53Z</time>
      </trkpt>
      <trkpt lat="42.90305896" lon="13.36263396">
        <ele>870.00000</ele>
        <time>2024-05-10T20:50:54Z</time>
      </trkpt>
      <trkpt lat="42.90308696" lon="13.36258099">
        <ele>870.00000</ele>
        <time>2024-05-10T20:50:55Z</time>
      </trkpt>
      <trkpt lat="42.90310992" lon="13.36251092">
        <ele>870.00000</ele>
        <time>2024-05-10T20:50:56Z</time>
      </trkpt>
      <trkpt lat="42.90312392" lon="13.36243799">
        <ele>870.00000</ele>
        <time>2024-05-10T20:50:57Z</time>
      </trkpt>
      <trkpt lat="42.90313691" lon="13.36236692">
        <ele>871.00000</ele>
        <time>2024-05-10T20:50:58Z</time>
      </trkpt>
      <trkpt lat="42.90314395" lon="13.36229592">
        <ele>872.00000</ele>
        <time>2024-05-10T20:50:59Z</time>
      </trkpt>
      <trkpt lat="42.90314597" lon="13.36223297">
        <ele>872.00000</ele>
        <time>2024-05-10T20:51:00Z</time>
      </trkpt>
      <trkpt lat="42.90314295" lon="13.36216793">
        <ele>873.00000</ele>
        <time>2024-05-10T20:51:01Z</time>
      </trkpt>
      <trkpt lat="42.90314295" lon="13.36210993">
        <ele>873.00000</ele>
        <time>2024-05-10T20:51:02Z</time>
      </trkpt>
      <trkpt lat="42.90313792" lon="13.36205997">
        <ele>874.00000</ele>
        <time>2024-05-10T20:51:03Z</time>
      </trkpt>
      <trkpt lat="42.90313197" lon="13.36201597">
        <ele>874.00000</ele>
        <time>2024-05-10T20:51:03Z</time>
      </trkpt>
      <trkpt lat="42.90312996" lon="13.36198093">
        <ele>875.00000</ele>
        <time>2024-05-10T20:51:04Z</time>
      </trkpt>
      <trkpt lat="42.90312392" lon="13.36194698">
        <ele>875.00000</ele>
        <time>2024-05-10T20:51:04Z</time>
      </trkpt>
      <trkpt lat="42.90311998" lon="13.36191597">
        <ele>876.00000</ele>
        <time>2024-05-10T20:51:05Z</time>
      </trkpt>
      <trkpt lat="42.90311596" lon="13.36188697">
        <ele>876.00000</ele>
        <time>2024-05-10T20:51:05Z</time>
      </trkpt>
      <trkpt lat="42.90310791" lon="13.36186098">
        <ele>876.00000</ele>
        <time>2024-05-10T20:51:06Z</time>
      </trkpt>
      <trkpt lat="42.90310196" lon="13.36183592">
        <ele>877.00000</ele>
        <time>2024-05-10T20:51:06Z</time>
      </trkpt>
      <trkpt lat="42.90309593" lon="13.36180994">
        <ele>877.00000</ele>
        <time>2024-05-10T20:51:06Z</time>
      </trkpt>
      <trkpt lat="42.90309199" lon="13.36178094">
        <ele>877.00000</ele>
        <time>2024-05-10T20:51:07Z</time>
      </trkpt>
      <trkpt lat="42.90308696" lon="13.36175395">
        <ele>878.00000</ele>
        <time>2024-05-10T20:51:07Z</time>
      </trkpt>
      <trkpt lat="42.90307799" lon="13.36172092">
        <ele>878.00000</ele>
        <time>2024-05-10T20:51:08Z</time>
      </trkpt>
      <trkpt lat="42.90306491" lon="13.36169594">
        <ele>878.00000</ele>
        <time>2024-05-10T20:51:08Z</time>
      </trkpt>
      <trkpt lat="42.90304999" lon="13.36167692">
        <ele>878.00000</ele>
        <time>2024-05-10T20:51:09Z</time>
      </trkpt>
      <trkpt lat="42.90303591" lon="13.36165194">
        <ele>878.00000</ele>
        <time>2024-05-10T20:51:09Z</time>
      </trkpt>
      <trkpt lat="42.90302594" lon="13.36162495">
        <ele>879.00000</ele>
        <time>2024-05-10T20:51:09Z</time>
      </trkpt>
      <trkpt lat="42.90301697" lon="13.36159796">
        <ele>879.00000</ele>
        <time>2024-05-10T20:51:10Z</time>
      </trkpt>
      <trkpt lat="42.90300699" lon="13.36157399">
        <ele>879.00000</ele>
        <time>2024-05-10T20:51:10Z</time>
      </trkpt>
      <trkpt lat="42.90299794" lon="13.36154599">
        <ele>880.00000</ele>
        <time>2024-05-10T20:51:11Z</time>
      </trkpt>
      <trkpt lat="42.90299291" lon="13.36151297">
        <ele>880.00000</ele>
        <time>2024-05-10T20:51:11Z</time>
      </trkpt>
      <trkpt lat="42.90298596" lon="13.36148296">
        <ele>881.00000</ele>
        <time>2024-05-10T20:51:12Z</time>
      </trkpt>
      <trkpt lat="42.90297799" lon="13.36145798">
        <ele>881.00000</ele>
        <time>2024-05-10T20:51:12Z</time>
      </trkpt>
      <trkpt lat="42.90296592" lon="13.36143393">
        <ele>881.00000</ele>
        <time>2024-05-10T20:51:13Z</time>
      </trkpt>
      <trkpt lat="42.90295595" lon="13.36141498">
        <ele>882.00000</ele>
        <time>2024-05-10T20:51:13Z</time>
      </trkpt>
      <trkpt lat="42.90294497" lon="13.36139696">
        <ele>882.00000</ele>
        <time>2024-05-10T20:51:13Z</time>
      </trkpt>
      <trkpt lat="42.90292795" lon="13.36137894">
        <ele>882.00000</ele>
        <time>2024-05-10T20:51:14Z</time>
      </trkpt>
      <trkpt lat="42.90290993" lon="13.36136193">
        <ele>882.00000</ele>
        <time>2024-05-10T20:51:14Z</time>
      </trkpt>
      <trkpt lat="42.90289292" lon="13.36134994">
        <ele>882.00000</ele>
        <time>2024-05-10T20:51:14Z</time>
      </trkpt>
      <trkpt lat="42.90287892" lon="13.36133192">
        <ele>883.00000</ele>
        <time>2024-05-10T20:51:15Z</time>
      </trkpt>
      <trkpt lat="42.90286492" lon="13.36130895">
        <ele>883.00000</ele>
        <time>2024-05-10T20:51:15Z</time>
      </trkpt>
      <trkpt lat="42.90285193" lon="13.36129294">
        <ele>883.00000</ele>
        <time>2024-05-10T20:51:16Z</time>
      </trkpt>
      <trkpt lat="42.90283793" lon="13.36127693">
        <ele>884.00000</ele>
        <time>2024-05-10T20:51:16Z</time>
      </trkpt>
      <trkpt lat="42.90282494" lon="13.36125095">
        <ele>884.00000</ele>
        <time>2024-05-10T20:51:16Z</time>
      </trkpt>
      <trkpt lat="42.90281094" lon="13.36122798">
        <ele>885.00000</ele>
        <time>2024-05-10T20:51:17Z</time>
      </trkpt>
      <trkpt lat="42.90280197" lon="13.36120493">
        <ele>885.00000</ele>
        <time>2024-05-10T20:51:17Z</time>
      </trkpt>
      <trkpt lat="42.90278697" lon="13.36117794">
        <ele>886.00000</ele>
        <time>2024-05-10T20:51:18Z</time>
      </trkpt>
      <trkpt lat="42.90276995" lon="13.36115598">
        <ele>886.00000</ele>
        <time>2024-05-10T20:51:18Z</time>
      </trkpt>
      <trkpt lat="42.90275394" lon="13.36113494">
        <ele>887.00000</ele>
        <time>2024-05-10T20:51:19Z</time>
      </trkpt>
      <trkpt lat="42.90273492" lon="13.36111994">
        <ele>887.00000</ele>
        <time>2024-05-10T20:51:19Z</time>
      </trkpt>
      <trkpt lat="42.90271799" lon="13.36110292">
        <ele>887.00000</ele>
        <time>2024-05-10T20:51:20Z</time>
      </trkpt>
      <trkpt lat="42.90270793" lon="13.36108499">
        <ele>887.00000</ele>
        <time>2024-05-10T20:51:20Z</time>
      </trkpt>
      <trkpt lat="42.90269091" lon="13.36106998">
        <ele>887.00000</ele>
        <time>2024-05-10T20:51:20Z</time>
      </trkpt>
      <trkpt lat="42.90267096" lon="13.36105599">
        <ele>887.00000</ele>
        <time>2024-05-10T20:51:21Z</time>
      </trkpt>
      <trkpt lat="42.90265294" lon="13.36104199">
        <ele>887.00000</ele>
        <time>2024-05-10T20:51:21Z</time>
      </trkpt>
      <trkpt lat="42.90263593" lon="13.36102296">
        <ele>887.00000</ele>
        <time>2024-05-10T20:51:22Z</time>
      </trkpt>
      <trkpt lat="42.90261891" lon="13.36100393">
        <ele>887.00000</ele>
        <time>2024-05-10T20:51:22Z</time>
      </trkpt>
      <trkpt lat="42.90260198" lon="13.36099295">
        <ele>887.00000</ele>
        <time>2024-05-10T20:51:22Z</time>
      </trkpt>
      <trkpt lat="42.90257994" lon="13.36098197">
        <ele>887.00000</ele>
        <time>2024-05-10T20:51:23Z</time>
      </trkpt>
      <trkpt lat="42.90255898" lon="13.36096798">
        <ele>886.00000</ele>
        <time>2024-05-10T20:51:23Z</time>
      </trkpt>
      <trkpt lat="42.90254297" lon="13.36095197">
        <ele>886.00000</ele>
        <time>2024-05-10T20:51:24Z</time>
      </trkpt>
      <trkpt lat="42.90252294" lon="13.36093797">
        <ele>886.00000</ele>
        <time>2024-05-10T20:51:24Z</time>
      </trkpt>
      <trkpt lat="42.90250198" lon="13.36092296">
        <ele>886.00000</ele>
        <time>2024-05-10T20:51:25Z</time>
      </trkpt>
      <trkpt lat="42.90248396" lon="13.36090897">
        <ele>886.00000</ele>
        <time>2024-05-10T20:51:25Z</time>
      </trkpt>
      <trkpt lat="42.90246695" lon="13.36089396">
        <ele>886.00000</ele>
        <time>2024-05-10T20:51:26Z</time>
      </trkpt>
      <trkpt lat="42.90244893" lon="13.36087795">
        <ele>885.00000</ele>
        <time>2024-05-10T20:51:26Z</time>
      </trkpt>
      <trkpt lat="42.90242998" lon="13.36086396">
        <ele>885.00000</ele>
        <time>2024-05-10T20:51:26Z</time>
      </trkpt>
      <trkpt lat="42.90241196" lon="13.36084795">
        <ele>885.00000</ele>
        <time>2024-05-10T20:51:27Z</time>
      </trkpt>
      <trkpt lat="42.90239495" lon="13.36083898">
        <ele>885.00000</ele>
        <time>2024-05-10T20:51:27Z</time>
      </trkpt>
      <trkpt lat="42.90237793" lon="13.36082397">
        <ele>885.00000</ele>
        <time>2024-05-10T20:51:28Z</time>
      </trkpt>
      <trkpt lat="42.90235999" lon="13.36080495">
        <ele>884.00000</ele>
        <time>2024-05-10T20:51:28Z</time>
      </trkpt>
      <trkpt lat="42.90234197" lon="13.36078693">
        <ele>884.00000</ele>
        <time>2024-05-10T20:51:28Z</time>
      </trkpt>
      <trkpt lat="42.90232094" lon="13.36077092">
        <ele>884.00000</ele>
        <time>2024-05-10T20:51:29Z</time>
      </trkpt>
      <trkpt lat="42.90230493" lon="13.36075793">
        <ele>884.00000</ele>
        <time>2024-05-10T20:51:29Z</time>
      </trkpt>
      <trkpt lat="42.90228598" lon="13.36074192">
        <ele>883.00000</ele>
        <time>2024-05-10T20:51:30Z</time>
      </trkpt>
      <trkpt lat="42.90226394" lon="13.36072993">
        <ele>883.00000</ele>
        <time>2024-05-10T20:51:30Z</time>
      </trkpt>
      <trkpt lat="42.90224491" lon="13.36071794">
        <ele>883.00000</ele>
        <time>2024-05-10T20:51:31Z</time>
      </trkpt>
      <trkpt lat="42.90222899" lon="13.36069699">
        <ele>883.00000</ele>
        <time>2024-05-10T20:51:31Z</time>
      </trkpt>
      <trkpt lat="42.90221499" lon="13.36066992">
        <ele>882.00000</ele>
        <time>2024-05-10T20:51:32Z</time>
      </trkpt>
      <trkpt lat="42.90219697" lon="13.36064795">
        <ele>882.00000</ele>
        <time>2024-05-10T20:51:32Z</time>
      </trkpt>
      <trkpt lat="42.90218397" lon="13.36062692">
        <ele>882.00000</ele>
        <time>2024-05-10T20:51:32Z</time>
      </trkpt>
      <trkpt lat="42.90217299" lon="13.36060294">
        <ele>882.00000</ele>
        <time>2024-05-10T20:51:33Z</time>
      </trkpt>
      <trkpt lat="42.90215699" lon="13.36058199">
        <ele>882.00000</ele>
        <time>2024-05-10T20:51:33Z</time>
      </trkpt>
      <trkpt lat="42.90214299" lon="13.36056799">
        <ele>882.00000</ele>
        <time>2024-05-10T20:51:34Z</time>
      </trkpt>
      <trkpt lat="42.90198197" lon="13.36051099">
        <ele>880.00000</ele>
        <time>2024-05-10T20:51:37Z</time>
      </trkpt>
      <trkpt lat="42.90199597" lon="13.36051695">
        <ele>880.00000</ele>
        <time>2024-05-10T20:51:37Z</time>
      </trkpt>
      <trkpt lat="42.90201198" lon="13.36051594">
        <ele>880.00000</ele>
        <time>2024-05-10T20:51:38Z</time>
      </trkpt>
      <trkpt lat="42.90202799" lon="13.36051493">
        <ele>881.00000</ele>
        <time>2024-05-10T20:51:38Z</time>
      </trkpt>
      <trkpt lat="42.90204492" lon="13.36052197">
        <ele>881.00000</ele>
        <time>2024-05-10T20:51:38Z</time>
      </trkpt>
      <trkpt lat="42.90206093" lon="13.36052893">
        <ele>881.00000</ele>
        <time>2024-05-10T20:51:39Z</time>
      </trkpt>
      <trkpt lat="42.90207895" lon="13.36053899">
        <ele>881.00000</ele>
        <time>2024-05-10T20:51:39Z</time>
      </trkpt>
      <trkpt lat="42.90210099" lon="13.36054394">
        <ele>881.00000</ele>
        <time>2024-05-10T20:51:39Z</time>
      </trkpt>
      <trkpt lat="42.90212396" lon="13.36055098">
        <ele>882.00000</ele>
        <time>2024-05-10T20:51:40Z</time>
      </trkpt>
      <trkpt lat="42.90214299" lon="13.36055492">
        <ele>882.00000</ele>
        <time>2024-05-10T20:51:40Z</time>
      </trkpt>
      <trkpt lat="42.90216193" lon="13.36055399">
        <ele>882.00000</ele>
        <time>2024-05-10T20:51:41Z</time>
      </trkpt>
      <trkpt lat="42.90218699" lon="13.36055098">
        <ele>882.00000</ele>
        <time>2024-05-10T20:51:41Z</time>
      </trkpt>
      <trkpt lat="42.90221499" lon="13.36054595">
        <ele>882.00000</ele>
        <time>2024-05-10T20:51:42Z</time>
      </trkpt>
      <trkpt lat="42.90224298" lon="13.36054394">
        <ele>883.00000</ele>
        <time>2024-05-10T20:51:42Z</time>
      </trkpt>
      <trkpt lat="42.90226997" lon="13.36054494">
        <ele>883.00000</ele>
        <time>2024-05-10T20:51:43Z</time>
      </trkpt>
      <trkpt lat="42.90229495" lon="13.36054695">
        <ele>883.00000</ele>
        <time>2024-05-10T20:51:43Z</time>
      </trkpt>
      <trkpt lat="42.90232194" lon="13.36054695">
        <ele>884.00000</ele>
        <time>2024-05-10T20:51:44Z</time>
      </trkpt>
      <trkpt lat="42.90234792" lon="13.36054494">
        <ele>884.00000</ele>
        <time>2024-05-10T20:51:44Z</time>
      </trkpt>
      <trkpt lat="42.90237098" lon="13.36055492">
        <ele>885.00000</ele>
        <time>2024-05-10T20:51:45Z</time>
      </trkpt>
      <trkpt lat="42.90239394" lon="13.36055894">
        <ele>885.00000</ele>
        <time>2024-05-10T20:51:45Z</time>
      </trkpt>
      <trkpt lat="42.90241599" lon="13.36056992">
        <ele>885.00000</ele>
        <time>2024-05-10T20:51:46Z</time>
      </trkpt>
      <trkpt lat="42.90244096" lon="13.36058098">
        <ele>886.00000</ele>
        <time>2024-05-10T20:51:46Z</time>
      </trkpt>
      <trkpt lat="42.90246393" lon="13.36059096">
        <ele>886.00000</ele>
        <time>2024-05-10T20:51:47Z</time>
      </trkpt>
      <trkpt lat="42.90248597" lon="13.36059699">
        <ele>886.00000</ele>
        <time>2024-05-10T20:51:47Z</time>
      </trkpt>
      <trkpt lat="42.90250794" lon="13.36059993">
        <ele>887.00000</ele>
        <time>2024-05-10T20:51:48Z</time>
      </trkpt>
      <trkpt lat="42.90253392" lon="13.36060294">
        <ele>887.00000</ele>
        <time>2024-05-10T20:51:48Z</time>
      </trkpt>
      <trkpt lat="42.90255898" lon="13.36060596">
        <ele>888.00000</ele>
        <time>2024-05-10T20:51:49Z</time>
      </trkpt>
      <trkpt lat="42.90258496" lon="13.36060797">
        <ele>888.00000</ele>
        <time>2024-05-10T20:51:49Z</time>
      </trkpt>
      <trkpt lat="42.90260894" lon="13.36061594">
        <ele>889.00000</ele>
        <time>2024-05-10T20:51:50Z</time>
      </trkpt>
      <trkpt lat="42.90263492" lon="13.36062499">
        <ele>889.00000</ele>
        <time>2024-05-10T20:51:50Z</time>
      </trkpt>
      <trkpt lat="42.90265998" lon="13.36063899">
        <ele>890.00000</ele>
        <time>2024-05-10T20:51:51Z</time>
      </trkpt>
      <trkpt lat="42.90268194" lon="13.36064997">
        <ele>890.00000</ele>
        <time>2024-05-10T20:51:51Z</time>
      </trkpt>
      <trkpt lat="42.90270399" lon="13.36065399">
        <ele>891.00000</ele>
        <time>2024-05-10T20:51:52Z</time>
      </trkpt>
      <trkpt lat="42.90272494" lon="13.36065793">
        <ele>891.00000</ele>
        <time>2024-05-10T20:51:52Z</time>
      </trkpt>
      <trkpt lat="42.90274892" lon="13.36065994">
        <ele>892.00000</ele>
        <time>2024-05-10T20:51:53Z</time>
      </trkpt>
      <trkpt lat="42.90277498" lon="13.36066598">
        <ele>892.00000</ele>
        <time>2024-05-10T20:51:53Z</time>
      </trkpt>
      <trkpt lat="42.90280298" lon="13.36066698">
        <ele>893.00000</ele>
        <time>2024-05-10T20:51:54Z</time>
      </trkpt>
      <trkpt lat="42.90282695" lon="13.36066598">
        <ele>893.00000</ele>
        <time>2024-05-10T20:51:54Z</time>
      </trkpt>
      <trkpt lat="42.90284899" lon="13.36066396">
        <ele>893.00000</ele>
        <time>2024-05-10T20:51:55Z</time>
      </trkpt>
      <trkpt lat="42.90287498" lon="13.36066899">
        <ele>894.00000</ele>
        <time>2024-05-10T20:51:55Z</time>
      </trkpt>
      <trkpt lat="42.90290096" lon="13.36066992">
        <ele>894.00000</ele>
        <time>2024-05-10T20:51:56Z</time>
      </trkpt>
      <trkpt lat="42.90292695" lon="13.36066497">
        <ele>895.00000</ele>
        <time>2024-05-10T20:51:56Z</time>
      </trkpt>
      <trkpt lat="42.90295092" lon="13.36065793">
        <ele>895.00000</ele>
        <time>2024-05-10T20:51:57Z</time>
      </trkpt>
      <trkpt lat="42.90297699" lon="13.36064293">
        <ele>896.00000</ele>
        <time>2024-05-10T20:51:57Z</time>
      </trkpt>
      <trkpt lat="42.90300096" lon="13.36062599">
        <ele>896.00000</ele>
        <time>2024-05-10T20:51:58Z</time>
      </trkpt>
      <trkpt lat="42.90301898" lon="13.36061493">
        <ele>896.00000</ele>
        <time>2024-05-10T20:51:58Z</time>
      </trkpt>
      <trkpt lat="42.90303591" lon="13.36059993">
        <ele>896.00000</ele>
        <time>2024-05-10T20:51:59Z</time>
      </trkpt>
      <trkpt lat="42.90305494" lon="13.36058392">
        <ele>897.00000</ele>
        <time>2024-05-10T20:51:59Z</time>
      </trkpt>
      <trkpt lat="42.90307497" lon="13.36057092">
        <ele>897.00000</ele>
        <time>2024-05-10T20:52:00Z</time>
      </trkpt>
      <trkpt lat="42.90309492" lon="13.36055793">
        <ele>897.00000</ele>
        <time>2024-05-10T20:52:00Z</time>
      </trkpt>
      <trkpt lat="42.90311998" lon="13.36054092">
        <ele>897.00000</ele>
        <time>2024-05-10T20:52:01Z</time>
      </trkpt>
      <trkpt lat="42.90315099" lon="13.36051393">
        <ele>897.00000</ele>
        <time>2024-05-10T20:52:01Z</time>
      </trkpt>
      <trkpt lat="42.90318896" lon="13.36047998">
        <ele>898.00000</ele>
        <time>2024-05-10T20:52:02Z</time>
      </trkpt>
      <trkpt lat="42.90322693" lon="13.36044293">
        <ele>898.00000</ele>
        <time>2024-05-10T20:52:03Z</time>
      </trkpt>
      <trkpt lat="42.90327396" lon="13.36040094">
        <ele>898.00000</ele>
        <time>2024-05-10T20:52:04Z</time>
      </trkpt>
      <trkpt lat="42.90331494" lon="13.36035291">
        <ele>898.00000</ele>
        <time>2024-05-10T20:52:05Z</time>
      </trkpt>
      <trkpt lat="42.90335493" lon="13.36028896">
        <ele>897.00000</ele>
        <time>2024-05-10T20:52:07Z</time>
      </trkpt>
      <trkpt lat="42.90339298" lon="13.36020799">
        <ele>896.00000</ele>
        <time>2024-05-10T20:52:08Z</time>
      </trkpt>
      <trkpt lat="42.90342793" lon="13.36011294">
        <ele>895.00000</ele>
        <time>2024-05-10T20:52:10Z</time>
      </trkpt>
      <trkpt lat="42.90346196" lon="13.36001797">
        <ele>894.00000</ele>
        <time>2024-05-10T20:52:11Z</time>
      </trkpt>
      <trkpt lat="42.90350496" lon="13.35992292">
        <ele>893.00000</ele>
        <time>2024-05-10T20:52:13Z</time>
      </trkpt>
      <trkpt lat="42.90355492" lon="13.35982091">
        <ele>892.00000</ele>
        <time>2024-05-10T20:52:15Z</time>
      </trkpt>
      <trkpt lat="42.90361192" lon="13.35972494">
        <ele>892.00000</ele>
        <time>2024-05-10T20:52:16Z</time>
      </trkpt>
      <trkpt lat="42.90366698" lon="13.35961799">
        <ele>890.00000</ele>
        <time>2024-05-10T20:52:18Z</time>
      </trkpt>
      <trkpt lat="42.90372197" lon="13.35951799">
        <ele>889.00000</ele>
        <time>2024-05-10T20:52:20Z</time>
      </trkpt>
      <trkpt lat="42.90377494" lon="13.35942495">
        <ele>888.00000</ele>
        <time>2024-05-10T20:52:22Z</time>
      </trkpt>
      <trkpt lat="42.90383194" lon="13.35932797">
        <ele>888.00000</ele>
        <time>2024-05-10T20:52:24Z</time>
      </trkpt>
      <trkpt lat="42.90389497" lon="13.35923896">
        <ele>889.00000</ele>
        <time>2024-05-10T20:52:25Z</time>
      </trkpt>
      <trkpt lat="42.90395792" lon="13.35916897">
        <ele>888.00000</ele>
        <time>2024-05-10T20:52:27Z</time>
      </trkpt>
      <trkpt lat="42.90401198" lon="13.35909496">
        <ele>887.00000</ele>
        <time>2024-05-10T20:52:29Z</time>
      </trkpt>
      <trkpt lat="42.90406395" lon="13.35901793">
        <ele>887.00000</ele>
        <time>2024-05-10T20:52:30Z</time>
      </trkpt>
      <trkpt lat="42.90410896" lon="13.35893495">
        <ele>887.00000</ele>
        <time>2024-05-10T20:52:32Z</time>
      </trkpt>
      <trkpt lat="42.90415196" lon="13.35884392">
        <ele>887.00000</ele>
        <time>2024-05-10T20:52:33Z</time>
      </trkpt>
      <trkpt lat="42.90419295" lon="13.35875599">
        <ele>886.00000</ele>
        <time>2024-05-10T20:52:35Z</time>
      </trkpt>
      <trkpt lat="42.90422497" lon="13.35866094">
        <ele>886.00000</ele>
        <time>2024-05-10T20:52:36Z</time>
      </trkpt>
      <trkpt lat="42.90423997" lon="13.35855097">
        <ele>886.00000</ele>
        <time>2024-05-10T20:52:38Z</time>
      </trkpt>
      <trkpt lat="42.90423595" lon="13.35843396">
        <ele>888.00000</ele>
        <time>2024-05-10T20:52:40Z</time>
      </trkpt>
      <trkpt lat="42.90421592" lon="13.35832399">
        <ele>890.00000</ele>
        <time>2024-05-10T20:52:41Z</time>
      </trkpt>
      <trkpt lat="42.90419999" lon="13.35821092">
        <ele>891.00000</ele>
        <time>2024-05-10T20:52:43Z</time>
      </trkpt>
      <trkpt lat="42.90419295" lon="13.35809793">
        <ele>892.00000</ele>
        <time>2024-05-10T20:52:45Z</time>
      </trkpt>
      <trkpt lat="42.90418398" lon="13.35798494">
        <ele>893.00000</ele>
        <time>2024-05-10T20:52:46Z</time>
      </trkpt>
      <trkpt lat="42.90418297" lon="13.35786298">
        <ele>893.00000</ele>
        <time>2024-05-10T20:52:48Z</time>
      </trkpt>
      <trkpt lat="42.90417895" lon="13.35773399">
        <ele>893.00000</ele>
        <time>2024-05-10T20:52:50Z</time>
      </trkpt>
      <trkpt lat="42.90418893" lon="13.35763198">
        <ele>893.00000</ele>
        <time>2024-05-10T20:52:52Z</time>
      </trkpt>
      <trkpt lat="42.90418297" lon="13.35754095">
        <ele>893.00000</ele>
        <time>2024-05-10T20:52:53Z</time>
      </trkpt>
      <trkpt lat="42.90417895" lon="13.35744598">
        <ele>893.00000</ele>
        <time>2024-05-10T20:52:54Z</time>
      </trkpt>
      <trkpt lat="42.90416596" lon="13.35737097">
        <ele>893.00000</ele>
        <time>2024-05-10T20:52:55Z</time>
      </trkpt>
      <trkpt lat="42.90414593" lon="13.35731598">
        <ele>892.00000</ele>
        <time>2024-05-10T20:52:56Z</time>
      </trkpt>
      <trkpt lat="42.90412497" lon="13.35726996">
        <ele>892.00000</ele>
        <time>2024-05-10T20:52:57Z</time>
      </trkpt>
      <trkpt lat="42.90410293" lon="13.35722093">
        <ele>892.00000</ele>
        <time>2024-05-10T20:52:58Z</time>
      </trkpt>
      <trkpt lat="42.90407191" lon="13.35719092">
        <ele>892.00000</ele>
        <time>2024-05-10T20:52:59Z</time>
      </trkpt>
      <trkpt lat="42.90403998" lon="13.35716494">
        <ele>891.00000</ele>
        <time>2024-05-10T20:52:59Z</time>
      </trkpt>
      <trkpt lat="42.90401391" lon="13.35714692">
        <ele>891.00000</ele>
        <time>2024-05-10T20:53:00Z</time>
      </trkpt>
      <trkpt lat="42.90398692" lon="13.35713493">
        <ele>891.00000</ele>
        <time>2024-05-10T20:53:01Z</time>
      </trkpt>
      <trkpt lat="42.90395993" lon="13.35712093">
        <ele>891.00000</ele>
        <time>2024-05-10T20:53:01Z</time>
      </trkpt>
      <trkpt lat="42.90393194" lon="13.35711297">
        <ele>891.00000</ele>
        <time>2024-05-10T20:53:02Z</time>
      </trkpt>
      <trkpt lat="42.90390294" lon="13.35709797">
        <ele>892.00000</ele>
        <time>2024-05-10T20:53:02Z</time>
      </trkpt>
      <trkpt lat="42.90386999" lon="13.35707793">
        <ele>892.00000</ele>
        <time>2024-05-10T20:53:03Z</time>
      </trkpt>
      <trkpt lat="42.90382993" lon="13.35706092">
        <ele>892.00000</ele>
        <time>2024-05-10T20:53:04Z</time>
      </trkpt>
      <trkpt lat="42.90378693" lon="13.35702295">
        <ele>892.00000</ele>
        <time>2024-05-10T20:53:05Z</time>
      </trkpt>
      <trkpt lat="42.90374594" lon="13.35697392">
        <ele>893.00000</ele>
        <time>2024-05-10T20:53:06Z</time>
      </trkpt>
      <trkpt lat="42.90370596" lon="13.35692295">
        <ele>892.00000</ele>
        <time>2024-05-10T20:53:07Z</time>
      </trkpt>
      <trkpt lat="42.90366598" lon="13.35687291">
        <ele>892.00000</ele>
        <time>2024-05-10T20:53:08Z</time>
      </trkpt>
      <trkpt lat="42.90363295" lon="13.35681592">
        <ele>892.00000</ele>
        <time>2024-05-10T20:53:09Z</time>
      </trkpt>
      <trkpt lat="42.90359993" lon="13.35675196">
        <ele>891.00000</ele>
        <time>2024-05-10T20:53:10Z</time>
      </trkpt>
      <trkpt lat="42.90356598" lon="13.35669597">
        <ele>891.00000</ele>
        <time>2024-05-10T20:53:12Z</time>
      </trkpt>
      <trkpt lat="42.90353396" lon="13.35663696">
        <ele>891.00000</ele>
        <time>2024-05-10T20:53:13Z</time>
      </trkpt>
      <trkpt lat="42.90350094" lon="13.35656999">
        <ele>891.00000</ele>
        <time>2024-05-10T20:53:14Z</time>
      </trkpt>
      <trkpt lat="42.90347496" lon="13.35650394">
        <ele>890.00000</ele>
        <time>2024-05-10T20:53:15Z</time>
      </trkpt>
      <trkpt lat="42.90345098" lon="13.35643194">
        <ele>890.00000</ele>
        <time>2024-05-10T20:53:16Z</time>
      </trkpt>
      <trkpt lat="42.90343397" lon="13.35635399">
        <ele>889.00000</ele>
        <time>2024-05-10T20:53:17Z</time>
      </trkpt>
      <trkpt lat="42.90342299" lon="13.35626598">
        <ele>888.00000</ele>
        <time>2024-05-10T20:53:19Z</time>
      </trkpt>
      <trkpt lat="42.90342098" lon="13.35617696">
        <ele>887.00000</ele>
        <time>2024-05-10T20:53:20Z</time>
      </trkpt>
      <trkpt lat="42.90341695" lon="13.35607093">
        <ele>885.00000</ele>
        <time>2024-05-10T20:53:21Z</time>
      </trkpt>
      <trkpt lat="42.90338996" lon="13.35596096">
        <ele>885.00000</ele>
        <time>2024-05-10T20:53:23Z</time>
      </trkpt>
      <trkpt lat="42.90335199" lon="13.35586298">
        <ele>885.00000</ele>
        <time>2024-05-10T20:53:25Z</time>
      </trkpt>
      <trkpt lat="42.90330195" lon="13.35578192">
        <ele>885.00000</ele>
        <time>2024-05-10T20:53:26Z</time>
      </trkpt>
      <trkpt lat="42.90324294" lon="13.35571696">
        <ele>886.00000</ele>
        <time>2024-05-10T20:53:28Z</time>
      </trkpt>
      <trkpt lat="42.90318394" lon="13.35565594">
        <ele>886.00000</ele>
        <time>2024-05-10T20:53:29Z</time>
      </trkpt>
      <trkpt lat="42.90311898" lon="13.35558897">
        <ele>888.00000</ele>
        <time>2024-05-10T20:53:31Z</time>
      </trkpt>
      <trkpt lat="42.90304999" lon="13.35552896">
        <ele>889.00000</ele>
        <time>2024-05-10T20:53:33Z</time>
      </trkpt>
      <trkpt lat="42.90298797" lon="13.35545796">
        <ele>889.00000</ele>
        <time>2024-05-10T20:53:34Z</time>
      </trkpt>
      <trkpt lat="42.90292996" lon="13.35537599">
        <ele>888.00000</ele>
        <time>2024-05-10T20:53:36Z</time>
      </trkpt>
      <trkpt lat="42.90286794" lon="13.35529494">
        <ele>887.00000</ele>
        <time>2024-05-10T20:53:38Z</time>
      </trkpt>
      <trkpt lat="42.90280994" lon="13.35520399">
        <ele>886.00000</ele>
        <time>2024-05-10T20:53:39Z</time>
      </trkpt>
      <trkpt lat="42.90275897" lon="13.35510794">
        <ele>885.00000</ele>
        <time>2024-05-10T20:53:41Z</time>
      </trkpt>
      <trkpt lat="42.90270893" lon="13.35501699">
        <ele>884.00000</ele>
        <time>2024-05-10T20:53:43Z</time>
      </trkpt>
      <trkpt lat="42.90265596" lon="13.35492798">
        <ele>883.00000</ele>
        <time>2024-05-10T20:53:44Z</time>
      </trkpt>
      <trkpt lat="42.90260592" lon="13.35485195">
        <ele>883.00000</ele>
        <time>2024-05-10T20:53:46Z</time>
      </trkpt>
      <trkpt lat="42.90255798" lon="13.35477492">
        <ele>883.00000</ele>
        <time>2024-05-10T20:53:47Z</time>
      </trkpt>
      <trkpt lat="42.90251196" lon="13.35469597">
        <ele>884.00000</ele>
        <time>2024-05-10T20:53:49Z</time>
      </trkpt>
      <trkpt lat="42.90246091" lon="13.35462195">
        <ele>884.00000</ele>
        <time>2024-05-10T20:53:50Z</time>
      </trkpt>
      <trkpt lat="42.90241297" lon="13.35454492">
        <ele>884.00000</ele>
        <time>2024-05-10T20:53:52Z</time>
      </trkpt>
      <trkpt lat="42.90237399" lon="13.35446395">
        <ele>884.00000</ele>
        <time>2024-05-10T20:53:53Z</time>
      </trkpt>
      <trkpt lat="42.90234792" lon="13.35438298">
        <ele>884.00000</ele>
        <time>2024-05-10T20:53:55Z</time>
      </trkpt>
      <trkpt lat="42.90233292" lon="13.35430394">
        <ele>883.00000</ele>
        <time>2024-05-10T20:53:56Z</time>
      </trkpt>
      <trkpt lat="42.90232395" lon="13.35423496">
        <ele>882.00000</ele>
        <time>2024-05-10T20:53:57Z</time>
      </trkpt>
      <trkpt lat="42.90231691" lon="13.35417092">
        <ele>882.00000</ele>
        <time>2024-05-10T20:53:58Z</time>
      </trkpt>
      <trkpt lat="42.90231691" lon="13.35410596">
        <ele>881.00000</ele>
        <time>2024-05-10T20:53:59Z</time>
      </trkpt>
      <trkpt lat="42.90231599" lon="13.35404897">
        <ele>881.00000</ele>
        <time>2024-05-10T20:54:00Z</time>
      </trkpt>
      <trkpt lat="42.90231297" lon="13.35398895">
        <ele>880.00000</ele>
        <time>2024-05-10T20:54:00Z</time>
      </trkpt>
      <trkpt lat="42.90231197" lon="13.35391997">
        <ele>880.00000</ele>
        <time>2024-05-10T20:54:02Z</time>
      </trkpt>
      <trkpt lat="42.90231398" lon="13.35385593">
        <ele>879.00000</ele>
        <time>2024-05-10T20:54:02Z</time>
      </trkpt>
      <trkpt lat="42.90231993" lon="13.35377999">
        <ele>879.00000</ele>
        <time>2024-05-10T20:54:04Z</time>
      </trkpt>
      <trkpt lat="42.90232898" lon="13.35371193">
        <ele>878.00000</ele>
        <time>2024-05-10T20:54:05Z</time>
      </trkpt>
      <trkpt lat="42.90234399" lon="13.35363892">
        <ele>877.00000</ele>
        <time>2024-05-10T20:54:06Z</time>
      </trkpt>
      <trkpt lat="42.90235597" lon="13.35356592">
        <ele>877.00000</ele>
        <time>2024-05-10T20:54:07Z</time>
      </trkpt>
      <trkpt lat="42.90236695" lon="13.35348294">
        <ele>876.00000</ele>
        <time>2024-05-10T20:54:08Z</time>
      </trkpt>
      <trkpt lat="42.90237198" lon="13.35339694">
        <ele>875.00000</ele>
        <time>2024-05-10T20:54:09Z</time>
      </trkpt>
      <trkpt lat="42.90237198" lon="13.35330893">
        <ele>875.00000</ele>
        <time>2024-05-10T20:54:11Z</time>
      </trkpt>
      <trkpt lat="42.90236896" lon="13.35322092">
        <ele>874.00000</ele>
        <time>2024-05-10T20:54:12Z</time>
      </trkpt>
      <trkpt lat="42.90237399" lon="13.35313794">
        <ele>874.00000</ele>
        <time>2024-05-10T20:54:13Z</time>
      </trkpt>
      <trkpt lat="42.90239193" lon="13.35305999">
        <ele>874.00000</ele>
        <time>2024-05-10T20:54:14Z</time>
      </trkpt>
      <trkpt lat="42.90241892" lon="13.35297994">
        <ele>875.00000</ele>
        <time>2024-05-10T20:54:16Z</time>
      </trkpt>
      <trkpt lat="42.90245194" lon="13.35291096">
        <ele>875.00000</ele>
        <time>2024-05-10T20:54:17Z</time>
      </trkpt>
      <trkpt lat="42.90249293" lon="13.35284398">
        <ele>877.00000</ele>
        <time>2024-05-10T20:54:18Z</time>
      </trkpt>
      <trkpt lat="42.90253392" lon="13.35278598">
        <ele>877.00000</ele>
        <time>2024-05-10T20:54:19Z</time>
      </trkpt>
      <trkpt lat="42.90257994" lon="13.35273695">
        <ele>878.00000</ele>
        <time>2024-05-10T20:54:20Z</time>
      </trkpt>
      <trkpt lat="42.90262394" lon="13.35269395">
        <ele>879.00000</ele>
        <time>2024-05-10T20:54:22Z</time>
      </trkpt>
      <trkpt lat="42.90265797" lon="13.35265698">
        <ele>880.00000</ele>
        <time>2024-05-10T20:54:22Z</time>
      </trkpt>
      <trkpt lat="42.90269494" lon="13.35262798">
        <ele>881.00000</ele>
        <time>2024-05-10T20:54:23Z</time>
      </trkpt>
      <trkpt lat="42.90273198" lon="13.35260191">
        <ele>882.00000</ele>
        <time>2024-05-10T20:54:24Z</time>
      </trkpt>
      <trkpt lat="42.90276098" lon="13.35258096">
        <ele>882.00000</ele>
        <time>2024-05-10T20:54:25Z</time>
      </trkpt>
      <trkpt lat="42.90279191" lon="13.35255699">
        <ele>883.00000</ele>
        <time>2024-05-10T20:54:25Z</time>
      </trkpt>
      <trkpt lat="42.90282192" lon="13.35252799">
        <ele>883.00000</ele>
        <time>2024-05-10T20:54:26Z</time>
      </trkpt>
      <trkpt lat="42.90285595" lon="13.35250393">
        <ele>884.00000</ele>
        <time>2024-05-10T20:54:27Z</time>
      </trkpt>
      <trkpt lat="42.90288998" lon="13.35247694">
        <ele>884.00000</ele>
        <time>2024-05-10T20:54:28Z</time>
      </trkpt>
      <trkpt lat="42.90292292" lon="13.35245096">
        <ele>884.00000</ele>
        <time>2024-05-10T20:54:29Z</time>
      </trkpt>
      <trkpt lat="42.90295293" lon="13.35242497">
        <ele>885.00000</ele>
        <time>2024-05-10T20:54:29Z</time>
      </trkpt>
      <trkpt lat="42.90298394" lon="13.35239899">
        <ele>885.00000</ele>
        <time>2024-05-10T20:54:30Z</time>
      </trkpt>
      <trkpt lat="42.90301596" lon="13.35237594">
        <ele>885.00000</ele>
        <time>2024-05-10T20:54:31Z</time>
      </trkpt>
      <trkpt lat="42.90304999" lon="13.35235498">
        <ele>885.00000</ele>
        <time>2024-05-10T20:54:31Z</time>
      </trkpt>
      <trkpt lat="42.90308293" lon="13.35233294">
        <ele>885.00000</ele>
        <time>2024-05-10T20:54:32Z</time>
      </trkpt>
      <trkpt lat="42.90311898" lon="13.35230796">
        <ele>885.00000</ele>
        <time>2024-05-10T20:54:33Z</time>
      </trkpt>
      <trkpt lat="42.90315695" lon="13.35228499">
        <ele>884.00000</ele>
        <time>2024-05-10T20:54:34Z</time>
      </trkpt>
      <trkpt lat="42.90319198" lon="13.35225893">
        <ele>884.00000</ele>
        <time>2024-05-10T20:54:35Z</time>
      </trkpt>
      <trkpt lat="42.90322593" lon="13.35222892">
        <ele>884.00000</ele>
        <time>2024-05-10T20:54:35Z</time>
      </trkpt>
      <trkpt lat="42.90325594" lon="13.35218894">
        <ele>884.00000</ele>
        <time>2024-05-10T20:54:36Z</time>
      </trkpt>
      <trkpt lat="42.90328192" lon="13.35214996">
        <ele>884.00000</ele>
        <time>2024-05-10T20:54:37Z</time>
      </trkpt>
      <trkpt lat="42.90330095" lon="13.35210596">
        <ele>884.00000</ele>
        <time>2024-05-10T20:54:38Z</time>
      </trkpt>
      <trkpt lat="42.90331293" lon="13.35205592">
        <ele>884.00000</ele>
        <time>2024-05-10T20:54:39Z</time>
      </trkpt>
      <trkpt lat="42.90332299" lon="13.35199892">
        <ele>884.00000</ele>
        <time>2024-05-10T20:54:39Z</time>
      </trkpt>
      <trkpt lat="42.90332593" lon="13.35194695">
        <ele>885.00000</ele>
        <time>2024-05-10T20:54:40Z</time>
      </trkpt>
      <trkpt lat="42.90332593" lon="13.35190395">
        <ele>884.00000</ele>
        <time>2024-05-10T20:54:41Z</time>
      </trkpt>
      <trkpt lat="42.90331796" lon="13.35185592">
        <ele>884.00000</ele>
        <time>2024-05-10T20:54:42Z</time>
      </trkpt>
      <trkpt lat="42.90330598" lon="13.35180697">
        <ele>884.00000</ele>
        <time>2024-05-10T20:54:42Z</time>
      </trkpt>
      <trkpt lat="42.90329097" lon="13.35176297">
        <ele>883.00000</ele>
        <time>2024-05-10T20:54:43Z</time>
      </trkpt>
      <trkpt lat="42.90327597" lon="13.35171695">
        <ele>883.00000</ele>
        <time>2024-05-10T20:54:44Z</time>
      </trkpt>
      <trkpt lat="42.90326097" lon="13.35166599">
        <ele>883.00000</ele>
        <time>2024-05-10T20:54:45Z</time>
      </trkpt>
      <trkpt lat="42.90324294" lon="13.35161696">
        <ele>882.00000</ele>
        <time>2024-05-10T20:54:45Z</time>
      </trkpt>
      <trkpt lat="42.90322492" lon="13.35155694">
        <ele>881.00000</ele>
        <time>2024-05-10T20:54:46Z</time>
      </trkpt>
      <trkpt lat="42.90320891" lon="13.35149693">
        <ele>880.00000</ele>
        <time>2024-05-10T20:54:47Z</time>
      </trkpt>
      <trkpt lat="42.90318997" lon="13.35142392">
        <ele>879.00000</ele>
        <time>2024-05-10T20:54:48Z</time>
      </trkpt>
      <trkpt lat="42.90318092" lon="13.35134999">
        <ele>879.00000</ele>
        <time>2024-05-10T20:54:49Z</time>
      </trkpt>
      <trkpt lat="42.90318192" lon="13.35125997">
        <ele>879.00000</ele>
        <time>2024-05-10T20:54:51Z</time>
      </trkpt>
      <trkpt lat="42.90320095" lon="13.35118596">
        <ele>879.00000</ele>
        <time>2024-05-10T20:54:52Z</time>
      </trkpt>
      <trkpt lat="42.90322995" lon="13.35111798">
        <ele>880.00000</ele>
        <time>2024-05-10T20:54:53Z</time>
      </trkpt>
      <trkpt lat="42.90326499" lon="13.35105394">
        <ele>881.00000</ele>
        <time>2024-05-10T20:54:54Z</time>
      </trkpt>
      <trkpt lat="42.90330497" lon="13.35099192">
        <ele>882.00000</ele>
        <time>2024-05-10T20:54:55Z</time>
      </trkpt>
      <trkpt lat="42.90334596" lon="13.35094498">
        <ele>884.00000</ele>
        <time>2024-05-10T20:54:57Z</time>
      </trkpt>
      <trkpt lat="42.90338695" lon="13.35090592">
        <ele>885.00000</ele>
        <time>2024-05-10T20:54:58Z</time>
      </trkpt>
      <trkpt lat="42.90342592" lon="13.35087692">
        <ele>886.00000</ele>
        <time>2024-05-10T20:54:58Z</time>
      </trkpt>
      <trkpt lat="42.90346297" lon="13.35085496">
        <ele>887.00000</ele>
        <time>2024-05-10T20:54:59Z</time>
      </trkpt>
      <trkpt lat="42.90349993" lon="13.35083392">
        <ele>888.00000</ele>
        <time>2024-05-10T20:55:00Z</time>
      </trkpt>
      <trkpt lat="42.90353992" lon="13.35081799">
        <ele>889.00000</ele>
        <time>2024-05-10T20:55:01Z</time>
      </trkpt>
      <trkpt lat="42.90357495" lon="13.35080794">
        <ele>890.00000</ele>
        <time>2024-05-10T20:55:02Z</time>
      </trkpt>
      <trkpt lat="42.90361292" lon="13.35079997">
        <ele>890.00000</ele>
        <time>2024-05-10T20:55:02Z</time>
      </trkpt>
      <trkpt lat="42.90364896" lon="13.35078899">
        <ele>890.00000</ele>
        <time>2024-05-10T20:55:03Z</time>
      </trkpt>
      <trkpt lat="42.90368299" lon="13.35077499">
        <ele>890.00000</ele>
        <time>2024-05-10T20:55:04Z</time>
      </trkpt>
      <trkpt lat="42.90371392" lon="13.35075999">
        <ele>891.00000</ele>
        <time>2024-05-10T20:55:04Z</time>
      </trkpt>
      <trkpt lat="42.90374393" lon="13.35074792">
        <ele>891.00000</ele>
        <time>2024-05-10T20:55:05Z</time>
      </trkpt>
      <trkpt lat="42.90377796" lon="13.35073795">
        <ele>891.00000</ele>
        <time>2024-05-10T20:55:06Z</time>
      </trkpt>
      <trkpt lat="42.90380998" lon="13.35071993">
        <ele>891.00000</ele>
        <time>2024-05-10T20:55:06Z</time>
      </trkpt>
      <trkpt lat="42.90383898" lon="13.35070299">
        <ele>891.00000</ele>
        <time>2024-05-10T20:55:07Z</time>
      </trkpt>
      <trkpt lat="42.90386798" lon="13.35069092">
        <ele>891.00000</ele>
        <time>2024-05-10T20:55:08Z</time>
      </trkpt>
      <trkpt lat="42.90389598" lon="13.35068196">
        <ele>891.00000</ele>
        <time>2024-05-10T20:55:08Z</time>
      </trkpt>
      <trkpt lat="42.90392599" lon="13.35067399">
        <ele>891.00000</ele>
        <time>2024-05-10T20:55:09Z</time>
      </trkpt>
      <trkpt lat="42.90395499" lon="13.35066092">
        <ele>892.00000</ele>
        <time>2024-05-10T20:55:10Z</time>
      </trkpt>
      <trkpt lat="42.90398097" lon="13.35064994">
        <ele>892.00000</ele>
        <time>2024-05-10T20:55:10Z</time>
      </trkpt>
      <trkpt lat="42.90400695" lon="13.35063996">
        <ele>892.00000</ele>
        <time>2024-05-10T20:55:11Z</time>
      </trkpt>
      <trkpt lat="42.90403294" lon="13.35063393">
        <ele>892.00000</ele>
        <time>2024-05-10T20:55:11Z</time>
      </trkpt>
      <trkpt lat="42.90406194" lon="13.35062395">
        <ele>892.00000</ele>
        <time>2024-05-10T20:55:12Z</time>
      </trkpt>
      <trkpt lat="42.90409094" lon="13.35061398">
        <ele>892.00000</ele>
        <time>2024-05-10T20:55:12Z</time>
      </trkpt>
      <trkpt lat="42.90412296" lon="13.35060895">
        <ele>892.00000</ele>
        <time>2024-05-10T20:55:13Z</time>
      </trkpt>
      <trkpt lat="42.90414894" lon="13.35060099">
        <ele>892.00000</ele>
        <time>2024-05-10T20:55:14Z</time>
      </trkpt>
      <trkpt lat="42.90417493" lon="13.35059495">
        <ele>892.00000</ele>
        <time>2024-05-10T20:55:14Z</time>
      </trkpt>
      <trkpt lat="42.90419999" lon="13.35058095">
        <ele>893.00000</ele>
        <time>2024-05-10T20:55:15Z</time>
      </trkpt>
      <trkpt lat="42.90422597" lon="13.35057391">
        <ele>893.00000</ele>
        <time>2024-05-10T20:55:15Z</time>
      </trkpt>
      <trkpt lat="42.90425498" lon="13.35057098">
        <ele>894.00000</ele>
        <time>2024-05-10T20:55:16Z</time>
      </trkpt>
      <trkpt lat="42.90428398" lon="13.35056494">
        <ele>894.00000</ele>
        <time>2024-05-10T20:55:16Z</time>
      </trkpt>
      <trkpt lat="42.90431499" lon="13.35055992">
        <ele>894.00000</ele>
        <time>2024-05-10T20:55:17Z</time>
      </trkpt>
      <trkpt lat="42.90434399" lon="13.35055396">
        <ele>895.00000</ele>
        <time>2024-05-10T20:55:17Z</time>
      </trkpt>
      <trkpt lat="42.90436897" lon="13.35054298">
        <ele>895.00000</ele>
        <time>2024-05-10T20:55:18Z</time>
      </trkpt>
      <trkpt lat="42.90439596" lon="13.35054198">
        <ele>895.00000</ele>
        <time>2024-05-10T20:55:19Z</time>
      </trkpt>
      <trkpt lat="42.90442295" lon="13.35054097">
        <ele>896.00000</ele>
        <time>2024-05-10T20:55:19Z</time>
      </trkpt>
      <trkpt lat="42.90444893" lon="13.35053795">
        <ele>896.00000</ele>
        <time>2024-05-10T20:55:20Z</time>
      </trkpt>
      <trkpt lat="42.90447693" lon="13.35053494">
        <ele>896.00000</ele>
        <time>2024-05-10T20:55:20Z</time>
      </trkpt>
      <trkpt lat="42.90450694" lon="13.35053192">
        <ele>896.00000</ele>
        <time>2024-05-10T20:55:21Z</time>
      </trkpt>
      <trkpt lat="42.90453493" lon="13.35053293">
        <ele>895.00000</ele>
        <time>2024-05-10T20:55:21Z</time>
      </trkpt>
      <trkpt lat="42.90456293" lon="13.35053192">
        <ele>895.00000</ele>
        <time>2024-05-10T20:55:22Z</time>
      </trkpt>
      <trkpt lat="42.90459193" lon="13.35052798">
        <ele>895.00000</ele>
        <time>2024-05-10T20:55:22Z</time>
      </trkpt>
      <trkpt lat="42.90462194" lon="13.35052697">
        <ele>895.00000</ele>
        <time>2024-05-10T20:55:23Z</time>
      </trkpt>
      <trkpt lat="42.90465094" lon="13.35052899">
        <ele>895.00000</ele>
        <time>2024-05-10T20:55:24Z</time>
      </trkpt>
      <trkpt lat="42.90467994" lon="13.35053393">
        <ele>894.00000</ele>
        <time>2024-05-10T20:55:24Z</time>
      </trkpt>
      <trkpt lat="42.90470693" lon="13.35053997">
        <ele>894.00000</ele>
        <time>2024-05-10T20:55:25Z</time>
      </trkpt>
      <trkpt lat="42.90473693" lon="13.35053494">
        <ele>894.00000</ele>
        <time>2024-05-10T20:55:25Z</time>
      </trkpt>
      <trkpt lat="42.90476795" lon="13.35053293">
        <ele>894.00000</ele>
        <time>2024-05-10T20:55:26Z</time>
      </trkpt>
      <trkpt lat="42.90479695" lon="13.35052899">
        <ele>893.00000</ele>
        <time>2024-05-10T20:55:27Z</time>
      </trkpt>
      <trkpt lat="42.90482897" lon="13.35052899">
        <ele>893.00000</ele>
        <time>2024-05-10T20:55:27Z</time>
      </trkpt>
      <trkpt lat="42.90485696" lon="13.35052195">
        <ele>893.00000</ele>
        <time>2024-05-10T20:55:28Z</time>
      </trkpt>
      <trkpt lat="42.90488798" lon="13.35051893">
        <ele>892.00000</ele>
        <time>2024-05-10T20:55:28Z</time>
      </trkpt>
      <trkpt lat="42.90491991" lon="13.35051599">
        <ele>892.00000</ele>
        <time>2024-05-10T20:55:29Z</time>
      </trkpt>
      <trkpt lat="42.90495193" lon="13.35050996">
        <ele>892.00000</ele>
        <time>2024-05-10T20:55:30Z</time>
      </trkpt>
      <trkpt lat="42.90498596" lon="13.35049898">
        <ele>892.00000</ele>
        <time>2024-05-10T20:55:30Z</time>
      </trkpt>
      <trkpt lat="42.90501899" lon="13.35048398">
        <ele>892.00000</ele>
        <time>2024-05-10T20:55:31Z</time>
      </trkpt>
      <trkpt lat="42.90504598" lon="13.35046092">
        <ele>892.00000</ele>
        <time>2024-05-10T20:55:32Z</time>
      </trkpt>
      <trkpt lat="42.90506592" lon="13.35043494">
        <ele>893.00000</ele>
        <time>2024-05-10T20:55:32Z</time>
      </trkpt>
      <trkpt lat="42.90508395" lon="13.35040896">
        <ele>893.00000</ele>
        <time>2024-05-10T20:55:33Z</time>
      </trkpt>
      <trkpt lat="42.90510096" lon="13.35037794">
        <ele>894.00000</ele>
        <time>2024-05-10T20:55:33Z</time>
      </trkpt>
      <trkpt lat="42.90511496" lon="13.35033696">
        <ele>894.00000</ele>
        <time>2024-05-10T20:55:34Z</time>
      </trkpt>
      <trkpt lat="42.90512393" lon="13.35029697">
        <ele>895.00000</ele>
        <time>2024-05-10T20:55:35Z</time>
      </trkpt>
      <trkpt lat="42.90512594" lon="13.35025096">
        <ele>896.00000</ele>
        <time>2024-05-10T20:55:35Z</time>
      </trkpt>
      <trkpt lat="42.90512493" lon="13.35020695">
        <ele>896.00000</ele>
        <time>2024-05-10T20:55:36Z</time>
      </trkpt>
      <trkpt lat="42.90511898" lon="13.35016496">
        <ele>896.00000</ele>
        <time>2024-05-10T20:55:37Z</time>
      </trkpt>
      <trkpt lat="42.90511094" lon="13.35012196">
        <ele>897.00000</ele>
        <time>2024-05-10T20:55:37Z</time>
      </trkpt>
      <trkpt lat="42.90509895" lon="13.35007997">
        <ele>897.00000</ele>
        <time>2024-05-10T20:55:38Z</time>
      </trkpt>
      <trkpt lat="42.90508193" lon="13.35003898">
        <ele>898.00000</ele>
        <time>2024-05-10T20:55:39Z</time>
      </trkpt>
      <trkpt lat="42.90506098" lon="13.35000797">
        <ele>899.00000</ele>
        <time>2024-05-10T20:55:39Z</time>
      </trkpt>
      <trkpt lat="42.90503994" lon="13.34997494">
        <ele>899.00000</ele>
        <time>2024-05-10T20:55:40Z</time>
      </trkpt>
      <trkpt lat="42.90501396" lon="13.34994292">
        <ele>899.00000</ele>
        <time>2024-05-10T20:55:41Z</time>
      </trkpt>
      <trkpt lat="42.90498496" lon="13.34991593">
        <ele>899.00000</ele>
        <time>2024-05-10T20:55:41Z</time>
      </trkpt>
      <trkpt lat="42.90495595" lon="13.34989196">
        <ele>899.00000</ele>
        <time>2024-05-10T20:55:42Z</time>
      </trkpt>
      <trkpt lat="42.90492796" lon="13.34986799">
        <ele>899.00000</ele>
        <time>2024-05-10T20:55:43Z</time>
      </trkpt>
      <trkpt lat="42.90490399" lon="13.34983899">
        <ele>900.00000</ele>
        <time>2024-05-10T20:55:43Z</time>
      </trkpt>
      <trkpt lat="42.90488094" lon="13.34981191">
        <ele>900.00000</ele>
        <time>2024-05-10T20:55:44Z</time>
      </trkpt>
      <trkpt lat="42.90485193" lon="13.34978794">
        <ele>900.00000</ele>
        <time>2024-05-10T20:55:45Z</time>
      </trkpt>
      <trkpt lat="42.90482595" lon="13.34976498">
        <ele>901.00000</ele>
        <time>2024-05-10T20:55:45Z</time>
      </trkpt>
      <trkpt lat="42.90479997" lon="13.34973597">
        <ele>901.00000</ele>
        <time>2024-05-10T20:55:46Z</time>
      </trkpt>
      <trkpt lat="42.90477792" lon="13.34971091">
        <ele>901.00000</ele>
        <time>2024-05-10T20:55:46Z</time>
      </trkpt>
      <trkpt lat="42.90475596" lon="13.34968493">
        <ele>901.00000</ele>
        <time>2024-05-10T20:55:47Z</time>
      </trkpt>
      <trkpt lat="42.90473291" lon="13.34965995">
        <ele>902.00000</ele>
        <time>2024-05-10T20:55:48Z</time>
      </trkpt>
      <trkpt lat="42.90471196" lon="13.34963598">
        <ele>902.00000</ele>
        <time>2024-05-10T20:55:48Z</time>
      </trkpt>
      <trkpt lat="42.90469494" lon="13.34960798">
        <ele>902.00000</ele>
        <time>2024-05-10T20:55:49Z</time>
      </trkpt>
      <trkpt lat="42.90467499" lon="13.34958099">
        <ele>902.00000</ele>
        <time>2024-05-10T20:55:49Z</time>
      </trkpt>
      <trkpt lat="42.90466099" lon="13.34955593">
        <ele>902.00000</ele>
        <time>2024-05-10T20:55:50Z</time>
      </trkpt>
      <trkpt lat="42.90464599" lon="13.34952794">
        <ele>902.00000</ele>
        <time>2024-05-10T20:55:50Z</time>
      </trkpt>
      <trkpt lat="42.90462395" lon="13.34949793">
        <ele>902.00000</ele>
        <time>2024-05-10T20:55:51Z</time>
      </trkpt>
      <trkpt lat="42.90460098" lon="13.34946398">
        <ele>903.00000</ele>
        <time>2024-05-10T20:55:51Z</time>
      </trkpt>
      <trkpt lat="42.90457894" lon="13.34943397">
        <ele>903.00000</ele>
        <time>2024-05-10T20:55:52Z</time>
      </trkpt>
      <trkpt lat="42.90455698" lon="13.34940799">
        <ele>903.00000</ele>
        <time>2024-05-10T20:55:53Z</time>
      </trkpt>
      <trkpt lat="42.90453594" lon="13.34937698">
        <ele>903.00000</ele>
        <time>2024-05-10T20:55:53Z</time>
      </trkpt>
      <trkpt lat="42.90451498" lon="13.34934395">
        <ele>904.00000</ele>
        <time>2024-05-10T20:55:54Z</time>
      </trkpt>
      <trkpt lat="42.90449394" lon="13.34931193">
        <ele>904.00000</ele>
        <time>2024-05-10T20:55:55Z</time>
      </trkpt>
      <trkpt lat="42.90447399" lon="13.34928092">
        <ele>904.00000</ele>
        <time>2024-05-10T20:55:55Z</time>
      </trkpt>
      <trkpt lat="42.90445497" lon="13.34924899">
        <ele>904.00000</ele>
        <time>2024-05-10T20:55:56Z</time>
      </trkpt>
      <trkpt lat="42.90443393" lon="13.34921596">
        <ele>904.00000</ele>
        <time>2024-05-10T20:55:56Z</time>
      </trkpt>
      <trkpt lat="42.90441499" lon="13.34917891">
        <ele>904.00000</ele>
        <time>2024-05-10T20:55:57Z</time>
      </trkpt>
      <trkpt lat="42.90439596" lon="13.34914597">
        <ele>903.00000</ele>
        <time>2024-05-10T20:55:58Z</time>
      </trkpt>
      <trkpt lat="42.90437693" lon="13.34910691">
        <ele>903.00000</ele>
        <time>2024-05-10T20:55:58Z</time>
      </trkpt>
      <trkpt lat="42.90435899" lon="13.34907196">
        <ele>903.00000</ele>
        <time>2024-05-10T20:55:59Z</time>
      </trkpt>
      <trkpt lat="42.90433796" lon="13.34903491">
        <ele>902.00000</ele>
        <time>2024-05-10T20:56:00Z</time>
      </trkpt>
      <trkpt lat="42.90431893" lon="13.34899795">
        <ele>902.00000</ele>
        <time>2024-05-10T20:56:00Z</time>
      </trkpt>
      <trkpt lat="42.90429797" lon="13.34895797">
        <ele>901.00000</ele>
        <time>2024-05-10T20:56:01Z</time>
      </trkpt>
      <trkpt lat="42.90427794" lon="13.34892192">
        <ele>901.00000</ele>
        <time>2024-05-10T20:56:02Z</time>
      </trkpt>
      <trkpt lat="42.90425598" lon="13.34888194">
        <ele>901.00000</ele>
        <time>2024-05-10T20:56:02Z</time>
      </trkpt>
      <trkpt lat="42.90423695" lon="13.34883995">
        <ele>901.00000</ele>
        <time>2024-05-10T20:56:03Z</time>
      </trkpt>
      <trkpt lat="42.90421198" lon="13.34879594">
        <ele>901.00000</ele>
        <time>2024-05-10T20:56:04Z</time>
      </trkpt>
      <trkpt lat="42.90418499" lon="13.34875294">
        <ele>901.00000</ele>
        <time>2024-05-10T20:56:05Z</time>
      </trkpt>
      <trkpt lat="42.90416194" lon="13.34870693">
        <ele>901.00000</ele>
        <time>2024-05-10T20:56:06Z</time>
      </trkpt>
      <trkpt lat="42.90413495" lon="13.34865395">
        <ele>901.00000</ele>
        <time>2024-05-10T20:56:07Z</time>
      </trkpt>
      <trkpt lat="42.90410595" lon="13.34859495">
        <ele>900.00000</ele>
        <time>2024-05-10T20:56:08Z</time>
      </trkpt>
      <trkpt lat="42.90407099" lon="13.34853099">
        <ele>900.00000</ele>
        <time>2024-05-10T20:56:09Z</time>
      </trkpt>
      <trkpt lat="42.90403596" lon="13.34845991">
        <ele>900.00000</ele>
        <time>2024-05-10T20:56:10Z</time>
      </trkpt>
      <trkpt lat="42.90399991" lon="13.34838397">
        <ele>899.00000</ele>
        <time>2024-05-10T20:56:11Z</time>
      </trkpt>
      <trkpt lat="42.90396194" lon="13.34831097">
        <ele>899.00000</ele>
        <time>2024-05-10T20:56:13Z</time>
      </trkpt>
      <trkpt lat="42.90391693" lon="13.34823293">
        <ele>898.00000</ele>
        <time>2024-05-10T20:56:14Z</time>
      </trkpt>
      <trkpt lat="42.90386899" lon="13.34815498">
        <ele>897.00000</ele>
        <time>2024-05-10T20:56:16Z</time>
      </trkpt>
      <trkpt lat="42.90382297" lon="13.34806395">
        <ele>896.00000</ele>
        <time>2024-05-10T20:56:17Z</time>
      </trkpt>
      <trkpt lat="42.90378693" lon="13.34796094">
        <ele>894.00000</ele>
        <time>2024-05-10T20:56:19Z</time>
      </trkpt>
      <trkpt lat="42.90376598" lon="13.34784795">
        <ele>893.00000</ele>
        <time>2024-05-10T20:56:21Z</time>
      </trkpt>
      <trkpt lat="42.90376195" lon="13.34772893">
        <ele>891.00000</ele>
        <time>2024-05-10T20:56:22Z</time>
      </trkpt>
      <trkpt lat="42.90376799" lon="13.34760999">
        <ele>890.00000</ele>
        <time>2024-05-10T20:56:24Z</time>
      </trkpt>
      <trkpt lat="42.90377394" lon="13.34748996">
        <ele>890.00000</ele>
        <time>2024-05-10T20:56:26Z</time>
      </trkpt>
      <trkpt lat="42.90378198" lon="13.34736792">
        <ele>890.00000</ele>
        <time>2024-05-10T20:56:28Z</time>
      </trkpt>
      <trkpt lat="42.90378492" lon="13.34724093">
        <ele>890.00000</ele>
        <time>2024-05-10T20:56:30Z</time>
      </trkpt>
      <trkpt lat="42.90378995" lon="13.34711395">
        <ele>891.00000</ele>
        <time>2024-05-10T20:56:32Z</time>
      </trkpt>
      <trkpt lat="42.90379992" lon="13.34699794">
        <ele>891.00000</ele>
        <time>2024-05-10T20:56:33Z</time>
      </trkpt>
      <trkpt lat="42.90381593" lon="13.34688294">
        <ele>892.00000</ele>
        <time>2024-05-10T20:56:35Z</time>
      </trkpt>
      <trkpt lat="42.90384292" lon="13.34677599">
        <ele>892.00000</ele>
        <time>2024-05-10T20:56:37Z</time>
      </trkpt>
      <trkpt lat="42.90388592" lon="13.34668396">
        <ele>892.00000</ele>
        <time>2024-05-10T20:56:38Z</time>
      </trkpt>
      <trkpt lat="42.90394292" lon="13.34661296">
        <ele>893.00000</ele>
        <time>2024-05-10T20:56:40Z</time>
      </trkpt>
      <trkpt lat="42.90400092" lon="13.34657499">
        <ele>893.00000</ele>
        <time>2024-05-10T20:56:41Z</time>
      </trkpt>
      <trkpt lat="42.90406395" lon="13.34655395">
        <ele>894.00000</ele>
        <time>2024-05-10T20:56:42Z</time>
      </trkpt>
      <trkpt lat="42.90412195" lon="13.34653199">
        <ele>895.00000</ele>
        <time>2024-05-10T20:56:44Z</time>
      </trkpt>
      <trkpt lat="42.90417493" lon="13.34649696">
        <ele>895.00000</ele>
        <time>2024-05-10T20:56:45Z</time>
      </trkpt>
      <trkpt lat="42.90422296" lon="13.34645899">
        <ele>896.00000</ele>
        <time>2024-05-10T20:56:46Z</time>
      </trkpt>
      <trkpt lat="42.90426495" lon="13.34642495">
        <ele>897.00000</ele>
        <time>2024-05-10T20:56:47Z</time>
      </trkpt>
      <trkpt lat="42.90429797" lon="13.34639495">
        <ele>897.00000</ele>
        <time>2024-05-10T20:56:48Z</time>
      </trkpt>
      <trkpt lat="42.90432597" lon="13.34636494">
        <ele>898.00000</ele>
        <time>2024-05-10T20:56:48Z</time>
      </trkpt>
      <trkpt lat="42.90434592" lon="13.34633493">
        <ele>899.00000</ele>
        <time>2024-05-10T20:56:49Z</time>
      </trkpt>
      <trkpt lat="42.90436092" lon="13.34630291">
        <ele>899.00000</ele>
        <time>2024-05-10T20:56:49Z</time>
      </trkpt>
      <trkpt lat="42.90436796" lon="13.34626494">
        <ele>899.00000</ele>
        <time>2024-05-10T20:56:50Z</time>
      </trkpt>
      <trkpt lat="42.90437492" lon="13.34622496">
        <ele>900.00000</ele>
        <time>2024-05-10T20:56:51Z</time>
      </trkpt>
      <trkpt lat="42.90437995" lon="13.34619294">
        <ele>900.00000</ele>
        <time>2024-05-10T20:56:51Z</time>
      </trkpt>
      <trkpt lat="42.90437995" lon="13.34616294">
        <ele>900.00000</ele>
        <time>2024-05-10T20:56:52Z</time>
      </trkpt>
      <trkpt lat="42.90437693" lon="13.34612597">
        <ele>901.00000</ele>
        <time>2024-05-10T20:56:52Z</time>
      </trkpt>
      <trkpt lat="42.90437098" lon="13.34608691">
        <ele>901.00000</ele>
        <time>2024-05-10T20:56:53Z</time>
      </trkpt>
      <trkpt lat="42.90435799" lon="13.34604894">
        <ele>902.00000</ele>
        <time>2024-05-10T20:56:53Z</time>
      </trkpt>
      <trkpt lat="42.90434592" lon="13.34601298">
        <ele>902.00000</ele>
        <time>2024-05-10T20:56:54Z</time>
      </trkpt>
      <trkpt lat="42.90433494" lon="13.34597694">
        <ele>902.00000</ele>
        <time>2024-05-10T20:56:54Z</time>
      </trkpt>
      <trkpt lat="42.90432496" lon="13.34594199">
        <ele>903.00000</ele>
        <time>2024-05-10T20:56:55Z</time>
      </trkpt>
      <trkpt lat="42.90431398" lon="13.34590192">
        <ele>903.00000</ele>
        <time>2024-05-10T20:56:56Z</time>
      </trkpt>
      <trkpt lat="42.90429697" lon="13.34586395">
        <ele>903.00000</ele>
        <time>2024-05-10T20:56:56Z</time>
      </trkpt>
      <trkpt lat="42.90427794" lon="13.34582791">
        <ele>903.00000</ele>
        <time>2024-05-10T20:56:57Z</time>
      </trkpt>
      <trkpt lat="42.90425891" lon="13.34578692">
        <ele>903.00000</ele>
        <time>2024-05-10T20:56:58Z</time>
      </trkpt>
      <trkpt lat="42.90423997" lon="13.34574493">
        <ele>904.00000</ele>
        <time>2024-05-10T20:56:58Z</time>
      </trkpt>
      <trkpt lat="42.90421499" lon="13.34569992">
        <ele>905.00000</ele>
        <time>2024-05-10T20:56:59Z</time>
      </trkpt>
      <trkpt lat="42.90419496" lon="13.34565692">
        <ele>905.00000</ele>
        <time>2024-05-10T20:57:00Z</time>
      </trkpt>
      <trkpt lat="42.90417292" lon="13.34561099">
        <ele>906.00000</ele>
        <time>2024-05-10T20:57:01Z</time>
      </trkpt>
      <trkpt lat="42.90415196" lon="13.34556598">
        <ele>907.00000</ele>
        <time>2024-05-10T20:57:02Z</time>
      </trkpt>
      <trkpt lat="42.90412992" lon="13.34551895">
        <ele>907.00000</ele>
        <time>2024-05-10T20:57:02Z</time>
      </trkpt>
      <trkpt lat="42.90410796" lon="13.34546891">
        <ele>908.00000</ele>
        <time>2024-05-10T20:57:03Z</time>
      </trkpt>
      <trkpt lat="42.90408398" lon="13.34541795">
        <ele>909.00000</ele>
        <time>2024-05-10T20:57:04Z</time>
      </trkpt>
      <trkpt lat="42.90406295" lon="13.34535995">
        <ele>911.00000</ele>
        <time>2024-05-10T20:57:05Z</time>
      </trkpt>
      <trkpt lat="42.90404492" lon="13.34530597">
        <ele>912.00000</ele>
        <time>2024-05-10T20:57:06Z</time>
      </trkpt>
      <trkpt lat="42.90402598" lon="13.34524897">
        <ele>914.00000</ele>
        <time>2024-05-10T20:57:07Z</time>
      </trkpt>
      <trkpt lat="42.90401098" lon="13.34518896">
        <ele>915.00000</ele>
        <time>2024-05-10T20:57:08Z</time>
      </trkpt>
      <trkpt lat="42.90399396" lon="13.34513397">
        <ele>917.00000</ele>
        <time>2024-05-10T20:57:09Z</time>
      </trkpt>
      <trkpt lat="42.90397091" lon="13.34507899">
        <ele>919.00000</ele>
        <time>2024-05-10T20:57:10Z</time>
      </trkpt>
      <trkpt lat="42.90394795" lon="13.34501998">
        <ele>921.00000</ele>
        <time>2024-05-10T20:57:11Z</time>
      </trkpt>
      <trkpt lat="42.90391794" lon="13.34496592">
        <ele>921.00000</ele>
        <time>2024-05-10T20:57:12Z</time>
      </trkpt>
      <trkpt lat="42.90388399" lon="13.34491294">
        <ele>921.00000</ele>
        <time>2024-05-10T20:57:13Z</time>
      </trkpt>
      <trkpt lat="42.90384694" lon="13.34485595">
        <ele>920.00000</ele>
        <time>2024-05-10T20:57:14Z</time>
      </trkpt>
      <trkpt lat="42.90381199" lon="13.34479996">
        <ele>920.00000</ele>
        <time>2024-05-10T20:57:15Z</time>
      </trkpt>
      <trkpt lat="42.90377897" lon="13.34474698">
        <ele>919.00000</ele>
        <time>2024-05-10T20:57:16Z</time>
      </trkpt>
      <trkpt lat="42.90374695" lon="13.34469392">
        <ele>919.00000</ele>
        <time>2024-05-10T20:57:17Z</time>
      </trkpt>
      <trkpt lat="42.90371099" lon="13.34463299">
        <ele>919.00000</ele>
        <time>2024-05-10T20:57:18Z</time>
      </trkpt>
      <trkpt lat="42.90367595" lon="13.34457792">
        <ele>919.00000</ele>
        <time>2024-05-10T20:57:19Z</time>
      </trkpt>
      <trkpt lat="42.90364092" lon="13.34452796">
        <ele>919.00000</ele>
        <time>2024-05-10T20:57:20Z</time>
      </trkpt>
      <trkpt lat="42.90360496" lon="13.34448396">
        <ele>919.00000</ele>
        <time>2024-05-10T20:57:21Z</time>
      </trkpt>
      <trkpt lat="42.90356699" lon="13.34444398">
        <ele>920.00000</ele>
        <time>2024-05-10T20:57:22Z</time>
      </trkpt>
      <trkpt lat="42.90352592" lon="13.34440492">
        <ele>920.00000</ele>
        <time>2024-05-10T20:57:23Z</time>
      </trkpt>
      <trkpt lat="42.90348099" lon="13.34437399">
        <ele>920.00000</ele>
        <time>2024-05-10T20:57:24Z</time>
      </trkpt>
      <trkpt lat="42.90343397" lon="13.34435094">
        <ele>920.00000</ele>
        <time>2024-05-10T20:57:25Z</time>
      </trkpt>
      <trkpt lat="42.90338795" lon="13.34433099">
        <ele>920.00000</ele>
        <time>2024-05-10T20:57:26Z</time>
      </trkpt>
      <trkpt lat="42.90333791" lon="13.34430995">
        <ele>920.00000</ele>
        <time>2024-05-10T20:57:27Z</time>
      </trkpt>
      <trkpt lat="42.90328796" lon="13.34428799">
        <ele>920.00000</ele>
        <time>2024-05-10T20:57:28Z</time>
      </trkpt>
      <trkpt lat="42.90323792" lon="13.34425899">
        <ele>919.00000</ele>
        <time>2024-05-10T20:57:29Z</time>
      </trkpt>
      <trkpt lat="42.90318595" lon="13.34422697">
        <ele>919.00000</ele>
        <time>2024-05-10T20:57:30Z</time>
      </trkpt>
      <trkpt lat="42.90313993" lon="13.34418891">
        <ele>920.00000</ele>
        <time>2024-05-10T20:57:31Z</time>
      </trkpt>
      <trkpt lat="42.90309492" lon="13.34414793">
        <ele>920.00000</ele>
        <time>2024-05-10T20:57:32Z</time>
      </trkpt>
      <trkpt lat="42.90304999" lon="13.34411096">
        <ele>920.00000</ele>
        <time>2024-05-10T20:57:34Z</time>
      </trkpt>
      <trkpt lat="42.90300196" lon="13.34407299">
        <ele>920.00000</ele>
        <time>2024-05-10T20:57:35Z</time>
      </trkpt>
      <trkpt lat="42.90294698" lon="13.34403192">
        <ele>920.00000</ele>
        <time>2024-05-10T20:57:36Z</time>
      </trkpt>
      <trkpt lat="42.90289593" lon="13.34399596">
        <ele>920.00000</ele>
        <time>2024-05-10T20:57:37Z</time>
      </trkpt>
      <trkpt lat="42.90283994" lon="13.34396294">
        <ele>920.00000</ele>
        <time>2024-05-10T20:57:38Z</time>
      </trkpt>
      <trkpt lat="42.90278194" lon="13.34393695">
        <ele>919.00000</ele>
        <time>2024-05-10T20:57:39Z</time>
      </trkpt>
      <trkpt lat="42.90272595" lon="13.34392094">
        <ele>919.00000</ele>
        <time>2024-05-10T20:57:41Z</time>
      </trkpt>
      <trkpt lat="42.90266593" lon="13.34391399">
        <ele>918.00000</ele>
        <time>2024-05-10T20:57:42Z</time>
      </trkpt>
      <trkpt lat="42.90261095" lon="13.34391198">
        <ele>917.00000</ele>
        <time>2024-05-10T20:57:43Z</time>
      </trkpt>
      <trkpt lat="42.90255898" lon="13.34390996">
        <ele>917.00000</ele>
        <time>2024-05-10T20:57:44Z</time>
      </trkpt>
      <trkpt lat="42.90250299" lon="13.34390896">
        <ele>916.00000</ele>
        <time>2024-05-10T20:57:45Z</time>
      </trkpt>
      <trkpt lat="42.90245194" lon="13.34390795">
        <ele>915.00000</ele>
        <time>2024-05-10T20:57:46Z</time>
      </trkpt>
      <trkpt lat="42.90239897" lon="13.34390393">
        <ele>915.00000</ele>
        <time>2024-05-10T20:57:47Z</time>
      </trkpt>
      <trkpt lat="42.90234399" lon="13.34389898">
        <ele>914.00000</ele>
        <time>2024-05-10T20:57:48Z</time>
      </trkpt>
      <trkpt lat="42.90228992" lon="13.34389194">
        <ele>914.00000</ele>
        <time>2024-05-10T20:57:49Z</time>
      </trkpt>
      <trkpt lat="42.90223795" lon="13.34388197">
        <ele>914.00000</ele>
        <time>2024-05-10T20:57:50Z</time>
      </trkpt>
      <trkpt lat="42.90218297" lon="13.34386898">
        <ele>914.00000</ele>
        <time>2024-05-10T20:57:51Z</time>
      </trkpt>
      <trkpt lat="42.90212991" lon="13.34384894">
        <ele>913.00000</ele>
        <time>2024-05-10T20:57:53Z</time>
      </trkpt>
      <trkpt lat="42.90208398" lon="13.34382195">
        <ele>913.00000</ele>
        <time>2024-05-10T20:57:54Z</time>
      </trkpt>
      <trkpt lat="42.90204098" lon="13.34379698">
        <ele>913.00000</ele>
        <time>2024-05-10T20:57:55Z</time>
      </trkpt>
      <trkpt lat="42.90199597" lon="13.34376798">
        <ele>913.00000</ele>
        <time>2024-05-10T20:57:56Z</time>
      </trkpt>
      <trkpt lat="42.90194693" lon="13.34374492">
        <ele>913.00000</ele>
        <time>2024-05-10T20:57:57Z</time>
      </trkpt>
      <trkpt lat="42.90190092" lon="13.34372598">
        <ele>912.00000</ele>
        <time>2024-05-10T20:57:58Z</time>
      </trkpt>
      <trkpt lat="42.90185197" lon="13.34370796">
        <ele>911.00000</ele>
        <time>2024-05-10T20:57:59Z</time>
      </trkpt>
      <trkpt lat="42.90180595" lon="13.34369497">
        <ele>910.00000</ele>
        <time>2024-05-10T20:57:59Z</time>
      </trkpt>
      <trkpt lat="42.90176396" lon="13.34368793">
        <ele>909.00000</ele>
        <time>2024-05-10T20:58:00Z</time>
      </trkpt>
      <trkpt lat="42.90172297" lon="13.34368692">
        <ele>907.00000</ele>
        <time>2024-05-10T20:58:01Z</time>
      </trkpt>
      <trkpt lat="42.90168299" lon="13.34369195">
        <ele>906.00000</ele>
        <time>2024-05-10T20:58:02Z</time>
      </trkpt>
      <trkpt lat="42.90164091" lon="13.34369799">
        <ele>904.00000</ele>
        <time>2024-05-10T20:58:03Z</time>
      </trkpt>
      <trkpt lat="42.90159598" lon="13.34370394">
        <ele>902.00000</ele>
        <time>2024-05-10T20:58:04Z</time>
      </trkpt>
      <trkpt lat="42.90154796" lon="13.34370193">
        <ele>900.00000</ele>
        <time>2024-05-10T20:58:05Z</time>
      </trkpt>
      <trkpt lat="42.90150295" lon="13.34368793">
        <ele>899.00000</ele>
        <time>2024-05-10T20:58:06Z</time>
      </trkpt>
      <trkpt lat="42.90147193" lon="13.34366597">
        <ele>898.00000</ele>
        <time>2024-05-10T20:58:06Z</time>
      </trkpt>
      <trkpt lat="42.90144897" lon="13.34363395">
        <ele>898.00000</ele>
        <time>2024-05-10T20:58:07Z</time>
      </trkpt>
      <trkpt lat="42.90143597" lon="13.34360998">
        <ele>898.00000</ele>
        <time>2024-05-10T20:58:07Z</time>
      </trkpt>
      <trkpt lat="42.90142692" lon="13.34358592">
        <ele>898.00000</ele>
        <time>2024-05-10T20:58:08Z</time>
      </trkpt>
      <trkpt lat="42.90142399" lon="13.34356094">
        <ele>898.00000</ele>
        <time>2024-05-10T20:58:08Z</time>
      </trkpt>
      <trkpt lat="42.90141896" lon="13.34353898">
        <ele>898.00000</ele>
        <time>2024-05-10T20:58:08Z</time>
      </trkpt>
      <trkpt lat="42.90142399" lon="13.34350998">
        <ele>899.00000</ele>
        <time>2024-05-10T20:58:09Z</time>
      </trkpt>
      <trkpt lat="42.90143296" lon="13.34347897">
        <ele>900.00000</ele>
        <time>2024-05-10T20:58:09Z</time>
      </trkpt>
      <trkpt lat="42.90144494" lon="13.34344494">
        <ele>901.00000</ele>
        <time>2024-05-10T20:58:10Z</time>
      </trkpt>
      <trkpt lat="42.90145592" lon="13.34341392">
        <ele>902.00000</ele>
        <time>2024-05-10T20:58:10Z</time>
      </trkpt>
      <trkpt lat="42.90146891" lon="13.34337797">
        <ele>903.00000</ele>
        <time>2024-05-10T20:58:11Z</time>
      </trkpt>
      <trkpt lat="42.90147897" lon="13.34334192">
        <ele>904.00000</ele>
        <time>2024-05-10T20:58:12Z</time>
      </trkpt>
      <trkpt lat="42.90148794" lon="13.34330999">
        <ele>904.00000</ele>
        <time>2024-05-10T20:58:12Z</time>
      </trkpt>
      <trkpt lat="42.90149892" lon="13.34327797">
        <ele>905.00000</ele>
        <time>2024-05-10T20:58:13Z</time>
      </trkpt>
      <trkpt lat="42.90150496" lon="13.34324494">
        <ele>905.00000</ele>
        <time>2024-05-10T20:58:13Z</time>
      </trkpt>
      <trkpt lat="42.90151594" lon="13.34320999">
        <ele>905.00000</ele>
        <time>2024-05-10T20:58:14Z</time>
      </trkpt>
      <trkpt lat="42.90152298" lon="13.34317898">
        <ele>906.00000</ele>
        <time>2024-05-10T20:58:14Z</time>
      </trkpt>
      <trkpt lat="42.90153195" lon="13.34314294">
        <ele>906.00000</ele>
        <time>2024-05-10T20:58:15Z</time>
      </trkpt>
      <trkpt lat="42.90154092" lon="13.34310295">
        <ele>907.00000</ele>
        <time>2024-05-10T20:58:15Z</time>
      </trkpt>
      <trkpt lat="42.90155299" lon="13.34306599">
        <ele>907.00000</ele>
        <time>2024-05-10T20:58:16Z</time>
      </trkpt>
      <trkpt lat="42.90156799" lon="13.34302995">
        <ele>908.00000</ele>
        <time>2024-05-10T20:58:17Z</time>
      </trkpt>
      <trkpt lat="42.90158391" lon="13.34299592">
        <ele>908.00000</ele>
        <time>2024-05-10T20:58:17Z</time>
      </trkpt>
      <trkpt lat="42.90160194" lon="13.34296097">
        <ele>909.00000</ele>
        <time>2024-05-10T20:58:18Z</time>
      </trkpt>
      <trkpt lat="42.90161794" lon="13.34292794">
        <ele>909.00000</ele>
        <time>2024-05-10T20:58:18Z</time>
      </trkpt>
      <trkpt lat="42.90163395" lon="13.34289198">
        <ele>909.00000</ele>
        <time>2024-05-10T20:58:19Z</time>
      </trkpt>
      <trkpt lat="42.90164996" lon="13.34285493">
        <ele>910.00000</ele>
        <time>2024-05-10T20:58:20Z</time>
      </trkpt>
      <trkpt lat="42.90166296" lon="13.34282099">
        <ele>910.00000</ele>
        <time>2024-05-10T20:58:20Z</time>
      </trkpt>
      <trkpt lat="42.90167796" lon="13.34278293">
        <ele>910.00000</ele>
        <time>2024-05-10T20:58:21Z</time>
      </trkpt>
      <trkpt lat="42.90169196" lon="13.34274899">
        <ele>910.00000</ele>
        <time>2024-05-10T20:58:21Z</time>
      </trkpt>
      <trkpt lat="42.90170998" lon="13.34271395">
        <ele>909.00000</ele>
        <time>2024-05-10T20:58:22Z</time>
      </trkpt>
      <trkpt lat="42.90172498" lon="13.34268495">
        <ele>909.00000</ele>
        <time>2024-05-10T20:58:23Z</time>
      </trkpt>
      <trkpt lat="42.90173898" lon="13.34265394">
        <ele>909.00000</ele>
        <time>2024-05-10T20:58:23Z</time>
      </trkpt>
      <trkpt lat="42.90175499" lon="13.34262695">
        <ele>909.00000</ele>
        <time>2024-05-10T20:58:24Z</time>
      </trkpt>
      <trkpt lat="42.90176798" lon="13.34259996">
        <ele>908.00000</ele>
        <time>2024-05-10T20:58:24Z</time>
      </trkpt>
      <trkpt lat="42.90178097" lon="13.34256995">
        <ele>908.00000</ele>
        <time>2024-05-10T20:58:25Z</time>
      </trkpt>
      <trkpt lat="42.90179799" lon="13.34253894">
        <ele>908.00000</ele>
        <time>2024-05-10T20:58:25Z</time>
      </trkpt>
      <trkpt lat="42.90181894" lon="13.34250994">
        <ele>908.00000</ele>
        <time>2024-05-10T20:58:26Z</time>
      </trkpt>
      <trkpt lat="42.90183294" lon="13.34248194">
        <ele>908.00000</ele>
        <time>2024-05-10T20:58:26Z</time>
      </trkpt>
      <trkpt lat="42.90185398" lon="13.34244699">
        <ele>908.00000</ele>
        <time>2024-05-10T20:58:27Z</time>
      </trkpt>
      <trkpt lat="42.90186999" lon="13.34241597">
        <ele>908.00000</ele>
        <time>2024-05-10T20:58:27Z</time>
      </trkpt>
      <trkpt lat="42.90188499" lon="13.34238898">
        <ele>909.00000</ele>
        <time>2024-05-10T20:58:28Z</time>
      </trkpt>
      <trkpt lat="42.90190293" lon="13.34235294">
        <ele>909.00000</ele>
        <time>2024-05-10T20:58:29Z</time>
      </trkpt>
      <trkpt lat="42.90191793" lon="13.34232092">
        <ele>909.00000</ele>
        <time>2024-05-10T20:58:29Z</time>
      </trkpt>
      <trkpt lat="42.90192799" lon="13.34229192">
        <ele>909.00000</ele>
        <time>2024-05-10T20:58:30Z</time>
      </trkpt>
      <trkpt lat="42.90194199" lon="13.34226191">
        <ele>909.00000</ele>
        <time>2024-05-10T20:58:30Z</time>
      </trkpt>
      <trkpt lat="42.90195699" lon="13.34223493">
        <ele>909.00000</ele>
        <time>2024-05-10T20:58:31Z</time>
      </trkpt>
      <trkpt lat="42.90197191" lon="13.34220693">
        <ele>910.00000</ele>
        <time>2024-05-10T20:58:31Z</time>
      </trkpt>
      <trkpt lat="42.90198499" lon="13.34218095">
        <ele>910.00000</ele>
        <time>2024-05-10T20:58:32Z</time>
      </trkpt>
      <trkpt lat="42.90199999" lon="13.34215597">
        <ele>910.00000</ele>
        <time>2024-05-10T20:58:32Z</time>
      </trkpt>
      <trkpt lat="42.90201399" lon="13.34212898">
        <ele>911.00000</ele>
        <time>2024-05-10T20:58:33Z</time>
      </trkpt>
      <trkpt lat="42.90202598" lon="13.34209696">
        <ele>911.00000</ele>
        <time>2024-05-10T20:58:33Z</time>
      </trkpt>
      <trkpt lat="42.90203092" lon="13.34206293">
        <ele>911.00000</ele>
        <time>2024-05-10T20:58:34Z</time>
      </trkpt>
      <trkpt lat="42.90202899" lon="13.34202999">
        <ele>911.00000</ele>
        <time>2024-05-10T20:58:34Z</time>
      </trkpt>
      <trkpt lat="42.90202899" lon="13.34199998">
        <ele>911.00000</ele>
        <time>2024-05-10T20:58:34Z</time>
      </trkpt>
      <trkpt lat="42.90202992" lon="13.34196997">
        <ele>911.00000</ele>
        <time>2024-05-10T20:58:35Z</time>
      </trkpt>
      <trkpt lat="42.90203193" lon="13.34193896">
        <ele>911.00000</ele>
        <time>2024-05-10T20:58:35Z</time>
      </trkpt>
      <trkpt lat="42.90203193" lon="13.34191096">
        <ele>911.00000</ele>
        <time>2024-05-10T20:58:36Z</time>
      </trkpt>
      <trkpt lat="42.90202698" lon="13.34188196">
        <ele>911.00000</ele>
        <time>2024-05-10T20:58:36Z</time>
      </trkpt>
      <trkpt lat="42.90201894" lon="13.34185497">
        <ele>911.00000</ele>
        <time>2024-05-10T20:58:37Z</time>
      </trkpt>
      <trkpt lat="42.90200695" lon="13.34182798">
        <ele>911.00000</ele>
        <time>2024-05-10T20:58:37Z</time>
      </trkpt>
      <trkpt lat="42.90199195" lon="13.34179798">
        <ele>911.00000</ele>
        <time>2024-05-10T20:58:38Z</time>
      </trkpt>
      <trkpt lat="42.90198398" lon="13.34176596">
        <ele>911.00000</ele>
        <time>2024-05-10T20:58:38Z</time>
      </trkpt>
      <trkpt lat="42.90197594" lon="13.34173796">
        <ele>911.00000</ele>
        <time>2024-05-10T20:58:39Z</time>
      </trkpt>
      <trkpt lat="42.90196496" lon="13.34171198">
        <ele>911.00000</ele>
        <time>2024-05-10T20:58:39Z</time>
      </trkpt>
      <trkpt lat="42.90194593" lon="13.34167996">
        <ele>910.00000</ele>
        <time>2024-05-10T20:58:40Z</time>
      </trkpt>
      <trkpt lat="42.90192497" lon="13.34165196">
        <ele>910.00000</ele>
        <time>2024-05-10T20:58:40Z</time>
      </trkpt>
      <trkpt lat="42.90190796" lon="13.34161994">
        <ele>910.00000</ele>
        <time>2024-05-10T20:58:41Z</time>
      </trkpt>
      <trkpt lat="42.90189396" lon="13.34159396">
        <ele>910.00000</ele>
        <time>2024-05-10T20:58:41Z</time>
      </trkpt>
      <trkpt lat="42.90187896" lon="13.34156094">
        <ele>910.00000</ele>
        <time>2024-05-10T20:58:42Z</time>
      </trkpt>
      <trkpt lat="42.90186395" lon="13.34153294">
        <ele>909.00000</ele>
        <time>2024-05-10T20:58:42Z</time>
      </trkpt>
      <trkpt lat="42.90185297" lon="13.34151098">
        <ele>909.00000</ele>
        <time>2024-05-10T20:58:43Z</time>
      </trkpt>
      <trkpt lat="42.90184392" lon="13.34149095">
        <ele>909.00000</ele>
        <time>2024-05-10T20:58:43Z</time>
      </trkpt>
      <trkpt lat="42.90183596" lon="13.34146496">
        <ele>909.00000</ele>
        <time>2024-05-10T20:58:44Z</time>
      </trkpt>
      <trkpt lat="42.90182397" lon="13.34143797">
        <ele>909.00000</ele>
        <time>2024-05-10T20:58:44Z</time>
      </trkpt>
      <trkpt lat="42.90181794" lon="13.34140897">
        <ele>910.00000</ele>
        <time>2024-05-10T20:58:44Z</time>
      </trkpt>
      <trkpt lat="42.90181199" lon="13.34137494">
        <ele>910.00000</ele>
        <time>2024-05-10T20:58:45Z</time>
      </trkpt>
      <trkpt lat="42.90180595" lon="13.34134292">
        <ele>910.00000</ele>
        <time>2024-05-10T20:58:45Z</time>
      </trkpt>
      <trkpt lat="42.90179992" lon="13.34130596">
        <ele>910.00000</ele>
        <time>2024-05-10T20:58:46Z</time>
      </trkpt>
      <trkpt lat="42.90179195" lon="13.34126799">
        <ele>911.00000</ele>
        <time>2024-05-10T20:58:47Z</time>
      </trkpt>
      <trkpt lat="42.90178491" lon="13.34122993">
        <ele>911.00000</ele>
        <time>2024-05-10T20:58:47Z</time>
      </trkpt>
      <trkpt lat="42.90177796" lon="13.34119599">
        <ele>911.00000</ele>
        <time>2024-05-10T20:58:48Z</time>
      </trkpt>
      <trkpt lat="42.90177192" lon="13.34115693">
        <ele>912.00000</ele>
        <time>2024-05-10T20:58:48Z</time>
      </trkpt>
      <trkpt lat="42.90176999" lon="13.34112097">
        <ele>912.00000</ele>
        <time>2024-05-10T20:58:49Z</time>
      </trkpt>
      <trkpt lat="42.90176195" lon="13.34109096">
        <ele>912.00000</ele>
        <time>2024-05-10T20:58:49Z</time>
      </trkpt>
      <trkpt lat="42.90174795" lon="13.34105693">
        <ele>912.00000</ele>
        <time>2024-05-10T20:58:50Z</time>
      </trkpt>
      <trkpt lat="42.90173596" lon="13.34102491">
        <ele>912.00000</ele>
        <time>2024-05-10T20:58:50Z</time>
      </trkpt>
      <trkpt lat="42.90172892" lon="13.34099097">
        <ele>913.00000</ele>
        <time>2024-05-10T20:58:51Z</time>
      </trkpt>
      <trkpt lat="42.90172297" lon="13.34095694">
        <ele>913.00000</ele>
        <time>2024-05-10T20:58:51Z</time>
      </trkpt>
      <trkpt lat="42.90171392" lon="13.34092098">
        <ele>913.00000</ele>
        <time>2024-05-10T20:58:52Z</time>
      </trkpt>
      <trkpt lat="42.90170294" lon="13.34088996">
        <ele>914.00000</ele>
        <time>2024-05-10T20:58:52Z</time>
      </trkpt>
      <trkpt lat="42.90169095" lon="13.34085795">
        <ele>914.00000</ele>
        <time>2024-05-10T20:58:53Z</time>
      </trkpt>
      <trkpt lat="42.90168098" lon="13.34082593">
        <ele>915.00000</ele>
        <time>2024-05-10T20:58:53Z</time>
      </trkpt>
      <trkpt lat="42.90166899" lon="13.34078896">
        <ele>915.00000</ele>
        <time>2024-05-10T20:58:54Z</time>
      </trkpt>
      <trkpt lat="42.90165692" lon="13.34075795">
        <ele>915.00000</ele>
        <time>2024-05-10T20:58:55Z</time>
      </trkpt>
      <trkpt lat="42.90164292" lon="13.34072995">
        <ele>916.00000</ele>
        <time>2024-05-10T20:58:55Z</time>
      </trkpt>
      <trkpt lat="42.90162792" lon="13.34069794">
        <ele>916.00000</ele>
        <time>2024-05-10T20:58:56Z</time>
      </trkpt>
      <trkpt lat="42.90161392" lon="13.34066692">
        <ele>917.00000</ele>
        <time>2024-05-10T20:58:56Z</time>
      </trkpt>
      <trkpt lat="42.90159892" lon="13.34063792">
        <ele>917.00000</ele>
        <time>2024-05-10T20:58:57Z</time>
      </trkpt>
      <trkpt lat="42.90158391" lon="13.34060599">
        <ele>918.00000</ele>
        <time>2024-05-10T20:58:57Z</time>
      </trkpt>
      <trkpt lat="42.90157595" lon="13.34057095">
        <ele>918.00000</ele>
        <time>2024-05-10T20:58:58Z</time>
      </trkpt>
      <trkpt lat="42.90156397" lon="13.34053591">
        <ele>919.00000</ele>
        <time>2024-05-10T20:58:58Z</time>
      </trkpt>
      <trkpt lat="42.90155097" lon="13.34050297">
        <ele>919.00000</ele>
        <time>2024-05-10T20:58:59Z</time>
      </trkpt>
      <trkpt lat="42.90153698" lon="13.34047095">
        <ele>919.00000</ele>
        <time>2024-05-10T20:58:59Z</time>
      </trkpt>
      <trkpt lat="42.90152197" lon="13.34044095">
        <ele>919.00000</ele>
        <time>2024-05-10T20:59:00Z</time>
      </trkpt>
      <trkpt lat="42.90150496" lon="13.34041295">
        <ele>920.00000</ele>
        <time>2024-05-10T20:59:01Z</time>
      </trkpt>
      <trkpt lat="42.90148794" lon="13.34038194">
        <ele>920.00000</ele>
        <time>2024-05-10T20:59:01Z</time>
      </trkpt>
      <trkpt lat="42.90147193" lon="13.34035193">
        <ele>921.00000</ele>
        <time>2024-05-10T20:59:02Z</time>
      </trkpt>
      <trkpt lat="42.90145399" lon="13.34031991">
        <ele>921.00000</ele>
        <time>2024-05-10T20:59:02Z</time>
      </trkpt>
      <trkpt lat="42.90143991" lon="13.34028999">
        <ele>922.00000</ele>
        <time>2024-05-10T20:59:03Z</time>
      </trkpt>
      <trkpt lat="42.90142298" lon="13.34025696">
        <ele>922.00000</ele>
        <time>2024-05-10T20:59:03Z</time>
      </trkpt>
      <trkpt lat="42.90140898" lon="13.34022595">
        <ele>922.00000</ele>
        <time>2024-05-10T20:59:04Z</time>
      </trkpt>
      <trkpt lat="42.90139499" lon="13.34019393">
        <ele>922.00000</ele>
        <time>2024-05-10T20:59:04Z</time>
      </trkpt>
      <trkpt lat="42.90137697" lon="13.34016795">
        <ele>923.00000</ele>
        <time>2024-05-10T20:59:05Z</time>
      </trkpt>
      <trkpt lat="42.90135794" lon="13.34013895">
        <ele>923.00000</ele>
        <time>2024-05-10T20:59:06Z</time>
      </trkpt>
      <trkpt lat="42.90134293" lon="13.34010793">
        <ele>923.00000</ele>
        <time>2024-05-10T20:59:06Z</time>
      </trkpt>
      <trkpt lat="42.90132693" lon="13.34007692">
        <ele>923.00000</ele>
        <time>2024-05-10T20:59:07Z</time>
      </trkpt>
      <trkpt lat="42.90131192" lon="13.34004599">
        <ele>924.00000</ele>
        <time>2024-05-10T20:59:07Z</time>
      </trkpt>
      <trkpt lat="42.90129591" lon="13.34001297">
        <ele>924.00000</ele>
        <time>2024-05-10T20:59:08Z</time>
      </trkpt>
      <trkpt lat="42.90128099" lon="13.33998195">
        <ele>924.00000</ele>
        <time>2024-05-10T20:59:08Z</time>
      </trkpt>
      <trkpt lat="42.90126599" lon="13.33995295">
        <ele>924.00000</ele>
        <time>2024-05-10T20:59:09Z</time>
      </trkpt>
      <trkpt lat="42.90124897" lon="13.33991599">
        <ele>925.00000</ele>
        <time>2024-05-10T20:59:09Z</time>
      </trkpt>
      <trkpt lat="42.90123196" lon="13.33988497">
        <ele>925.00000</ele>
        <time>2024-05-10T20:59:10Z</time>
      </trkpt>
      <trkpt lat="42.90121897" lon="13.33985296">
        <ele>925.00000</ele>
        <time>2024-05-10T20:59:11Z</time>
      </trkpt>
      <trkpt lat="42.90120597" lon="13.33982094">
        <ele>926.00000</ele>
        <time>2024-05-10T20:59:11Z</time>
      </trkpt>
      <trkpt lat="42.90119399" lon="13.33978397">
        <ele>926.00000</ele>
        <time>2024-05-10T20:59:12Z</time>
      </trkpt>
      <trkpt lat="42.90118192" lon="13.33974692">
        <ele>926.00000</ele>
        <time>2024-05-10T20:59:12Z</time>
      </trkpt>
      <trkpt lat="42.90116893" lon="13.33970996">
        <ele>927.00000</ele>
        <time>2024-05-10T20:59:13Z</time>
      </trkpt>
      <trkpt lat="42.90115895" lon="13.33967492">
        <ele>927.00000</ele>
        <time>2024-05-10T20:59:13Z</time>
      </trkpt>
      <trkpt lat="42.90115199" lon="13.33963796">
        <ele>927.00000</ele>
        <time>2024-05-10T20:59:14Z</time>
      </trkpt>
      <trkpt lat="42.90114395" lon="13.33959798">
        <ele>928.00000</ele>
        <time>2024-05-10T20:59:15Z</time>
      </trkpt>
      <trkpt lat="42.90113297" lon="13.33956093">
        <ele>928.00000</ele>
        <time>2024-05-10T20:59:15Z</time>
      </trkpt>
      <trkpt lat="42.90112392" lon="13.33952397">
        <ele>929.00000</ele>
        <time>2024-05-10T20:59:16Z</time>
      </trkpt>
      <trkpt lat="42.90111394" lon="13.33948792">
        <ele>929.00000</ele>
        <time>2024-05-10T20:59:16Z</time>
      </trkpt>
      <trkpt lat="42.90110598" lon="13.33945096">
        <ele>929.00000</ele>
        <time>2024-05-10T20:59:17Z</time>
      </trkpt>
      <trkpt lat="42.90109894" lon="13.33941693">
        <ele>930.00000</ele>
        <time>2024-05-10T20:59:17Z</time>
      </trkpt>
      <trkpt lat="42.90108896" lon="13.33938298">
        <ele>930.00000</ele>
        <time>2024-05-10T20:59:18Z</time>
      </trkpt>
      <trkpt lat="42.90108092" lon="13.33934593">
        <ele>930.00000</ele>
        <time>2024-05-10T20:59:19Z</time>
      </trkpt>
      <trkpt lat="42.90107396" lon="13.33931299">
        <ele>930.00000</ele>
        <time>2024-05-10T20:59:19Z</time>
      </trkpt>
      <trkpt lat="42.90106792" lon="13.33927896">
        <ele>930.00000</ele>
        <time>2024-05-10T20:59:20Z</time>
      </trkpt>
      <trkpt lat="42.90106298" lon="13.33924393">
        <ele>931.00000</ele>
        <time>2024-05-10T20:59:20Z</time>
      </trkpt>
      <trkpt lat="42.90105594" lon="13.33921199">
        <ele>931.00000</ele>
        <time>2024-05-10T20:59:21Z</time>
      </trkpt>
      <trkpt lat="42.90105191" lon="13.33917293">
        <ele>931.00000</ele>
        <time>2024-05-10T20:59:21Z</time>
      </trkpt>
      <trkpt lat="42.90103993" lon="13.33913194">
        <ele>932.00000</ele>
        <time>2024-05-10T20:59:22Z</time>
      </trkpt>
      <trkpt lat="42.90102995" lon="13.33909498">
        <ele>932.00000</ele>
        <time>2024-05-10T20:59:22Z</time>
      </trkpt>
      <trkpt lat="42.90102199" lon="13.33905994">
        <ele>932.00000</ele>
        <time>2024-05-10T20:59:23Z</time>
      </trkpt>
      <trkpt lat="42.90101093" lon="13.33902097">
        <ele>933.00000</ele>
        <time>2024-05-10T20:59:23Z</time>
      </trkpt>
      <trkpt lat="42.90100196" lon="13.33898099">
        <ele>933.00000</ele>
        <time>2024-05-10T20:59:24Z</time>
      </trkpt>
      <trkpt lat="42.90099492" lon="13.33894193">
        <ele>933.00000</ele>
        <time>2024-05-10T20:59:25Z</time>
      </trkpt>
      <trkpt lat="42.90098997" lon="13.33890697">
        <ele>933.00000</ele>
        <time>2024-05-10T20:59:25Z</time>
      </trkpt>
      <trkpt lat="42.90098092" lon="13.33887194">
        <ele>934.00000</ele>
        <time>2024-05-10T20:59:26Z</time>
      </trkpt>
      <trkpt lat="42.90097195" lon="13.33883699">
        <ele>934.00000</ele>
        <time>2024-05-10T20:59:26Z</time>
      </trkpt>
      <trkpt lat="42.90096499" lon="13.33880094">
        <ele>934.00000</ele>
        <time>2024-05-10T20:59:27Z</time>
      </trkpt>
      <trkpt lat="42.90095997" lon="13.33875996">
        <ele>934.00000</ele>
        <time>2024-05-10T20:59:27Z</time>
      </trkpt>
      <trkpt lat="42.90095192" lon="13.33871997">
        <ele>935.00000</ele>
        <time>2024-05-10T20:59:28Z</time>
      </trkpt>
      <trkpt lat="42.90094194" lon="13.33868192">
        <ele>935.00000</ele>
        <time>2024-05-10T20:59:29Z</time>
      </trkpt>
      <trkpt lat="42.90093398" lon="13.33864496">
        <ele>935.00000</ele>
        <time>2024-05-10T20:59:29Z</time>
      </trkpt>
      <trkpt lat="42.90092593" lon="13.33860598">
        <ele>936.00000</ele>
        <time>2024-05-10T20:59:30Z</time>
      </trkpt>
      <trkpt lat="42.90091898" lon="13.33856692">
        <ele>936.00000</ele>
        <time>2024-05-10T20:59:30Z</time>
      </trkpt>
      <trkpt lat="42.90091697" lon="13.33853197">
        <ele>937.00000</ele>
        <time>2024-05-10T20:59:31Z</time>
      </trkpt>
      <trkpt lat="42.90091194" lon="13.33849391">
        <ele>937.00000</ele>
        <time>2024-05-10T20:59:32Z</time>
      </trkpt>
      <trkpt lat="42.90090498" lon="13.33846198">
        <ele>938.00000</ele>
        <time>2024-05-10T20:59:32Z</time>
      </trkpt>
      <trkpt lat="42.90090196" lon="13.33842393">
        <ele>938.00000</ele>
        <time>2024-05-10T20:59:33Z</time>
      </trkpt>
      <trkpt lat="42.90089492" lon="13.33838394">
        <ele>939.00000</ele>
        <time>2024-05-10T20:59:33Z</time>
      </trkpt>
      <trkpt lat="42.90088796" lon="13.33834497">
        <ele>939.00000</ele>
        <time>2024-05-10T20:59:34Z</time>
      </trkpt>
      <trkpt lat="42.90087698" lon="13.33830297">
        <ele>940.00000</ele>
        <time>2024-05-10T20:59:34Z</time>
      </trkpt>
      <trkpt lat="42.90087196" lon="13.33825796">
        <ele>940.00000</ele>
        <time>2024-05-10T20:59:35Z</time>
      </trkpt>
      <trkpt lat="42.90086793" lon="13.33821899">
        <ele>940.00000</ele>
        <time>2024-05-10T20:59:36Z</time>
      </trkpt>
      <trkpt lat="42.90086693" lon="13.33817792">
        <ele>940.00000</ele>
        <time>2024-05-10T20:59:36Z</time>
      </trkpt>
      <trkpt lat="42.90086793" lon="13.33813894">
        <ele>941.00000</ele>
        <time>2024-05-10T20:59:37Z</time>
      </trkpt>
      <trkpt lat="42.90086994" lon="13.33809494">
        <ele>941.00000</ele>
        <time>2024-05-10T20:59:37Z</time>
      </trkpt>
      <trkpt lat="42.90087598" lon="13.33805194">
        <ele>941.00000</ele>
        <time>2024-05-10T20:59:38Z</time>
      </trkpt>
      <trkpt lat="42.90088193" lon="13.33800793">
        <ele>941.00000</ele>
        <time>2024-05-10T20:59:39Z</time>
      </trkpt>
      <trkpt lat="42.90088998" lon="13.33797097">
        <ele>941.00000</ele>
        <time>2024-05-10T20:59:39Z</time>
      </trkpt>
      <trkpt lat="42.90089895" lon="13.33792998">
        <ele>941.00000</ele>
        <time>2024-05-10T20:59:40Z</time>
      </trkpt>
      <trkpt lat="42.90090599" lon="13.33789494">
        <ele>942.00000</ele>
        <time>2024-05-10T20:59:41Z</time>
      </trkpt>
      <trkpt lat="42.90091697" lon="13.33785999">
        <ele>942.00000</ele>
        <time>2024-05-10T20:59:41Z</time>
      </trkpt>
      <trkpt lat="42.90093197" lon="13.33782596">
        <ele>942.00000</ele>
        <time>2024-05-10T20:59:42Z</time>
      </trkpt>
      <trkpt lat="42.90095393" lon="13.33779696">
        <ele>942.00000</ele>
        <time>2024-05-10T20:59:42Z</time>
      </trkpt>
      <trkpt lat="42.90097899" lon="13.33777399">
        <ele>942.00000</ele>
        <time>2024-05-10T20:59:43Z</time>
      </trkpt>
      <trkpt lat="42.90100397" lon="13.33775497">
        <ele>942.00000</ele>
        <time>2024-05-10T20:59:43Z</time>
      </trkpt>
      <trkpt lat="42.90102995" lon="13.33773694">
        <ele>942.00000</ele>
        <time>2024-05-10T20:59:44Z</time>
      </trkpt>
      <trkpt lat="42.90105694" lon="13.33771892">
        <ele>942.00000</ele>
        <time>2024-05-10T20:59:45Z</time>
      </trkpt>
      <trkpt lat="42.90108494" lon="13.33770291">
        <ele>942.00000</ele>
        <time>2024-05-10T20:59:45Z</time>
      </trkpt>
      <trkpt lat="42.90111595" lon="13.33769193">
        <ele>942.00000</ele>
        <time>2024-05-10T20:59:46Z</time>
      </trkpt>
      <trkpt lat="42.90114495" lon="13.33768296">
        <ele>942.00000</ele>
        <time>2024-05-10T20:59:46Z</time>
      </trkpt>
      <trkpt lat="42.90117295" lon="13.33766696">
        <ele>942.00000</ele>
        <time>2024-05-10T20:59:47Z</time>
      </trkpt>
      <trkpt lat="42.90119893" lon="13.33765698">
        <ele>941.00000</ele>
        <time>2024-05-10T20:59:48Z</time>
      </trkpt>
      <trkpt lat="42.90122793" lon="13.33764994">
        <ele>941.00000</ele>
        <time>2024-05-10T20:59:48Z</time>
      </trkpt>
      <trkpt lat="42.90125694" lon="13.33764097">
        <ele>941.00000</ele>
        <time>2024-05-10T20:59:49Z</time>
      </trkpt>
      <trkpt lat="42.90128594" lon="13.33763192">
        <ele>940.00000</ele>
        <time>2024-05-10T20:59:49Z</time>
      </trkpt>
      <trkpt lat="42.90131393" lon="13.33761792">
        <ele>940.00000</ele>
        <time>2024-05-10T20:59:50Z</time>
      </trkpt>
      <trkpt lat="42.90133891" lon="13.33760493">
        <ele>940.00000</ele>
        <time>2024-05-10T20:59:51Z</time>
      </trkpt>
      <trkpt lat="42.90136297" lon="13.33759395">
        <ele>940.00000</ele>
        <time>2024-05-10T20:59:51Z</time>
      </trkpt>
      <trkpt lat="42.90138795" lon="13.33758196">
        <ele>940.00000</ele>
        <time>2024-05-10T20:59:52Z</time>
      </trkpt>
      <trkpt lat="42.90140898" lon="13.33757392">
        <ele>939.00000</ele>
        <time>2024-05-10T20:59:52Z</time>
      </trkpt>
      <trkpt lat="42.90143497" lon="13.33756394">
        <ele>939.00000</ele>
        <time>2024-05-10T20:59:53Z</time>
      </trkpt>
      <trkpt lat="42.90146296" lon="13.33755196">
        <ele>939.00000</ele>
        <time>2024-05-10T20:59:53Z</time>
      </trkpt>
      <trkpt lat="42.90149297" lon="13.33753494">
        <ele>938.00000</ele>
        <time>2024-05-10T20:59:54Z</time>
      </trkpt>
      <trkpt lat="42.90152792" lon="13.33752991">
        <ele>938.00000</ele>
        <time>2024-05-10T20:59:54Z</time>
      </trkpt>
      <trkpt lat="42.90156095" lon="13.33752295">
        <ele>937.00000</ele>
        <time>2024-05-10T20:59:55Z</time>
      </trkpt>
      <trkpt lat="42.90159498" lon="13.33751499">
        <ele>937.00000</ele>
        <time>2024-05-10T20:59:56Z</time>
      </trkpt>
      <trkpt lat="42.90162792" lon="13.33750493">
        <ele>936.00000</ele>
        <time>2024-05-10T20:59:56Z</time>
      </trkpt>
      <trkpt lat="42.90165994" lon="13.33749395">
        <ele>936.00000</ele>
        <time>2024-05-10T20:59:57Z</time>
      </trkpt>
      <trkpt lat="42.90169095" lon="13.33748398">
        <ele>936.00000</ele>
        <time>2024-05-10T20:59:58Z</time>
      </trkpt>
      <trkpt lat="42.90171995" lon="13.33746797">
        <ele>936.00000</ele>
        <time>2024-05-10T20:59:58Z</time>
      </trkpt>
      <trkpt lat="42.90174795" lon="13.33745095">
        <ele>936.00000</ele>
        <time>2024-05-10T20:59:59Z</time>
      </trkpt>
      <trkpt lat="42.90177796" lon="13.33743696">
        <ele>936.00000</ele>
        <time>2024-05-10T21:00:00Z</time>
      </trkpt>
      <trkpt lat="42.90180193" lon="13.33742598">
        <ele>936.00000</ele>
        <time>2024-05-10T21:00:00Z</time>
      </trkpt>
      <trkpt lat="42.90181794" lon="13.33741399">
        <ele>936.00000</ele>
        <time>2024-05-10T21:00:01Z</time>
      </trkpt>
      <trkpt lat="42.90183294" lon="13.33740393">
        <ele>936.00000</ele>
        <time>2024-05-10T21:00:01Z</time>
      </trkpt>
      <trkpt lat="42.90185599" lon="13.33739899">
        <ele>936.00000</ele>
        <time>2024-05-10T21:00:01Z</time>
      </trkpt>
      <trkpt lat="42.90187695" lon="13.33737895">
        <ele>937.00000</ele>
        <time>2024-05-10T21:00:02Z</time>
      </trkpt>
      <trkpt lat="42.90189094" lon="13.33735599">
        <ele>937.00000</ele>
        <time>2024-05-10T21:00:02Z</time>
      </trkpt>
      <trkpt lat="42.90189899" lon="13.33732497">
        <ele>937.00000</ele>
        <time>2024-05-10T21:00:03Z</time>
      </trkpt>
      <trkpt lat="42.90189195" lon="13.33729497">
        <ele>938.00000</ele>
        <time>2024-05-10T21:00:03Z</time>
      </trkpt>
      <trkpt lat="42.90187099" lon="13.33727292">
        <ele>938.00000</ele>
        <time>2024-05-10T21:00:04Z</time>
      </trkpt>
      <trkpt lat="42.90184493" lon="13.33726798">
        <ele>939.00000</ele>
        <time>2024-05-10T21:00:04Z</time>
      </trkpt>
      <trkpt lat="42.90181995" lon="13.33726094">
        <ele>939.00000</ele>
        <time>2024-05-10T21:00:05Z</time>
      </trkpt>
      <trkpt lat="42.90179095" lon="13.33725498">
        <ele>939.00000</ele>
        <time>2024-05-10T21:00:05Z</time>
      </trkpt>
      <trkpt lat="42.90176496" lon="13.33724895">
        <ele>939.00000</ele>
        <time>2024-05-10T21:00:06Z</time>
      </trkpt>
      <trkpt lat="42.90173797" lon="13.33724694">
        <ele>940.00000</ele>
        <time>2024-05-10T21:00:06Z</time>
      </trkpt>
      <trkpt lat="42.90171291" lon="13.33725096">
        <ele>940.00000</ele>
        <time>2024-05-10T21:00:07Z</time>
      </trkpt>
      <trkpt lat="42.90168299" lon="13.33726194">
        <ele>940.00000</ele>
        <time>2024-05-10T21:00:08Z</time>
      </trkpt>
      <trkpt lat="42.90165298" lon="13.33726798">
        <ele>940.00000</ele>
        <time>2024-05-10T21:00:08Z</time>
      </trkpt>
      <trkpt lat="42.90162499" lon="13.33728197">
        <ele>940.00000</ele>
        <time>2024-05-10T21:00:09Z</time>
      </trkpt>
      <trkpt lat="42.90159297" lon="13.33729597">
        <ele>940.00000</ele>
        <time>2024-05-10T21:00:09Z</time>
      </trkpt>
      <trkpt lat="42.90156296" lon="13.33730293">
        <ele>940.00000</ele>
        <time>2024-05-10T21:00:10Z</time>
      </trkpt>
      <trkpt lat="42.90153496" lon="13.33731098">
        <ele>941.00000</ele>
        <time>2024-05-10T21:00:11Z</time>
      </trkpt>
      <trkpt lat="42.90150797" lon="13.33732397">
        <ele>941.00000</ele>
        <time>2024-05-10T21:00:11Z</time>
      </trkpt>
      <trkpt lat="42.90147897" lon="13.33733897">
        <ele>941.00000</ele>
        <time>2024-05-10T21:00:12Z</time>
      </trkpt>
      <trkpt lat="42.90145492" lon="13.33734693">
        <ele>941.00000</ele>
        <time>2024-05-10T21:00:12Z</time>
      </trkpt>
      <trkpt lat="42.90142692" lon="13.33735196">
        <ele>942.00000</ele>
        <time>2024-05-10T21:00:13Z</time>
      </trkpt>
      <trkpt lat="42.90139599" lon="13.33736093">
        <ele>942.00000</ele>
        <time>2024-05-10T21:00:14Z</time>
      </trkpt>
      <trkpt lat="42.90136196" lon="13.33737292">
        <ele>942.00000</ele>
        <time>2024-05-10T21:00:14Z</time>
      </trkpt>
      <trkpt lat="42.90133095" lon="13.33737795">
        <ele>942.00000</ele>
        <time>2024-05-10T21:00:15Z</time>
      </trkpt>
      <trkpt lat="42.90129893" lon="13.33737795">
        <ele>943.00000</ele>
        <time>2024-05-10T21:00:15Z</time>
      </trkpt>
      <trkpt lat="42.90126792" lon="13.33737292">
        <ele>943.00000</ele>
        <time>2024-05-10T21:00:16Z</time>
      </trkpt>
      <trkpt lat="42.90123699" lon="13.33737392">
        <ele>943.00000</ele>
        <time>2024-05-10T21:00:17Z</time>
      </trkpt>
      <trkpt lat="42.90120698" lon="13.33737099">
        <ele>944.00000</ele>
        <time>2024-05-10T21:00:17Z</time>
      </trkpt>
      <trkpt lat="42.90117597" lon="13.33736697">
        <ele>944.00000</ele>
        <time>2024-05-10T21:00:18Z</time>
      </trkpt>
      <trkpt lat="42.90114596" lon="13.33736596">
        <ele>945.00000</ele>
        <time>2024-05-10T21:00:19Z</time>
      </trkpt>
      <trkpt lat="42.90111595" lon="13.33735993">
        <ele>945.00000</ele>
        <time>2024-05-10T21:00:19Z</time>
      </trkpt>
      <trkpt lat="42.90108494" lon="13.33735297">
        <ele>945.00000</ele>
        <time>2024-05-10T21:00:20Z</time>
      </trkpt>
      <trkpt lat="42.90105493" lon="13.33734392">
        <ele>945.00000</ele>
        <time>2024-05-10T21:00:20Z</time>
      </trkpt>
      <trkpt lat="42.90102593" lon="13.33733797">
        <ele>946.00000</ele>
        <time>2024-05-10T21:00:21Z</time>
      </trkpt>
      <trkpt lat="42.90099592" lon="13.33733294">
        <ele>946.00000</ele>
        <time>2024-05-10T21:00:22Z</time>
      </trkpt>
      <trkpt lat="42.90096793" lon="13.33732497">
        <ele>946.00000</ele>
        <time>2024-05-10T21:00:22Z</time>
      </trkpt>
      <trkpt lat="42.90093893" lon="13.33731399">
        <ele>946.00000</ele>
        <time>2024-05-10T21:00:23Z</time>
      </trkpt>
      <trkpt lat="42.90090791" lon="13.33729899">
        <ele>946.00000</ele>
        <time>2024-05-10T21:00:23Z</time>
      </trkpt>
      <trkpt lat="42.90087891" lon="13.33728097">
        <ele>947.00000</ele>
        <time>2024-05-10T21:00:24Z</time>
      </trkpt>
      <trkpt lat="42.90085092" lon="13.33726597">
        <ele>947.00000</ele>
        <time>2024-05-10T21:00:25Z</time>
      </trkpt>
      <trkpt lat="42.90082393" lon="13.33724794">
        <ele>947.00000</ele>
        <time>2024-05-10T21:00:25Z</time>
      </trkpt>
      <trkpt lat="42.90079794" lon="13.33722598">
        <ele>947.00000</ele>
        <time>2024-05-10T21:00:26Z</time>
      </trkpt>
      <trkpt lat="42.90077397" lon="13.33720193">
        <ele>947.00000</ele>
        <time>2024-05-10T21:00:26Z</time>
      </trkpt>
      <trkpt lat="42.90074991" lon="13.33717997">
        <ele>947.00000</ele>
        <time>2024-05-10T21:00:27Z</time>
      </trkpt>
      <trkpt lat="42.90072494" lon="13.33715298">
        <ele>947.00000</ele>
        <time>2024-05-10T21:00:28Z</time>
      </trkpt>
      <trkpt lat="42.90069895" lon="13.33712398">
        <ele>948.00000</ele>
        <time>2024-05-10T21:00:28Z</time>
      </trkpt>
      <trkpt lat="42.90067397" lon="13.33709095">
        <ele>948.00000</ele>
        <time>2024-05-10T21:00:29Z</time>
      </trkpt>
      <trkpt lat="42.90065092" lon="13.33705692">
        <ele>948.00000</ele>
        <time>2024-05-10T21:00:30Z</time>
      </trkpt>
      <trkpt lat="42.90062997" lon="13.33702297">
        <ele>949.00000</ele>
        <time>2024-05-10T21:00:30Z</time>
      </trkpt>
      <trkpt lat="42.90061195" lon="13.33699297">
        <ele>949.00000</ele>
        <time>2024-05-10T21:00:31Z</time>
      </trkpt>
      <trkpt lat="42.90059099" lon="13.33696095">
        <ele>949.00000</ele>
        <time>2024-05-10T21:00:32Z</time>
      </trkpt>
      <trkpt lat="42.90057096" lon="13.33692398">
        <ele>950.00000</ele>
        <time>2024-05-10T21:00:32Z</time>
      </trkpt>
      <trkpt lat="42.90055093" lon="13.33689096">
        <ele>950.00000</ele>
        <time>2024-05-10T21:00:33Z</time>
      </trkpt>
      <trkpt lat="42.90052796" lon="13.33686296">
        <ele>950.00000</ele>
        <time>2024-05-10T21:00:33Z</time>
      </trkpt>
      <trkpt lat="42.90050894" lon="13.33683195">
        <ele>950.00000</ele>
        <time>2024-05-10T21:00:34Z</time>
      </trkpt>
      <trkpt lat="42.90048999" lon="13.33679893">
        <ele>950.00000</ele>
        <time>2024-05-10T21:00:35Z</time>
      </trkpt>
      <trkpt lat="42.90046895" lon="13.33676791">
        <ele>950.00000</ele>
        <time>2024-05-10T21:00:35Z</time>
      </trkpt>
      <trkpt lat="42.90045093" lon="13.33673992">
        <ele>950.00000</ele>
        <time>2024-05-10T21:00:36Z</time>
      </trkpt>
      <trkpt lat="42.90043199" lon="13.33671293">
        <ele>950.00000</ele>
        <time>2024-05-10T21:00:36Z</time>
      </trkpt>
      <trkpt lat="42.90041196" lon="13.33668292">
        <ele>950.00000</ele>
        <time>2024-05-10T21:00:37Z</time>
      </trkpt>
      <trkpt lat="42.90039293" lon="13.33664998">
        <ele>950.00000</ele>
        <time>2024-05-10T21:00:38Z</time>
      </trkpt>
      <trkpt lat="42.90037591" lon="13.33661494">
        <ele>949.00000</ele>
        <time>2024-05-10T21:00:38Z</time>
      </trkpt>
      <trkpt lat="42.90035898" lon="13.33657898">
        <ele>949.00000</ele>
        <time>2024-05-10T21:00:39Z</time>
      </trkpt>
      <trkpt lat="42.90034096" lon="13.33654294">
        <ele>949.00000</ele>
        <time>2024-05-10T21:00:40Z</time>
      </trkpt>
      <trkpt lat="42.90032093" lon="13.33650891">
        <ele>949.00000</ele>
        <time>2024-05-10T21:00:40Z</time>
      </trkpt>
      <trkpt lat="42.90030492" lon="13.33647999">
        <ele>949.00000</ele>
        <time>2024-05-10T21:00:41Z</time>
      </trkpt>
      <trkpt lat="42.90028396" lon="13.33644697">
        <ele>949.00000</ele>
        <time>2024-05-10T21:00:41Z</time>
      </trkpt>
      <trkpt lat="42.90025999" lon="13.33641394">
        <ele>948.00000</ele>
        <time>2024-05-10T21:00:42Z</time>
      </trkpt>
      <trkpt lat="42.90023694" lon="13.33638193">
        <ele>948.00000</ele>
        <time>2024-05-10T21:00:43Z</time>
      </trkpt>
      <trkpt lat="42.90021599" lon="13.33635091">
        <ele>948.00000</ele>
        <time>2024-05-10T21:00:43Z</time>
      </trkpt>
      <trkpt lat="42.90019696" lon="13.33631898">
        <ele>947.00000</ele>
        <time>2024-05-10T21:00:44Z</time>
      </trkpt>
      <trkpt lat="42.90017693" lon="13.33628696">
        <ele>947.00000</ele>
        <time>2024-05-10T21:00:44Z</time>
      </trkpt>
      <trkpt lat="42.90015396" lon="13.33625896">
        <ele>947.00000</ele>
        <time>2024-05-10T21:00:45Z</time>
      </trkpt>
      <trkpt lat="42.90012898" lon="13.33623298">
        <ele>947.00000</ele>
        <time>2024-05-10T21:00:46Z</time>
      </trkpt>
      <trkpt lat="42.90010794" lon="13.33620096">
        <ele>948.00000</ele>
        <time>2024-05-10T21:00:46Z</time>
      </trkpt>
      <trkpt lat="42.90008598" lon="13.33616794">
        <ele>948.00000</ele>
        <time>2024-05-10T21:00:47Z</time>
      </trkpt>
      <trkpt lat="42.90006394" lon="13.33613793">
        <ele>948.00000</ele>
        <time>2024-05-10T21:00:48Z</time>
      </trkpt>
      <trkpt lat="42.90004097" lon="13.33610599">
        <ele>949.00000</ele>
        <time>2024-05-10T21:00:48Z</time>
      </trkpt>
      <trkpt lat="42.90001893" lon="13.33607599">
        <ele>949.00000</ele>
        <time>2024-05-10T21:00:49Z</time>
      </trkpt>
      <trkpt lat="42.89999697" lon="13.33604699">
        <ele>950.00000</ele>
        <time>2024-05-10T21:00:50Z</time>
      </trkpt>
      <trkpt lat="42.89997199" lon="13.33602092">
        <ele>951.00000</ele>
        <time>2024-05-10T21:00:50Z</time>
      </trkpt>
      <trkpt lat="42.89994592" lon="13.33599493">
        <ele>952.00000</ele>
        <time>2024-05-10T21:00:51Z</time>
      </trkpt>
      <trkpt lat="42.89991499" lon="13.33597498">
        <ele>952.00000</ele>
        <time>2024-05-10T21:00:52Z</time>
      </trkpt>
      <trkpt lat="42.89988893" lon="13.33594892">
        <ele>954.00000</ele>
        <time>2024-05-10T21:00:52Z</time>
      </trkpt>
      <trkpt lat="42.89986194" lon="13.33592696">
        <ele>955.00000</ele>
        <time>2024-05-10T21:00:53Z</time>
      </trkpt>
      <trkpt lat="42.89983595" lon="13.33590692">
        <ele>956.00000</ele>
        <time>2024-05-10T21:00:53Z</time>
      </trkpt>
      <trkpt lat="42.89980695" lon="13.33588496">
        <ele>957.00000</ele>
        <time>2024-05-10T21:00:54Z</time>
      </trkpt>
      <trkpt lat="42.89977594" lon="13.33586996">
        <ele>959.00000</ele>
        <time>2024-05-10T21:00:55Z</time>
      </trkpt>
      <trkpt lat="42.89974392" lon="13.33585998">
        <ele>960.00000</ele>
        <time>2024-05-10T21:00:55Z</time>
      </trkpt>
      <trkpt lat="42.89971299" lon="13.33585697">
        <ele>961.00000</ele>
        <time>2024-05-10T21:00:56Z</time>
      </trkpt>
      <trkpt lat="42.89967896" lon="13.33584791">
        <ele>961.00000</ele>
        <time>2024-05-10T21:00:57Z</time>
      </trkpt>
      <trkpt lat="42.89964493" lon="13.33583895">
        <ele>962.00000</ele>
        <time>2024-05-10T21:00:57Z</time>
      </trkpt>
      <trkpt lat="42.89961199" lon="13.33583199">
        <ele>962.00000</ele>
        <time>2024-05-10T21:00:58Z</time>
      </trkpt>
      <trkpt lat="42.89958097" lon="13.33582797">
        <ele>962.00000</ele>
        <time>2024-05-10T21:00:59Z</time>
      </trkpt>
      <trkpt lat="42.89954896" lon="13.33582998">
        <ele>962.00000</ele>
        <time>2024-05-10T21:00:59Z</time>
      </trkpt>
      <trkpt lat="42.89951895" lon="13.33583199">
        <ele>962.00000</ele>
        <time>2024-05-10T21:01:00Z</time>
      </trkpt>
      <trkpt lat="42.89948995" lon="13.33583593">
        <ele>962.00000</ele>
        <time>2024-05-10T21:01:00Z</time>
      </trkpt>
      <trkpt lat="42.89945893" lon="13.33584196">
        <ele>962.00000</ele>
        <time>2024-05-10T21:01:01Z</time>
      </trkpt>
      <trkpt lat="42.89942692" lon="13.33584892">
        <ele>962.00000</ele>
        <time>2024-05-10T21:01:02Z</time>
      </trkpt>
      <trkpt lat="42.89939498" lon="13.33584599">
        <ele>961.00000</ele>
        <time>2024-05-10T21:01:02Z</time>
      </trkpt>
      <trkpt lat="42.89936598" lon="13.33583895">
        <ele>961.00000</ele>
        <time>2024-05-10T21:01:03Z</time>
      </trkpt>
      <trkpt lat="42.89933597" lon="13.33582897">
        <ele>961.00000</ele>
        <time>2024-05-10T21:01:04Z</time>
      </trkpt>
      <trkpt lat="42.89930898" lon="13.33580793">
        <ele>961.00000</ele>
        <time>2024-05-10T21:01:04Z</time>
      </trkpt>
      <trkpt lat="42.89928291" lon="13.33578396">
        <ele>962.00000</ele>
        <time>2024-05-10T21:01:05Z</time>
      </trkpt>
      <trkpt lat="42.89925693" lon="13.33576099">
        <ele>962.00000</ele>
        <time>2024-05-10T21:01:05Z</time>
      </trkpt>
      <trkpt lat="42.89923195" lon="13.33574096">
        <ele>963.00000</ele>
        <time>2024-05-10T21:01:06Z</time>
      </trkpt>
      <trkpt lat="42.89920697" lon="13.33571892">
        <ele>963.00000</ele>
        <time>2024-05-10T21:01:07Z</time>
      </trkpt>
      <trkpt lat="42.89918292" lon="13.33569897">
        <ele>963.00000</ele>
        <time>2024-05-10T21:01:07Z</time>
      </trkpt>
      <trkpt lat="42.89915492" lon="13.33567692">
        <ele>964.00000</ele>
        <time>2024-05-10T21:01:08Z</time>
      </trkpt>
      <trkpt lat="42.89912894" lon="13.33565396">
        <ele>964.00000</ele>
        <time>2024-05-10T21:01:08Z</time>
      </trkpt>
      <trkpt lat="42.89910195" lon="13.33563594">
        <ele>964.00000</ele>
        <time>2024-05-10T21:01:09Z</time>
      </trkpt>
      <trkpt lat="42.89907395" lon="13.33561398">
        <ele>964.00000</ele>
        <time>2024-05-10T21:01:10Z</time>
      </trkpt>
      <trkpt lat="42.89904495" lon="13.33559495">
        <ele>964.00000</ele>
        <time>2024-05-10T21:01:10Z</time>
      </trkpt>
      <trkpt lat="42.89901796" lon="13.33557995">
        <ele>964.00000</ele>
        <time>2024-05-10T21:01:11Z</time>
      </trkpt>
      <trkpt lat="42.89898695" lon="13.33556796">
        <ele>964.00000</ele>
        <time>2024-05-10T21:01:12Z</time>
      </trkpt>
      <trkpt lat="42.89895493" lon="13.33555597">
        <ele>964.00000</ele>
        <time>2024-05-10T21:01:12Z</time>
      </trkpt>
      <trkpt lat="42.89892693" lon="13.33554298">
        <ele>964.00000</ele>
        <time>2024-05-10T21:01:13Z</time>
      </trkpt>
      <trkpt lat="42.89889793" lon="13.33553192">
        <ele>963.00000</ele>
        <time>2024-05-10T21:01:13Z</time>
      </trkpt>
      <trkpt lat="42.89886893" lon="13.33552395">
        <ele>964.00000</ele>
        <time>2024-05-10T21:01:14Z</time>
      </trkpt>
      <trkpt lat="42.89883993" lon="13.33552194">
        <ele>964.00000</ele>
        <time>2024-05-10T21:01:15Z</time>
      </trkpt>
      <trkpt lat="42.89881194" lon="13.33551993">
        <ele>964.00000</ele>
        <time>2024-05-10T21:01:15Z</time>
      </trkpt>
      <trkpt lat="42.89878092" lon="13.33551398">
        <ele>964.00000</ele>
        <time>2024-05-10T21:01:16Z</time>
      </trkpt>
      <trkpt lat="42.89874999" lon="13.33550593">
        <ele>964.00000</ele>
        <time>2024-05-10T21:01:16Z</time>
      </trkpt>
      <trkpt lat="42.89872292" lon="13.33550099">
        <ele>964.00000</ele>
        <time>2024-05-10T21:01:17Z</time>
      </trkpt>
      <trkpt lat="42.89869392" lon="13.33549194">
        <ele>964.00000</ele>
        <time>2024-05-10T21:01:18Z</time>
      </trkpt>
      <trkpt lat="42.89866492" lon="13.33548598">
        <ele>964.00000</ele>
        <time>2024-05-10T21:01:18Z</time>
      </trkpt>
      <trkpt lat="42.89863198" lon="13.33548096">
        <ele>964.00000</ele>
        <time>2024-05-10T21:01:19Z</time>
      </trkpt>
      <trkpt lat="42.89859996" lon="13.33547693">
        <ele>964.00000</ele>
        <time>2024-05-10T21:01:19Z</time>
      </trkpt>
      <trkpt lat="42.89856593" lon="13.33546897">
        <ele>964.00000</ele>
        <time>2024-05-10T21:01:20Z</time>
      </trkpt>
      <trkpt lat="42.89853299" lon="13.33546293">
        <ele>963.00000</ele>
        <time>2024-05-10T21:01:21Z</time>
      </trkpt>
      <trkpt lat="42.89849996" lon="13.33545195">
        <ele>963.00000</ele>
        <time>2024-05-10T21:01:21Z</time>
      </trkpt>
      <trkpt lat="42.89846995" lon="13.33543594">
        <ele>963.00000</ele>
        <time>2024-05-10T21:01:22Z</time>
      </trkpt>
      <trkpt lat="42.89844196" lon="13.33541197">
        <ele>963.00000</ele>
        <time>2024-05-10T21:01:23Z</time>
      </trkpt>
      <trkpt lat="42.89841396" lon="13.33538699">
        <ele>963.00000</ele>
        <time>2024-05-10T21:01:23Z</time>
      </trkpt>
      <trkpt lat="42.89838898" lon="13.33536093">
        <ele>963.00000</ele>
        <time>2024-05-10T21:01:24Z</time>
      </trkpt>
      <trkpt lat="42.89836292" lon="13.33533092">
        <ele>963.00000</ele>
        <time>2024-05-10T21:01:25Z</time>
      </trkpt>
      <trkpt lat="42.89834096" lon="13.33529798">
        <ele>963.00000</ele>
        <time>2024-05-10T21:01:25Z</time>
      </trkpt>
      <trkpt lat="42.89831992" lon="13.33526294">
        <ele>963.00000</ele>
        <time>2024-05-10T21:01:26Z</time>
      </trkpt>
      <trkpt lat="42.89830299" lon="13.33521894">
        <ele>963.00000</ele>
        <time>2024-05-10T21:01:27Z</time>
      </trkpt>
      <trkpt lat="42.89828798" lon="13.33518097">
        <ele>962.00000</ele>
        <time>2024-05-10T21:01:27Z</time>
      </trkpt>
      <trkpt lat="42.89827792" lon="13.33513797">
        <ele>962.00000</ele>
        <time>2024-05-10T21:01:28Z</time>
      </trkpt>
      <trkpt lat="42.89826795" lon="13.33508994">
        <ele>962.00000</ele>
        <time>2024-05-10T21:01:29Z</time>
      </trkpt>
      <trkpt lat="42.89825898" lon="13.33504199">
        <ele>962.00000</ele>
        <time>2024-05-10T21:01:30Z</time>
      </trkpt>
      <trkpt lat="42.89825596" lon="13.33499497">
        <ele>962.00000</ele>
        <time>2024-05-10T21:01:30Z</time>
      </trkpt>
      <trkpt lat="42.89825697" lon="13.33494493">
        <ele>962.00000</ele>
        <time>2024-05-10T21:01:31Z</time>
      </trkpt>
      <trkpt lat="42.89826191" lon="13.33489296">
        <ele>962.00000</ele>
        <time>2024-05-10T21:01:32Z</time>
      </trkpt>
      <trkpt lat="42.89827197" lon="13.33485097">
        <ele>962.00000</ele>
        <time>2024-05-10T21:01:32Z</time>
      </trkpt>
      <trkpt lat="42.89828094" lon="13.33480797">
        <ele>962.00000</ele>
        <time>2024-05-10T21:01:33Z</time>
      </trkpt>
      <trkpt lat="42.89829393" lon="13.33475994">
        <ele>962.00000</ele>
        <time>2024-05-10T21:01:34Z</time>
      </trkpt>
      <trkpt lat="42.89830793" lon="13.33471996">
        <ele>963.00000</ele>
        <time>2024-05-10T21:01:34Z</time>
      </trkpt>
      <trkpt lat="42.89833392" lon="13.33468291">
        <ele>963.00000</ele>
        <time>2024-05-10T21:01:35Z</time>
      </trkpt>
      <trkpt lat="42.89836099" lon="13.33465592">
        <ele>964.00000</ele>
        <time>2024-05-10T21:01:36Z</time>
      </trkpt>
      <trkpt lat="42.89838597" lon="13.33462692">
        <ele>964.00000</ele>
        <time>2024-05-10T21:01:37Z</time>
      </trkpt>
      <trkpt lat="42.89841296" lon="13.33459893">
        <ele>965.00000</ele>
        <time>2024-05-10T21:01:37Z</time>
      </trkpt>
      <trkpt lat="42.89843995" lon="13.33456892">
        <ele>965.00000</ele>
        <time>2024-05-10T21:01:38Z</time>
      </trkpt>
      <trkpt lat="42.89846895" lon="13.33453497">
        <ele>966.00000</ele>
        <time>2024-05-10T21:01:39Z</time>
      </trkpt>
      <trkpt lat="42.89849594" lon="13.33450295">
        <ele>966.00000</ele>
        <time>2024-05-10T21:01:39Z</time>
      </trkpt>
      <trkpt lat="42.89852293" lon="13.33447295">
        <ele>966.00000</ele>
        <time>2024-05-10T21:01:40Z</time>
      </trkpt>
      <trkpt lat="42.89855092" lon="13.33443498">
        <ele>967.00000</ele>
        <time>2024-05-10T21:01:41Z</time>
      </trkpt>
      <trkpt lat="42.89857699" lon="13.33439692">
        <ele>967.00000</ele>
        <time>2024-05-10T21:01:42Z</time>
      </trkpt>
      <trkpt lat="42.89859996" lon="13.33435594">
        <ele>968.00000</ele>
        <time>2024-05-10T21:01:42Z</time>
      </trkpt>
      <trkpt lat="42.89861697" lon="13.33431294">
        <ele>968.00000</ele>
        <time>2024-05-10T21:01:43Z</time>
      </trkpt>
      <trkpt lat="42.89862996" lon="13.33426499">
        <ele>968.00000</ele>
        <time>2024-05-10T21:01:44Z</time>
      </trkpt>
      <trkpt lat="42.89863793" lon="13.33421193">
        <ele>968.00000</ele>
        <time>2024-05-10T21:01:45Z</time>
      </trkpt>
      <trkpt lat="42.89864296" lon="13.33416198">
        <ele>968.00000</ele>
        <time>2024-05-10T21:01:45Z</time>
      </trkpt>
      <trkpt lat="42.89864597" lon="13.33411395">
        <ele>968.00000</ele>
        <time>2024-05-10T21:01:46Z</time>
      </trkpt>
      <trkpt lat="42.89864296" lon="13.33406299">
        <ele>968.00000</ele>
        <time>2024-05-10T21:01:47Z</time>
      </trkpt>
      <trkpt lat="42.89863592" lon="13.33401697">
        <ele>968.00000</ele>
        <time>2024-05-10T21:01:48Z</time>
      </trkpt>
      <trkpt lat="42.89862996" lon="13.33397498">
        <ele>967.00000</ele>
        <time>2024-05-10T21:01:48Z</time>
      </trkpt>
      <trkpt lat="42.89861697" lon="13.33393399">
        <ele>967.00000</ele>
        <time>2024-05-10T21:01:49Z</time>
      </trkpt>
      <trkpt lat="42.89860398" lon="13.33389191">
        <ele>966.00000</ele>
        <time>2024-05-10T21:01:50Z</time>
      </trkpt>
      <trkpt lat="42.89859392" lon="13.33385596">
        <ele>966.00000</ele>
        <time>2024-05-10T21:01:50Z</time>
      </trkpt>
      <trkpt lat="42.89858194" lon="13.33381396">
        <ele>966.00000</ele>
        <time>2024-05-10T21:01:51Z</time>
      </trkpt>
      <trkpt lat="42.89856995" lon="13.33376392">
        <ele>966.00000</ele>
        <time>2024-05-10T21:01:52Z</time>
      </trkpt>
      <trkpt lat="42.89855595" lon="13.33371698">
        <ele>966.00000</ele>
        <time>2024-05-10T21:01:52Z</time>
      </trkpt>
      <trkpt lat="42.89854195" lon="13.33366996">
        <ele>966.00000</ele>
        <time>2024-05-10T21:01:53Z</time>
      </trkpt>
      <trkpt lat="42.89853097" lon="13.33361799">
        <ele>966.00000</ele>
        <time>2024-05-10T21:01:54Z</time>
      </trkpt>
      <trkpt lat="42.89852293" lon="13.33356292">
        <ele>965.00000</ele>
        <time>2024-05-10T21:01:55Z</time>
      </trkpt>
      <trkpt lat="42.89851798" lon="13.33351096">
        <ele>965.00000</ele>
        <time>2024-05-10T21:01:55Z</time>
      </trkpt>
      <trkpt lat="42.89851999" lon="13.33345497">
        <ele>965.00000</ele>
        <time>2024-05-10T21:01:56Z</time>
      </trkpt>
      <trkpt lat="42.89852293" lon="13.33339998">
        <ele>965.00000</ele>
        <time>2024-05-10T21:01:57Z</time>
      </trkpt>
      <trkpt lat="42.89852896" lon="13.33334994">
        <ele>965.00000</ele>
        <time>2024-05-10T21:01:58Z</time>
      </trkpt>
      <trkpt lat="42.89853692" lon="13.33329797">
        <ele>965.00000</ele>
        <time>2024-05-10T21:01:59Z</time>
      </trkpt>
      <trkpt lat="42.89854698" lon="13.33324098">
        <ele>965.00000</ele>
        <time>2024-05-10T21:01:59Z</time>
      </trkpt>
      <trkpt lat="42.89855897" lon="13.33318691">
        <ele>965.00000</ele>
        <time>2024-05-10T21:02:00Z</time>
      </trkpt>
      <trkpt lat="42.89857196" lon="13.33313193">
        <ele>965.00000</ele>
        <time>2024-05-10T21:02:01Z</time>
      </trkpt>
      <trkpt lat="42.89858696" lon="13.33307493">
        <ele>966.00000</ele>
        <time>2024-05-10T21:02:02Z</time>
      </trkpt>
      <trkpt lat="42.89859795" lon="13.33302196">
        <ele>966.00000</ele>
        <time>2024-05-10T21:02:03Z</time>
      </trkpt>
      <trkpt lat="42.89861194" lon="13.33297099">
        <ele>966.00000</ele>
        <time>2024-05-10T21:02:04Z</time>
      </trkpt>
      <trkpt lat="42.89862795" lon="13.33291794">
        <ele>966.00000</ele>
        <time>2024-05-10T21:02:04Z</time>
      </trkpt>
      <trkpt lat="42.89864094" lon="13.33286396">
        <ele>966.00000</ele>
        <time>2024-05-10T21:02:05Z</time>
      </trkpt>
      <trkpt lat="42.89864899" lon="13.33280998">
        <ele>965.00000</ele>
        <time>2024-05-10T21:02:06Z</time>
      </trkpt>
      <trkpt lat="42.89865997" lon="13.33275591">
        <ele>965.00000</ele>
        <time>2024-05-10T21:02:07Z</time>
      </trkpt>
      <trkpt lat="42.89867095" lon="13.33269699">
        <ele>965.00000</ele>
        <time>2024-05-10T21:02:08Z</time>
      </trkpt>
      <trkpt lat="42.89867699" lon="13.33264192">
        <ele>965.00000</ele>
        <time>2024-05-10T21:02:09Z</time>
      </trkpt>
      <trkpt lat="42.89867891" lon="13.33259096">
        <ele>965.00000</ele>
        <time>2024-05-10T21:02:09Z</time>
      </trkpt>
      <trkpt lat="42.89867799" lon="13.33253296">
        <ele>965.00000</ele>
        <time>2024-05-10T21:02:10Z</time>
      </trkpt>
      <trkpt lat="42.89868093" lon="13.33247495">
        <ele>965.00000</ele>
        <time>2024-05-10T21:02:11Z</time>
      </trkpt>
      <trkpt lat="42.89868294" lon="13.33241594">
        <ele>965.00000</ele>
        <time>2024-05-10T21:02:12Z</time>
      </trkpt>
      <trkpt lat="42.89868596" lon="13.33236096">
        <ele>965.00000</ele>
        <time>2024-05-10T21:02:13Z</time>
      </trkpt>
      <trkpt lat="42.89869098" lon="13.33230296">
        <ele>965.00000</ele>
        <time>2024-05-10T21:02:14Z</time>
      </trkpt>
      <trkpt lat="42.89869392" lon="13.33224395">
        <ele>965.00000</ele>
        <time>2024-05-10T21:02:14Z</time>
      </trkpt>
      <trkpt lat="42.89869694" lon="13.33218494">
        <ele>966.00000</ele>
        <time>2024-05-10T21:02:15Z</time>
      </trkpt>
      <trkpt lat="42.89869794" lon="13.33213096">
        <ele>966.00000</ele>
        <time>2024-05-10T21:02:16Z</time>
      </trkpt>
      <trkpt lat="42.89869995" lon="13.33207991">
        <ele>966.00000</ele>
        <time>2024-05-10T21:02:17Z</time>
      </trkpt>
      <trkpt lat="42.89870398" lon="13.33202593">
        <ele>966.00000</ele>
        <time>2024-05-10T21:02:18Z</time>
      </trkpt>
      <trkpt lat="42.89870993" lon="13.33197095">
        <ele>966.00000</ele>
        <time>2024-05-10T21:02:19Z</time>
      </trkpt>
      <trkpt lat="42.89871697" lon="13.33191496">
        <ele>966.00000</ele>
        <time>2024-05-10T21:02:19Z</time>
      </trkpt>
      <trkpt lat="42.89871999" lon="13.33185595">
        <ele>966.00000</ele>
        <time>2024-05-10T21:02:20Z</time>
      </trkpt>
      <trkpt lat="42.89872191" lon="13.33180096">
        <ele>966.00000</ele>
        <time>2024-05-10T21:02:21Z</time>
      </trkpt>
      <trkpt lat="42.89872191" lon="13.33175394">
        <ele>966.00000</ele>
        <time>2024-05-10T21:02:22Z</time>
      </trkpt>
      <trkpt lat="42.89872694" lon="13.33169795">
        <ele>966.00000</ele>
        <time>2024-05-10T21:02:23Z</time>
      </trkpt>
      <trkpt lat="42.89873197" lon="13.33164196">
        <ele>966.00000</ele>
        <time>2024-05-10T21:02:23Z</time>
      </trkpt>
      <trkpt lat="42.89873298" lon="13.33158999">
        <ele>966.00000</ele>
        <time>2024-05-10T21:02:24Z</time>
      </trkpt>
      <trkpt lat="42.89873499" lon="13.33153794">
        <ele>966.00000</ele>
        <time>2024-05-10T21:02:25Z</time>
      </trkpt>
      <trkpt lat="42.89873591" lon="13.33148497">
        <ele>966.00000</ele>
        <time>2024-05-10T21:02:26Z</time>
      </trkpt>
      <trkpt lat="42.89873692" lon="13.33142998">
        <ele>965.00000</ele>
        <time>2024-05-10T21:02:26Z</time>
      </trkpt>
      <trkpt lat="42.89873692" lon="13.33137491">
        <ele>965.00000</ele>
        <time>2024-05-10T21:02:27Z</time>
      </trkpt>
      <trkpt lat="42.89874094" lon="13.33131892">
        <ele>965.00000</ele>
        <time>2024-05-10T21:02:28Z</time>
      </trkpt>
      <trkpt lat="42.89874798" lon="13.33126695">
        <ele>965.00000</ele>
        <time>2024-05-10T21:02:29Z</time>
      </trkpt>
      <trkpt lat="42.89875393" lon="13.33122094">
        <ele>965.00000</ele>
        <time>2024-05-10T21:02:30Z</time>
      </trkpt>
      <trkpt lat="42.89876097" lon="13.33117391">
        <ele>965.00000</ele>
        <time>2024-05-10T21:02:30Z</time>
      </trkpt>
      <trkpt lat="42.89876592" lon="13.33113091">
        <ele>965.00000</ele>
        <time>2024-05-10T21:02:31Z</time>
      </trkpt>
      <trkpt lat="42.89877195" lon="13.33108196">
        <ele>965.00000</ele>
        <time>2024-05-10T21:02:32Z</time>
      </trkpt>
      <trkpt lat="42.89877698" lon="13.33103695">
        <ele>965.00000</ele>
        <time>2024-05-10T21:02:32Z</time>
      </trkpt>
      <trkpt lat="42.89878293" lon="13.33098993">
        <ele>965.00000</ele>
        <time>2024-05-10T21:02:33Z</time>
      </trkpt>
      <trkpt lat="42.89878997" lon="13.33093595">
        <ele>966.00000</ele>
        <time>2024-05-10T21:02:34Z</time>
      </trkpt>
      <trkpt lat="42.89879693" lon="13.33087795">
        <ele>966.00000</ele>
        <time>2024-05-10T21:02:35Z</time>
      </trkpt>
      <trkpt lat="42.89879894" lon="13.33081894">
        <ele>966.00000</ele>
        <time>2024-05-10T21:02:36Z</time>
      </trkpt>
      <trkpt lat="42.89880196" lon="13.33075398">
        <ele>966.00000</ele>
        <time>2024-05-10T21:02:37Z</time>
      </trkpt>
      <trkpt lat="42.89880699" lon="13.33069497">
        <ele>966.00000</ele>
        <time>2024-05-10T21:02:37Z</time>
      </trkpt>
      <trkpt lat="42.89881495" lon="13.33063697">
        <ele>966.00000</ele>
        <time>2024-05-10T21:02:38Z</time>
      </trkpt>
      <trkpt lat="42.89881998" lon="13.33057897">
        <ele>966.00000</ele>
        <time>2024-05-10T21:02:39Z</time>
      </trkpt>
      <trkpt lat="42.89882593" lon="13.33052792">
        <ele>966.00000</ele>
        <time>2024-05-10T21:02:40Z</time>
      </trkpt>
      <trkpt lat="42.89882895" lon="13.33048098">
        <ele>966.00000</ele>
        <time>2024-05-10T21:02:41Z</time>
      </trkpt>
      <trkpt lat="42.89883297" lon="13.33042591">
        <ele>966.00000</ele>
        <time>2024-05-10T21:02:41Z</time>
      </trkpt>
      <trkpt lat="42.89883892" lon="13.33037696">
        <ele>966.00000</ele>
        <time>2024-05-10T21:02:42Z</time>
      </trkpt>
      <trkpt lat="42.89884898" lon="13.33032793">
        <ele>966.00000</ele>
        <time>2024-05-10T21:02:43Z</time>
      </trkpt>
      <trkpt lat="42.89885493" lon="13.33026599">
        <ele>966.00000</ele>
        <time>2024-05-10T21:02:44Z</time>
      </trkpt>
      <trkpt lat="42.89885795" lon="13.33020798">
        <ele>965.00000</ele>
        <time>2024-05-10T21:02:45Z</time>
      </trkpt>
      <trkpt lat="42.89886097" lon="13.33014998">
        <ele>964.00000</ele>
        <time>2024-05-10T21:02:45Z</time>
      </trkpt>
      <trkpt lat="42.89886499" lon="13.33010296">
        <ele>963.00000</ele>
        <time>2024-05-10T21:02:46Z</time>
      </trkpt>
      <trkpt lat="42.89887396" lon="13.33004898">
        <ele>962.00000</ele>
        <time>2024-05-10T21:02:47Z</time>
      </trkpt>
      <trkpt lat="42.89888293" lon="13.32999793">
        <ele>962.00000</ele>
        <time>2024-05-10T21:02:48Z</time>
      </trkpt>
      <trkpt lat="42.89889299" lon="13.32995099">
        <ele>962.00000</ele>
        <time>2024-05-10T21:02:48Z</time>
      </trkpt>
      <trkpt lat="42.89890196" lon="13.32989894">
        <ele>961.00000</ele>
        <time>2024-05-10T21:02:49Z</time>
      </trkpt>
      <trkpt lat="42.89891394" lon="13.32984195">
        <ele>961.00000</ele>
        <time>2024-05-10T21:02:50Z</time>
      </trkpt>
      <trkpt lat="42.89892291" lon="13.32978696">
        <ele>961.00000</ele>
        <time>2024-05-10T21:02:51Z</time>
      </trkpt>
      <trkpt lat="42.89892995" lon="13.32973499">
        <ele>961.00000</ele>
        <time>2024-05-10T21:02:52Z</time>
      </trkpt>
      <trkpt lat="42.89893892" lon="13.32968395">
        <ele>961.00000</ele>
        <time>2024-05-10T21:02:53Z</time>
      </trkpt>
      <trkpt lat="42.89894898" lon="13.32963592">
        <ele>961.00000</ele>
        <time>2024-05-10T21:02:53Z</time>
      </trkpt>
      <trkpt lat="42.89896097" lon="13.32958295">
        <ele>960.00000</ele>
        <time>2024-05-10T21:02:54Z</time>
      </trkpt>
      <trkpt lat="42.89896893" lon="13.32953492">
        <ele>960.00000</ele>
        <time>2024-05-10T21:02:55Z</time>
      </trkpt>
      <trkpt lat="42.89897999" lon="13.32948395">
        <ele>960.00000</ele>
        <time>2024-05-10T21:02:56Z</time>
      </trkpt>
      <trkpt lat="42.89898695" lon="13.32943199">
        <ele>960.00000</ele>
        <time>2024-05-10T21:02:56Z</time>
      </trkpt>
      <trkpt lat="42.89899491" lon="13.32938295">
        <ele>960.00000</ele>
        <time>2024-05-10T21:02:57Z</time>
      </trkpt>
      <trkpt lat="42.89900296" lon="13.32932394">
        <ele>960.00000</ele>
        <time>2024-05-10T21:02:58Z</time>
      </trkpt>
      <trkpt lat="42.89901193" lon="13.32927298">
        <ele>960.00000</ele>
        <time>2024-05-10T21:02:59Z</time>
      </trkpt>
      <trkpt lat="42.89902199" lon="13.32922495">
        <ele>960.00000</ele>
        <time>2024-05-10T21:02:59Z</time>
      </trkpt>
      <trkpt lat="42.89903095" lon="13.32917994">
        <ele>959.00000</ele>
        <time>2024-05-10T21:03:00Z</time>
      </trkpt>
      <trkpt lat="42.89903992" lon="13.32913393">
        <ele>959.00000</ele>
        <time>2024-05-10T21:03:01Z</time>
      </trkpt>
      <trkpt lat="42.89904998" lon="13.32907894">
        <ele>959.00000</ele>
        <time>2024-05-10T21:03:02Z</time>
      </trkpt>
      <trkpt lat="42.89905794" lon="13.32902899">
        <ele>959.00000</ele>
        <time>2024-05-10T21:03:02Z</time>
      </trkpt>
      <trkpt lat="42.89906792" lon="13.32898096">
        <ele>959.00000</ele>
        <time>2024-05-10T21:03:03Z</time>
      </trkpt>
      <trkpt lat="42.89907798" lon="13.32893393">
        <ele>959.00000</ele>
        <time>2024-05-10T21:03:04Z</time>
      </trkpt>
      <trkpt lat="42.89908795" lon="13.32888599">
        <ele>959.00000</ele>
        <time>2024-05-10T21:03:05Z</time>
      </trkpt>
      <trkpt lat="42.89909499" lon="13.32883897">
        <ele>959.00000</ele>
        <time>2024-05-10T21:03:05Z</time>
      </trkpt>
      <trkpt lat="42.89910295" lon="13.32878792">
        <ele>960.00000</ele>
        <time>2024-05-10T21:03:06Z</time>
      </trkpt>
      <trkpt lat="42.89911394" lon="13.32873897">
        <ele>960.00000</ele>
        <time>2024-05-10T21:03:07Z</time>
      </trkpt>
      <trkpt lat="42.89912098" lon="13.32869396">
        <ele>960.00000</ele>
        <time>2024-05-10T21:03:08Z</time>
      </trkpt>
      <trkpt lat="42.89912994" lon="13.32864593">
        <ele>960.00000</ele>
        <time>2024-05-10T21:03:08Z</time>
      </trkpt>
      <trkpt lat="42.89913891" lon="13.32859296">
        <ele>961.00000</ele>
        <time>2024-05-10T21:03:09Z</time>
      </trkpt>
      <trkpt lat="42.89914595" lon="13.32854292">
        <ele>962.00000</ele>
        <time>2024-05-10T21:03:10Z</time>
      </trkpt>
      <trkpt lat="42.89915299" lon="13.32849397">
        <ele>963.00000</ele>
        <time>2024-05-10T21:03:11Z</time>
      </trkpt>
      <trkpt lat="42.89915794" lon="13.32844493">
        <ele>964.00000</ele>
        <time>2024-05-10T21:03:11Z</time>
      </trkpt>
      <trkpt lat="42.89916398" lon="13.32839297">
        <ele>964.00000</ele>
        <time>2024-05-10T21:03:12Z</time>
      </trkpt>
      <trkpt lat="42.89917093" lon="13.32834594">
        <ele>965.00000</ele>
        <time>2024-05-10T21:03:13Z</time>
      </trkpt>
      <trkpt lat="42.89917898" lon="13.32829993">
        <ele>966.00000</ele>
        <time>2024-05-10T21:03:13Z</time>
      </trkpt>
      <trkpt lat="42.89919096" lon="13.32825299">
        <ele>966.00000</ele>
        <time>2024-05-10T21:03:14Z</time>
      </trkpt>
      <trkpt lat="42.89920195" lon="13.32820999">
        <ele>967.00000</ele>
        <time>2024-05-10T21:03:15Z</time>
      </trkpt>
      <trkpt lat="42.89921594" lon="13.32817093">
        <ele>967.00000</ele>
        <time>2024-05-10T21:03:15Z</time>
      </trkpt>
      <trkpt lat="42.89923095" lon="13.32813195">
        <ele>968.00000</ele>
        <time>2024-05-10T21:03:16Z</time>
      </trkpt>
      <trkpt lat="42.89924897" lon="13.32808895">
        <ele>969.00000</ele>
        <time>2024-05-10T21:03:17Z</time>
      </trkpt>
      <trkpt lat="42.89926992" lon="13.32804495">
        <ele>969.00000</ele>
        <time>2024-05-10T21:03:18Z</time>
      </trkpt>
      <trkpt lat="42.89929096" lon="13.32800296">
        <ele>970.00000</ele>
        <time>2024-05-10T21:03:18Z</time>
      </trkpt>
      <trkpt lat="42.89931192" lon="13.32797094">
        <ele>971.00000</ele>
        <time>2024-05-10T21:03:19Z</time>
      </trkpt>
      <trkpt lat="42.89932793" lon="13.32793992">
        <ele>971.00000</ele>
        <time>2024-05-10T21:03:20Z</time>
      </trkpt>
      <trkpt lat="42.89934393" lon="13.32790095">
        <ele>972.00000</ele>
        <time>2024-05-10T21:03:20Z</time>
      </trkpt>
      <trkpt lat="42.89935994" lon="13.32786197">
        <ele>973.00000</ele>
        <time>2024-05-10T21:03:21Z</time>
      </trkpt>
      <trkpt lat="42.89937193" lon="13.32782099">
        <ele>974.00000</ele>
        <time>2024-05-10T21:03:22Z</time>
      </trkpt>
      <trkpt lat="42.89938392" lon="13.32777899">
        <ele>975.00000</ele>
        <time>2024-05-10T21:03:22Z</time>
      </trkpt>
      <trkpt lat="42.89938492" lon="13.32774094">
        <ele>976.00000</ele>
        <time>2024-05-10T21:03:23Z</time>
      </trkpt>
      <trkpt lat="42.89938693" lon="13.32769995">
        <ele>977.00000</ele>
        <time>2024-05-10T21:03:23Z</time>
      </trkpt>
      <trkpt lat="42.89939196" lon="13.32766491">
        <ele>977.00000</ele>
        <time>2024-05-10T21:03:24Z</time>
      </trkpt>
      <trkpt lat="42.89939699" lon="13.32762896">
        <ele>978.00000</ele>
        <time>2024-05-10T21:03:24Z</time>
      </trkpt>
      <trkpt lat="42.89939397" lon="13.32759392">
        <ele>979.00000</ele>
        <time>2024-05-10T21:03:25Z</time>
      </trkpt>
      <trkpt lat="42.89939096" lon="13.32755897">
        <ele>979.00000</ele>
        <time>2024-05-10T21:03:25Z</time>
      </trkpt>
      <trkpt lat="42.89938995" lon="13.32752594">
        <ele>980.00000</ele>
        <time>2024-05-10T21:03:26Z</time>
      </trkpt>
      <trkpt lat="42.89939096" lon="13.32749594">
        <ele>981.00000</ele>
        <time>2024-05-10T21:03:26Z</time>
      </trkpt>
      <trkpt lat="42.89938098" lon="13.32747599">
        <ele>981.00000</ele>
        <time>2024-05-10T21:03:27Z</time>
      </trkpt>
      <trkpt lat="42.89937193" lon="13.32745394">
        <ele>981.00000</ele>
        <time>2024-05-10T21:03:27Z</time>
      </trkpt>
      <trkpt lat="42.89935793" lon="13.32742796">
        <ele>981.00000</ele>
        <time>2024-05-10T21:03:28Z</time>
      </trkpt>
      <trkpt lat="42.89934293" lon="13.32740298">
        <ele>982.00000</ele>
        <time>2024-05-10T21:03:28Z</time>
      </trkpt>
      <trkpt lat="42.89932298" lon="13.32738596">
        <ele>982.00000</ele>
        <time>2024-05-10T21:03:28Z</time>
      </trkpt>
      <trkpt lat="42.89929792" lon="13.32737398">
        <ele>981.00000</ele>
        <time>2024-05-10T21:03:29Z</time>
      </trkpt>
      <trkpt lat="42.89928099" lon="13.32735596">
        <ele>981.00000</ele>
        <time>2024-05-10T21:03:29Z</time>
      </trkpt>
      <trkpt lat="42.89926498" lon="13.32734498">
        <ele>981.00000</ele>
        <time>2024-05-10T21:03:30Z</time>
      </trkpt>
      <trkpt lat="42.89926196" lon="13.32733693">
        <ele>981.00000</ele>
        <time>2024-05-10T21:03:30Z</time>
      </trkpt>
      <trkpt lat="42.89926095" lon="13.32733199">
        <ele>981.00000</ele>
        <time>2024-05-10T21:03:30Z</time>
      </trkpt>
      <trkpt lat="42.89925299" lon="13.32733199">
        <ele>981.00000</ele>
        <time>2024-05-10T21:03:30Z</time>
      </trkpt>
    </trkseg>
  </trk>
</gpx>

